<?xml version="1.0" encoding="UTF-8" standalone="no" ?>
<gpx xmlns="http://www.topografix.com/GPX/1/1" xmlns:xsi="http://www.w3.org/2001/XMLSchema-instance" xsi:schemaLocation="http://www.topografix.com/GPX/1/1 http://www.topografix.com/GPX/1/1/gpx.xsd" version="1.1" creator="VisuGPX - https://www.visugpx.com">
  <metadata>
    <name>2eme jour poigny - briis 2013</name>
  </metadata>
  <trk>
    <name><![CDATA[2eme jour poigny - briis 2013_1]]></name>
    <trkseg>
      <trkpt lat="48.68739" lon="1.7647">
        <ele>170</ele>
        <time>2013-08-18T07:38:50Z</time>
      </trkpt>
      <trkpt lat="48.68753" lon="1.76431">
        <ele>149</ele>
        <time>2013-08-18T07:38:56Z</time>
      </trkpt>
      <trkpt lat="48.68754" lon="1.76427">
        <ele>147</ele>
        <time>2013-08-18T07:38:58Z</time>
      </trkpt>
      <trkpt lat="48.68753" lon="1.76434">
        <ele>145</ele>
        <time>2013-08-18T07:39:00Z</time>
      </trkpt>
      <trkpt lat="48.6875" lon="1.76443">
        <ele>144</ele>
        <time>2013-08-18T07:39:02Z</time>
      </trkpt>
      <trkpt lat="48.6875" lon="1.76443">
        <ele>144</ele>
        <time>2013-08-18T07:39:04Z</time>
      </trkpt>
      <trkpt lat="48.68749" lon="1.76444">
        <ele>144</ele>
        <time>2013-08-18T07:39:07Z</time>
      </trkpt>
      <trkpt lat="48.68748" lon="1.7645">
        <ele>145</ele>
        <time>2013-08-18T07:39:10Z</time>
      </trkpt>
      <trkpt lat="48.68747" lon="1.76453">
        <ele>149</ele>
        <time>2013-08-18T07:39:14Z</time>
      </trkpt>
      <trkpt lat="48.68746" lon="1.76458">
        <ele>151</ele>
        <time>2013-08-18T07:39:16Z</time>
      </trkpt>
      <trkpt lat="48.68747" lon="1.76459">
        <ele>154</ele>
        <time>2013-08-18T07:39:19Z</time>
      </trkpt>
      <trkpt lat="48.68748" lon="1.76457">
        <ele>155</ele>
        <time>2013-08-18T07:39:21Z</time>
      </trkpt>
      <trkpt lat="48.68747" lon="1.76461">
        <ele>155</ele>
        <time>2013-08-18T07:39:23Z</time>
      </trkpt>
      <trkpt lat="48.68745" lon="1.76465">
        <ele>156</ele>
        <time>2013-08-18T07:39:25Z</time>
      </trkpt>
      <trkpt lat="48.68747" lon="1.76462">
        <ele>157</ele>
        <time>2013-08-18T07:39:28Z</time>
      </trkpt>
      <trkpt lat="48.68748" lon="1.76462">
        <ele>157</ele>
        <time>2013-08-18T07:39:30Z</time>
      </trkpt>
      <trkpt lat="48.68748" lon="1.76462">
        <ele>157</ele>
        <time>2013-08-18T07:39:34Z</time>
      </trkpt>
      <trkpt lat="48.68748" lon="1.7646">
        <ele>157</ele>
        <time>2013-08-18T07:39:36Z</time>
      </trkpt>
      <trkpt lat="48.68747" lon="1.76464">
        <ele>157</ele>
        <time>2013-08-18T07:39:38Z</time>
      </trkpt>
      <trkpt lat="48.68747" lon="1.76467">
        <ele>157</ele>
        <time>2013-08-18T07:39:42Z</time>
      </trkpt>
      <trkpt lat="48.68746" lon="1.76472">
        <ele>157</ele>
        <time>2013-08-18T07:39:44Z</time>
      </trkpt>
      <trkpt lat="48.68743" lon="1.76476">
        <ele>159</ele>
        <time>2013-08-18T07:39:47Z</time>
      </trkpt>
      <trkpt lat="48.6874" lon="1.76482">
        <ele>161</ele>
        <time>2013-08-18T07:39:49Z</time>
      </trkpt>
      <trkpt lat="48.68738" lon="1.7649">
        <ele>164</ele>
        <time>2013-08-18T07:39:51Z</time>
      </trkpt>
      <trkpt lat="48.68738" lon="1.76492">
        <ele>166</ele>
        <time>2013-08-18T07:39:53Z</time>
      </trkpt>
      <trkpt lat="48.68739" lon="1.76492">
        <ele>172</ele>
        <time>2013-08-18T07:39:56Z</time>
      </trkpt>
      <trkpt lat="48.68742" lon="1.76489">
        <ele>175</ele>
        <time>2013-08-18T07:40:01Z</time>
      </trkpt>
      <trkpt lat="48.68744" lon="1.76481">
        <ele>176</ele>
        <time>2013-08-18T07:40:03Z</time>
      </trkpt>
      <trkpt lat="48.68745" lon="1.76475">
        <ele>176</ele>
        <time>2013-08-18T07:40:05Z</time>
      </trkpt>
      <trkpt lat="48.68745" lon="1.76475">
        <ele>174</ele>
        <time>2013-08-18T07:40:07Z</time>
      </trkpt>
      <trkpt lat="48.68744" lon="1.76477">
        <ele>173</ele>
        <time>2013-08-18T07:40:09Z</time>
      </trkpt>
      <trkpt lat="48.68745" lon="1.76473">
        <ele>172</ele>
        <time>2013-08-18T07:40:11Z</time>
      </trkpt>
      <trkpt lat="48.68746" lon="1.7647">
        <ele>171</ele>
        <time>2013-08-18T07:40:13Z</time>
      </trkpt>
      <trkpt lat="48.68747" lon="1.76468">
        <ele>170</ele>
        <time>2013-08-18T07:40:15Z</time>
      </trkpt>
      <trkpt lat="48.68749" lon="1.76464">
        <ele>168</ele>
        <time>2013-08-18T07:40:17Z</time>
      </trkpt>
      <trkpt lat="48.68748" lon="1.76463">
        <ele>165</ele>
        <time>2013-08-18T07:40:21Z</time>
      </trkpt>
      <trkpt lat="48.68747" lon="1.76461">
        <ele>163</ele>
        <time>2013-08-18T07:40:24Z</time>
      </trkpt>
      <trkpt lat="48.68745" lon="1.76469">
        <ele>163</ele>
        <time>2013-08-18T07:40:26Z</time>
      </trkpt>
      <trkpt lat="48.68744" lon="1.76475">
        <ele>163</ele>
        <time>2013-08-18T07:40:28Z</time>
      </trkpt>
      <trkpt lat="48.68743" lon="1.76481">
        <ele>163</ele>
        <time>2013-08-18T07:40:30Z</time>
      </trkpt>
      <trkpt lat="48.68743" lon="1.76481">
        <ele>165</ele>
        <time>2013-08-18T07:40:32Z</time>
      </trkpt>
      <trkpt lat="48.68745" lon="1.76477">
        <ele>167</ele>
        <time>2013-08-18T07:40:38Z</time>
      </trkpt>
      <trkpt lat="48.68745" lon="1.76476">
        <ele>166</ele>
        <time>2013-08-18T07:40:40Z</time>
      </trkpt>
      <trkpt lat="48.68743" lon="1.76476">
        <ele>165</ele>
        <time>2013-08-18T07:40:42Z</time>
      </trkpt>
      <trkpt lat="48.68739" lon="1.76482">
        <ele>165</ele>
        <time>2013-08-18T07:40:46Z</time>
      </trkpt>
      <trkpt lat="48.6874" lon="1.76484">
        <ele>165</ele>
        <time>2013-08-18T07:40:48Z</time>
      </trkpt>
      <trkpt lat="48.68743" lon="1.76488">
        <ele>165</ele>
        <time>2013-08-18T07:40:53Z</time>
      </trkpt>
      <trkpt lat="48.68748" lon="1.76478">
        <ele>165</ele>
        <time>2013-08-18T07:40:55Z</time>
      </trkpt>
      <trkpt lat="48.6875" lon="1.76473">
        <ele>165</ele>
        <time>2013-08-18T07:40:57Z</time>
      </trkpt>
      <trkpt lat="48.68753" lon="1.7647">
        <ele>163</ele>
        <time>2013-08-18T07:40:59Z</time>
      </trkpt>
      <trkpt lat="48.68752" lon="1.76472">
        <ele>161</ele>
        <time>2013-08-18T07:41:01Z</time>
      </trkpt>
      <trkpt lat="48.68748" lon="1.76479">
        <ele>160</ele>
        <time>2013-08-18T07:41:04Z</time>
      </trkpt>
      <trkpt lat="48.68747" lon="1.76482">
        <ele>159</ele>
        <time>2013-08-18T07:41:07Z</time>
      </trkpt>
      <trkpt lat="48.68745" lon="1.76487">
        <ele>157</ele>
        <time>2013-08-18T07:41:09Z</time>
      </trkpt>
      <trkpt lat="48.68744" lon="1.76494">
        <ele>155</ele>
        <time>2013-08-18T07:41:12Z</time>
      </trkpt>
      <trkpt lat="48.68745" lon="1.76497">
        <ele>155</ele>
        <time>2013-08-18T07:41:15Z</time>
      </trkpt>
      <trkpt lat="48.68745" lon="1.76499">
        <ele>153</ele>
        <time>2013-08-18T07:41:17Z</time>
      </trkpt>
      <trkpt lat="48.68743" lon="1.7651">
        <ele>152</ele>
        <time>2013-08-18T07:41:20Z</time>
      </trkpt>
      <trkpt lat="48.68743" lon="1.76515">
        <ele>152</ele>
        <time>2013-08-18T07:41:23Z</time>
      </trkpt>
      <trkpt lat="48.68743" lon="1.76519">
        <ele>152</ele>
        <time>2013-08-18T07:41:25Z</time>
      </trkpt>
      <trkpt lat="48.68742" lon="1.76525">
        <ele>152</ele>
        <time>2013-08-18T07:41:27Z</time>
      </trkpt>
      <trkpt lat="48.6874" lon="1.76537">
        <ele>152</ele>
        <time>2013-08-18T07:41:29Z</time>
      </trkpt>
      <trkpt lat="48.68738" lon="1.76546">
        <ele>153</ele>
        <time>2013-08-18T07:41:31Z</time>
      </trkpt>
      <trkpt lat="48.6874" lon="1.76546">
        <ele>155</ele>
        <time>2013-08-18T07:41:34Z</time>
      </trkpt>
      <trkpt lat="48.68743" lon="1.76546">
        <ele>155</ele>
        <time>2013-08-18T07:41:36Z</time>
      </trkpt>
      <trkpt lat="48.68742" lon="1.76555">
        <ele>155</ele>
        <time>2013-08-18T07:41:38Z</time>
      </trkpt>
      <trkpt lat="48.68741" lon="1.76564">
        <ele>155</ele>
        <time>2013-08-18T07:41:40Z</time>
      </trkpt>
      <trkpt lat="48.68742" lon="1.76567">
        <ele>156</ele>
        <time>2013-08-18T07:41:44Z</time>
      </trkpt>
      <trkpt lat="48.68743" lon="1.76568">
        <ele>156</ele>
        <time>2013-08-18T07:41:47Z</time>
      </trkpt>
      <trkpt lat="48.68745" lon="1.76567">
        <ele>155</ele>
        <time>2013-08-18T07:41:49Z</time>
      </trkpt>
      <trkpt lat="48.68748" lon="1.76565">
        <ele>153</ele>
        <time>2013-08-18T07:41:51Z</time>
      </trkpt>
      <trkpt lat="48.6875" lon="1.76569">
        <ele>150</ele>
        <time>2013-08-18T07:41:54Z</time>
      </trkpt>
      <trkpt lat="48.68751" lon="1.76573">
        <ele>150</ele>
        <time>2013-08-18T07:41:56Z</time>
      </trkpt>
      <trkpt lat="48.6875" lon="1.76576">
        <ele>150</ele>
        <time>2013-08-18T07:42:00Z</time>
      </trkpt>
      <trkpt lat="48.68749" lon="1.76575">
        <ele>150</ele>
        <time>2013-08-18T07:42:04Z</time>
      </trkpt>
      <trkpt lat="48.68748" lon="1.76574">
        <ele>150</ele>
        <time>2013-08-18T07:42:10Z</time>
      </trkpt>
      <trkpt lat="48.68747" lon="1.76574">
        <ele>150</ele>
        <time>2013-08-18T07:42:13Z</time>
      </trkpt>
      <trkpt lat="48.68745" lon="1.76574">
        <ele>151</ele>
        <time>2013-08-18T07:42:17Z</time>
      </trkpt>
      <trkpt lat="48.68744" lon="1.76575">
        <ele>152</ele>
        <time>2013-08-18T07:42:19Z</time>
      </trkpt>
      <trkpt lat="48.68743" lon="1.76577">
        <ele>152</ele>
        <time>2013-08-18T07:42:21Z</time>
      </trkpt>
      <trkpt lat="48.68741" lon="1.76582">
        <ele>152</ele>
        <time>2013-08-18T07:42:23Z</time>
      </trkpt>
      <trkpt lat="48.6874" lon="1.76587">
        <ele>152</ele>
        <time>2013-08-18T07:42:25Z</time>
      </trkpt>
      <trkpt lat="48.68739" lon="1.76593">
        <ele>152</ele>
        <time>2013-08-18T07:42:27Z</time>
      </trkpt>
      <trkpt lat="48.68739" lon="1.76598">
        <ele>152</ele>
        <time>2013-08-18T07:42:29Z</time>
      </trkpt>
      <trkpt lat="48.68739" lon="1.76602">
        <ele>152</ele>
        <time>2013-08-18T07:42:31Z</time>
      </trkpt>
      <trkpt lat="48.68738" lon="1.76607">
        <ele>152</ele>
        <time>2013-08-18T07:42:33Z</time>
      </trkpt>
      <trkpt lat="48.68737" lon="1.76612">
        <ele>152</ele>
        <time>2013-08-18T07:42:35Z</time>
      </trkpt>
      <trkpt lat="48.68737" lon="1.76617">
        <ele>151</ele>
        <time>2013-08-18T07:42:37Z</time>
      </trkpt>
      <trkpt lat="48.68736" lon="1.76621">
        <ele>151</ele>
        <time>2013-08-18T07:42:39Z</time>
      </trkpt>
      <trkpt lat="48.68736" lon="1.76629">
        <ele>149</ele>
        <time>2013-08-18T07:42:43Z</time>
      </trkpt>
      <trkpt lat="48.68737" lon="1.76633">
        <ele>148</ele>
        <time>2013-08-18T07:42:46Z</time>
      </trkpt>
      <trkpt lat="48.68741" lon="1.76631">
        <ele>147</ele>
        <time>2013-08-18T07:42:48Z</time>
      </trkpt>
      <trkpt lat="48.68741" lon="1.76635">
        <ele>145</ele>
        <time>2013-08-18T07:42:50Z</time>
      </trkpt>
      <trkpt lat="48.68739" lon="1.76641">
        <ele>145</ele>
        <time>2013-08-18T07:42:52Z</time>
      </trkpt>
      <trkpt lat="48.68739" lon="1.76646">
        <ele>145</ele>
        <time>2013-08-18T07:42:54Z</time>
      </trkpt>
      <trkpt lat="48.68738" lon="1.76652">
        <ele>145</ele>
        <time>2013-08-18T07:42:56Z</time>
      </trkpt>
      <trkpt lat="48.68737" lon="1.76657">
        <ele>145</ele>
        <time>2013-08-18T07:42:58Z</time>
      </trkpt>
      <trkpt lat="48.68737" lon="1.76662">
        <ele>145</ele>
        <time>2013-08-18T07:43:00Z</time>
      </trkpt>
      <trkpt lat="48.68736" lon="1.76669">
        <ele>145</ele>
        <time>2013-08-18T07:43:02Z</time>
      </trkpt>
      <trkpt lat="48.68736" lon="1.76674">
        <ele>145</ele>
        <time>2013-08-18T07:43:04Z</time>
      </trkpt>
      <trkpt lat="48.68737" lon="1.7668">
        <ele>145</ele>
        <time>2013-08-18T07:43:07Z</time>
      </trkpt>
      <trkpt lat="48.68737" lon="1.76684">
        <ele>145</ele>
        <time>2013-08-18T07:43:09Z</time>
      </trkpt>
      <trkpt lat="48.68736" lon="1.76689">
        <ele>145</ele>
        <time>2013-08-18T07:43:11Z</time>
      </trkpt>
      <trkpt lat="48.68736" lon="1.76695">
        <ele>145</ele>
        <time>2013-08-18T07:43:13Z</time>
      </trkpt>
      <trkpt lat="48.68738" lon="1.76697">
        <ele>145</ele>
        <time>2013-08-18T07:43:15Z</time>
      </trkpt>
      <trkpt lat="48.68737" lon="1.76712">
        <ele>146</ele>
        <time>2013-08-18T07:43:19Z</time>
      </trkpt>
      <trkpt lat="48.68739" lon="1.76716">
        <ele>147</ele>
        <time>2013-08-18T07:43:21Z</time>
      </trkpt>
      <trkpt lat="48.68736" lon="1.76725">
        <ele>148</ele>
        <time>2013-08-18T07:43:23Z</time>
      </trkpt>
      <trkpt lat="48.68737" lon="1.7673">
        <ele>148</ele>
        <time>2013-08-18T07:43:27Z</time>
      </trkpt>
      <trkpt lat="48.68736" lon="1.76734">
        <ele>148</ele>
        <time>2013-08-18T07:43:29Z</time>
      </trkpt>
      <trkpt lat="48.68735" lon="1.76741">
        <ele>148</ele>
        <time>2013-08-18T07:43:32Z</time>
      </trkpt>
      <trkpt lat="48.68734" lon="1.76747">
        <ele>148</ele>
        <time>2013-08-18T07:43:34Z</time>
      </trkpt>
      <trkpt lat="48.68733" lon="1.76751">
        <ele>148</ele>
        <time>2013-08-18T07:43:36Z</time>
      </trkpt>
      <trkpt lat="48.68732" lon="1.76757">
        <ele>148</ele>
        <time>2013-08-18T07:43:38Z</time>
      </trkpt>
      <trkpt lat="48.68731" lon="1.76762">
        <ele>148</ele>
        <time>2013-08-18T07:43:40Z</time>
      </trkpt>
      <trkpt lat="48.6873" lon="1.76767">
        <ele>148</ele>
        <time>2013-08-18T07:43:42Z</time>
      </trkpt>
      <trkpt lat="48.6873" lon="1.7677">
        <ele>148</ele>
        <time>2013-08-18T07:43:44Z</time>
      </trkpt>
      <trkpt lat="48.68731" lon="1.76772">
        <ele>148</ele>
        <time>2013-08-18T07:43:46Z</time>
      </trkpt>
      <trkpt lat="48.68731" lon="1.76777">
        <ele>147</ele>
        <time>2013-08-18T07:43:48Z</time>
      </trkpt>
      <trkpt lat="48.6873" lon="1.76781">
        <ele>147</ele>
        <time>2013-08-18T07:43:50Z</time>
      </trkpt>
      <trkpt lat="48.68729" lon="1.76786">
        <ele>147</ele>
        <time>2013-08-18T07:43:52Z</time>
      </trkpt>
      <trkpt lat="48.68729" lon="1.7679">
        <ele>146</ele>
        <time>2013-08-18T07:43:54Z</time>
      </trkpt>
      <trkpt lat="48.68727" lon="1.76795">
        <ele>146</ele>
        <time>2013-08-18T07:43:56Z</time>
      </trkpt>
      <trkpt lat="48.68727" lon="1.768">
        <ele>146</ele>
        <time>2013-08-18T07:43:58Z</time>
      </trkpt>
      <trkpt lat="48.68726" lon="1.76806">
        <ele>146</ele>
        <time>2013-08-18T07:44:00Z</time>
      </trkpt>
      <trkpt lat="48.68725" lon="1.76812">
        <ele>146</ele>
        <time>2013-08-18T07:44:02Z</time>
      </trkpt>
      <trkpt lat="48.68725" lon="1.76815">
        <ele>146</ele>
        <time>2013-08-18T07:44:04Z</time>
      </trkpt>
      <trkpt lat="48.68724" lon="1.7682">
        <ele>146</ele>
        <time>2013-08-18T07:44:06Z</time>
      </trkpt>
      <trkpt lat="48.68723" lon="1.76827">
        <ele>146</ele>
        <time>2013-08-18T07:44:08Z</time>
      </trkpt>
      <trkpt lat="48.68722" lon="1.76835">
        <ele>146</ele>
        <time>2013-08-18T07:44:10Z</time>
      </trkpt>
      <trkpt lat="48.68723" lon="1.76841">
        <ele>146</ele>
        <time>2013-08-18T07:44:13Z</time>
      </trkpt>
      <trkpt lat="48.68722" lon="1.76848">
        <ele>146</ele>
        <time>2013-08-18T07:44:16Z</time>
      </trkpt>
      <trkpt lat="48.68721" lon="1.76856">
        <ele>146</ele>
        <time>2013-08-18T07:44:18Z</time>
      </trkpt>
      <trkpt lat="48.68721" lon="1.76862">
        <ele>147</ele>
        <time>2013-08-18T07:44:21Z</time>
      </trkpt>
      <trkpt lat="48.68721" lon="1.76865">
        <ele>147</ele>
        <time>2013-08-18T07:44:23Z</time>
      </trkpt>
      <trkpt lat="48.68721" lon="1.7687">
        <ele>147</ele>
        <time>2013-08-18T07:44:26Z</time>
      </trkpt>
      <trkpt lat="48.68721" lon="1.76874">
        <ele>147</ele>
        <time>2013-08-18T07:44:28Z</time>
      </trkpt>
      <trkpt lat="48.68721" lon="1.7688">
        <ele>147</ele>
        <time>2013-08-18T07:44:31Z</time>
      </trkpt>
      <trkpt lat="48.68722" lon="1.76883">
        <ele>147</ele>
        <time>2013-08-18T07:44:33Z</time>
      </trkpt>
      <trkpt lat="48.68723" lon="1.76886">
        <ele>147</ele>
        <time>2013-08-18T07:44:35Z</time>
      </trkpt>
      <trkpt lat="48.68723" lon="1.76894">
        <ele>147</ele>
        <time>2013-08-18T07:44:38Z</time>
      </trkpt>
      <trkpt lat="48.68723" lon="1.76897">
        <ele>147</ele>
        <time>2013-08-18T07:44:41Z</time>
      </trkpt>
      <trkpt lat="48.68721" lon="1.76903">
        <ele>147</ele>
        <time>2013-08-18T07:44:43Z</time>
      </trkpt>
      <trkpt lat="48.68719" lon="1.76913">
        <ele>147</ele>
        <time>2013-08-18T07:44:45Z</time>
      </trkpt>
      <trkpt lat="48.68719" lon="1.76919">
        <ele>149</ele>
        <time>2013-08-18T07:44:47Z</time>
      </trkpt>
      <trkpt lat="48.68718" lon="1.76925">
        <ele>150</ele>
        <time>2013-08-18T07:44:49Z</time>
      </trkpt>
      <trkpt lat="48.68718" lon="1.76929">
        <ele>151</ele>
        <time>2013-08-18T07:44:51Z</time>
      </trkpt>
      <trkpt lat="48.68718" lon="1.76933">
        <ele>151</ele>
        <time>2013-08-18T07:44:54Z</time>
      </trkpt>
      <trkpt lat="48.68718" lon="1.76937">
        <ele>151</ele>
        <time>2013-08-18T07:44:56Z</time>
      </trkpt>
      <trkpt lat="48.68718" lon="1.7694">
        <ele>151</ele>
        <time>2013-08-18T07:44:58Z</time>
      </trkpt>
      <trkpt lat="48.68717" lon="1.76944">
        <ele>151</ele>
        <time>2013-08-18T07:45:00Z</time>
      </trkpt>
      <trkpt lat="48.68718" lon="1.76946">
        <ele>151</ele>
        <time>2013-08-18T07:45:02Z</time>
      </trkpt>
      <trkpt lat="48.68717" lon="1.76952">
        <ele>150</ele>
        <time>2013-08-18T07:45:04Z</time>
      </trkpt>
      <trkpt lat="48.68716" lon="1.76959">
        <ele>150</ele>
        <time>2013-08-18T07:45:06Z</time>
      </trkpt>
      <trkpt lat="48.68715" lon="1.76965">
        <ele>150</ele>
        <time>2013-08-18T07:45:09Z</time>
      </trkpt>
      <trkpt lat="48.68715" lon="1.76971">
        <ele>149</ele>
        <time>2013-08-18T07:45:11Z</time>
      </trkpt>
      <trkpt lat="48.68715" lon="1.76977">
        <ele>148</ele>
        <time>2013-08-18T07:45:14Z</time>
      </trkpt>
      <trkpt lat="48.68715" lon="1.7698">
        <ele>148</ele>
        <time>2013-08-18T07:45:16Z</time>
      </trkpt>
      <trkpt lat="48.68715" lon="1.76984">
        <ele>147</ele>
        <time>2013-08-18T07:45:18Z</time>
      </trkpt>
      <trkpt lat="48.68715" lon="1.76988">
        <ele>146</ele>
        <time>2013-08-18T07:45:20Z</time>
      </trkpt>
      <trkpt lat="48.68714" lon="1.76995">
        <ele>146</ele>
        <time>2013-08-18T07:45:22Z</time>
      </trkpt>
      <trkpt lat="48.68713" lon="1.76999">
        <ele>146</ele>
        <time>2013-08-18T07:45:24Z</time>
      </trkpt>
      <trkpt lat="48.68713" lon="1.77004">
        <ele>146</ele>
        <time>2013-08-18T07:45:26Z</time>
      </trkpt>
      <trkpt lat="48.68712" lon="1.77009">
        <ele>146</ele>
        <time>2013-08-18T07:45:28Z</time>
      </trkpt>
      <trkpt lat="48.68712" lon="1.77013">
        <ele>146</ele>
        <time>2013-08-18T07:45:30Z</time>
      </trkpt>
      <trkpt lat="48.68712" lon="1.77016">
        <ele>145</ele>
        <time>2013-08-18T07:45:32Z</time>
      </trkpt>
      <trkpt lat="48.68711" lon="1.77022">
        <ele>145</ele>
        <time>2013-08-18T07:45:34Z</time>
      </trkpt>
      <trkpt lat="48.6871" lon="1.77026">
        <ele>145</ele>
        <time>2013-08-18T07:45:36Z</time>
      </trkpt>
      <trkpt lat="48.6871" lon="1.77029">
        <ele>145</ele>
        <time>2013-08-18T07:45:38Z</time>
      </trkpt>
      <trkpt lat="48.6871" lon="1.77033">
        <ele>145</ele>
        <time>2013-08-18T07:45:40Z</time>
      </trkpt>
      <trkpt lat="48.6871" lon="1.77037">
        <ele>145</ele>
        <time>2013-08-18T07:45:42Z</time>
      </trkpt>
      <trkpt lat="48.6871" lon="1.77042">
        <ele>145</ele>
        <time>2013-08-18T07:45:45Z</time>
      </trkpt>
      <trkpt lat="48.68711" lon="1.77045">
        <ele>145</ele>
        <time>2013-08-18T07:45:47Z</time>
      </trkpt>
      <trkpt lat="48.68713" lon="1.77048">
        <ele>145</ele>
        <time>2013-08-18T07:45:49Z</time>
      </trkpt>
      <trkpt lat="48.68712" lon="1.77056">
        <ele>145</ele>
        <time>2013-08-18T07:45:52Z</time>
      </trkpt>
      <trkpt lat="48.68711" lon="1.77061">
        <ele>145</ele>
        <time>2013-08-18T07:45:54Z</time>
      </trkpt>
      <trkpt lat="48.68711" lon="1.77065">
        <ele>145</ele>
        <time>2013-08-18T07:45:56Z</time>
      </trkpt>
      <trkpt lat="48.6871" lon="1.7707">
        <ele>145</ele>
        <time>2013-08-18T07:45:58Z</time>
      </trkpt>
      <trkpt lat="48.6871" lon="1.77076">
        <ele>145</ele>
        <time>2013-08-18T07:46:00Z</time>
      </trkpt>
      <trkpt lat="48.68708" lon="1.77083">
        <ele>145</ele>
        <time>2013-08-18T07:46:02Z</time>
      </trkpt>
      <trkpt lat="48.68707" lon="1.7709">
        <ele>145</ele>
        <time>2013-08-18T07:46:04Z</time>
      </trkpt>
      <trkpt lat="48.68706" lon="1.77096">
        <ele>145</ele>
        <time>2013-08-18T07:46:06Z</time>
      </trkpt>
      <trkpt lat="48.68705" lon="1.77101">
        <ele>145</ele>
        <time>2013-08-18T07:46:08Z</time>
      </trkpt>
      <trkpt lat="48.68705" lon="1.77106">
        <ele>145</ele>
        <time>2013-08-18T07:46:10Z</time>
      </trkpt>
      <trkpt lat="48.68708" lon="1.77108">
        <ele>145</ele>
        <time>2013-08-18T07:46:12Z</time>
      </trkpt>
      <trkpt lat="48.68711" lon="1.77109">
        <ele>145</ele>
        <time>2013-08-18T07:46:14Z</time>
      </trkpt>
      <trkpt lat="48.68715" lon="1.77112">
        <ele>145</ele>
        <time>2013-08-18T07:46:16Z</time>
      </trkpt>
      <trkpt lat="48.68717" lon="1.77114">
        <ele>145</ele>
        <time>2013-08-18T07:46:18Z</time>
      </trkpt>
      <trkpt lat="48.68716" lon="1.77121">
        <ele>145</ele>
        <time>2013-08-18T07:46:20Z</time>
      </trkpt>
      <trkpt lat="48.68719" lon="1.77123">
        <ele>145</ele>
        <time>2013-08-18T07:46:22Z</time>
      </trkpt>
      <trkpt lat="48.68723" lon="1.77124">
        <ele>144</ele>
        <time>2013-08-18T07:46:24Z</time>
      </trkpt>
      <trkpt lat="48.68726" lon="1.77125">
        <ele>143</ele>
        <time>2013-08-18T07:46:26Z</time>
      </trkpt>
      <trkpt lat="48.68727" lon="1.77131">
        <ele>143</ele>
        <time>2013-08-18T07:46:28Z</time>
      </trkpt>
      <trkpt lat="48.68728" lon="1.77137">
        <ele>143</ele>
        <time>2013-08-18T07:46:30Z</time>
      </trkpt>
      <trkpt lat="48.68728" lon="1.77143">
        <ele>143</ele>
        <time>2013-08-18T07:46:32Z</time>
      </trkpt>
      <trkpt lat="48.68726" lon="1.77149">
        <ele>143</ele>
        <time>2013-08-18T07:46:34Z</time>
      </trkpt>
      <trkpt lat="48.68727" lon="1.77151">
        <ele>143</ele>
        <time>2013-08-18T07:46:36Z</time>
      </trkpt>
      <trkpt lat="48.68727" lon="1.77153">
        <ele>143</ele>
        <time>2013-08-18T07:46:38Z</time>
      </trkpt>
      <trkpt lat="48.68725" lon="1.77157">
        <ele>143</ele>
        <time>2013-08-18T07:46:40Z</time>
      </trkpt>
      <trkpt lat="48.68724" lon="1.77163">
        <ele>143</ele>
        <time>2013-08-18T07:46:42Z</time>
      </trkpt>
      <trkpt lat="48.68723" lon="1.77169">
        <ele>143</ele>
        <time>2013-08-18T07:46:44Z</time>
      </trkpt>
      <trkpt lat="48.6872" lon="1.77175">
        <ele>143</ele>
        <time>2013-08-18T07:46:46Z</time>
      </trkpt>
      <trkpt lat="48.68717" lon="1.7718">
        <ele>143</ele>
        <time>2013-08-18T07:46:48Z</time>
      </trkpt>
      <trkpt lat="48.68715" lon="1.77184">
        <ele>143</ele>
        <time>2013-08-18T07:46:50Z</time>
      </trkpt>
      <trkpt lat="48.68713" lon="1.77188">
        <ele>143</ele>
        <time>2013-08-18T07:46:52Z</time>
      </trkpt>
      <trkpt lat="48.6871" lon="1.77192">
        <ele>143</ele>
        <time>2013-08-18T07:46:54Z</time>
      </trkpt>
      <trkpt lat="48.68707" lon="1.77196">
        <ele>143</ele>
        <time>2013-08-18T07:46:57Z</time>
      </trkpt>
      <trkpt lat="48.68704" lon="1.77199">
        <ele>143</ele>
        <time>2013-08-18T07:46:59Z</time>
      </trkpt>
      <trkpt lat="48.68702" lon="1.77205">
        <ele>143</ele>
        <time>2013-08-18T07:47:01Z</time>
      </trkpt>
      <trkpt lat="48.687" lon="1.77209">
        <ele>143</ele>
        <time>2013-08-18T07:47:03Z</time>
      </trkpt>
      <trkpt lat="48.68699" lon="1.77215">
        <ele>143</ele>
        <time>2013-08-18T07:47:07Z</time>
      </trkpt>
      <trkpt lat="48.687" lon="1.77216">
        <ele>144</ele>
        <time>2013-08-18T07:47:09Z</time>
      </trkpt>
      <trkpt lat="48.68702" lon="1.77222">
        <ele>145</ele>
        <time>2013-08-18T07:47:12Z</time>
      </trkpt>
      <trkpt lat="48.68703" lon="1.77229">
        <ele>145</ele>
        <time>2013-08-18T07:47:15Z</time>
      </trkpt>
      <trkpt lat="48.68703" lon="1.77235">
        <ele>145</ele>
        <time>2013-08-18T07:47:17Z</time>
      </trkpt>
      <trkpt lat="48.68702" lon="1.77246">
        <ele>145</ele>
        <time>2013-08-18T07:47:22Z</time>
      </trkpt>
      <trkpt lat="48.68704" lon="1.77248">
        <ele>145</ele>
        <time>2013-08-18T07:47:24Z</time>
      </trkpt>
      <trkpt lat="48.68703" lon="1.77253">
        <ele>145</ele>
        <time>2013-08-18T07:47:26Z</time>
      </trkpt>
      <trkpt lat="48.68702" lon="1.77261">
        <ele>145</ele>
        <time>2013-08-18T07:47:28Z</time>
      </trkpt>
      <trkpt lat="48.687" lon="1.77266">
        <ele>145</ele>
        <time>2013-08-18T07:47:30Z</time>
      </trkpt>
      <trkpt lat="48.68699" lon="1.77275">
        <ele>145</ele>
        <time>2013-08-18T07:47:33Z</time>
      </trkpt>
      <trkpt lat="48.68698" lon="1.77284">
        <ele>145</ele>
        <time>2013-08-18T07:47:35Z</time>
      </trkpt>
      <trkpt lat="48.687" lon="1.77287">
        <ele>145</ele>
        <time>2013-08-18T07:47:37Z</time>
      </trkpt>
      <trkpt lat="48.68701" lon="1.7729">
        <ele>145</ele>
        <time>2013-08-18T07:47:40Z</time>
      </trkpt>
      <trkpt lat="48.68699" lon="1.77296">
        <ele>145</ele>
        <time>2013-08-18T07:47:42Z</time>
      </trkpt>
      <trkpt lat="48.68697" lon="1.77302">
        <ele>145</ele>
        <time>2013-08-18T07:47:44Z</time>
      </trkpt>
      <trkpt lat="48.68697" lon="1.77306">
        <ele>146</ele>
        <time>2013-08-18T07:47:46Z</time>
      </trkpt>
      <trkpt lat="48.68695" lon="1.77314">
        <ele>147</ele>
        <time>2013-08-18T07:47:48Z</time>
      </trkpt>
      <trkpt lat="48.68697" lon="1.77315">
        <ele>148</ele>
        <time>2013-08-18T07:47:50Z</time>
      </trkpt>
      <trkpt lat="48.68696" lon="1.77322">
        <ele>149</ele>
        <time>2013-08-18T07:47:52Z</time>
      </trkpt>
      <trkpt lat="48.68696" lon="1.77325">
        <ele>150</ele>
        <time>2013-08-18T07:47:54Z</time>
      </trkpt>
      <trkpt lat="48.68696" lon="1.77331">
        <ele>150</ele>
        <time>2013-08-18T07:47:56Z</time>
      </trkpt>
      <trkpt lat="48.68696" lon="1.77337">
        <ele>150</ele>
        <time>2013-08-18T07:47:58Z</time>
      </trkpt>
      <trkpt lat="48.68694" lon="1.77345">
        <ele>151</ele>
        <time>2013-08-18T07:48:00Z</time>
      </trkpt>
      <trkpt lat="48.68691" lon="1.77356">
        <ele>152</ele>
        <time>2013-08-18T07:48:03Z</time>
      </trkpt>
      <trkpt lat="48.68689" lon="1.77365">
        <ele>154</ele>
        <time>2013-08-18T07:48:05Z</time>
      </trkpt>
      <trkpt lat="48.6869" lon="1.77368">
        <ele>156</ele>
        <time>2013-08-18T07:48:07Z</time>
      </trkpt>
      <trkpt lat="48.68689" lon="1.77374">
        <ele>156</ele>
        <time>2013-08-18T07:48:09Z</time>
      </trkpt>
      <trkpt lat="48.68688" lon="1.7738">
        <ele>156</ele>
        <time>2013-08-18T07:48:12Z</time>
      </trkpt>
      <trkpt lat="48.68688" lon="1.77384">
        <ele>156</ele>
        <time>2013-08-18T07:48:14Z</time>
      </trkpt>
      <trkpt lat="48.68687" lon="1.77389">
        <ele>156</ele>
        <time>2013-08-18T07:48:17Z</time>
      </trkpt>
      <trkpt lat="48.68686" lon="1.77396">
        <ele>156</ele>
        <time>2013-08-18T07:48:20Z</time>
      </trkpt>
      <trkpt lat="48.68687" lon="1.77402">
        <ele>156</ele>
        <time>2013-08-18T07:48:23Z</time>
      </trkpt>
      <trkpt lat="48.68688" lon="1.77407">
        <ele>156</ele>
        <time>2013-08-18T07:48:26Z</time>
      </trkpt>
      <trkpt lat="48.68689" lon="1.77411">
        <ele>155</ele>
        <time>2013-08-18T07:48:28Z</time>
      </trkpt>
      <trkpt lat="48.68689" lon="1.77415">
        <ele>154</ele>
        <time>2013-08-18T07:48:30Z</time>
      </trkpt>
      <trkpt lat="48.68689" lon="1.7742">
        <ele>154</ele>
        <time>2013-08-18T07:48:32Z</time>
      </trkpt>
      <trkpt lat="48.68687" lon="1.77431">
        <ele>154</ele>
        <time>2013-08-18T07:48:36Z</time>
      </trkpt>
      <trkpt lat="48.68685" lon="1.77438">
        <ele>154</ele>
        <time>2013-08-18T07:48:38Z</time>
      </trkpt>
      <trkpt lat="48.68686" lon="1.77442">
        <ele>154</ele>
        <time>2013-08-18T07:48:40Z</time>
      </trkpt>
      <trkpt lat="48.68686" lon="1.77448">
        <ele>154</ele>
        <time>2013-08-18T07:48:42Z</time>
      </trkpt>
      <trkpt lat="48.68687" lon="1.77455">
        <ele>154</ele>
        <time>2013-08-18T07:48:44Z</time>
      </trkpt>
      <trkpt lat="48.68687" lon="1.77461">
        <ele>156</ele>
        <time>2013-08-18T07:48:47Z</time>
      </trkpt>
      <trkpt lat="48.68684" lon="1.7747">
        <ele>157</ele>
        <time>2013-08-18T07:48:49Z</time>
      </trkpt>
      <trkpt lat="48.68682" lon="1.77474">
        <ele>157</ele>
        <time>2013-08-18T07:48:51Z</time>
      </trkpt>
      <trkpt lat="48.68683" lon="1.77478">
        <ele>158</ele>
        <time>2013-08-18T07:48:53Z</time>
      </trkpt>
      <trkpt lat="48.68685" lon="1.77482">
        <ele>160</ele>
        <time>2013-08-18T07:48:56Z</time>
      </trkpt>
      <trkpt lat="48.68686" lon="1.77486">
        <ele>161</ele>
        <time>2013-08-18T07:48:58Z</time>
      </trkpt>
      <trkpt lat="48.68684" lon="1.77496">
        <ele>162</ele>
        <time>2013-08-18T07:49:00Z</time>
      </trkpt>
      <trkpt lat="48.68684" lon="1.775">
        <ele>163</ele>
        <time>2013-08-18T07:49:02Z</time>
      </trkpt>
      <trkpt lat="48.68684" lon="1.77504">
        <ele>163</ele>
        <time>2013-08-18T07:49:04Z</time>
      </trkpt>
      <trkpt lat="48.68684" lon="1.77507">
        <ele>163</ele>
        <time>2013-08-18T07:49:06Z</time>
      </trkpt>
      <trkpt lat="48.68683" lon="1.77516">
        <ele>163</ele>
        <time>2013-08-18T07:49:08Z</time>
      </trkpt>
      <trkpt lat="48.68682" lon="1.77525">
        <ele>163</ele>
        <time>2013-08-18T07:49:10Z</time>
      </trkpt>
      <trkpt lat="48.68681" lon="1.77534">
        <ele>163</ele>
        <time>2013-08-18T07:49:13Z</time>
      </trkpt>
      <trkpt lat="48.68681" lon="1.7754">
        <ele>163</ele>
        <time>2013-08-18T07:49:15Z</time>
      </trkpt>
      <trkpt lat="48.68682" lon="1.77541">
        <ele>163</ele>
        <time>2013-08-18T07:49:17Z</time>
      </trkpt>
      <trkpt lat="48.68684" lon="1.77541">
        <ele>163</ele>
        <time>2013-08-18T07:49:19Z</time>
      </trkpt>
      <trkpt lat="48.68682" lon="1.77545">
        <ele>163</ele>
        <time>2013-08-18T07:49:21Z</time>
      </trkpt>
      <trkpt lat="48.68681" lon="1.77552">
        <ele>163</ele>
        <time>2013-08-18T07:49:23Z</time>
      </trkpt>
      <trkpt lat="48.6868" lon="1.77557">
        <ele>163</ele>
        <time>2013-08-18T07:49:26Z</time>
      </trkpt>
      <trkpt lat="48.68678" lon="1.77568">
        <ele>163</ele>
        <time>2013-08-18T07:49:28Z</time>
      </trkpt>
      <trkpt lat="48.68679" lon="1.77571">
        <ele>163</ele>
        <time>2013-08-18T07:49:30Z</time>
      </trkpt>
      <trkpt lat="48.68682" lon="1.77574">
        <ele>163</ele>
        <time>2013-08-18T07:49:32Z</time>
      </trkpt>
      <trkpt lat="48.68688" lon="1.7757">
        <ele>163</ele>
        <time>2013-08-18T07:49:34Z</time>
      </trkpt>
      <trkpt lat="48.68693" lon="1.77573">
        <ele>162</ele>
        <time>2013-08-18T07:49:38Z</time>
      </trkpt>
      <trkpt lat="48.68693" lon="1.77578">
        <ele>161</ele>
        <time>2013-08-18T07:49:40Z</time>
      </trkpt>
      <trkpt lat="48.68692" lon="1.77587">
        <ele>161</ele>
        <time>2013-08-18T07:49:43Z</time>
      </trkpt>
      <trkpt lat="48.68689" lon="1.77596">
        <ele>161</ele>
        <time>2013-08-18T07:49:45Z</time>
      </trkpt>
      <trkpt lat="48.68693" lon="1.77597">
        <ele>161</ele>
        <time>2013-08-18T07:49:47Z</time>
      </trkpt>
      <trkpt lat="48.68695" lon="1.776">
        <ele>161</ele>
        <time>2013-08-18T07:49:49Z</time>
      </trkpt>
      <trkpt lat="48.68696" lon="1.77605">
        <ele>161</ele>
        <time>2013-08-18T07:49:51Z</time>
      </trkpt>
      <trkpt lat="48.68696" lon="1.7761">
        <ele>161</ele>
        <time>2013-08-18T07:49:53Z</time>
      </trkpt>
      <trkpt lat="48.68695" lon="1.77615">
        <ele>161</ele>
        <time>2013-08-18T07:49:55Z</time>
      </trkpt>
      <trkpt lat="48.68696" lon="1.77621">
        <ele>161</ele>
        <time>2013-08-18T07:49:58Z</time>
      </trkpt>
      <trkpt lat="48.68699" lon="1.77626">
        <ele>161</ele>
        <time>2013-08-18T07:50:00Z</time>
      </trkpt>
      <trkpt lat="48.687" lon="1.77631">
        <ele>162</ele>
        <time>2013-08-18T07:50:02Z</time>
      </trkpt>
      <trkpt lat="48.68703" lon="1.77635">
        <ele>162</ele>
        <time>2013-08-18T07:50:04Z</time>
      </trkpt>
      <trkpt lat="48.68705" lon="1.7764">
        <ele>162</ele>
        <time>2013-08-18T07:50:06Z</time>
      </trkpt>
      <trkpt lat="48.68704" lon="1.77647">
        <ele>162</ele>
        <time>2013-08-18T07:50:08Z</time>
      </trkpt>
      <trkpt lat="48.68702" lon="1.77656">
        <ele>162</ele>
        <time>2013-08-18T07:50:10Z</time>
      </trkpt>
      <trkpt lat="48.68701" lon="1.77663">
        <ele>162</ele>
        <time>2013-08-18T07:50:13Z</time>
      </trkpt>
      <trkpt lat="48.68701" lon="1.77672">
        <ele>162</ele>
        <time>2013-08-18T07:50:15Z</time>
      </trkpt>
      <trkpt lat="48.68699" lon="1.77681">
        <ele>162</ele>
        <time>2013-08-18T07:50:18Z</time>
      </trkpt>
      <trkpt lat="48.687" lon="1.77684">
        <ele>163</ele>
        <time>2013-08-18T07:50:20Z</time>
      </trkpt>
      <trkpt lat="48.687" lon="1.77691">
        <ele>164</ele>
        <time>2013-08-18T07:50:22Z</time>
      </trkpt>
      <trkpt lat="48.68701" lon="1.77694">
        <ele>166</ele>
        <time>2013-08-18T07:50:24Z</time>
      </trkpt>
      <trkpt lat="48.68702" lon="1.77699">
        <ele>167</ele>
        <time>2013-08-18T07:50:27Z</time>
      </trkpt>
      <trkpt lat="48.68702" lon="1.77703">
        <ele>167</ele>
        <time>2013-08-18T07:50:29Z</time>
      </trkpt>
      <trkpt lat="48.68706" lon="1.77707">
        <ele>168</ele>
        <time>2013-08-18T07:50:32Z</time>
      </trkpt>
      <trkpt lat="48.68707" lon="1.77711">
        <ele>168</ele>
        <time>2013-08-18T07:50:34Z</time>
      </trkpt>
      <trkpt lat="48.6871" lon="1.77715">
        <ele>168</ele>
        <time>2013-08-18T07:50:36Z</time>
      </trkpt>
      <trkpt lat="48.68706" lon="1.77726">
        <ele>168</ele>
        <time>2013-08-18T07:50:39Z</time>
      </trkpt>
      <trkpt lat="48.68707" lon="1.77731">
        <ele>168</ele>
        <time>2013-08-18T07:50:41Z</time>
      </trkpt>
      <trkpt lat="48.68704" lon="1.77743">
        <ele>168</ele>
        <time>2013-08-18T07:50:44Z</time>
      </trkpt>
      <trkpt lat="48.68706" lon="1.7775">
        <ele>167</ele>
        <time>2013-08-18T07:50:47Z</time>
      </trkpt>
      <trkpt lat="48.68709" lon="1.77757">
        <ele>166</ele>
        <time>2013-08-18T07:50:50Z</time>
      </trkpt>
      <trkpt lat="48.6871" lon="1.77759">
        <ele>166</ele>
        <time>2013-08-18T07:50:52Z</time>
      </trkpt>
      <trkpt lat="48.68714" lon="1.77761">
        <ele>164</ele>
        <time>2013-08-18T07:50:55Z</time>
      </trkpt>
      <trkpt lat="48.68714" lon="1.77764">
        <ele>164</ele>
        <time>2013-08-18T07:50:57Z</time>
      </trkpt>
      <trkpt lat="48.68717" lon="1.77771">
        <ele>164</ele>
        <time>2013-08-18T07:51:00Z</time>
      </trkpt>
      <trkpt lat="48.68717" lon="1.77776">
        <ele>164</ele>
        <time>2013-08-18T07:51:02Z</time>
      </trkpt>
      <trkpt lat="48.68717" lon="1.77786">
        <ele>164</ele>
        <time>2013-08-18T07:51:05Z</time>
      </trkpt>
      <trkpt lat="48.68719" lon="1.77794">
        <ele>164</ele>
        <time>2013-08-18T07:51:08Z</time>
      </trkpt>
      <trkpt lat="48.68722" lon="1.77796">
        <ele>165</ele>
        <time>2013-08-18T07:51:11Z</time>
      </trkpt>
      <trkpt lat="48.68722" lon="1.77801">
        <ele>165</ele>
        <time>2013-08-18T07:51:13Z</time>
      </trkpt>
      <trkpt lat="48.68721" lon="1.77814">
        <ele>166</ele>
        <time>2013-08-18T07:51:16Z</time>
      </trkpt>
      <trkpt lat="48.68719" lon="1.77821">
        <ele>167</ele>
        <time>2013-08-18T07:51:18Z</time>
      </trkpt>
      <trkpt lat="48.68721" lon="1.77827">
        <ele>167</ele>
        <time>2013-08-18T07:51:21Z</time>
      </trkpt>
      <trkpt lat="48.68724" lon="1.7783">
        <ele>167</ele>
        <time>2013-08-18T07:51:23Z</time>
      </trkpt>
      <trkpt lat="48.68724" lon="1.77837">
        <ele>167</ele>
        <time>2013-08-18T07:51:25Z</time>
      </trkpt>
      <trkpt lat="48.68724" lon="1.77844">
        <ele>167</ele>
        <time>2013-08-18T07:51:28Z</time>
      </trkpt>
      <trkpt lat="48.68725" lon="1.77853">
        <ele>167</ele>
        <time>2013-08-18T07:51:32Z</time>
      </trkpt>
      <trkpt lat="48.68724" lon="1.77861">
        <ele>167</ele>
        <time>2013-08-18T07:51:35Z</time>
      </trkpt>
      <trkpt lat="48.68723" lon="1.77867">
        <ele>167</ele>
        <time>2013-08-18T07:51:37Z</time>
      </trkpt>
      <trkpt lat="48.68723" lon="1.77876">
        <ele>167</ele>
        <time>2013-08-18T07:51:41Z</time>
      </trkpt>
      <trkpt lat="48.68721" lon="1.77887">
        <ele>167</ele>
        <time>2013-08-18T07:51:44Z</time>
      </trkpt>
      <trkpt lat="48.6872" lon="1.77891">
        <ele>167</ele>
        <time>2013-08-18T07:51:46Z</time>
      </trkpt>
      <trkpt lat="48.68719" lon="1.77898">
        <ele>170</ele>
        <time>2013-08-18T07:51:49Z</time>
      </trkpt>
      <trkpt lat="48.68718" lon="1.77904">
        <ele>172</ele>
        <time>2013-08-18T07:51:51Z</time>
      </trkpt>
      <trkpt lat="48.68721" lon="1.77906">
        <ele>173</ele>
        <time>2013-08-18T07:51:54Z</time>
      </trkpt>
      <trkpt lat="48.68724" lon="1.77904">
        <ele>173</ele>
        <time>2013-08-18T07:51:56Z</time>
      </trkpt>
      <trkpt lat="48.68727" lon="1.7791">
        <ele>173</ele>
        <time>2013-08-18T07:51:59Z</time>
      </trkpt>
      <trkpt lat="48.68727" lon="1.7792">
        <ele>173</ele>
        <time>2013-08-18T07:52:02Z</time>
      </trkpt>
      <trkpt lat="48.68726" lon="1.77928">
        <ele>173</ele>
        <time>2013-08-18T07:52:05Z</time>
      </trkpt>
      <trkpt lat="48.68731" lon="1.7793">
        <ele>173</ele>
        <time>2013-08-18T07:52:08Z</time>
      </trkpt>
      <trkpt lat="48.68728" lon="1.77941">
        <ele>173</ele>
        <time>2013-08-18T07:52:11Z</time>
      </trkpt>
      <trkpt lat="48.6873" lon="1.77945">
        <ele>173</ele>
        <time>2013-08-18T07:52:13Z</time>
      </trkpt>
      <trkpt lat="48.6873" lon="1.77952">
        <ele>174</ele>
        <time>2013-08-18T07:52:16Z</time>
      </trkpt>
      <trkpt lat="48.68729" lon="1.77961">
        <ele>176</ele>
        <time>2013-08-18T07:52:19Z</time>
      </trkpt>
      <trkpt lat="48.68732" lon="1.77974">
        <ele>177</ele>
        <time>2013-08-18T07:52:23Z</time>
      </trkpt>
      <trkpt lat="48.68735" lon="1.77978">
        <ele>177</ele>
        <time>2013-08-18T07:52:25Z</time>
      </trkpt>
      <trkpt lat="48.68734" lon="1.77984">
        <ele>177</ele>
        <time>2013-08-18T07:52:28Z</time>
      </trkpt>
      <trkpt lat="48.68734" lon="1.77989">
        <ele>177</ele>
        <time>2013-08-18T07:52:30Z</time>
      </trkpt>
      <trkpt lat="48.68735" lon="1.77993">
        <ele>177</ele>
        <time>2013-08-18T07:52:32Z</time>
      </trkpt>
      <trkpt lat="48.68736" lon="1.77998">
        <ele>177</ele>
        <time>2013-08-18T07:52:34Z</time>
      </trkpt>
      <trkpt lat="48.68737" lon="1.78006">
        <ele>177</ele>
        <time>2013-08-18T07:52:37Z</time>
      </trkpt>
      <trkpt lat="48.68739" lon="1.7801">
        <ele>177</ele>
        <time>2013-08-18T07:52:39Z</time>
      </trkpt>
      <trkpt lat="48.68739" lon="1.78018">
        <ele>177</ele>
        <time>2013-08-18T07:52:43Z</time>
      </trkpt>
      <trkpt lat="48.68734" lon="1.78025">
        <ele>177</ele>
        <time>2013-08-18T07:52:46Z</time>
      </trkpt>
      <trkpt lat="48.68732" lon="1.78029">
        <ele>178</ele>
        <time>2013-08-18T07:52:48Z</time>
      </trkpt>
      <trkpt lat="48.68728" lon="1.78034">
        <ele>178</ele>
        <time>2013-08-18T07:52:51Z</time>
      </trkpt>
      <trkpt lat="48.68726" lon="1.78036">
        <ele>178</ele>
        <time>2013-08-18T07:52:53Z</time>
      </trkpt>
      <trkpt lat="48.68723" lon="1.78035">
        <ele>178</ele>
        <time>2013-08-18T07:52:55Z</time>
      </trkpt>
      <trkpt lat="48.68719" lon="1.78036">
        <ele>178</ele>
        <time>2013-08-18T07:52:57Z</time>
      </trkpt>
      <trkpt lat="48.68717" lon="1.78034">
        <ele>177</ele>
        <time>2013-08-18T07:52:59Z</time>
      </trkpt>
      <trkpt lat="48.68712" lon="1.78032">
        <ele>176</ele>
        <time>2013-08-18T07:53:02Z</time>
      </trkpt>
      <trkpt lat="48.68709" lon="1.78031">
        <ele>176</ele>
        <time>2013-08-18T07:53:04Z</time>
      </trkpt>
      <trkpt lat="48.68704" lon="1.78028">
        <ele>173</ele>
        <time>2013-08-18T07:53:07Z</time>
      </trkpt>
      <trkpt lat="48.68701" lon="1.78027">
        <ele>173</ele>
        <time>2013-08-18T07:53:09Z</time>
      </trkpt>
      <trkpt lat="48.68697" lon="1.78024">
        <ele>172</ele>
        <time>2013-08-18T07:53:12Z</time>
      </trkpt>
      <trkpt lat="48.68695" lon="1.78021">
        <ele>171</ele>
        <time>2013-08-18T07:53:14Z</time>
      </trkpt>
      <trkpt lat="48.68689" lon="1.78017">
        <ele>170</ele>
        <time>2013-08-18T07:53:17Z</time>
      </trkpt>
      <trkpt lat="48.68686" lon="1.78014">
        <ele>170</ele>
        <time>2013-08-18T07:53:20Z</time>
      </trkpt>
      <trkpt lat="48.68682" lon="1.78011">
        <ele>170</ele>
        <time>2013-08-18T07:53:23Z</time>
      </trkpt>
      <trkpt lat="48.68676" lon="1.78011">
        <ele>170</ele>
        <time>2013-08-18T07:53:26Z</time>
      </trkpt>
      <trkpt lat="48.68671" lon="1.78008">
        <ele>170</ele>
        <time>2013-08-18T07:53:29Z</time>
      </trkpt>
      <trkpt lat="48.68668" lon="1.78007">
        <ele>170</ele>
        <time>2013-08-18T07:53:31Z</time>
      </trkpt>
      <trkpt lat="48.68663" lon="1.78006">
        <ele>170</ele>
        <time>2013-08-18T07:53:34Z</time>
      </trkpt>
      <trkpt lat="48.6866" lon="1.78005">
        <ele>170</ele>
        <time>2013-08-18T07:53:36Z</time>
      </trkpt>
      <trkpt lat="48.68655" lon="1.78008">
        <ele>169</ele>
        <time>2013-08-18T07:53:39Z</time>
      </trkpt>
      <trkpt lat="48.68652" lon="1.78008">
        <ele>168</ele>
        <time>2013-08-18T07:53:41Z</time>
      </trkpt>
      <trkpt lat="48.68647" lon="1.78014">
        <ele>167</ele>
        <time>2013-08-18T07:53:44Z</time>
      </trkpt>
      <trkpt lat="48.68643" lon="1.78019">
        <ele>167</ele>
        <time>2013-08-18T07:53:46Z</time>
      </trkpt>
      <trkpt lat="48.68638" lon="1.78025">
        <ele>167</ele>
        <time>2013-08-18T07:53:49Z</time>
      </trkpt>
      <trkpt lat="48.68634" lon="1.78031">
        <ele>167</ele>
        <time>2013-08-18T07:53:51Z</time>
      </trkpt>
      <trkpt lat="48.68631" lon="1.78034">
        <ele>167</ele>
        <time>2013-08-18T07:53:54Z</time>
      </trkpt>
      <trkpt lat="48.68628" lon="1.7804">
        <ele>167</ele>
        <time>2013-08-18T07:53:56Z</time>
      </trkpt>
      <trkpt lat="48.68623" lon="1.78047">
        <ele>167</ele>
        <time>2013-08-18T07:54:00Z</time>
      </trkpt>
      <trkpt lat="48.6862" lon="1.78051">
        <ele>167</ele>
        <time>2013-08-18T07:54:02Z</time>
      </trkpt>
      <trkpt lat="48.68618" lon="1.78052">
        <ele>167</ele>
        <time>2013-08-18T07:54:05Z</time>
      </trkpt>
      <trkpt lat="48.68615" lon="1.78056">
        <ele>167</ele>
        <time>2013-08-18T07:54:07Z</time>
      </trkpt>
      <trkpt lat="48.68612" lon="1.78061">
        <ele>167</ele>
        <time>2013-08-18T07:54:11Z</time>
      </trkpt>
      <trkpt lat="48.6861" lon="1.78064">
        <ele>168</ele>
        <time>2013-08-18T07:54:13Z</time>
      </trkpt>
      <trkpt lat="48.68607" lon="1.78065">
        <ele>169</ele>
        <time>2013-08-18T07:54:16Z</time>
      </trkpt>
      <trkpt lat="48.68605" lon="1.78069">
        <ele>171</ele>
        <time>2013-08-18T07:54:20Z</time>
      </trkpt>
      <trkpt lat="48.68601" lon="1.78075">
        <ele>171</ele>
        <time>2013-08-18T07:54:24Z</time>
      </trkpt>
      <trkpt lat="48.68598" lon="1.78081">
        <ele>171</ele>
        <time>2013-08-18T07:54:26Z</time>
      </trkpt>
      <trkpt lat="48.68594" lon="1.78088">
        <ele>171</ele>
        <time>2013-08-18T07:54:28Z</time>
      </trkpt>
      <trkpt lat="48.68591" lon="1.78092">
        <ele>171</ele>
        <time>2013-08-18T07:54:30Z</time>
      </trkpt>
      <trkpt lat="48.68587" lon="1.78098">
        <ele>171</ele>
        <time>2013-08-18T07:54:33Z</time>
      </trkpt>
      <trkpt lat="48.68584" lon="1.78101">
        <ele>171</ele>
        <time>2013-08-18T07:54:36Z</time>
      </trkpt>
      <trkpt lat="48.68578" lon="1.78111">
        <ele>171</ele>
        <time>2013-08-18T07:54:39Z</time>
      </trkpt>
      <trkpt lat="48.68575" lon="1.78113">
        <ele>171</ele>
        <time>2013-08-18T07:54:42Z</time>
      </trkpt>
      <trkpt lat="48.6857" lon="1.78119">
        <ele>171</ele>
        <time>2013-08-18T07:54:45Z</time>
      </trkpt>
      <trkpt lat="48.68568" lon="1.78121">
        <ele>171</ele>
        <time>2013-08-18T07:54:48Z</time>
      </trkpt>
      <trkpt lat="48.68565" lon="1.78124">
        <ele>169</ele>
        <time>2013-08-18T07:54:52Z</time>
      </trkpt>
      <trkpt lat="48.68562" lon="1.78124">
        <ele>167</ele>
        <time>2013-08-18T07:54:54Z</time>
      </trkpt>
      <trkpt lat="48.68559" lon="1.78128">
        <ele>166</ele>
        <time>2013-08-18T07:54:56Z</time>
      </trkpt>
      <trkpt lat="48.68556" lon="1.78134">
        <ele>166</ele>
        <time>2013-08-18T07:54:58Z</time>
      </trkpt>
      <trkpt lat="48.68553" lon="1.78136">
        <ele>164</ele>
        <time>2013-08-18T07:55:03Z</time>
      </trkpt>
      <trkpt lat="48.68546" lon="1.7815">
        <ele>164</ele>
        <time>2013-08-18T07:55:06Z</time>
      </trkpt>
      <trkpt lat="48.68542" lon="1.78158">
        <ele>164</ele>
        <time>2013-08-18T07:55:08Z</time>
      </trkpt>
      <trkpt lat="48.68539" lon="1.78159">
        <ele>164</ele>
        <time>2013-08-18T07:55:12Z</time>
      </trkpt>
      <trkpt lat="48.68536" lon="1.78165">
        <ele>164</ele>
        <time>2013-08-18T07:55:15Z</time>
      </trkpt>
      <trkpt lat="48.68532" lon="1.78167">
        <ele>164</ele>
        <time>2013-08-18T07:55:17Z</time>
      </trkpt>
      <trkpt lat="48.6853" lon="1.78169">
        <ele>164</ele>
        <time>2013-08-18T07:55:20Z</time>
      </trkpt>
      <trkpt lat="48.68528" lon="1.7817">
        <ele>163</ele>
        <time>2013-08-18T07:55:22Z</time>
      </trkpt>
      <trkpt lat="48.68525" lon="1.78172">
        <ele>163</ele>
        <time>2013-08-18T07:55:24Z</time>
      </trkpt>
      <trkpt lat="48.68521" lon="1.78179">
        <ele>161</ele>
        <time>2013-08-18T07:55:26Z</time>
      </trkpt>
      <trkpt lat="48.68517" lon="1.78187">
        <ele>161</ele>
        <time>2013-08-18T07:55:28Z</time>
      </trkpt>
      <trkpt lat="48.68514" lon="1.78191">
        <ele>161</ele>
        <time>2013-08-18T07:55:30Z</time>
      </trkpt>
      <trkpt lat="48.6851" lon="1.78194">
        <ele>161</ele>
        <time>2013-08-18T07:55:33Z</time>
      </trkpt>
      <trkpt lat="48.68506" lon="1.78199">
        <ele>161</ele>
        <time>2013-08-18T07:55:36Z</time>
      </trkpt>
      <trkpt lat="48.68504" lon="1.78205">
        <ele>161</ele>
        <time>2013-08-18T07:55:38Z</time>
      </trkpt>
      <trkpt lat="48.685" lon="1.78213">
        <ele>161</ele>
        <time>2013-08-18T07:55:40Z</time>
      </trkpt>
      <trkpt lat="48.68497" lon="1.7822">
        <ele>161</ele>
        <time>2013-08-18T07:55:42Z</time>
      </trkpt>
      <trkpt lat="48.68494" lon="1.78218">
        <ele>161</ele>
        <time>2013-08-18T07:55:45Z</time>
      </trkpt>
      <trkpt lat="48.68491" lon="1.78225">
        <ele>161</ele>
        <time>2013-08-18T07:55:51Z</time>
      </trkpt>
      <trkpt lat="48.68488" lon="1.78224">
        <ele>161</ele>
        <time>2013-08-18T07:55:55Z</time>
      </trkpt>
      <trkpt lat="48.68486" lon="1.78226">
        <ele>161</ele>
        <time>2013-08-18T07:55:57Z</time>
      </trkpt>
      <trkpt lat="48.68484" lon="1.78228">
        <ele>161</ele>
        <time>2013-08-18T07:55:59Z</time>
      </trkpt>
      <trkpt lat="48.68479" lon="1.78235">
        <ele>161</ele>
        <time>2013-08-18T07:56:01Z</time>
      </trkpt>
      <trkpt lat="48.68476" lon="1.7824">
        <ele>161</ele>
        <time>2013-08-18T07:56:03Z</time>
      </trkpt>
      <trkpt lat="48.68472" lon="1.78247">
        <ele>161</ele>
        <time>2013-08-18T07:56:05Z</time>
      </trkpt>
      <trkpt lat="48.68468" lon="1.78252">
        <ele>161</ele>
        <time>2013-08-18T07:56:07Z</time>
      </trkpt>
      <trkpt lat="48.68464" lon="1.78256">
        <ele>161</ele>
        <time>2013-08-18T07:56:10Z</time>
      </trkpt>
      <trkpt lat="48.68461" lon="1.78259">
        <ele>161</ele>
        <time>2013-08-18T07:56:12Z</time>
      </trkpt>
      <trkpt lat="48.68459" lon="1.78264">
        <ele>161</ele>
        <time>2013-08-18T07:56:15Z</time>
      </trkpt>
      <trkpt lat="48.68457" lon="1.78268">
        <ele>161</ele>
        <time>2013-08-18T07:56:17Z</time>
      </trkpt>
      <trkpt lat="48.68452" lon="1.78274">
        <ele>162</ele>
        <time>2013-08-18T07:56:20Z</time>
      </trkpt>
      <trkpt lat="48.68449" lon="1.78278">
        <ele>162</ele>
        <time>2013-08-18T07:56:22Z</time>
      </trkpt>
      <trkpt lat="48.68444" lon="1.78284">
        <ele>163</ele>
        <time>2013-08-18T07:56:25Z</time>
      </trkpt>
      <trkpt lat="48.68442" lon="1.78286">
        <ele>163</ele>
        <time>2013-08-18T07:56:27Z</time>
      </trkpt>
      <trkpt lat="48.68438" lon="1.78291">
        <ele>163</ele>
        <time>2013-08-18T07:56:30Z</time>
      </trkpt>
      <trkpt lat="48.68436" lon="1.78296">
        <ele>163</ele>
        <time>2013-08-18T07:56:32Z</time>
      </trkpt>
      <trkpt lat="48.68433" lon="1.783">
        <ele>163</ele>
        <time>2013-08-18T07:56:34Z</time>
      </trkpt>
      <trkpt lat="48.68431" lon="1.78302">
        <ele>163</ele>
        <time>2013-08-18T07:56:37Z</time>
      </trkpt>
      <trkpt lat="48.68428" lon="1.78307">
        <ele>163</ele>
        <time>2013-08-18T07:56:39Z</time>
      </trkpt>
      <trkpt lat="48.68425" lon="1.78311">
        <ele>163</ele>
        <time>2013-08-18T07:56:42Z</time>
      </trkpt>
      <trkpt lat="48.68424" lon="1.78314">
        <ele>163</ele>
        <time>2013-08-18T07:56:44Z</time>
      </trkpt>
      <trkpt lat="48.68421" lon="1.78317">
        <ele>163</ele>
        <time>2013-08-18T07:56:46Z</time>
      </trkpt>
      <trkpt lat="48.68418" lon="1.78322">
        <ele>163</ele>
        <time>2013-08-18T07:56:48Z</time>
      </trkpt>
      <trkpt lat="48.68415" lon="1.78323">
        <ele>163</ele>
        <time>2013-08-18T07:56:50Z</time>
      </trkpt>
      <trkpt lat="48.68412" lon="1.78325">
        <ele>163</ele>
        <time>2013-08-18T07:56:52Z</time>
      </trkpt>
      <trkpt lat="48.68409" lon="1.78329">
        <ele>163</ele>
        <time>2013-08-18T07:56:54Z</time>
      </trkpt>
      <trkpt lat="48.68407" lon="1.78333">
        <ele>165</ele>
        <time>2013-08-18T07:56:57Z</time>
      </trkpt>
      <trkpt lat="48.68404" lon="1.78336">
        <ele>165</ele>
        <time>2013-08-18T07:56:59Z</time>
      </trkpt>
      <trkpt lat="48.68401" lon="1.7834">
        <ele>166</ele>
        <time>2013-08-18T07:57:01Z</time>
      </trkpt>
      <trkpt lat="48.68398" lon="1.78345">
        <ele>166</ele>
        <time>2013-08-18T07:57:03Z</time>
      </trkpt>
      <trkpt lat="48.68395" lon="1.7835">
        <ele>166</ele>
        <time>2013-08-18T07:57:05Z</time>
      </trkpt>
      <trkpt lat="48.68393" lon="1.78354">
        <ele>167</ele>
        <time>2013-08-18T07:57:07Z</time>
      </trkpt>
      <trkpt lat="48.68391" lon="1.78358">
        <ele>167</ele>
        <time>2013-08-18T07:57:10Z</time>
      </trkpt>
      <trkpt lat="48.6839" lon="1.78364">
        <ele>167</ele>
        <time>2013-08-18T07:57:12Z</time>
      </trkpt>
      <trkpt lat="48.68389" lon="1.7837">
        <ele>167</ele>
        <time>2013-08-18T07:57:15Z</time>
      </trkpt>
      <trkpt lat="48.68389" lon="1.78374">
        <ele>167</ele>
        <time>2013-08-18T07:57:17Z</time>
      </trkpt>
      <trkpt lat="48.6839" lon="1.78376">
        <ele>167</ele>
        <time>2013-08-18T07:57:19Z</time>
      </trkpt>
      <trkpt lat="48.68388" lon="1.78378">
        <ele>167</ele>
        <time>2013-08-18T07:57:21Z</time>
      </trkpt>
      <trkpt lat="48.68386" lon="1.78382">
        <ele>167</ele>
        <time>2013-08-18T07:57:23Z</time>
      </trkpt>
      <trkpt lat="48.68385" lon="1.78387">
        <ele>167</ele>
        <time>2013-08-18T07:57:25Z</time>
      </trkpt>
      <trkpt lat="48.68384" lon="1.78391">
        <ele>167</ele>
        <time>2013-08-18T07:57:27Z</time>
      </trkpt>
      <trkpt lat="48.68382" lon="1.78395">
        <ele>167</ele>
        <time>2013-08-18T07:57:29Z</time>
      </trkpt>
      <trkpt lat="48.68381" lon="1.784">
        <ele>167</ele>
        <time>2013-08-18T07:57:31Z</time>
      </trkpt>
      <trkpt lat="48.68381" lon="1.78402">
        <ele>168</ele>
        <time>2013-08-18T07:57:33Z</time>
      </trkpt>
      <trkpt lat="48.68379" lon="1.78408">
        <ele>168</ele>
        <time>2013-08-18T07:57:36Z</time>
      </trkpt>
      <trkpt lat="48.68378" lon="1.78412">
        <ele>169</ele>
        <time>2013-08-18T07:57:38Z</time>
      </trkpt>
      <trkpt lat="48.68376" lon="1.78419">
        <ele>170</ele>
        <time>2013-08-18T07:57:41Z</time>
      </trkpt>
      <trkpt lat="48.68373" lon="1.78424">
        <ele>171</ele>
        <time>2013-08-18T07:57:43Z</time>
      </trkpt>
      <trkpt lat="48.68372" lon="1.78431">
        <ele>172</ele>
        <time>2013-08-18T07:57:45Z</time>
      </trkpt>
      <trkpt lat="48.6837" lon="1.78435">
        <ele>172</ele>
        <time>2013-08-18T07:57:47Z</time>
      </trkpt>
      <trkpt lat="48.68369" lon="1.7844">
        <ele>173</ele>
        <time>2013-08-18T07:57:49Z</time>
      </trkpt>
      <trkpt lat="48.68367" lon="1.78445">
        <ele>173</ele>
        <time>2013-08-18T07:57:51Z</time>
      </trkpt>
      <trkpt lat="48.68367" lon="1.78448">
        <ele>174</ele>
        <time>2013-08-18T07:57:53Z</time>
      </trkpt>
      <trkpt lat="48.68366" lon="1.78454">
        <ele>175</ele>
        <time>2013-08-18T07:57:56Z</time>
      </trkpt>
      <trkpt lat="48.68363" lon="1.78458">
        <ele>175</ele>
        <time>2013-08-18T07:57:59Z</time>
      </trkpt>
      <trkpt lat="48.68359" lon="1.78465">
        <ele>175</ele>
        <time>2013-08-18T07:58:02Z</time>
      </trkpt>
      <trkpt lat="48.68357" lon="1.7847">
        <ele>175</ele>
        <time>2013-08-18T07:58:04Z</time>
      </trkpt>
      <trkpt lat="48.68355" lon="1.78475">
        <ele>175</ele>
        <time>2013-08-18T07:58:07Z</time>
      </trkpt>
      <trkpt lat="48.68351" lon="1.78481">
        <ele>175</ele>
        <time>2013-08-18T07:58:09Z</time>
      </trkpt>
      <trkpt lat="48.68348" lon="1.78487">
        <ele>175</ele>
        <time>2013-08-18T07:58:12Z</time>
      </trkpt>
      <trkpt lat="48.68347" lon="1.7849">
        <ele>175</ele>
        <time>2013-08-18T07:58:15Z</time>
      </trkpt>
      <trkpt lat="48.68342" lon="1.78498">
        <ele>175</ele>
        <time>2013-08-18T07:58:18Z</time>
      </trkpt>
      <trkpt lat="48.68341" lon="1.78503">
        <ele>175</ele>
        <time>2013-08-18T07:58:20Z</time>
      </trkpt>
      <trkpt lat="48.68337" lon="1.78512">
        <ele>175</ele>
        <time>2013-08-18T07:58:23Z</time>
      </trkpt>
      <trkpt lat="48.68335" lon="1.78517">
        <ele>175</ele>
        <time>2013-08-18T07:58:25Z</time>
      </trkpt>
      <trkpt lat="48.68335" lon="1.78522">
        <ele>175</ele>
        <time>2013-08-18T07:58:28Z</time>
      </trkpt>
      <trkpt lat="48.68334" lon="1.78526">
        <ele>175</ele>
        <time>2013-08-18T07:58:30Z</time>
      </trkpt>
      <trkpt lat="48.68333" lon="1.7853">
        <ele>176</ele>
        <time>2013-08-18T07:58:32Z</time>
      </trkpt>
      <trkpt lat="48.6833" lon="1.78536">
        <ele>176</ele>
        <time>2013-08-18T07:58:34Z</time>
      </trkpt>
      <trkpt lat="48.68326" lon="1.78542">
        <ele>177</ele>
        <time>2013-08-18T07:58:36Z</time>
      </trkpt>
      <trkpt lat="48.68322" lon="1.7855">
        <ele>177</ele>
        <time>2013-08-18T07:58:38Z</time>
      </trkpt>
      <trkpt lat="48.68318" lon="1.78558">
        <ele>177</ele>
        <time>2013-08-18T07:58:40Z</time>
      </trkpt>
      <trkpt lat="48.68314" lon="1.78564">
        <ele>177</ele>
        <time>2013-08-18T07:58:42Z</time>
      </trkpt>
      <trkpt lat="48.68312" lon="1.78569">
        <ele>177</ele>
        <time>2013-08-18T07:58:44Z</time>
      </trkpt>
      <trkpt lat="48.6831" lon="1.78575">
        <ele>177</ele>
        <time>2013-08-18T07:58:46Z</time>
      </trkpt>
      <trkpt lat="48.68308" lon="1.7858">
        <ele>177</ele>
        <time>2013-08-18T07:58:48Z</time>
      </trkpt>
      <trkpt lat="48.68306" lon="1.78584">
        <ele>177</ele>
        <time>2013-08-18T07:58:50Z</time>
      </trkpt>
      <trkpt lat="48.68303" lon="1.78588">
        <ele>176</ele>
        <time>2013-08-18T07:58:52Z</time>
      </trkpt>
      <trkpt lat="48.68301" lon="1.78592">
        <ele>174</ele>
        <time>2013-08-18T07:58:56Z</time>
      </trkpt>
      <trkpt lat="48.68299" lon="1.78596">
        <ele>173</ele>
        <time>2013-08-18T07:58:58Z</time>
      </trkpt>
      <trkpt lat="48.68297" lon="1.78602">
        <ele>173</ele>
        <time>2013-08-18T07:59:00Z</time>
      </trkpt>
      <trkpt lat="48.68296" lon="1.78604">
        <ele>173</ele>
        <time>2013-08-18T07:59:02Z</time>
      </trkpt>
      <trkpt lat="48.68294" lon="1.78608">
        <ele>173</ele>
        <time>2013-08-18T07:59:04Z</time>
      </trkpt>
      <trkpt lat="48.68291" lon="1.78612">
        <ele>173</ele>
        <time>2013-08-18T07:59:06Z</time>
      </trkpt>
      <trkpt lat="48.68287" lon="1.7862">
        <ele>173</ele>
        <time>2013-08-18T07:59:10Z</time>
      </trkpt>
      <trkpt lat="48.68285" lon="1.78624">
        <ele>173</ele>
        <time>2013-08-18T07:59:12Z</time>
      </trkpt>
      <trkpt lat="48.68284" lon="1.78627">
        <ele>172</ele>
        <time>2013-08-18T07:59:14Z</time>
      </trkpt>
      <trkpt lat="48.68283" lon="1.78633">
        <ele>172</ele>
        <time>2013-08-18T07:59:16Z</time>
      </trkpt>
      <trkpt lat="48.68281" lon="1.78638">
        <ele>172</ele>
        <time>2013-08-18T07:59:18Z</time>
      </trkpt>
      <trkpt lat="48.6828" lon="1.78642">
        <ele>172</ele>
        <time>2013-08-18T07:59:20Z</time>
      </trkpt>
      <trkpt lat="48.68278" lon="1.78646">
        <ele>172</ele>
        <time>2013-08-18T07:59:22Z</time>
      </trkpt>
      <trkpt lat="48.68275" lon="1.78651">
        <ele>172</ele>
        <time>2013-08-18T07:59:24Z</time>
      </trkpt>
      <trkpt lat="48.68272" lon="1.78657">
        <ele>171</ele>
        <time>2013-08-18T07:59:27Z</time>
      </trkpt>
      <trkpt lat="48.6827" lon="1.78662">
        <ele>171</ele>
        <time>2013-08-18T07:59:29Z</time>
      </trkpt>
      <trkpt lat="48.68267" lon="1.78665">
        <ele>171</ele>
        <time>2013-08-18T07:59:31Z</time>
      </trkpt>
      <trkpt lat="48.68264" lon="1.7867">
        <ele>171</ele>
        <time>2013-08-18T07:59:34Z</time>
      </trkpt>
      <trkpt lat="48.68262" lon="1.78674">
        <ele>171</ele>
        <time>2013-08-18T07:59:36Z</time>
      </trkpt>
      <trkpt lat="48.6826" lon="1.78677">
        <ele>170</ele>
        <time>2013-08-18T07:59:38Z</time>
      </trkpt>
      <trkpt lat="48.68259" lon="1.78682">
        <ele>170</ele>
        <time>2013-08-18T07:59:40Z</time>
      </trkpt>
      <trkpt lat="48.68258" lon="1.78686">
        <ele>169</ele>
        <time>2013-08-18T07:59:42Z</time>
      </trkpt>
      <trkpt lat="48.68257" lon="1.7869">
        <ele>168</ele>
        <time>2013-08-18T07:59:44Z</time>
      </trkpt>
      <trkpt lat="48.68255" lon="1.78694">
        <ele>168</ele>
        <time>2013-08-18T07:59:46Z</time>
      </trkpt>
      <trkpt lat="48.68254" lon="1.787">
        <ele>168</ele>
        <time>2013-08-18T07:59:48Z</time>
      </trkpt>
      <trkpt lat="48.68253" lon="1.78705">
        <ele>168</ele>
        <time>2013-08-18T07:59:50Z</time>
      </trkpt>
      <trkpt lat="48.68251" lon="1.78708">
        <ele>168</ele>
        <time>2013-08-18T07:59:52Z</time>
      </trkpt>
      <trkpt lat="48.6825" lon="1.78711">
        <ele>168</ele>
        <time>2013-08-18T07:59:54Z</time>
      </trkpt>
      <trkpt lat="48.68248" lon="1.78717">
        <ele>168</ele>
        <time>2013-08-18T07:59:56Z</time>
      </trkpt>
      <trkpt lat="48.68246" lon="1.78721">
        <ele>168</ele>
        <time>2013-08-18T07:59:58Z</time>
      </trkpt>
      <trkpt lat="48.68244" lon="1.78726">
        <ele>168</ele>
        <time>2013-08-18T08:00:00Z</time>
      </trkpt>
      <trkpt lat="48.68243" lon="1.7873">
        <ele>168</ele>
        <time>2013-08-18T08:00:02Z</time>
      </trkpt>
      <trkpt lat="48.6824" lon="1.78734">
        <ele>168</ele>
        <time>2013-08-18T08:00:04Z</time>
      </trkpt>
      <trkpt lat="48.68238" lon="1.78739">
        <ele>168</ele>
        <time>2013-08-18T08:00:06Z</time>
      </trkpt>
      <trkpt lat="48.68236" lon="1.78743">
        <ele>168</ele>
        <time>2013-08-18T08:00:08Z</time>
      </trkpt>
      <trkpt lat="48.68232" lon="1.78748">
        <ele>168</ele>
        <time>2013-08-18T08:00:11Z</time>
      </trkpt>
      <trkpt lat="48.6823" lon="1.78754">
        <ele>168</ele>
        <time>2013-08-18T08:00:13Z</time>
      </trkpt>
      <trkpt lat="48.68227" lon="1.78758">
        <ele>168</ele>
        <time>2013-08-18T08:00:15Z</time>
      </trkpt>
      <trkpt lat="48.68226" lon="1.78763">
        <ele>168</ele>
        <time>2013-08-18T08:00:17Z</time>
      </trkpt>
      <trkpt lat="48.68224" lon="1.78767">
        <ele>168</ele>
        <time>2013-08-18T08:00:19Z</time>
      </trkpt>
      <trkpt lat="48.68223" lon="1.78769">
        <ele>168</ele>
        <time>2013-08-18T08:00:21Z</time>
      </trkpt>
      <trkpt lat="48.68222" lon="1.78772">
        <ele>168</ele>
        <time>2013-08-18T08:00:23Z</time>
      </trkpt>
      <trkpt lat="48.68219" lon="1.78775">
        <ele>168</ele>
        <time>2013-08-18T08:00:26Z</time>
      </trkpt>
      <trkpt lat="48.68217" lon="1.78779">
        <ele>168</ele>
        <time>2013-08-18T08:00:28Z</time>
      </trkpt>
      <trkpt lat="48.68215" lon="1.78784">
        <ele>167</ele>
        <time>2013-08-18T08:00:30Z</time>
      </trkpt>
      <trkpt lat="48.68211" lon="1.78792">
        <ele>167</ele>
        <time>2013-08-18T08:00:32Z</time>
      </trkpt>
      <trkpt lat="48.68207" lon="1.78801">
        <ele>167</ele>
        <time>2013-08-18T08:00:34Z</time>
      </trkpt>
      <trkpt lat="48.68203" lon="1.78811">
        <ele>167</ele>
        <time>2013-08-18T08:00:36Z</time>
      </trkpt>
      <trkpt lat="48.68199" lon="1.78821">
        <ele>167</ele>
        <time>2013-08-18T08:00:38Z</time>
      </trkpt>
      <trkpt lat="48.68195" lon="1.78831">
        <ele>167</ele>
        <time>2013-08-18T08:00:40Z</time>
      </trkpt>
      <trkpt lat="48.68191" lon="1.7884">
        <ele>167</ele>
        <time>2013-08-18T08:00:42Z</time>
      </trkpt>
      <trkpt lat="48.68186" lon="1.7885">
        <ele>167</ele>
        <time>2013-08-18T08:00:44Z</time>
      </trkpt>
      <trkpt lat="48.68182" lon="1.7886">
        <ele>167</ele>
        <time>2013-08-18T08:00:46Z</time>
      </trkpt>
      <trkpt lat="48.68179" lon="1.78871">
        <ele>167</ele>
        <time>2013-08-18T08:00:48Z</time>
      </trkpt>
      <trkpt lat="48.68176" lon="1.78883">
        <ele>167</ele>
        <time>2013-08-18T08:00:50Z</time>
      </trkpt>
      <trkpt lat="48.68176" lon="1.78895">
        <ele>167</ele>
        <time>2013-08-18T08:00:52Z</time>
      </trkpt>
      <trkpt lat="48.68174" lon="1.78906">
        <ele>167</ele>
        <time>2013-08-18T08:00:54Z</time>
      </trkpt>
      <trkpt lat="48.68172" lon="1.78918">
        <ele>167</ele>
        <time>2013-08-18T08:00:56Z</time>
      </trkpt>
      <trkpt lat="48.68171" lon="1.7893">
        <ele>167</ele>
        <time>2013-08-18T08:00:58Z</time>
      </trkpt>
      <trkpt lat="48.6817" lon="1.78943">
        <ele>168</ele>
        <time>2013-08-18T08:01:00Z</time>
      </trkpt>
      <trkpt lat="48.68168" lon="1.78956">
        <ele>170</ele>
        <time>2013-08-18T08:01:02Z</time>
      </trkpt>
      <trkpt lat="48.68167" lon="1.78976">
        <ele>172</ele>
        <time>2013-08-18T08:01:06Z</time>
      </trkpt>
      <trkpt lat="48.68167" lon="1.78985">
        <ele>173</ele>
        <time>2013-08-18T08:01:08Z</time>
      </trkpt>
      <trkpt lat="48.68166" lon="1.78996">
        <ele>173</ele>
        <time>2013-08-18T08:01:10Z</time>
      </trkpt>
      <trkpt lat="48.68165" lon="1.79006">
        <ele>173</ele>
        <time>2013-08-18T08:01:12Z</time>
      </trkpt>
      <trkpt lat="48.68164" lon="1.79017">
        <ele>173</ele>
        <time>2013-08-18T08:01:14Z</time>
      </trkpt>
      <trkpt lat="48.68164" lon="1.79029">
        <ele>173</ele>
        <time>2013-08-18T08:01:16Z</time>
      </trkpt>
      <trkpt lat="48.68164" lon="1.7904">
        <ele>173</ele>
        <time>2013-08-18T08:01:18Z</time>
      </trkpt>
      <trkpt lat="48.68163" lon="1.79051">
        <ele>173</ele>
        <time>2013-08-18T08:01:20Z</time>
      </trkpt>
      <trkpt lat="48.68163" lon="1.79063">
        <ele>173</ele>
        <time>2013-08-18T08:01:22Z</time>
      </trkpt>
      <trkpt lat="48.68163" lon="1.79074">
        <ele>173</ele>
        <time>2013-08-18T08:01:24Z</time>
      </trkpt>
      <trkpt lat="48.68163" lon="1.79084">
        <ele>173</ele>
        <time>2013-08-18T08:01:26Z</time>
      </trkpt>
      <trkpt lat="48.68163" lon="1.79093">
        <ele>173</ele>
        <time>2013-08-18T08:01:28Z</time>
      </trkpt>
      <trkpt lat="48.68163" lon="1.79103">
        <ele>173</ele>
        <time>2013-08-18T08:01:30Z</time>
      </trkpt>
      <trkpt lat="48.68163" lon="1.79112">
        <ele>173</ele>
        <time>2013-08-18T08:01:32Z</time>
      </trkpt>
      <trkpt lat="48.68162" lon="1.79121">
        <ele>173</ele>
        <time>2013-08-18T08:01:34Z</time>
      </trkpt>
      <trkpt lat="48.68161" lon="1.79131">
        <ele>173</ele>
        <time>2013-08-18T08:01:36Z</time>
      </trkpt>
      <trkpt lat="48.68161" lon="1.79141">
        <ele>173</ele>
        <time>2013-08-18T08:01:38Z</time>
      </trkpt>
      <trkpt lat="48.6816" lon="1.79151">
        <ele>173</ele>
        <time>2013-08-18T08:01:40Z</time>
      </trkpt>
      <trkpt lat="48.68159" lon="1.79162">
        <ele>173</ele>
        <time>2013-08-18T08:01:42Z</time>
      </trkpt>
      <trkpt lat="48.68159" lon="1.79172">
        <ele>173</ele>
        <time>2013-08-18T08:01:44Z</time>
      </trkpt>
      <trkpt lat="48.68158" lon="1.79184">
        <ele>173</ele>
        <time>2013-08-18T08:01:46Z</time>
      </trkpt>
      <trkpt lat="48.68157" lon="1.79195">
        <ele>173</ele>
        <time>2013-08-18T08:01:48Z</time>
      </trkpt>
      <trkpt lat="48.68157" lon="1.79206">
        <ele>173</ele>
        <time>2013-08-18T08:01:50Z</time>
      </trkpt>
      <trkpt lat="48.68157" lon="1.79215">
        <ele>173</ele>
        <time>2013-08-18T08:01:52Z</time>
      </trkpt>
      <trkpt lat="48.68157" lon="1.79227">
        <ele>173</ele>
        <time>2013-08-18T08:01:54Z</time>
      </trkpt>
      <trkpt lat="48.68156" lon="1.79238">
        <ele>173</ele>
        <time>2013-08-18T08:01:56Z</time>
      </trkpt>
      <trkpt lat="48.68155" lon="1.79254">
        <ele>173</ele>
        <time>2013-08-18T08:01:59Z</time>
      </trkpt>
      <trkpt lat="48.68153" lon="1.79265">
        <ele>173</ele>
        <time>2013-08-18T08:02:01Z</time>
      </trkpt>
      <trkpt lat="48.68153" lon="1.79275">
        <ele>173</ele>
        <time>2013-08-18T08:02:03Z</time>
      </trkpt>
      <trkpt lat="48.68153" lon="1.79286">
        <ele>173</ele>
        <time>2013-08-18T08:02:05Z</time>
      </trkpt>
      <trkpt lat="48.68153" lon="1.79297">
        <ele>173</ele>
        <time>2013-08-18T08:02:07Z</time>
      </trkpt>
      <trkpt lat="48.68152" lon="1.79309">
        <ele>173</ele>
        <time>2013-08-18T08:02:09Z</time>
      </trkpt>
      <trkpt lat="48.6815" lon="1.7932">
        <ele>173</ele>
        <time>2013-08-18T08:02:11Z</time>
      </trkpt>
      <trkpt lat="48.6815" lon="1.79332">
        <ele>173</ele>
        <time>2013-08-18T08:02:13Z</time>
      </trkpt>
      <trkpt lat="48.68149" lon="1.79342">
        <ele>173</ele>
        <time>2013-08-18T08:02:15Z</time>
      </trkpt>
      <trkpt lat="48.68149" lon="1.79352">
        <ele>172</ele>
        <time>2013-08-18T08:02:17Z</time>
      </trkpt>
      <trkpt lat="48.6815" lon="1.79362">
        <ele>171</ele>
        <time>2013-08-18T08:02:19Z</time>
      </trkpt>
      <trkpt lat="48.6815" lon="1.79373">
        <ele>171</ele>
        <time>2013-08-18T08:02:21Z</time>
      </trkpt>
      <trkpt lat="48.68148" lon="1.79389">
        <ele>171</ele>
        <time>2013-08-18T08:02:24Z</time>
      </trkpt>
      <trkpt lat="48.68148" lon="1.79401">
        <ele>171</ele>
        <time>2013-08-18T08:02:26Z</time>
      </trkpt>
      <trkpt lat="48.68147" lon="1.79413">
        <ele>171</ele>
        <time>2013-08-18T08:02:28Z</time>
      </trkpt>
      <trkpt lat="48.68147" lon="1.79423">
        <ele>171</ele>
        <time>2013-08-18T08:02:30Z</time>
      </trkpt>
      <trkpt lat="48.68146" lon="1.79434">
        <ele>171</ele>
        <time>2013-08-18T08:02:32Z</time>
      </trkpt>
      <trkpt lat="48.68145" lon="1.79445">
        <ele>171</ele>
        <time>2013-08-18T08:02:34Z</time>
      </trkpt>
      <trkpt lat="48.68145" lon="1.79457">
        <ele>170</ele>
        <time>2013-08-18T08:02:36Z</time>
      </trkpt>
      <trkpt lat="48.68144" lon="1.79469">
        <ele>170</ele>
        <time>2013-08-18T08:02:38Z</time>
      </trkpt>
      <trkpt lat="48.68143" lon="1.7948">
        <ele>170</ele>
        <time>2013-08-18T08:02:40Z</time>
      </trkpt>
      <trkpt lat="48.68142" lon="1.7949">
        <ele>170</ele>
        <time>2013-08-18T08:02:42Z</time>
      </trkpt>
      <trkpt lat="48.68141" lon="1.79502">
        <ele>169</ele>
        <time>2013-08-18T08:02:44Z</time>
      </trkpt>
      <trkpt lat="48.6814" lon="1.79513">
        <ele>169</ele>
        <time>2013-08-18T08:02:46Z</time>
      </trkpt>
      <trkpt lat="48.6814" lon="1.79522">
        <ele>169</ele>
        <time>2013-08-18T08:02:48Z</time>
      </trkpt>
      <trkpt lat="48.68139" lon="1.79532">
        <ele>169</ele>
        <time>2013-08-18T08:02:50Z</time>
      </trkpt>
      <trkpt lat="48.68137" lon="1.79543">
        <ele>169</ele>
        <time>2013-08-18T08:02:52Z</time>
      </trkpt>
      <trkpt lat="48.68136" lon="1.79555">
        <ele>169</ele>
        <time>2013-08-18T08:02:54Z</time>
      </trkpt>
      <trkpt lat="48.68136" lon="1.79564">
        <ele>169</ele>
        <time>2013-08-18T08:02:56Z</time>
      </trkpt>
      <trkpt lat="48.68136" lon="1.79575">
        <ele>169</ele>
        <time>2013-08-18T08:02:58Z</time>
      </trkpt>
      <trkpt lat="48.68136" lon="1.79583">
        <ele>168</ele>
        <time>2013-08-18T08:03:00Z</time>
      </trkpt>
      <trkpt lat="48.68136" lon="1.79592">
        <ele>168</ele>
        <time>2013-08-18T08:03:02Z</time>
      </trkpt>
      <trkpt lat="48.68136" lon="1.79602">
        <ele>168</ele>
        <time>2013-08-18T08:03:04Z</time>
      </trkpt>
      <trkpt lat="48.68134" lon="1.79626">
        <ele>167</ele>
        <time>2013-08-18T08:03:08Z</time>
      </trkpt>
      <trkpt lat="48.68135" lon="1.79634">
        <ele>167</ele>
        <time>2013-08-18T08:03:10Z</time>
      </trkpt>
      <trkpt lat="48.68135" lon="1.79645">
        <ele>167</ele>
        <time>2013-08-18T08:03:12Z</time>
      </trkpt>
      <trkpt lat="48.68134" lon="1.79655">
        <ele>167</ele>
        <time>2013-08-18T08:03:14Z</time>
      </trkpt>
      <trkpt lat="48.68134" lon="1.79664">
        <ele>167</ele>
        <time>2013-08-18T08:03:16Z</time>
      </trkpt>
      <trkpt lat="48.68133" lon="1.79672">
        <ele>167</ele>
        <time>2013-08-18T08:03:18Z</time>
      </trkpt>
      <trkpt lat="48.68133" lon="1.7968">
        <ele>167</ele>
        <time>2013-08-18T08:03:20Z</time>
      </trkpt>
      <trkpt lat="48.68132" lon="1.79688">
        <ele>167</ele>
        <time>2013-08-18T08:03:22Z</time>
      </trkpt>
      <trkpt lat="48.68131" lon="1.79699">
        <ele>167</ele>
        <time>2013-08-18T08:03:24Z</time>
      </trkpt>
      <trkpt lat="48.6813" lon="1.7971">
        <ele>167</ele>
        <time>2013-08-18T08:03:26Z</time>
      </trkpt>
      <trkpt lat="48.6813" lon="1.79721">
        <ele>168</ele>
        <time>2013-08-18T08:03:28Z</time>
      </trkpt>
      <trkpt lat="48.68129" lon="1.79731">
        <ele>168</ele>
        <time>2013-08-18T08:03:30Z</time>
      </trkpt>
      <trkpt lat="48.68129" lon="1.79741">
        <ele>169</ele>
        <time>2013-08-18T08:03:32Z</time>
      </trkpt>
      <trkpt lat="48.68126" lon="1.79767">
        <ele>169</ele>
        <time>2013-08-18T08:03:36Z</time>
      </trkpt>
      <trkpt lat="48.68127" lon="1.79778">
        <ele>169</ele>
        <time>2013-08-18T08:03:38Z</time>
      </trkpt>
      <trkpt lat="48.68127" lon="1.79788">
        <ele>169</ele>
        <time>2013-08-18T08:03:40Z</time>
      </trkpt>
      <trkpt lat="48.68126" lon="1.79798">
        <ele>169</ele>
        <time>2013-08-18T08:03:42Z</time>
      </trkpt>
      <trkpt lat="48.68124" lon="1.79811">
        <ele>169</ele>
        <time>2013-08-18T08:03:44Z</time>
      </trkpt>
      <trkpt lat="48.68124" lon="1.79815">
        <ele>169</ele>
        <time>2013-08-18T08:03:46Z</time>
      </trkpt>
      <trkpt lat="48.68123" lon="1.79824">
        <ele>169</ele>
        <time>2013-08-18T08:03:48Z</time>
      </trkpt>
      <trkpt lat="48.68122" lon="1.79834">
        <ele>169</ele>
        <time>2013-08-18T08:03:50Z</time>
      </trkpt>
      <trkpt lat="48.68121" lon="1.79843">
        <ele>169</ele>
        <time>2013-08-18T08:03:52Z</time>
      </trkpt>
      <trkpt lat="48.68121" lon="1.79861">
        <ele>169</ele>
        <time>2013-08-18T08:03:55Z</time>
      </trkpt>
      <trkpt lat="48.6812" lon="1.7987">
        <ele>169</ele>
        <time>2013-08-18T08:03:57Z</time>
      </trkpt>
      <trkpt lat="48.68119" lon="1.79882">
        <ele>169</ele>
        <time>2013-08-18T08:04:00Z</time>
      </trkpt>
      <trkpt lat="48.68118" lon="1.79892">
        <ele>169</ele>
        <time>2013-08-18T08:04:02Z</time>
      </trkpt>
      <trkpt lat="48.68118" lon="1.79902">
        <ele>169</ele>
        <time>2013-08-18T08:04:04Z</time>
      </trkpt>
      <trkpt lat="48.68117" lon="1.79913">
        <ele>169</ele>
        <time>2013-08-18T08:04:06Z</time>
      </trkpt>
      <trkpt lat="48.68117" lon="1.79923">
        <ele>169</ele>
        <time>2013-08-18T08:04:08Z</time>
      </trkpt>
      <trkpt lat="48.68117" lon="1.79935">
        <ele>169</ele>
        <time>2013-08-18T08:04:10Z</time>
      </trkpt>
      <trkpt lat="48.68117" lon="1.79947">
        <ele>169</ele>
        <time>2013-08-18T08:04:12Z</time>
      </trkpt>
      <trkpt lat="48.68117" lon="1.79958">
        <ele>169</ele>
        <time>2013-08-18T08:04:14Z</time>
      </trkpt>
      <trkpt lat="48.68119" lon="1.79968">
        <ele>169</ele>
        <time>2013-08-18T08:04:16Z</time>
      </trkpt>
      <trkpt lat="48.68118" lon="1.7998">
        <ele>169</ele>
        <time>2013-08-18T08:04:18Z</time>
      </trkpt>
      <trkpt lat="48.68118" lon="1.79989">
        <ele>169</ele>
        <time>2013-08-18T08:04:20Z</time>
      </trkpt>
      <trkpt lat="48.68117" lon="1.8">
        <ele>169</ele>
        <time>2013-08-18T08:04:22Z</time>
      </trkpt>
      <trkpt lat="48.68117" lon="1.80008">
        <ele>169</ele>
        <time>2013-08-18T08:04:24Z</time>
      </trkpt>
      <trkpt lat="48.68117" lon="1.80021">
        <ele>169</ele>
        <time>2013-08-18T08:04:27Z</time>
      </trkpt>
      <trkpt lat="48.68116" lon="1.80031">
        <ele>169</ele>
        <time>2013-08-18T08:04:29Z</time>
      </trkpt>
      <trkpt lat="48.68116" lon="1.80042">
        <ele>169</ele>
        <time>2013-08-18T08:04:31Z</time>
      </trkpt>
      <trkpt lat="48.68115" lon="1.80052">
        <ele>169</ele>
        <time>2013-08-18T08:04:33Z</time>
      </trkpt>
      <trkpt lat="48.68115" lon="1.8006">
        <ele>169</ele>
        <time>2013-08-18T08:04:35Z</time>
      </trkpt>
      <trkpt lat="48.68116" lon="1.80067">
        <ele>169</ele>
        <time>2013-08-18T08:04:37Z</time>
      </trkpt>
      <trkpt lat="48.68115" lon="1.80078">
        <ele>169</ele>
        <time>2013-08-18T08:04:39Z</time>
      </trkpt>
      <trkpt lat="48.68111" lon="1.8009">
        <ele>169</ele>
        <time>2013-08-18T08:04:41Z</time>
      </trkpt>
      <trkpt lat="48.68109" lon="1.80102">
        <ele>169</ele>
        <time>2013-08-18T08:04:43Z</time>
      </trkpt>
      <trkpt lat="48.68109" lon="1.80114">
        <ele>169</ele>
        <time>2013-08-18T08:04:45Z</time>
      </trkpt>
      <trkpt lat="48.68109" lon="1.80124">
        <ele>169</ele>
        <time>2013-08-18T08:04:47Z</time>
      </trkpt>
      <trkpt lat="48.68108" lon="1.80134">
        <ele>169</ele>
        <time>2013-08-18T08:04:49Z</time>
      </trkpt>
      <trkpt lat="48.68108" lon="1.80145">
        <ele>169</ele>
        <time>2013-08-18T08:04:51Z</time>
      </trkpt>
      <trkpt lat="48.68107" lon="1.80157">
        <ele>169</ele>
        <time>2013-08-18T08:04:53Z</time>
      </trkpt>
      <trkpt lat="48.68106" lon="1.80167">
        <ele>169</ele>
        <time>2013-08-18T08:04:55Z</time>
      </trkpt>
      <trkpt lat="48.68106" lon="1.80183">
        <ele>169</ele>
        <time>2013-08-18T08:04:58Z</time>
      </trkpt>
      <trkpt lat="48.68105" lon="1.80194">
        <ele>169</ele>
        <time>2013-08-18T08:05:00Z</time>
      </trkpt>
      <trkpt lat="48.68105" lon="1.80205">
        <ele>169</ele>
        <time>2013-08-18T08:05:02Z</time>
      </trkpt>
      <trkpt lat="48.68104" lon="1.80217">
        <ele>169</ele>
        <time>2013-08-18T08:05:04Z</time>
      </trkpt>
      <trkpt lat="48.68103" lon="1.80228">
        <ele>169</ele>
        <time>2013-08-18T08:05:06Z</time>
      </trkpt>
      <trkpt lat="48.68103" lon="1.8024">
        <ele>169</ele>
        <time>2013-08-18T08:05:08Z</time>
      </trkpt>
      <trkpt lat="48.68102" lon="1.80251">
        <ele>169</ele>
        <time>2013-08-18T08:05:10Z</time>
      </trkpt>
      <trkpt lat="48.68101" lon="1.80262">
        <ele>169</ele>
        <time>2013-08-18T08:05:12Z</time>
      </trkpt>
      <trkpt lat="48.68101" lon="1.80273">
        <ele>169</ele>
        <time>2013-08-18T08:05:14Z</time>
      </trkpt>
      <trkpt lat="48.681" lon="1.80283">
        <ele>169</ele>
        <time>2013-08-18T08:05:16Z</time>
      </trkpt>
      <trkpt lat="48.681" lon="1.80295">
        <ele>169</ele>
        <time>2013-08-18T08:05:18Z</time>
      </trkpt>
      <trkpt lat="48.68099" lon="1.80306">
        <ele>169</ele>
        <time>2013-08-18T08:05:20Z</time>
      </trkpt>
      <trkpt lat="48.68098" lon="1.80318">
        <ele>169</ele>
        <time>2013-08-18T08:05:22Z</time>
      </trkpt>
      <trkpt lat="48.68097" lon="1.8033">
        <ele>169</ele>
        <time>2013-08-18T08:05:24Z</time>
      </trkpt>
      <trkpt lat="48.68097" lon="1.80343">
        <ele>169</ele>
        <time>2013-08-18T08:05:26Z</time>
      </trkpt>
      <trkpt lat="48.68097" lon="1.80354">
        <ele>169</ele>
        <time>2013-08-18T08:05:28Z</time>
      </trkpt>
      <trkpt lat="48.68096" lon="1.80365">
        <ele>169</ele>
        <time>2013-08-18T08:05:30Z</time>
      </trkpt>
      <trkpt lat="48.68096" lon="1.80376">
        <ele>169</ele>
        <time>2013-08-18T08:05:32Z</time>
      </trkpt>
      <trkpt lat="48.68095" lon="1.80387">
        <ele>169</ele>
        <time>2013-08-18T08:05:34Z</time>
      </trkpt>
      <trkpt lat="48.68095" lon="1.80398">
        <ele>169</ele>
        <time>2013-08-18T08:05:36Z</time>
      </trkpt>
      <trkpt lat="48.68094" lon="1.80409">
        <ele>169</ele>
        <time>2013-08-18T08:05:38Z</time>
      </trkpt>
      <trkpt lat="48.68094" lon="1.80419">
        <ele>169</ele>
        <time>2013-08-18T08:05:40Z</time>
      </trkpt>
      <trkpt lat="48.68093" lon="1.80428">
        <ele>169</ele>
        <time>2013-08-18T08:05:42Z</time>
      </trkpt>
      <trkpt lat="48.68093" lon="1.80437">
        <ele>169</ele>
        <time>2013-08-18T08:05:44Z</time>
      </trkpt>
      <trkpt lat="48.68093" lon="1.80447">
        <ele>169</ele>
        <time>2013-08-18T08:05:46Z</time>
      </trkpt>
      <trkpt lat="48.68092" lon="1.80462">
        <ele>169</ele>
        <time>2013-08-18T08:05:49Z</time>
      </trkpt>
      <trkpt lat="48.68092" lon="1.80472">
        <ele>169</ele>
        <time>2013-08-18T08:05:51Z</time>
      </trkpt>
      <trkpt lat="48.68091" lon="1.80481">
        <ele>169</ele>
        <time>2013-08-18T08:05:53Z</time>
      </trkpt>
      <trkpt lat="48.68088" lon="1.80498">
        <ele>169</ele>
        <time>2013-08-18T08:05:57Z</time>
      </trkpt>
      <trkpt lat="48.68086" lon="1.80504">
        <ele>169</ele>
        <time>2013-08-18T08:05:59Z</time>
      </trkpt>
      <trkpt lat="48.68082" lon="1.8051">
        <ele>169</ele>
        <time>2013-08-18T08:06:01Z</time>
      </trkpt>
      <trkpt lat="48.68078" lon="1.80512">
        <ele>169</ele>
        <time>2013-08-18T08:06:03Z</time>
      </trkpt>
      <trkpt lat="48.68072" lon="1.80518">
        <ele>169</ele>
        <time>2013-08-18T08:06:05Z</time>
      </trkpt>
      <trkpt lat="48.68067" lon="1.80525">
        <ele>169</ele>
        <time>2013-08-18T08:06:07Z</time>
      </trkpt>
      <trkpt lat="48.68061" lon="1.80531">
        <ele>169</ele>
        <time>2013-08-18T08:06:09Z</time>
      </trkpt>
      <trkpt lat="48.68055" lon="1.80535">
        <ele>169</ele>
        <time>2013-08-18T08:06:11Z</time>
      </trkpt>
      <trkpt lat="48.6805" lon="1.8054">
        <ele>169</ele>
        <time>2013-08-18T08:06:13Z</time>
      </trkpt>
      <trkpt lat="48.68044" lon="1.80546">
        <ele>169</ele>
        <time>2013-08-18T08:06:15Z</time>
      </trkpt>
      <trkpt lat="48.68039" lon="1.80554">
        <ele>169</ele>
        <time>2013-08-18T08:06:17Z</time>
      </trkpt>
      <trkpt lat="48.68033" lon="1.80561">
        <ele>169</ele>
        <time>2013-08-18T08:06:19Z</time>
      </trkpt>
      <trkpt lat="48.68029" lon="1.80569">
        <ele>169</ele>
        <time>2013-08-18T08:06:21Z</time>
      </trkpt>
      <trkpt lat="48.68025" lon="1.80576">
        <ele>169</ele>
        <time>2013-08-18T08:06:23Z</time>
      </trkpt>
      <trkpt lat="48.68021" lon="1.8058">
        <ele>169</ele>
        <time>2013-08-18T08:06:25Z</time>
      </trkpt>
      <trkpt lat="48.68016" lon="1.80581">
        <ele>169</ele>
        <time>2013-08-18T08:06:27Z</time>
      </trkpt>
      <trkpt lat="48.68009" lon="1.80581">
        <ele>169</ele>
        <time>2013-08-18T08:06:29Z</time>
      </trkpt>
      <trkpt lat="48.68003" lon="1.80587">
        <ele>169</ele>
        <time>2013-08-18T08:06:31Z</time>
      </trkpt>
      <trkpt lat="48.67998" lon="1.80594">
        <ele>169</ele>
        <time>2013-08-18T08:06:33Z</time>
      </trkpt>
      <trkpt lat="48.67992" lon="1.80607">
        <ele>169</ele>
        <time>2013-08-18T08:06:35Z</time>
      </trkpt>
      <trkpt lat="48.67988" lon="1.80615">
        <ele>169</ele>
        <time>2013-08-18T08:06:37Z</time>
      </trkpt>
      <trkpt lat="48.67983" lon="1.80622">
        <ele>169</ele>
        <time>2013-08-18T08:06:39Z</time>
      </trkpt>
      <trkpt lat="48.67979" lon="1.80627">
        <ele>169</ele>
        <time>2013-08-18T08:06:41Z</time>
      </trkpt>
      <trkpt lat="48.67975" lon="1.80634">
        <ele>169</ele>
        <time>2013-08-18T08:06:43Z</time>
      </trkpt>
      <trkpt lat="48.6797" lon="1.80639">
        <ele>169</ele>
        <time>2013-08-18T08:06:45Z</time>
      </trkpt>
      <trkpt lat="48.67965" lon="1.80647">
        <ele>169</ele>
        <time>2013-08-18T08:06:47Z</time>
      </trkpt>
      <trkpt lat="48.6796" lon="1.80656">
        <ele>169</ele>
        <time>2013-08-18T08:06:49Z</time>
      </trkpt>
      <trkpt lat="48.67956" lon="1.80663">
        <ele>169</ele>
        <time>2013-08-18T08:06:51Z</time>
      </trkpt>
      <trkpt lat="48.6795" lon="1.8067">
        <ele>169</ele>
        <time>2013-08-18T08:06:53Z</time>
      </trkpt>
      <trkpt lat="48.67946" lon="1.80677">
        <ele>169</ele>
        <time>2013-08-18T08:06:55Z</time>
      </trkpt>
      <trkpt lat="48.6794" lon="1.80687">
        <ele>169</ele>
        <time>2013-08-18T08:06:58Z</time>
      </trkpt>
      <trkpt lat="48.67934" lon="1.80692">
        <ele>169</ele>
        <time>2013-08-18T08:07:00Z</time>
      </trkpt>
      <trkpt lat="48.6793" lon="1.80699">
        <ele>169</ele>
        <time>2013-08-18T08:07:02Z</time>
      </trkpt>
      <trkpt lat="48.67924" lon="1.80708">
        <ele>169</ele>
        <time>2013-08-18T08:07:04Z</time>
      </trkpt>
      <trkpt lat="48.6792" lon="1.80717">
        <ele>169</ele>
        <time>2013-08-18T08:07:06Z</time>
      </trkpt>
      <trkpt lat="48.67915" lon="1.80729">
        <ele>169</ele>
        <time>2013-08-18T08:07:08Z</time>
      </trkpt>
      <trkpt lat="48.67912" lon="1.80734">
        <ele>169</ele>
        <time>2013-08-18T08:07:10Z</time>
      </trkpt>
      <trkpt lat="48.67909" lon="1.80741">
        <ele>169</ele>
        <time>2013-08-18T08:07:12Z</time>
      </trkpt>
      <trkpt lat="48.67907" lon="1.80751">
        <ele>169</ele>
        <time>2013-08-18T08:07:14Z</time>
      </trkpt>
      <trkpt lat="48.67905" lon="1.80759">
        <ele>169</ele>
        <time>2013-08-18T08:07:16Z</time>
      </trkpt>
      <trkpt lat="48.67901" lon="1.80768">
        <ele>169</ele>
        <time>2013-08-18T08:07:18Z</time>
      </trkpt>
      <trkpt lat="48.67898" lon="1.80778">
        <ele>169</ele>
        <time>2013-08-18T08:07:20Z</time>
      </trkpt>
      <trkpt lat="48.67895" lon="1.80789">
        <ele>169</ele>
        <time>2013-08-18T08:07:22Z</time>
      </trkpt>
      <trkpt lat="48.67893" lon="1.80797">
        <ele>169</ele>
        <time>2013-08-18T08:07:24Z</time>
      </trkpt>
      <trkpt lat="48.67891" lon="1.80806">
        <ele>169</ele>
        <time>2013-08-18T08:07:26Z</time>
      </trkpt>
      <trkpt lat="48.67884" lon="1.80826">
        <ele>169</ele>
        <time>2013-08-18T08:07:30Z</time>
      </trkpt>
      <trkpt lat="48.67883" lon="1.80835">
        <ele>169</ele>
        <time>2013-08-18T08:07:32Z</time>
      </trkpt>
      <trkpt lat="48.67881" lon="1.80842">
        <ele>169</ele>
        <time>2013-08-18T08:07:34Z</time>
      </trkpt>
      <trkpt lat="48.67878" lon="1.80851">
        <ele>169</ele>
        <time>2013-08-18T08:07:36Z</time>
      </trkpt>
      <trkpt lat="48.67874" lon="1.80862">
        <ele>169</ele>
        <time>2013-08-18T08:07:38Z</time>
      </trkpt>
      <trkpt lat="48.67871" lon="1.80873">
        <ele>169</ele>
        <time>2013-08-18T08:07:41Z</time>
      </trkpt>
      <trkpt lat="48.67869" lon="1.80883">
        <ele>169</ele>
        <time>2013-08-18T08:07:43Z</time>
      </trkpt>
      <trkpt lat="48.67867" lon="1.80895">
        <ele>169</ele>
        <time>2013-08-18T08:07:45Z</time>
      </trkpt>
      <trkpt lat="48.67866" lon="1.80904">
        <ele>169</ele>
        <time>2013-08-18T08:07:47Z</time>
      </trkpt>
      <trkpt lat="48.67865" lon="1.80915">
        <ele>169</ele>
        <time>2013-08-18T08:07:49Z</time>
      </trkpt>
      <trkpt lat="48.67865" lon="1.80935">
        <ele>169</ele>
        <time>2013-08-18T08:07:53Z</time>
      </trkpt>
      <trkpt lat="48.67866" lon="1.80943">
        <ele>168</ele>
        <time>2013-08-18T08:07:55Z</time>
      </trkpt>
      <trkpt lat="48.67865" lon="1.80954">
        <ele>167</ele>
        <time>2013-08-18T08:07:57Z</time>
      </trkpt>
      <trkpt lat="48.67864" lon="1.80965">
        <ele>167</ele>
        <time>2013-08-18T08:07:59Z</time>
      </trkpt>
      <trkpt lat="48.67862" lon="1.80976">
        <ele>167</ele>
        <time>2013-08-18T08:08:01Z</time>
      </trkpt>
      <trkpt lat="48.6786" lon="1.80985">
        <ele>167</ele>
        <time>2013-08-18T08:08:03Z</time>
      </trkpt>
      <trkpt lat="48.67858" lon="1.80998">
        <ele>167</ele>
        <time>2013-08-18T08:08:05Z</time>
      </trkpt>
      <trkpt lat="48.67855" lon="1.81011">
        <ele>167</ele>
        <time>2013-08-18T08:08:07Z</time>
      </trkpt>
      <trkpt lat="48.67853" lon="1.81019">
        <ele>167</ele>
        <time>2013-08-18T08:08:09Z</time>
      </trkpt>
      <trkpt lat="48.67849" lon="1.81026">
        <ele>167</ele>
        <time>2013-08-18T08:08:11Z</time>
      </trkpt>
      <trkpt lat="48.67845" lon="1.8103">
        <ele>167</ele>
        <time>2013-08-18T08:08:13Z</time>
      </trkpt>
      <trkpt lat="48.67841" lon="1.81036">
        <ele>167</ele>
        <time>2013-08-18T08:08:15Z</time>
      </trkpt>
      <trkpt lat="48.67838" lon="1.81043">
        <ele>167</ele>
        <time>2013-08-18T08:08:17Z</time>
      </trkpt>
      <trkpt lat="48.67834" lon="1.81052">
        <ele>167</ele>
        <time>2013-08-18T08:08:19Z</time>
      </trkpt>
      <trkpt lat="48.6783" lon="1.81062">
        <ele>167</ele>
        <time>2013-08-18T08:08:22Z</time>
      </trkpt>
      <trkpt lat="48.67826" lon="1.81069">
        <ele>167</ele>
        <time>2013-08-18T08:08:24Z</time>
      </trkpt>
      <trkpt lat="48.67823" lon="1.81076">
        <ele>167</ele>
        <time>2013-08-18T08:08:26Z</time>
      </trkpt>
      <trkpt lat="48.6782" lon="1.81086">
        <ele>167</ele>
        <time>2013-08-18T08:08:28Z</time>
      </trkpt>
      <trkpt lat="48.67817" lon="1.81096">
        <ele>167</ele>
        <time>2013-08-18T08:08:30Z</time>
      </trkpt>
      <trkpt lat="48.67814" lon="1.81103">
        <ele>167</ele>
        <time>2013-08-18T08:08:32Z</time>
      </trkpt>
      <trkpt lat="48.6781" lon="1.81111">
        <ele>167</ele>
        <time>2013-08-18T08:08:34Z</time>
      </trkpt>
      <trkpt lat="48.67807" lon="1.8112">
        <ele>167</ele>
        <time>2013-08-18T08:08:37Z</time>
      </trkpt>
      <trkpt lat="48.67804" lon="1.81125">
        <ele>167</ele>
        <time>2013-08-18T08:08:39Z</time>
      </trkpt>
      <trkpt lat="48.67799" lon="1.81134">
        <ele>167</ele>
        <time>2013-08-18T08:08:41Z</time>
      </trkpt>
      <trkpt lat="48.67794" lon="1.81142">
        <ele>167</ele>
        <time>2013-08-18T08:08:43Z</time>
      </trkpt>
      <trkpt lat="48.67791" lon="1.81149">
        <ele>167</ele>
        <time>2013-08-18T08:08:45Z</time>
      </trkpt>
      <trkpt lat="48.67786" lon="1.81156">
        <ele>167</ele>
        <time>2013-08-18T08:08:47Z</time>
      </trkpt>
      <trkpt lat="48.67781" lon="1.81163">
        <ele>167</ele>
        <time>2013-08-18T08:08:49Z</time>
      </trkpt>
      <trkpt lat="48.67776" lon="1.81169">
        <ele>167</ele>
        <time>2013-08-18T08:08:51Z</time>
      </trkpt>
      <trkpt lat="48.67772" lon="1.81179">
        <ele>167</ele>
        <time>2013-08-18T08:08:53Z</time>
      </trkpt>
      <trkpt lat="48.67768" lon="1.81185">
        <ele>167</ele>
        <time>2013-08-18T08:08:55Z</time>
      </trkpt>
      <trkpt lat="48.67765" lon="1.81192">
        <ele>167</ele>
        <time>2013-08-18T08:08:57Z</time>
      </trkpt>
      <trkpt lat="48.67764" lon="1.81198">
        <ele>167</ele>
        <time>2013-08-18T08:08:59Z</time>
      </trkpt>
      <trkpt lat="48.67762" lon="1.81205">
        <ele>167</ele>
        <time>2013-08-18T08:09:01Z</time>
      </trkpt>
      <trkpt lat="48.67758" lon="1.81217">
        <ele>166</ele>
        <time>2013-08-18T08:09:03Z</time>
      </trkpt>
      <trkpt lat="48.67755" lon="1.81223">
        <ele>166</ele>
        <time>2013-08-18T08:09:05Z</time>
      </trkpt>
      <trkpt lat="48.67752" lon="1.8123">
        <ele>166</ele>
        <time>2013-08-18T08:09:07Z</time>
      </trkpt>
      <trkpt lat="48.67748" lon="1.81236">
        <ele>166</ele>
        <time>2013-08-18T08:09:09Z</time>
      </trkpt>
      <trkpt lat="48.67744" lon="1.81242">
        <ele>166</ele>
        <time>2013-08-18T08:09:11Z</time>
      </trkpt>
      <trkpt lat="48.67739" lon="1.81247">
        <ele>166</ele>
        <time>2013-08-18T08:09:13Z</time>
      </trkpt>
      <trkpt lat="48.67736" lon="1.81254">
        <ele>166</ele>
        <time>2013-08-18T08:09:15Z</time>
      </trkpt>
      <trkpt lat="48.67732" lon="1.8126">
        <ele>166</ele>
        <time>2013-08-18T08:09:17Z</time>
      </trkpt>
      <trkpt lat="48.67728" lon="1.81265">
        <ele>166</ele>
        <time>2013-08-18T08:09:19Z</time>
      </trkpt>
      <trkpt lat="48.67725" lon="1.81272">
        <ele>166</ele>
        <time>2013-08-18T08:09:21Z</time>
      </trkpt>
      <trkpt lat="48.67721" lon="1.8128">
        <ele>166</ele>
        <time>2013-08-18T08:09:24Z</time>
      </trkpt>
      <trkpt lat="48.67719" lon="1.81288">
        <ele>166</ele>
        <time>2013-08-18T08:09:26Z</time>
      </trkpt>
      <trkpt lat="48.67717" lon="1.81297">
        <ele>166</ele>
        <time>2013-08-18T08:09:28Z</time>
      </trkpt>
      <trkpt lat="48.67712" lon="1.81305">
        <ele>166</ele>
        <time>2013-08-18T08:09:30Z</time>
      </trkpt>
      <trkpt lat="48.67707" lon="1.81313">
        <ele>166</ele>
        <time>2013-08-18T08:09:32Z</time>
      </trkpt>
      <trkpt lat="48.67704" lon="1.81321">
        <ele>166</ele>
        <time>2013-08-18T08:09:34Z</time>
      </trkpt>
      <trkpt lat="48.67699" lon="1.81329">
        <ele>166</ele>
        <time>2013-08-18T08:09:36Z</time>
      </trkpt>
      <trkpt lat="48.67695" lon="1.81334">
        <ele>166</ele>
        <time>2013-08-18T08:09:38Z</time>
      </trkpt>
      <trkpt lat="48.67691" lon="1.81336">
        <ele>166</ele>
        <time>2013-08-18T08:09:40Z</time>
      </trkpt>
      <trkpt lat="48.67687" lon="1.81338">
        <ele>166</ele>
        <time>2013-08-18T08:09:42Z</time>
      </trkpt>
      <trkpt lat="48.67683" lon="1.81338">
        <ele>166</ele>
        <time>2013-08-18T08:09:44Z</time>
      </trkpt>
      <trkpt lat="48.6768" lon="1.81338">
        <ele>166</ele>
        <time>2013-08-18T08:09:46Z</time>
      </trkpt>
      <trkpt lat="48.67677" lon="1.81339">
        <ele>166</ele>
        <time>2013-08-18T08:09:48Z</time>
      </trkpt>
      <trkpt lat="48.67672" lon="1.81342">
        <ele>166</ele>
        <time>2013-08-18T08:09:51Z</time>
      </trkpt>
      <trkpt lat="48.67669" lon="1.81345">
        <ele>166</ele>
        <time>2013-08-18T08:09:53Z</time>
      </trkpt>
      <trkpt lat="48.67666" lon="1.81347">
        <ele>166</ele>
        <time>2013-08-18T08:09:55Z</time>
      </trkpt>
      <trkpt lat="48.67664" lon="1.8135">
        <ele>167</ele>
        <time>2013-08-18T08:09:57Z</time>
      </trkpt>
      <trkpt lat="48.67662" lon="1.81351">
        <ele>167</ele>
        <time>2013-08-18T08:09:59Z</time>
      </trkpt>
      <trkpt lat="48.6766" lon="1.81356">
        <ele>167</ele>
        <time>2013-08-18T08:10:01Z</time>
      </trkpt>
      <trkpt lat="48.67659" lon="1.8136">
        <ele>167</ele>
        <time>2013-08-18T08:10:03Z</time>
      </trkpt>
      <trkpt lat="48.67658" lon="1.81364">
        <ele>167</ele>
        <time>2013-08-18T08:10:05Z</time>
      </trkpt>
      <trkpt lat="48.67657" lon="1.81368">
        <ele>167</ele>
        <time>2013-08-18T08:10:07Z</time>
      </trkpt>
      <trkpt lat="48.67656" lon="1.81373">
        <ele>167</ele>
        <time>2013-08-18T08:10:09Z</time>
      </trkpt>
      <trkpt lat="48.67655" lon="1.81377">
        <ele>167</ele>
        <time>2013-08-18T08:10:11Z</time>
      </trkpt>
      <trkpt lat="48.67654" lon="1.81381">
        <ele>167</ele>
        <time>2013-08-18T08:10:13Z</time>
      </trkpt>
      <trkpt lat="48.67651" lon="1.81384">
        <ele>167</ele>
        <time>2013-08-18T08:10:15Z</time>
      </trkpt>
      <trkpt lat="48.67647" lon="1.81385">
        <ele>167</ele>
        <time>2013-08-18T08:10:17Z</time>
      </trkpt>
      <trkpt lat="48.67643" lon="1.81385">
        <ele>167</ele>
        <time>2013-08-18T08:10:19Z</time>
      </trkpt>
      <trkpt lat="48.6764" lon="1.81385">
        <ele>167</ele>
        <time>2013-08-18T08:10:21Z</time>
      </trkpt>
      <trkpt lat="48.67637" lon="1.81385">
        <ele>167</ele>
        <time>2013-08-18T08:10:23Z</time>
      </trkpt>
      <trkpt lat="48.67633" lon="1.81386">
        <ele>167</ele>
        <time>2013-08-18T08:10:25Z</time>
      </trkpt>
      <trkpt lat="48.67629" lon="1.81386">
        <ele>167</ele>
        <time>2013-08-18T08:10:27Z</time>
      </trkpt>
      <trkpt lat="48.67626" lon="1.81387">
        <ele>167</ele>
        <time>2013-08-18T08:10:29Z</time>
      </trkpt>
      <trkpt lat="48.67622" lon="1.81387">
        <ele>167</ele>
        <time>2013-08-18T08:10:31Z</time>
      </trkpt>
      <trkpt lat="48.67618" lon="1.81388">
        <ele>167</ele>
        <time>2013-08-18T08:10:33Z</time>
      </trkpt>
      <trkpt lat="48.67614" lon="1.81388">
        <ele>167</ele>
        <time>2013-08-18T08:10:35Z</time>
      </trkpt>
      <trkpt lat="48.67611" lon="1.81389">
        <ele>167</ele>
        <time>2013-08-18T08:10:37Z</time>
      </trkpt>
      <trkpt lat="48.67607" lon="1.8139">
        <ele>167</ele>
        <time>2013-08-18T08:10:39Z</time>
      </trkpt>
      <trkpt lat="48.67604" lon="1.81391">
        <ele>167</ele>
        <time>2013-08-18T08:10:41Z</time>
      </trkpt>
      <trkpt lat="48.676" lon="1.81392">
        <ele>167</ele>
        <time>2013-08-18T08:10:43Z</time>
      </trkpt>
      <trkpt lat="48.67597" lon="1.81393">
        <ele>167</ele>
        <time>2013-08-18T08:10:45Z</time>
      </trkpt>
      <trkpt lat="48.6759" lon="1.81394">
        <ele>167</ele>
        <time>2013-08-18T08:10:49Z</time>
      </trkpt>
      <trkpt lat="48.67587" lon="1.81395">
        <ele>167</ele>
        <time>2013-08-18T08:10:51Z</time>
      </trkpt>
      <trkpt lat="48.67582" lon="1.81396">
        <ele>167</ele>
        <time>2013-08-18T08:10:54Z</time>
      </trkpt>
      <trkpt lat="48.67578" lon="1.81397">
        <ele>167</ele>
        <time>2013-08-18T08:10:56Z</time>
      </trkpt>
      <trkpt lat="48.67574" lon="1.81397">
        <ele>167</ele>
        <time>2013-08-18T08:10:59Z</time>
      </trkpt>
      <trkpt lat="48.67571" lon="1.81398">
        <ele>167</ele>
        <time>2013-08-18T08:11:01Z</time>
      </trkpt>
      <trkpt lat="48.67568" lon="1.81399">
        <ele>167</ele>
        <time>2013-08-18T08:11:03Z</time>
      </trkpt>
      <trkpt lat="48.67564" lon="1.814">
        <ele>167</ele>
        <time>2013-08-18T08:11:05Z</time>
      </trkpt>
      <trkpt lat="48.67561" lon="1.814">
        <ele>167</ele>
        <time>2013-08-18T08:11:07Z</time>
      </trkpt>
      <trkpt lat="48.67558" lon="1.814">
        <ele>167</ele>
        <time>2013-08-18T08:11:09Z</time>
      </trkpt>
      <trkpt lat="48.67554" lon="1.81401">
        <ele>167</ele>
        <time>2013-08-18T08:11:11Z</time>
      </trkpt>
      <trkpt lat="48.67551" lon="1.81401">
        <ele>167</ele>
        <time>2013-08-18T08:11:13Z</time>
      </trkpt>
      <trkpt lat="48.67548" lon="1.81402">
        <ele>167</ele>
        <time>2013-08-18T08:11:15Z</time>
      </trkpt>
      <trkpt lat="48.67545" lon="1.81403">
        <ele>167</ele>
        <time>2013-08-18T08:11:17Z</time>
      </trkpt>
      <trkpt lat="48.67542" lon="1.81404">
        <ele>167</ele>
        <time>2013-08-18T08:11:19Z</time>
      </trkpt>
      <trkpt lat="48.67539" lon="1.81403">
        <ele>167</ele>
        <time>2013-08-18T08:11:21Z</time>
      </trkpt>
      <trkpt lat="48.67536" lon="1.81402">
        <ele>167</ele>
        <time>2013-08-18T08:11:23Z</time>
      </trkpt>
      <trkpt lat="48.67533" lon="1.81402">
        <ele>167</ele>
        <time>2013-08-18T08:11:25Z</time>
      </trkpt>
      <trkpt lat="48.6753" lon="1.81402">
        <ele>167</ele>
        <time>2013-08-18T08:11:27Z</time>
      </trkpt>
      <trkpt lat="48.67528" lon="1.81404">
        <ele>166</ele>
        <time>2013-08-18T08:11:29Z</time>
      </trkpt>
      <trkpt lat="48.67525" lon="1.81405">
        <ele>166</ele>
        <time>2013-08-18T08:11:31Z</time>
      </trkpt>
      <trkpt lat="48.67523" lon="1.81409">
        <ele>166</ele>
        <time>2013-08-18T08:11:33Z</time>
      </trkpt>
      <trkpt lat="48.67522" lon="1.81412">
        <ele>166</ele>
        <time>2013-08-18T08:11:35Z</time>
      </trkpt>
      <trkpt lat="48.67521" lon="1.81415">
        <ele>166</ele>
        <time>2013-08-18T08:11:37Z</time>
      </trkpt>
      <trkpt lat="48.6752" lon="1.8142">
        <ele>166</ele>
        <time>2013-08-18T08:11:39Z</time>
      </trkpt>
      <trkpt lat="48.67521" lon="1.81426">
        <ele>166</ele>
        <time>2013-08-18T08:11:41Z</time>
      </trkpt>
      <trkpt lat="48.67522" lon="1.81432">
        <ele>166</ele>
        <time>2013-08-18T08:11:43Z</time>
      </trkpt>
      <trkpt lat="48.67523" lon="1.81438">
        <ele>166</ele>
        <time>2013-08-18T08:11:45Z</time>
      </trkpt>
      <trkpt lat="48.67524" lon="1.81442">
        <ele>166</ele>
        <time>2013-08-18T08:11:47Z</time>
      </trkpt>
      <trkpt lat="48.67525" lon="1.81448">
        <ele>166</ele>
        <time>2013-08-18T08:11:49Z</time>
      </trkpt>
      <trkpt lat="48.67526" lon="1.81453">
        <ele>166</ele>
        <time>2013-08-18T08:11:51Z</time>
      </trkpt>
      <trkpt lat="48.67527" lon="1.81458">
        <ele>167</ele>
        <time>2013-08-18T08:11:53Z</time>
      </trkpt>
      <trkpt lat="48.67527" lon="1.81463">
        <ele>168</ele>
        <time>2013-08-18T08:11:55Z</time>
      </trkpt>
      <trkpt lat="48.67528" lon="1.81467">
        <ele>169</ele>
        <time>2013-08-18T08:11:57Z</time>
      </trkpt>
      <trkpt lat="48.6753" lon="1.81472">
        <ele>170</ele>
        <time>2013-08-18T08:11:59Z</time>
      </trkpt>
      <trkpt lat="48.6753" lon="1.81477">
        <ele>171</ele>
        <time>2013-08-18T08:12:01Z</time>
      </trkpt>
      <trkpt lat="48.67531" lon="1.81483">
        <ele>172</ele>
        <time>2013-08-18T08:12:03Z</time>
      </trkpt>
      <trkpt lat="48.67531" lon="1.81488">
        <ele>172</ele>
        <time>2013-08-18T08:12:05Z</time>
      </trkpt>
      <trkpt lat="48.67531" lon="1.81493">
        <ele>172</ele>
        <time>2013-08-18T08:12:07Z</time>
      </trkpt>
      <trkpt lat="48.67532" lon="1.81499">
        <ele>172</ele>
        <time>2013-08-18T08:12:09Z</time>
      </trkpt>
      <trkpt lat="48.67532" lon="1.81503">
        <ele>172</ele>
        <time>2013-08-18T08:12:11Z</time>
      </trkpt>
      <trkpt lat="48.67533" lon="1.81509">
        <ele>172</ele>
        <time>2013-08-18T08:12:13Z</time>
      </trkpt>
      <trkpt lat="48.67534" lon="1.81514">
        <ele>172</ele>
        <time>2013-08-18T08:12:15Z</time>
      </trkpt>
      <trkpt lat="48.67534" lon="1.81518">
        <ele>172</ele>
        <time>2013-08-18T08:12:17Z</time>
      </trkpt>
      <trkpt lat="48.67535" lon="1.81524">
        <ele>172</ele>
        <time>2013-08-18T08:12:19Z</time>
      </trkpt>
      <trkpt lat="48.67535" lon="1.81529">
        <ele>172</ele>
        <time>2013-08-18T08:12:21Z</time>
      </trkpt>
      <trkpt lat="48.67537" lon="1.81535">
        <ele>172</ele>
        <time>2013-08-18T08:12:23Z</time>
      </trkpt>
      <trkpt lat="48.67539" lon="1.8154">
        <ele>172</ele>
        <time>2013-08-18T08:12:25Z</time>
      </trkpt>
      <trkpt lat="48.6754" lon="1.81546">
        <ele>172</ele>
        <time>2013-08-18T08:12:27Z</time>
      </trkpt>
      <trkpt lat="48.67542" lon="1.8155">
        <ele>173</ele>
        <time>2013-08-18T08:12:29Z</time>
      </trkpt>
      <trkpt lat="48.67545" lon="1.81553">
        <ele>174</ele>
        <time>2013-08-18T08:12:31Z</time>
      </trkpt>
      <trkpt lat="48.67545" lon="1.8156">
        <ele>174</ele>
        <time>2013-08-18T08:12:33Z</time>
      </trkpt>
      <trkpt lat="48.67544" lon="1.81566">
        <ele>174</ele>
        <time>2013-08-18T08:12:35Z</time>
      </trkpt>
      <trkpt lat="48.67544" lon="1.81571">
        <ele>174</ele>
        <time>2013-08-18T08:12:37Z</time>
      </trkpt>
      <trkpt lat="48.67543" lon="1.81577">
        <ele>174</ele>
        <time>2013-08-18T08:12:39Z</time>
      </trkpt>
      <trkpt lat="48.67544" lon="1.81582">
        <ele>174</ele>
        <time>2013-08-18T08:12:41Z</time>
      </trkpt>
      <trkpt lat="48.67545" lon="1.81593">
        <ele>174</ele>
        <time>2013-08-18T08:12:45Z</time>
      </trkpt>
      <trkpt lat="48.67545" lon="1.81598">
        <ele>174</ele>
        <time>2013-08-18T08:12:47Z</time>
      </trkpt>
      <trkpt lat="48.67546" lon="1.81604">
        <ele>174</ele>
        <time>2013-08-18T08:12:49Z</time>
      </trkpt>
      <trkpt lat="48.67548" lon="1.81608">
        <ele>174</ele>
        <time>2013-08-18T08:12:51Z</time>
      </trkpt>
      <trkpt lat="48.6755" lon="1.81615">
        <ele>174</ele>
        <time>2013-08-18T08:12:54Z</time>
      </trkpt>
      <trkpt lat="48.67551" lon="1.81623">
        <ele>174</ele>
        <time>2013-08-18T08:12:57Z</time>
      </trkpt>
      <trkpt lat="48.6755" lon="1.8163">
        <ele>174</ele>
        <time>2013-08-18T08:12:59Z</time>
      </trkpt>
      <trkpt lat="48.67552" lon="1.81636">
        <ele>174</ele>
        <time>2013-08-18T08:13:01Z</time>
      </trkpt>
      <trkpt lat="48.67554" lon="1.8164">
        <ele>174</ele>
        <time>2013-08-18T08:13:03Z</time>
      </trkpt>
      <trkpt lat="48.67555" lon="1.81645">
        <ele>175</ele>
        <time>2013-08-18T08:13:05Z</time>
      </trkpt>
      <trkpt lat="48.67556" lon="1.81651">
        <ele>176</ele>
        <time>2013-08-18T08:13:07Z</time>
      </trkpt>
      <trkpt lat="48.67556" lon="1.81657">
        <ele>176</ele>
        <time>2013-08-18T08:13:09Z</time>
      </trkpt>
      <trkpt lat="48.67557" lon="1.81662">
        <ele>176</ele>
        <time>2013-08-18T08:13:11Z</time>
      </trkpt>
      <trkpt lat="48.67558" lon="1.81668">
        <ele>176</ele>
        <time>2013-08-18T08:13:13Z</time>
      </trkpt>
      <trkpt lat="48.67559" lon="1.81673">
        <ele>176</ele>
        <time>2013-08-18T08:13:15Z</time>
      </trkpt>
      <trkpt lat="48.6756" lon="1.81679">
        <ele>177</ele>
        <time>2013-08-18T08:13:17Z</time>
      </trkpt>
      <trkpt lat="48.67559" lon="1.81685">
        <ele>177</ele>
        <time>2013-08-18T08:13:19Z</time>
      </trkpt>
      <trkpt lat="48.6756" lon="1.81697">
        <ele>177</ele>
        <time>2013-08-18T08:13:23Z</time>
      </trkpt>
      <trkpt lat="48.67558" lon="1.81703">
        <ele>177</ele>
        <time>2013-08-18T08:13:25Z</time>
      </trkpt>
      <trkpt lat="48.67557" lon="1.81709">
        <ele>177</ele>
        <time>2013-08-18T08:13:27Z</time>
      </trkpt>
      <trkpt lat="48.67557" lon="1.81714">
        <ele>176</ele>
        <time>2013-08-18T08:13:29Z</time>
      </trkpt>
      <trkpt lat="48.67558" lon="1.81719">
        <ele>175</ele>
        <time>2013-08-18T08:13:31Z</time>
      </trkpt>
      <trkpt lat="48.67559" lon="1.81725">
        <ele>175</ele>
        <time>2013-08-18T08:13:33Z</time>
      </trkpt>
      <trkpt lat="48.67559" lon="1.8173">
        <ele>175</ele>
        <time>2013-08-18T08:13:35Z</time>
      </trkpt>
      <trkpt lat="48.67559" lon="1.81735">
        <ele>175</ele>
        <time>2013-08-18T08:13:37Z</time>
      </trkpt>
      <trkpt lat="48.67559" lon="1.8174">
        <ele>174</ele>
        <time>2013-08-18T08:13:39Z</time>
      </trkpt>
      <trkpt lat="48.6756" lon="1.81751">
        <ele>173</ele>
        <time>2013-08-18T08:13:43Z</time>
      </trkpt>
      <trkpt lat="48.67561" lon="1.81756">
        <ele>173</ele>
        <time>2013-08-18T08:13:45Z</time>
      </trkpt>
      <trkpt lat="48.67562" lon="1.81761">
        <ele>173</ele>
        <time>2013-08-18T08:13:47Z</time>
      </trkpt>
      <trkpt lat="48.67562" lon="1.81772">
        <ele>172</ele>
        <time>2013-08-18T08:13:51Z</time>
      </trkpt>
      <trkpt lat="48.67563" lon="1.81777">
        <ele>172</ele>
        <time>2013-08-18T08:13:53Z</time>
      </trkpt>
      <trkpt lat="48.67565" lon="1.81794">
        <ele>171</ele>
        <time>2013-08-18T08:14:01Z</time>
      </trkpt>
      <trkpt lat="48.67566" lon="1.81798">
        <ele>170</ele>
        <time>2013-08-18T08:14:03Z</time>
      </trkpt>
      <trkpt lat="48.67567" lon="1.81802">
        <ele>170</ele>
        <time>2013-08-18T08:14:05Z</time>
      </trkpt>
      <trkpt lat="48.67567" lon="1.81813">
        <ele>170</ele>
        <time>2013-08-18T08:14:08Z</time>
      </trkpt>
      <trkpt lat="48.67567" lon="1.81823">
        <ele>170</ele>
        <time>2013-08-18T08:14:11Z</time>
      </trkpt>
      <trkpt lat="48.67568" lon="1.81827">
        <ele>169</ele>
        <time>2013-08-18T08:14:13Z</time>
      </trkpt>
      <trkpt lat="48.6757" lon="1.81831">
        <ele>169</ele>
        <time>2013-08-18T08:14:15Z</time>
      </trkpt>
      <trkpt lat="48.6757" lon="1.81835">
        <ele>169</ele>
        <time>2013-08-18T08:14:17Z</time>
      </trkpt>
      <trkpt lat="48.67571" lon="1.8184">
        <ele>169</ele>
        <time>2013-08-18T08:14:19Z</time>
      </trkpt>
      <trkpt lat="48.67573" lon="1.81844">
        <ele>169</ele>
        <time>2013-08-18T08:14:21Z</time>
      </trkpt>
      <trkpt lat="48.67574" lon="1.81849">
        <ele>169</ele>
        <time>2013-08-18T08:14:23Z</time>
      </trkpt>
      <trkpt lat="48.67575" lon="1.81854">
        <ele>169</ele>
        <time>2013-08-18T08:14:25Z</time>
      </trkpt>
      <trkpt lat="48.67576" lon="1.8186">
        <ele>169</ele>
        <time>2013-08-18T08:14:27Z</time>
      </trkpt>
      <trkpt lat="48.67576" lon="1.81867">
        <ele>169</ele>
        <time>2013-08-18T08:14:29Z</time>
      </trkpt>
      <trkpt lat="48.67576" lon="1.81874">
        <ele>169</ele>
        <time>2013-08-18T08:14:31Z</time>
      </trkpt>
      <trkpt lat="48.67576" lon="1.81879">
        <ele>169</ele>
        <time>2013-08-18T08:14:33Z</time>
      </trkpt>
      <trkpt lat="48.67577" lon="1.81885">
        <ele>169</ele>
        <time>2013-08-18T08:14:35Z</time>
      </trkpt>
      <trkpt lat="48.67578" lon="1.81889">
        <ele>169</ele>
        <time>2013-08-18T08:14:37Z</time>
      </trkpt>
      <trkpt lat="48.67578" lon="1.81894">
        <ele>169</ele>
        <time>2013-08-18T08:14:39Z</time>
      </trkpt>
      <trkpt lat="48.67579" lon="1.81899">
        <ele>169</ele>
        <time>2013-08-18T08:14:41Z</time>
      </trkpt>
      <trkpt lat="48.67579" lon="1.81904">
        <ele>169</ele>
        <time>2013-08-18T08:14:43Z</time>
      </trkpt>
      <trkpt lat="48.67581" lon="1.81909">
        <ele>169</ele>
        <time>2013-08-18T08:14:45Z</time>
      </trkpt>
      <trkpt lat="48.67581" lon="1.81915">
        <ele>169</ele>
        <time>2013-08-18T08:14:47Z</time>
      </trkpt>
      <trkpt lat="48.67581" lon="1.81922">
        <ele>169</ele>
        <time>2013-08-18T08:14:49Z</time>
      </trkpt>
      <trkpt lat="48.67581" lon="1.81927">
        <ele>169</ele>
        <time>2013-08-18T08:14:51Z</time>
      </trkpt>
      <trkpt lat="48.67582" lon="1.81932">
        <ele>169</ele>
        <time>2013-08-18T08:14:53Z</time>
      </trkpt>
      <trkpt lat="48.67582" lon="1.81937">
        <ele>169</ele>
        <time>2013-08-18T08:14:55Z</time>
      </trkpt>
      <trkpt lat="48.67583" lon="1.81943">
        <ele>169</ele>
        <time>2013-08-18T08:14:57Z</time>
      </trkpt>
      <trkpt lat="48.67586" lon="1.81948">
        <ele>169</ele>
        <time>2013-08-18T08:14:59Z</time>
      </trkpt>
      <trkpt lat="48.67588" lon="1.81953">
        <ele>170</ele>
        <time>2013-08-18T08:15:01Z</time>
      </trkpt>
      <trkpt lat="48.67589" lon="1.81958">
        <ele>172</ele>
        <time>2013-08-18T08:15:03Z</time>
      </trkpt>
      <trkpt lat="48.6759" lon="1.81963">
        <ele>173</ele>
        <time>2013-08-18T08:15:05Z</time>
      </trkpt>
      <trkpt lat="48.6759" lon="1.81968">
        <ele>173</ele>
        <time>2013-08-18T08:15:07Z</time>
      </trkpt>
      <trkpt lat="48.67591" lon="1.81972">
        <ele>173</ele>
        <time>2013-08-18T08:15:09Z</time>
      </trkpt>
      <trkpt lat="48.67591" lon="1.81977">
        <ele>173</ele>
        <time>2013-08-18T08:15:11Z</time>
      </trkpt>
      <trkpt lat="48.6759" lon="1.81983">
        <ele>173</ele>
        <time>2013-08-18T08:15:13Z</time>
      </trkpt>
      <trkpt lat="48.67591" lon="1.81988">
        <ele>173</ele>
        <time>2013-08-18T08:15:15Z</time>
      </trkpt>
      <trkpt lat="48.67593" lon="1.81993">
        <ele>173</ele>
        <time>2013-08-18T08:15:17Z</time>
      </trkpt>
      <trkpt lat="48.67596" lon="1.81999">
        <ele>174</ele>
        <time>2013-08-18T08:15:19Z</time>
      </trkpt>
      <trkpt lat="48.67597" lon="1.82004">
        <ele>176</ele>
        <time>2013-08-18T08:15:21Z</time>
      </trkpt>
      <trkpt lat="48.67597" lon="1.82009">
        <ele>177</ele>
        <time>2013-08-18T08:15:23Z</time>
      </trkpt>
      <trkpt lat="48.67599" lon="1.82015">
        <ele>177</ele>
        <time>2013-08-18T08:15:25Z</time>
      </trkpt>
      <trkpt lat="48.67601" lon="1.8202">
        <ele>179</ele>
        <time>2013-08-18T08:15:27Z</time>
      </trkpt>
      <trkpt lat="48.67599" lon="1.82026">
        <ele>180</ele>
        <time>2013-08-18T08:15:29Z</time>
      </trkpt>
      <trkpt lat="48.67599" lon="1.82031">
        <ele>180</ele>
        <time>2013-08-18T08:15:31Z</time>
      </trkpt>
      <trkpt lat="48.67599" lon="1.82036">
        <ele>180</ele>
        <time>2013-08-18T08:15:33Z</time>
      </trkpt>
      <trkpt lat="48.67598" lon="1.82041">
        <ele>180</ele>
        <time>2013-08-18T08:15:35Z</time>
      </trkpt>
      <trkpt lat="48.67598" lon="1.82046">
        <ele>180</ele>
        <time>2013-08-18T08:15:37Z</time>
      </trkpt>
      <trkpt lat="48.67597" lon="1.82051">
        <ele>180</ele>
        <time>2013-08-18T08:15:39Z</time>
      </trkpt>
      <trkpt lat="48.67598" lon="1.82056">
        <ele>180</ele>
        <time>2013-08-18T08:15:41Z</time>
      </trkpt>
      <trkpt lat="48.67598" lon="1.82061">
        <ele>179</ele>
        <time>2013-08-18T08:15:43Z</time>
      </trkpt>
      <trkpt lat="48.67597" lon="1.82066">
        <ele>179</ele>
        <time>2013-08-18T08:15:45Z</time>
      </trkpt>
      <trkpt lat="48.67597" lon="1.82072">
        <ele>178</ele>
        <time>2013-08-18T08:15:47Z</time>
      </trkpt>
      <trkpt lat="48.67598" lon="1.82077">
        <ele>177</ele>
        <time>2013-08-18T08:15:49Z</time>
      </trkpt>
      <trkpt lat="48.67598" lon="1.82082">
        <ele>177</ele>
        <time>2013-08-18T08:15:51Z</time>
      </trkpt>
      <trkpt lat="48.67598" lon="1.82087">
        <ele>176</ele>
        <time>2013-08-18T08:15:53Z</time>
      </trkpt>
      <trkpt lat="48.67598" lon="1.82092">
        <ele>176</ele>
        <time>2013-08-18T08:15:55Z</time>
      </trkpt>
      <trkpt lat="48.67598" lon="1.82097">
        <ele>175</ele>
        <time>2013-08-18T08:15:57Z</time>
      </trkpt>
      <trkpt lat="48.67598" lon="1.82102">
        <ele>174</ele>
        <time>2013-08-18T08:15:59Z</time>
      </trkpt>
      <trkpt lat="48.67598" lon="1.82107">
        <ele>174</ele>
        <time>2013-08-18T08:16:01Z</time>
      </trkpt>
      <trkpt lat="48.67599" lon="1.82112">
        <ele>174</ele>
        <time>2013-08-18T08:16:03Z</time>
      </trkpt>
      <trkpt lat="48.676" lon="1.82117">
        <ele>173</ele>
        <time>2013-08-18T08:16:05Z</time>
      </trkpt>
      <trkpt lat="48.676" lon="1.82123">
        <ele>173</ele>
        <time>2013-08-18T08:16:07Z</time>
      </trkpt>
      <trkpt lat="48.67601" lon="1.82128">
        <ele>173</ele>
        <time>2013-08-18T08:16:09Z</time>
      </trkpt>
      <trkpt lat="48.67602" lon="1.82132">
        <ele>173</ele>
        <time>2013-08-18T08:16:11Z</time>
      </trkpt>
      <trkpt lat="48.67603" lon="1.82138">
        <ele>173</ele>
        <time>2013-08-18T08:16:13Z</time>
      </trkpt>
      <trkpt lat="48.67604" lon="1.82143">
        <ele>173</ele>
        <time>2013-08-18T08:16:15Z</time>
      </trkpt>
      <trkpt lat="48.67604" lon="1.82148">
        <ele>173</ele>
        <time>2013-08-18T08:16:17Z</time>
      </trkpt>
      <trkpt lat="48.67605" lon="1.82153">
        <ele>173</ele>
        <time>2013-08-18T08:16:19Z</time>
      </trkpt>
      <trkpt lat="48.67607" lon="1.82158">
        <ele>173</ele>
        <time>2013-08-18T08:16:21Z</time>
      </trkpt>
      <trkpt lat="48.67608" lon="1.82163">
        <ele>173</ele>
        <time>2013-08-18T08:16:23Z</time>
      </trkpt>
      <trkpt lat="48.6761" lon="1.82168">
        <ele>173</ele>
        <time>2013-08-18T08:16:25Z</time>
      </trkpt>
      <trkpt lat="48.67611" lon="1.82173">
        <ele>173</ele>
        <time>2013-08-18T08:16:27Z</time>
      </trkpt>
      <trkpt lat="48.67611" lon="1.82177">
        <ele>173</ele>
        <time>2013-08-18T08:16:29Z</time>
      </trkpt>
      <trkpt lat="48.67611" lon="1.82182">
        <ele>173</ele>
        <time>2013-08-18T08:16:31Z</time>
      </trkpt>
      <trkpt lat="48.67611" lon="1.82187">
        <ele>173</ele>
        <time>2013-08-18T08:16:33Z</time>
      </trkpt>
      <trkpt lat="48.67612" lon="1.82192">
        <ele>173</ele>
        <time>2013-08-18T08:16:35Z</time>
      </trkpt>
      <trkpt lat="48.67615" lon="1.82196">
        <ele>175</ele>
        <time>2013-08-18T08:16:37Z</time>
      </trkpt>
      <trkpt lat="48.67616" lon="1.82201">
        <ele>177</ele>
        <time>2013-08-18T08:16:39Z</time>
      </trkpt>
      <trkpt lat="48.67617" lon="1.82205">
        <ele>179</ele>
        <time>2013-08-18T08:16:41Z</time>
      </trkpt>
      <trkpt lat="48.67619" lon="1.82209">
        <ele>181</ele>
        <time>2013-08-18T08:16:43Z</time>
      </trkpt>
      <trkpt lat="48.67621" lon="1.82214">
        <ele>182</ele>
        <time>2013-08-18T08:16:45Z</time>
      </trkpt>
      <trkpt lat="48.67622" lon="1.82221">
        <ele>184</ele>
        <time>2013-08-18T08:16:47Z</time>
      </trkpt>
      <trkpt lat="48.67622" lon="1.82227">
        <ele>185</ele>
        <time>2013-08-18T08:16:49Z</time>
      </trkpt>
      <trkpt lat="48.6762" lon="1.82232">
        <ele>185</ele>
        <time>2013-08-18T08:16:51Z</time>
      </trkpt>
      <trkpt lat="48.67619" lon="1.82238">
        <ele>185</ele>
        <time>2013-08-18T08:16:53Z</time>
      </trkpt>
      <trkpt lat="48.67621" lon="1.82243">
        <ele>185</ele>
        <time>2013-08-18T08:16:55Z</time>
      </trkpt>
      <trkpt lat="48.67623" lon="1.82247">
        <ele>185</ele>
        <time>2013-08-18T08:16:57Z</time>
      </trkpt>
      <trkpt lat="48.67624" lon="1.82252">
        <ele>185</ele>
        <time>2013-08-18T08:16:59Z</time>
      </trkpt>
      <trkpt lat="48.67624" lon="1.82257">
        <ele>185</ele>
        <time>2013-08-18T08:17:01Z</time>
      </trkpt>
      <trkpt lat="48.67624" lon="1.82263">
        <ele>183</ele>
        <time>2013-08-18T08:17:03Z</time>
      </trkpt>
      <trkpt lat="48.67624" lon="1.82268">
        <ele>183</ele>
        <time>2013-08-18T08:17:05Z</time>
      </trkpt>
      <trkpt lat="48.67625" lon="1.82272">
        <ele>182</ele>
        <time>2013-08-18T08:17:07Z</time>
      </trkpt>
      <trkpt lat="48.67626" lon="1.82277">
        <ele>182</ele>
        <time>2013-08-18T08:17:09Z</time>
      </trkpt>
      <trkpt lat="48.67627" lon="1.82283">
        <ele>182</ele>
        <time>2013-08-18T08:17:11Z</time>
      </trkpt>
      <trkpt lat="48.67628" lon="1.82288">
        <ele>182</ele>
        <time>2013-08-18T08:17:13Z</time>
      </trkpt>
      <trkpt lat="48.67629" lon="1.82292">
        <ele>182</ele>
        <time>2013-08-18T08:17:15Z</time>
      </trkpt>
      <trkpt lat="48.6763" lon="1.82297">
        <ele>182</ele>
        <time>2013-08-18T08:17:17Z</time>
      </trkpt>
      <trkpt lat="48.6763" lon="1.82302">
        <ele>182</ele>
        <time>2013-08-18T08:17:19Z</time>
      </trkpt>
      <trkpt lat="48.6763" lon="1.82307">
        <ele>181</ele>
        <time>2013-08-18T08:17:21Z</time>
      </trkpt>
      <trkpt lat="48.67629" lon="1.82311">
        <ele>179</ele>
        <time>2013-08-18T08:17:23Z</time>
      </trkpt>
      <trkpt lat="48.6763" lon="1.82316">
        <ele>177</ele>
        <time>2013-08-18T08:17:25Z</time>
      </trkpt>
      <trkpt lat="48.67629" lon="1.8232">
        <ele>176</ele>
        <time>2013-08-18T08:17:27Z</time>
      </trkpt>
      <trkpt lat="48.67629" lon="1.82325">
        <ele>175</ele>
        <time>2013-08-18T08:17:29Z</time>
      </trkpt>
      <trkpt lat="48.6763" lon="1.8233">
        <ele>174</ele>
        <time>2013-08-18T08:17:31Z</time>
      </trkpt>
      <trkpt lat="48.67629" lon="1.82335">
        <ele>173</ele>
        <time>2013-08-18T08:17:33Z</time>
      </trkpt>
      <trkpt lat="48.6763" lon="1.8234">
        <ele>172</ele>
        <time>2013-08-18T08:17:35Z</time>
      </trkpt>
      <trkpt lat="48.67631" lon="1.82344">
        <ele>172</ele>
        <time>2013-08-18T08:17:37Z</time>
      </trkpt>
      <trkpt lat="48.67632" lon="1.82349">
        <ele>172</ele>
        <time>2013-08-18T08:17:39Z</time>
      </trkpt>
      <trkpt lat="48.67632" lon="1.82353">
        <ele>171</ele>
        <time>2013-08-18T08:17:41Z</time>
      </trkpt>
      <trkpt lat="48.67632" lon="1.82357">
        <ele>170</ele>
        <time>2013-08-18T08:17:43Z</time>
      </trkpt>
      <trkpt lat="48.67634" lon="1.82362">
        <ele>169</ele>
        <time>2013-08-18T08:17:45Z</time>
      </trkpt>
      <trkpt lat="48.67635" lon="1.82366">
        <ele>169</ele>
        <time>2013-08-18T08:17:47Z</time>
      </trkpt>
      <trkpt lat="48.67637" lon="1.8237">
        <ele>169</ele>
        <time>2013-08-18T08:17:49Z</time>
      </trkpt>
      <trkpt lat="48.6764" lon="1.82376">
        <ele>169</ele>
        <time>2013-08-18T08:17:52Z</time>
      </trkpt>
      <trkpt lat="48.6764" lon="1.82381">
        <ele>170</ele>
        <time>2013-08-18T08:17:54Z</time>
      </trkpt>
      <trkpt lat="48.67641" lon="1.82387">
        <ele>172</ele>
        <time>2013-08-18T08:17:56Z</time>
      </trkpt>
      <trkpt lat="48.67642" lon="1.82393">
        <ele>174</ele>
        <time>2013-08-18T08:17:58Z</time>
      </trkpt>
      <trkpt lat="48.67642" lon="1.82398">
        <ele>176</ele>
        <time>2013-08-18T08:18:00Z</time>
      </trkpt>
      <trkpt lat="48.67641" lon="1.82404">
        <ele>177</ele>
        <time>2013-08-18T08:18:02Z</time>
      </trkpt>
      <trkpt lat="48.6764" lon="1.82409">
        <ele>177</ele>
        <time>2013-08-18T08:18:04Z</time>
      </trkpt>
      <trkpt lat="48.67638" lon="1.82415">
        <ele>177</ele>
        <time>2013-08-18T08:18:06Z</time>
      </trkpt>
      <trkpt lat="48.67635" lon="1.82421">
        <ele>177</ele>
        <time>2013-08-18T08:18:08Z</time>
      </trkpt>
      <trkpt lat="48.67635" lon="1.82426">
        <ele>177</ele>
        <time>2013-08-18T08:18:10Z</time>
      </trkpt>
      <trkpt lat="48.67637" lon="1.82432">
        <ele>176</ele>
        <time>2013-08-18T08:18:12Z</time>
      </trkpt>
      <trkpt lat="48.67639" lon="1.82437">
        <ele>175</ele>
        <time>2013-08-18T08:18:14Z</time>
      </trkpt>
      <trkpt lat="48.67639" lon="1.82444">
        <ele>175</ele>
        <time>2013-08-18T08:18:16Z</time>
      </trkpt>
      <trkpt lat="48.67639" lon="1.82449">
        <ele>174</ele>
        <time>2013-08-18T08:18:18Z</time>
      </trkpt>
      <trkpt lat="48.6764" lon="1.82454">
        <ele>174</ele>
        <time>2013-08-18T08:18:20Z</time>
      </trkpt>
      <trkpt lat="48.67639" lon="1.82462">
        <ele>173</ele>
        <time>2013-08-18T08:18:23Z</time>
      </trkpt>
      <trkpt lat="48.6764" lon="1.82466">
        <ele>170</ele>
        <time>2013-08-18T08:18:26Z</time>
      </trkpt>
      <trkpt lat="48.67639" lon="1.82472">
        <ele>169</ele>
        <time>2013-08-18T08:18:28Z</time>
      </trkpt>
      <trkpt lat="48.67641" lon="1.82476">
        <ele>168</ele>
        <time>2013-08-18T08:18:30Z</time>
      </trkpt>
      <trkpt lat="48.6764" lon="1.82482">
        <ele>168</ele>
        <time>2013-08-18T08:18:32Z</time>
      </trkpt>
      <trkpt lat="48.6764" lon="1.82487">
        <ele>168</ele>
        <time>2013-08-18T08:18:34Z</time>
      </trkpt>
      <trkpt lat="48.67641" lon="1.82492">
        <ele>168</ele>
        <time>2013-08-18T08:18:36Z</time>
      </trkpt>
      <trkpt lat="48.67642" lon="1.82499">
        <ele>168</ele>
        <time>2013-08-18T08:18:38Z</time>
      </trkpt>
      <trkpt lat="48.67644" lon="1.82504">
        <ele>168</ele>
        <time>2013-08-18T08:18:40Z</time>
      </trkpt>
      <trkpt lat="48.67646" lon="1.8251">
        <ele>168</ele>
        <time>2013-08-18T08:18:42Z</time>
      </trkpt>
      <trkpt lat="48.67646" lon="1.82515">
        <ele>168</ele>
        <time>2013-08-18T08:18:44Z</time>
      </trkpt>
      <trkpt lat="48.67645" lon="1.82519">
        <ele>168</ele>
        <time>2013-08-18T08:18:46Z</time>
      </trkpt>
      <trkpt lat="48.67644" lon="1.82525">
        <ele>168</ele>
        <time>2013-08-18T08:18:48Z</time>
      </trkpt>
      <trkpt lat="48.67644" lon="1.82531">
        <ele>168</ele>
        <time>2013-08-18T08:18:50Z</time>
      </trkpt>
      <trkpt lat="48.67644" lon="1.82536">
        <ele>168</ele>
        <time>2013-08-18T08:18:52Z</time>
      </trkpt>
      <trkpt lat="48.67644" lon="1.82541">
        <ele>168</ele>
        <time>2013-08-18T08:18:54Z</time>
      </trkpt>
      <trkpt lat="48.67644" lon="1.82545">
        <ele>168</ele>
        <time>2013-08-18T08:18:56Z</time>
      </trkpt>
      <trkpt lat="48.67644" lon="1.8255">
        <ele>169</ele>
        <time>2013-08-18T08:18:58Z</time>
      </trkpt>
      <trkpt lat="48.67644" lon="1.82556">
        <ele>170</ele>
        <time>2013-08-18T08:19:00Z</time>
      </trkpt>
      <trkpt lat="48.67644" lon="1.82563">
        <ele>170</ele>
        <time>2013-08-18T08:19:02Z</time>
      </trkpt>
      <trkpt lat="48.67644" lon="1.82568">
        <ele>171</ele>
        <time>2013-08-18T08:19:04Z</time>
      </trkpt>
      <trkpt lat="48.67645" lon="1.82573">
        <ele>171</ele>
        <time>2013-08-18T08:19:06Z</time>
      </trkpt>
      <trkpt lat="48.67646" lon="1.82578">
        <ele>171</ele>
        <time>2013-08-18T08:19:08Z</time>
      </trkpt>
      <trkpt lat="48.67647" lon="1.82583">
        <ele>172</ele>
        <time>2013-08-18T08:19:10Z</time>
      </trkpt>
      <trkpt lat="48.67648" lon="1.82589">
        <ele>172</ele>
        <time>2013-08-18T08:19:12Z</time>
      </trkpt>
      <trkpt lat="48.6765" lon="1.82594">
        <ele>172</ele>
        <time>2013-08-18T08:19:14Z</time>
      </trkpt>
      <trkpt lat="48.67653" lon="1.82598">
        <ele>172</ele>
        <time>2013-08-18T08:19:16Z</time>
      </trkpt>
      <trkpt lat="48.67656" lon="1.82602">
        <ele>172</ele>
        <time>2013-08-18T08:19:18Z</time>
      </trkpt>
      <trkpt lat="48.67659" lon="1.82607">
        <ele>174</ele>
        <time>2013-08-18T08:19:20Z</time>
      </trkpt>
      <trkpt lat="48.67661" lon="1.82612">
        <ele>175</ele>
        <time>2013-08-18T08:19:22Z</time>
      </trkpt>
      <trkpt lat="48.67661" lon="1.82619">
        <ele>177</ele>
        <time>2013-08-18T08:19:24Z</time>
      </trkpt>
      <trkpt lat="48.6766" lon="1.82624">
        <ele>177</ele>
        <time>2013-08-18T08:19:26Z</time>
      </trkpt>
      <trkpt lat="48.6766" lon="1.82627">
        <ele>177</ele>
        <time>2013-08-18T08:19:28Z</time>
      </trkpt>
      <trkpt lat="48.6766" lon="1.82633">
        <ele>177</ele>
        <time>2013-08-18T08:19:30Z</time>
      </trkpt>
      <trkpt lat="48.67661" lon="1.82637">
        <ele>177</ele>
        <time>2013-08-18T08:19:32Z</time>
      </trkpt>
      <trkpt lat="48.67662" lon="1.82641">
        <ele>177</ele>
        <time>2013-08-18T08:19:34Z</time>
      </trkpt>
      <trkpt lat="48.67661" lon="1.82643">
        <ele>177</ele>
        <time>2013-08-18T08:19:36Z</time>
      </trkpt>
      <trkpt lat="48.67663" lon="1.82643">
        <ele>175</ele>
        <time>2013-08-18T08:19:39Z</time>
      </trkpt>
      <trkpt lat="48.67664" lon="1.82643">
        <ele>175</ele>
        <time>2013-08-18T08:19:41Z</time>
      </trkpt>
      <trkpt lat="48.67665" lon="1.82643">
        <ele>175</ele>
        <time>2013-08-18T08:19:43Z</time>
      </trkpt>
      <trkpt lat="48.67667" lon="1.82642">
        <ele>175</ele>
        <time>2013-08-18T08:19:45Z</time>
      </trkpt>
      <trkpt lat="48.67666" lon="1.82641">
        <ele>176</ele>
        <time>2013-08-18T08:19:50Z</time>
      </trkpt>
      <trkpt lat="48.67667" lon="1.82642">
        <ele>176</ele>
        <time>2013-08-18T08:19:53Z</time>
      </trkpt>
      <trkpt lat="48.67671" lon="1.82644">
        <ele>178</ele>
        <time>2013-08-18T08:20:03Z</time>
      </trkpt>
      <trkpt lat="48.6767" lon="1.82646">
        <ele>179</ele>
        <time>2013-08-18T08:20:05Z</time>
      </trkpt>
      <trkpt lat="48.67669" lon="1.82649">
        <ele>179</ele>
        <time>2013-08-18T08:20:07Z</time>
      </trkpt>
      <trkpt lat="48.67667" lon="1.82653">
        <ele>179</ele>
        <time>2013-08-18T08:20:09Z</time>
      </trkpt>
      <trkpt lat="48.67666" lon="1.82655">
        <ele>179</ele>
        <time>2013-08-18T08:20:11Z</time>
      </trkpt>
      <trkpt lat="48.67665" lon="1.82655">
        <ele>179</ele>
        <time>2013-08-18T08:20:14Z</time>
      </trkpt>
      <trkpt lat="48.67664" lon="1.82656">
        <ele>179</ele>
        <time>2013-08-18T08:20:16Z</time>
      </trkpt>
      <trkpt lat="48.67665" lon="1.82657">
        <ele>177</ele>
        <time>2013-08-18T08:20:23Z</time>
      </trkpt>
      <trkpt lat="48.67663" lon="1.82656">
        <ele>177</ele>
        <time>2013-08-18T08:20:26Z</time>
      </trkpt>
      <trkpt lat="48.67662" lon="1.82656">
        <ele>177</ele>
        <time>2013-08-18T08:20:28Z</time>
      </trkpt>
      <trkpt lat="48.67662" lon="1.82654">
        <ele>176</ele>
        <time>2013-08-18T08:20:31Z</time>
      </trkpt>
      <trkpt lat="48.67662" lon="1.82656">
        <ele>175</ele>
        <time>2013-08-18T08:20:33Z</time>
      </trkpt>
      <trkpt lat="48.67664" lon="1.82658">
        <ele>174</ele>
        <time>2013-08-18T08:20:36Z</time>
      </trkpt>
      <trkpt lat="48.67665" lon="1.82659">
        <ele>174</ele>
        <time>2013-08-18T08:20:38Z</time>
      </trkpt>
      <trkpt lat="48.67664" lon="1.8266">
        <ele>174</ele>
        <time>2013-08-18T08:20:47Z</time>
      </trkpt>
      <trkpt lat="48.67663" lon="1.8266">
        <ele>174</ele>
        <time>2013-08-18T08:20:49Z</time>
      </trkpt>
      <trkpt lat="48.67661" lon="1.82662">
        <ele>174</ele>
        <time>2013-08-18T08:20:51Z</time>
      </trkpt>
      <trkpt lat="48.67659" lon="1.82664">
        <ele>174</ele>
        <time>2013-08-18T08:20:54Z</time>
      </trkpt>
      <trkpt lat="48.67658" lon="1.82665">
        <ele>174</ele>
        <time>2013-08-18T08:20:57Z</time>
      </trkpt>
      <trkpt lat="48.67657" lon="1.82664">
        <ele>174</ele>
        <time>2013-08-18T08:21:00Z</time>
      </trkpt>
      <trkpt lat="48.67656" lon="1.82666">
        <ele>174</ele>
        <time>2013-08-18T08:21:07Z</time>
      </trkpt>
      <trkpt lat="48.67657" lon="1.82668">
        <ele>174</ele>
        <time>2013-08-18T08:21:18Z</time>
      </trkpt>
      <trkpt lat="48.67659" lon="1.82667">
        <ele>174</ele>
        <time>2013-08-18T08:21:20Z</time>
      </trkpt>
      <trkpt lat="48.67661" lon="1.82667">
        <ele>174</ele>
        <time>2013-08-18T08:21:23Z</time>
      </trkpt>
      <trkpt lat="48.67662" lon="1.82668">
        <ele>174</ele>
        <time>2013-08-18T08:21:25Z</time>
      </trkpt>
      <trkpt lat="48.67664" lon="1.82668">
        <ele>176</ele>
        <time>2013-08-18T08:21:27Z</time>
      </trkpt>
      <trkpt lat="48.67665" lon="1.82666">
        <ele>178</ele>
        <time>2013-08-18T08:21:30Z</time>
      </trkpt>
      <trkpt lat="48.67664" lon="1.82665">
        <ele>178</ele>
        <time>2013-08-18T08:21:32Z</time>
      </trkpt>
      <trkpt lat="48.67663" lon="1.82663">
        <ele>178</ele>
        <time>2013-08-18T08:21:34Z</time>
      </trkpt>
      <trkpt lat="48.67662" lon="1.82661">
        <ele>178</ele>
        <time>2013-08-18T08:21:37Z</time>
      </trkpt>
      <trkpt lat="48.67661" lon="1.82659">
        <ele>178</ele>
        <time>2013-08-18T08:21:39Z</time>
      </trkpt>
      <trkpt lat="48.67661" lon="1.82657">
        <ele>178</ele>
        <time>2013-08-18T08:21:44Z</time>
      </trkpt>
      <trkpt lat="48.67661" lon="1.82655">
        <ele>177</ele>
        <time>2013-08-18T08:21:59Z</time>
      </trkpt>
      <trkpt lat="48.67661" lon="1.82653">
        <ele>177</ele>
        <time>2013-08-18T08:22:02Z</time>
      </trkpt>
      <trkpt lat="48.6766" lon="1.82656">
        <ele>177</ele>
        <time>2013-08-18T08:22:10Z</time>
      </trkpt>
      <trkpt lat="48.6766" lon="1.82659">
        <ele>177</ele>
        <time>2013-08-18T08:22:12Z</time>
      </trkpt>
      <trkpt lat="48.67661" lon="1.82663">
        <ele>177</ele>
        <time>2013-08-18T08:22:14Z</time>
      </trkpt>
      <trkpt lat="48.67661" lon="1.82667">
        <ele>177</ele>
        <time>2013-08-18T08:22:16Z</time>
      </trkpt>
      <trkpt lat="48.67661" lon="1.82668">
        <ele>177</ele>
        <time>2013-08-18T08:22:19Z</time>
      </trkpt>
      <trkpt lat="48.67662" lon="1.8267">
        <ele>177</ele>
        <time>2013-08-18T08:22:21Z</time>
      </trkpt>
      <trkpt lat="48.67662" lon="1.82674">
        <ele>177</ele>
        <time>2013-08-18T08:22:24Z</time>
      </trkpt>
      <trkpt lat="48.67664" lon="1.82673">
        <ele>176</ele>
        <time>2013-08-18T08:22:34Z</time>
      </trkpt>
      <trkpt lat="48.67665" lon="1.82671">
        <ele>176</ele>
        <time>2013-08-18T08:22:39Z</time>
      </trkpt>
      <trkpt lat="48.67664" lon="1.82671">
        <ele>176</ele>
        <time>2013-08-18T08:23:04Z</time>
      </trkpt>
      <trkpt lat="48.67664" lon="1.82674">
        <ele>176</ele>
        <time>2013-08-18T08:23:06Z</time>
      </trkpt>
      <trkpt lat="48.67664" lon="1.82678">
        <ele>176</ele>
        <time>2013-08-18T08:23:08Z</time>
      </trkpt>
      <trkpt lat="48.67665" lon="1.82681">
        <ele>176</ele>
        <time>2013-08-18T08:23:10Z</time>
      </trkpt>
      <trkpt lat="48.67665" lon="1.82684">
        <ele>176</ele>
        <time>2013-08-18T08:23:12Z</time>
      </trkpt>
      <trkpt lat="48.67666" lon="1.82688">
        <ele>176</ele>
        <time>2013-08-18T08:23:14Z</time>
      </trkpt>
      <trkpt lat="48.67667" lon="1.82692">
        <ele>176</ele>
        <time>2013-08-18T08:23:16Z</time>
      </trkpt>
      <trkpt lat="48.67667" lon="1.82694">
        <ele>176</ele>
        <time>2013-08-18T08:23:18Z</time>
      </trkpt>
      <trkpt lat="48.67669" lon="1.82696">
        <ele>176</ele>
        <time>2013-08-18T08:23:20Z</time>
      </trkpt>
      <trkpt lat="48.6767" lon="1.82699">
        <ele>176</ele>
        <time>2013-08-18T08:23:22Z</time>
      </trkpt>
      <trkpt lat="48.67671" lon="1.82702">
        <ele>176</ele>
        <time>2013-08-18T08:23:24Z</time>
      </trkpt>
      <trkpt lat="48.6767" lon="1.82706">
        <ele>176</ele>
        <time>2013-08-18T08:23:26Z</time>
      </trkpt>
      <trkpt lat="48.67671" lon="1.82712">
        <ele>176</ele>
        <time>2013-08-18T08:23:28Z</time>
      </trkpt>
      <trkpt lat="48.67672" lon="1.82717">
        <ele>176</ele>
        <time>2013-08-18T08:23:30Z</time>
      </trkpt>
      <trkpt lat="48.67673" lon="1.82721">
        <ele>176</ele>
        <time>2013-08-18T08:23:32Z</time>
      </trkpt>
      <trkpt lat="48.67673" lon="1.82726">
        <ele>176</ele>
        <time>2013-08-18T08:23:34Z</time>
      </trkpt>
      <trkpt lat="48.67673" lon="1.82731">
        <ele>176</ele>
        <time>2013-08-18T08:23:36Z</time>
      </trkpt>
      <trkpt lat="48.67673" lon="1.82737">
        <ele>175</ele>
        <time>2013-08-18T08:23:38Z</time>
      </trkpt>
      <trkpt lat="48.67674" lon="1.82742">
        <ele>174</ele>
        <time>2013-08-18T08:23:40Z</time>
      </trkpt>
      <trkpt lat="48.67673" lon="1.82746">
        <ele>174</ele>
        <time>2013-08-18T08:23:42Z</time>
      </trkpt>
      <trkpt lat="48.67674" lon="1.82753">
        <ele>173</ele>
        <time>2013-08-18T08:23:44Z</time>
      </trkpt>
      <trkpt lat="48.67674" lon="1.82757">
        <ele>172</ele>
        <time>2013-08-18T08:23:46Z</time>
      </trkpt>
      <trkpt lat="48.67674" lon="1.82762">
        <ele>172</ele>
        <time>2013-08-18T08:23:48Z</time>
      </trkpt>
      <trkpt lat="48.67675" lon="1.82766">
        <ele>172</ele>
        <time>2013-08-18T08:23:50Z</time>
      </trkpt>
      <trkpt lat="48.67675" lon="1.82771">
        <ele>172</ele>
        <time>2013-08-18T08:23:52Z</time>
      </trkpt>
      <trkpt lat="48.67675" lon="1.82776">
        <ele>172</ele>
        <time>2013-08-18T08:23:54Z</time>
      </trkpt>
      <trkpt lat="48.67675" lon="1.8278">
        <ele>171</ele>
        <time>2013-08-18T08:23:56Z</time>
      </trkpt>
      <trkpt lat="48.67675" lon="1.82785">
        <ele>171</ele>
        <time>2013-08-18T08:23:58Z</time>
      </trkpt>
      <trkpt lat="48.67676" lon="1.8279">
        <ele>171</ele>
        <time>2013-08-18T08:24:00Z</time>
      </trkpt>
      <trkpt lat="48.67677" lon="1.82795">
        <ele>171</ele>
        <time>2013-08-18T08:24:02Z</time>
      </trkpt>
      <trkpt lat="48.67677" lon="1.828">
        <ele>171</ele>
        <time>2013-08-18T08:24:04Z</time>
      </trkpt>
      <trkpt lat="48.67677" lon="1.82805">
        <ele>171</ele>
        <time>2013-08-18T08:24:06Z</time>
      </trkpt>
      <trkpt lat="48.67677" lon="1.8281">
        <ele>171</ele>
        <time>2013-08-18T08:24:08Z</time>
      </trkpt>
      <trkpt lat="48.67678" lon="1.82814">
        <ele>171</ele>
        <time>2013-08-18T08:24:10Z</time>
      </trkpt>
      <trkpt lat="48.67679" lon="1.82819">
        <ele>171</ele>
        <time>2013-08-18T08:24:12Z</time>
      </trkpt>
      <trkpt lat="48.67679" lon="1.82824">
        <ele>171</ele>
        <time>2013-08-18T08:24:14Z</time>
      </trkpt>
      <trkpt lat="48.67679" lon="1.82828">
        <ele>171</ele>
        <time>2013-08-18T08:24:16Z</time>
      </trkpt>
      <trkpt lat="48.6768" lon="1.82832">
        <ele>171</ele>
        <time>2013-08-18T08:24:18Z</time>
      </trkpt>
      <trkpt lat="48.67681" lon="1.82836">
        <ele>171</ele>
        <time>2013-08-18T08:24:20Z</time>
      </trkpt>
      <trkpt lat="48.67681" lon="1.82841">
        <ele>171</ele>
        <time>2013-08-18T08:24:22Z</time>
      </trkpt>
      <trkpt lat="48.67682" lon="1.82845">
        <ele>170</ele>
        <time>2013-08-18T08:24:24Z</time>
      </trkpt>
      <trkpt lat="48.67682" lon="1.82849">
        <ele>170</ele>
        <time>2013-08-18T08:24:26Z</time>
      </trkpt>
      <trkpt lat="48.67683" lon="1.82855">
        <ele>169</ele>
        <time>2013-08-18T08:24:28Z</time>
      </trkpt>
      <trkpt lat="48.67683" lon="1.82861">
        <ele>169</ele>
        <time>2013-08-18T08:24:30Z</time>
      </trkpt>
      <trkpt lat="48.67684" lon="1.82867">
        <ele>169</ele>
        <time>2013-08-18T08:24:32Z</time>
      </trkpt>
      <trkpt lat="48.67685" lon="1.82873">
        <ele>169</ele>
        <time>2013-08-18T08:24:34Z</time>
      </trkpt>
      <trkpt lat="48.67686" lon="1.82878">
        <ele>169</ele>
        <time>2013-08-18T08:24:36Z</time>
      </trkpt>
      <trkpt lat="48.67686" lon="1.82883">
        <ele>169</ele>
        <time>2013-08-18T08:24:38Z</time>
      </trkpt>
      <trkpt lat="48.67686" lon="1.82889">
        <ele>169</ele>
        <time>2013-08-18T08:24:40Z</time>
      </trkpt>
      <trkpt lat="48.67687" lon="1.82894">
        <ele>169</ele>
        <time>2013-08-18T08:24:42Z</time>
      </trkpt>
      <trkpt lat="48.67687" lon="1.82898">
        <ele>169</ele>
        <time>2013-08-18T08:24:44Z</time>
      </trkpt>
      <trkpt lat="48.67686" lon="1.82903">
        <ele>169</ele>
        <time>2013-08-18T08:24:46Z</time>
      </trkpt>
      <trkpt lat="48.67686" lon="1.82907">
        <ele>169</ele>
        <time>2013-08-18T08:24:48Z</time>
      </trkpt>
      <trkpt lat="48.67687" lon="1.82912">
        <ele>169</ele>
        <time>2013-08-18T08:24:50Z</time>
      </trkpt>
      <trkpt lat="48.67687" lon="1.82917">
        <ele>169</ele>
        <time>2013-08-18T08:24:52Z</time>
      </trkpt>
      <trkpt lat="48.67688" lon="1.82922">
        <ele>169</ele>
        <time>2013-08-18T08:24:54Z</time>
      </trkpt>
      <trkpt lat="48.67689" lon="1.82926">
        <ele>169</ele>
        <time>2013-08-18T08:24:56Z</time>
      </trkpt>
      <trkpt lat="48.6769" lon="1.82931">
        <ele>169</ele>
        <time>2013-08-18T08:24:58Z</time>
      </trkpt>
      <trkpt lat="48.6769" lon="1.82937">
        <ele>169</ele>
        <time>2013-08-18T08:25:00Z</time>
      </trkpt>
      <trkpt lat="48.6769" lon="1.82942">
        <ele>169</ele>
        <time>2013-08-18T08:25:02Z</time>
      </trkpt>
      <trkpt lat="48.67692" lon="1.82948">
        <ele>169</ele>
        <time>2013-08-18T08:25:04Z</time>
      </trkpt>
      <trkpt lat="48.67694" lon="1.82952">
        <ele>169</ele>
        <time>2013-08-18T08:25:06Z</time>
      </trkpt>
      <trkpt lat="48.67694" lon="1.82958">
        <ele>169</ele>
        <time>2013-08-18T08:25:08Z</time>
      </trkpt>
      <trkpt lat="48.67696" lon="1.82963">
        <ele>169</ele>
        <time>2013-08-18T08:25:10Z</time>
      </trkpt>
      <trkpt lat="48.67696" lon="1.82968">
        <ele>169</ele>
        <time>2013-08-18T08:25:12Z</time>
      </trkpt>
      <trkpt lat="48.67697" lon="1.82973">
        <ele>169</ele>
        <time>2013-08-18T08:25:14Z</time>
      </trkpt>
      <trkpt lat="48.67697" lon="1.82979">
        <ele>169</ele>
        <time>2013-08-18T08:25:16Z</time>
      </trkpt>
      <trkpt lat="48.67697" lon="1.82983">
        <ele>169</ele>
        <time>2013-08-18T08:25:18Z</time>
      </trkpt>
      <trkpt lat="48.67698" lon="1.82987">
        <ele>169</ele>
        <time>2013-08-18T08:25:20Z</time>
      </trkpt>
      <trkpt lat="48.67698" lon="1.82993">
        <ele>169</ele>
        <time>2013-08-18T08:25:22Z</time>
      </trkpt>
      <trkpt lat="48.67698" lon="1.82998">
        <ele>169</ele>
        <time>2013-08-18T08:25:24Z</time>
      </trkpt>
      <trkpt lat="48.67699" lon="1.83003">
        <ele>169</ele>
        <time>2013-08-18T08:25:26Z</time>
      </trkpt>
      <trkpt lat="48.67699" lon="1.83008">
        <ele>169</ele>
        <time>2013-08-18T08:25:28Z</time>
      </trkpt>
      <trkpt lat="48.67701" lon="1.83015">
        <ele>169</ele>
        <time>2013-08-18T08:25:31Z</time>
      </trkpt>
      <trkpt lat="48.67702" lon="1.83021">
        <ele>169</ele>
        <time>2013-08-18T08:25:33Z</time>
      </trkpt>
      <trkpt lat="48.67702" lon="1.83026">
        <ele>169</ele>
        <time>2013-08-18T08:25:35Z</time>
      </trkpt>
      <trkpt lat="48.67702" lon="1.83031">
        <ele>169</ele>
        <time>2013-08-18T08:25:37Z</time>
      </trkpt>
      <trkpt lat="48.67702" lon="1.83036">
        <ele>169</ele>
        <time>2013-08-18T08:25:39Z</time>
      </trkpt>
      <trkpt lat="48.67702" lon="1.8304">
        <ele>169</ele>
        <time>2013-08-18T08:25:41Z</time>
      </trkpt>
      <trkpt lat="48.67703" lon="1.83045">
        <ele>169</ele>
        <time>2013-08-18T08:25:43Z</time>
      </trkpt>
      <trkpt lat="48.67703" lon="1.8305">
        <ele>169</ele>
        <time>2013-08-18T08:25:45Z</time>
      </trkpt>
      <trkpt lat="48.67704" lon="1.83055">
        <ele>169</ele>
        <time>2013-08-18T08:25:47Z</time>
      </trkpt>
      <trkpt lat="48.67705" lon="1.8306">
        <ele>169</ele>
        <time>2013-08-18T08:25:49Z</time>
      </trkpt>
      <trkpt lat="48.67706" lon="1.83065">
        <ele>169</ele>
        <time>2013-08-18T08:25:51Z</time>
      </trkpt>
      <trkpt lat="48.67707" lon="1.8307">
        <ele>169</ele>
        <time>2013-08-18T08:25:53Z</time>
      </trkpt>
      <trkpt lat="48.67707" lon="1.83075">
        <ele>169</ele>
        <time>2013-08-18T08:25:55Z</time>
      </trkpt>
      <trkpt lat="48.67707" lon="1.8308">
        <ele>169</ele>
        <time>2013-08-18T08:25:57Z</time>
      </trkpt>
      <trkpt lat="48.67708" lon="1.83086">
        <ele>169</ele>
        <time>2013-08-18T08:25:59Z</time>
      </trkpt>
      <trkpt lat="48.67709" lon="1.83091">
        <ele>169</ele>
        <time>2013-08-18T08:26:01Z</time>
      </trkpt>
      <trkpt lat="48.67709" lon="1.83096">
        <ele>169</ele>
        <time>2013-08-18T08:26:03Z</time>
      </trkpt>
      <trkpt lat="48.6771" lon="1.831">
        <ele>169</ele>
        <time>2013-08-18T08:26:05Z</time>
      </trkpt>
      <trkpt lat="48.6771" lon="1.83105">
        <ele>169</ele>
        <time>2013-08-18T08:26:07Z</time>
      </trkpt>
      <trkpt lat="48.67711" lon="1.8311">
        <ele>169</ele>
        <time>2013-08-18T08:26:09Z</time>
      </trkpt>
      <trkpt lat="48.67712" lon="1.83115">
        <ele>169</ele>
        <time>2013-08-18T08:26:11Z</time>
      </trkpt>
      <trkpt lat="48.67713" lon="1.8312">
        <ele>169</ele>
        <time>2013-08-18T08:26:13Z</time>
      </trkpt>
      <trkpt lat="48.67714" lon="1.83124">
        <ele>169</ele>
        <time>2013-08-18T08:26:15Z</time>
      </trkpt>
      <trkpt lat="48.67714" lon="1.83129">
        <ele>169</ele>
        <time>2013-08-18T08:26:17Z</time>
      </trkpt>
      <trkpt lat="48.67714" lon="1.83133">
        <ele>169</ele>
        <time>2013-08-18T08:26:19Z</time>
      </trkpt>
      <trkpt lat="48.67714" lon="1.83139">
        <ele>169</ele>
        <time>2013-08-18T08:26:21Z</time>
      </trkpt>
      <trkpt lat="48.67714" lon="1.83143">
        <ele>169</ele>
        <time>2013-08-18T08:26:23Z</time>
      </trkpt>
      <trkpt lat="48.67714" lon="1.83147">
        <ele>169</ele>
        <time>2013-08-18T08:26:25Z</time>
      </trkpt>
      <trkpt lat="48.67715" lon="1.83152">
        <ele>169</ele>
        <time>2013-08-18T08:26:27Z</time>
      </trkpt>
      <trkpt lat="48.67716" lon="1.83157">
        <ele>169</ele>
        <time>2013-08-18T08:26:29Z</time>
      </trkpt>
      <trkpt lat="48.67717" lon="1.83161">
        <ele>169</ele>
        <time>2013-08-18T08:26:31Z</time>
      </trkpt>
      <trkpt lat="48.67717" lon="1.83165">
        <ele>169</ele>
        <time>2013-08-18T08:26:33Z</time>
      </trkpt>
      <trkpt lat="48.67718" lon="1.8317">
        <ele>169</ele>
        <time>2013-08-18T08:26:35Z</time>
      </trkpt>
      <trkpt lat="48.67719" lon="1.83175">
        <ele>169</ele>
        <time>2013-08-18T08:26:37Z</time>
      </trkpt>
      <trkpt lat="48.67719" lon="1.83179">
        <ele>169</ele>
        <time>2013-08-18T08:26:39Z</time>
      </trkpt>
      <trkpt lat="48.6772" lon="1.83183">
        <ele>169</ele>
        <time>2013-08-18T08:26:41Z</time>
      </trkpt>
      <trkpt lat="48.6772" lon="1.83187">
        <ele>169</ele>
        <time>2013-08-18T08:26:43Z</time>
      </trkpt>
      <trkpt lat="48.67721" lon="1.83191">
        <ele>169</ele>
        <time>2013-08-18T08:26:45Z</time>
      </trkpt>
      <trkpt lat="48.67721" lon="1.83198">
        <ele>169</ele>
        <time>2013-08-18T08:26:47Z</time>
      </trkpt>
      <trkpt lat="48.67721" lon="1.83204">
        <ele>169</ele>
        <time>2013-08-18T08:26:49Z</time>
      </trkpt>
      <trkpt lat="48.67721" lon="1.8321">
        <ele>169</ele>
        <time>2013-08-18T08:26:51Z</time>
      </trkpt>
      <trkpt lat="48.67721" lon="1.83215">
        <ele>169</ele>
        <time>2013-08-18T08:26:53Z</time>
      </trkpt>
      <trkpt lat="48.67721" lon="1.8322">
        <ele>169</ele>
        <time>2013-08-18T08:26:55Z</time>
      </trkpt>
      <trkpt lat="48.67722" lon="1.83225">
        <ele>169</ele>
        <time>2013-08-18T08:26:57Z</time>
      </trkpt>
      <trkpt lat="48.67722" lon="1.8323">
        <ele>169</ele>
        <time>2013-08-18T08:26:59Z</time>
      </trkpt>
      <trkpt lat="48.67723" lon="1.83235">
        <ele>169</ele>
        <time>2013-08-18T08:27:01Z</time>
      </trkpt>
      <trkpt lat="48.67723" lon="1.8324">
        <ele>169</ele>
        <time>2013-08-18T08:27:03Z</time>
      </trkpt>
      <trkpt lat="48.67724" lon="1.83244">
        <ele>169</ele>
        <time>2013-08-18T08:27:05Z</time>
      </trkpt>
      <trkpt lat="48.67725" lon="1.83249">
        <ele>169</ele>
        <time>2013-08-18T08:27:07Z</time>
      </trkpt>
      <trkpt lat="48.67726" lon="1.83254">
        <ele>169</ele>
        <time>2013-08-18T08:27:09Z</time>
      </trkpt>
      <trkpt lat="48.67726" lon="1.83258">
        <ele>169</ele>
        <time>2013-08-18T08:27:11Z</time>
      </trkpt>
      <trkpt lat="48.67727" lon="1.83263">
        <ele>169</ele>
        <time>2013-08-18T08:27:13Z</time>
      </trkpt>
      <trkpt lat="48.67728" lon="1.83267">
        <ele>169</ele>
        <time>2013-08-18T08:27:15Z</time>
      </trkpt>
      <trkpt lat="48.67728" lon="1.83272">
        <ele>169</ele>
        <time>2013-08-18T08:27:17Z</time>
      </trkpt>
      <trkpt lat="48.67728" lon="1.83277">
        <ele>169</ele>
        <time>2013-08-18T08:27:19Z</time>
      </trkpt>
      <trkpt lat="48.67728" lon="1.83281">
        <ele>169</ele>
        <time>2013-08-18T08:27:21Z</time>
      </trkpt>
      <trkpt lat="48.67729" lon="1.83286">
        <ele>169</ele>
        <time>2013-08-18T08:27:23Z</time>
      </trkpt>
      <trkpt lat="48.6773" lon="1.83291">
        <ele>170</ele>
        <time>2013-08-18T08:27:25Z</time>
      </trkpt>
      <trkpt lat="48.6773" lon="1.83296">
        <ele>170</ele>
        <time>2013-08-18T08:27:27Z</time>
      </trkpt>
      <trkpt lat="48.67731" lon="1.83301">
        <ele>172</ele>
        <time>2013-08-18T08:27:29Z</time>
      </trkpt>
      <trkpt lat="48.67733" lon="1.83305">
        <ele>173</ele>
        <time>2013-08-18T08:27:31Z</time>
      </trkpt>
      <trkpt lat="48.67735" lon="1.83309">
        <ele>174</ele>
        <time>2013-08-18T08:27:33Z</time>
      </trkpt>
      <trkpt lat="48.67735" lon="1.83312">
        <ele>175</ele>
        <time>2013-08-18T08:27:35Z</time>
      </trkpt>
      <trkpt lat="48.67736" lon="1.83316">
        <ele>175</ele>
        <time>2013-08-18T08:27:37Z</time>
      </trkpt>
      <trkpt lat="48.67737" lon="1.83321">
        <ele>175</ele>
        <time>2013-08-18T08:27:39Z</time>
      </trkpt>
      <trkpt lat="48.67736" lon="1.83326">
        <ele>175</ele>
        <time>2013-08-18T08:27:41Z</time>
      </trkpt>
      <trkpt lat="48.67737" lon="1.83331">
        <ele>175</ele>
        <time>2013-08-18T08:27:43Z</time>
      </trkpt>
      <trkpt lat="48.67738" lon="1.83335">
        <ele>175</ele>
        <time>2013-08-18T08:27:45Z</time>
      </trkpt>
      <trkpt lat="48.67738" lon="1.83342">
        <ele>175</ele>
        <time>2013-08-18T08:27:47Z</time>
      </trkpt>
      <trkpt lat="48.67739" lon="1.83348">
        <ele>175</ele>
        <time>2013-08-18T08:27:49Z</time>
      </trkpt>
      <trkpt lat="48.67739" lon="1.83353">
        <ele>175</ele>
        <time>2013-08-18T08:27:51Z</time>
      </trkpt>
      <trkpt lat="48.6774" lon="1.83359">
        <ele>175</ele>
        <time>2013-08-18T08:27:53Z</time>
      </trkpt>
      <trkpt lat="48.6774" lon="1.83364">
        <ele>176</ele>
        <time>2013-08-18T08:27:55Z</time>
      </trkpt>
      <trkpt lat="48.67742" lon="1.83371">
        <ele>177</ele>
        <time>2013-08-18T08:27:57Z</time>
      </trkpt>
      <trkpt lat="48.67743" lon="1.83377">
        <ele>177</ele>
        <time>2013-08-18T08:27:59Z</time>
      </trkpt>
      <trkpt lat="48.67744" lon="1.83383">
        <ele>178</ele>
        <time>2013-08-18T08:28:01Z</time>
      </trkpt>
      <trkpt lat="48.67745" lon="1.83388">
        <ele>178</ele>
        <time>2013-08-18T08:28:03Z</time>
      </trkpt>
      <trkpt lat="48.67746" lon="1.83393">
        <ele>178</ele>
        <time>2013-08-18T08:28:05Z</time>
      </trkpt>
      <trkpt lat="48.67746" lon="1.83398">
        <ele>178</ele>
        <time>2013-08-18T08:28:07Z</time>
      </trkpt>
      <trkpt lat="48.67747" lon="1.83405">
        <ele>178</ele>
        <time>2013-08-18T08:28:09Z</time>
      </trkpt>
      <trkpt lat="48.67749" lon="1.83409">
        <ele>178</ele>
        <time>2013-08-18T08:28:11Z</time>
      </trkpt>
      <trkpt lat="48.67749" lon="1.83413">
        <ele>178</ele>
        <time>2013-08-18T08:28:13Z</time>
      </trkpt>
      <trkpt lat="48.67749" lon="1.8342">
        <ele>178</ele>
        <time>2013-08-18T08:28:15Z</time>
      </trkpt>
      <trkpt lat="48.6775" lon="1.83427">
        <ele>178</ele>
        <time>2013-08-18T08:28:17Z</time>
      </trkpt>
      <trkpt lat="48.67751" lon="1.83433">
        <ele>178</ele>
        <time>2013-08-18T08:28:19Z</time>
      </trkpt>
      <trkpt lat="48.67751" lon="1.83438">
        <ele>178</ele>
        <time>2013-08-18T08:28:21Z</time>
      </trkpt>
      <trkpt lat="48.67752" lon="1.83443">
        <ele>178</ele>
        <time>2013-08-18T08:28:23Z</time>
      </trkpt>
      <trkpt lat="48.67753" lon="1.83448">
        <ele>178</ele>
        <time>2013-08-18T08:28:25Z</time>
      </trkpt>
      <trkpt lat="48.67753" lon="1.83453">
        <ele>178</ele>
        <time>2013-08-18T08:28:27Z</time>
      </trkpt>
      <trkpt lat="48.67754" lon="1.83457">
        <ele>178</ele>
        <time>2013-08-18T08:28:29Z</time>
      </trkpt>
      <trkpt lat="48.67754" lon="1.83461">
        <ele>178</ele>
        <time>2013-08-18T08:28:31Z</time>
      </trkpt>
      <trkpt lat="48.67754" lon="1.83466">
        <ele>178</ele>
        <time>2013-08-18T08:28:33Z</time>
      </trkpt>
      <trkpt lat="48.67755" lon="1.83471">
        <ele>178</ele>
        <time>2013-08-18T08:28:35Z</time>
      </trkpt>
      <trkpt lat="48.67756" lon="1.83476">
        <ele>178</ele>
        <time>2013-08-18T08:28:37Z</time>
      </trkpt>
      <trkpt lat="48.67756" lon="1.83482">
        <ele>178</ele>
        <time>2013-08-18T08:28:39Z</time>
      </trkpt>
      <trkpt lat="48.67757" lon="1.83489">
        <ele>178</ele>
        <time>2013-08-18T08:28:41Z</time>
      </trkpt>
      <trkpt lat="48.67759" lon="1.83495">
        <ele>178</ele>
        <time>2013-08-18T08:28:43Z</time>
      </trkpt>
      <trkpt lat="48.67762" lon="1.83501">
        <ele>180</ele>
        <time>2013-08-18T08:28:45Z</time>
      </trkpt>
      <trkpt lat="48.67762" lon="1.83505">
        <ele>181</ele>
        <time>2013-08-18T08:28:47Z</time>
      </trkpt>
      <trkpt lat="48.6776" lon="1.8351">
        <ele>181</ele>
        <time>2013-08-18T08:28:49Z</time>
      </trkpt>
      <trkpt lat="48.6776" lon="1.83513">
        <ele>181</ele>
        <time>2013-08-18T08:28:51Z</time>
      </trkpt>
      <trkpt lat="48.67759" lon="1.83518">
        <ele>181</ele>
        <time>2013-08-18T08:28:53Z</time>
      </trkpt>
      <trkpt lat="48.6776" lon="1.83522">
        <ele>181</ele>
        <time>2013-08-18T08:28:55Z</time>
      </trkpt>
      <trkpt lat="48.67759" lon="1.83527">
        <ele>181</ele>
        <time>2013-08-18T08:28:57Z</time>
      </trkpt>
      <trkpt lat="48.67759" lon="1.8353">
        <ele>181</ele>
        <time>2013-08-18T08:28:59Z</time>
      </trkpt>
      <trkpt lat="48.67759" lon="1.83535">
        <ele>181</ele>
        <time>2013-08-18T08:29:01Z</time>
      </trkpt>
      <trkpt lat="48.67759" lon="1.8354">
        <ele>181</ele>
        <time>2013-08-18T08:29:03Z</time>
      </trkpt>
      <trkpt lat="48.6776" lon="1.83545">
        <ele>181</ele>
        <time>2013-08-18T08:29:05Z</time>
      </trkpt>
      <trkpt lat="48.6776" lon="1.8355">
        <ele>181</ele>
        <time>2013-08-18T08:29:07Z</time>
      </trkpt>
      <trkpt lat="48.6776" lon="1.83555">
        <ele>181</ele>
        <time>2013-08-18T08:29:09Z</time>
      </trkpt>
      <trkpt lat="48.6776" lon="1.83561">
        <ele>181</ele>
        <time>2013-08-18T08:29:11Z</time>
      </trkpt>
      <trkpt lat="48.67761" lon="1.83565">
        <ele>181</ele>
        <time>2013-08-18T08:29:13Z</time>
      </trkpt>
      <trkpt lat="48.67761" lon="1.83569">
        <ele>180</ele>
        <time>2013-08-18T08:29:15Z</time>
      </trkpt>
      <trkpt lat="48.6776" lon="1.83573">
        <ele>179</ele>
        <time>2013-08-18T08:29:17Z</time>
      </trkpt>
      <trkpt lat="48.6776" lon="1.83578">
        <ele>178</ele>
        <time>2013-08-18T08:29:19Z</time>
      </trkpt>
      <trkpt lat="48.6776" lon="1.83584">
        <ele>177</ele>
        <time>2013-08-18T08:29:21Z</time>
      </trkpt>
      <trkpt lat="48.67761" lon="1.83589">
        <ele>177</ele>
        <time>2013-08-18T08:29:23Z</time>
      </trkpt>
      <trkpt lat="48.67761" lon="1.83594">
        <ele>177</ele>
        <time>2013-08-18T08:29:25Z</time>
      </trkpt>
      <trkpt lat="48.67762" lon="1.83599">
        <ele>176</ele>
        <time>2013-08-18T08:29:27Z</time>
      </trkpt>
      <trkpt lat="48.67763" lon="1.83605">
        <ele>176</ele>
        <time>2013-08-18T08:29:29Z</time>
      </trkpt>
      <trkpt lat="48.67764" lon="1.8361">
        <ele>176</ele>
        <time>2013-08-18T08:29:31Z</time>
      </trkpt>
      <trkpt lat="48.67765" lon="1.83615">
        <ele>176</ele>
        <time>2013-08-18T08:29:33Z</time>
      </trkpt>
      <trkpt lat="48.67766" lon="1.8362">
        <ele>176</ele>
        <time>2013-08-18T08:29:35Z</time>
      </trkpt>
      <trkpt lat="48.67766" lon="1.83626">
        <ele>176</ele>
        <time>2013-08-18T08:29:37Z</time>
      </trkpt>
      <trkpt lat="48.67766" lon="1.83631">
        <ele>176</ele>
        <time>2013-08-18T08:29:39Z</time>
      </trkpt>
      <trkpt lat="48.67767" lon="1.83636">
        <ele>176</ele>
        <time>2013-08-18T08:29:41Z</time>
      </trkpt>
      <trkpt lat="48.67767" lon="1.83641">
        <ele>176</ele>
        <time>2013-08-18T08:29:43Z</time>
      </trkpt>
      <trkpt lat="48.67769" lon="1.83646">
        <ele>176</ele>
        <time>2013-08-18T08:29:45Z</time>
      </trkpt>
      <trkpt lat="48.6777" lon="1.83651">
        <ele>176</ele>
        <time>2013-08-18T08:29:47Z</time>
      </trkpt>
      <trkpt lat="48.6777" lon="1.83656">
        <ele>176</ele>
        <time>2013-08-18T08:29:49Z</time>
      </trkpt>
      <trkpt lat="48.67771" lon="1.8366">
        <ele>176</ele>
        <time>2013-08-18T08:29:51Z</time>
      </trkpt>
      <trkpt lat="48.67771" lon="1.83665">
        <ele>176</ele>
        <time>2013-08-18T08:29:53Z</time>
      </trkpt>
      <trkpt lat="48.67771" lon="1.83669">
        <ele>176</ele>
        <time>2013-08-18T08:29:55Z</time>
      </trkpt>
      <trkpt lat="48.67771" lon="1.83674">
        <ele>176</ele>
        <time>2013-08-18T08:29:57Z</time>
      </trkpt>
      <trkpt lat="48.67772" lon="1.83678">
        <ele>176</ele>
        <time>2013-08-18T08:29:59Z</time>
      </trkpt>
      <trkpt lat="48.67772" lon="1.83683">
        <ele>176</ele>
        <time>2013-08-18T08:30:01Z</time>
      </trkpt>
      <trkpt lat="48.67773" lon="1.83687">
        <ele>176</ele>
        <time>2013-08-18T08:30:03Z</time>
      </trkpt>
      <trkpt lat="48.67773" lon="1.83691">
        <ele>176</ele>
        <time>2013-08-18T08:30:05Z</time>
      </trkpt>
      <trkpt lat="48.67774" lon="1.83695">
        <ele>176</ele>
        <time>2013-08-18T08:30:07Z</time>
      </trkpt>
      <trkpt lat="48.67775" lon="1.837">
        <ele>176</ele>
        <time>2013-08-18T08:30:09Z</time>
      </trkpt>
      <trkpt lat="48.67775" lon="1.83704">
        <ele>176</ele>
        <time>2013-08-18T08:30:11Z</time>
      </trkpt>
      <trkpt lat="48.67775" lon="1.83709">
        <ele>176</ele>
        <time>2013-08-18T08:30:13Z</time>
      </trkpt>
      <trkpt lat="48.67775" lon="1.83714">
        <ele>176</ele>
        <time>2013-08-18T08:30:15Z</time>
      </trkpt>
      <trkpt lat="48.67775" lon="1.83719">
        <ele>176</ele>
        <time>2013-08-18T08:30:17Z</time>
      </trkpt>
      <trkpt lat="48.67776" lon="1.83724">
        <ele>176</ele>
        <time>2013-08-18T08:30:19Z</time>
      </trkpt>
      <trkpt lat="48.67776" lon="1.83729">
        <ele>176</ele>
        <time>2013-08-18T08:30:21Z</time>
      </trkpt>
      <trkpt lat="48.67777" lon="1.83732">
        <ele>176</ele>
        <time>2013-08-18T08:30:23Z</time>
      </trkpt>
      <trkpt lat="48.67778" lon="1.83737">
        <ele>176</ele>
        <time>2013-08-18T08:30:25Z</time>
      </trkpt>
      <trkpt lat="48.67778" lon="1.83741">
        <ele>176</ele>
        <time>2013-08-18T08:30:27Z</time>
      </trkpt>
      <trkpt lat="48.67779" lon="1.83746">
        <ele>176</ele>
        <time>2013-08-18T08:30:29Z</time>
      </trkpt>
      <trkpt lat="48.6778" lon="1.8375">
        <ele>176</ele>
        <time>2013-08-18T08:30:31Z</time>
      </trkpt>
      <trkpt lat="48.67781" lon="1.83755">
        <ele>176</ele>
        <time>2013-08-18T08:30:33Z</time>
      </trkpt>
      <trkpt lat="48.67781" lon="1.83759">
        <ele>176</ele>
        <time>2013-08-18T08:30:35Z</time>
      </trkpt>
      <trkpt lat="48.67781" lon="1.83764">
        <ele>176</ele>
        <time>2013-08-18T08:30:37Z</time>
      </trkpt>
      <trkpt lat="48.67781" lon="1.83768">
        <ele>176</ele>
        <time>2013-08-18T08:30:39Z</time>
      </trkpt>
      <trkpt lat="48.67782" lon="1.83773">
        <ele>176</ele>
        <time>2013-08-18T08:30:41Z</time>
      </trkpt>
      <trkpt lat="48.67782" lon="1.83778">
        <ele>176</ele>
        <time>2013-08-18T08:30:43Z</time>
      </trkpt>
      <trkpt lat="48.67782" lon="1.83782">
        <ele>176</ele>
        <time>2013-08-18T08:30:45Z</time>
      </trkpt>
      <trkpt lat="48.67783" lon="1.83787">
        <ele>176</ele>
        <time>2013-08-18T08:30:47Z</time>
      </trkpt>
      <trkpt lat="48.67783" lon="1.83792">
        <ele>176</ele>
        <time>2013-08-18T08:30:49Z</time>
      </trkpt>
      <trkpt lat="48.67784" lon="1.83796">
        <ele>176</ele>
        <time>2013-08-18T08:30:51Z</time>
      </trkpt>
      <trkpt lat="48.67785" lon="1.83801">
        <ele>176</ele>
        <time>2013-08-18T08:30:53Z</time>
      </trkpt>
      <trkpt lat="48.67785" lon="1.83806">
        <ele>176</ele>
        <time>2013-08-18T08:30:55Z</time>
      </trkpt>
      <trkpt lat="48.67786" lon="1.8381">
        <ele>176</ele>
        <time>2013-08-18T08:30:57Z</time>
      </trkpt>
      <trkpt lat="48.67787" lon="1.83815">
        <ele>176</ele>
        <time>2013-08-18T08:30:59Z</time>
      </trkpt>
      <trkpt lat="48.67788" lon="1.83819">
        <ele>176</ele>
        <time>2013-08-18T08:31:01Z</time>
      </trkpt>
      <trkpt lat="48.67789" lon="1.83824">
        <ele>176</ele>
        <time>2013-08-18T08:31:03Z</time>
      </trkpt>
      <trkpt lat="48.6779" lon="1.83829">
        <ele>176</ele>
        <time>2013-08-18T08:31:05Z</time>
      </trkpt>
      <trkpt lat="48.67791" lon="1.83833">
        <ele>176</ele>
        <time>2013-08-18T08:31:07Z</time>
      </trkpt>
      <trkpt lat="48.67793" lon="1.83837">
        <ele>176</ele>
        <time>2013-08-18T08:31:09Z</time>
      </trkpt>
      <trkpt lat="48.67796" lon="1.8384">
        <ele>176</ele>
        <time>2013-08-18T08:31:11Z</time>
      </trkpt>
      <trkpt lat="48.67799" lon="1.83843">
        <ele>176</ele>
        <time>2013-08-18T08:31:13Z</time>
      </trkpt>
      <trkpt lat="48.67803" lon="1.83848">
        <ele>176</ele>
        <time>2013-08-18T08:31:16Z</time>
      </trkpt>
      <trkpt lat="48.67805" lon="1.83851">
        <ele>176</ele>
        <time>2013-08-18T08:31:18Z</time>
      </trkpt>
      <trkpt lat="48.67807" lon="1.83855">
        <ele>176</ele>
        <time>2013-08-18T08:31:20Z</time>
      </trkpt>
      <trkpt lat="48.67809" lon="1.8386">
        <ele>176</ele>
        <time>2013-08-18T08:31:23Z</time>
      </trkpt>
      <trkpt lat="48.67811" lon="1.83863">
        <ele>176</ele>
        <time>2013-08-18T08:31:25Z</time>
      </trkpt>
      <trkpt lat="48.67814" lon="1.83867">
        <ele>176</ele>
        <time>2013-08-18T08:31:28Z</time>
      </trkpt>
      <trkpt lat="48.67817" lon="1.8387">
        <ele>176</ele>
        <time>2013-08-18T08:31:30Z</time>
      </trkpt>
      <trkpt lat="48.67819" lon="1.83874">
        <ele>176</ele>
        <time>2013-08-18T08:31:32Z</time>
      </trkpt>
      <trkpt lat="48.67822" lon="1.83877">
        <ele>176</ele>
        <time>2013-08-18T08:31:34Z</time>
      </trkpt>
      <trkpt lat="48.67825" lon="1.8388">
        <ele>176</ele>
        <time>2013-08-18T08:31:36Z</time>
      </trkpt>
      <trkpt lat="48.67828" lon="1.83884">
        <ele>176</ele>
        <time>2013-08-18T08:31:38Z</time>
      </trkpt>
      <trkpt lat="48.67829" lon="1.83888">
        <ele>176</ele>
        <time>2013-08-18T08:31:40Z</time>
      </trkpt>
      <trkpt lat="48.67831" lon="1.83891">
        <ele>176</ele>
        <time>2013-08-18T08:31:42Z</time>
      </trkpt>
      <trkpt lat="48.67834" lon="1.83895">
        <ele>176</ele>
        <time>2013-08-18T08:31:44Z</time>
      </trkpt>
      <trkpt lat="48.67836" lon="1.83898">
        <ele>176</ele>
        <time>2013-08-18T08:31:46Z</time>
      </trkpt>
      <trkpt lat="48.6784" lon="1.839">
        <ele>176</ele>
        <time>2013-08-18T08:31:48Z</time>
      </trkpt>
      <trkpt lat="48.67843" lon="1.83904">
        <ele>176</ele>
        <time>2013-08-18T08:31:50Z</time>
      </trkpt>
      <trkpt lat="48.67846" lon="1.83906">
        <ele>176</ele>
        <time>2013-08-18T08:31:52Z</time>
      </trkpt>
      <trkpt lat="48.67849" lon="1.83908">
        <ele>176</ele>
        <time>2013-08-18T08:31:54Z</time>
      </trkpt>
      <trkpt lat="48.67853" lon="1.83913">
        <ele>176</ele>
        <time>2013-08-18T08:31:57Z</time>
      </trkpt>
      <trkpt lat="48.67855" lon="1.83917">
        <ele>176</ele>
        <time>2013-08-18T08:31:59Z</time>
      </trkpt>
      <trkpt lat="48.67856" lon="1.8392">
        <ele>176</ele>
        <time>2013-08-18T08:32:01Z</time>
      </trkpt>
      <trkpt lat="48.6786" lon="1.83922">
        <ele>176</ele>
        <time>2013-08-18T08:32:03Z</time>
      </trkpt>
      <trkpt lat="48.67862" lon="1.83924">
        <ele>177</ele>
        <time>2013-08-18T08:32:05Z</time>
      </trkpt>
      <trkpt lat="48.67864" lon="1.83928">
        <ele>178</ele>
        <time>2013-08-18T08:32:07Z</time>
      </trkpt>
      <trkpt lat="48.67866" lon="1.83931">
        <ele>178</ele>
        <time>2013-08-18T08:32:09Z</time>
      </trkpt>
      <trkpt lat="48.67868" lon="1.83933">
        <ele>178</ele>
        <time>2013-08-18T08:32:11Z</time>
      </trkpt>
      <trkpt lat="48.6787" lon="1.83937">
        <ele>178</ele>
        <time>2013-08-18T08:32:13Z</time>
      </trkpt>
      <trkpt lat="48.67872" lon="1.83942">
        <ele>178</ele>
        <time>2013-08-18T08:32:16Z</time>
      </trkpt>
      <trkpt lat="48.67874" lon="1.83945">
        <ele>178</ele>
        <time>2013-08-18T08:32:18Z</time>
      </trkpt>
      <trkpt lat="48.67876" lon="1.8395">
        <ele>178</ele>
        <time>2013-08-18T08:32:20Z</time>
      </trkpt>
      <trkpt lat="48.67879" lon="1.83953">
        <ele>178</ele>
        <time>2013-08-18T08:32:22Z</time>
      </trkpt>
      <trkpt lat="48.67881" lon="1.83956">
        <ele>178</ele>
        <time>2013-08-18T08:32:24Z</time>
      </trkpt>
      <trkpt lat="48.67883" lon="1.8396">
        <ele>178</ele>
        <time>2013-08-18T08:32:26Z</time>
      </trkpt>
      <trkpt lat="48.67886" lon="1.83964">
        <ele>178</ele>
        <time>2013-08-18T08:32:28Z</time>
      </trkpt>
      <trkpt lat="48.67888" lon="1.83968">
        <ele>178</ele>
        <time>2013-08-18T08:32:30Z</time>
      </trkpt>
      <trkpt lat="48.67889" lon="1.83973">
        <ele>178</ele>
        <time>2013-08-18T08:32:32Z</time>
      </trkpt>
      <trkpt lat="48.67891" lon="1.83976">
        <ele>178</ele>
        <time>2013-08-18T08:32:34Z</time>
      </trkpt>
      <trkpt lat="48.67892" lon="1.83981">
        <ele>178</ele>
        <time>2013-08-18T08:32:36Z</time>
      </trkpt>
      <trkpt lat="48.67894" lon="1.83985">
        <ele>178</ele>
        <time>2013-08-18T08:32:38Z</time>
      </trkpt>
      <trkpt lat="48.67897" lon="1.8399">
        <ele>178</ele>
        <time>2013-08-18T08:32:40Z</time>
      </trkpt>
      <trkpt lat="48.67897" lon="1.83995">
        <ele>178</ele>
        <time>2013-08-18T08:32:42Z</time>
      </trkpt>
      <trkpt lat="48.67898" lon="1.84001">
        <ele>178</ele>
        <time>2013-08-18T08:32:44Z</time>
      </trkpt>
      <trkpt lat="48.67898" lon="1.84006">
        <ele>178</ele>
        <time>2013-08-18T08:32:46Z</time>
      </trkpt>
      <trkpt lat="48.67897" lon="1.84011">
        <ele>178</ele>
        <time>2013-08-18T08:32:48Z</time>
      </trkpt>
      <trkpt lat="48.67896" lon="1.84017">
        <ele>178</ele>
        <time>2013-08-18T08:32:50Z</time>
      </trkpt>
      <trkpt lat="48.67897" lon="1.84022">
        <ele>178</ele>
        <time>2013-08-18T08:32:52Z</time>
      </trkpt>
      <trkpt lat="48.67897" lon="1.84028">
        <ele>178</ele>
        <time>2013-08-18T08:32:54Z</time>
      </trkpt>
      <trkpt lat="48.67896" lon="1.84033">
        <ele>178</ele>
        <time>2013-08-18T08:32:56Z</time>
      </trkpt>
      <trkpt lat="48.67896" lon="1.84038">
        <ele>178</ele>
        <time>2013-08-18T08:32:58Z</time>
      </trkpt>
      <trkpt lat="48.67896" lon="1.84043">
        <ele>178</ele>
        <time>2013-08-18T08:33:00Z</time>
      </trkpt>
      <trkpt lat="48.67896" lon="1.84048">
        <ele>178</ele>
        <time>2013-08-18T08:33:02Z</time>
      </trkpt>
      <trkpt lat="48.67896" lon="1.84053">
        <ele>178</ele>
        <time>2013-08-18T08:33:04Z</time>
      </trkpt>
      <trkpt lat="48.67895" lon="1.84058">
        <ele>178</ele>
        <time>2013-08-18T08:33:06Z</time>
      </trkpt>
      <trkpt lat="48.67895" lon="1.84063">
        <ele>178</ele>
        <time>2013-08-18T08:33:08Z</time>
      </trkpt>
      <trkpt lat="48.67895" lon="1.84068">
        <ele>178</ele>
        <time>2013-08-18T08:33:10Z</time>
      </trkpt>
      <trkpt lat="48.67894" lon="1.84073">
        <ele>178</ele>
        <time>2013-08-18T08:33:12Z</time>
      </trkpt>
      <trkpt lat="48.67893" lon="1.84076">
        <ele>178</ele>
        <time>2013-08-18T08:33:14Z</time>
      </trkpt>
      <trkpt lat="48.67891" lon="1.84079">
        <ele>178</ele>
        <time>2013-08-18T08:33:16Z</time>
      </trkpt>
      <trkpt lat="48.67889" lon="1.8408">
        <ele>178</ele>
        <time>2013-08-18T08:33:18Z</time>
      </trkpt>
      <trkpt lat="48.67887" lon="1.84083">
        <ele>178</ele>
        <time>2013-08-18T08:33:21Z</time>
      </trkpt>
      <trkpt lat="48.67889" lon="1.84084">
        <ele>178</ele>
        <time>2013-08-18T08:33:23Z</time>
      </trkpt>
      <trkpt lat="48.67891" lon="1.84084">
        <ele>178</ele>
        <time>2013-08-18T08:33:25Z</time>
      </trkpt>
      <trkpt lat="48.67894" lon="1.84084">
        <ele>177</ele>
        <time>2013-08-18T08:33:27Z</time>
      </trkpt>
      <trkpt lat="48.67897" lon="1.84084">
        <ele>177</ele>
        <time>2013-08-18T08:33:29Z</time>
      </trkpt>
      <trkpt lat="48.679" lon="1.84084">
        <ele>177</ele>
        <time>2013-08-18T08:33:31Z</time>
      </trkpt>
      <trkpt lat="48.67903" lon="1.84083">
        <ele>177</ele>
        <time>2013-08-18T08:33:33Z</time>
      </trkpt>
      <trkpt lat="48.67905" lon="1.84082">
        <ele>177</ele>
        <time>2013-08-18T08:33:35Z</time>
      </trkpt>
      <trkpt lat="48.67908" lon="1.84082">
        <ele>177</ele>
        <time>2013-08-18T08:33:37Z</time>
      </trkpt>
      <trkpt lat="48.67911" lon="1.84082">
        <ele>177</ele>
        <time>2013-08-18T08:33:39Z</time>
      </trkpt>
      <trkpt lat="48.67915" lon="1.8408">
        <ele>177</ele>
        <time>2013-08-18T08:33:42Z</time>
      </trkpt>
      <trkpt lat="48.67918" lon="1.84079">
        <ele>177</ele>
        <time>2013-08-18T08:33:44Z</time>
      </trkpt>
      <trkpt lat="48.6792" lon="1.84078">
        <ele>177</ele>
        <time>2013-08-18T08:33:46Z</time>
      </trkpt>
      <trkpt lat="48.67923" lon="1.84076">
        <ele>177</ele>
        <time>2013-08-18T08:33:48Z</time>
      </trkpt>
      <trkpt lat="48.67927" lon="1.84075">
        <ele>177</ele>
        <time>2013-08-18T08:33:50Z</time>
      </trkpt>
      <trkpt lat="48.6793" lon="1.84072">
        <ele>177</ele>
        <time>2013-08-18T08:33:52Z</time>
      </trkpt>
      <trkpt lat="48.67933" lon="1.84071">
        <ele>177</ele>
        <time>2013-08-18T08:33:54Z</time>
      </trkpt>
      <trkpt lat="48.67936" lon="1.8407">
        <ele>177</ele>
        <time>2013-08-18T08:33:56Z</time>
      </trkpt>
      <trkpt lat="48.67939" lon="1.84069">
        <ele>177</ele>
        <time>2013-08-18T08:33:59Z</time>
      </trkpt>
      <trkpt lat="48.67942" lon="1.84068">
        <ele>177</ele>
        <time>2013-08-18T08:34:01Z</time>
      </trkpt>
      <trkpt lat="48.67945" lon="1.84066">
        <ele>177</ele>
        <time>2013-08-18T08:34:03Z</time>
      </trkpt>
      <trkpt lat="48.67948" lon="1.84064">
        <ele>177</ele>
        <time>2013-08-18T08:34:05Z</time>
      </trkpt>
      <trkpt lat="48.67951" lon="1.84062">
        <ele>177</ele>
        <time>2013-08-18T08:34:07Z</time>
      </trkpt>
      <trkpt lat="48.67954" lon="1.8406">
        <ele>177</ele>
        <time>2013-08-18T08:34:09Z</time>
      </trkpt>
      <trkpt lat="48.67956" lon="1.84058">
        <ele>177</ele>
        <time>2013-08-18T08:34:11Z</time>
      </trkpt>
      <trkpt lat="48.6796" lon="1.84057">
        <ele>177</ele>
        <time>2013-08-18T08:34:13Z</time>
      </trkpt>
      <trkpt lat="48.67963" lon="1.84056">
        <ele>177</ele>
        <time>2013-08-18T08:34:15Z</time>
      </trkpt>
      <trkpt lat="48.67965" lon="1.84055">
        <ele>177</ele>
        <time>2013-08-18T08:34:17Z</time>
      </trkpt>
      <trkpt lat="48.67968" lon="1.84054">
        <ele>177</ele>
        <time>2013-08-18T08:34:19Z</time>
      </trkpt>
      <trkpt lat="48.67971" lon="1.84053">
        <ele>177</ele>
        <time>2013-08-18T08:34:21Z</time>
      </trkpt>
      <trkpt lat="48.67974" lon="1.84052">
        <ele>177</ele>
        <time>2013-08-18T08:34:23Z</time>
      </trkpt>
      <trkpt lat="48.67976" lon="1.84051">
        <ele>177</ele>
        <time>2013-08-18T08:34:25Z</time>
      </trkpt>
      <trkpt lat="48.67979" lon="1.84048">
        <ele>177</ele>
        <time>2013-08-18T08:34:27Z</time>
      </trkpt>
      <trkpt lat="48.67982" lon="1.84047">
        <ele>177</ele>
        <time>2013-08-18T08:34:29Z</time>
      </trkpt>
      <trkpt lat="48.67985" lon="1.84046">
        <ele>177</ele>
        <time>2013-08-18T08:34:31Z</time>
      </trkpt>
      <trkpt lat="48.67988" lon="1.84046">
        <ele>177</ele>
        <time>2013-08-18T08:34:33Z</time>
      </trkpt>
      <trkpt lat="48.67991" lon="1.84046">
        <ele>177</ele>
        <time>2013-08-18T08:34:35Z</time>
      </trkpt>
      <trkpt lat="48.67995" lon="1.84045">
        <ele>177</ele>
        <time>2013-08-18T08:34:37Z</time>
      </trkpt>
      <trkpt lat="48.67998" lon="1.84046">
        <ele>177</ele>
        <time>2013-08-18T08:34:39Z</time>
      </trkpt>
      <trkpt lat="48.68002" lon="1.84046">
        <ele>177</ele>
        <time>2013-08-18T08:34:41Z</time>
      </trkpt>
      <trkpt lat="48.68005" lon="1.84046">
        <ele>177</ele>
        <time>2013-08-18T08:34:43Z</time>
      </trkpt>
      <trkpt lat="48.68008" lon="1.84047">
        <ele>177</ele>
        <time>2013-08-18T08:34:45Z</time>
      </trkpt>
      <trkpt lat="48.6801" lon="1.84049">
        <ele>177</ele>
        <time>2013-08-18T08:34:47Z</time>
      </trkpt>
      <trkpt lat="48.68013" lon="1.8405">
        <ele>177</ele>
        <time>2013-08-18T08:34:49Z</time>
      </trkpt>
      <trkpt lat="48.68016" lon="1.84052">
        <ele>177</ele>
        <time>2013-08-18T08:34:51Z</time>
      </trkpt>
      <trkpt lat="48.68019" lon="1.84055">
        <ele>177</ele>
        <time>2013-08-18T08:34:53Z</time>
      </trkpt>
      <trkpt lat="48.68021" lon="1.84058">
        <ele>177</ele>
        <time>2013-08-18T08:34:55Z</time>
      </trkpt>
      <trkpt lat="48.68023" lon="1.84063">
        <ele>177</ele>
        <time>2013-08-18T08:34:57Z</time>
      </trkpt>
      <trkpt lat="48.68024" lon="1.84067">
        <ele>177</ele>
        <time>2013-08-18T08:34:59Z</time>
      </trkpt>
      <trkpt lat="48.68026" lon="1.84072">
        <ele>177</ele>
        <time>2013-08-18T08:35:01Z</time>
      </trkpt>
      <trkpt lat="48.68026" lon="1.84077">
        <ele>177</ele>
        <time>2013-08-18T08:35:03Z</time>
      </trkpt>
      <trkpt lat="48.68027" lon="1.84081">
        <ele>177</ele>
        <time>2013-08-18T08:35:05Z</time>
      </trkpt>
      <trkpt lat="48.68028" lon="1.84086">
        <ele>177</ele>
        <time>2013-08-18T08:35:07Z</time>
      </trkpt>
      <trkpt lat="48.68028" lon="1.8409">
        <ele>177</ele>
        <time>2013-08-18T08:35:09Z</time>
      </trkpt>
      <trkpt lat="48.68029" lon="1.84095">
        <ele>177</ele>
        <time>2013-08-18T08:35:11Z</time>
      </trkpt>
      <trkpt lat="48.68029" lon="1.841">
        <ele>177</ele>
        <time>2013-08-18T08:35:13Z</time>
      </trkpt>
      <trkpt lat="48.6803" lon="1.84105">
        <ele>177</ele>
        <time>2013-08-18T08:35:15Z</time>
      </trkpt>
      <trkpt lat="48.68031" lon="1.84109">
        <ele>177</ele>
        <time>2013-08-18T08:35:17Z</time>
      </trkpt>
      <trkpt lat="48.68032" lon="1.84114">
        <ele>177</ele>
        <time>2013-08-18T08:35:19Z</time>
      </trkpt>
      <trkpt lat="48.68033" lon="1.84119">
        <ele>177</ele>
        <time>2013-08-18T08:35:21Z</time>
      </trkpt>
      <trkpt lat="48.68034" lon="1.84124">
        <ele>177</ele>
        <time>2013-08-18T08:35:23Z</time>
      </trkpt>
      <trkpt lat="48.68034" lon="1.84128">
        <ele>177</ele>
        <time>2013-08-18T08:35:25Z</time>
      </trkpt>
      <trkpt lat="48.68035" lon="1.84133">
        <ele>177</ele>
        <time>2013-08-18T08:35:27Z</time>
      </trkpt>
      <trkpt lat="48.68036" lon="1.84137">
        <ele>177</ele>
        <time>2013-08-18T08:35:29Z</time>
      </trkpt>
      <trkpt lat="48.68037" lon="1.84141">
        <ele>177</ele>
        <time>2013-08-18T08:35:31Z</time>
      </trkpt>
      <trkpt lat="48.68037" lon="1.84146">
        <ele>177</ele>
        <time>2013-08-18T08:35:33Z</time>
      </trkpt>
      <trkpt lat="48.68038" lon="1.84151">
        <ele>177</ele>
        <time>2013-08-18T08:35:35Z</time>
      </trkpt>
      <trkpt lat="48.68039" lon="1.84155">
        <ele>177</ele>
        <time>2013-08-18T08:35:37Z</time>
      </trkpt>
      <trkpt lat="48.6804" lon="1.8416">
        <ele>177</ele>
        <time>2013-08-18T08:35:39Z</time>
      </trkpt>
      <trkpt lat="48.6804" lon="1.84164">
        <ele>177</ele>
        <time>2013-08-18T08:35:41Z</time>
      </trkpt>
      <trkpt lat="48.68041" lon="1.84169">
        <ele>177</ele>
        <time>2013-08-18T08:35:43Z</time>
      </trkpt>
      <trkpt lat="48.68041" lon="1.84174">
        <ele>177</ele>
        <time>2013-08-18T08:35:45Z</time>
      </trkpt>
      <trkpt lat="48.68042" lon="1.84178">
        <ele>177</ele>
        <time>2013-08-18T08:35:47Z</time>
      </trkpt>
      <trkpt lat="48.68042" lon="1.84183">
        <ele>177</ele>
        <time>2013-08-18T08:35:49Z</time>
      </trkpt>
      <trkpt lat="48.68043" lon="1.84187">
        <ele>177</ele>
        <time>2013-08-18T08:35:51Z</time>
      </trkpt>
      <trkpt lat="48.68043" lon="1.84192">
        <ele>177</ele>
        <time>2013-08-18T08:35:53Z</time>
      </trkpt>
      <trkpt lat="48.68044" lon="1.84196">
        <ele>177</ele>
        <time>2013-08-18T08:35:55Z</time>
      </trkpt>
      <trkpt lat="48.68044" lon="1.84201">
        <ele>177</ele>
        <time>2013-08-18T08:35:57Z</time>
      </trkpt>
      <trkpt lat="48.68045" lon="1.84205">
        <ele>177</ele>
        <time>2013-08-18T08:35:59Z</time>
      </trkpt>
      <trkpt lat="48.68046" lon="1.8421">
        <ele>177</ele>
        <time>2013-08-18T08:36:01Z</time>
      </trkpt>
      <trkpt lat="48.68047" lon="1.84214">
        <ele>177</ele>
        <time>2013-08-18T08:36:03Z</time>
      </trkpt>
      <trkpt lat="48.68048" lon="1.84219">
        <ele>177</ele>
        <time>2013-08-18T08:36:05Z</time>
      </trkpt>
      <trkpt lat="48.6805" lon="1.84222">
        <ele>177</ele>
        <time>2013-08-18T08:36:07Z</time>
      </trkpt>
      <trkpt lat="48.68052" lon="1.84226">
        <ele>177</ele>
        <time>2013-08-18T08:36:09Z</time>
      </trkpt>
      <trkpt lat="48.68053" lon="1.8423">
        <ele>177</ele>
        <time>2013-08-18T08:36:11Z</time>
      </trkpt>
      <trkpt lat="48.68056" lon="1.84233">
        <ele>177</ele>
        <time>2013-08-18T08:36:13Z</time>
      </trkpt>
      <trkpt lat="48.68058" lon="1.84236">
        <ele>177</ele>
        <time>2013-08-18T08:36:15Z</time>
      </trkpt>
      <trkpt lat="48.6806" lon="1.84239">
        <ele>177</ele>
        <time>2013-08-18T08:36:17Z</time>
      </trkpt>
      <trkpt lat="48.68063" lon="1.8424">
        <ele>177</ele>
        <time>2013-08-18T08:36:19Z</time>
      </trkpt>
      <trkpt lat="48.68066" lon="1.84242">
        <ele>177</ele>
        <time>2013-08-18T08:36:21Z</time>
      </trkpt>
      <trkpt lat="48.68069" lon="1.84244">
        <ele>177</ele>
        <time>2013-08-18T08:36:23Z</time>
      </trkpt>
      <trkpt lat="48.68072" lon="1.84245">
        <ele>177</ele>
        <time>2013-08-18T08:36:25Z</time>
      </trkpt>
      <trkpt lat="48.68075" lon="1.84246">
        <ele>177</ele>
        <time>2013-08-18T08:36:27Z</time>
      </trkpt>
      <trkpt lat="48.68078" lon="1.84247">
        <ele>177</ele>
        <time>2013-08-18T08:36:29Z</time>
      </trkpt>
      <trkpt lat="48.68082" lon="1.84247">
        <ele>177</ele>
        <time>2013-08-18T08:36:31Z</time>
      </trkpt>
      <trkpt lat="48.68085" lon="1.84248">
        <ele>177</ele>
        <time>2013-08-18T08:36:33Z</time>
      </trkpt>
      <trkpt lat="48.68088" lon="1.84248">
        <ele>177</ele>
        <time>2013-08-18T08:36:35Z</time>
      </trkpt>
      <trkpt lat="48.68091" lon="1.84248">
        <ele>177</ele>
        <time>2013-08-18T08:36:37Z</time>
      </trkpt>
      <trkpt lat="48.68094" lon="1.84247">
        <ele>177</ele>
        <time>2013-08-18T08:36:39Z</time>
      </trkpt>
      <trkpt lat="48.68098" lon="1.84246">
        <ele>177</ele>
        <time>2013-08-18T08:36:41Z</time>
      </trkpt>
      <trkpt lat="48.68101" lon="1.84246">
        <ele>177</ele>
        <time>2013-08-18T08:36:43Z</time>
      </trkpt>
      <trkpt lat="48.68104" lon="1.84246">
        <ele>177</ele>
        <time>2013-08-18T08:36:45Z</time>
      </trkpt>
      <trkpt lat="48.68107" lon="1.84245">
        <ele>177</ele>
        <time>2013-08-18T08:36:47Z</time>
      </trkpt>
      <trkpt lat="48.6811" lon="1.84245">
        <ele>177</ele>
        <time>2013-08-18T08:36:49Z</time>
      </trkpt>
      <trkpt lat="48.68113" lon="1.84244">
        <ele>177</ele>
        <time>2013-08-18T08:36:51Z</time>
      </trkpt>
      <trkpt lat="48.68116" lon="1.84244">
        <ele>177</ele>
        <time>2013-08-18T08:36:53Z</time>
      </trkpt>
      <trkpt lat="48.68119" lon="1.84243">
        <ele>177</ele>
        <time>2013-08-18T08:36:55Z</time>
      </trkpt>
      <trkpt lat="48.68122" lon="1.84243">
        <ele>177</ele>
        <time>2013-08-18T08:36:57Z</time>
      </trkpt>
      <trkpt lat="48.68125" lon="1.84242">
        <ele>177</ele>
        <time>2013-08-18T08:36:59Z</time>
      </trkpt>
      <trkpt lat="48.68129" lon="1.84241">
        <ele>177</ele>
        <time>2013-08-18T08:37:01Z</time>
      </trkpt>
      <trkpt lat="48.68132" lon="1.84241">
        <ele>177</ele>
        <time>2013-08-18T08:37:03Z</time>
      </trkpt>
      <trkpt lat="48.68134" lon="1.8424">
        <ele>177</ele>
        <time>2013-08-18T08:37:05Z</time>
      </trkpt>
      <trkpt lat="48.68137" lon="1.8424">
        <ele>177</ele>
        <time>2013-08-18T08:37:07Z</time>
      </trkpt>
      <trkpt lat="48.6814" lon="1.8424">
        <ele>177</ele>
        <time>2013-08-18T08:37:09Z</time>
      </trkpt>
      <trkpt lat="48.68143" lon="1.8424">
        <ele>177</ele>
        <time>2013-08-18T08:37:11Z</time>
      </trkpt>
      <trkpt lat="48.68147" lon="1.84239">
        <ele>177</ele>
        <time>2013-08-18T08:37:13Z</time>
      </trkpt>
      <trkpt lat="48.6815" lon="1.84239">
        <ele>177</ele>
        <time>2013-08-18T08:37:15Z</time>
      </trkpt>
      <trkpt lat="48.68153" lon="1.84239">
        <ele>177</ele>
        <time>2013-08-18T08:37:17Z</time>
      </trkpt>
      <trkpt lat="48.68156" lon="1.84239">
        <ele>176</ele>
        <time>2013-08-18T08:37:19Z</time>
      </trkpt>
      <trkpt lat="48.68159" lon="1.84239">
        <ele>176</ele>
        <time>2013-08-18T08:37:21Z</time>
      </trkpt>
      <trkpt lat="48.68163" lon="1.84239">
        <ele>176</ele>
        <time>2013-08-18T08:37:23Z</time>
      </trkpt>
      <trkpt lat="48.68166" lon="1.84239">
        <ele>176</ele>
        <time>2013-08-18T08:37:25Z</time>
      </trkpt>
      <trkpt lat="48.68169" lon="1.84239">
        <ele>175</ele>
        <time>2013-08-18T08:37:27Z</time>
      </trkpt>
      <trkpt lat="48.68172" lon="1.84239">
        <ele>175</ele>
        <time>2013-08-18T08:37:29Z</time>
      </trkpt>
      <trkpt lat="48.68175" lon="1.8424">
        <ele>175</ele>
        <time>2013-08-18T08:37:31Z</time>
      </trkpt>
      <trkpt lat="48.68178" lon="1.84242">
        <ele>175</ele>
        <time>2013-08-18T08:37:33Z</time>
      </trkpt>
      <trkpt lat="48.6818" lon="1.84246">
        <ele>175</ele>
        <time>2013-08-18T08:37:35Z</time>
      </trkpt>
      <trkpt lat="48.68181" lon="1.8425">
        <ele>175</ele>
        <time>2013-08-18T08:37:37Z</time>
      </trkpt>
      <trkpt lat="48.68182" lon="1.84255">
        <ele>175</ele>
        <time>2013-08-18T08:37:39Z</time>
      </trkpt>
      <trkpt lat="48.68183" lon="1.84259">
        <ele>175</ele>
        <time>2013-08-18T08:37:41Z</time>
      </trkpt>
      <trkpt lat="48.68183" lon="1.84263">
        <ele>175</ele>
        <time>2013-08-18T08:37:43Z</time>
      </trkpt>
      <trkpt lat="48.68182" lon="1.84267">
        <ele>175</ele>
        <time>2013-08-18T08:37:45Z</time>
      </trkpt>
      <trkpt lat="48.68181" lon="1.84272">
        <ele>175</ele>
        <time>2013-08-18T08:37:47Z</time>
      </trkpt>
      <trkpt lat="48.68179" lon="1.84275">
        <ele>175</ele>
        <time>2013-08-18T08:37:49Z</time>
      </trkpt>
      <trkpt lat="48.68178" lon="1.84279">
        <ele>175</ele>
        <time>2013-08-18T08:37:51Z</time>
      </trkpt>
      <trkpt lat="48.68176" lon="1.84281">
        <ele>175</ele>
        <time>2013-08-18T08:37:53Z</time>
      </trkpt>
      <trkpt lat="48.68175" lon="1.84286">
        <ele>175</ele>
        <time>2013-08-18T08:37:56Z</time>
      </trkpt>
      <trkpt lat="48.68174" lon="1.84288">
        <ele>175</ele>
        <time>2013-08-18T08:37:58Z</time>
      </trkpt>
      <trkpt lat="48.68172" lon="1.84292">
        <ele>175</ele>
        <time>2013-08-18T08:38:00Z</time>
      </trkpt>
      <trkpt lat="48.6817" lon="1.84295">
        <ele>175</ele>
        <time>2013-08-18T08:38:02Z</time>
      </trkpt>
      <trkpt lat="48.68169" lon="1.843">
        <ele>175</ele>
        <time>2013-08-18T08:38:04Z</time>
      </trkpt>
      <trkpt lat="48.68167" lon="1.84302">
        <ele>175</ele>
        <time>2013-08-18T08:38:06Z</time>
      </trkpt>
      <trkpt lat="48.68165" lon="1.84305">
        <ele>175</ele>
        <time>2013-08-18T08:38:08Z</time>
      </trkpt>
      <trkpt lat="48.68163" lon="1.84309">
        <ele>175</ele>
        <time>2013-08-18T08:38:10Z</time>
      </trkpt>
      <trkpt lat="48.68161" lon="1.84314">
        <ele>175</ele>
        <time>2013-08-18T08:38:12Z</time>
      </trkpt>
      <trkpt lat="48.6816" lon="1.84318">
        <ele>175</ele>
        <time>2013-08-18T08:38:14Z</time>
      </trkpt>
      <trkpt lat="48.68158" lon="1.84324">
        <ele>175</ele>
        <time>2013-08-18T08:38:16Z</time>
      </trkpt>
      <trkpt lat="48.68156" lon="1.84327">
        <ele>175</ele>
        <time>2013-08-18T08:38:18Z</time>
      </trkpt>
      <trkpt lat="48.68155" lon="1.84332">
        <ele>175</ele>
        <time>2013-08-18T08:38:20Z</time>
      </trkpt>
      <trkpt lat="48.68154" lon="1.84336">
        <ele>175</ele>
        <time>2013-08-18T08:38:22Z</time>
      </trkpt>
      <trkpt lat="48.68152" lon="1.84341">
        <ele>175</ele>
        <time>2013-08-18T08:38:24Z</time>
      </trkpt>
      <trkpt lat="48.6815" lon="1.84344">
        <ele>175</ele>
        <time>2013-08-18T08:38:26Z</time>
      </trkpt>
      <trkpt lat="48.68148" lon="1.84348">
        <ele>175</ele>
        <time>2013-08-18T08:38:28Z</time>
      </trkpt>
      <trkpt lat="48.68145" lon="1.84352">
        <ele>175</ele>
        <time>2013-08-18T08:38:30Z</time>
      </trkpt>
      <trkpt lat="48.68142" lon="1.84354">
        <ele>175</ele>
        <time>2013-08-18T08:38:32Z</time>
      </trkpt>
      <trkpt lat="48.6814" lon="1.84357">
        <ele>175</ele>
        <time>2013-08-18T08:38:34Z</time>
      </trkpt>
      <trkpt lat="48.68137" lon="1.84361">
        <ele>175</ele>
        <time>2013-08-18T08:38:36Z</time>
      </trkpt>
      <trkpt lat="48.68134" lon="1.84363">
        <ele>175</ele>
        <time>2013-08-18T08:38:38Z</time>
      </trkpt>
      <trkpt lat="48.68132" lon="1.84367">
        <ele>175</ele>
        <time>2013-08-18T08:38:40Z</time>
      </trkpt>
      <trkpt lat="48.68131" lon="1.84371">
        <ele>175</ele>
        <time>2013-08-18T08:38:42Z</time>
      </trkpt>
      <trkpt lat="48.68129" lon="1.84374">
        <ele>175</ele>
        <time>2013-08-18T08:38:44Z</time>
      </trkpt>
      <trkpt lat="48.68126" lon="1.84376">
        <ele>175</ele>
        <time>2013-08-18T08:38:46Z</time>
      </trkpt>
      <trkpt lat="48.68123" lon="1.84379">
        <ele>175</ele>
        <time>2013-08-18T08:38:48Z</time>
      </trkpt>
      <trkpt lat="48.68121" lon="1.84384">
        <ele>175</ele>
        <time>2013-08-18T08:38:50Z</time>
      </trkpt>
      <trkpt lat="48.68117" lon="1.84388">
        <ele>175</ele>
        <time>2013-08-18T08:38:52Z</time>
      </trkpt>
      <trkpt lat="48.68115" lon="1.84392">
        <ele>175</ele>
        <time>2013-08-18T08:38:54Z</time>
      </trkpt>
      <trkpt lat="48.68112" lon="1.84395">
        <ele>175</ele>
        <time>2013-08-18T08:38:56Z</time>
      </trkpt>
      <trkpt lat="48.68109" lon="1.84397">
        <ele>175</ele>
        <time>2013-08-18T08:38:58Z</time>
      </trkpt>
      <trkpt lat="48.68106" lon="1.844">
        <ele>175</ele>
        <time>2013-08-18T08:39:00Z</time>
      </trkpt>
      <trkpt lat="48.68105" lon="1.84405">
        <ele>175</ele>
        <time>2013-08-18T08:39:02Z</time>
      </trkpt>
      <trkpt lat="48.68103" lon="1.84409">
        <ele>175</ele>
        <time>2013-08-18T08:39:04Z</time>
      </trkpt>
      <trkpt lat="48.68101" lon="1.84412">
        <ele>175</ele>
        <time>2013-08-18T08:39:06Z</time>
      </trkpt>
      <trkpt lat="48.681" lon="1.84416">
        <ele>175</ele>
        <time>2013-08-18T08:39:08Z</time>
      </trkpt>
      <trkpt lat="48.68097" lon="1.84421">
        <ele>175</ele>
        <time>2013-08-18T08:39:10Z</time>
      </trkpt>
      <trkpt lat="48.68095" lon="1.84425">
        <ele>175</ele>
        <time>2013-08-18T08:39:12Z</time>
      </trkpt>
      <trkpt lat="48.68092" lon="1.8443">
        <ele>175</ele>
        <time>2013-08-18T08:39:14Z</time>
      </trkpt>
      <trkpt lat="48.68089" lon="1.84433">
        <ele>175</ele>
        <time>2013-08-18T08:39:16Z</time>
      </trkpt>
      <trkpt lat="48.68086" lon="1.84435">
        <ele>175</ele>
        <time>2013-08-18T08:39:18Z</time>
      </trkpt>
      <trkpt lat="48.68082" lon="1.8444">
        <ele>175</ele>
        <time>2013-08-18T08:39:21Z</time>
      </trkpt>
      <trkpt lat="48.68081" lon="1.84444">
        <ele>175</ele>
        <time>2013-08-18T08:39:23Z</time>
      </trkpt>
      <trkpt lat="48.6808" lon="1.8445">
        <ele>175</ele>
        <time>2013-08-18T08:39:25Z</time>
      </trkpt>
      <trkpt lat="48.68078" lon="1.84455">
        <ele>175</ele>
        <time>2013-08-18T08:39:28Z</time>
      </trkpt>
      <trkpt lat="48.68074" lon="1.8446">
        <ele>175</ele>
        <time>2013-08-18T08:39:31Z</time>
      </trkpt>
      <trkpt lat="48.68072" lon="1.84462">
        <ele>175</ele>
        <time>2013-08-18T08:39:33Z</time>
      </trkpt>
      <trkpt lat="48.6807" lon="1.84466">
        <ele>175</ele>
        <time>2013-08-18T08:39:35Z</time>
      </trkpt>
      <trkpt lat="48.68068" lon="1.8447">
        <ele>175</ele>
        <time>2013-08-18T08:39:37Z</time>
      </trkpt>
      <trkpt lat="48.68066" lon="1.84473">
        <ele>175</ele>
        <time>2013-08-18T08:39:39Z</time>
      </trkpt>
      <trkpt lat="48.68063" lon="1.84477">
        <ele>175</ele>
        <time>2013-08-18T08:39:41Z</time>
      </trkpt>
      <trkpt lat="48.68061" lon="1.84481">
        <ele>175</ele>
        <time>2013-08-18T08:39:43Z</time>
      </trkpt>
      <trkpt lat="48.68058" lon="1.84483">
        <ele>175</ele>
        <time>2013-08-18T08:39:45Z</time>
      </trkpt>
      <trkpt lat="48.68056" lon="1.84486">
        <ele>175</ele>
        <time>2013-08-18T08:39:47Z</time>
      </trkpt>
      <trkpt lat="48.68054" lon="1.84491">
        <ele>175</ele>
        <time>2013-08-18T08:39:49Z</time>
      </trkpt>
      <trkpt lat="48.68053" lon="1.84495">
        <ele>175</ele>
        <time>2013-08-18T08:39:51Z</time>
      </trkpt>
      <trkpt lat="48.68049" lon="1.84498">
        <ele>175</ele>
        <time>2013-08-18T08:39:53Z</time>
      </trkpt>
      <trkpt lat="48.68047" lon="1.84501">
        <ele>175</ele>
        <time>2013-08-18T08:39:55Z</time>
      </trkpt>
      <trkpt lat="48.68045" lon="1.84505">
        <ele>175</ele>
        <time>2013-08-18T08:39:57Z</time>
      </trkpt>
      <trkpt lat="48.68043" lon="1.84509">
        <ele>175</ele>
        <time>2013-08-18T08:39:59Z</time>
      </trkpt>
      <trkpt lat="48.68042" lon="1.84515">
        <ele>175</ele>
        <time>2013-08-18T08:40:01Z</time>
      </trkpt>
      <trkpt lat="48.68041" lon="1.8452">
        <ele>175</ele>
        <time>2013-08-18T08:40:03Z</time>
      </trkpt>
      <trkpt lat="48.68038" lon="1.84524">
        <ele>175</ele>
        <time>2013-08-18T08:40:05Z</time>
      </trkpt>
      <trkpt lat="48.68037" lon="1.84528">
        <ele>175</ele>
        <time>2013-08-18T08:40:07Z</time>
      </trkpt>
      <trkpt lat="48.68035" lon="1.84532">
        <ele>175</ele>
        <time>2013-08-18T08:40:09Z</time>
      </trkpt>
      <trkpt lat="48.68034" lon="1.84536">
        <ele>175</ele>
        <time>2013-08-18T08:40:11Z</time>
      </trkpt>
      <trkpt lat="48.68033" lon="1.84541">
        <ele>175</ele>
        <time>2013-08-18T08:40:13Z</time>
      </trkpt>
      <trkpt lat="48.68032" lon="1.84546">
        <ele>175</ele>
        <time>2013-08-18T08:40:15Z</time>
      </trkpt>
      <trkpt lat="48.68031" lon="1.84551">
        <ele>175</ele>
        <time>2013-08-18T08:40:17Z</time>
      </trkpt>
      <trkpt lat="48.6803" lon="1.84555">
        <ele>175</ele>
        <time>2013-08-18T08:40:19Z</time>
      </trkpt>
      <trkpt lat="48.68027" lon="1.84559">
        <ele>175</ele>
        <time>2013-08-18T08:40:21Z</time>
      </trkpt>
      <trkpt lat="48.68025" lon="1.84562">
        <ele>175</ele>
        <time>2013-08-18T08:40:23Z</time>
      </trkpt>
      <trkpt lat="48.68022" lon="1.84564">
        <ele>175</ele>
        <time>2013-08-18T08:40:25Z</time>
      </trkpt>
      <trkpt lat="48.6802" lon="1.84568">
        <ele>175</ele>
        <time>2013-08-18T08:40:27Z</time>
      </trkpt>
      <trkpt lat="48.68018" lon="1.84572">
        <ele>175</ele>
        <time>2013-08-18T08:40:29Z</time>
      </trkpt>
      <trkpt lat="48.68016" lon="1.84576">
        <ele>175</ele>
        <time>2013-08-18T08:40:31Z</time>
      </trkpt>
      <trkpt lat="48.68014" lon="1.8458">
        <ele>175</ele>
        <time>2013-08-18T08:40:33Z</time>
      </trkpt>
      <trkpt lat="48.68012" lon="1.84585">
        <ele>175</ele>
        <time>2013-08-18T08:40:35Z</time>
      </trkpt>
      <trkpt lat="48.6801" lon="1.84588">
        <ele>175</ele>
        <time>2013-08-18T08:40:37Z</time>
      </trkpt>
      <trkpt lat="48.68007" lon="1.84593">
        <ele>175</ele>
        <time>2013-08-18T08:40:39Z</time>
      </trkpt>
      <trkpt lat="48.68005" lon="1.84598">
        <ele>175</ele>
        <time>2013-08-18T08:40:42Z</time>
      </trkpt>
      <trkpt lat="48.68002" lon="1.84602">
        <ele>175</ele>
        <time>2013-08-18T08:40:44Z</time>
      </trkpt>
      <trkpt lat="48.68" lon="1.84605">
        <ele>175</ele>
        <time>2013-08-18T08:40:46Z</time>
      </trkpt>
      <trkpt lat="48.67996" lon="1.84608">
        <ele>175</ele>
        <time>2013-08-18T08:40:48Z</time>
      </trkpt>
      <trkpt lat="48.67991" lon="1.84611">
        <ele>175</ele>
        <time>2013-08-18T08:40:50Z</time>
      </trkpt>
      <trkpt lat="48.67987" lon="1.84614">
        <ele>175</ele>
        <time>2013-08-18T08:40:52Z</time>
      </trkpt>
      <trkpt lat="48.67985" lon="1.84617">
        <ele>175</ele>
        <time>2013-08-18T08:40:54Z</time>
      </trkpt>
      <trkpt lat="48.67984" lon="1.84622">
        <ele>175</ele>
        <time>2013-08-18T08:40:56Z</time>
      </trkpt>
      <trkpt lat="48.67983" lon="1.84625">
        <ele>175</ele>
        <time>2013-08-18T08:40:58Z</time>
      </trkpt>
      <trkpt lat="48.67979" lon="1.8463">
        <ele>175</ele>
        <time>2013-08-18T08:41:01Z</time>
      </trkpt>
      <trkpt lat="48.67977" lon="1.84634">
        <ele>175</ele>
        <time>2013-08-18T08:41:03Z</time>
      </trkpt>
      <trkpt lat="48.67977" lon="1.84637">
        <ele>175</ele>
        <time>2013-08-18T08:41:05Z</time>
      </trkpt>
      <trkpt lat="48.67974" lon="1.84641">
        <ele>175</ele>
        <time>2013-08-18T08:41:07Z</time>
      </trkpt>
      <trkpt lat="48.67971" lon="1.84643">
        <ele>175</ele>
        <time>2013-08-18T08:41:09Z</time>
      </trkpt>
      <trkpt lat="48.67967" lon="1.84646">
        <ele>175</ele>
        <time>2013-08-18T08:41:11Z</time>
      </trkpt>
      <trkpt lat="48.67965" lon="1.84651">
        <ele>175</ele>
        <time>2013-08-18T08:41:13Z</time>
      </trkpt>
      <trkpt lat="48.67962" lon="1.84653">
        <ele>175</ele>
        <time>2013-08-18T08:41:15Z</time>
      </trkpt>
      <trkpt lat="48.67959" lon="1.84656">
        <ele>176</ele>
        <time>2013-08-18T08:41:17Z</time>
      </trkpt>
      <trkpt lat="48.67955" lon="1.84661">
        <ele>176</ele>
        <time>2013-08-18T08:41:19Z</time>
      </trkpt>
      <trkpt lat="48.67953" lon="1.84667">
        <ele>177</ele>
        <time>2013-08-18T08:41:21Z</time>
      </trkpt>
      <trkpt lat="48.67952" lon="1.84669">
        <ele>177</ele>
        <time>2013-08-18T08:41:23Z</time>
      </trkpt>
      <trkpt lat="48.67951" lon="1.84673">
        <ele>177</ele>
        <time>2013-08-18T08:41:25Z</time>
      </trkpt>
      <trkpt lat="48.6795" lon="1.84678">
        <ele>177</ele>
        <time>2013-08-18T08:41:27Z</time>
      </trkpt>
      <trkpt lat="48.67948" lon="1.84683">
        <ele>177</ele>
        <time>2013-08-18T08:41:30Z</time>
      </trkpt>
      <trkpt lat="48.67945" lon="1.84687">
        <ele>177</ele>
        <time>2013-08-18T08:41:32Z</time>
      </trkpt>
      <trkpt lat="48.67944" lon="1.8469">
        <ele>177</ele>
        <time>2013-08-18T08:41:34Z</time>
      </trkpt>
      <trkpt lat="48.67943" lon="1.84695">
        <ele>177</ele>
        <time>2013-08-18T08:41:36Z</time>
      </trkpt>
      <trkpt lat="48.67941" lon="1.84701">
        <ele>177</ele>
        <time>2013-08-18T08:41:38Z</time>
      </trkpt>
      <trkpt lat="48.67938" lon="1.84704">
        <ele>178</ele>
        <time>2013-08-18T08:41:40Z</time>
      </trkpt>
      <trkpt lat="48.67934" lon="1.84707">
        <ele>179</ele>
        <time>2013-08-18T08:41:42Z</time>
      </trkpt>
      <trkpt lat="48.67931" lon="1.8471">
        <ele>180</ele>
        <time>2013-08-18T08:41:45Z</time>
      </trkpt>
      <trkpt lat="48.67929" lon="1.84713">
        <ele>180</ele>
        <time>2013-08-18T08:41:47Z</time>
      </trkpt>
      <trkpt lat="48.67927" lon="1.84717">
        <ele>180</ele>
        <time>2013-08-18T08:41:49Z</time>
      </trkpt>
      <trkpt lat="48.67923" lon="1.84721">
        <ele>180</ele>
        <time>2013-08-18T08:41:51Z</time>
      </trkpt>
      <trkpt lat="48.6792" lon="1.84724">
        <ele>180</ele>
        <time>2013-08-18T08:41:53Z</time>
      </trkpt>
      <trkpt lat="48.67916" lon="1.84728">
        <ele>180</ele>
        <time>2013-08-18T08:41:55Z</time>
      </trkpt>
      <trkpt lat="48.67914" lon="1.84732">
        <ele>180</ele>
        <time>2013-08-18T08:41:57Z</time>
      </trkpt>
      <trkpt lat="48.67911" lon="1.84736">
        <ele>180</ele>
        <time>2013-08-18T08:41:59Z</time>
      </trkpt>
      <trkpt lat="48.67908" lon="1.8474">
        <ele>180</ele>
        <time>2013-08-18T08:42:01Z</time>
      </trkpt>
      <trkpt lat="48.67906" lon="1.84743">
        <ele>180</ele>
        <time>2013-08-18T08:42:03Z</time>
      </trkpt>
      <trkpt lat="48.67904" lon="1.84747">
        <ele>180</ele>
        <time>2013-08-18T08:42:05Z</time>
      </trkpt>
      <trkpt lat="48.67903" lon="1.84753">
        <ele>180</ele>
        <time>2013-08-18T08:42:07Z</time>
      </trkpt>
      <trkpt lat="48.67902" lon="1.84758">
        <ele>180</ele>
        <time>2013-08-18T08:42:10Z</time>
      </trkpt>
      <trkpt lat="48.679" lon="1.84765">
        <ele>180</ele>
        <time>2013-08-18T08:42:12Z</time>
      </trkpt>
      <trkpt lat="48.67897" lon="1.8477">
        <ele>180</ele>
        <time>2013-08-18T08:42:14Z</time>
      </trkpt>
      <trkpt lat="48.67893" lon="1.84774">
        <ele>180</ele>
        <time>2013-08-18T08:42:17Z</time>
      </trkpt>
      <trkpt lat="48.6789" lon="1.84778">
        <ele>180</ele>
        <time>2013-08-18T08:42:19Z</time>
      </trkpt>
      <trkpt lat="48.67888" lon="1.84782">
        <ele>180</ele>
        <time>2013-08-18T08:42:21Z</time>
      </trkpt>
      <trkpt lat="48.67885" lon="1.84785">
        <ele>180</ele>
        <time>2013-08-18T08:42:23Z</time>
      </trkpt>
      <trkpt lat="48.67883" lon="1.84788">
        <ele>180</ele>
        <time>2013-08-18T08:42:25Z</time>
      </trkpt>
      <trkpt lat="48.67879" lon="1.84793">
        <ele>180</ele>
        <time>2013-08-18T08:42:28Z</time>
      </trkpt>
      <trkpt lat="48.67877" lon="1.84797">
        <ele>180</ele>
        <time>2013-08-18T08:42:30Z</time>
      </trkpt>
      <trkpt lat="48.67874" lon="1.84802">
        <ele>180</ele>
        <time>2013-08-18T08:42:32Z</time>
      </trkpt>
      <trkpt lat="48.6787" lon="1.84807">
        <ele>180</ele>
        <time>2013-08-18T08:42:35Z</time>
      </trkpt>
      <trkpt lat="48.67867" lon="1.84811">
        <ele>180</ele>
        <time>2013-08-18T08:42:37Z</time>
      </trkpt>
      <trkpt lat="48.67865" lon="1.84816">
        <ele>180</ele>
        <time>2013-08-18T08:42:40Z</time>
      </trkpt>
      <trkpt lat="48.67864" lon="1.84819">
        <ele>180</ele>
        <time>2013-08-18T08:42:42Z</time>
      </trkpt>
      <trkpt lat="48.6786" lon="1.84824">
        <ele>180</ele>
        <time>2013-08-18T08:42:45Z</time>
      </trkpt>
      <trkpt lat="48.67857" lon="1.84827">
        <ele>180</ele>
        <time>2013-08-18T08:42:47Z</time>
      </trkpt>
      <trkpt lat="48.67854" lon="1.8483">
        <ele>180</ele>
        <time>2013-08-18T08:42:49Z</time>
      </trkpt>
      <trkpt lat="48.67851" lon="1.8483">
        <ele>180</ele>
        <time>2013-08-18T08:42:51Z</time>
      </trkpt>
      <trkpt lat="48.67847" lon="1.8483">
        <ele>180</ele>
        <time>2013-08-18T08:42:53Z</time>
      </trkpt>
      <trkpt lat="48.67843" lon="1.8483">
        <ele>180</ele>
        <time>2013-08-18T08:42:55Z</time>
      </trkpt>
      <trkpt lat="48.67839" lon="1.84829">
        <ele>180</ele>
        <time>2013-08-18T08:42:57Z</time>
      </trkpt>
      <trkpt lat="48.67835" lon="1.84827">
        <ele>180</ele>
        <time>2013-08-18T08:42:59Z</time>
      </trkpt>
      <trkpt lat="48.67831" lon="1.84825">
        <ele>180</ele>
        <time>2013-08-18T08:43:01Z</time>
      </trkpt>
      <trkpt lat="48.67828" lon="1.84823">
        <ele>180</ele>
        <time>2013-08-18T08:43:03Z</time>
      </trkpt>
      <trkpt lat="48.67825" lon="1.84821">
        <ele>180</ele>
        <time>2013-08-18T08:43:05Z</time>
      </trkpt>
      <trkpt lat="48.6782" lon="1.8482">
        <ele>180</ele>
        <time>2013-08-18T08:43:07Z</time>
      </trkpt>
      <trkpt lat="48.67817" lon="1.84819">
        <ele>180</ele>
        <time>2013-08-18T08:43:09Z</time>
      </trkpt>
      <trkpt lat="48.67812" lon="1.84818">
        <ele>180</ele>
        <time>2013-08-18T08:43:12Z</time>
      </trkpt>
      <trkpt lat="48.67809" lon="1.84818">
        <ele>180</ele>
        <time>2013-08-18T08:43:14Z</time>
      </trkpt>
      <trkpt lat="48.67805" lon="1.84817">
        <ele>180</ele>
        <time>2013-08-18T08:43:16Z</time>
      </trkpt>
      <trkpt lat="48.67802" lon="1.84814">
        <ele>180</ele>
        <time>2013-08-18T08:43:18Z</time>
      </trkpt>
      <trkpt lat="48.67797" lon="1.84812">
        <ele>180</ele>
        <time>2013-08-18T08:43:20Z</time>
      </trkpt>
      <trkpt lat="48.67795" lon="1.8481">
        <ele>180</ele>
        <time>2013-08-18T08:43:22Z</time>
      </trkpt>
      <trkpt lat="48.67792" lon="1.84808">
        <ele>180</ele>
        <time>2013-08-18T08:43:24Z</time>
      </trkpt>
      <trkpt lat="48.67788" lon="1.84807">
        <ele>179</ele>
        <time>2013-08-18T08:43:26Z</time>
      </trkpt>
      <trkpt lat="48.67785" lon="1.84804">
        <ele>179</ele>
        <time>2013-08-18T08:43:28Z</time>
      </trkpt>
      <trkpt lat="48.67782" lon="1.84803">
        <ele>178</ele>
        <time>2013-08-18T08:43:30Z</time>
      </trkpt>
      <trkpt lat="48.67779" lon="1.84802">
        <ele>178</ele>
        <time>2013-08-18T08:43:32Z</time>
      </trkpt>
      <trkpt lat="48.67776" lon="1.848">
        <ele>177</ele>
        <time>2013-08-18T08:43:34Z</time>
      </trkpt>
      <trkpt lat="48.67773" lon="1.84798">
        <ele>176</ele>
        <time>2013-08-18T08:43:36Z</time>
      </trkpt>
      <trkpt lat="48.67769" lon="1.84795">
        <ele>175</ele>
        <time>2013-08-18T08:43:39Z</time>
      </trkpt>
      <trkpt lat="48.67766" lon="1.84793">
        <ele>175</ele>
        <time>2013-08-18T08:43:41Z</time>
      </trkpt>
      <trkpt lat="48.67763" lon="1.84792">
        <ele>175</ele>
        <time>2013-08-18T08:43:43Z</time>
      </trkpt>
      <trkpt lat="48.67761" lon="1.84791">
        <ele>174</ele>
        <time>2013-08-18T08:43:45Z</time>
      </trkpt>
      <trkpt lat="48.67757" lon="1.8479">
        <ele>174</ele>
        <time>2013-08-18T08:43:47Z</time>
      </trkpt>
      <trkpt lat="48.67755" lon="1.84789">
        <ele>173</ele>
        <time>2013-08-18T08:43:49Z</time>
      </trkpt>
      <trkpt lat="48.67752" lon="1.84787">
        <ele>172</ele>
        <time>2013-08-18T08:43:51Z</time>
      </trkpt>
      <trkpt lat="48.67749" lon="1.84785">
        <ele>172</ele>
        <time>2013-08-18T08:43:53Z</time>
      </trkpt>
      <trkpt lat="48.67745" lon="1.84784">
        <ele>172</ele>
        <time>2013-08-18T08:43:55Z</time>
      </trkpt>
      <trkpt lat="48.67741" lon="1.84782">
        <ele>172</ele>
        <time>2013-08-18T08:43:57Z</time>
      </trkpt>
      <trkpt lat="48.67739" lon="1.8478">
        <ele>171</ele>
        <time>2013-08-18T08:43:59Z</time>
      </trkpt>
      <trkpt lat="48.67736" lon="1.84778">
        <ele>171</ele>
        <time>2013-08-18T08:44:01Z</time>
      </trkpt>
      <trkpt lat="48.67732" lon="1.84776">
        <ele>170</ele>
        <time>2013-08-18T08:44:03Z</time>
      </trkpt>
      <trkpt lat="48.67729" lon="1.84774">
        <ele>170</ele>
        <time>2013-08-18T08:44:05Z</time>
      </trkpt>
      <trkpt lat="48.67726" lon="1.84772">
        <ele>170</ele>
        <time>2013-08-18T08:44:07Z</time>
      </trkpt>
      <trkpt lat="48.67723" lon="1.8477">
        <ele>170</ele>
        <time>2013-08-18T08:44:09Z</time>
      </trkpt>
      <trkpt lat="48.67721" lon="1.84768">
        <ele>170</ele>
        <time>2013-08-18T08:44:11Z</time>
      </trkpt>
      <trkpt lat="48.67717" lon="1.84766">
        <ele>169</ele>
        <time>2013-08-18T08:44:14Z</time>
      </trkpt>
      <trkpt lat="48.67714" lon="1.84764">
        <ele>168</ele>
        <time>2013-08-18T08:44:16Z</time>
      </trkpt>
      <trkpt lat="48.6771" lon="1.84763">
        <ele>168</ele>
        <time>2013-08-18T08:44:18Z</time>
      </trkpt>
      <trkpt lat="48.67707" lon="1.84761">
        <ele>168</ele>
        <time>2013-08-18T08:44:20Z</time>
      </trkpt>
      <trkpt lat="48.67704" lon="1.84759">
        <ele>168</ele>
        <time>2013-08-18T08:44:22Z</time>
      </trkpt>
      <trkpt lat="48.67701" lon="1.84757">
        <ele>168</ele>
        <time>2013-08-18T08:44:24Z</time>
      </trkpt>
      <trkpt lat="48.67698" lon="1.84756">
        <ele>168</ele>
        <time>2013-08-18T08:44:26Z</time>
      </trkpt>
      <trkpt lat="48.67695" lon="1.84754">
        <ele>168</ele>
        <time>2013-08-18T08:44:28Z</time>
      </trkpt>
      <trkpt lat="48.67692" lon="1.84753">
        <ele>167</ele>
        <time>2013-08-18T08:44:30Z</time>
      </trkpt>
      <trkpt lat="48.67688" lon="1.84751">
        <ele>167</ele>
        <time>2013-08-18T08:44:32Z</time>
      </trkpt>
      <trkpt lat="48.67684" lon="1.84749">
        <ele>167</ele>
        <time>2013-08-18T08:44:34Z</time>
      </trkpt>
      <trkpt lat="48.67678" lon="1.84746">
        <ele>167</ele>
        <time>2013-08-18T08:44:37Z</time>
      </trkpt>
      <trkpt lat="48.67675" lon="1.84745">
        <ele>167</ele>
        <time>2013-08-18T08:44:39Z</time>
      </trkpt>
      <trkpt lat="48.67671" lon="1.84743">
        <ele>167</ele>
        <time>2013-08-18T08:44:41Z</time>
      </trkpt>
      <trkpt lat="48.67666" lon="1.8474">
        <ele>167</ele>
        <time>2013-08-18T08:44:45Z</time>
      </trkpt>
      <trkpt lat="48.67663" lon="1.84737">
        <ele>167</ele>
        <time>2013-08-18T08:44:47Z</time>
      </trkpt>
      <trkpt lat="48.67657" lon="1.84733">
        <ele>167</ele>
        <time>2013-08-18T08:44:51Z</time>
      </trkpt>
      <trkpt lat="48.67654" lon="1.84732">
        <ele>167</ele>
        <time>2013-08-18T08:44:53Z</time>
      </trkpt>
      <trkpt lat="48.67648" lon="1.84731">
        <ele>167</ele>
        <time>2013-08-18T08:44:56Z</time>
      </trkpt>
      <trkpt lat="48.67643" lon="1.8473">
        <ele>167</ele>
        <time>2013-08-18T08:44:58Z</time>
      </trkpt>
      <trkpt lat="48.6764" lon="1.84728">
        <ele>167</ele>
        <time>2013-08-18T08:45:00Z</time>
      </trkpt>
      <trkpt lat="48.67634" lon="1.84727">
        <ele>167</ele>
        <time>2013-08-18T08:45:03Z</time>
      </trkpt>
      <trkpt lat="48.67631" lon="1.84726">
        <ele>167</ele>
        <time>2013-08-18T08:45:05Z</time>
      </trkpt>
      <trkpt lat="48.67625" lon="1.84723">
        <ele>168</ele>
        <time>2013-08-18T08:45:08Z</time>
      </trkpt>
      <trkpt lat="48.67622" lon="1.84722">
        <ele>168</ele>
        <time>2013-08-18T08:45:10Z</time>
      </trkpt>
      <trkpt lat="48.67619" lon="1.84721">
        <ele>169</ele>
        <time>2013-08-18T08:45:12Z</time>
      </trkpt>
      <trkpt lat="48.67613" lon="1.84719">
        <ele>169</ele>
        <time>2013-08-18T08:45:15Z</time>
      </trkpt>
      <trkpt lat="48.6761" lon="1.84718">
        <ele>170</ele>
        <time>2013-08-18T08:45:17Z</time>
      </trkpt>
      <trkpt lat="48.67606" lon="1.84717">
        <ele>170</ele>
        <time>2013-08-18T08:45:19Z</time>
      </trkpt>
      <trkpt lat="48.67604" lon="1.84714">
        <ele>170</ele>
        <time>2013-08-18T08:45:21Z</time>
      </trkpt>
      <trkpt lat="48.676" lon="1.84711">
        <ele>170</ele>
        <time>2013-08-18T08:45:24Z</time>
      </trkpt>
      <trkpt lat="48.67597" lon="1.84711">
        <ele>170</ele>
        <time>2013-08-18T08:45:26Z</time>
      </trkpt>
      <trkpt lat="48.67594" lon="1.84709">
        <ele>170</ele>
        <time>2013-08-18T08:45:28Z</time>
      </trkpt>
      <trkpt lat="48.6759" lon="1.84705">
        <ele>170</ele>
        <time>2013-08-18T08:45:31Z</time>
      </trkpt>
      <trkpt lat="48.67588" lon="1.84704">
        <ele>170</ele>
        <time>2013-08-18T08:45:33Z</time>
      </trkpt>
      <trkpt lat="48.67584" lon="1.84701">
        <ele>170</ele>
        <time>2013-08-18T08:45:36Z</time>
      </trkpt>
      <trkpt lat="48.6758" lon="1.847">
        <ele>170</ele>
        <time>2013-08-18T08:45:38Z</time>
      </trkpt>
      <trkpt lat="48.67577" lon="1.84696">
        <ele>170</ele>
        <time>2013-08-18T08:45:40Z</time>
      </trkpt>
      <trkpt lat="48.67574" lon="1.84695">
        <ele>170</ele>
        <time>2013-08-18T08:45:42Z</time>
      </trkpt>
      <trkpt lat="48.67571" lon="1.84692">
        <ele>170</ele>
        <time>2013-08-18T08:45:44Z</time>
      </trkpt>
      <trkpt lat="48.67566" lon="1.8469">
        <ele>170</ele>
        <time>2013-08-18T08:45:47Z</time>
      </trkpt>
      <trkpt lat="48.67562" lon="1.84688">
        <ele>170</ele>
        <time>2013-08-18T08:45:49Z</time>
      </trkpt>
      <trkpt lat="48.67561" lon="1.84686">
        <ele>170</ele>
        <time>2013-08-18T08:45:51Z</time>
      </trkpt>
      <trkpt lat="48.67557" lon="1.84685">
        <ele>169</ele>
        <time>2013-08-18T08:45:53Z</time>
      </trkpt>
      <trkpt lat="48.67552" lon="1.84684">
        <ele>169</ele>
        <time>2013-08-18T08:45:55Z</time>
      </trkpt>
      <trkpt lat="48.67548" lon="1.84683">
        <ele>169</ele>
        <time>2013-08-18T08:45:57Z</time>
      </trkpt>
      <trkpt lat="48.67545" lon="1.84681">
        <ele>169</ele>
        <time>2013-08-18T08:45:59Z</time>
      </trkpt>
      <trkpt lat="48.67542" lon="1.8468">
        <ele>169</ele>
        <time>2013-08-18T08:46:01Z</time>
      </trkpt>
      <trkpt lat="48.67538" lon="1.84678">
        <ele>169</ele>
        <time>2013-08-18T08:46:03Z</time>
      </trkpt>
      <trkpt lat="48.67534" lon="1.84678">
        <ele>169</ele>
        <time>2013-08-18T08:46:05Z</time>
      </trkpt>
      <trkpt lat="48.67532" lon="1.84677">
        <ele>169</ele>
        <time>2013-08-18T08:46:07Z</time>
      </trkpt>
      <trkpt lat="48.67529" lon="1.84675">
        <ele>169</ele>
        <time>2013-08-18T08:46:09Z</time>
      </trkpt>
      <trkpt lat="48.67525" lon="1.84673">
        <ele>169</ele>
        <time>2013-08-18T08:46:11Z</time>
      </trkpt>
      <trkpt lat="48.6752" lon="1.84671">
        <ele>169</ele>
        <time>2013-08-18T08:46:14Z</time>
      </trkpt>
      <trkpt lat="48.67516" lon="1.84669">
        <ele>169</ele>
        <time>2013-08-18T08:46:16Z</time>
      </trkpt>
      <trkpt lat="48.67513" lon="1.84667">
        <ele>169</ele>
        <time>2013-08-18T08:46:18Z</time>
      </trkpt>
      <trkpt lat="48.67509" lon="1.84668">
        <ele>169</ele>
        <time>2013-08-18T08:46:20Z</time>
      </trkpt>
      <trkpt lat="48.67506" lon="1.8467">
        <ele>170</ele>
        <time>2013-08-18T08:46:22Z</time>
      </trkpt>
      <trkpt lat="48.67504" lon="1.84673">
        <ele>171</ele>
        <time>2013-08-18T08:46:24Z</time>
      </trkpt>
      <trkpt lat="48.67503" lon="1.84677">
        <ele>172</ele>
        <time>2013-08-18T08:46:26Z</time>
      </trkpt>
      <trkpt lat="48.67503" lon="1.84682">
        <ele>172</ele>
        <time>2013-08-18T08:46:29Z</time>
      </trkpt>
      <trkpt lat="48.67503" lon="1.84687">
        <ele>172</ele>
        <time>2013-08-18T08:46:31Z</time>
      </trkpt>
      <trkpt lat="48.67502" lon="1.84691">
        <ele>172</ele>
        <time>2013-08-18T08:46:33Z</time>
      </trkpt>
      <trkpt lat="48.67502" lon="1.84698">
        <ele>172</ele>
        <time>2013-08-18T08:46:36Z</time>
      </trkpt>
      <trkpt lat="48.67501" lon="1.84705">
        <ele>172</ele>
        <time>2013-08-18T08:46:39Z</time>
      </trkpt>
      <trkpt lat="48.67501" lon="1.8471">
        <ele>172</ele>
        <time>2013-08-18T08:46:41Z</time>
      </trkpt>
      <trkpt lat="48.675" lon="1.84716">
        <ele>172</ele>
        <time>2013-08-18T08:46:44Z</time>
      </trkpt>
      <trkpt lat="48.675" lon="1.84722">
        <ele>172</ele>
        <time>2013-08-18T08:46:46Z</time>
      </trkpt>
      <trkpt lat="48.675" lon="1.84728">
        <ele>172</ele>
        <time>2013-08-18T08:46:48Z</time>
      </trkpt>
      <trkpt lat="48.675" lon="1.84734">
        <ele>172</ele>
        <time>2013-08-18T08:46:51Z</time>
      </trkpt>
      <trkpt lat="48.67499" lon="1.84739">
        <ele>172</ele>
        <time>2013-08-18T08:46:53Z</time>
      </trkpt>
      <trkpt lat="48.67498" lon="1.84746">
        <ele>172</ele>
        <time>2013-08-18T08:46:56Z</time>
      </trkpt>
      <trkpt lat="48.67498" lon="1.84754">
        <ele>172</ele>
        <time>2013-08-18T08:46:59Z</time>
      </trkpt>
      <trkpt lat="48.67498" lon="1.84759">
        <ele>173</ele>
        <time>2013-08-18T08:47:01Z</time>
      </trkpt>
      <trkpt lat="48.67498" lon="1.84764">
        <ele>173</ele>
        <time>2013-08-18T08:47:03Z</time>
      </trkpt>
      <trkpt lat="48.67498" lon="1.84768">
        <ele>174</ele>
        <time>2013-08-18T08:47:05Z</time>
      </trkpt>
      <trkpt lat="48.67498" lon="1.84774">
        <ele>175</ele>
        <time>2013-08-18T08:47:07Z</time>
      </trkpt>
      <trkpt lat="48.67498" lon="1.84779">
        <ele>175</ele>
        <time>2013-08-18T08:47:09Z</time>
      </trkpt>
      <trkpt lat="48.67498" lon="1.84783">
        <ele>175</ele>
        <time>2013-08-18T08:47:11Z</time>
      </trkpt>
      <trkpt lat="48.67497" lon="1.8479">
        <ele>175</ele>
        <time>2013-08-18T08:47:14Z</time>
      </trkpt>
      <trkpt lat="48.67497" lon="1.84794">
        <ele>175</ele>
        <time>2013-08-18T08:47:16Z</time>
      </trkpt>
      <trkpt lat="48.67497" lon="1.84799">
        <ele>175</ele>
        <time>2013-08-18T08:47:18Z</time>
      </trkpt>
      <trkpt lat="48.67497" lon="1.84804">
        <ele>175</ele>
        <time>2013-08-18T08:47:20Z</time>
      </trkpt>
      <trkpt lat="48.67497" lon="1.8481">
        <ele>175</ele>
        <time>2013-08-18T08:47:22Z</time>
      </trkpt>
      <trkpt lat="48.67496" lon="1.84815">
        <ele>175</ele>
        <time>2013-08-18T08:47:25Z</time>
      </trkpt>
      <trkpt lat="48.67495" lon="1.84819">
        <ele>175</ele>
        <time>2013-08-18T08:47:27Z</time>
      </trkpt>
      <trkpt lat="48.67495" lon="1.84827">
        <ele>175</ele>
        <time>2013-08-18T08:47:30Z</time>
      </trkpt>
      <trkpt lat="48.67495" lon="1.84832">
        <ele>175</ele>
        <time>2013-08-18T08:47:32Z</time>
      </trkpt>
      <trkpt lat="48.67496" lon="1.84839">
        <ele>175</ele>
        <time>2013-08-18T08:47:35Z</time>
      </trkpt>
      <trkpt lat="48.67496" lon="1.84844">
        <ele>175</ele>
        <time>2013-08-18T08:47:37Z</time>
      </trkpt>
      <trkpt lat="48.67496" lon="1.84851">
        <ele>175</ele>
        <time>2013-08-18T08:47:40Z</time>
      </trkpt>
      <trkpt lat="48.67496" lon="1.84855">
        <ele>175</ele>
        <time>2013-08-18T08:47:42Z</time>
      </trkpt>
      <trkpt lat="48.67495" lon="1.84861">
        <ele>175</ele>
        <time>2013-08-18T08:47:45Z</time>
      </trkpt>
      <trkpt lat="48.67495" lon="1.84865">
        <ele>175</ele>
        <time>2013-08-18T08:47:47Z</time>
      </trkpt>
      <trkpt lat="48.67495" lon="1.84873">
        <ele>175</ele>
        <time>2013-08-18T08:47:50Z</time>
      </trkpt>
      <trkpt lat="48.67494" lon="1.84877">
        <ele>175</ele>
        <time>2013-08-18T08:47:52Z</time>
      </trkpt>
      <trkpt lat="48.67493" lon="1.84883">
        <ele>175</ele>
        <time>2013-08-18T08:47:55Z</time>
      </trkpt>
      <trkpt lat="48.67493" lon="1.84888">
        <ele>175</ele>
        <time>2013-08-18T08:47:57Z</time>
      </trkpt>
      <trkpt lat="48.67493" lon="1.84896">
        <ele>175</ele>
        <time>2013-08-18T08:48:00Z</time>
      </trkpt>
      <trkpt lat="48.67492" lon="1.849">
        <ele>175</ele>
        <time>2013-08-18T08:48:02Z</time>
      </trkpt>
      <trkpt lat="48.67492" lon="1.84906">
        <ele>175</ele>
        <time>2013-08-18T08:48:05Z</time>
      </trkpt>
      <trkpt lat="48.67491" lon="1.84912">
        <ele>175</ele>
        <time>2013-08-18T08:48:07Z</time>
      </trkpt>
      <trkpt lat="48.67491" lon="1.84918">
        <ele>175</ele>
        <time>2013-08-18T08:48:10Z</time>
      </trkpt>
      <trkpt lat="48.67491" lon="1.84923">
        <ele>175</ele>
        <time>2013-08-18T08:48:12Z</time>
      </trkpt>
      <trkpt lat="48.6749" lon="1.84931">
        <ele>175</ele>
        <time>2013-08-18T08:48:15Z</time>
      </trkpt>
      <trkpt lat="48.67489" lon="1.84935">
        <ele>175</ele>
        <time>2013-08-18T08:48:17Z</time>
      </trkpt>
      <trkpt lat="48.67488" lon="1.84943">
        <ele>175</ele>
        <time>2013-08-18T08:48:20Z</time>
      </trkpt>
      <trkpt lat="48.67487" lon="1.84948">
        <ele>175</ele>
        <time>2013-08-18T08:48:22Z</time>
      </trkpt>
      <trkpt lat="48.67487" lon="1.84955">
        <ele>175</ele>
        <time>2013-08-18T08:48:25Z</time>
      </trkpt>
      <trkpt lat="48.67487" lon="1.84959">
        <ele>175</ele>
        <time>2013-08-18T08:48:27Z</time>
      </trkpt>
      <trkpt lat="48.67487" lon="1.84965">
        <ele>175</ele>
        <time>2013-08-18T08:48:30Z</time>
      </trkpt>
      <trkpt lat="48.67487" lon="1.84971">
        <ele>175</ele>
        <time>2013-08-18T08:48:32Z</time>
      </trkpt>
      <trkpt lat="48.67486" lon="1.84978">
        <ele>175</ele>
        <time>2013-08-18T08:48:35Z</time>
      </trkpt>
      <trkpt lat="48.67485" lon="1.84984">
        <ele>174</ele>
        <time>2013-08-18T08:48:37Z</time>
      </trkpt>
      <trkpt lat="48.67486" lon="1.84991">
        <ele>173</ele>
        <time>2013-08-18T08:48:40Z</time>
      </trkpt>
      <trkpt lat="48.67486" lon="1.84996">
        <ele>172</ele>
        <time>2013-08-18T08:48:42Z</time>
      </trkpt>
      <trkpt lat="48.67486" lon="1.85">
        <ele>172</ele>
        <time>2013-08-18T08:48:44Z</time>
      </trkpt>
      <trkpt lat="48.67486" lon="1.85004">
        <ele>172</ele>
        <time>2013-08-18T08:48:46Z</time>
      </trkpt>
      <trkpt lat="48.67485" lon="1.85007">
        <ele>172</ele>
        <time>2013-08-18T08:48:48Z</time>
      </trkpt>
      <trkpt lat="48.67483" lon="1.85027">
        <ele>172</ele>
        <time>2013-08-18T08:48:58Z</time>
      </trkpt>
      <trkpt lat="48.67485" lon="1.85031">
        <ele>172</ele>
        <time>2013-08-18T08:49:00Z</time>
      </trkpt>
      <trkpt lat="48.67484" lon="1.85038">
        <ele>172</ele>
        <time>2013-08-18T08:49:03Z</time>
      </trkpt>
      <trkpt lat="48.67483" lon="1.85043">
        <ele>171</ele>
        <time>2013-08-18T08:49:08Z</time>
      </trkpt>
      <trkpt lat="48.67484" lon="1.85047">
        <ele>169</ele>
        <time>2013-08-18T08:49:11Z</time>
      </trkpt>
      <trkpt lat="48.67484" lon="1.85051">
        <ele>169</ele>
        <time>2013-08-18T08:49:13Z</time>
      </trkpt>
      <trkpt lat="48.67483" lon="1.85058">
        <ele>169</ele>
        <time>2013-08-18T08:49:16Z</time>
      </trkpt>
      <trkpt lat="48.67482" lon="1.85063">
        <ele>169</ele>
        <time>2013-08-18T08:49:18Z</time>
      </trkpt>
      <trkpt lat="48.67481" lon="1.8507">
        <ele>169</ele>
        <time>2013-08-18T08:49:21Z</time>
      </trkpt>
      <trkpt lat="48.6748" lon="1.85075">
        <ele>169</ele>
        <time>2013-08-18T08:49:23Z</time>
      </trkpt>
      <trkpt lat="48.67481" lon="1.85082">
        <ele>169</ele>
        <time>2013-08-18T08:49:26Z</time>
      </trkpt>
      <trkpt lat="48.67482" lon="1.85087">
        <ele>169</ele>
        <time>2013-08-18T08:49:28Z</time>
      </trkpt>
      <trkpt lat="48.67482" lon="1.85095">
        <ele>169</ele>
        <time>2013-08-18T08:49:31Z</time>
      </trkpt>
      <trkpt lat="48.67482" lon="1.85099">
        <ele>169</ele>
        <time>2013-08-18T08:49:33Z</time>
      </trkpt>
      <trkpt lat="48.67481" lon="1.85105">
        <ele>169</ele>
        <time>2013-08-18T08:49:36Z</time>
      </trkpt>
      <trkpt lat="48.67481" lon="1.85109">
        <ele>169</ele>
        <time>2013-08-18T08:49:38Z</time>
      </trkpt>
      <trkpt lat="48.6748" lon="1.85118">
        <ele>169</ele>
        <time>2013-08-18T08:49:41Z</time>
      </trkpt>
      <trkpt lat="48.67479" lon="1.85124">
        <ele>169</ele>
        <time>2013-08-18T08:49:43Z</time>
      </trkpt>
      <trkpt lat="48.67479" lon="1.85131">
        <ele>169</ele>
        <time>2013-08-18T08:49:46Z</time>
      </trkpt>
      <trkpt lat="48.67478" lon="1.85135">
        <ele>169</ele>
        <time>2013-08-18T08:49:48Z</time>
      </trkpt>
      <trkpt lat="48.67477" lon="1.8514">
        <ele>169</ele>
        <time>2013-08-18T08:49:50Z</time>
      </trkpt>
      <trkpt lat="48.67477" lon="1.85147">
        <ele>169</ele>
        <time>2013-08-18T08:49:54Z</time>
      </trkpt>
      <trkpt lat="48.67477" lon="1.85159">
        <ele>169</ele>
        <time>2013-08-18T08:49:59Z</time>
      </trkpt>
      <trkpt lat="48.67478" lon="1.85164">
        <ele>169</ele>
        <time>2013-08-18T08:50:02Z</time>
      </trkpt>
      <trkpt lat="48.67478" lon="1.85168">
        <ele>169</ele>
        <time>2013-08-18T08:50:04Z</time>
      </trkpt>
      <trkpt lat="48.67478" lon="1.85172">
        <ele>169</ele>
        <time>2013-08-18T08:50:07Z</time>
      </trkpt>
      <trkpt lat="48.67477" lon="1.85174">
        <ele>169</ele>
        <time>2013-08-18T08:50:09Z</time>
      </trkpt>
      <trkpt lat="48.67479" lon="1.85175">
        <ele>169</ele>
        <time>2013-08-18T08:50:12Z</time>
      </trkpt>
      <trkpt lat="48.6748" lon="1.85177">
        <ele>169</ele>
        <time>2013-08-18T08:50:15Z</time>
      </trkpt>
      <trkpt lat="48.67482" lon="1.85177">
        <ele>169</ele>
        <time>2013-08-18T08:50:20Z</time>
      </trkpt>
      <trkpt lat="48.67486" lon="1.85177">
        <ele>169</ele>
        <time>2013-08-18T08:50:23Z</time>
      </trkpt>
      <trkpt lat="48.67489" lon="1.85178">
        <ele>169</ele>
        <time>2013-08-18T08:50:25Z</time>
      </trkpt>
      <trkpt lat="48.67493" lon="1.85178">
        <ele>169</ele>
        <time>2013-08-18T08:50:28Z</time>
      </trkpt>
      <trkpt lat="48.67496" lon="1.85179">
        <ele>169</ele>
        <time>2013-08-18T08:50:30Z</time>
      </trkpt>
      <trkpt lat="48.67499" lon="1.85181">
        <ele>169</ele>
        <time>2013-08-18T08:50:32Z</time>
      </trkpt>
      <trkpt lat="48.67502" lon="1.85184">
        <ele>169</ele>
        <time>2013-08-18T08:50:34Z</time>
      </trkpt>
      <trkpt lat="48.67505" lon="1.85185">
        <ele>169</ele>
        <time>2013-08-18T08:50:36Z</time>
      </trkpt>
      <trkpt lat="48.67508" lon="1.85187">
        <ele>169</ele>
        <time>2013-08-18T08:50:38Z</time>
      </trkpt>
      <trkpt lat="48.67511" lon="1.85188">
        <ele>169</ele>
        <time>2013-08-18T08:50:40Z</time>
      </trkpt>
      <trkpt lat="48.67515" lon="1.8519">
        <ele>169</ele>
        <time>2013-08-18T08:50:43Z</time>
      </trkpt>
      <trkpt lat="48.67518" lon="1.85192">
        <ele>169</ele>
        <time>2013-08-18T08:50:45Z</time>
      </trkpt>
      <trkpt lat="48.67522" lon="1.85193">
        <ele>169</ele>
        <time>2013-08-18T08:50:48Z</time>
      </trkpt>
      <trkpt lat="48.67525" lon="1.85193">
        <ele>169</ele>
        <time>2013-08-18T08:50:50Z</time>
      </trkpt>
      <trkpt lat="48.67529" lon="1.85195">
        <ele>169</ele>
        <time>2013-08-18T08:50:53Z</time>
      </trkpt>
      <trkpt lat="48.67532" lon="1.85196">
        <ele>169</ele>
        <time>2013-08-18T08:50:55Z</time>
      </trkpt>
      <trkpt lat="48.67536" lon="1.85198">
        <ele>169</ele>
        <time>2013-08-18T08:50:58Z</time>
      </trkpt>
      <trkpt lat="48.67539" lon="1.85199">
        <ele>169</ele>
        <time>2013-08-18T08:51:00Z</time>
      </trkpt>
      <trkpt lat="48.67542" lon="1.85201">
        <ele>169</ele>
        <time>2013-08-18T08:51:03Z</time>
      </trkpt>
      <trkpt lat="48.67545" lon="1.85202">
        <ele>169</ele>
        <time>2013-08-18T08:51:05Z</time>
      </trkpt>
      <trkpt lat="48.67549" lon="1.85203">
        <ele>169</ele>
        <time>2013-08-18T08:51:08Z</time>
      </trkpt>
      <trkpt lat="48.67552" lon="1.85205">
        <ele>169</ele>
        <time>2013-08-18T08:51:10Z</time>
      </trkpt>
      <trkpt lat="48.67561" lon="1.85209">
        <ele>169</ele>
        <time>2013-08-18T08:51:13Z</time>
      </trkpt>
      <trkpt lat="48.67564" lon="1.85209">
        <ele>169</ele>
        <time>2013-08-18T08:51:15Z</time>
      </trkpt>
      <trkpt lat="48.67568" lon="1.8521">
        <ele>169</ele>
        <time>2013-08-18T08:51:18Z</time>
      </trkpt>
      <trkpt lat="48.67572" lon="1.85211">
        <ele>169</ele>
        <time>2013-08-18T08:51:20Z</time>
      </trkpt>
      <trkpt lat="48.67575" lon="1.85212">
        <ele>169</ele>
        <time>2013-08-18T08:51:24Z</time>
      </trkpt>
      <trkpt lat="48.67578" lon="1.85212">
        <ele>169</ele>
        <time>2013-08-18T08:51:26Z</time>
      </trkpt>
      <trkpt lat="48.67581" lon="1.85213">
        <ele>169</ele>
        <time>2013-08-18T08:51:28Z</time>
      </trkpt>
      <trkpt lat="48.67584" lon="1.85215">
        <ele>169</ele>
        <time>2013-08-18T08:51:30Z</time>
      </trkpt>
      <trkpt lat="48.67587" lon="1.85215">
        <ele>169</ele>
        <time>2013-08-18T08:51:33Z</time>
      </trkpt>
      <trkpt lat="48.6759" lon="1.85216">
        <ele>169</ele>
        <time>2013-08-18T08:51:35Z</time>
      </trkpt>
      <trkpt lat="48.67595" lon="1.85219">
        <ele>169</ele>
        <time>2013-08-18T08:51:39Z</time>
      </trkpt>
      <trkpt lat="48.67597" lon="1.85221">
        <ele>169</ele>
        <time>2013-08-18T08:51:41Z</time>
      </trkpt>
      <trkpt lat="48.676" lon="1.85222">
        <ele>169</ele>
        <time>2013-08-18T08:51:43Z</time>
      </trkpt>
      <trkpt lat="48.67604" lon="1.85224">
        <ele>169</ele>
        <time>2013-08-18T08:51:45Z</time>
      </trkpt>
      <trkpt lat="48.67606" lon="1.85225">
        <ele>169</ele>
        <time>2013-08-18T08:51:47Z</time>
      </trkpt>
      <trkpt lat="48.6761" lon="1.85227">
        <ele>169</ele>
        <time>2013-08-18T08:51:49Z</time>
      </trkpt>
      <trkpt lat="48.67614" lon="1.85228">
        <ele>169</ele>
        <time>2013-08-18T08:51:51Z</time>
      </trkpt>
      <trkpt lat="48.67617" lon="1.85229">
        <ele>169</ele>
        <time>2013-08-18T08:51:53Z</time>
      </trkpt>
      <trkpt lat="48.6762" lon="1.85231">
        <ele>169</ele>
        <time>2013-08-18T08:51:55Z</time>
      </trkpt>
      <trkpt lat="48.67625" lon="1.85233">
        <ele>169</ele>
        <time>2013-08-18T08:51:58Z</time>
      </trkpt>
      <trkpt lat="48.67628" lon="1.85234">
        <ele>169</ele>
        <time>2013-08-18T08:52:00Z</time>
      </trkpt>
      <trkpt lat="48.67634" lon="1.85236">
        <ele>169</ele>
        <time>2013-08-18T08:52:03Z</time>
      </trkpt>
      <trkpt lat="48.67637" lon="1.85238">
        <ele>169</ele>
        <time>2013-08-18T08:52:05Z</time>
      </trkpt>
      <trkpt lat="48.67642" lon="1.85239">
        <ele>169</ele>
        <time>2013-08-18T08:52:08Z</time>
      </trkpt>
      <trkpt lat="48.67645" lon="1.85241">
        <ele>169</ele>
        <time>2013-08-18T08:52:10Z</time>
      </trkpt>
      <trkpt lat="48.67648" lon="1.85242">
        <ele>169</ele>
        <time>2013-08-18T08:52:13Z</time>
      </trkpt>
      <trkpt lat="48.67652" lon="1.85243">
        <ele>169</ele>
        <time>2013-08-18T08:52:15Z</time>
      </trkpt>
      <trkpt lat="48.67656" lon="1.85245">
        <ele>169</ele>
        <time>2013-08-18T08:52:18Z</time>
      </trkpt>
      <trkpt lat="48.67659" lon="1.85247">
        <ele>169</ele>
        <time>2013-08-18T08:52:20Z</time>
      </trkpt>
      <trkpt lat="48.67663" lon="1.85249">
        <ele>169</ele>
        <time>2013-08-18T08:52:23Z</time>
      </trkpt>
      <trkpt lat="48.67665" lon="1.85251">
        <ele>169</ele>
        <time>2013-08-18T08:52:25Z</time>
      </trkpt>
      <trkpt lat="48.6767" lon="1.85252">
        <ele>169</ele>
        <time>2013-08-18T08:52:28Z</time>
      </trkpt>
      <trkpt lat="48.67673" lon="1.85253">
        <ele>169</ele>
        <time>2013-08-18T08:52:30Z</time>
      </trkpt>
      <trkpt lat="48.67678" lon="1.85256">
        <ele>169</ele>
        <time>2013-08-18T08:52:33Z</time>
      </trkpt>
      <trkpt lat="48.67681" lon="1.85257">
        <ele>169</ele>
        <time>2013-08-18T08:52:35Z</time>
      </trkpt>
      <trkpt lat="48.67687" lon="1.85259">
        <ele>169</ele>
        <time>2013-08-18T08:52:38Z</time>
      </trkpt>
      <trkpt lat="48.6769" lon="1.8526">
        <ele>169</ele>
        <time>2013-08-18T08:52:40Z</time>
      </trkpt>
      <trkpt lat="48.67695" lon="1.85262">
        <ele>169</ele>
        <time>2013-08-18T08:52:43Z</time>
      </trkpt>
      <trkpt lat="48.67699" lon="1.85263">
        <ele>169</ele>
        <time>2013-08-18T08:52:45Z</time>
      </trkpt>
      <trkpt lat="48.67702" lon="1.85264">
        <ele>169</ele>
        <time>2013-08-18T08:52:47Z</time>
      </trkpt>
      <trkpt lat="48.67705" lon="1.85266">
        <ele>169</ele>
        <time>2013-08-18T08:52:49Z</time>
      </trkpt>
      <trkpt lat="48.67708" lon="1.85267">
        <ele>169</ele>
        <time>2013-08-18T08:52:51Z</time>
      </trkpt>
      <trkpt lat="48.67711" lon="1.85269">
        <ele>169</ele>
        <time>2013-08-18T08:52:53Z</time>
      </trkpt>
      <trkpt lat="48.67714" lon="1.8527">
        <ele>169</ele>
        <time>2013-08-18T08:52:55Z</time>
      </trkpt>
      <trkpt lat="48.67719" lon="1.85272">
        <ele>169</ele>
        <time>2013-08-18T08:52:58Z</time>
      </trkpt>
      <trkpt lat="48.67723" lon="1.85272">
        <ele>169</ele>
        <time>2013-08-18T08:53:00Z</time>
      </trkpt>
      <trkpt lat="48.67728" lon="1.85273">
        <ele>169</ele>
        <time>2013-08-18T08:53:03Z</time>
      </trkpt>
      <trkpt lat="48.6773" lon="1.85275">
        <ele>169</ele>
        <time>2013-08-18T08:53:05Z</time>
      </trkpt>
      <trkpt lat="48.67734" lon="1.85277">
        <ele>169</ele>
        <time>2013-08-18T08:53:08Z</time>
      </trkpt>
      <trkpt lat="48.67737" lon="1.85278">
        <ele>169</ele>
        <time>2013-08-18T08:53:10Z</time>
      </trkpt>
      <trkpt lat="48.67739" lon="1.85278">
        <ele>169</ele>
        <time>2013-08-18T08:53:12Z</time>
      </trkpt>
      <trkpt lat="48.67742" lon="1.8528">
        <ele>170</ele>
        <time>2013-08-18T08:53:14Z</time>
      </trkpt>
      <trkpt lat="48.67746" lon="1.8528">
        <ele>171</ele>
        <time>2013-08-18T08:53:16Z</time>
      </trkpt>
      <trkpt lat="48.67748" lon="1.8528">
        <ele>171</ele>
        <time>2013-08-18T08:53:18Z</time>
      </trkpt>
      <trkpt lat="48.67751" lon="1.85281">
        <ele>171</ele>
        <time>2013-08-18T08:53:20Z</time>
      </trkpt>
      <trkpt lat="48.67755" lon="1.85282">
        <ele>172</ele>
        <time>2013-08-18T08:53:23Z</time>
      </trkpt>
      <trkpt lat="48.67758" lon="1.85282">
        <ele>172</ele>
        <time>2013-08-18T08:53:25Z</time>
      </trkpt>
      <trkpt lat="48.67761" lon="1.85284">
        <ele>173</ele>
        <time>2013-08-18T08:53:27Z</time>
      </trkpt>
      <trkpt lat="48.67764" lon="1.85284">
        <ele>173</ele>
        <time>2013-08-18T08:53:29Z</time>
      </trkpt>
      <trkpt lat="48.67767" lon="1.85285">
        <ele>173</ele>
        <time>2013-08-18T08:53:31Z</time>
      </trkpt>
      <trkpt lat="48.6777" lon="1.85286">
        <ele>173</ele>
        <time>2013-08-18T08:53:33Z</time>
      </trkpt>
      <trkpt lat="48.67773" lon="1.85286">
        <ele>173</ele>
        <time>2013-08-18T08:53:35Z</time>
      </trkpt>
      <trkpt lat="48.67775" lon="1.85289">
        <ele>173</ele>
        <time>2013-08-18T08:53:37Z</time>
      </trkpt>
      <trkpt lat="48.67779" lon="1.8529">
        <ele>173</ele>
        <time>2013-08-18T08:53:39Z</time>
      </trkpt>
      <trkpt lat="48.67782" lon="1.85292">
        <ele>173</ele>
        <time>2013-08-18T08:53:41Z</time>
      </trkpt>
      <trkpt lat="48.67785" lon="1.85292">
        <ele>173</ele>
        <time>2013-08-18T08:53:43Z</time>
      </trkpt>
      <trkpt lat="48.67788" lon="1.85294">
        <ele>173</ele>
        <time>2013-08-18T08:53:45Z</time>
      </trkpt>
      <trkpt lat="48.67792" lon="1.85296">
        <ele>173</ele>
        <time>2013-08-18T08:53:48Z</time>
      </trkpt>
      <trkpt lat="48.67794" lon="1.85299">
        <ele>173</ele>
        <time>2013-08-18T08:53:50Z</time>
      </trkpt>
      <trkpt lat="48.67797" lon="1.853">
        <ele>173</ele>
        <time>2013-08-18T08:53:53Z</time>
      </trkpt>
      <trkpt lat="48.678" lon="1.853">
        <ele>173</ele>
        <time>2013-08-18T08:53:55Z</time>
      </trkpt>
      <trkpt lat="48.67804" lon="1.85301">
        <ele>173</ele>
        <time>2013-08-18T08:53:57Z</time>
      </trkpt>
      <trkpt lat="48.67807" lon="1.85302">
        <ele>173</ele>
        <time>2013-08-18T08:53:59Z</time>
      </trkpt>
      <trkpt lat="48.6781" lon="1.85303">
        <ele>173</ele>
        <time>2013-08-18T08:54:01Z</time>
      </trkpt>
      <trkpt lat="48.67813" lon="1.85304">
        <ele>173</ele>
        <time>2013-08-18T08:54:03Z</time>
      </trkpt>
      <trkpt lat="48.67817" lon="1.85307">
        <ele>173</ele>
        <time>2013-08-18T08:54:05Z</time>
      </trkpt>
      <trkpt lat="48.67821" lon="1.85309">
        <ele>173</ele>
        <time>2013-08-18T08:54:07Z</time>
      </trkpt>
      <trkpt lat="48.67823" lon="1.85313">
        <ele>173</ele>
        <time>2013-08-18T08:54:09Z</time>
      </trkpt>
      <trkpt lat="48.67823" lon="1.85318">
        <ele>173</ele>
        <time>2013-08-18T08:54:11Z</time>
      </trkpt>
      <trkpt lat="48.67823" lon="1.85323">
        <ele>173</ele>
        <time>2013-08-18T08:54:13Z</time>
      </trkpt>
      <trkpt lat="48.67823" lon="1.85328">
        <ele>173</ele>
        <time>2013-08-18T08:54:15Z</time>
      </trkpt>
      <trkpt lat="48.67823" lon="1.85333">
        <ele>173</ele>
        <time>2013-08-18T08:54:17Z</time>
      </trkpt>
      <trkpt lat="48.67823" lon="1.85338">
        <ele>173</ele>
        <time>2013-08-18T08:54:19Z</time>
      </trkpt>
      <trkpt lat="48.67823" lon="1.85343">
        <ele>173</ele>
        <time>2013-08-18T08:54:21Z</time>
      </trkpt>
      <trkpt lat="48.67823" lon="1.85348">
        <ele>173</ele>
        <time>2013-08-18T08:54:23Z</time>
      </trkpt>
      <trkpt lat="48.67823" lon="1.85353">
        <ele>173</ele>
        <time>2013-08-18T08:54:25Z</time>
      </trkpt>
      <trkpt lat="48.67822" lon="1.85358">
        <ele>173</ele>
        <time>2013-08-18T08:54:27Z</time>
      </trkpt>
      <trkpt lat="48.67822" lon="1.85363">
        <ele>173</ele>
        <time>2013-08-18T08:54:29Z</time>
      </trkpt>
      <trkpt lat="48.67822" lon="1.85368">
        <ele>173</ele>
        <time>2013-08-18T08:54:31Z</time>
      </trkpt>
      <trkpt lat="48.67822" lon="1.85373">
        <ele>173</ele>
        <time>2013-08-18T08:54:33Z</time>
      </trkpt>
      <trkpt lat="48.67822" lon="1.85377">
        <ele>173</ele>
        <time>2013-08-18T08:54:35Z</time>
      </trkpt>
      <trkpt lat="48.67822" lon="1.85385">
        <ele>172</ele>
        <time>2013-08-18T08:54:38Z</time>
      </trkpt>
      <trkpt lat="48.67821" lon="1.85389">
        <ele>172</ele>
        <time>2013-08-18T08:54:40Z</time>
      </trkpt>
      <trkpt lat="48.67821" lon="1.85396">
        <ele>172</ele>
        <time>2013-08-18T08:54:43Z</time>
      </trkpt>
      <trkpt lat="48.67821" lon="1.85401">
        <ele>172</ele>
        <time>2013-08-18T08:54:45Z</time>
      </trkpt>
      <trkpt lat="48.67821" lon="1.85406">
        <ele>172</ele>
        <time>2013-08-18T08:54:47Z</time>
      </trkpt>
      <trkpt lat="48.67821" lon="1.85411">
        <ele>172</ele>
        <time>2013-08-18T08:54:49Z</time>
      </trkpt>
      <trkpt lat="48.67821" lon="1.85416">
        <ele>172</ele>
        <time>2013-08-18T08:54:51Z</time>
      </trkpt>
      <trkpt lat="48.67821" lon="1.85422">
        <ele>172</ele>
        <time>2013-08-18T08:54:53Z</time>
      </trkpt>
      <trkpt lat="48.6782" lon="1.85426">
        <ele>172</ele>
        <time>2013-08-18T08:54:55Z</time>
      </trkpt>
      <trkpt lat="48.6782" lon="1.85434">
        <ele>172</ele>
        <time>2013-08-18T08:54:58Z</time>
      </trkpt>
      <trkpt lat="48.67819" lon="1.85439">
        <ele>172</ele>
        <time>2013-08-18T08:55:00Z</time>
      </trkpt>
      <trkpt lat="48.67819" lon="1.85443">
        <ele>172</ele>
        <time>2013-08-18T08:55:02Z</time>
      </trkpt>
      <trkpt lat="48.67819" lon="1.85448">
        <ele>172</ele>
        <time>2013-08-18T08:55:04Z</time>
      </trkpt>
      <trkpt lat="48.67818" lon="1.85452">
        <ele>172</ele>
        <time>2013-08-18T08:55:06Z</time>
      </trkpt>
      <trkpt lat="48.67818" lon="1.85458">
        <ele>172</ele>
        <time>2013-08-18T08:55:08Z</time>
      </trkpt>
      <trkpt lat="48.67818" lon="1.85462">
        <ele>172</ele>
        <time>2013-08-18T08:55:10Z</time>
      </trkpt>
      <trkpt lat="48.67818" lon="1.85467">
        <ele>172</ele>
        <time>2013-08-18T08:55:12Z</time>
      </trkpt>
      <trkpt lat="48.67817" lon="1.85471">
        <ele>172</ele>
        <time>2013-08-18T08:55:14Z</time>
      </trkpt>
      <trkpt lat="48.67817" lon="1.85476">
        <ele>171</ele>
        <time>2013-08-18T08:55:16Z</time>
      </trkpt>
      <trkpt lat="48.67816" lon="1.8548">
        <ele>171</ele>
        <time>2013-08-18T08:55:18Z</time>
      </trkpt>
      <trkpt lat="48.67816" lon="1.85485">
        <ele>171</ele>
        <time>2013-08-18T08:55:20Z</time>
      </trkpt>
      <trkpt lat="48.67815" lon="1.85491">
        <ele>171</ele>
        <time>2013-08-18T08:55:22Z</time>
      </trkpt>
      <trkpt lat="48.67815" lon="1.85495">
        <ele>171</ele>
        <time>2013-08-18T08:55:24Z</time>
      </trkpt>
      <trkpt lat="48.67815" lon="1.855">
        <ele>171</ele>
        <time>2013-08-18T08:55:26Z</time>
      </trkpt>
      <trkpt lat="48.67815" lon="1.85505">
        <ele>171</ele>
        <time>2013-08-18T08:55:28Z</time>
      </trkpt>
      <trkpt lat="48.67814" lon="1.85511">
        <ele>171</ele>
        <time>2013-08-18T08:55:30Z</time>
      </trkpt>
      <trkpt lat="48.67813" lon="1.85515">
        <ele>171</ele>
        <time>2013-08-18T08:55:32Z</time>
      </trkpt>
      <trkpt lat="48.67812" lon="1.8552">
        <ele>171</ele>
        <time>2013-08-18T08:55:34Z</time>
      </trkpt>
      <trkpt lat="48.67812" lon="1.85526">
        <ele>171</ele>
        <time>2013-08-18T08:55:36Z</time>
      </trkpt>
      <trkpt lat="48.67812" lon="1.85531">
        <ele>171</ele>
        <time>2013-08-18T08:55:38Z</time>
      </trkpt>
      <trkpt lat="48.67812" lon="1.85536">
        <ele>171</ele>
        <time>2013-08-18T08:55:40Z</time>
      </trkpt>
      <trkpt lat="48.67811" lon="1.8554">
        <ele>171</ele>
        <time>2013-08-18T08:55:42Z</time>
      </trkpt>
      <trkpt lat="48.67811" lon="1.85545">
        <ele>171</ele>
        <time>2013-08-18T08:55:44Z</time>
      </trkpt>
      <trkpt lat="48.67811" lon="1.8555">
        <ele>171</ele>
        <time>2013-08-18T08:55:46Z</time>
      </trkpt>
      <trkpt lat="48.67811" lon="1.85555">
        <ele>171</ele>
        <time>2013-08-18T08:55:48Z</time>
      </trkpt>
      <trkpt lat="48.6781" lon="1.85559">
        <ele>171</ele>
        <time>2013-08-18T08:55:50Z</time>
      </trkpt>
      <trkpt lat="48.6781" lon="1.85564">
        <ele>171</ele>
        <time>2013-08-18T08:55:52Z</time>
      </trkpt>
      <trkpt lat="48.67811" lon="1.8557">
        <ele>171</ele>
        <time>2013-08-18T08:55:54Z</time>
      </trkpt>
      <trkpt lat="48.6781" lon="1.85574">
        <ele>171</ele>
        <time>2013-08-18T08:55:56Z</time>
      </trkpt>
      <trkpt lat="48.6781" lon="1.85579">
        <ele>171</ele>
        <time>2013-08-18T08:55:58Z</time>
      </trkpt>
      <trkpt lat="48.67809" lon="1.85584">
        <ele>171</ele>
        <time>2013-08-18T08:56:00Z</time>
      </trkpt>
      <trkpt lat="48.67809" lon="1.85588">
        <ele>171</ele>
        <time>2013-08-18T08:56:02Z</time>
      </trkpt>
      <trkpt lat="48.67808" lon="1.85592">
        <ele>171</ele>
        <time>2013-08-18T08:56:04Z</time>
      </trkpt>
      <trkpt lat="48.67808" lon="1.85597">
        <ele>171</ele>
        <time>2013-08-18T08:56:06Z</time>
      </trkpt>
      <trkpt lat="48.67807" lon="1.85602">
        <ele>171</ele>
        <time>2013-08-18T08:56:08Z</time>
      </trkpt>
      <trkpt lat="48.67807" lon="1.85606">
        <ele>171</ele>
        <time>2013-08-18T08:56:10Z</time>
      </trkpt>
      <trkpt lat="48.67806" lon="1.8561">
        <ele>171</ele>
        <time>2013-08-18T08:56:12Z</time>
      </trkpt>
      <trkpt lat="48.67805" lon="1.85615">
        <ele>171</ele>
        <time>2013-08-18T08:56:14Z</time>
      </trkpt>
      <trkpt lat="48.67805" lon="1.85621">
        <ele>171</ele>
        <time>2013-08-18T08:56:16Z</time>
      </trkpt>
      <trkpt lat="48.67804" lon="1.85625">
        <ele>171</ele>
        <time>2013-08-18T08:56:18Z</time>
      </trkpt>
      <trkpt lat="48.67804" lon="1.85629">
        <ele>171</ele>
        <time>2013-08-18T08:56:20Z</time>
      </trkpt>
      <trkpt lat="48.67803" lon="1.85633">
        <ele>171</ele>
        <time>2013-08-18T08:56:22Z</time>
      </trkpt>
      <trkpt lat="48.67802" lon="1.85637">
        <ele>171</ele>
        <time>2013-08-18T08:56:24Z</time>
      </trkpt>
      <trkpt lat="48.67802" lon="1.85642">
        <ele>171</ele>
        <time>2013-08-18T08:56:26Z</time>
      </trkpt>
      <trkpt lat="48.67802" lon="1.85647">
        <ele>171</ele>
        <time>2013-08-18T08:56:28Z</time>
      </trkpt>
      <trkpt lat="48.67802" lon="1.85652">
        <ele>171</ele>
        <time>2013-08-18T08:56:30Z</time>
      </trkpt>
      <trkpt lat="48.67802" lon="1.85658">
        <ele>171</ele>
        <time>2013-08-18T08:56:32Z</time>
      </trkpt>
      <trkpt lat="48.67802" lon="1.85663">
        <ele>171</ele>
        <time>2013-08-18T08:56:34Z</time>
      </trkpt>
      <trkpt lat="48.67802" lon="1.85668">
        <ele>171</ele>
        <time>2013-08-18T08:56:36Z</time>
      </trkpt>
      <trkpt lat="48.67802" lon="1.85673">
        <ele>171</ele>
        <time>2013-08-18T08:56:38Z</time>
      </trkpt>
      <trkpt lat="48.67802" lon="1.85679">
        <ele>171</ele>
        <time>2013-08-18T08:56:40Z</time>
      </trkpt>
      <trkpt lat="48.67802" lon="1.85684">
        <ele>171</ele>
        <time>2013-08-18T08:56:42Z</time>
      </trkpt>
      <trkpt lat="48.67802" lon="1.85688">
        <ele>171</ele>
        <time>2013-08-18T08:56:44Z</time>
      </trkpt>
      <trkpt lat="48.67801" lon="1.85693">
        <ele>171</ele>
        <time>2013-08-18T08:56:46Z</time>
      </trkpt>
      <trkpt lat="48.678" lon="1.85698">
        <ele>171</ele>
        <time>2013-08-18T08:56:48Z</time>
      </trkpt>
      <trkpt lat="48.678" lon="1.85703">
        <ele>171</ele>
        <time>2013-08-18T08:56:50Z</time>
      </trkpt>
      <trkpt lat="48.678" lon="1.85708">
        <ele>171</ele>
        <time>2013-08-18T08:56:52Z</time>
      </trkpt>
      <trkpt lat="48.678" lon="1.85714">
        <ele>171</ele>
        <time>2013-08-18T08:56:54Z</time>
      </trkpt>
      <trkpt lat="48.678" lon="1.85719">
        <ele>171</ele>
        <time>2013-08-18T08:56:56Z</time>
      </trkpt>
      <trkpt lat="48.678" lon="1.85724">
        <ele>171</ele>
        <time>2013-08-18T08:56:58Z</time>
      </trkpt>
      <trkpt lat="48.67801" lon="1.8573">
        <ele>171</ele>
        <time>2013-08-18T08:57:00Z</time>
      </trkpt>
      <trkpt lat="48.678" lon="1.85735">
        <ele>171</ele>
        <time>2013-08-18T08:57:02Z</time>
      </trkpt>
      <trkpt lat="48.67801" lon="1.8574">
        <ele>171</ele>
        <time>2013-08-18T08:57:04Z</time>
      </trkpt>
      <trkpt lat="48.67801" lon="1.85746">
        <ele>171</ele>
        <time>2013-08-18T08:57:06Z</time>
      </trkpt>
      <trkpt lat="48.678" lon="1.85751">
        <ele>171</ele>
        <time>2013-08-18T08:57:08Z</time>
      </trkpt>
      <trkpt lat="48.67799" lon="1.85756">
        <ele>171</ele>
        <time>2013-08-18T08:57:10Z</time>
      </trkpt>
      <trkpt lat="48.678" lon="1.85762">
        <ele>171</ele>
        <time>2013-08-18T08:57:12Z</time>
      </trkpt>
      <trkpt lat="48.678" lon="1.85766">
        <ele>171</ele>
        <time>2013-08-18T08:57:14Z</time>
      </trkpt>
      <trkpt lat="48.678" lon="1.85771">
        <ele>171</ele>
        <time>2013-08-18T08:57:16Z</time>
      </trkpt>
      <trkpt lat="48.67799" lon="1.85776">
        <ele>171</ele>
        <time>2013-08-18T08:57:18Z</time>
      </trkpt>
      <trkpt lat="48.67799" lon="1.85782">
        <ele>171</ele>
        <time>2013-08-18T08:57:20Z</time>
      </trkpt>
      <trkpt lat="48.67798" lon="1.85786">
        <ele>171</ele>
        <time>2013-08-18T08:57:22Z</time>
      </trkpt>
      <trkpt lat="48.67798" lon="1.85792">
        <ele>171</ele>
        <time>2013-08-18T08:57:24Z</time>
      </trkpt>
      <trkpt lat="48.67798" lon="1.85796">
        <ele>171</ele>
        <time>2013-08-18T08:57:26Z</time>
      </trkpt>
      <trkpt lat="48.67799" lon="1.85801">
        <ele>171</ele>
        <time>2013-08-18T08:57:28Z</time>
      </trkpt>
      <trkpt lat="48.67799" lon="1.85806">
        <ele>171</ele>
        <time>2013-08-18T08:57:30Z</time>
      </trkpt>
      <trkpt lat="48.67798" lon="1.8581">
        <ele>171</ele>
        <time>2013-08-18T08:57:32Z</time>
      </trkpt>
      <trkpt lat="48.67798" lon="1.85814">
        <ele>171</ele>
        <time>2013-08-18T08:57:34Z</time>
      </trkpt>
      <trkpt lat="48.67797" lon="1.85818">
        <ele>171</ele>
        <time>2013-08-18T08:57:36Z</time>
      </trkpt>
      <trkpt lat="48.67796" lon="1.85823">
        <ele>171</ele>
        <time>2013-08-18T08:57:38Z</time>
      </trkpt>
      <trkpt lat="48.67795" lon="1.85827">
        <ele>171</ele>
        <time>2013-08-18T08:57:40Z</time>
      </trkpt>
      <trkpt lat="48.67795" lon="1.85832">
        <ele>171</ele>
        <time>2013-08-18T08:57:42Z</time>
      </trkpt>
      <trkpt lat="48.67795" lon="1.85836">
        <ele>171</ele>
        <time>2013-08-18T08:57:44Z</time>
      </trkpt>
      <trkpt lat="48.67794" lon="1.85841">
        <ele>171</ele>
        <time>2013-08-18T08:57:46Z</time>
      </trkpt>
      <trkpt lat="48.67794" lon="1.85846">
        <ele>171</ele>
        <time>2013-08-18T08:57:48Z</time>
      </trkpt>
      <trkpt lat="48.67793" lon="1.8585">
        <ele>171</ele>
        <time>2013-08-18T08:57:50Z</time>
      </trkpt>
      <trkpt lat="48.67793" lon="1.85855">
        <ele>171</ele>
        <time>2013-08-18T08:57:52Z</time>
      </trkpt>
      <trkpt lat="48.67792" lon="1.8586">
        <ele>171</ele>
        <time>2013-08-18T08:57:54Z</time>
      </trkpt>
      <trkpt lat="48.67793" lon="1.85865">
        <ele>171</ele>
        <time>2013-08-18T08:57:56Z</time>
      </trkpt>
      <trkpt lat="48.67793" lon="1.8587">
        <ele>171</ele>
        <time>2013-08-18T08:57:58Z</time>
      </trkpt>
      <trkpt lat="48.67792" lon="1.85874">
        <ele>171</ele>
        <time>2013-08-18T08:58:00Z</time>
      </trkpt>
      <trkpt lat="48.67792" lon="1.85879">
        <ele>171</ele>
        <time>2013-08-18T08:58:02Z</time>
      </trkpt>
      <trkpt lat="48.67792" lon="1.85884">
        <ele>171</ele>
        <time>2013-08-18T08:58:04Z</time>
      </trkpt>
      <trkpt lat="48.67792" lon="1.85889">
        <ele>171</ele>
        <time>2013-08-18T08:58:06Z</time>
      </trkpt>
      <trkpt lat="48.67791" lon="1.85894">
        <ele>171</ele>
        <time>2013-08-18T08:58:08Z</time>
      </trkpt>
      <trkpt lat="48.67791" lon="1.85899">
        <ele>171</ele>
        <time>2013-08-18T08:58:10Z</time>
      </trkpt>
      <trkpt lat="48.6779" lon="1.85904">
        <ele>171</ele>
        <time>2013-08-18T08:58:12Z</time>
      </trkpt>
      <trkpt lat="48.67791" lon="1.85909">
        <ele>171</ele>
        <time>2013-08-18T08:58:14Z</time>
      </trkpt>
      <trkpt lat="48.6779" lon="1.85914">
        <ele>171</ele>
        <time>2013-08-18T08:58:16Z</time>
      </trkpt>
      <trkpt lat="48.6779" lon="1.8592">
        <ele>171</ele>
        <time>2013-08-18T08:58:18Z</time>
      </trkpt>
      <trkpt lat="48.67791" lon="1.85925">
        <ele>171</ele>
        <time>2013-08-18T08:58:20Z</time>
      </trkpt>
      <trkpt lat="48.6779" lon="1.8593">
        <ele>171</ele>
        <time>2013-08-18T08:58:22Z</time>
      </trkpt>
      <trkpt lat="48.67789" lon="1.85935">
        <ele>171</ele>
        <time>2013-08-18T08:58:24Z</time>
      </trkpt>
      <trkpt lat="48.67789" lon="1.85939">
        <ele>171</ele>
        <time>2013-08-18T08:58:26Z</time>
      </trkpt>
      <trkpt lat="48.67788" lon="1.85944">
        <ele>171</ele>
        <time>2013-08-18T08:58:28Z</time>
      </trkpt>
      <trkpt lat="48.67788" lon="1.8595">
        <ele>171</ele>
        <time>2013-08-18T08:58:30Z</time>
      </trkpt>
      <trkpt lat="48.67788" lon="1.85955">
        <ele>171</ele>
        <time>2013-08-18T08:58:32Z</time>
      </trkpt>
      <trkpt lat="48.67788" lon="1.85959">
        <ele>171</ele>
        <time>2013-08-18T08:58:34Z</time>
      </trkpt>
      <trkpt lat="48.67787" lon="1.85964">
        <ele>171</ele>
        <time>2013-08-18T08:58:36Z</time>
      </trkpt>
      <trkpt lat="48.67786" lon="1.85969">
        <ele>171</ele>
        <time>2013-08-18T08:58:38Z</time>
      </trkpt>
      <trkpt lat="48.67786" lon="1.85973">
        <ele>171</ele>
        <time>2013-08-18T08:58:40Z</time>
      </trkpt>
      <trkpt lat="48.67785" lon="1.85977">
        <ele>171</ele>
        <time>2013-08-18T08:58:42Z</time>
      </trkpt>
      <trkpt lat="48.67785" lon="1.85983">
        <ele>171</ele>
        <time>2013-08-18T08:58:44Z</time>
      </trkpt>
      <trkpt lat="48.67784" lon="1.85987">
        <ele>171</ele>
        <time>2013-08-18T08:58:46Z</time>
      </trkpt>
      <trkpt lat="48.67785" lon="1.85993">
        <ele>171</ele>
        <time>2013-08-18T08:58:48Z</time>
      </trkpt>
      <trkpt lat="48.67784" lon="1.85998">
        <ele>171</ele>
        <time>2013-08-18T08:58:50Z</time>
      </trkpt>
      <trkpt lat="48.67784" lon="1.86003">
        <ele>171</ele>
        <time>2013-08-18T08:58:52Z</time>
      </trkpt>
      <trkpt lat="48.67785" lon="1.86009">
        <ele>171</ele>
        <time>2013-08-18T08:58:54Z</time>
      </trkpt>
      <trkpt lat="48.67785" lon="1.86014">
        <ele>171</ele>
        <time>2013-08-18T08:58:56Z</time>
      </trkpt>
      <trkpt lat="48.67785" lon="1.8602">
        <ele>171</ele>
        <time>2013-08-18T08:58:58Z</time>
      </trkpt>
      <trkpt lat="48.67784" lon="1.86024">
        <ele>171</ele>
        <time>2013-08-18T08:59:00Z</time>
      </trkpt>
      <trkpt lat="48.67784" lon="1.86029">
        <ele>171</ele>
        <time>2013-08-18T08:59:02Z</time>
      </trkpt>
      <trkpt lat="48.67783" lon="1.86033">
        <ele>171</ele>
        <time>2013-08-18T08:59:04Z</time>
      </trkpt>
      <trkpt lat="48.67783" lon="1.86037">
        <ele>171</ele>
        <time>2013-08-18T08:59:06Z</time>
      </trkpt>
      <trkpt lat="48.67783" lon="1.86041">
        <ele>171</ele>
        <time>2013-08-18T08:59:08Z</time>
      </trkpt>
      <trkpt lat="48.67783" lon="1.86047">
        <ele>171</ele>
        <time>2013-08-18T08:59:10Z</time>
      </trkpt>
      <trkpt lat="48.67783" lon="1.86052">
        <ele>171</ele>
        <time>2013-08-18T08:59:12Z</time>
      </trkpt>
      <trkpt lat="48.67783" lon="1.86056">
        <ele>171</ele>
        <time>2013-08-18T08:59:14Z</time>
      </trkpt>
      <trkpt lat="48.67782" lon="1.86061">
        <ele>171</ele>
        <time>2013-08-18T08:59:16Z</time>
      </trkpt>
      <trkpt lat="48.67782" lon="1.86066">
        <ele>171</ele>
        <time>2013-08-18T08:59:18Z</time>
      </trkpt>
      <trkpt lat="48.67781" lon="1.8607">
        <ele>171</ele>
        <time>2013-08-18T08:59:20Z</time>
      </trkpt>
      <trkpt lat="48.67781" lon="1.86076">
        <ele>171</ele>
        <time>2013-08-18T08:59:22Z</time>
      </trkpt>
      <trkpt lat="48.67781" lon="1.86081">
        <ele>171</ele>
        <time>2013-08-18T08:59:24Z</time>
      </trkpt>
      <trkpt lat="48.67781" lon="1.86087">
        <ele>171</ele>
        <time>2013-08-18T08:59:26Z</time>
      </trkpt>
      <trkpt lat="48.67781" lon="1.86092">
        <ele>171</ele>
        <time>2013-08-18T08:59:28Z</time>
      </trkpt>
      <trkpt lat="48.67781" lon="1.86097">
        <ele>171</ele>
        <time>2013-08-18T08:59:30Z</time>
      </trkpt>
      <trkpt lat="48.67781" lon="1.86103">
        <ele>171</ele>
        <time>2013-08-18T08:59:32Z</time>
      </trkpt>
      <trkpt lat="48.6778" lon="1.86109">
        <ele>171</ele>
        <time>2013-08-18T08:59:34Z</time>
      </trkpt>
      <trkpt lat="48.6778" lon="1.86114">
        <ele>171</ele>
        <time>2013-08-18T08:59:36Z</time>
      </trkpt>
      <trkpt lat="48.67779" lon="1.86117">
        <ele>171</ele>
        <time>2013-08-18T08:59:38Z</time>
      </trkpt>
      <trkpt lat="48.67779" lon="1.86122">
        <ele>171</ele>
        <time>2013-08-18T08:59:40Z</time>
      </trkpt>
      <trkpt lat="48.67778" lon="1.86127">
        <ele>171</ele>
        <time>2013-08-18T08:59:42Z</time>
      </trkpt>
      <trkpt lat="48.67778" lon="1.86132">
        <ele>171</ele>
        <time>2013-08-18T08:59:44Z</time>
      </trkpt>
      <trkpt lat="48.67778" lon="1.86137">
        <ele>171</ele>
        <time>2013-08-18T08:59:46Z</time>
      </trkpt>
      <trkpt lat="48.67777" lon="1.86142">
        <ele>171</ele>
        <time>2013-08-18T08:59:48Z</time>
      </trkpt>
      <trkpt lat="48.67775" lon="1.86146">
        <ele>171</ele>
        <time>2013-08-18T08:59:50Z</time>
      </trkpt>
      <trkpt lat="48.67775" lon="1.8615">
        <ele>171</ele>
        <time>2013-08-18T08:59:52Z</time>
      </trkpt>
      <trkpt lat="48.67774" lon="1.86154">
        <ele>171</ele>
        <time>2013-08-18T08:59:54Z</time>
      </trkpt>
      <trkpt lat="48.67774" lon="1.86158">
        <ele>171</ele>
        <time>2013-08-18T08:59:56Z</time>
      </trkpt>
      <trkpt lat="48.67774" lon="1.86163">
        <ele>171</ele>
        <time>2013-08-18T08:59:58Z</time>
      </trkpt>
      <trkpt lat="48.67774" lon="1.86168">
        <ele>171</ele>
        <time>2013-08-18T09:00:00Z</time>
      </trkpt>
      <trkpt lat="48.67773" lon="1.86172">
        <ele>171</ele>
        <time>2013-08-18T09:00:02Z</time>
      </trkpt>
      <trkpt lat="48.67772" lon="1.86176">
        <ele>171</ele>
        <time>2013-08-18T09:00:04Z</time>
      </trkpt>
      <trkpt lat="48.67771" lon="1.8618">
        <ele>171</ele>
        <time>2013-08-18T09:00:06Z</time>
      </trkpt>
      <trkpt lat="48.67771" lon="1.86184">
        <ele>171</ele>
        <time>2013-08-18T09:00:08Z</time>
      </trkpt>
      <trkpt lat="48.67771" lon="1.86189">
        <ele>171</ele>
        <time>2013-08-18T09:00:10Z</time>
      </trkpt>
      <trkpt lat="48.67772" lon="1.86195">
        <ele>171</ele>
        <time>2013-08-18T09:00:12Z</time>
      </trkpt>
      <trkpt lat="48.67772" lon="1.862">
        <ele>171</ele>
        <time>2013-08-18T09:00:14Z</time>
      </trkpt>
      <trkpt lat="48.67772" lon="1.86205">
        <ele>171</ele>
        <time>2013-08-18T09:00:16Z</time>
      </trkpt>
      <trkpt lat="48.67772" lon="1.86209">
        <ele>171</ele>
        <time>2013-08-18T09:00:18Z</time>
      </trkpt>
      <trkpt lat="48.67772" lon="1.86214">
        <ele>171</ele>
        <time>2013-08-18T09:00:20Z</time>
      </trkpt>
      <trkpt lat="48.67772" lon="1.86218">
        <ele>171</ele>
        <time>2013-08-18T09:00:22Z</time>
      </trkpt>
      <trkpt lat="48.67772" lon="1.86222">
        <ele>171</ele>
        <time>2013-08-18T09:00:24Z</time>
      </trkpt>
      <trkpt lat="48.67771" lon="1.86226">
        <ele>171</ele>
        <time>2013-08-18T09:00:26Z</time>
      </trkpt>
      <trkpt lat="48.67771" lon="1.8623">
        <ele>171</ele>
        <time>2013-08-18T09:00:28Z</time>
      </trkpt>
      <trkpt lat="48.67771" lon="1.86235">
        <ele>171</ele>
        <time>2013-08-18T09:00:30Z</time>
      </trkpt>
      <trkpt lat="48.67771" lon="1.8624">
        <ele>171</ele>
        <time>2013-08-18T09:00:32Z</time>
      </trkpt>
      <trkpt lat="48.67771" lon="1.86245">
        <ele>171</ele>
        <time>2013-08-18T09:00:34Z</time>
      </trkpt>
      <trkpt lat="48.6777" lon="1.86249">
        <ele>171</ele>
        <time>2013-08-18T09:00:36Z</time>
      </trkpt>
      <trkpt lat="48.67769" lon="1.86253">
        <ele>171</ele>
        <time>2013-08-18T09:00:38Z</time>
      </trkpt>
      <trkpt lat="48.67769" lon="1.86258">
        <ele>171</ele>
        <time>2013-08-18T09:00:40Z</time>
      </trkpt>
      <trkpt lat="48.67768" lon="1.86263">
        <ele>172</ele>
        <time>2013-08-18T09:00:42Z</time>
      </trkpt>
      <trkpt lat="48.67768" lon="1.86268">
        <ele>173</ele>
        <time>2013-08-18T09:00:44Z</time>
      </trkpt>
      <trkpt lat="48.67767" lon="1.86273">
        <ele>173</ele>
        <time>2013-08-18T09:00:46Z</time>
      </trkpt>
      <trkpt lat="48.67767" lon="1.86278">
        <ele>174</ele>
        <time>2013-08-18T09:00:48Z</time>
      </trkpt>
      <trkpt lat="48.67767" lon="1.86284">
        <ele>174</ele>
        <time>2013-08-18T09:00:50Z</time>
      </trkpt>
      <trkpt lat="48.67767" lon="1.86289">
        <ele>174</ele>
        <time>2013-08-18T09:00:52Z</time>
      </trkpt>
      <trkpt lat="48.67768" lon="1.86294">
        <ele>174</ele>
        <time>2013-08-18T09:00:54Z</time>
      </trkpt>
      <trkpt lat="48.67768" lon="1.86298">
        <ele>174</ele>
        <time>2013-08-18T09:00:56Z</time>
      </trkpt>
      <trkpt lat="48.67768" lon="1.86303">
        <ele>174</ele>
        <time>2013-08-18T09:00:58Z</time>
      </trkpt>
      <trkpt lat="48.67767" lon="1.86308">
        <ele>174</ele>
        <time>2013-08-18T09:01:00Z</time>
      </trkpt>
      <trkpt lat="48.67768" lon="1.86313">
        <ele>174</ele>
        <time>2013-08-18T09:01:02Z</time>
      </trkpt>
      <trkpt lat="48.67767" lon="1.86318">
        <ele>174</ele>
        <time>2013-08-18T09:01:04Z</time>
      </trkpt>
      <trkpt lat="48.67765" lon="1.86321">
        <ele>174</ele>
        <time>2013-08-18T09:01:06Z</time>
      </trkpt>
      <trkpt lat="48.67765" lon="1.86326">
        <ele>174</ele>
        <time>2013-08-18T09:01:08Z</time>
      </trkpt>
      <trkpt lat="48.67764" lon="1.86331">
        <ele>174</ele>
        <time>2013-08-18T09:01:10Z</time>
      </trkpt>
      <trkpt lat="48.67763" lon="1.86335">
        <ele>174</ele>
        <time>2013-08-18T09:01:12Z</time>
      </trkpt>
      <trkpt lat="48.67762" lon="1.8634">
        <ele>174</ele>
        <time>2013-08-18T09:01:14Z</time>
      </trkpt>
      <trkpt lat="48.67762" lon="1.86345">
        <ele>174</ele>
        <time>2013-08-18T09:01:16Z</time>
      </trkpt>
      <trkpt lat="48.67762" lon="1.86351">
        <ele>174</ele>
        <time>2013-08-18T09:01:18Z</time>
      </trkpt>
      <trkpt lat="48.67763" lon="1.86357">
        <ele>174</ele>
        <time>2013-08-18T09:01:20Z</time>
      </trkpt>
      <trkpt lat="48.67762" lon="1.86363">
        <ele>174</ele>
        <time>2013-08-18T09:01:22Z</time>
      </trkpt>
      <trkpt lat="48.67762" lon="1.86369">
        <ele>174</ele>
        <time>2013-08-18T09:01:24Z</time>
      </trkpt>
      <trkpt lat="48.6776" lon="1.86373">
        <ele>174</ele>
        <time>2013-08-18T09:01:26Z</time>
      </trkpt>
      <trkpt lat="48.6776" lon="1.86379">
        <ele>175</ele>
        <time>2013-08-18T09:01:28Z</time>
      </trkpt>
      <trkpt lat="48.6776" lon="1.86383">
        <ele>175</ele>
        <time>2013-08-18T09:01:30Z</time>
      </trkpt>
      <trkpt lat="48.6776" lon="1.86387">
        <ele>175</ele>
        <time>2013-08-18T09:01:32Z</time>
      </trkpt>
      <trkpt lat="48.6776" lon="1.86393">
        <ele>175</ele>
        <time>2013-08-18T09:01:34Z</time>
      </trkpt>
      <trkpt lat="48.6776" lon="1.86397">
        <ele>175</ele>
        <time>2013-08-18T09:01:36Z</time>
      </trkpt>
      <trkpt lat="48.67759" lon="1.86403">
        <ele>175</ele>
        <time>2013-08-18T09:01:38Z</time>
      </trkpt>
      <trkpt lat="48.67759" lon="1.86408">
        <ele>175</ele>
        <time>2013-08-18T09:01:40Z</time>
      </trkpt>
      <trkpt lat="48.67759" lon="1.86412">
        <ele>175</ele>
        <time>2013-08-18T09:01:42Z</time>
      </trkpt>
      <trkpt lat="48.67758" lon="1.86416">
        <ele>175</ele>
        <time>2013-08-18T09:01:44Z</time>
      </trkpt>
      <trkpt lat="48.67757" lon="1.86421">
        <ele>175</ele>
        <time>2013-08-18T09:01:46Z</time>
      </trkpt>
      <trkpt lat="48.67758" lon="1.86427">
        <ele>175</ele>
        <time>2013-08-18T09:01:48Z</time>
      </trkpt>
      <trkpt lat="48.67757" lon="1.86432">
        <ele>175</ele>
        <time>2013-08-18T09:01:50Z</time>
      </trkpt>
      <trkpt lat="48.67756" lon="1.86437">
        <ele>175</ele>
        <time>2013-08-18T09:01:52Z</time>
      </trkpt>
      <trkpt lat="48.67756" lon="1.86442">
        <ele>175</ele>
        <time>2013-08-18T09:01:54Z</time>
      </trkpt>
      <trkpt lat="48.67756" lon="1.86446">
        <ele>175</ele>
        <time>2013-08-18T09:01:56Z</time>
      </trkpt>
      <trkpt lat="48.67756" lon="1.86451">
        <ele>175</ele>
        <time>2013-08-18T09:01:58Z</time>
      </trkpt>
      <trkpt lat="48.67755" lon="1.86456">
        <ele>175</ele>
        <time>2013-08-18T09:02:00Z</time>
      </trkpt>
      <trkpt lat="48.67755" lon="1.86463">
        <ele>175</ele>
        <time>2013-08-18T09:02:02Z</time>
      </trkpt>
      <trkpt lat="48.67754" lon="1.86469">
        <ele>175</ele>
        <time>2013-08-18T09:02:04Z</time>
      </trkpt>
      <trkpt lat="48.67754" lon="1.86473">
        <ele>175</ele>
        <time>2013-08-18T09:02:06Z</time>
      </trkpt>
      <trkpt lat="48.67754" lon="1.86478">
        <ele>175</ele>
        <time>2013-08-18T09:02:08Z</time>
      </trkpt>
      <trkpt lat="48.67754" lon="1.86483">
        <ele>175</ele>
        <time>2013-08-18T09:02:10Z</time>
      </trkpt>
      <trkpt lat="48.67754" lon="1.86486">
        <ele>175</ele>
        <time>2013-08-18T09:02:12Z</time>
      </trkpt>
      <trkpt lat="48.67754" lon="1.86491">
        <ele>175</ele>
        <time>2013-08-18T09:02:14Z</time>
      </trkpt>
      <trkpt lat="48.67754" lon="1.86496">
        <ele>175</ele>
        <time>2013-08-18T09:02:16Z</time>
      </trkpt>
      <trkpt lat="48.67754" lon="1.86501">
        <ele>174</ele>
        <time>2013-08-18T09:02:18Z</time>
      </trkpt>
      <trkpt lat="48.67754" lon="1.86505">
        <ele>174</ele>
        <time>2013-08-18T09:02:20Z</time>
      </trkpt>
      <trkpt lat="48.67753" lon="1.8651">
        <ele>173</ele>
        <time>2013-08-18T09:02:22Z</time>
      </trkpt>
      <trkpt lat="48.67753" lon="1.86514">
        <ele>173</ele>
        <time>2013-08-18T09:02:24Z</time>
      </trkpt>
      <trkpt lat="48.67752" lon="1.86519">
        <ele>172</ele>
        <time>2013-08-18T09:02:26Z</time>
      </trkpt>
      <trkpt lat="48.67754" lon="1.86525">
        <ele>172</ele>
        <time>2013-08-18T09:02:28Z</time>
      </trkpt>
      <trkpt lat="48.67754" lon="1.8653">
        <ele>171</ele>
        <time>2013-08-18T09:02:30Z</time>
      </trkpt>
      <trkpt lat="48.67754" lon="1.86535">
        <ele>171</ele>
        <time>2013-08-18T09:02:32Z</time>
      </trkpt>
      <trkpt lat="48.67754" lon="1.86541">
        <ele>170</ele>
        <time>2013-08-18T09:02:34Z</time>
      </trkpt>
      <trkpt lat="48.67754" lon="1.86546">
        <ele>170</ele>
        <time>2013-08-18T09:02:36Z</time>
      </trkpt>
      <trkpt lat="48.67754" lon="1.86551">
        <ele>170</ele>
        <time>2013-08-18T09:02:38Z</time>
      </trkpt>
      <trkpt lat="48.67754" lon="1.86555">
        <ele>170</ele>
        <time>2013-08-18T09:02:40Z</time>
      </trkpt>
      <trkpt lat="48.67757" lon="1.8656">
        <ele>169</ele>
        <time>2013-08-18T09:02:43Z</time>
      </trkpt>
      <trkpt lat="48.67761" lon="1.86563">
        <ele>169</ele>
        <time>2013-08-18T09:02:45Z</time>
      </trkpt>
      <trkpt lat="48.67762" lon="1.8657">
        <ele>169</ele>
        <time>2013-08-18T09:02:47Z</time>
      </trkpt>
      <trkpt lat="48.67763" lon="1.86576">
        <ele>169</ele>
        <time>2013-08-18T09:02:49Z</time>
      </trkpt>
      <trkpt lat="48.67764" lon="1.86583">
        <ele>169</ele>
        <time>2013-08-18T09:02:51Z</time>
      </trkpt>
      <trkpt lat="48.67763" lon="1.86591">
        <ele>169</ele>
        <time>2013-08-18T09:02:53Z</time>
      </trkpt>
      <trkpt lat="48.67762" lon="1.866">
        <ele>169</ele>
        <time>2013-08-18T09:02:55Z</time>
      </trkpt>
      <trkpt lat="48.67761" lon="1.86608">
        <ele>169</ele>
        <time>2013-08-18T09:02:57Z</time>
      </trkpt>
      <trkpt lat="48.6776" lon="1.86614">
        <ele>169</ele>
        <time>2013-08-18T09:02:59Z</time>
      </trkpt>
      <trkpt lat="48.67759" lon="1.86619">
        <ele>169</ele>
        <time>2013-08-18T09:03:01Z</time>
      </trkpt>
      <trkpt lat="48.67758" lon="1.86624">
        <ele>169</ele>
        <time>2013-08-18T09:03:03Z</time>
      </trkpt>
      <trkpt lat="48.67758" lon="1.86628">
        <ele>169</ele>
        <time>2013-08-18T09:03:05Z</time>
      </trkpt>
      <trkpt lat="48.67757" lon="1.86633">
        <ele>169</ele>
        <time>2013-08-18T09:03:07Z</time>
      </trkpt>
      <trkpt lat="48.67757" lon="1.86638">
        <ele>169</ele>
        <time>2013-08-18T09:03:09Z</time>
      </trkpt>
      <trkpt lat="48.67757" lon="1.86643">
        <ele>169</ele>
        <time>2013-08-18T09:03:11Z</time>
      </trkpt>
      <trkpt lat="48.67757" lon="1.86648">
        <ele>169</ele>
        <time>2013-08-18T09:03:13Z</time>
      </trkpt>
      <trkpt lat="48.67756" lon="1.86653">
        <ele>169</ele>
        <time>2013-08-18T09:03:15Z</time>
      </trkpt>
      <trkpt lat="48.67756" lon="1.86658">
        <ele>169</ele>
        <time>2013-08-18T09:03:17Z</time>
      </trkpt>
      <trkpt lat="48.67756" lon="1.86662">
        <ele>169</ele>
        <time>2013-08-18T09:03:19Z</time>
      </trkpt>
      <trkpt lat="48.67755" lon="1.86667">
        <ele>169</ele>
        <time>2013-08-18T09:03:21Z</time>
      </trkpt>
      <trkpt lat="48.67755" lon="1.86672">
        <ele>169</ele>
        <time>2013-08-18T09:03:23Z</time>
      </trkpt>
      <trkpt lat="48.67754" lon="1.86677">
        <ele>169</ele>
        <time>2013-08-18T09:03:25Z</time>
      </trkpt>
      <trkpt lat="48.67754" lon="1.86682">
        <ele>169</ele>
        <time>2013-08-18T09:03:27Z</time>
      </trkpt>
      <trkpt lat="48.67753" lon="1.86687">
        <ele>169</ele>
        <time>2013-08-18T09:03:29Z</time>
      </trkpt>
      <trkpt lat="48.67753" lon="1.86691">
        <ele>169</ele>
        <time>2013-08-18T09:03:31Z</time>
      </trkpt>
      <trkpt lat="48.67753" lon="1.86696">
        <ele>169</ele>
        <time>2013-08-18T09:03:33Z</time>
      </trkpt>
      <trkpt lat="48.67753" lon="1.86702">
        <ele>169</ele>
        <time>2013-08-18T09:03:35Z</time>
      </trkpt>
      <trkpt lat="48.67752" lon="1.86707">
        <ele>169</ele>
        <time>2013-08-18T09:03:37Z</time>
      </trkpt>
      <trkpt lat="48.67751" lon="1.86712">
        <ele>169</ele>
        <time>2013-08-18T09:03:39Z</time>
      </trkpt>
      <trkpt lat="48.67751" lon="1.86716">
        <ele>169</ele>
        <time>2013-08-18T09:03:41Z</time>
      </trkpt>
      <trkpt lat="48.6775" lon="1.86721">
        <ele>169</ele>
        <time>2013-08-18T09:03:43Z</time>
      </trkpt>
      <trkpt lat="48.67749" lon="1.86726">
        <ele>169</ele>
        <time>2013-08-18T09:03:45Z</time>
      </trkpt>
      <trkpt lat="48.67749" lon="1.86732">
        <ele>169</ele>
        <time>2013-08-18T09:03:47Z</time>
      </trkpt>
      <trkpt lat="48.67749" lon="1.86737">
        <ele>169</ele>
        <time>2013-08-18T09:03:49Z</time>
      </trkpt>
      <trkpt lat="48.67749" lon="1.86742">
        <ele>169</ele>
        <time>2013-08-18T09:03:51Z</time>
      </trkpt>
      <trkpt lat="48.67749" lon="1.86748">
        <ele>169</ele>
        <time>2013-08-18T09:03:53Z</time>
      </trkpt>
      <trkpt lat="48.67749" lon="1.86752">
        <ele>169</ele>
        <time>2013-08-18T09:03:55Z</time>
      </trkpt>
      <trkpt lat="48.67749" lon="1.86757">
        <ele>169</ele>
        <time>2013-08-18T09:03:57Z</time>
      </trkpt>
      <trkpt lat="48.67748" lon="1.86762">
        <ele>169</ele>
        <time>2013-08-18T09:03:59Z</time>
      </trkpt>
      <trkpt lat="48.67747" lon="1.86767">
        <ele>169</ele>
        <time>2013-08-18T09:04:01Z</time>
      </trkpt>
      <trkpt lat="48.67747" lon="1.86772">
        <ele>169</ele>
        <time>2013-08-18T09:04:03Z</time>
      </trkpt>
      <trkpt lat="48.67747" lon="1.86777">
        <ele>169</ele>
        <time>2013-08-18T09:04:05Z</time>
      </trkpt>
      <trkpt lat="48.67746" lon="1.86783">
        <ele>169</ele>
        <time>2013-08-18T09:04:07Z</time>
      </trkpt>
      <trkpt lat="48.67746" lon="1.86788">
        <ele>169</ele>
        <time>2013-08-18T09:04:09Z</time>
      </trkpt>
      <trkpt lat="48.67745" lon="1.86792">
        <ele>169</ele>
        <time>2013-08-18T09:04:11Z</time>
      </trkpt>
      <trkpt lat="48.67745" lon="1.86796">
        <ele>169</ele>
        <time>2013-08-18T09:04:13Z</time>
      </trkpt>
      <trkpt lat="48.67744" lon="1.86801">
        <ele>169</ele>
        <time>2013-08-18T09:04:15Z</time>
      </trkpt>
      <trkpt lat="48.67744" lon="1.86806">
        <ele>169</ele>
        <time>2013-08-18T09:04:17Z</time>
      </trkpt>
      <trkpt lat="48.67743" lon="1.86811">
        <ele>169</ele>
        <time>2013-08-18T09:04:19Z</time>
      </trkpt>
      <trkpt lat="48.67743" lon="1.86816">
        <ele>169</ele>
        <time>2013-08-18T09:04:21Z</time>
      </trkpt>
      <trkpt lat="48.67742" lon="1.8682">
        <ele>169</ele>
        <time>2013-08-18T09:04:23Z</time>
      </trkpt>
      <trkpt lat="48.67742" lon="1.86825">
        <ele>169</ele>
        <time>2013-08-18T09:04:25Z</time>
      </trkpt>
      <trkpt lat="48.67741" lon="1.8683">
        <ele>169</ele>
        <time>2013-08-18T09:04:27Z</time>
      </trkpt>
      <trkpt lat="48.67741" lon="1.86835">
        <ele>169</ele>
        <time>2013-08-18T09:04:29Z</time>
      </trkpt>
      <trkpt lat="48.67741" lon="1.8684">
        <ele>169</ele>
        <time>2013-08-18T09:04:31Z</time>
      </trkpt>
      <trkpt lat="48.6774" lon="1.86845">
        <ele>169</ele>
        <time>2013-08-18T09:04:33Z</time>
      </trkpt>
      <trkpt lat="48.6774" lon="1.86849">
        <ele>169</ele>
        <time>2013-08-18T09:04:35Z</time>
      </trkpt>
      <trkpt lat="48.67739" lon="1.86854">
        <ele>169</ele>
        <time>2013-08-18T09:04:37Z</time>
      </trkpt>
      <trkpt lat="48.67739" lon="1.86859">
        <ele>169</ele>
        <time>2013-08-18T09:04:39Z</time>
      </trkpt>
      <trkpt lat="48.67739" lon="1.86864">
        <ele>169</ele>
        <time>2013-08-18T09:04:41Z</time>
      </trkpt>
      <trkpt lat="48.67738" lon="1.86868">
        <ele>169</ele>
        <time>2013-08-18T09:04:43Z</time>
      </trkpt>
      <trkpt lat="48.67738" lon="1.86873">
        <ele>169</ele>
        <time>2013-08-18T09:04:45Z</time>
      </trkpt>
      <trkpt lat="48.67737" lon="1.86878">
        <ele>169</ele>
        <time>2013-08-18T09:04:47Z</time>
      </trkpt>
      <trkpt lat="48.67736" lon="1.86882">
        <ele>169</ele>
        <time>2013-08-18T09:04:49Z</time>
      </trkpt>
      <trkpt lat="48.67736" lon="1.86887">
        <ele>169</ele>
        <time>2013-08-18T09:04:51Z</time>
      </trkpt>
      <trkpt lat="48.67736" lon="1.86891">
        <ele>169</ele>
        <time>2013-08-18T09:04:53Z</time>
      </trkpt>
      <trkpt lat="48.67735" lon="1.86896">
        <ele>169</ele>
        <time>2013-08-18T09:04:55Z</time>
      </trkpt>
      <trkpt lat="48.67735" lon="1.869">
        <ele>169</ele>
        <time>2013-08-18T09:04:57Z</time>
      </trkpt>
      <trkpt lat="48.67734" lon="1.86905">
        <ele>169</ele>
        <time>2013-08-18T09:04:59Z</time>
      </trkpt>
      <trkpt lat="48.67734" lon="1.8691">
        <ele>169</ele>
        <time>2013-08-18T09:05:01Z</time>
      </trkpt>
      <trkpt lat="48.67733" lon="1.86915">
        <ele>169</ele>
        <time>2013-08-18T09:05:03Z</time>
      </trkpt>
      <trkpt lat="48.67733" lon="1.86919">
        <ele>169</ele>
        <time>2013-08-18T09:05:05Z</time>
      </trkpt>
      <trkpt lat="48.67732" lon="1.86924">
        <ele>169</ele>
        <time>2013-08-18T09:05:07Z</time>
      </trkpt>
      <trkpt lat="48.67731" lon="1.86929">
        <ele>169</ele>
        <time>2013-08-18T09:05:09Z</time>
      </trkpt>
      <trkpt lat="48.67731" lon="1.86934">
        <ele>169</ele>
        <time>2013-08-18T09:05:11Z</time>
      </trkpt>
      <trkpt lat="48.6773" lon="1.86938">
        <ele>169</ele>
        <time>2013-08-18T09:05:13Z</time>
      </trkpt>
      <trkpt lat="48.6773" lon="1.86942">
        <ele>169</ele>
        <time>2013-08-18T09:05:15Z</time>
      </trkpt>
      <trkpt lat="48.67729" lon="1.86946">
        <ele>169</ele>
        <time>2013-08-18T09:05:17Z</time>
      </trkpt>
      <trkpt lat="48.67728" lon="1.86951">
        <ele>169</ele>
        <time>2013-08-18T09:05:19Z</time>
      </trkpt>
      <trkpt lat="48.67728" lon="1.86956">
        <ele>169</ele>
        <time>2013-08-18T09:05:21Z</time>
      </trkpt>
      <trkpt lat="48.67727" lon="1.8696">
        <ele>169</ele>
        <time>2013-08-18T09:05:23Z</time>
      </trkpt>
      <trkpt lat="48.67727" lon="1.86964">
        <ele>169</ele>
        <time>2013-08-18T09:05:25Z</time>
      </trkpt>
      <trkpt lat="48.67727" lon="1.86968">
        <ele>169</ele>
        <time>2013-08-18T09:05:27Z</time>
      </trkpt>
      <trkpt lat="48.67727" lon="1.86973">
        <ele>169</ele>
        <time>2013-08-18T09:05:29Z</time>
      </trkpt>
      <trkpt lat="48.67726" lon="1.86977">
        <ele>169</ele>
        <time>2013-08-18T09:05:31Z</time>
      </trkpt>
      <trkpt lat="48.67726" lon="1.86981">
        <ele>169</ele>
        <time>2013-08-18T09:05:33Z</time>
      </trkpt>
      <trkpt lat="48.67726" lon="1.86986">
        <ele>169</ele>
        <time>2013-08-18T09:05:35Z</time>
      </trkpt>
      <trkpt lat="48.67726" lon="1.8699">
        <ele>169</ele>
        <time>2013-08-18T09:05:37Z</time>
      </trkpt>
      <trkpt lat="48.67725" lon="1.86994">
        <ele>169</ele>
        <time>2013-08-18T09:05:39Z</time>
      </trkpt>
      <trkpt lat="48.67725" lon="1.86999">
        <ele>169</ele>
        <time>2013-08-18T09:05:41Z</time>
      </trkpt>
      <trkpt lat="48.67725" lon="1.87003">
        <ele>169</ele>
        <time>2013-08-18T09:05:43Z</time>
      </trkpt>
      <trkpt lat="48.67724" lon="1.87008">
        <ele>169</ele>
        <time>2013-08-18T09:05:45Z</time>
      </trkpt>
      <trkpt lat="48.67724" lon="1.87013">
        <ele>169</ele>
        <time>2013-08-18T09:05:47Z</time>
      </trkpt>
      <trkpt lat="48.67724" lon="1.87018">
        <ele>169</ele>
        <time>2013-08-18T09:05:49Z</time>
      </trkpt>
      <trkpt lat="48.67723" lon="1.87023">
        <ele>169</ele>
        <time>2013-08-18T09:05:51Z</time>
      </trkpt>
      <trkpt lat="48.67723" lon="1.87028">
        <ele>169</ele>
        <time>2013-08-18T09:05:53Z</time>
      </trkpt>
      <trkpt lat="48.67722" lon="1.87033">
        <ele>169</ele>
        <time>2013-08-18T09:05:55Z</time>
      </trkpt>
      <trkpt lat="48.67722" lon="1.87039">
        <ele>169</ele>
        <time>2013-08-18T09:05:57Z</time>
      </trkpt>
      <trkpt lat="48.67722" lon="1.87043">
        <ele>169</ele>
        <time>2013-08-18T09:05:59Z</time>
      </trkpt>
      <trkpt lat="48.67722" lon="1.87048">
        <ele>169</ele>
        <time>2013-08-18T09:06:01Z</time>
      </trkpt>
      <trkpt lat="48.67722" lon="1.87053">
        <ele>169</ele>
        <time>2013-08-18T09:06:03Z</time>
      </trkpt>
      <trkpt lat="48.67722" lon="1.87057">
        <ele>169</ele>
        <time>2013-08-18T09:06:05Z</time>
      </trkpt>
      <trkpt lat="48.67724" lon="1.87063">
        <ele>169</ele>
        <time>2013-08-18T09:06:07Z</time>
      </trkpt>
      <trkpt lat="48.67726" lon="1.8707">
        <ele>169</ele>
        <time>2013-08-18T09:06:09Z</time>
      </trkpt>
      <trkpt lat="48.67727" lon="1.87075">
        <ele>169</ele>
        <time>2013-08-18T09:06:11Z</time>
      </trkpt>
      <trkpt lat="48.67729" lon="1.8708">
        <ele>169</ele>
        <time>2013-08-18T09:06:13Z</time>
      </trkpt>
      <trkpt lat="48.67731" lon="1.87083">
        <ele>169</ele>
        <time>2013-08-18T09:06:15Z</time>
      </trkpt>
      <trkpt lat="48.67733" lon="1.87087">
        <ele>169</ele>
        <time>2013-08-18T09:06:17Z</time>
      </trkpt>
      <trkpt lat="48.67735" lon="1.87091">
        <ele>169</ele>
        <time>2013-08-18T09:06:19Z</time>
      </trkpt>
      <trkpt lat="48.67736" lon="1.87095">
        <ele>169</ele>
        <time>2013-08-18T09:06:21Z</time>
      </trkpt>
      <trkpt lat="48.67738" lon="1.87099">
        <ele>169</ele>
        <time>2013-08-18T09:06:23Z</time>
      </trkpt>
      <trkpt lat="48.67738" lon="1.87103">
        <ele>169</ele>
        <time>2013-08-18T09:06:25Z</time>
      </trkpt>
      <trkpt lat="48.67739" lon="1.87108">
        <ele>169</ele>
        <time>2013-08-18T09:06:27Z</time>
      </trkpt>
      <trkpt lat="48.6774" lon="1.87113">
        <ele>169</ele>
        <time>2013-08-18T09:06:29Z</time>
      </trkpt>
      <trkpt lat="48.67741" lon="1.87118">
        <ele>169</ele>
        <time>2013-08-18T09:06:31Z</time>
      </trkpt>
      <trkpt lat="48.67742" lon="1.87122">
        <ele>169</ele>
        <time>2013-08-18T09:06:33Z</time>
      </trkpt>
      <trkpt lat="48.67742" lon="1.87127">
        <ele>169</ele>
        <time>2013-08-18T09:06:35Z</time>
      </trkpt>
      <trkpt lat="48.67742" lon="1.87133">
        <ele>169</ele>
        <time>2013-08-18T09:06:38Z</time>
      </trkpt>
      <trkpt lat="48.67742" lon="1.87137">
        <ele>169</ele>
        <time>2013-08-18T09:06:40Z</time>
      </trkpt>
      <trkpt lat="48.67742" lon="1.87142">
        <ele>169</ele>
        <time>2013-08-18T09:06:42Z</time>
      </trkpt>
      <trkpt lat="48.6774" lon="1.87145">
        <ele>169</ele>
        <time>2013-08-18T09:06:45Z</time>
      </trkpt>
      <trkpt lat="48.67738" lon="1.87145">
        <ele>169</ele>
        <time>2013-08-18T09:06:47Z</time>
      </trkpt>
      <trkpt lat="48.67735" lon="1.87145">
        <ele>169</ele>
        <time>2013-08-18T09:06:49Z</time>
      </trkpt>
      <trkpt lat="48.67733" lon="1.87145">
        <ele>169</ele>
        <time>2013-08-18T09:06:51Z</time>
      </trkpt>
      <trkpt lat="48.6773" lon="1.87144">
        <ele>169</ele>
        <time>2013-08-18T09:06:53Z</time>
      </trkpt>
      <trkpt lat="48.67727" lon="1.87142">
        <ele>169</ele>
        <time>2013-08-18T09:06:55Z</time>
      </trkpt>
      <trkpt lat="48.67724" lon="1.87142">
        <ele>168</ele>
        <time>2013-08-18T09:06:57Z</time>
      </trkpt>
      <trkpt lat="48.67721" lon="1.87142">
        <ele>168</ele>
        <time>2013-08-18T09:06:59Z</time>
      </trkpt>
      <trkpt lat="48.67717" lon="1.87141">
        <ele>168</ele>
        <time>2013-08-18T09:07:01Z</time>
      </trkpt>
      <trkpt lat="48.67715" lon="1.87141">
        <ele>168</ele>
        <time>2013-08-18T09:07:03Z</time>
      </trkpt>
      <trkpt lat="48.67712" lon="1.87142">
        <ele>168</ele>
        <time>2013-08-18T09:07:05Z</time>
      </trkpt>
      <trkpt lat="48.6771" lon="1.87143">
        <ele>168</ele>
        <time>2013-08-18T09:07:07Z</time>
      </trkpt>
      <trkpt lat="48.67706" lon="1.87143">
        <ele>168</ele>
        <time>2013-08-18T09:07:09Z</time>
      </trkpt>
      <trkpt lat="48.67703" lon="1.87144">
        <ele>168</ele>
        <time>2013-08-18T09:07:11Z</time>
      </trkpt>
      <trkpt lat="48.67701" lon="1.87143">
        <ele>168</ele>
        <time>2013-08-18T09:07:13Z</time>
      </trkpt>
      <trkpt lat="48.67697" lon="1.87143">
        <ele>168</ele>
        <time>2013-08-18T09:07:15Z</time>
      </trkpt>
      <trkpt lat="48.67694" lon="1.87143">
        <ele>168</ele>
        <time>2013-08-18T09:07:17Z</time>
      </trkpt>
      <trkpt lat="48.6769" lon="1.87143">
        <ele>168</ele>
        <time>2013-08-18T09:07:19Z</time>
      </trkpt>
      <trkpt lat="48.67687" lon="1.87143">
        <ele>168</ele>
        <time>2013-08-18T09:07:21Z</time>
      </trkpt>
      <trkpt lat="48.67684" lon="1.87143">
        <ele>168</ele>
        <time>2013-08-18T09:07:23Z</time>
      </trkpt>
      <trkpt lat="48.67681" lon="1.87143">
        <ele>168</ele>
        <time>2013-08-18T09:07:25Z</time>
      </trkpt>
      <trkpt lat="48.67678" lon="1.87142">
        <ele>167</ele>
        <time>2013-08-18T09:07:27Z</time>
      </trkpt>
      <trkpt lat="48.67675" lon="1.87141">
        <ele>167</ele>
        <time>2013-08-18T09:07:29Z</time>
      </trkpt>
      <trkpt lat="48.67672" lon="1.87141">
        <ele>166</ele>
        <time>2013-08-18T09:07:31Z</time>
      </trkpt>
      <trkpt lat="48.67668" lon="1.87141">
        <ele>166</ele>
        <time>2013-08-18T09:07:33Z</time>
      </trkpt>
      <trkpt lat="48.67664" lon="1.87141">
        <ele>166</ele>
        <time>2013-08-18T09:07:35Z</time>
      </trkpt>
      <trkpt lat="48.67661" lon="1.8714">
        <ele>166</ele>
        <time>2013-08-18T09:07:37Z</time>
      </trkpt>
      <trkpt lat="48.67658" lon="1.87139">
        <ele>166</ele>
        <time>2013-08-18T09:07:39Z</time>
      </trkpt>
      <trkpt lat="48.67655" lon="1.87138">
        <ele>166</ele>
        <time>2013-08-18T09:07:41Z</time>
      </trkpt>
      <trkpt lat="48.67651" lon="1.87138">
        <ele>166</ele>
        <time>2013-08-18T09:07:43Z</time>
      </trkpt>
      <trkpt lat="48.67647" lon="1.87138">
        <ele>166</ele>
        <time>2013-08-18T09:07:45Z</time>
      </trkpt>
      <trkpt lat="48.67644" lon="1.87137">
        <ele>166</ele>
        <time>2013-08-18T09:07:47Z</time>
      </trkpt>
      <trkpt lat="48.6764" lon="1.87137">
        <ele>166</ele>
        <time>2013-08-18T09:07:49Z</time>
      </trkpt>
      <trkpt lat="48.67637" lon="1.87137">
        <ele>166</ele>
        <time>2013-08-18T09:07:51Z</time>
      </trkpt>
      <trkpt lat="48.67633" lon="1.87137">
        <ele>166</ele>
        <time>2013-08-18T09:07:53Z</time>
      </trkpt>
      <trkpt lat="48.6763" lon="1.87136">
        <ele>166</ele>
        <time>2013-08-18T09:07:55Z</time>
      </trkpt>
      <trkpt lat="48.67627" lon="1.87136">
        <ele>166</ele>
        <time>2013-08-18T09:07:57Z</time>
      </trkpt>
      <trkpt lat="48.67624" lon="1.87135">
        <ele>166</ele>
        <time>2013-08-18T09:07:59Z</time>
      </trkpt>
      <trkpt lat="48.67621" lon="1.87133">
        <ele>166</ele>
        <time>2013-08-18T09:08:01Z</time>
      </trkpt>
      <trkpt lat="48.67618" lon="1.87132">
        <ele>166</ele>
        <time>2013-08-18T09:08:03Z</time>
      </trkpt>
      <trkpt lat="48.67615" lon="1.8713">
        <ele>166</ele>
        <time>2013-08-18T09:08:05Z</time>
      </trkpt>
      <trkpt lat="48.67614" lon="1.87128">
        <ele>166</ele>
        <time>2013-08-18T09:08:07Z</time>
      </trkpt>
      <trkpt lat="48.67611" lon="1.87127">
        <ele>166</ele>
        <time>2013-08-18T09:08:09Z</time>
      </trkpt>
      <trkpt lat="48.67608" lon="1.87125">
        <ele>166</ele>
        <time>2013-08-18T09:08:11Z</time>
      </trkpt>
      <trkpt lat="48.67605" lon="1.87123">
        <ele>165</ele>
        <time>2013-08-18T09:08:13Z</time>
      </trkpt>
      <trkpt lat="48.67601" lon="1.87123">
        <ele>165</ele>
        <time>2013-08-18T09:08:15Z</time>
      </trkpt>
      <trkpt lat="48.67598" lon="1.87123">
        <ele>165</ele>
        <time>2013-08-18T09:08:17Z</time>
      </trkpt>
      <trkpt lat="48.67594" lon="1.87122">
        <ele>165</ele>
        <time>2013-08-18T09:08:19Z</time>
      </trkpt>
      <trkpt lat="48.67591" lon="1.87121">
        <ele>165</ele>
        <time>2013-08-18T09:08:21Z</time>
      </trkpt>
      <trkpt lat="48.67588" lon="1.8712">
        <ele>165</ele>
        <time>2013-08-18T09:08:23Z</time>
      </trkpt>
      <trkpt lat="48.67585" lon="1.87119">
        <ele>165</ele>
        <time>2013-08-18T09:08:25Z</time>
      </trkpt>
      <trkpt lat="48.67582" lon="1.87117">
        <ele>165</ele>
        <time>2013-08-18T09:08:27Z</time>
      </trkpt>
      <trkpt lat="48.67578" lon="1.87115">
        <ele>165</ele>
        <time>2013-08-18T09:08:30Z</time>
      </trkpt>
      <trkpt lat="48.67576" lon="1.87113">
        <ele>165</ele>
        <time>2013-08-18T09:08:32Z</time>
      </trkpt>
      <trkpt lat="48.67573" lon="1.87112">
        <ele>164</ele>
        <time>2013-08-18T09:08:34Z</time>
      </trkpt>
      <trkpt lat="48.67569" lon="1.87111">
        <ele>164</ele>
        <time>2013-08-18T09:08:36Z</time>
      </trkpt>
      <trkpt lat="48.67567" lon="1.8711">
        <ele>164</ele>
        <time>2013-08-18T09:08:38Z</time>
      </trkpt>
      <trkpt lat="48.67564" lon="1.87109">
        <ele>164</ele>
        <time>2013-08-18T09:08:40Z</time>
      </trkpt>
      <trkpt lat="48.6756" lon="1.87109">
        <ele>164</ele>
        <time>2013-08-18T09:08:42Z</time>
      </trkpt>
      <trkpt lat="48.67558" lon="1.87109">
        <ele>164</ele>
        <time>2013-08-18T09:08:44Z</time>
      </trkpt>
      <trkpt lat="48.67554" lon="1.87108">
        <ele>164</ele>
        <time>2013-08-18T09:08:46Z</time>
      </trkpt>
      <trkpt lat="48.67551" lon="1.87108">
        <ele>164</ele>
        <time>2013-08-18T09:08:48Z</time>
      </trkpt>
      <trkpt lat="48.67546" lon="1.87107">
        <ele>164</ele>
        <time>2013-08-18T09:08:50Z</time>
      </trkpt>
      <trkpt lat="48.67543" lon="1.87107">
        <ele>164</ele>
        <time>2013-08-18T09:08:52Z</time>
      </trkpt>
      <trkpt lat="48.6754" lon="1.87107">
        <ele>164</ele>
        <time>2013-08-18T09:08:54Z</time>
      </trkpt>
      <trkpt lat="48.67535" lon="1.87107">
        <ele>164</ele>
        <time>2013-08-18T09:08:56Z</time>
      </trkpt>
      <trkpt lat="48.67532" lon="1.87106">
        <ele>164</ele>
        <time>2013-08-18T09:08:58Z</time>
      </trkpt>
      <trkpt lat="48.67529" lon="1.87104">
        <ele>164</ele>
        <time>2013-08-18T09:09:00Z</time>
      </trkpt>
      <trkpt lat="48.67525" lon="1.87103">
        <ele>164</ele>
        <time>2013-08-18T09:09:03Z</time>
      </trkpt>
      <trkpt lat="48.67522" lon="1.87102">
        <ele>164</ele>
        <time>2013-08-18T09:09:06Z</time>
      </trkpt>
      <trkpt lat="48.67519" lon="1.871">
        <ele>164</ele>
        <time>2013-08-18T09:09:08Z</time>
      </trkpt>
      <trkpt lat="48.67516" lon="1.87098">
        <ele>164</ele>
        <time>2013-08-18T09:09:10Z</time>
      </trkpt>
      <trkpt lat="48.67513" lon="1.87098">
        <ele>164</ele>
        <time>2013-08-18T09:09:12Z</time>
      </trkpt>
      <trkpt lat="48.67509" lon="1.87098">
        <ele>164</ele>
        <time>2013-08-18T09:09:14Z</time>
      </trkpt>
      <trkpt lat="48.67506" lon="1.87097">
        <ele>164</ele>
        <time>2013-08-18T09:09:16Z</time>
      </trkpt>
      <trkpt lat="48.67503" lon="1.87097">
        <ele>164</ele>
        <time>2013-08-18T09:09:18Z</time>
      </trkpt>
      <trkpt lat="48.67501" lon="1.87095">
        <ele>164</ele>
        <time>2013-08-18T09:09:21Z</time>
      </trkpt>
      <trkpt lat="48.67497" lon="1.87095">
        <ele>164</ele>
        <time>2013-08-18T09:09:24Z</time>
      </trkpt>
      <trkpt lat="48.67494" lon="1.87096">
        <ele>164</ele>
        <time>2013-08-18T09:09:26Z</time>
      </trkpt>
      <trkpt lat="48.6749" lon="1.87098">
        <ele>164</ele>
        <time>2013-08-18T09:09:29Z</time>
      </trkpt>
      <trkpt lat="48.67487" lon="1.871">
        <ele>164</ele>
        <time>2013-08-18T09:09:31Z</time>
      </trkpt>
      <trkpt lat="48.67484" lon="1.871">
        <ele>165</ele>
        <time>2013-08-18T09:09:33Z</time>
      </trkpt>
      <trkpt lat="48.67481" lon="1.87096">
        <ele>165</ele>
        <time>2013-08-18T09:09:36Z</time>
      </trkpt>
      <trkpt lat="48.6748" lon="1.87094">
        <ele>165</ele>
        <time>2013-08-18T09:09:38Z</time>
      </trkpt>
      <trkpt lat="48.6748" lon="1.87089">
        <ele>165</ele>
        <time>2013-08-18T09:09:41Z</time>
      </trkpt>
      <trkpt lat="48.6748" lon="1.87084">
        <ele>165</ele>
        <time>2013-08-18T09:09:43Z</time>
      </trkpt>
      <trkpt lat="48.67479" lon="1.87079">
        <ele>165</ele>
        <time>2013-08-18T09:09:45Z</time>
      </trkpt>
      <trkpt lat="48.67479" lon="1.87075">
        <ele>165</ele>
        <time>2013-08-18T09:09:47Z</time>
      </trkpt>
      <trkpt lat="48.67479" lon="1.8707">
        <ele>165</ele>
        <time>2013-08-18T09:09:49Z</time>
      </trkpt>
      <trkpt lat="48.67478" lon="1.87065">
        <ele>165</ele>
        <time>2013-08-18T09:09:51Z</time>
      </trkpt>
      <trkpt lat="48.67477" lon="1.87061">
        <ele>165</ele>
        <time>2013-08-18T09:09:53Z</time>
      </trkpt>
      <trkpt lat="48.67476" lon="1.87057">
        <ele>166</ele>
        <time>2013-08-18T09:09:55Z</time>
      </trkpt>
      <trkpt lat="48.67474" lon="1.87055">
        <ele>167</ele>
        <time>2013-08-18T09:09:57Z</time>
      </trkpt>
      <trkpt lat="48.67471" lon="1.87056">
        <ele>168</ele>
        <time>2013-08-18T09:09:59Z</time>
      </trkpt>
      <trkpt lat="48.67468" lon="1.87057">
        <ele>168</ele>
        <time>2013-08-18T09:10:02Z</time>
      </trkpt>
      <trkpt lat="48.67464" lon="1.8706">
        <ele>169</ele>
        <time>2013-08-18T09:10:04Z</time>
      </trkpt>
      <trkpt lat="48.67461" lon="1.87061">
        <ele>169</ele>
        <time>2013-08-18T09:10:06Z</time>
      </trkpt>
      <trkpt lat="48.67457" lon="1.87063">
        <ele>170</ele>
        <time>2013-08-18T09:10:08Z</time>
      </trkpt>
      <trkpt lat="48.67453" lon="1.87066">
        <ele>171</ele>
        <time>2013-08-18T09:10:10Z</time>
      </trkpt>
      <trkpt lat="48.67448" lon="1.87066">
        <ele>172</ele>
        <time>2013-08-18T09:10:12Z</time>
      </trkpt>
      <trkpt lat="48.67443" lon="1.87069">
        <ele>174</ele>
        <time>2013-08-18T09:10:14Z</time>
      </trkpt>
      <trkpt lat="48.67439" lon="1.87068">
        <ele>176</ele>
        <time>2013-08-18T09:10:16Z</time>
      </trkpt>
      <trkpt lat="48.67435" lon="1.87067">
        <ele>177</ele>
        <time>2013-08-18T09:10:18Z</time>
      </trkpt>
      <trkpt lat="48.67431" lon="1.87067">
        <ele>177</ele>
        <time>2013-08-18T09:10:20Z</time>
      </trkpt>
      <trkpt lat="48.67426" lon="1.87067">
        <ele>178</ele>
        <time>2013-08-18T09:10:22Z</time>
      </trkpt>
      <trkpt lat="48.67422" lon="1.87065">
        <ele>178</ele>
        <time>2013-08-18T09:10:24Z</time>
      </trkpt>
      <trkpt lat="48.67418" lon="1.87064">
        <ele>179</ele>
        <time>2013-08-18T09:10:26Z</time>
      </trkpt>
      <trkpt lat="48.67415" lon="1.87063">
        <ele>179</ele>
        <time>2013-08-18T09:10:28Z</time>
      </trkpt>
      <trkpt lat="48.67412" lon="1.8706">
        <ele>179</ele>
        <time>2013-08-18T09:10:30Z</time>
      </trkpt>
      <trkpt lat="48.67408" lon="1.8706">
        <ele>179</ele>
        <time>2013-08-18T09:10:32Z</time>
      </trkpt>
      <trkpt lat="48.67405" lon="1.87059">
        <ele>179</ele>
        <time>2013-08-18T09:10:35Z</time>
      </trkpt>
      <trkpt lat="48.67402" lon="1.87058">
        <ele>179</ele>
        <time>2013-08-18T09:10:37Z</time>
      </trkpt>
      <trkpt lat="48.674" lon="1.87058">
        <ele>179</ele>
        <time>2013-08-18T09:10:39Z</time>
      </trkpt>
      <trkpt lat="48.67396" lon="1.87058">
        <ele>179</ele>
        <time>2013-08-18T09:10:41Z</time>
      </trkpt>
      <trkpt lat="48.67393" lon="1.87058">
        <ele>179</ele>
        <time>2013-08-18T09:10:43Z</time>
      </trkpt>
      <trkpt lat="48.6739" lon="1.87056">
        <ele>180</ele>
        <time>2013-08-18T09:10:46Z</time>
      </trkpt>
      <trkpt lat="48.67388" lon="1.87055">
        <ele>180</ele>
        <time>2013-08-18T09:10:48Z</time>
      </trkpt>
      <trkpt lat="48.67385" lon="1.87054">
        <ele>180</ele>
        <time>2013-08-18T09:10:50Z</time>
      </trkpt>
      <trkpt lat="48.67382" lon="1.87055">
        <ele>180</ele>
        <time>2013-08-18T09:10:52Z</time>
      </trkpt>
      <trkpt lat="48.67378" lon="1.87056">
        <ele>180</ele>
        <time>2013-08-18T09:10:54Z</time>
      </trkpt>
      <trkpt lat="48.67375" lon="1.87055">
        <ele>180</ele>
        <time>2013-08-18T09:10:56Z</time>
      </trkpt>
      <trkpt lat="48.67373" lon="1.87055">
        <ele>180</ele>
        <time>2013-08-18T09:10:58Z</time>
      </trkpt>
      <trkpt lat="48.67369" lon="1.87053">
        <ele>180</ele>
        <time>2013-08-18T09:11:00Z</time>
      </trkpt>
      <trkpt lat="48.67365" lon="1.87052">
        <ele>180</ele>
        <time>2013-08-18T09:11:02Z</time>
      </trkpt>
      <trkpt lat="48.67361" lon="1.8705">
        <ele>180</ele>
        <time>2013-08-18T09:11:04Z</time>
      </trkpt>
      <trkpt lat="48.67357" lon="1.87048">
        <ele>180</ele>
        <time>2013-08-18T09:11:07Z</time>
      </trkpt>
      <trkpt lat="48.67353" lon="1.87047">
        <ele>179</ele>
        <time>2013-08-18T09:11:09Z</time>
      </trkpt>
      <trkpt lat="48.6735" lon="1.87046">
        <ele>179</ele>
        <time>2013-08-18T09:11:11Z</time>
      </trkpt>
      <trkpt lat="48.67347" lon="1.87044">
        <ele>179</ele>
        <time>2013-08-18T09:11:13Z</time>
      </trkpt>
      <trkpt lat="48.67344" lon="1.87043">
        <ele>179</ele>
        <time>2013-08-18T09:11:15Z</time>
      </trkpt>
      <trkpt lat="48.67341" lon="1.87041">
        <ele>179</ele>
        <time>2013-08-18T09:11:17Z</time>
      </trkpt>
      <trkpt lat="48.67338" lon="1.8704">
        <ele>179</ele>
        <time>2013-08-18T09:11:19Z</time>
      </trkpt>
      <trkpt lat="48.67334" lon="1.87038">
        <ele>179</ele>
        <time>2013-08-18T09:11:21Z</time>
      </trkpt>
      <trkpt lat="48.6733" lon="1.87038">
        <ele>179</ele>
        <time>2013-08-18T09:11:23Z</time>
      </trkpt>
      <trkpt lat="48.67327" lon="1.87037">
        <ele>179</ele>
        <time>2013-08-18T09:11:25Z</time>
      </trkpt>
      <trkpt lat="48.67324" lon="1.87036">
        <ele>179</ele>
        <time>2013-08-18T09:11:27Z</time>
      </trkpt>
      <trkpt lat="48.6732" lon="1.87035">
        <ele>179</ele>
        <time>2013-08-18T09:11:29Z</time>
      </trkpt>
      <trkpt lat="48.67317" lon="1.87034">
        <ele>178</ele>
        <time>2013-08-18T09:11:31Z</time>
      </trkpt>
      <trkpt lat="48.67313" lon="1.87033">
        <ele>178</ele>
        <time>2013-08-18T09:11:33Z</time>
      </trkpt>
      <trkpt lat="48.6731" lon="1.87032">
        <ele>178</ele>
        <time>2013-08-18T09:11:35Z</time>
      </trkpt>
      <trkpt lat="48.67307" lon="1.87032">
        <ele>178</ele>
        <time>2013-08-18T09:11:37Z</time>
      </trkpt>
      <trkpt lat="48.67303" lon="1.8703">
        <ele>178</ele>
        <time>2013-08-18T09:11:39Z</time>
      </trkpt>
      <trkpt lat="48.67299" lon="1.8703">
        <ele>178</ele>
        <time>2013-08-18T09:11:41Z</time>
      </trkpt>
      <trkpt lat="48.67295" lon="1.8703">
        <ele>178</ele>
        <time>2013-08-18T09:11:43Z</time>
      </trkpt>
      <trkpt lat="48.67292" lon="1.8703">
        <ele>178</ele>
        <time>2013-08-18T09:11:45Z</time>
      </trkpt>
      <trkpt lat="48.67289" lon="1.87027">
        <ele>178</ele>
        <time>2013-08-18T09:11:47Z</time>
      </trkpt>
      <trkpt lat="48.67285" lon="1.87026">
        <ele>179</ele>
        <time>2013-08-18T09:11:49Z</time>
      </trkpt>
      <trkpt lat="48.6728" lon="1.87024">
        <ele>181</ele>
        <time>2013-08-18T09:11:52Z</time>
      </trkpt>
      <trkpt lat="48.67277" lon="1.87022">
        <ele>182</ele>
        <time>2013-08-18T09:11:54Z</time>
      </trkpt>
      <trkpt lat="48.67273" lon="1.87022">
        <ele>183</ele>
        <time>2013-08-18T09:11:56Z</time>
      </trkpt>
      <trkpt lat="48.67269" lon="1.87023">
        <ele>184</ele>
        <time>2013-08-18T09:11:59Z</time>
      </trkpt>
      <trkpt lat="48.67265" lon="1.87024">
        <ele>184</ele>
        <time>2013-08-18T09:12:01Z</time>
      </trkpt>
      <trkpt lat="48.67263" lon="1.87025">
        <ele>184</ele>
        <time>2013-08-18T09:12:03Z</time>
      </trkpt>
      <trkpt lat="48.6726" lon="1.87025">
        <ele>184</ele>
        <time>2013-08-18T09:12:05Z</time>
      </trkpt>
      <trkpt lat="48.67256" lon="1.87024">
        <ele>184</ele>
        <time>2013-08-18T09:12:07Z</time>
      </trkpt>
      <trkpt lat="48.67254" lon="1.87026">
        <ele>184</ele>
        <time>2013-08-18T09:12:09Z</time>
      </trkpt>
      <trkpt lat="48.67252" lon="1.87027">
        <ele>184</ele>
        <time>2013-08-18T09:12:11Z</time>
      </trkpt>
      <trkpt lat="48.6725" lon="1.87028">
        <ele>184</ele>
        <time>2013-08-18T09:12:13Z</time>
      </trkpt>
      <trkpt lat="48.67249" lon="1.87031">
        <ele>184</ele>
        <time>2013-08-18T09:12:15Z</time>
      </trkpt>
      <trkpt lat="48.67247" lon="1.87033">
        <ele>184</ele>
        <time>2013-08-18T09:12:17Z</time>
      </trkpt>
      <trkpt lat="48.67246" lon="1.87035">
        <ele>184</ele>
        <time>2013-08-18T09:12:19Z</time>
      </trkpt>
      <trkpt lat="48.67243" lon="1.87036">
        <ele>183</ele>
        <time>2013-08-18T09:12:21Z</time>
      </trkpt>
      <trkpt lat="48.6724" lon="1.87036">
        <ele>183</ele>
        <time>2013-08-18T09:12:23Z</time>
      </trkpt>
      <trkpt lat="48.67237" lon="1.87037">
        <ele>182</ele>
        <time>2013-08-18T09:12:25Z</time>
      </trkpt>
      <trkpt lat="48.67234" lon="1.87039">
        <ele>181</ele>
        <time>2013-08-18T09:12:27Z</time>
      </trkpt>
      <trkpt lat="48.67232" lon="1.8704">
        <ele>180</ele>
        <time>2013-08-18T09:12:29Z</time>
      </trkpt>
      <trkpt lat="48.67229" lon="1.87041">
        <ele>179</ele>
        <time>2013-08-18T09:12:31Z</time>
      </trkpt>
      <trkpt lat="48.67226" lon="1.87042">
        <ele>179</ele>
        <time>2013-08-18T09:12:33Z</time>
      </trkpt>
      <trkpt lat="48.67222" lon="1.87044">
        <ele>179</ele>
        <time>2013-08-18T09:12:35Z</time>
      </trkpt>
      <trkpt lat="48.67219" lon="1.87045">
        <ele>179</ele>
        <time>2013-08-18T09:12:37Z</time>
      </trkpt>
      <trkpt lat="48.67216" lon="1.87048">
        <ele>179</ele>
        <time>2013-08-18T09:12:39Z</time>
      </trkpt>
      <trkpt lat="48.67212" lon="1.8705">
        <ele>179</ele>
        <time>2013-08-18T09:12:41Z</time>
      </trkpt>
      <trkpt lat="48.67209" lon="1.87053">
        <ele>179</ele>
        <time>2013-08-18T09:12:43Z</time>
      </trkpt>
      <trkpt lat="48.67205" lon="1.87054">
        <ele>179</ele>
        <time>2013-08-18T09:12:45Z</time>
      </trkpt>
      <trkpt lat="48.67203" lon="1.87056">
        <ele>179</ele>
        <time>2013-08-18T09:12:47Z</time>
      </trkpt>
      <trkpt lat="48.672" lon="1.87057">
        <ele>179</ele>
        <time>2013-08-18T09:12:49Z</time>
      </trkpt>
      <trkpt lat="48.67198" lon="1.87058">
        <ele>179</ele>
        <time>2013-08-18T09:12:51Z</time>
      </trkpt>
      <trkpt lat="48.67195" lon="1.87059">
        <ele>179</ele>
        <time>2013-08-18T09:12:53Z</time>
      </trkpt>
      <trkpt lat="48.67192" lon="1.87063">
        <ele>179</ele>
        <time>2013-08-18T09:12:56Z</time>
      </trkpt>
      <trkpt lat="48.67189" lon="1.87065">
        <ele>179</ele>
        <time>2013-08-18T09:12:58Z</time>
      </trkpt>
      <trkpt lat="48.67186" lon="1.87065">
        <ele>179</ele>
        <time>2013-08-18T09:13:00Z</time>
      </trkpt>
      <trkpt lat="48.67182" lon="1.87068">
        <ele>179</ele>
        <time>2013-08-18T09:13:02Z</time>
      </trkpt>
      <trkpt lat="48.67178" lon="1.87069">
        <ele>180</ele>
        <time>2013-08-18T09:13:04Z</time>
      </trkpt>
      <trkpt lat="48.67175" lon="1.8707">
        <ele>180</ele>
        <time>2013-08-18T09:13:06Z</time>
      </trkpt>
      <trkpt lat="48.67172" lon="1.87074">
        <ele>180</ele>
        <time>2013-08-18T09:13:08Z</time>
      </trkpt>
      <trkpt lat="48.67169" lon="1.87077">
        <ele>180</ele>
        <time>2013-08-18T09:13:10Z</time>
      </trkpt>
      <trkpt lat="48.67166" lon="1.87079">
        <ele>181</ele>
        <time>2013-08-18T09:13:12Z</time>
      </trkpt>
      <trkpt lat="48.67162" lon="1.87082">
        <ele>181</ele>
        <time>2013-08-18T09:13:14Z</time>
      </trkpt>
      <trkpt lat="48.67159" lon="1.87084">
        <ele>181</ele>
        <time>2013-08-18T09:13:16Z</time>
      </trkpt>
      <trkpt lat="48.67156" lon="1.87087">
        <ele>181</ele>
        <time>2013-08-18T09:13:18Z</time>
      </trkpt>
      <trkpt lat="48.67153" lon="1.87089">
        <ele>181</ele>
        <time>2013-08-18T09:13:20Z</time>
      </trkpt>
      <trkpt lat="48.67149" lon="1.8709">
        <ele>181</ele>
        <time>2013-08-18T09:13:23Z</time>
      </trkpt>
      <trkpt lat="48.67146" lon="1.87091">
        <ele>181</ele>
        <time>2013-08-18T09:13:26Z</time>
      </trkpt>
      <trkpt lat="48.67144" lon="1.8709">
        <ele>181</ele>
        <time>2013-08-18T09:13:28Z</time>
      </trkpt>
      <trkpt lat="48.67143" lon="1.87091">
        <ele>181</ele>
        <time>2013-08-18T09:13:30Z</time>
      </trkpt>
      <trkpt lat="48.67141" lon="1.87094">
        <ele>181</ele>
        <time>2013-08-18T09:13:32Z</time>
      </trkpt>
      <trkpt lat="48.67139" lon="1.87094">
        <ele>179</ele>
        <time>2013-08-18T09:13:34Z</time>
      </trkpt>
      <trkpt lat="48.67138" lon="1.87095">
        <ele>178</ele>
        <time>2013-08-18T09:13:36Z</time>
      </trkpt>
      <trkpt lat="48.67136" lon="1.87096">
        <ele>176</ele>
        <time>2013-08-18T09:13:38Z</time>
      </trkpt>
      <trkpt lat="48.67133" lon="1.87099">
        <ele>174</ele>
        <time>2013-08-18T09:13:41Z</time>
      </trkpt>
      <trkpt lat="48.67131" lon="1.87102">
        <ele>174</ele>
        <time>2013-08-18T09:13:43Z</time>
      </trkpt>
      <trkpt lat="48.67128" lon="1.87104">
        <ele>174</ele>
        <time>2013-08-18T09:13:45Z</time>
      </trkpt>
      <trkpt lat="48.67124" lon="1.87107">
        <ele>174</ele>
        <time>2013-08-18T09:13:47Z</time>
      </trkpt>
      <trkpt lat="48.6712" lon="1.8711">
        <ele>174</ele>
        <time>2013-08-18T09:13:49Z</time>
      </trkpt>
      <trkpt lat="48.67117" lon="1.87112">
        <ele>174</ele>
        <time>2013-08-18T09:13:51Z</time>
      </trkpt>
      <trkpt lat="48.67114" lon="1.87113">
        <ele>174</ele>
        <time>2013-08-18T09:13:53Z</time>
      </trkpt>
      <trkpt lat="48.67111" lon="1.87116">
        <ele>174</ele>
        <time>2013-08-18T09:13:55Z</time>
      </trkpt>
      <trkpt lat="48.67108" lon="1.87119">
        <ele>174</ele>
        <time>2013-08-18T09:13:57Z</time>
      </trkpt>
      <trkpt lat="48.67106" lon="1.8712">
        <ele>174</ele>
        <time>2013-08-18T09:13:59Z</time>
      </trkpt>
      <trkpt lat="48.67103" lon="1.87121">
        <ele>174</ele>
        <time>2013-08-18T09:14:01Z</time>
      </trkpt>
      <trkpt lat="48.671" lon="1.87123">
        <ele>174</ele>
        <time>2013-08-18T09:14:04Z</time>
      </trkpt>
      <trkpt lat="48.67097" lon="1.87126">
        <ele>174</ele>
        <time>2013-08-18T09:14:06Z</time>
      </trkpt>
      <trkpt lat="48.67095" lon="1.87132">
        <ele>174</ele>
        <time>2013-08-18T09:14:08Z</time>
      </trkpt>
      <trkpt lat="48.67093" lon="1.87136">
        <ele>174</ele>
        <time>2013-08-18T09:14:10Z</time>
      </trkpt>
      <trkpt lat="48.67089" lon="1.87138">
        <ele>174</ele>
        <time>2013-08-18T09:14:13Z</time>
      </trkpt>
      <trkpt lat="48.67086" lon="1.87138">
        <ele>174</ele>
        <time>2013-08-18T09:14:15Z</time>
      </trkpt>
      <trkpt lat="48.67083" lon="1.8714">
        <ele>174</ele>
        <time>2013-08-18T09:14:17Z</time>
      </trkpt>
      <trkpt lat="48.6708" lon="1.87143">
        <ele>174</ele>
        <time>2013-08-18T09:14:19Z</time>
      </trkpt>
      <trkpt lat="48.67077" lon="1.87146">
        <ele>174</ele>
        <time>2013-08-18T09:14:21Z</time>
      </trkpt>
      <trkpt lat="48.67073" lon="1.87147">
        <ele>174</ele>
        <time>2013-08-18T09:14:23Z</time>
      </trkpt>
      <trkpt lat="48.67069" lon="1.87148">
        <ele>174</ele>
        <time>2013-08-18T09:14:25Z</time>
      </trkpt>
      <trkpt lat="48.67066" lon="1.87149">
        <ele>174</ele>
        <time>2013-08-18T09:14:27Z</time>
      </trkpt>
      <trkpt lat="48.67062" lon="1.87152">
        <ele>174</ele>
        <time>2013-08-18T09:14:29Z</time>
      </trkpt>
      <trkpt lat="48.67059" lon="1.87154">
        <ele>175</ele>
        <time>2013-08-18T09:14:31Z</time>
      </trkpt>
      <trkpt lat="48.67056" lon="1.87155">
        <ele>175</ele>
        <time>2013-08-18T09:14:33Z</time>
      </trkpt>
      <trkpt lat="48.67052" lon="1.87157">
        <ele>175</ele>
        <time>2013-08-18T09:14:35Z</time>
      </trkpt>
      <trkpt lat="48.67049" lon="1.87159">
        <ele>175</ele>
        <time>2013-08-18T09:14:37Z</time>
      </trkpt>
      <trkpt lat="48.67045" lon="1.87158">
        <ele>175</ele>
        <time>2013-08-18T09:14:40Z</time>
      </trkpt>
      <trkpt lat="48.67042" lon="1.87159">
        <ele>175</ele>
        <time>2013-08-18T09:14:42Z</time>
      </trkpt>
      <trkpt lat="48.6704" lon="1.87159">
        <ele>175</ele>
        <time>2013-08-18T09:14:44Z</time>
      </trkpt>
      <trkpt lat="48.67037" lon="1.8716">
        <ele>175</ele>
        <time>2013-08-18T09:14:46Z</time>
      </trkpt>
      <trkpt lat="48.67035" lon="1.87162">
        <ele>175</ele>
        <time>2013-08-18T09:14:48Z</time>
      </trkpt>
      <trkpt lat="48.67031" lon="1.87165">
        <ele>175</ele>
        <time>2013-08-18T09:14:50Z</time>
      </trkpt>
      <trkpt lat="48.67028" lon="1.8717">
        <ele>175</ele>
        <time>2013-08-18T09:14:52Z</time>
      </trkpt>
      <trkpt lat="48.67027" lon="1.87172">
        <ele>175</ele>
        <time>2013-08-18T09:14:54Z</time>
      </trkpt>
      <trkpt lat="48.67023" lon="1.87175">
        <ele>175</ele>
        <time>2013-08-18T09:14:56Z</time>
      </trkpt>
      <trkpt lat="48.6702" lon="1.87176">
        <ele>175</ele>
        <time>2013-08-18T09:14:59Z</time>
      </trkpt>
      <trkpt lat="48.67017" lon="1.87177">
        <ele>175</ele>
        <time>2013-08-18T09:15:01Z</time>
      </trkpt>
      <trkpt lat="48.67014" lon="1.87178">
        <ele>175</ele>
        <time>2013-08-18T09:15:04Z</time>
      </trkpt>
      <trkpt lat="48.67013" lon="1.87179">
        <ele>175</ele>
        <time>2013-08-18T09:15:07Z</time>
      </trkpt>
      <trkpt lat="48.67012" lon="1.87181">
        <ele>175</ele>
        <time>2013-08-18T09:15:09Z</time>
      </trkpt>
      <trkpt lat="48.6701" lon="1.87184">
        <ele>175</ele>
        <time>2013-08-18T09:15:11Z</time>
      </trkpt>
      <trkpt lat="48.67007" lon="1.87187">
        <ele>175</ele>
        <time>2013-08-18T09:15:13Z</time>
      </trkpt>
      <trkpt lat="48.67005" lon="1.87189">
        <ele>175</ele>
        <time>2013-08-18T09:15:15Z</time>
      </trkpt>
      <trkpt lat="48.67002" lon="1.87191">
        <ele>175</ele>
        <time>2013-08-18T09:15:17Z</time>
      </trkpt>
      <trkpt lat="48.66999" lon="1.87192">
        <ele>175</ele>
        <time>2013-08-18T09:15:19Z</time>
      </trkpt>
      <trkpt lat="48.66996" lon="1.87193">
        <ele>175</ele>
        <time>2013-08-18T09:15:21Z</time>
      </trkpt>
      <trkpt lat="48.66993" lon="1.87193">
        <ele>175</ele>
        <time>2013-08-18T09:15:23Z</time>
      </trkpt>
      <trkpt lat="48.66989" lon="1.87195">
        <ele>175</ele>
        <time>2013-08-18T09:15:25Z</time>
      </trkpt>
      <trkpt lat="48.66985" lon="1.87194">
        <ele>175</ele>
        <time>2013-08-18T09:15:27Z</time>
      </trkpt>
      <trkpt lat="48.66982" lon="1.87193">
        <ele>175</ele>
        <time>2013-08-18T09:15:29Z</time>
      </trkpt>
      <trkpt lat="48.66979" lon="1.87197">
        <ele>175</ele>
        <time>2013-08-18T09:15:32Z</time>
      </trkpt>
      <trkpt lat="48.66976" lon="1.87198">
        <ele>175</ele>
        <time>2013-08-18T09:15:34Z</time>
      </trkpt>
      <trkpt lat="48.66973" lon="1.87199">
        <ele>175</ele>
        <time>2013-08-18T09:15:36Z</time>
      </trkpt>
      <trkpt lat="48.6697" lon="1.872">
        <ele>175</ele>
        <time>2013-08-18T09:15:38Z</time>
      </trkpt>
      <trkpt lat="48.66968" lon="1.87202">
        <ele>175</ele>
        <time>2013-08-18T09:15:40Z</time>
      </trkpt>
      <trkpt lat="48.66965" lon="1.87205">
        <ele>175</ele>
        <time>2013-08-18T09:15:42Z</time>
      </trkpt>
      <trkpt lat="48.66962" lon="1.87208">
        <ele>175</ele>
        <time>2013-08-18T09:15:45Z</time>
      </trkpt>
      <trkpt lat="48.66959" lon="1.87208">
        <ele>175</ele>
        <time>2013-08-18T09:15:47Z</time>
      </trkpt>
      <trkpt lat="48.66956" lon="1.87209">
        <ele>175</ele>
        <time>2013-08-18T09:15:49Z</time>
      </trkpt>
      <trkpt lat="48.66954" lon="1.87209">
        <ele>175</ele>
        <time>2013-08-18T09:15:51Z</time>
      </trkpt>
      <trkpt lat="48.66951" lon="1.87209">
        <ele>175</ele>
        <time>2013-08-18T09:15:54Z</time>
      </trkpt>
      <trkpt lat="48.66949" lon="1.87212">
        <ele>175</ele>
        <time>2013-08-18T09:15:57Z</time>
      </trkpt>
      <trkpt lat="48.6695" lon="1.87216">
        <ele>175</ele>
        <time>2013-08-18T09:15:59Z</time>
      </trkpt>
      <trkpt lat="48.6695" lon="1.87221">
        <ele>175</ele>
        <time>2013-08-18T09:16:01Z</time>
      </trkpt>
      <trkpt lat="48.6695" lon="1.87225">
        <ele>174</ele>
        <time>2013-08-18T09:16:03Z</time>
      </trkpt>
      <trkpt lat="48.66949" lon="1.87231">
        <ele>174</ele>
        <time>2013-08-18T09:16:06Z</time>
      </trkpt>
      <trkpt lat="48.66946" lon="1.87232">
        <ele>174</ele>
        <time>2013-08-18T09:16:08Z</time>
      </trkpt>
      <trkpt lat="48.66944" lon="1.87233">
        <ele>174</ele>
        <time>2013-08-18T09:16:10Z</time>
      </trkpt>
      <trkpt lat="48.6694" lon="1.87233">
        <ele>174</ele>
        <time>2013-08-18T09:16:12Z</time>
      </trkpt>
      <trkpt lat="48.66938" lon="1.87233">
        <ele>173</ele>
        <time>2013-08-18T09:16:14Z</time>
      </trkpt>
      <trkpt lat="48.66934" lon="1.87235">
        <ele>172</ele>
        <time>2013-08-18T09:16:16Z</time>
      </trkpt>
      <trkpt lat="48.6693" lon="1.87236">
        <ele>171</ele>
        <time>2013-08-18T09:16:18Z</time>
      </trkpt>
      <trkpt lat="48.66926" lon="1.87236">
        <ele>171</ele>
        <time>2013-08-18T09:16:20Z</time>
      </trkpt>
      <trkpt lat="48.66922" lon="1.87237">
        <ele>171</ele>
        <time>2013-08-18T09:16:22Z</time>
      </trkpt>
      <trkpt lat="48.66917" lon="1.87239">
        <ele>171</ele>
        <time>2013-08-18T09:16:24Z</time>
      </trkpt>
      <trkpt lat="48.66912" lon="1.87241">
        <ele>173</ele>
        <time>2013-08-18T09:16:26Z</time>
      </trkpt>
      <trkpt lat="48.66909" lon="1.87243">
        <ele>175</ele>
        <time>2013-08-18T09:16:28Z</time>
      </trkpt>
      <trkpt lat="48.66906" lon="1.87246">
        <ele>177</ele>
        <time>2013-08-18T09:16:30Z</time>
      </trkpt>
      <trkpt lat="48.66903" lon="1.87247">
        <ele>179</ele>
        <time>2013-08-18T09:16:32Z</time>
      </trkpt>
      <trkpt lat="48.66899" lon="1.87248">
        <ele>179</ele>
        <time>2013-08-18T09:16:34Z</time>
      </trkpt>
      <trkpt lat="48.66896" lon="1.8725">
        <ele>179</ele>
        <time>2013-08-18T09:16:36Z</time>
      </trkpt>
      <trkpt lat="48.66892" lon="1.87253">
        <ele>179</ele>
        <time>2013-08-18T09:16:38Z</time>
      </trkpt>
      <trkpt lat="48.66889" lon="1.87254">
        <ele>179</ele>
        <time>2013-08-18T09:16:40Z</time>
      </trkpt>
      <trkpt lat="48.66887" lon="1.87256">
        <ele>179</ele>
        <time>2013-08-18T09:16:42Z</time>
      </trkpt>
      <trkpt lat="48.66883" lon="1.87257">
        <ele>179</ele>
        <time>2013-08-18T09:16:45Z</time>
      </trkpt>
      <trkpt lat="48.6688" lon="1.87259">
        <ele>179</ele>
        <time>2013-08-18T09:16:47Z</time>
      </trkpt>
      <trkpt lat="48.66876" lon="1.87261">
        <ele>179</ele>
        <time>2013-08-18T09:16:49Z</time>
      </trkpt>
      <trkpt lat="48.66873" lon="1.87264">
        <ele>180</ele>
        <time>2013-08-18T09:16:51Z</time>
      </trkpt>
      <trkpt lat="48.66869" lon="1.87267">
        <ele>181</ele>
        <time>2013-08-18T09:16:54Z</time>
      </trkpt>
      <trkpt lat="48.66866" lon="1.87269">
        <ele>181</ele>
        <time>2013-08-18T09:16:56Z</time>
      </trkpt>
      <trkpt lat="48.66862" lon="1.87271">
        <ele>181</ele>
        <time>2013-08-18T09:16:58Z</time>
      </trkpt>
      <trkpt lat="48.66858" lon="1.87271">
        <ele>182</ele>
        <time>2013-08-18T09:17:00Z</time>
      </trkpt>
      <trkpt lat="48.66855" lon="1.87272">
        <ele>182</ele>
        <time>2013-08-18T09:17:02Z</time>
      </trkpt>
      <trkpt lat="48.66852" lon="1.87273">
        <ele>182</ele>
        <time>2013-08-18T09:17:04Z</time>
      </trkpt>
      <trkpt lat="48.66848" lon="1.87275">
        <ele>182</ele>
        <time>2013-08-18T09:17:06Z</time>
      </trkpt>
      <trkpt lat="48.66845" lon="1.87277">
        <ele>182</ele>
        <time>2013-08-18T09:17:08Z</time>
      </trkpt>
      <trkpt lat="48.6684" lon="1.8728">
        <ele>182</ele>
        <time>2013-08-18T09:17:10Z</time>
      </trkpt>
      <trkpt lat="48.66838" lon="1.87283">
        <ele>182</ele>
        <time>2013-08-18T09:17:12Z</time>
      </trkpt>
      <trkpt lat="48.66835" lon="1.87283">
        <ele>182</ele>
        <time>2013-08-18T09:17:14Z</time>
      </trkpt>
      <trkpt lat="48.66831" lon="1.87285">
        <ele>182</ele>
        <time>2013-08-18T09:17:16Z</time>
      </trkpt>
      <trkpt lat="48.66828" lon="1.87286">
        <ele>182</ele>
        <time>2013-08-18T09:17:19Z</time>
      </trkpt>
      <trkpt lat="48.66824" lon="1.87287">
        <ele>182</ele>
        <time>2013-08-18T09:17:21Z</time>
      </trkpt>
      <trkpt lat="48.66821" lon="1.87288">
        <ele>182</ele>
        <time>2013-08-18T09:17:23Z</time>
      </trkpt>
      <trkpt lat="48.66817" lon="1.87291">
        <ele>182</ele>
        <time>2013-08-18T09:17:25Z</time>
      </trkpt>
      <trkpt lat="48.66814" lon="1.87291">
        <ele>182</ele>
        <time>2013-08-18T09:17:27Z</time>
      </trkpt>
      <trkpt lat="48.66811" lon="1.87294">
        <ele>182</ele>
        <time>2013-08-18T09:17:29Z</time>
      </trkpt>
      <trkpt lat="48.66808" lon="1.87295">
        <ele>182</ele>
        <time>2013-08-18T09:17:31Z</time>
      </trkpt>
      <trkpt lat="48.66805" lon="1.87296">
        <ele>182</ele>
        <time>2013-08-18T09:17:34Z</time>
      </trkpt>
      <trkpt lat="48.66801" lon="1.87297">
        <ele>182</ele>
        <time>2013-08-18T09:17:36Z</time>
      </trkpt>
      <trkpt lat="48.66798" lon="1.87298">
        <ele>182</ele>
        <time>2013-08-18T09:17:38Z</time>
      </trkpt>
      <trkpt lat="48.66796" lon="1.87299">
        <ele>182</ele>
        <time>2013-08-18T09:17:40Z</time>
      </trkpt>
      <trkpt lat="48.66793" lon="1.87301">
        <ele>182</ele>
        <time>2013-08-18T09:17:42Z</time>
      </trkpt>
      <trkpt lat="48.66789" lon="1.87303">
        <ele>182</ele>
        <time>2013-08-18T09:17:44Z</time>
      </trkpt>
      <trkpt lat="48.66785" lon="1.87306">
        <ele>182</ele>
        <time>2013-08-18T09:17:46Z</time>
      </trkpt>
      <trkpt lat="48.66781" lon="1.87308">
        <ele>182</ele>
        <time>2013-08-18T09:17:48Z</time>
      </trkpt>
      <trkpt lat="48.66777" lon="1.87309">
        <ele>182</ele>
        <time>2013-08-18T09:17:50Z</time>
      </trkpt>
      <trkpt lat="48.66774" lon="1.87311">
        <ele>182</ele>
        <time>2013-08-18T09:17:52Z</time>
      </trkpt>
      <trkpt lat="48.66772" lon="1.87311">
        <ele>182</ele>
        <time>2013-08-18T09:17:55Z</time>
      </trkpt>
      <trkpt lat="48.66769" lon="1.87312">
        <ele>182</ele>
        <time>2013-08-18T09:17:57Z</time>
      </trkpt>
      <trkpt lat="48.66767" lon="1.87314">
        <ele>182</ele>
        <time>2013-08-18T09:17:59Z</time>
      </trkpt>
      <trkpt lat="48.66765" lon="1.87314">
        <ele>182</ele>
        <time>2013-08-18T09:18:01Z</time>
      </trkpt>
      <trkpt lat="48.66762" lon="1.87316">
        <ele>182</ele>
        <time>2013-08-18T09:18:03Z</time>
      </trkpt>
      <trkpt lat="48.6676" lon="1.87318">
        <ele>181</ele>
        <time>2013-08-18T09:18:05Z</time>
      </trkpt>
      <trkpt lat="48.66756" lon="1.87319">
        <ele>181</ele>
        <time>2013-08-18T09:18:07Z</time>
      </trkpt>
      <trkpt lat="48.66752" lon="1.8732">
        <ele>181</ele>
        <time>2013-08-18T09:18:09Z</time>
      </trkpt>
      <trkpt lat="48.6675" lon="1.87321">
        <ele>181</ele>
        <time>2013-08-18T09:18:11Z</time>
      </trkpt>
      <trkpt lat="48.66747" lon="1.87322">
        <ele>181</ele>
        <time>2013-08-18T09:18:13Z</time>
      </trkpt>
      <trkpt lat="48.66744" lon="1.87323">
        <ele>181</ele>
        <time>2013-08-18T09:18:15Z</time>
      </trkpt>
      <trkpt lat="48.66741" lon="1.87323">
        <ele>181</ele>
        <time>2013-08-18T09:18:17Z</time>
      </trkpt>
      <trkpt lat="48.66738" lon="1.87325">
        <ele>180</ele>
        <time>2013-08-18T09:18:19Z</time>
      </trkpt>
      <trkpt lat="48.66735" lon="1.87326">
        <ele>179</ele>
        <time>2013-08-18T09:18:21Z</time>
      </trkpt>
      <trkpt lat="48.66732" lon="1.87329">
        <ele>178</ele>
        <time>2013-08-18T09:18:23Z</time>
      </trkpt>
      <trkpt lat="48.66728" lon="1.87331">
        <ele>177</ele>
        <time>2013-08-18T09:18:26Z</time>
      </trkpt>
      <trkpt lat="48.66725" lon="1.87332">
        <ele>177</ele>
        <time>2013-08-18T09:18:28Z</time>
      </trkpt>
      <trkpt lat="48.66722" lon="1.87333">
        <ele>177</ele>
        <time>2013-08-18T09:18:30Z</time>
      </trkpt>
      <trkpt lat="48.66719" lon="1.87334">
        <ele>177</ele>
        <time>2013-08-18T09:18:32Z</time>
      </trkpt>
      <trkpt lat="48.66715" lon="1.87336">
        <ele>177</ele>
        <time>2013-08-18T09:18:34Z</time>
      </trkpt>
      <trkpt lat="48.66712" lon="1.87337">
        <ele>177</ele>
        <time>2013-08-18T09:18:36Z</time>
      </trkpt>
      <trkpt lat="48.6671" lon="1.87338">
        <ele>177</ele>
        <time>2013-08-18T09:18:38Z</time>
      </trkpt>
      <trkpt lat="48.66707" lon="1.8734">
        <ele>177</ele>
        <time>2013-08-18T09:18:40Z</time>
      </trkpt>
      <trkpt lat="48.66703" lon="1.87342">
        <ele>177</ele>
        <time>2013-08-18T09:18:43Z</time>
      </trkpt>
      <trkpt lat="48.66701" lon="1.87344">
        <ele>177</ele>
        <time>2013-08-18T09:18:45Z</time>
      </trkpt>
      <trkpt lat="48.66698" lon="1.87346">
        <ele>177</ele>
        <time>2013-08-18T09:18:47Z</time>
      </trkpt>
      <trkpt lat="48.66695" lon="1.87347">
        <ele>177</ele>
        <time>2013-08-18T09:18:49Z</time>
      </trkpt>
      <trkpt lat="48.66694" lon="1.8735">
        <ele>177</ele>
        <time>2013-08-18T09:18:51Z</time>
      </trkpt>
      <trkpt lat="48.66689" lon="1.8735">
        <ele>177</ele>
        <time>2013-08-18T09:18:53Z</time>
      </trkpt>
      <trkpt lat="48.66684" lon="1.87352">
        <ele>177</ele>
        <time>2013-08-18T09:18:55Z</time>
      </trkpt>
      <trkpt lat="48.66676" lon="1.87353">
        <ele>177</ele>
        <time>2013-08-18T09:18:57Z</time>
      </trkpt>
      <trkpt lat="48.66669" lon="1.87355">
        <ele>177</ele>
        <time>2013-08-18T09:18:59Z</time>
      </trkpt>
      <trkpt lat="48.66663" lon="1.8736">
        <ele>177</ele>
        <time>2013-08-18T09:19:01Z</time>
      </trkpt>
      <trkpt lat="48.66658" lon="1.87364">
        <ele>177</ele>
        <time>2013-08-18T09:19:03Z</time>
      </trkpt>
      <trkpt lat="48.66655" lon="1.87367">
        <ele>177</ele>
        <time>2013-08-18T09:19:05Z</time>
      </trkpt>
      <trkpt lat="48.66653" lon="1.87367">
        <ele>177</ele>
        <time>2013-08-18T09:19:07Z</time>
      </trkpt>
      <trkpt lat="48.66648" lon="1.8737">
        <ele>178</ele>
        <time>2013-08-18T09:19:10Z</time>
      </trkpt>
      <trkpt lat="48.66645" lon="1.87372">
        <ele>178</ele>
        <time>2013-08-18T09:19:12Z</time>
      </trkpt>
      <trkpt lat="48.66642" lon="1.87373">
        <ele>178</ele>
        <time>2013-08-18T09:19:14Z</time>
      </trkpt>
      <trkpt lat="48.66638" lon="1.87374">
        <ele>178</ele>
        <time>2013-08-18T09:19:16Z</time>
      </trkpt>
      <trkpt lat="48.66634" lon="1.87374">
        <ele>178</ele>
        <time>2013-08-18T09:19:18Z</time>
      </trkpt>
      <trkpt lat="48.6663" lon="1.87375">
        <ele>178</ele>
        <time>2013-08-18T09:19:20Z</time>
      </trkpt>
      <trkpt lat="48.66626" lon="1.87377">
        <ele>177</ele>
        <time>2013-08-18T09:19:22Z</time>
      </trkpt>
      <trkpt lat="48.66622" lon="1.8738">
        <ele>177</ele>
        <time>2013-08-18T09:19:24Z</time>
      </trkpt>
      <trkpt lat="48.66619" lon="1.87381">
        <ele>177</ele>
        <time>2013-08-18T09:19:27Z</time>
      </trkpt>
      <trkpt lat="48.66617" lon="1.87382">
        <ele>176</ele>
        <time>2013-08-18T09:19:29Z</time>
      </trkpt>
      <trkpt lat="48.66616" lon="1.87382">
        <ele>174</ele>
        <time>2013-08-18T09:19:31Z</time>
      </trkpt>
      <trkpt lat="48.66613" lon="1.87383">
        <ele>173</ele>
        <time>2013-08-18T09:19:33Z</time>
      </trkpt>
      <trkpt lat="48.6661" lon="1.87382">
        <ele>172</ele>
        <time>2013-08-18T09:19:35Z</time>
      </trkpt>
      <trkpt lat="48.66607" lon="1.87381">
        <ele>169</ele>
        <time>2013-08-18T09:19:38Z</time>
      </trkpt>
      <trkpt lat="48.66604" lon="1.87383">
        <ele>168</ele>
        <time>2013-08-18T09:19:40Z</time>
      </trkpt>
      <trkpt lat="48.666" lon="1.87385">
        <ele>168</ele>
        <time>2013-08-18T09:19:42Z</time>
      </trkpt>
      <trkpt lat="48.66596" lon="1.87388">
        <ele>168</ele>
        <time>2013-08-18T09:19:44Z</time>
      </trkpt>
      <trkpt lat="48.66593" lon="1.8739">
        <ele>168</ele>
        <time>2013-08-18T09:19:46Z</time>
      </trkpt>
      <trkpt lat="48.66589" lon="1.87392">
        <ele>168</ele>
        <time>2013-08-18T09:19:48Z</time>
      </trkpt>
      <trkpt lat="48.66587" lon="1.87395">
        <ele>168</ele>
        <time>2013-08-18T09:19:50Z</time>
      </trkpt>
      <trkpt lat="48.66584" lon="1.87398">
        <ele>168</ele>
        <time>2013-08-18T09:19:52Z</time>
      </trkpt>
      <trkpt lat="48.6658" lon="1.874">
        <ele>168</ele>
        <time>2013-08-18T09:19:54Z</time>
      </trkpt>
      <trkpt lat="48.66577" lon="1.87402">
        <ele>168</ele>
        <time>2013-08-18T09:19:56Z</time>
      </trkpt>
      <trkpt lat="48.66574" lon="1.87402">
        <ele>168</ele>
        <time>2013-08-18T09:19:58Z</time>
      </trkpt>
      <trkpt lat="48.66571" lon="1.87401">
        <ele>169</ele>
        <time>2013-08-18T09:20:00Z</time>
      </trkpt>
      <trkpt lat="48.66569" lon="1.87399">
        <ele>169</ele>
        <time>2013-08-18T09:20:03Z</time>
      </trkpt>
      <trkpt lat="48.66567" lon="1.87399">
        <ele>169</ele>
        <time>2013-08-18T09:20:06Z</time>
      </trkpt>
      <trkpt lat="48.66567" lon="1.87402">
        <ele>170</ele>
        <time>2013-08-18T09:20:09Z</time>
      </trkpt>
      <trkpt lat="48.66568" lon="1.87399">
        <ele>172</ele>
        <time>2013-08-18T09:20:21Z</time>
      </trkpt>
      <trkpt lat="48.66569" lon="1.87399">
        <ele>172</ele>
        <time>2013-08-18T09:20:23Z</time>
      </trkpt>
      <trkpt lat="48.6657" lon="1.87396">
        <ele>171</ele>
        <time>2013-08-18T09:20:26Z</time>
      </trkpt>
      <trkpt lat="48.66571" lon="1.87396">
        <ele>169</ele>
        <time>2013-08-18T09:20:29Z</time>
      </trkpt>
      <trkpt lat="48.6657" lon="1.87396">
        <ele>169</ele>
        <time>2013-08-18T09:20:46Z</time>
      </trkpt>
      <trkpt lat="48.66567" lon="1.87398">
        <ele>167</ele>
        <time>2013-08-18T09:20:49Z</time>
      </trkpt>
      <trkpt lat="48.66566" lon="1.874">
        <ele>167</ele>
        <time>2013-08-18T09:20:53Z</time>
      </trkpt>
      <trkpt lat="48.66567" lon="1.87398">
        <ele>167</ele>
        <time>2013-08-18T09:21:06Z</time>
      </trkpt>
      <trkpt lat="48.66567" lon="1.87397">
        <ele>167</ele>
        <time>2013-08-18T09:21:12Z</time>
      </trkpt>
      <trkpt lat="48.66567" lon="1.87398">
        <ele>167</ele>
        <time>2013-08-18T09:21:20Z</time>
      </trkpt>
      <trkpt lat="48.66567" lon="1.874">
        <ele>167</ele>
        <time>2013-08-18T09:21:22Z</time>
      </trkpt>
      <trkpt lat="48.66568" lon="1.87402">
        <ele>168</ele>
        <time>2013-08-18T09:21:24Z</time>
      </trkpt>
      <trkpt lat="48.6657" lon="1.87403">
        <ele>172</ele>
        <time>2013-08-18T09:21:29Z</time>
      </trkpt>
      <trkpt lat="48.66571" lon="1.87404">
        <ele>173</ele>
        <time>2013-08-18T09:21:33Z</time>
      </trkpt>
      <trkpt lat="48.6657" lon="1.87403">
        <ele>175</ele>
        <time>2013-08-18T09:21:42Z</time>
      </trkpt>
      <trkpt lat="48.66568" lon="1.87406">
        <ele>175</ele>
        <time>2013-08-18T09:21:44Z</time>
      </trkpt>
      <trkpt lat="48.66566" lon="1.87409">
        <ele>176</ele>
        <time>2013-08-18T09:21:47Z</time>
      </trkpt>
      <trkpt lat="48.66563" lon="1.8741">
        <ele>176</ele>
        <time>2013-08-18T09:21:49Z</time>
      </trkpt>
      <trkpt lat="48.66561" lon="1.87411">
        <ele>176</ele>
        <time>2013-08-18T09:21:51Z</time>
      </trkpt>
      <trkpt lat="48.66558" lon="1.87411">
        <ele>176</ele>
        <time>2013-08-18T09:21:53Z</time>
      </trkpt>
      <trkpt lat="48.66555" lon="1.87413">
        <ele>176</ele>
        <time>2013-08-18T09:21:57Z</time>
      </trkpt>
      <trkpt lat="48.66552" lon="1.87414">
        <ele>176</ele>
        <time>2013-08-18T09:21:59Z</time>
      </trkpt>
      <trkpt lat="48.66549" lon="1.87417">
        <ele>176</ele>
        <time>2013-08-18T09:22:02Z</time>
      </trkpt>
      <trkpt lat="48.66545" lon="1.87418">
        <ele>176</ele>
        <time>2013-08-18T09:22:04Z</time>
      </trkpt>
      <trkpt lat="48.66542" lon="1.8742">
        <ele>175</ele>
        <time>2013-08-18T09:22:06Z</time>
      </trkpt>
      <trkpt lat="48.66538" lon="1.87422">
        <ele>175</ele>
        <time>2013-08-18T09:22:09Z</time>
      </trkpt>
      <trkpt lat="48.66532" lon="1.87422">
        <ele>175</ele>
        <time>2013-08-18T09:22:11Z</time>
      </trkpt>
      <trkpt lat="48.66529" lon="1.87424">
        <ele>175</ele>
        <time>2013-08-18T09:22:13Z</time>
      </trkpt>
      <trkpt lat="48.66526" lon="1.87426">
        <ele>175</ele>
        <time>2013-08-18T09:22:15Z</time>
      </trkpt>
      <trkpt lat="48.66522" lon="1.87429">
        <ele>175</ele>
        <time>2013-08-18T09:22:17Z</time>
      </trkpt>
      <trkpt lat="48.66519" lon="1.8743">
        <ele>175</ele>
        <time>2013-08-18T09:22:19Z</time>
      </trkpt>
      <trkpt lat="48.66516" lon="1.87431">
        <ele>174</ele>
        <time>2013-08-18T09:22:21Z</time>
      </trkpt>
      <trkpt lat="48.66513" lon="1.87433">
        <ele>173</ele>
        <time>2013-08-18T09:22:23Z</time>
      </trkpt>
      <trkpt lat="48.6651" lon="1.87434">
        <ele>173</ele>
        <time>2013-08-18T09:22:25Z</time>
      </trkpt>
      <trkpt lat="48.66507" lon="1.87435">
        <ele>172</ele>
        <time>2013-08-18T09:22:27Z</time>
      </trkpt>
      <trkpt lat="48.66504" lon="1.87436">
        <ele>172</ele>
        <time>2013-08-18T09:22:29Z</time>
      </trkpt>
      <trkpt lat="48.66501" lon="1.87437">
        <ele>172</ele>
        <time>2013-08-18T09:22:31Z</time>
      </trkpt>
      <trkpt lat="48.66498" lon="1.87439">
        <ele>172</ele>
        <time>2013-08-18T09:22:33Z</time>
      </trkpt>
      <trkpt lat="48.66495" lon="1.87441">
        <ele>172</ele>
        <time>2013-08-18T09:22:35Z</time>
      </trkpt>
      <trkpt lat="48.66493" lon="1.87443">
        <ele>171</ele>
        <time>2013-08-18T09:22:37Z</time>
      </trkpt>
      <trkpt lat="48.6649" lon="1.87444">
        <ele>171</ele>
        <time>2013-08-18T09:22:39Z</time>
      </trkpt>
      <trkpt lat="48.66487" lon="1.87444">
        <ele>171</ele>
        <time>2013-08-18T09:22:41Z</time>
      </trkpt>
      <trkpt lat="48.66484" lon="1.87445">
        <ele>170</ele>
        <time>2013-08-18T09:22:43Z</time>
      </trkpt>
      <trkpt lat="48.66481" lon="1.87446">
        <ele>170</ele>
        <time>2013-08-18T09:22:45Z</time>
      </trkpt>
      <trkpt lat="48.66478" lon="1.87448">
        <ele>170</ele>
        <time>2013-08-18T09:22:47Z</time>
      </trkpt>
      <trkpt lat="48.66475" lon="1.8745">
        <ele>170</ele>
        <time>2013-08-18T09:22:49Z</time>
      </trkpt>
      <trkpt lat="48.66472" lon="1.87451">
        <ele>170</ele>
        <time>2013-08-18T09:22:51Z</time>
      </trkpt>
      <trkpt lat="48.66469" lon="1.87452">
        <ele>170</ele>
        <time>2013-08-18T09:22:53Z</time>
      </trkpt>
      <trkpt lat="48.66466" lon="1.87453">
        <ele>170</ele>
        <time>2013-08-18T09:22:55Z</time>
      </trkpt>
      <trkpt lat="48.66463" lon="1.87452">
        <ele>170</ele>
        <time>2013-08-18T09:22:57Z</time>
      </trkpt>
      <trkpt lat="48.66461" lon="1.87452">
        <ele>169</ele>
        <time>2013-08-18T09:22:59Z</time>
      </trkpt>
      <trkpt lat="48.66458" lon="1.87452">
        <ele>169</ele>
        <time>2013-08-18T09:23:01Z</time>
      </trkpt>
      <trkpt lat="48.66456" lon="1.87451">
        <ele>169</ele>
        <time>2013-08-18T09:23:03Z</time>
      </trkpt>
      <trkpt lat="48.66453" lon="1.87449">
        <ele>169</ele>
        <time>2013-08-18T09:23:05Z</time>
      </trkpt>
      <trkpt lat="48.6645" lon="1.87448">
        <ele>169</ele>
        <time>2013-08-18T09:23:07Z</time>
      </trkpt>
      <trkpt lat="48.66447" lon="1.87447">
        <ele>169</ele>
        <time>2013-08-18T09:23:09Z</time>
      </trkpt>
      <trkpt lat="48.66445" lon="1.87448">
        <ele>169</ele>
        <time>2013-08-18T09:23:11Z</time>
      </trkpt>
      <trkpt lat="48.66442" lon="1.8745">
        <ele>169</ele>
        <time>2013-08-18T09:23:13Z</time>
      </trkpt>
      <trkpt lat="48.66439" lon="1.87451">
        <ele>169</ele>
        <time>2013-08-18T09:23:15Z</time>
      </trkpt>
      <trkpt lat="48.66436" lon="1.87452">
        <ele>169</ele>
        <time>2013-08-18T09:23:17Z</time>
      </trkpt>
      <trkpt lat="48.66434" lon="1.87453">
        <ele>169</ele>
        <time>2013-08-18T09:23:19Z</time>
      </trkpt>
      <trkpt lat="48.6643" lon="1.87457">
        <ele>169</ele>
        <time>2013-08-18T09:23:22Z</time>
      </trkpt>
      <trkpt lat="48.66429" lon="1.8746">
        <ele>168</ele>
        <time>2013-08-18T09:23:24Z</time>
      </trkpt>
      <trkpt lat="48.66427" lon="1.87464">
        <ele>168</ele>
        <time>2013-08-18T09:23:26Z</time>
      </trkpt>
      <trkpt lat="48.66425" lon="1.87468">
        <ele>168</ele>
        <time>2013-08-18T09:23:28Z</time>
      </trkpt>
      <trkpt lat="48.66423" lon="1.87471">
        <ele>168</ele>
        <time>2013-08-18T09:23:30Z</time>
      </trkpt>
      <trkpt lat="48.66422" lon="1.87475">
        <ele>168</ele>
        <time>2013-08-18T09:23:32Z</time>
      </trkpt>
      <trkpt lat="48.6642" lon="1.87478">
        <ele>168</ele>
        <time>2013-08-18T09:23:34Z</time>
      </trkpt>
      <trkpt lat="48.66418" lon="1.87481">
        <ele>168</ele>
        <time>2013-08-18T09:23:36Z</time>
      </trkpt>
      <trkpt lat="48.66417" lon="1.87483">
        <ele>168</ele>
        <time>2013-08-18T09:23:38Z</time>
      </trkpt>
      <trkpt lat="48.66414" lon="1.87483">
        <ele>168</ele>
        <time>2013-08-18T09:23:40Z</time>
      </trkpt>
      <trkpt lat="48.66412" lon="1.87482">
        <ele>168</ele>
        <time>2013-08-18T09:23:42Z</time>
      </trkpt>
      <trkpt lat="48.6641" lon="1.87481">
        <ele>168</ele>
        <time>2013-08-18T09:23:44Z</time>
      </trkpt>
      <trkpt lat="48.66407" lon="1.87481">
        <ele>168</ele>
        <time>2013-08-18T09:23:46Z</time>
      </trkpt>
      <trkpt lat="48.66404" lon="1.87481">
        <ele>168</ele>
        <time>2013-08-18T09:23:48Z</time>
      </trkpt>
      <trkpt lat="48.66401" lon="1.87483">
        <ele>168</ele>
        <time>2013-08-18T09:23:50Z</time>
      </trkpt>
      <trkpt lat="48.66398" lon="1.87484">
        <ele>168</ele>
        <time>2013-08-18T09:23:52Z</time>
      </trkpt>
      <trkpt lat="48.66395" lon="1.87486">
        <ele>167</ele>
        <time>2013-08-18T09:23:55Z</time>
      </trkpt>
      <trkpt lat="48.66394" lon="1.87488">
        <ele>167</ele>
        <time>2013-08-18T09:23:57Z</time>
      </trkpt>
      <trkpt lat="48.66393" lon="1.87491">
        <ele>166</ele>
        <time>2013-08-18T09:23:59Z</time>
      </trkpt>
      <trkpt lat="48.66393" lon="1.87495">
        <ele>166</ele>
        <time>2013-08-18T09:24:01Z</time>
      </trkpt>
      <trkpt lat="48.66391" lon="1.87498">
        <ele>166</ele>
        <time>2013-08-18T09:24:03Z</time>
      </trkpt>
      <trkpt lat="48.66387" lon="1.87499">
        <ele>165</ele>
        <time>2013-08-18T09:24:05Z</time>
      </trkpt>
      <trkpt lat="48.66384" lon="1.87501">
        <ele>165</ele>
        <time>2013-08-18T09:24:07Z</time>
      </trkpt>
      <trkpt lat="48.66381" lon="1.87501">
        <ele>164</ele>
        <time>2013-08-18T09:24:09Z</time>
      </trkpt>
      <trkpt lat="48.66378" lon="1.87502">
        <ele>164</ele>
        <time>2013-08-18T09:24:11Z</time>
      </trkpt>
      <trkpt lat="48.66375" lon="1.87503">
        <ele>164</ele>
        <time>2013-08-18T09:24:13Z</time>
      </trkpt>
      <trkpt lat="48.66372" lon="1.87504">
        <ele>164</ele>
        <time>2013-08-18T09:24:15Z</time>
      </trkpt>
      <trkpt lat="48.66368" lon="1.87505">
        <ele>164</ele>
        <time>2013-08-18T09:24:17Z</time>
      </trkpt>
      <trkpt lat="48.66365" lon="1.87507">
        <ele>163</ele>
        <time>2013-08-18T09:24:20Z</time>
      </trkpt>
      <trkpt lat="48.66362" lon="1.87509">
        <ele>163</ele>
        <time>2013-08-18T09:24:22Z</time>
      </trkpt>
      <trkpt lat="48.66359" lon="1.87511">
        <ele>163</ele>
        <time>2013-08-18T09:24:24Z</time>
      </trkpt>
      <trkpt lat="48.66355" lon="1.87513">
        <ele>163</ele>
        <time>2013-08-18T09:24:26Z</time>
      </trkpt>
      <trkpt lat="48.66352" lon="1.87514">
        <ele>163</ele>
        <time>2013-08-18T09:24:28Z</time>
      </trkpt>
      <trkpt lat="48.66349" lon="1.87515">
        <ele>163</ele>
        <time>2013-08-18T09:24:30Z</time>
      </trkpt>
      <trkpt lat="48.66346" lon="1.87517">
        <ele>163</ele>
        <time>2013-08-18T09:24:32Z</time>
      </trkpt>
      <trkpt lat="48.66343" lon="1.87519">
        <ele>163</ele>
        <time>2013-08-18T09:24:34Z</time>
      </trkpt>
      <trkpt lat="48.66338" lon="1.87521">
        <ele>163</ele>
        <time>2013-08-18T09:24:37Z</time>
      </trkpt>
      <trkpt lat="48.66335" lon="1.87523">
        <ele>163</ele>
        <time>2013-08-18T09:24:39Z</time>
      </trkpt>
      <trkpt lat="48.66331" lon="1.87524">
        <ele>163</ele>
        <time>2013-08-18T09:24:41Z</time>
      </trkpt>
      <trkpt lat="48.66329" lon="1.87525">
        <ele>163</ele>
        <time>2013-08-18T09:24:43Z</time>
      </trkpt>
      <trkpt lat="48.66324" lon="1.87527">
        <ele>163</ele>
        <time>2013-08-18T09:24:46Z</time>
      </trkpt>
      <trkpt lat="48.6632" lon="1.8753">
        <ele>163</ele>
        <time>2013-08-18T09:24:49Z</time>
      </trkpt>
      <trkpt lat="48.66317" lon="1.87531">
        <ele>163</ele>
        <time>2013-08-18T09:24:51Z</time>
      </trkpt>
      <trkpt lat="48.66312" lon="1.87533">
        <ele>163</ele>
        <time>2013-08-18T09:24:54Z</time>
      </trkpt>
      <trkpt lat="48.66308" lon="1.87534">
        <ele>163</ele>
        <time>2013-08-18T09:24:56Z</time>
      </trkpt>
      <trkpt lat="48.66305" lon="1.87536">
        <ele>163</ele>
        <time>2013-08-18T09:24:58Z</time>
      </trkpt>
      <trkpt lat="48.66303" lon="1.87537">
        <ele>163</ele>
        <time>2013-08-18T09:25:00Z</time>
      </trkpt>
      <trkpt lat="48.663" lon="1.87538">
        <ele>163</ele>
        <time>2013-08-18T09:25:02Z</time>
      </trkpt>
      <trkpt lat="48.66298" lon="1.87539">
        <ele>163</ele>
        <time>2013-08-18T09:25:04Z</time>
      </trkpt>
      <trkpt lat="48.66295" lon="1.87541">
        <ele>163</ele>
        <time>2013-08-18T09:25:06Z</time>
      </trkpt>
      <trkpt lat="48.66292" lon="1.87542">
        <ele>163</ele>
        <time>2013-08-18T09:25:08Z</time>
      </trkpt>
      <trkpt lat="48.6629" lon="1.87543">
        <ele>163</ele>
        <time>2013-08-18T09:25:10Z</time>
      </trkpt>
      <trkpt lat="48.66287" lon="1.87544">
        <ele>163</ele>
        <time>2013-08-18T09:25:13Z</time>
      </trkpt>
      <trkpt lat="48.66286" lon="1.87547">
        <ele>163</ele>
        <time>2013-08-18T09:25:28Z</time>
      </trkpt>
      <trkpt lat="48.66286" lon="1.8755">
        <ele>163</ele>
        <time>2013-08-18T09:25:30Z</time>
      </trkpt>
      <trkpt lat="48.66287" lon="1.87557">
        <ele>163</ele>
        <time>2013-08-18T09:25:33Z</time>
      </trkpt>
      <trkpt lat="48.66287" lon="1.8756">
        <ele>163</ele>
        <time>2013-08-18T09:25:35Z</time>
      </trkpt>
      <trkpt lat="48.66288" lon="1.87566">
        <ele>163</ele>
        <time>2013-08-18T09:25:38Z</time>
      </trkpt>
      <trkpt lat="48.66289" lon="1.8757">
        <ele>163</ele>
        <time>2013-08-18T09:25:40Z</time>
      </trkpt>
      <trkpt lat="48.6629" lon="1.87574">
        <ele>163</ele>
        <time>2013-08-18T09:25:42Z</time>
      </trkpt>
      <trkpt lat="48.66291" lon="1.8758">
        <ele>163</ele>
        <time>2013-08-18T09:25:45Z</time>
      </trkpt>
      <trkpt lat="48.66293" lon="1.87584">
        <ele>163</ele>
        <time>2013-08-18T09:25:47Z</time>
      </trkpt>
      <trkpt lat="48.66294" lon="1.87588">
        <ele>163</ele>
        <time>2013-08-18T09:25:49Z</time>
      </trkpt>
      <trkpt lat="48.66298" lon="1.87595">
        <ele>163</ele>
        <time>2013-08-18T09:25:52Z</time>
      </trkpt>
      <trkpt lat="48.66299" lon="1.876">
        <ele>163</ele>
        <time>2013-08-18T09:25:54Z</time>
      </trkpt>
      <trkpt lat="48.663" lon="1.87606">
        <ele>163</ele>
        <time>2013-08-18T09:25:57Z</time>
      </trkpt>
      <trkpt lat="48.66301" lon="1.87611">
        <ele>163</ele>
        <time>2013-08-18T09:25:59Z</time>
      </trkpt>
      <trkpt lat="48.66301" lon="1.87616">
        <ele>163</ele>
        <time>2013-08-18T09:26:01Z</time>
      </trkpt>
      <trkpt lat="48.66301" lon="1.87621">
        <ele>163</ele>
        <time>2013-08-18T09:26:03Z</time>
      </trkpt>
      <trkpt lat="48.66301" lon="1.87626">
        <ele>163</ele>
        <time>2013-08-18T09:26:05Z</time>
      </trkpt>
      <trkpt lat="48.66302" lon="1.87631">
        <ele>163</ele>
        <time>2013-08-18T09:26:07Z</time>
      </trkpt>
      <trkpt lat="48.66303" lon="1.87636">
        <ele>163</ele>
        <time>2013-08-18T09:26:09Z</time>
      </trkpt>
      <trkpt lat="48.66305" lon="1.87641">
        <ele>163</ele>
        <time>2013-08-18T09:26:11Z</time>
      </trkpt>
      <trkpt lat="48.66306" lon="1.87645">
        <ele>164</ele>
        <time>2013-08-18T09:26:13Z</time>
      </trkpt>
      <trkpt lat="48.66306" lon="1.87651">
        <ele>164</ele>
        <time>2013-08-18T09:26:15Z</time>
      </trkpt>
      <trkpt lat="48.66307" lon="1.87655">
        <ele>165</ele>
        <time>2013-08-18T09:26:17Z</time>
      </trkpt>
      <trkpt lat="48.66308" lon="1.87662">
        <ele>166</ele>
        <time>2013-08-18T09:26:20Z</time>
      </trkpt>
      <trkpt lat="48.66309" lon="1.87668">
        <ele>166</ele>
        <time>2013-08-18T09:26:22Z</time>
      </trkpt>
      <trkpt lat="48.6631" lon="1.87675">
        <ele>167</ele>
        <time>2013-08-18T09:26:25Z</time>
      </trkpt>
      <trkpt lat="48.66312" lon="1.8768">
        <ele>168</ele>
        <time>2013-08-18T09:26:27Z</time>
      </trkpt>
      <trkpt lat="48.66313" lon="1.87685">
        <ele>168</ele>
        <time>2013-08-18T09:26:29Z</time>
      </trkpt>
      <trkpt lat="48.66314" lon="1.87688">
        <ele>169</ele>
        <time>2013-08-18T09:26:31Z</time>
      </trkpt>
      <trkpt lat="48.66315" lon="1.87695">
        <ele>169</ele>
        <time>2013-08-18T09:26:34Z</time>
      </trkpt>
      <trkpt lat="48.66315" lon="1.877">
        <ele>169</ele>
        <time>2013-08-18T09:26:36Z</time>
      </trkpt>
      <trkpt lat="48.66313" lon="1.87704">
        <ele>169</ele>
        <time>2013-08-18T09:26:38Z</time>
      </trkpt>
      <trkpt lat="48.66311" lon="1.87708">
        <ele>169</ele>
        <time>2013-08-18T09:26:40Z</time>
      </trkpt>
      <trkpt lat="48.66308" lon="1.87713">
        <ele>169</ele>
        <time>2013-08-18T09:26:42Z</time>
      </trkpt>
      <trkpt lat="48.66305" lon="1.87718">
        <ele>169</ele>
        <time>2013-08-18T09:26:45Z</time>
      </trkpt>
      <trkpt lat="48.66303" lon="1.87724">
        <ele>169</ele>
        <time>2013-08-18T09:26:47Z</time>
      </trkpt>
      <trkpt lat="48.66299" lon="1.8773">
        <ele>169</ele>
        <time>2013-08-18T09:26:50Z</time>
      </trkpt>
      <trkpt lat="48.66297" lon="1.87734">
        <ele>169</ele>
        <time>2013-08-18T09:26:52Z</time>
      </trkpt>
      <trkpt lat="48.66295" lon="1.87738">
        <ele>169</ele>
        <time>2013-08-18T09:26:54Z</time>
      </trkpt>
      <trkpt lat="48.66293" lon="1.87744">
        <ele>169</ele>
        <time>2013-08-18T09:26:57Z</time>
      </trkpt>
      <trkpt lat="48.66291" lon="1.87748">
        <ele>170</ele>
        <time>2013-08-18T09:26:59Z</time>
      </trkpt>
      <trkpt lat="48.66288" lon="1.87754">
        <ele>171</ele>
        <time>2013-08-18T09:27:02Z</time>
      </trkpt>
      <trkpt lat="48.66286" lon="1.87758">
        <ele>172</ele>
        <time>2013-08-18T09:27:04Z</time>
      </trkpt>
      <trkpt lat="48.66284" lon="1.87762">
        <ele>174</ele>
        <time>2013-08-18T09:27:06Z</time>
      </trkpt>
      <trkpt lat="48.66281" lon="1.87766">
        <ele>174</ele>
        <time>2013-08-18T09:27:08Z</time>
      </trkpt>
      <trkpt lat="48.66277" lon="1.87774">
        <ele>174</ele>
        <time>2013-08-18T09:27:12Z</time>
      </trkpt>
      <trkpt lat="48.66276" lon="1.87777">
        <ele>175</ele>
        <time>2013-08-18T09:27:14Z</time>
      </trkpt>
      <trkpt lat="48.66272" lon="1.87782">
        <ele>175</ele>
        <time>2013-08-18T09:27:17Z</time>
      </trkpt>
      <trkpt lat="48.66271" lon="1.87785">
        <ele>175</ele>
        <time>2013-08-18T09:27:19Z</time>
      </trkpt>
      <trkpt lat="48.66268" lon="1.8779">
        <ele>175</ele>
        <time>2013-08-18T09:27:22Z</time>
      </trkpt>
      <trkpt lat="48.66267" lon="1.87793">
        <ele>175</ele>
        <time>2013-08-18T09:27:24Z</time>
      </trkpt>
      <trkpt lat="48.66264" lon="1.87798">
        <ele>175</ele>
        <time>2013-08-18T09:27:27Z</time>
      </trkpt>
      <trkpt lat="48.66263" lon="1.87802">
        <ele>175</ele>
        <time>2013-08-18T09:27:29Z</time>
      </trkpt>
      <trkpt lat="48.6626" lon="1.87808">
        <ele>175</ele>
        <time>2013-08-18T09:27:32Z</time>
      </trkpt>
      <trkpt lat="48.66258" lon="1.87813">
        <ele>175</ele>
        <time>2013-08-18T09:27:34Z</time>
      </trkpt>
      <trkpt lat="48.66255" lon="1.87823">
        <ele>175</ele>
        <time>2013-08-18T09:27:37Z</time>
      </trkpt>
      <trkpt lat="48.66253" lon="1.87826">
        <ele>175</ele>
        <time>2013-08-18T09:27:39Z</time>
      </trkpt>
      <trkpt lat="48.66249" lon="1.87832">
        <ele>175</ele>
        <time>2013-08-18T09:27:42Z</time>
      </trkpt>
      <trkpt lat="48.66248" lon="1.87838">
        <ele>175</ele>
        <time>2013-08-18T09:27:45Z</time>
      </trkpt>
      <trkpt lat="48.66245" lon="1.87845">
        <ele>175</ele>
        <time>2013-08-18T09:27:48Z</time>
      </trkpt>
      <trkpt lat="48.66243" lon="1.8785">
        <ele>175</ele>
        <time>2013-08-18T09:27:51Z</time>
      </trkpt>
      <trkpt lat="48.6624" lon="1.87855">
        <ele>174</ele>
        <time>2013-08-18T09:27:55Z</time>
      </trkpt>
      <trkpt lat="48.66236" lon="1.87861">
        <ele>173</ele>
        <time>2013-08-18T09:27:58Z</time>
      </trkpt>
      <trkpt lat="48.66234" lon="1.87864">
        <ele>173</ele>
        <time>2013-08-18T09:28:00Z</time>
      </trkpt>
      <trkpt lat="48.66232" lon="1.87866">
        <ele>172</ele>
        <time>2013-08-18T09:28:02Z</time>
      </trkpt>
      <trkpt lat="48.6623" lon="1.8787">
        <ele>171</ele>
        <time>2013-08-18T09:28:04Z</time>
      </trkpt>
      <trkpt lat="48.66227" lon="1.87873">
        <ele>170</ele>
        <time>2013-08-18T09:28:07Z</time>
      </trkpt>
      <trkpt lat="48.66223" lon="1.87878">
        <ele>169</ele>
        <time>2013-08-18T09:28:10Z</time>
      </trkpt>
      <trkpt lat="48.66221" lon="1.87882">
        <ele>169</ele>
        <time>2013-08-18T09:28:12Z</time>
      </trkpt>
      <trkpt lat="48.66218" lon="1.87888">
        <ele>169</ele>
        <time>2013-08-18T09:28:15Z</time>
      </trkpt>
      <trkpt lat="48.66216" lon="1.87891">
        <ele>168</ele>
        <time>2013-08-18T09:28:17Z</time>
      </trkpt>
      <trkpt lat="48.66212" lon="1.87898">
        <ele>168</ele>
        <time>2013-08-18T09:28:20Z</time>
      </trkpt>
      <trkpt lat="48.6621" lon="1.87902">
        <ele>168</ele>
        <time>2013-08-18T09:28:22Z</time>
      </trkpt>
      <trkpt lat="48.66208" lon="1.87907">
        <ele>168</ele>
        <time>2013-08-18T09:28:25Z</time>
      </trkpt>
      <trkpt lat="48.66206" lon="1.87911">
        <ele>168</ele>
        <time>2013-08-18T09:28:27Z</time>
      </trkpt>
      <trkpt lat="48.66203" lon="1.87916">
        <ele>167</ele>
        <time>2013-08-18T09:28:30Z</time>
      </trkpt>
      <trkpt lat="48.66201" lon="1.87919">
        <ele>167</ele>
        <time>2013-08-18T09:28:32Z</time>
      </trkpt>
      <trkpt lat="48.66197" lon="1.87927">
        <ele>167</ele>
        <time>2013-08-18T09:28:36Z</time>
      </trkpt>
      <trkpt lat="48.66195" lon="1.87932">
        <ele>167</ele>
        <time>2013-08-18T09:28:39Z</time>
      </trkpt>
      <trkpt lat="48.66193" lon="1.87935">
        <ele>167</ele>
        <time>2013-08-18T09:28:41Z</time>
      </trkpt>
      <trkpt lat="48.66191" lon="1.8794">
        <ele>167</ele>
        <time>2013-08-18T09:28:43Z</time>
      </trkpt>
      <trkpt lat="48.6619" lon="1.87943">
        <ele>167</ele>
        <time>2013-08-18T09:28:45Z</time>
      </trkpt>
      <trkpt lat="48.6619" lon="1.87947">
        <ele>167</ele>
        <time>2013-08-18T09:28:47Z</time>
      </trkpt>
      <trkpt lat="48.66187" lon="1.87954">
        <ele>167</ele>
        <time>2013-08-18T09:28:50Z</time>
      </trkpt>
      <trkpt lat="48.66185" lon="1.87958">
        <ele>167</ele>
        <time>2013-08-18T09:28:52Z</time>
      </trkpt>
      <trkpt lat="48.66183" lon="1.87963">
        <ele>167</ele>
        <time>2013-08-18T09:28:55Z</time>
      </trkpt>
      <trkpt lat="48.66181" lon="1.87967">
        <ele>167</ele>
        <time>2013-08-18T09:28:57Z</time>
      </trkpt>
      <trkpt lat="48.66179" lon="1.8797">
        <ele>166</ele>
        <time>2013-08-18T09:28:59Z</time>
      </trkpt>
      <trkpt lat="48.66176" lon="1.87976">
        <ele>166</ele>
        <time>2013-08-18T09:29:02Z</time>
      </trkpt>
      <trkpt lat="48.66173" lon="1.87981">
        <ele>166</ele>
        <time>2013-08-18T09:29:05Z</time>
      </trkpt>
      <trkpt lat="48.66171" lon="1.87985">
        <ele>166</ele>
        <time>2013-08-18T09:29:07Z</time>
      </trkpt>
      <trkpt lat="48.66169" lon="1.87993">
        <ele>166</ele>
        <time>2013-08-18T09:29:10Z</time>
      </trkpt>
      <trkpt lat="48.66166" lon="1.87997">
        <ele>166</ele>
        <time>2013-08-18T09:29:12Z</time>
      </trkpt>
      <trkpt lat="48.66161" lon="1.87998">
        <ele>166</ele>
        <time>2013-08-18T09:29:15Z</time>
      </trkpt>
      <trkpt lat="48.66156" lon="1.88001">
        <ele>166</ele>
        <time>2013-08-18T09:29:17Z</time>
      </trkpt>
      <trkpt lat="48.66151" lon="1.87999">
        <ele>166</ele>
        <time>2013-08-18T09:29:20Z</time>
      </trkpt>
      <trkpt lat="48.66148" lon="1.87999">
        <ele>166</ele>
        <time>2013-08-18T09:29:22Z</time>
      </trkpt>
      <trkpt lat="48.6614" lon="1.88">
        <ele>166</ele>
        <time>2013-08-18T09:29:25Z</time>
      </trkpt>
      <trkpt lat="48.66134" lon="1.88001">
        <ele>166</ele>
        <time>2013-08-18T09:29:27Z</time>
      </trkpt>
      <trkpt lat="48.66127" lon="1.88001">
        <ele>166</ele>
        <time>2013-08-18T09:29:31Z</time>
      </trkpt>
      <trkpt lat="48.66124" lon="1.87999">
        <ele>166</ele>
        <time>2013-08-18T09:29:34Z</time>
      </trkpt>
      <trkpt lat="48.66121" lon="1.87999">
        <ele>166</ele>
        <time>2013-08-18T09:29:36Z</time>
      </trkpt>
      <trkpt lat="48.66119" lon="1.87999">
        <ele>166</ele>
        <time>2013-08-18T09:29:38Z</time>
      </trkpt>
      <trkpt lat="48.66114" lon="1.88002">
        <ele>165</ele>
        <time>2013-08-18T09:29:41Z</time>
      </trkpt>
      <trkpt lat="48.6611" lon="1.88004">
        <ele>165</ele>
        <time>2013-08-18T09:29:44Z</time>
      </trkpt>
      <trkpt lat="48.66107" lon="1.88007">
        <ele>164</ele>
        <time>2013-08-18T09:29:47Z</time>
      </trkpt>
      <trkpt lat="48.66104" lon="1.8801">
        <ele>164</ele>
        <time>2013-08-18T09:29:49Z</time>
      </trkpt>
      <trkpt lat="48.66099" lon="1.88014">
        <ele>164</ele>
        <time>2013-08-18T09:29:52Z</time>
      </trkpt>
      <trkpt lat="48.66096" lon="1.88018">
        <ele>164</ele>
        <time>2013-08-18T09:29:54Z</time>
      </trkpt>
      <trkpt lat="48.66092" lon="1.88021">
        <ele>164</ele>
        <time>2013-08-18T09:29:57Z</time>
      </trkpt>
      <trkpt lat="48.6609" lon="1.88023">
        <ele>164</ele>
        <time>2013-08-18T09:29:59Z</time>
      </trkpt>
      <trkpt lat="48.6609" lon="1.88021">
        <ele>164</ele>
        <time>2013-08-18T09:30:02Z</time>
      </trkpt>
      <trkpt lat="48.66092" lon="1.88017">
        <ele>164</ele>
        <time>2013-08-18T09:30:05Z</time>
      </trkpt>
      <trkpt lat="48.66092" lon="1.88015">
        <ele>163</ele>
        <time>2013-08-18T09:30:09Z</time>
      </trkpt>
      <trkpt lat="48.66091" lon="1.88014">
        <ele>162</ele>
        <time>2013-08-18T09:30:15Z</time>
      </trkpt>
      <trkpt lat="48.66088" lon="1.88014">
        <ele>162</ele>
        <time>2013-08-18T09:30:19Z</time>
      </trkpt>
      <trkpt lat="48.66086" lon="1.88015">
        <ele>162</ele>
        <time>2013-08-18T09:30:23Z</time>
      </trkpt>
      <trkpt lat="48.66087" lon="1.88014">
        <ele>159</ele>
        <time>2013-08-18T09:30:34Z</time>
      </trkpt>
      <trkpt lat="48.66085" lon="1.88013">
        <ele>159</ele>
        <time>2013-08-18T09:30:38Z</time>
      </trkpt>
      <trkpt lat="48.66087" lon="1.88014">
        <ele>159</ele>
        <time>2013-08-18T09:30:48Z</time>
      </trkpt>
      <trkpt lat="48.66088" lon="1.88015">
        <ele>159</ele>
        <time>2013-08-18T09:30:51Z</time>
      </trkpt>
      <trkpt lat="48.6609" lon="1.88017">
        <ele>159</ele>
        <time>2013-08-18T09:30:53Z</time>
      </trkpt>
      <trkpt lat="48.66092" lon="1.88019">
        <ele>159</ele>
        <time>2013-08-18T09:30:59Z</time>
      </trkpt>
      <trkpt lat="48.66094" lon="1.88022">
        <ele>159</ele>
        <time>2013-08-18T09:31:06Z</time>
      </trkpt>
      <trkpt lat="48.66095" lon="1.88023">
        <ele>159</ele>
        <time>2013-08-18T09:31:08Z</time>
      </trkpt>
      <trkpt lat="48.66097" lon="1.88022">
        <ele>159</ele>
        <time>2013-08-18T09:31:10Z</time>
      </trkpt>
      <trkpt lat="48.66099" lon="1.8802">
        <ele>159</ele>
        <time>2013-08-18T09:31:12Z</time>
      </trkpt>
      <trkpt lat="48.661" lon="1.8802">
        <ele>159</ele>
        <time>2013-08-18T09:31:14Z</time>
      </trkpt>
      <trkpt lat="48.66099" lon="1.88022">
        <ele>159</ele>
        <time>2013-08-18T09:31:18Z</time>
      </trkpt>
      <trkpt lat="48.66096" lon="1.88025">
        <ele>159</ele>
        <time>2013-08-18T09:31:20Z</time>
      </trkpt>
      <trkpt lat="48.66095" lon="1.88027">
        <ele>162</ele>
        <time>2013-08-18T09:31:24Z</time>
      </trkpt>
      <trkpt lat="48.6609" lon="1.88027">
        <ele>164</ele>
        <time>2013-08-18T09:31:27Z</time>
      </trkpt>
      <trkpt lat="48.66088" lon="1.88025">
        <ele>164</ele>
        <time>2013-08-18T09:31:32Z</time>
      </trkpt>
      <trkpt lat="48.66087" lon="1.88024">
        <ele>164</ele>
        <time>2013-08-18T09:31:39Z</time>
      </trkpt>
      <trkpt lat="48.66085" lon="1.88026">
        <ele>164</ele>
        <time>2013-08-18T09:31:41Z</time>
      </trkpt>
      <trkpt lat="48.66084" lon="1.88028">
        <ele>164</ele>
        <time>2013-08-18T09:31:43Z</time>
      </trkpt>
      <trkpt lat="48.66081" lon="1.88031">
        <ele>164</ele>
        <time>2013-08-18T09:31:45Z</time>
      </trkpt>
      <trkpt lat="48.66078" lon="1.88033">
        <ele>164</ele>
        <time>2013-08-18T09:31:47Z</time>
      </trkpt>
      <trkpt lat="48.66076" lon="1.88037">
        <ele>164</ele>
        <time>2013-08-18T09:31:49Z</time>
      </trkpt>
      <trkpt lat="48.66071" lon="1.88042">
        <ele>164</ele>
        <time>2013-08-18T09:31:52Z</time>
      </trkpt>
      <trkpt lat="48.66068" lon="1.88045">
        <ele>164</ele>
        <time>2013-08-18T09:31:54Z</time>
      </trkpt>
      <trkpt lat="48.66064" lon="1.88048">
        <ele>164</ele>
        <time>2013-08-18T09:31:57Z</time>
      </trkpt>
      <trkpt lat="48.6606" lon="1.88051">
        <ele>164</ele>
        <time>2013-08-18T09:31:59Z</time>
      </trkpt>
      <trkpt lat="48.66058" lon="1.88055">
        <ele>164</ele>
        <time>2013-08-18T09:32:01Z</time>
      </trkpt>
      <trkpt lat="48.66056" lon="1.88055">
        <ele>164</ele>
        <time>2013-08-18T09:32:03Z</time>
      </trkpt>
      <trkpt lat="48.66051" lon="1.88056">
        <ele>164</ele>
        <time>2013-08-18T09:32:06Z</time>
      </trkpt>
      <trkpt lat="48.66048" lon="1.88057">
        <ele>164</ele>
        <time>2013-08-18T09:32:08Z</time>
      </trkpt>
      <trkpt lat="48.66045" lon="1.88055">
        <ele>164</ele>
        <time>2013-08-18T09:32:10Z</time>
      </trkpt>
      <trkpt lat="48.66042" lon="1.88053">
        <ele>164</ele>
        <time>2013-08-18T09:32:12Z</time>
      </trkpt>
      <trkpt lat="48.6604" lon="1.8805">
        <ele>163</ele>
        <time>2013-08-18T09:32:14Z</time>
      </trkpt>
      <trkpt lat="48.66037" lon="1.8805">
        <ele>162</ele>
        <time>2013-08-18T09:32:16Z</time>
      </trkpt>
      <trkpt lat="48.66034" lon="1.8805">
        <ele>162</ele>
        <time>2013-08-18T09:32:18Z</time>
      </trkpt>
      <trkpt lat="48.66031" lon="1.88049">
        <ele>162</ele>
        <time>2013-08-18T09:32:20Z</time>
      </trkpt>
      <trkpt lat="48.66028" lon="1.88047">
        <ele>160</ele>
        <time>2013-08-18T09:32:23Z</time>
      </trkpt>
      <trkpt lat="48.66026" lon="1.88045">
        <ele>159</ele>
        <time>2013-08-18T09:32:25Z</time>
      </trkpt>
      <trkpt lat="48.66022" lon="1.88042">
        <ele>158</ele>
        <time>2013-08-18T09:32:28Z</time>
      </trkpt>
      <trkpt lat="48.66019" lon="1.8804">
        <ele>157</ele>
        <time>2013-08-18T09:32:31Z</time>
      </trkpt>
      <trkpt lat="48.66017" lon="1.88038">
        <ele>156</ele>
        <time>2013-08-18T09:32:33Z</time>
      </trkpt>
      <trkpt lat="48.66014" lon="1.88036">
        <ele>155</ele>
        <time>2013-08-18T09:32:35Z</time>
      </trkpt>
      <trkpt lat="48.66011" lon="1.88036">
        <ele>155</ele>
        <time>2013-08-18T09:32:37Z</time>
      </trkpt>
      <trkpt lat="48.66007" lon="1.88035">
        <ele>155</ele>
        <time>2013-08-18T09:32:39Z</time>
      </trkpt>
      <trkpt lat="48.66003" lon="1.88035">
        <ele>155</ele>
        <time>2013-08-18T09:32:41Z</time>
      </trkpt>
      <trkpt lat="48.65997" lon="1.88035">
        <ele>155</ele>
        <time>2013-08-18T09:32:44Z</time>
      </trkpt>
      <trkpt lat="48.65993" lon="1.88035">
        <ele>155</ele>
        <time>2013-08-18T09:32:47Z</time>
      </trkpt>
      <trkpt lat="48.6599" lon="1.88036">
        <ele>155</ele>
        <time>2013-08-18T09:32:49Z</time>
      </trkpt>
      <trkpt lat="48.65987" lon="1.88038">
        <ele>155</ele>
        <time>2013-08-18T09:32:51Z</time>
      </trkpt>
      <trkpt lat="48.65984" lon="1.88041">
        <ele>155</ele>
        <time>2013-08-18T09:32:53Z</time>
      </trkpt>
      <trkpt lat="48.65981" lon="1.88042">
        <ele>156</ele>
        <time>2013-08-18T09:32:55Z</time>
      </trkpt>
      <trkpt lat="48.65977" lon="1.88043">
        <ele>157</ele>
        <time>2013-08-18T09:32:57Z</time>
      </trkpt>
      <trkpt lat="48.65975" lon="1.88043">
        <ele>158</ele>
        <time>2013-08-18T09:32:59Z</time>
      </trkpt>
      <trkpt lat="48.65971" lon="1.88044">
        <ele>158</ele>
        <time>2013-08-18T09:33:01Z</time>
      </trkpt>
      <trkpt lat="48.65969" lon="1.88046">
        <ele>159</ele>
        <time>2013-08-18T09:33:04Z</time>
      </trkpt>
      <trkpt lat="48.65966" lon="1.88048">
        <ele>160</ele>
        <time>2013-08-18T09:33:07Z</time>
      </trkpt>
      <trkpt lat="48.65964" lon="1.88046">
        <ele>161</ele>
        <time>2013-08-18T09:33:09Z</time>
      </trkpt>
      <trkpt lat="48.6596" lon="1.88044">
        <ele>161</ele>
        <time>2013-08-18T09:33:12Z</time>
      </trkpt>
      <trkpt lat="48.65958" lon="1.88043">
        <ele>163</ele>
        <time>2013-08-18T09:33:15Z</time>
      </trkpt>
      <trkpt lat="48.65958" lon="1.88041">
        <ele>164</ele>
        <time>2013-08-18T09:33:18Z</time>
      </trkpt>
      <trkpt lat="48.6596" lon="1.88038">
        <ele>164</ele>
        <time>2013-08-18T09:33:27Z</time>
      </trkpt>
      <trkpt lat="48.65961" lon="1.88036">
        <ele>164</ele>
        <time>2013-08-18T09:33:33Z</time>
      </trkpt>
      <trkpt lat="48.65963" lon="1.88036">
        <ele>164</ele>
        <time>2013-08-18T09:33:37Z</time>
      </trkpt>
      <trkpt lat="48.65964" lon="1.88035">
        <ele>164</ele>
        <time>2013-08-18T09:33:39Z</time>
      </trkpt>
      <trkpt lat="48.65965" lon="1.88035">
        <ele>164</ele>
        <time>2013-08-18T09:33:42Z</time>
      </trkpt>
      <trkpt lat="48.65965" lon="1.88033">
        <ele>166</ele>
        <time>2013-08-18T09:34:45Z</time>
      </trkpt>
      <trkpt lat="48.65965" lon="1.88031">
        <ele>167</ele>
        <time>2013-08-18T09:35:00Z</time>
      </trkpt>
      <trkpt lat="48.65964" lon="1.88029">
        <ele>167</ele>
        <time>2013-08-18T09:35:06Z</time>
      </trkpt>
      <trkpt lat="48.65963" lon="1.88028">
        <ele>167</ele>
        <time>2013-08-18T09:35:12Z</time>
      </trkpt>
      <trkpt lat="48.65964" lon="1.88029">
        <ele>167</ele>
        <time>2013-08-18T09:35:31Z</time>
      </trkpt>
      <trkpt lat="48.65965" lon="1.88031">
        <ele>167</ele>
        <time>2013-08-18T09:35:45Z</time>
      </trkpt>
      <trkpt lat="48.65964" lon="1.88033">
        <ele>167</ele>
        <time>2013-08-18T09:36:10Z</time>
      </trkpt>
      <trkpt lat="48.65966" lon="1.88034">
        <ele>167</ele>
        <time>2013-08-18T09:36:13Z</time>
      </trkpt>
      <trkpt lat="48.65966" lon="1.88036">
        <ele>167</ele>
        <time>2013-08-18T09:36:15Z</time>
      </trkpt>
      <trkpt lat="48.65967" lon="1.88038">
        <ele>167</ele>
        <time>2013-08-18T09:36:17Z</time>
      </trkpt>
      <trkpt lat="48.65966" lon="1.88038">
        <ele>167</ele>
        <time>2013-08-18T09:36:24Z</time>
      </trkpt>
      <trkpt lat="48.65965" lon="1.88036">
        <ele>167</ele>
        <time>2013-08-18T09:36:37Z</time>
      </trkpt>
      <trkpt lat="48.65966" lon="1.88038">
        <ele>167</ele>
        <time>2013-08-18T09:36:42Z</time>
      </trkpt>
      <trkpt lat="48.65966" lon="1.88041">
        <ele>167</ele>
        <time>2013-08-18T09:36:44Z</time>
      </trkpt>
      <trkpt lat="48.65966" lon="1.88045">
        <ele>167</ele>
        <time>2013-08-18T09:36:46Z</time>
      </trkpt>
      <trkpt lat="48.65964" lon="1.8805">
        <ele>167</ele>
        <time>2013-08-18T09:36:49Z</time>
      </trkpt>
      <trkpt lat="48.65962" lon="1.88053">
        <ele>167</ele>
        <time>2013-08-18T09:36:51Z</time>
      </trkpt>
      <trkpt lat="48.65962" lon="1.88057">
        <ele>167</ele>
        <time>2013-08-18T09:36:53Z</time>
      </trkpt>
      <trkpt lat="48.65962" lon="1.88061">
        <ele>167</ele>
        <time>2013-08-18T09:36:55Z</time>
      </trkpt>
      <trkpt lat="48.65962" lon="1.88066">
        <ele>167</ele>
        <time>2013-08-18T09:36:58Z</time>
      </trkpt>
      <trkpt lat="48.65961" lon="1.8807">
        <ele>167</ele>
        <time>2013-08-18T09:37:00Z</time>
      </trkpt>
      <trkpt lat="48.6596" lon="1.88075">
        <ele>167</ele>
        <time>2013-08-18T09:37:02Z</time>
      </trkpt>
      <trkpt lat="48.65959" lon="1.88079">
        <ele>167</ele>
        <time>2013-08-18T09:37:04Z</time>
      </trkpt>
      <trkpt lat="48.65957" lon="1.88084">
        <ele>167</ele>
        <time>2013-08-18T09:37:07Z</time>
      </trkpt>
      <trkpt lat="48.65955" lon="1.88089">
        <ele>167</ele>
        <time>2013-08-18T09:37:09Z</time>
      </trkpt>
      <trkpt lat="48.65955" lon="1.88093">
        <ele>166</ele>
        <time>2013-08-18T09:37:11Z</time>
      </trkpt>
      <trkpt lat="48.65954" lon="1.88098">
        <ele>166</ele>
        <time>2013-08-18T09:37:13Z</time>
      </trkpt>
      <trkpt lat="48.65954" lon="1.88103">
        <ele>165</ele>
        <time>2013-08-18T09:37:15Z</time>
      </trkpt>
      <trkpt lat="48.65953" lon="1.88108">
        <ele>165</ele>
        <time>2013-08-18T09:37:17Z</time>
      </trkpt>
      <trkpt lat="48.65953" lon="1.88112">
        <ele>164</ele>
        <time>2013-08-18T09:37:19Z</time>
      </trkpt>
      <trkpt lat="48.65952" lon="1.88117">
        <ele>164</ele>
        <time>2013-08-18T09:37:21Z</time>
      </trkpt>
      <trkpt lat="48.65952" lon="1.88121">
        <ele>164</ele>
        <time>2013-08-18T09:37:23Z</time>
      </trkpt>
      <trkpt lat="48.6595" lon="1.88126">
        <ele>164</ele>
        <time>2013-08-18T09:37:26Z</time>
      </trkpt>
      <trkpt lat="48.65949" lon="1.88129">
        <ele>164</ele>
        <time>2013-08-18T09:37:28Z</time>
      </trkpt>
      <trkpt lat="48.65948" lon="1.88133">
        <ele>164</ele>
        <time>2013-08-18T09:37:30Z</time>
      </trkpt>
      <trkpt lat="48.65947" lon="1.88138">
        <ele>164</ele>
        <time>2013-08-18T09:37:32Z</time>
      </trkpt>
      <trkpt lat="48.65945" lon="1.88142">
        <ele>164</ele>
        <time>2013-08-18T09:37:35Z</time>
      </trkpt>
      <trkpt lat="48.65942" lon="1.88148">
        <ele>163</ele>
        <time>2013-08-18T09:37:38Z</time>
      </trkpt>
      <trkpt lat="48.65942" lon="1.88154">
        <ele>162</ele>
        <time>2013-08-18T09:37:41Z</time>
      </trkpt>
      <trkpt lat="48.65941" lon="1.88158">
        <ele>161</ele>
        <time>2013-08-18T09:37:43Z</time>
      </trkpt>
      <trkpt lat="48.6594" lon="1.88163">
        <ele>161</ele>
        <time>2013-08-18T09:37:45Z</time>
      </trkpt>
      <trkpt lat="48.65938" lon="1.88169">
        <ele>161</ele>
        <time>2013-08-18T09:37:47Z</time>
      </trkpt>
      <trkpt lat="48.65937" lon="1.88173">
        <ele>161</ele>
        <time>2013-08-18T09:37:49Z</time>
      </trkpt>
      <trkpt lat="48.65935" lon="1.88178">
        <ele>161</ele>
        <time>2013-08-18T09:37:51Z</time>
      </trkpt>
      <trkpt lat="48.65934" lon="1.88182">
        <ele>161</ele>
        <time>2013-08-18T09:37:53Z</time>
      </trkpt>
      <trkpt lat="48.65932" lon="1.88186">
        <ele>161</ele>
        <time>2013-08-18T09:37:55Z</time>
      </trkpt>
      <trkpt lat="48.65932" lon="1.8819">
        <ele>161</ele>
        <time>2013-08-18T09:37:57Z</time>
      </trkpt>
      <trkpt lat="48.65933" lon="1.88193">
        <ele>161</ele>
        <time>2013-08-18T09:37:59Z</time>
      </trkpt>
      <trkpt lat="48.65934" lon="1.88197">
        <ele>161</ele>
        <time>2013-08-18T09:38:01Z</time>
      </trkpt>
      <trkpt lat="48.65935" lon="1.88202">
        <ele>161</ele>
        <time>2013-08-18T09:38:03Z</time>
      </trkpt>
      <trkpt lat="48.65934" lon="1.88208">
        <ele>162</ele>
        <time>2013-08-18T09:38:05Z</time>
      </trkpt>
      <trkpt lat="48.65934" lon="1.88214">
        <ele>164</ele>
        <time>2013-08-18T09:38:07Z</time>
      </trkpt>
      <trkpt lat="48.65934" lon="1.88219">
        <ele>166</ele>
        <time>2013-08-18T09:38:09Z</time>
      </trkpt>
      <trkpt lat="48.65932" lon="1.88224">
        <ele>166</ele>
        <time>2013-08-18T09:38:11Z</time>
      </trkpt>
      <trkpt lat="48.65932" lon="1.88228">
        <ele>166</ele>
        <time>2013-08-18T09:38:13Z</time>
      </trkpt>
      <trkpt lat="48.65931" lon="1.88234">
        <ele>166</ele>
        <time>2013-08-18T09:38:15Z</time>
      </trkpt>
      <trkpt lat="48.65929" lon="1.8824">
        <ele>166</ele>
        <time>2013-08-18T09:38:17Z</time>
      </trkpt>
      <trkpt lat="48.65927" lon="1.88245">
        <ele>166</ele>
        <time>2013-08-18T09:38:19Z</time>
      </trkpt>
      <trkpt lat="48.65926" lon="1.8825">
        <ele>166</ele>
        <time>2013-08-18T09:38:21Z</time>
      </trkpt>
      <trkpt lat="48.65925" lon="1.88254">
        <ele>166</ele>
        <time>2013-08-18T09:38:23Z</time>
      </trkpt>
      <trkpt lat="48.65924" lon="1.88258">
        <ele>166</ele>
        <time>2013-08-18T09:38:25Z</time>
      </trkpt>
      <trkpt lat="48.65924" lon="1.88265">
        <ele>166</ele>
        <time>2013-08-18T09:38:27Z</time>
      </trkpt>
      <trkpt lat="48.65925" lon="1.88269">
        <ele>166</ele>
        <time>2013-08-18T09:38:29Z</time>
      </trkpt>
      <trkpt lat="48.65924" lon="1.88273">
        <ele>166</ele>
        <time>2013-08-18T09:38:31Z</time>
      </trkpt>
      <trkpt lat="48.65925" lon="1.88277">
        <ele>166</ele>
        <time>2013-08-18T09:38:33Z</time>
      </trkpt>
      <trkpt lat="48.65924" lon="1.88282">
        <ele>166</ele>
        <time>2013-08-18T09:38:35Z</time>
      </trkpt>
      <trkpt lat="48.65924" lon="1.88286">
        <ele>166</ele>
        <time>2013-08-18T09:38:37Z</time>
      </trkpt>
      <trkpt lat="48.65923" lon="1.8829">
        <ele>166</ele>
        <time>2013-08-18T09:38:39Z</time>
      </trkpt>
      <trkpt lat="48.65922" lon="1.88297">
        <ele>166</ele>
        <time>2013-08-18T09:38:41Z</time>
      </trkpt>
      <trkpt lat="48.6592" lon="1.88303">
        <ele>166</ele>
        <time>2013-08-18T09:38:43Z</time>
      </trkpt>
      <trkpt lat="48.65919" lon="1.88306">
        <ele>166</ele>
        <time>2013-08-18T09:38:45Z</time>
      </trkpt>
      <trkpt lat="48.65919" lon="1.88311">
        <ele>166</ele>
        <time>2013-08-18T09:38:47Z</time>
      </trkpt>
      <trkpt lat="48.65918" lon="1.88315">
        <ele>166</ele>
        <time>2013-08-18T09:38:49Z</time>
      </trkpt>
      <trkpt lat="48.65918" lon="1.8832">
        <ele>166</ele>
        <time>2013-08-18T09:38:51Z</time>
      </trkpt>
      <trkpt lat="48.65918" lon="1.88325">
        <ele>166</ele>
        <time>2013-08-18T09:38:53Z</time>
      </trkpt>
      <trkpt lat="48.65918" lon="1.88329">
        <ele>166</ele>
        <time>2013-08-18T09:38:55Z</time>
      </trkpt>
      <trkpt lat="48.65916" lon="1.88335">
        <ele>166</ele>
        <time>2013-08-18T09:38:57Z</time>
      </trkpt>
      <trkpt lat="48.65915" lon="1.8834">
        <ele>166</ele>
        <time>2013-08-18T09:39:00Z</time>
      </trkpt>
      <trkpt lat="48.65914" lon="1.88345">
        <ele>166</ele>
        <time>2013-08-18T09:39:02Z</time>
      </trkpt>
      <trkpt lat="48.65914" lon="1.88349">
        <ele>166</ele>
        <time>2013-08-18T09:39:04Z</time>
      </trkpt>
      <trkpt lat="48.65914" lon="1.88353">
        <ele>166</ele>
        <time>2013-08-18T09:39:06Z</time>
      </trkpt>
      <trkpt lat="48.65914" lon="1.88357">
        <ele>166</ele>
        <time>2013-08-18T09:39:08Z</time>
      </trkpt>
      <trkpt lat="48.65914" lon="1.88362">
        <ele>166</ele>
        <time>2013-08-18T09:39:10Z</time>
      </trkpt>
      <trkpt lat="48.65914" lon="1.88365">
        <ele>166</ele>
        <time>2013-08-18T09:39:12Z</time>
      </trkpt>
      <trkpt lat="48.65913" lon="1.88371">
        <ele>166</ele>
        <time>2013-08-18T09:39:14Z</time>
      </trkpt>
      <trkpt lat="48.65912" lon="1.88375">
        <ele>166</ele>
        <time>2013-08-18T09:39:16Z</time>
      </trkpt>
      <trkpt lat="48.6591" lon="1.88378">
        <ele>166</ele>
        <time>2013-08-18T09:39:18Z</time>
      </trkpt>
      <trkpt lat="48.6591" lon="1.88381">
        <ele>166</ele>
        <time>2013-08-18T09:39:20Z</time>
      </trkpt>
      <trkpt lat="48.65909" lon="1.88386">
        <ele>166</ele>
        <time>2013-08-18T09:39:22Z</time>
      </trkpt>
      <trkpt lat="48.65908" lon="1.88389">
        <ele>166</ele>
        <time>2013-08-18T09:39:24Z</time>
      </trkpt>
      <trkpt lat="48.65908" lon="1.88392">
        <ele>166</ele>
        <time>2013-08-18T09:39:26Z</time>
      </trkpt>
      <trkpt lat="48.65907" lon="1.88397">
        <ele>166</ele>
        <time>2013-08-18T09:39:29Z</time>
      </trkpt>
      <trkpt lat="48.65906" lon="1.884">
        <ele>165</ele>
        <time>2013-08-18T09:39:31Z</time>
      </trkpt>
      <trkpt lat="48.65905" lon="1.88403">
        <ele>164</ele>
        <time>2013-08-18T09:39:33Z</time>
      </trkpt>
      <trkpt lat="48.65905" lon="1.88406">
        <ele>163</ele>
        <time>2013-08-18T09:39:35Z</time>
      </trkpt>
      <trkpt lat="48.65903" lon="1.88409">
        <ele>163</ele>
        <time>2013-08-18T09:39:37Z</time>
      </trkpt>
      <trkpt lat="48.65903" lon="1.88414">
        <ele>163</ele>
        <time>2013-08-18T09:39:39Z</time>
      </trkpt>
      <trkpt lat="48.65902" lon="1.8842">
        <ele>163</ele>
        <time>2013-08-18T09:39:41Z</time>
      </trkpt>
      <trkpt lat="48.65903" lon="1.88424">
        <ele>163</ele>
        <time>2013-08-18T09:39:43Z</time>
      </trkpt>
      <trkpt lat="48.65903" lon="1.88428">
        <ele>162</ele>
        <time>2013-08-18T09:39:46Z</time>
      </trkpt>
      <trkpt lat="48.65903" lon="1.88432">
        <ele>162</ele>
        <time>2013-08-18T09:39:48Z</time>
      </trkpt>
      <trkpt lat="48.65904" lon="1.88436">
        <ele>162</ele>
        <time>2013-08-18T09:39:50Z</time>
      </trkpt>
      <trkpt lat="48.65904" lon="1.88441">
        <ele>162</ele>
        <time>2013-08-18T09:39:52Z</time>
      </trkpt>
      <trkpt lat="48.65902" lon="1.88446">
        <ele>162</ele>
        <time>2013-08-18T09:39:54Z</time>
      </trkpt>
      <trkpt lat="48.65899" lon="1.8845">
        <ele>162</ele>
        <time>2013-08-18T09:39:56Z</time>
      </trkpt>
      <trkpt lat="48.65896" lon="1.88454">
        <ele>162</ele>
        <time>2013-08-18T09:39:58Z</time>
      </trkpt>
      <trkpt lat="48.65893" lon="1.88456">
        <ele>162</ele>
        <time>2013-08-18T09:40:00Z</time>
      </trkpt>
      <trkpt lat="48.6589" lon="1.88459">
        <ele>162</ele>
        <time>2013-08-18T09:40:02Z</time>
      </trkpt>
      <trkpt lat="48.65887" lon="1.8846">
        <ele>162</ele>
        <time>2013-08-18T09:40:04Z</time>
      </trkpt>
      <trkpt lat="48.65884" lon="1.88461">
        <ele>162</ele>
        <time>2013-08-18T09:40:06Z</time>
      </trkpt>
      <trkpt lat="48.65881" lon="1.88462">
        <ele>162</ele>
        <time>2013-08-18T09:40:08Z</time>
      </trkpt>
      <trkpt lat="48.65879" lon="1.88465">
        <ele>162</ele>
        <time>2013-08-18T09:40:10Z</time>
      </trkpt>
      <trkpt lat="48.65876" lon="1.88469">
        <ele>162</ele>
        <time>2013-08-18T09:40:12Z</time>
      </trkpt>
      <trkpt lat="48.65875" lon="1.88473">
        <ele>162</ele>
        <time>2013-08-18T09:40:15Z</time>
      </trkpt>
      <trkpt lat="48.65875" lon="1.88475">
        <ele>163</ele>
        <time>2013-08-18T09:40:17Z</time>
      </trkpt>
      <trkpt lat="48.65873" lon="1.88476">
        <ele>164</ele>
        <time>2013-08-18T09:40:21Z</time>
      </trkpt>
      <trkpt lat="48.65871" lon="1.88475">
        <ele>165</ele>
        <time>2013-08-18T09:40:23Z</time>
      </trkpt>
      <trkpt lat="48.65869" lon="1.88473">
        <ele>165</ele>
        <time>2013-08-18T09:40:25Z</time>
      </trkpt>
      <trkpt lat="48.65866" lon="1.88472">
        <ele>165</ele>
        <time>2013-08-18T09:40:27Z</time>
      </trkpt>
      <trkpt lat="48.65863" lon="1.88473">
        <ele>165</ele>
        <time>2013-08-18T09:40:29Z</time>
      </trkpt>
      <trkpt lat="48.6586" lon="1.88474">
        <ele>165</ele>
        <time>2013-08-18T09:40:31Z</time>
      </trkpt>
      <trkpt lat="48.65858" lon="1.88476">
        <ele>165</ele>
        <time>2013-08-18T09:40:33Z</time>
      </trkpt>
      <trkpt lat="48.65855" lon="1.88478">
        <ele>165</ele>
        <time>2013-08-18T09:40:35Z</time>
      </trkpt>
      <trkpt lat="48.65853" lon="1.8848">
        <ele>165</ele>
        <time>2013-08-18T09:40:37Z</time>
      </trkpt>
      <trkpt lat="48.65851" lon="1.88481">
        <ele>165</ele>
        <time>2013-08-18T09:40:39Z</time>
      </trkpt>
      <trkpt lat="48.65848" lon="1.88483">
        <ele>165</ele>
        <time>2013-08-18T09:40:41Z</time>
      </trkpt>
      <trkpt lat="48.65845" lon="1.88484">
        <ele>165</ele>
        <time>2013-08-18T09:40:43Z</time>
      </trkpt>
      <trkpt lat="48.65843" lon="1.88484">
        <ele>165</ele>
        <time>2013-08-18T09:40:45Z</time>
      </trkpt>
      <trkpt lat="48.6584" lon="1.88485">
        <ele>165</ele>
        <time>2013-08-18T09:40:47Z</time>
      </trkpt>
      <trkpt lat="48.65837" lon="1.88486">
        <ele>165</ele>
        <time>2013-08-18T09:40:49Z</time>
      </trkpt>
      <trkpt lat="48.65835" lon="1.88487">
        <ele>165</ele>
        <time>2013-08-18T09:40:51Z</time>
      </trkpt>
      <trkpt lat="48.65832" lon="1.88489">
        <ele>165</ele>
        <time>2013-08-18T09:40:53Z</time>
      </trkpt>
      <trkpt lat="48.65829" lon="1.88491">
        <ele>165</ele>
        <time>2013-08-18T09:40:55Z</time>
      </trkpt>
      <trkpt lat="48.65826" lon="1.88492">
        <ele>165</ele>
        <time>2013-08-18T09:40:57Z</time>
      </trkpt>
      <trkpt lat="48.65823" lon="1.88493">
        <ele>165</ele>
        <time>2013-08-18T09:40:59Z</time>
      </trkpt>
      <trkpt lat="48.6582" lon="1.88495">
        <ele>165</ele>
        <time>2013-08-18T09:41:01Z</time>
      </trkpt>
      <trkpt lat="48.65816" lon="1.88496">
        <ele>165</ele>
        <time>2013-08-18T09:41:03Z</time>
      </trkpt>
      <trkpt lat="48.65813" lon="1.88497">
        <ele>165</ele>
        <time>2013-08-18T09:41:05Z</time>
      </trkpt>
      <trkpt lat="48.6581" lon="1.88498">
        <ele>165</ele>
        <time>2013-08-18T09:41:07Z</time>
      </trkpt>
      <trkpt lat="48.65807" lon="1.88499">
        <ele>165</ele>
        <time>2013-08-18T09:41:09Z</time>
      </trkpt>
      <trkpt lat="48.65804" lon="1.885">
        <ele>165</ele>
        <time>2013-08-18T09:41:11Z</time>
      </trkpt>
      <trkpt lat="48.658" lon="1.88502">
        <ele>165</ele>
        <time>2013-08-18T09:41:13Z</time>
      </trkpt>
      <trkpt lat="48.65796" lon="1.88504">
        <ele>165</ele>
        <time>2013-08-18T09:41:15Z</time>
      </trkpt>
      <trkpt lat="48.65793" lon="1.88505">
        <ele>165</ele>
        <time>2013-08-18T09:41:17Z</time>
      </trkpt>
      <trkpt lat="48.6579" lon="1.88505">
        <ele>165</ele>
        <time>2013-08-18T09:41:20Z</time>
      </trkpt>
      <trkpt lat="48.65787" lon="1.88506">
        <ele>165</ele>
        <time>2013-08-18T09:41:22Z</time>
      </trkpt>
      <trkpt lat="48.65784" lon="1.88506">
        <ele>164</ele>
        <time>2013-08-18T09:41:24Z</time>
      </trkpt>
      <trkpt lat="48.65782" lon="1.88505">
        <ele>163</ele>
        <time>2013-08-18T09:41:26Z</time>
      </trkpt>
      <trkpt lat="48.65779" lon="1.88507">
        <ele>162</ele>
        <time>2013-08-18T09:41:28Z</time>
      </trkpt>
      <trkpt lat="48.65776" lon="1.88508">
        <ele>162</ele>
        <time>2013-08-18T09:41:30Z</time>
      </trkpt>
      <trkpt lat="48.65773" lon="1.8851">
        <ele>162</ele>
        <time>2013-08-18T09:41:32Z</time>
      </trkpt>
      <trkpt lat="48.6577" lon="1.88512">
        <ele>162</ele>
        <time>2013-08-18T09:41:34Z</time>
      </trkpt>
      <trkpt lat="48.65767" lon="1.88514">
        <ele>162</ele>
        <time>2013-08-18T09:41:36Z</time>
      </trkpt>
      <trkpt lat="48.65764" lon="1.88516">
        <ele>162</ele>
        <time>2013-08-18T09:41:38Z</time>
      </trkpt>
      <trkpt lat="48.65762" lon="1.88515">
        <ele>162</ele>
        <time>2013-08-18T09:41:40Z</time>
      </trkpt>
      <trkpt lat="48.65758" lon="1.88516">
        <ele>162</ele>
        <time>2013-08-18T09:41:42Z</time>
      </trkpt>
      <trkpt lat="48.65755" lon="1.88516">
        <ele>162</ele>
        <time>2013-08-18T09:41:44Z</time>
      </trkpt>
      <trkpt lat="48.65753" lon="1.88516">
        <ele>162</ele>
        <time>2013-08-18T09:41:46Z</time>
      </trkpt>
      <trkpt lat="48.65749" lon="1.88518">
        <ele>162</ele>
        <time>2013-08-18T09:41:48Z</time>
      </trkpt>
      <trkpt lat="48.65746" lon="1.8852">
        <ele>162</ele>
        <time>2013-08-18T09:41:50Z</time>
      </trkpt>
      <trkpt lat="48.65743" lon="1.88521">
        <ele>164</ele>
        <time>2013-08-18T09:41:52Z</time>
      </trkpt>
      <trkpt lat="48.65741" lon="1.88522">
        <ele>164</ele>
        <time>2013-08-18T09:41:54Z</time>
      </trkpt>
      <trkpt lat="48.65738" lon="1.88524">
        <ele>164</ele>
        <time>2013-08-18T09:41:56Z</time>
      </trkpt>
      <trkpt lat="48.65735" lon="1.88525">
        <ele>164</ele>
        <time>2013-08-18T09:41:58Z</time>
      </trkpt>
      <trkpt lat="48.65732" lon="1.88527">
        <ele>164</ele>
        <time>2013-08-18T09:42:00Z</time>
      </trkpt>
      <trkpt lat="48.6573" lon="1.88528">
        <ele>164</ele>
        <time>2013-08-18T09:42:02Z</time>
      </trkpt>
      <trkpt lat="48.65727" lon="1.88528">
        <ele>164</ele>
        <time>2013-08-18T09:42:04Z</time>
      </trkpt>
      <trkpt lat="48.65725" lon="1.88528">
        <ele>164</ele>
        <time>2013-08-18T09:42:06Z</time>
      </trkpt>
      <trkpt lat="48.65722" lon="1.88529">
        <ele>164</ele>
        <time>2013-08-18T09:42:08Z</time>
      </trkpt>
      <trkpt lat="48.65718" lon="1.8853">
        <ele>164</ele>
        <time>2013-08-18T09:42:10Z</time>
      </trkpt>
      <trkpt lat="48.65713" lon="1.88531">
        <ele>162</ele>
        <time>2013-08-18T09:42:12Z</time>
      </trkpt>
      <trkpt lat="48.6571" lon="1.88531">
        <ele>160</ele>
        <time>2013-08-18T09:42:14Z</time>
      </trkpt>
      <trkpt lat="48.65707" lon="1.88532">
        <ele>160</ele>
        <time>2013-08-18T09:42:16Z</time>
      </trkpt>
      <trkpt lat="48.65703" lon="1.88531">
        <ele>160</ele>
        <time>2013-08-18T09:42:18Z</time>
      </trkpt>
      <trkpt lat="48.657" lon="1.88531">
        <ele>160</ele>
        <time>2013-08-18T09:42:20Z</time>
      </trkpt>
      <trkpt lat="48.65697" lon="1.88531">
        <ele>159</ele>
        <time>2013-08-18T09:42:22Z</time>
      </trkpt>
      <trkpt lat="48.65694" lon="1.88531">
        <ele>158</ele>
        <time>2013-08-18T09:42:24Z</time>
      </trkpt>
      <trkpt lat="48.65691" lon="1.88532">
        <ele>158</ele>
        <time>2013-08-18T09:42:26Z</time>
      </trkpt>
      <trkpt lat="48.65688" lon="1.88532">
        <ele>158</ele>
        <time>2013-08-18T09:42:28Z</time>
      </trkpt>
      <trkpt lat="48.65685" lon="1.88533">
        <ele>158</ele>
        <time>2013-08-18T09:42:31Z</time>
      </trkpt>
      <trkpt lat="48.65681" lon="1.88534">
        <ele>158</ele>
        <time>2013-08-18T09:42:33Z</time>
      </trkpt>
      <trkpt lat="48.65678" lon="1.88534">
        <ele>158</ele>
        <time>2013-08-18T09:42:35Z</time>
      </trkpt>
      <trkpt lat="48.65675" lon="1.88533">
        <ele>158</ele>
        <time>2013-08-18T09:42:37Z</time>
      </trkpt>
      <trkpt lat="48.65671" lon="1.88533">
        <ele>158</ele>
        <time>2013-08-18T09:42:39Z</time>
      </trkpt>
      <trkpt lat="48.65668" lon="1.88532">
        <ele>158</ele>
        <time>2013-08-18T09:42:41Z</time>
      </trkpt>
      <trkpt lat="48.65665" lon="1.88532">
        <ele>158</ele>
        <time>2013-08-18T09:42:43Z</time>
      </trkpt>
      <trkpt lat="48.65662" lon="1.88532">
        <ele>158</ele>
        <time>2013-08-18T09:42:45Z</time>
      </trkpt>
      <trkpt lat="48.65658" lon="1.88532">
        <ele>158</ele>
        <time>2013-08-18T09:42:47Z</time>
      </trkpt>
      <trkpt lat="48.65655" lon="1.88531">
        <ele>158</ele>
        <time>2013-08-18T09:42:49Z</time>
      </trkpt>
      <trkpt lat="48.65651" lon="1.88531">
        <ele>158</ele>
        <time>2013-08-18T09:42:51Z</time>
      </trkpt>
      <trkpt lat="48.65648" lon="1.88531">
        <ele>158</ele>
        <time>2013-08-18T09:42:53Z</time>
      </trkpt>
      <trkpt lat="48.65645" lon="1.8853">
        <ele>158</ele>
        <time>2013-08-18T09:42:55Z</time>
      </trkpt>
      <trkpt lat="48.65642" lon="1.8853">
        <ele>158</ele>
        <time>2013-08-18T09:42:57Z</time>
      </trkpt>
      <trkpt lat="48.65639" lon="1.88529">
        <ele>158</ele>
        <time>2013-08-18T09:42:59Z</time>
      </trkpt>
      <trkpt lat="48.65635" lon="1.88529">
        <ele>158</ele>
        <time>2013-08-18T09:43:01Z</time>
      </trkpt>
      <trkpt lat="48.65631" lon="1.88529">
        <ele>158</ele>
        <time>2013-08-18T09:43:03Z</time>
      </trkpt>
      <trkpt lat="48.65628" lon="1.88528">
        <ele>158</ele>
        <time>2013-08-18T09:43:05Z</time>
      </trkpt>
      <trkpt lat="48.65625" lon="1.88528">
        <ele>158</ele>
        <time>2013-08-18T09:43:07Z</time>
      </trkpt>
      <trkpt lat="48.65623" lon="1.88528">
        <ele>158</ele>
        <time>2013-08-18T09:43:09Z</time>
      </trkpt>
      <trkpt lat="48.6562" lon="1.88529">
        <ele>158</ele>
        <time>2013-08-18T09:43:11Z</time>
      </trkpt>
      <trkpt lat="48.65617" lon="1.88529">
        <ele>158</ele>
        <time>2013-08-18T09:43:13Z</time>
      </trkpt>
      <trkpt lat="48.65613" lon="1.88528">
        <ele>158</ele>
        <time>2013-08-18T09:43:15Z</time>
      </trkpt>
      <trkpt lat="48.6561" lon="1.88528">
        <ele>158</ele>
        <time>2013-08-18T09:43:17Z</time>
      </trkpt>
      <trkpt lat="48.65607" lon="1.88528">
        <ele>158</ele>
        <time>2013-08-18T09:43:19Z</time>
      </trkpt>
      <trkpt lat="48.65604" lon="1.88527">
        <ele>158</ele>
        <time>2013-08-18T09:43:21Z</time>
      </trkpt>
      <trkpt lat="48.65601" lon="1.88527">
        <ele>158</ele>
        <time>2013-08-18T09:43:23Z</time>
      </trkpt>
      <trkpt lat="48.65598" lon="1.88526">
        <ele>158</ele>
        <time>2013-08-18T09:43:25Z</time>
      </trkpt>
      <trkpt lat="48.65594" lon="1.88526">
        <ele>158</ele>
        <time>2013-08-18T09:43:27Z</time>
      </trkpt>
      <trkpt lat="48.65591" lon="1.88526">
        <ele>158</ele>
        <time>2013-08-18T09:43:29Z</time>
      </trkpt>
      <trkpt lat="48.65588" lon="1.88525">
        <ele>158</ele>
        <time>2013-08-18T09:43:31Z</time>
      </trkpt>
      <trkpt lat="48.65585" lon="1.88526">
        <ele>158</ele>
        <time>2013-08-18T09:43:33Z</time>
      </trkpt>
      <trkpt lat="48.65582" lon="1.88526">
        <ele>158</ele>
        <time>2013-08-18T09:43:35Z</time>
      </trkpt>
      <trkpt lat="48.65579" lon="1.88525">
        <ele>158</ele>
        <time>2013-08-18T09:43:37Z</time>
      </trkpt>
      <trkpt lat="48.65576" lon="1.88523">
        <ele>158</ele>
        <time>2013-08-18T09:43:40Z</time>
      </trkpt>
      <trkpt lat="48.65573" lon="1.88522">
        <ele>158</ele>
        <time>2013-08-18T09:43:42Z</time>
      </trkpt>
      <trkpt lat="48.6557" lon="1.88521">
        <ele>158</ele>
        <time>2013-08-18T09:43:44Z</time>
      </trkpt>
      <trkpt lat="48.65567" lon="1.8852">
        <ele>158</ele>
        <time>2013-08-18T09:43:46Z</time>
      </trkpt>
      <trkpt lat="48.65564" lon="1.88519">
        <ele>158</ele>
        <time>2013-08-18T09:43:48Z</time>
      </trkpt>
      <trkpt lat="48.65561" lon="1.88518">
        <ele>158</ele>
        <time>2013-08-18T09:43:50Z</time>
      </trkpt>
      <trkpt lat="48.65558" lon="1.88516">
        <ele>158</ele>
        <time>2013-08-18T09:43:52Z</time>
      </trkpt>
      <trkpt lat="48.65554" lon="1.88516">
        <ele>158</ele>
        <time>2013-08-18T09:43:54Z</time>
      </trkpt>
      <trkpt lat="48.65551" lon="1.88515">
        <ele>158</ele>
        <time>2013-08-18T09:43:56Z</time>
      </trkpt>
      <trkpt lat="48.65548" lon="1.88513">
        <ele>158</ele>
        <time>2013-08-18T09:43:58Z</time>
      </trkpt>
      <trkpt lat="48.65545" lon="1.88511">
        <ele>158</ele>
        <time>2013-08-18T09:44:00Z</time>
      </trkpt>
      <trkpt lat="48.65542" lon="1.88509">
        <ele>158</ele>
        <time>2013-08-18T09:44:02Z</time>
      </trkpt>
      <trkpt lat="48.65538" lon="1.88507">
        <ele>158</ele>
        <time>2013-08-18T09:44:04Z</time>
      </trkpt>
      <trkpt lat="48.65534" lon="1.88506">
        <ele>158</ele>
        <time>2013-08-18T09:44:06Z</time>
      </trkpt>
      <trkpt lat="48.6553" lon="1.88505">
        <ele>158</ele>
        <time>2013-08-18T09:44:08Z</time>
      </trkpt>
      <trkpt lat="48.65527" lon="1.88505">
        <ele>159</ele>
        <time>2013-08-18T09:44:10Z</time>
      </trkpt>
      <trkpt lat="48.65522" lon="1.88505">
        <ele>161</ele>
        <time>2013-08-18T09:44:12Z</time>
      </trkpt>
      <trkpt lat="48.6552" lon="1.88504">
        <ele>162</ele>
        <time>2013-08-18T09:44:14Z</time>
      </trkpt>
      <trkpt lat="48.65517" lon="1.88503">
        <ele>163</ele>
        <time>2013-08-18T09:44:16Z</time>
      </trkpt>
      <trkpt lat="48.65514" lon="1.88502">
        <ele>163</ele>
        <time>2013-08-18T09:44:18Z</time>
      </trkpt>
      <trkpt lat="48.65511" lon="1.885">
        <ele>163</ele>
        <time>2013-08-18T09:44:20Z</time>
      </trkpt>
      <trkpt lat="48.65508" lon="1.88498">
        <ele>163</ele>
        <time>2013-08-18T09:44:23Z</time>
      </trkpt>
      <trkpt lat="48.65506" lon="1.88497">
        <ele>163</ele>
        <time>2013-08-18T09:44:25Z</time>
      </trkpt>
      <trkpt lat="48.65504" lon="1.88496">
        <ele>163</ele>
        <time>2013-08-18T09:44:27Z</time>
      </trkpt>
      <trkpt lat="48.65501" lon="1.88496">
        <ele>163</ele>
        <time>2013-08-18T09:44:30Z</time>
      </trkpt>
      <trkpt lat="48.65498" lon="1.88496">
        <ele>163</ele>
        <time>2013-08-18T09:44:32Z</time>
      </trkpt>
      <trkpt lat="48.65496" lon="1.88495">
        <ele>163</ele>
        <time>2013-08-18T09:44:34Z</time>
      </trkpt>
      <trkpt lat="48.65493" lon="1.88493">
        <ele>163</ele>
        <time>2013-08-18T09:44:36Z</time>
      </trkpt>
      <trkpt lat="48.6549" lon="1.88491">
        <ele>163</ele>
        <time>2013-08-18T09:44:38Z</time>
      </trkpt>
      <trkpt lat="48.65488" lon="1.8849">
        <ele>163</ele>
        <time>2013-08-18T09:44:40Z</time>
      </trkpt>
      <trkpt lat="48.65485" lon="1.8849">
        <ele>163</ele>
        <time>2013-08-18T09:44:42Z</time>
      </trkpt>
      <trkpt lat="48.65482" lon="1.88489">
        <ele>163</ele>
        <time>2013-08-18T09:44:44Z</time>
      </trkpt>
      <trkpt lat="48.65479" lon="1.88489">
        <ele>163</ele>
        <time>2013-08-18T09:44:46Z</time>
      </trkpt>
      <trkpt lat="48.65477" lon="1.88488">
        <ele>163</ele>
        <time>2013-08-18T09:44:48Z</time>
      </trkpt>
      <trkpt lat="48.65474" lon="1.88488">
        <ele>163</ele>
        <time>2013-08-18T09:44:50Z</time>
      </trkpt>
      <trkpt lat="48.65471" lon="1.88487">
        <ele>163</ele>
        <time>2013-08-18T09:44:52Z</time>
      </trkpt>
      <trkpt lat="48.65468" lon="1.88485">
        <ele>163</ele>
        <time>2013-08-18T09:44:54Z</time>
      </trkpt>
      <trkpt lat="48.65465" lon="1.88484">
        <ele>163</ele>
        <time>2013-08-18T09:44:56Z</time>
      </trkpt>
      <trkpt lat="48.65462" lon="1.88483">
        <ele>163</ele>
        <time>2013-08-18T09:44:58Z</time>
      </trkpt>
      <trkpt lat="48.65459" lon="1.88481">
        <ele>163</ele>
        <time>2013-08-18T09:45:00Z</time>
      </trkpt>
      <trkpt lat="48.65457" lon="1.88479">
        <ele>163</ele>
        <time>2013-08-18T09:45:02Z</time>
      </trkpt>
      <trkpt lat="48.65454" lon="1.88478">
        <ele>163</ele>
        <time>2013-08-18T09:45:04Z</time>
      </trkpt>
      <trkpt lat="48.65451" lon="1.88476">
        <ele>163</ele>
        <time>2013-08-18T09:45:06Z</time>
      </trkpt>
      <trkpt lat="48.65449" lon="1.88473">
        <ele>163</ele>
        <time>2013-08-18T09:45:08Z</time>
      </trkpt>
      <trkpt lat="48.65447" lon="1.88472">
        <ele>163</ele>
        <time>2013-08-18T09:45:10Z</time>
      </trkpt>
      <trkpt lat="48.65444" lon="1.8847">
        <ele>163</ele>
        <time>2013-08-18T09:45:12Z</time>
      </trkpt>
      <trkpt lat="48.65441" lon="1.88469">
        <ele>163</ele>
        <time>2013-08-18T09:45:14Z</time>
      </trkpt>
      <trkpt lat="48.65439" lon="1.88467">
        <ele>163</ele>
        <time>2013-08-18T09:45:16Z</time>
      </trkpt>
      <trkpt lat="48.65436" lon="1.88466">
        <ele>163</ele>
        <time>2013-08-18T09:45:18Z</time>
      </trkpt>
      <trkpt lat="48.65433" lon="1.88462">
        <ele>163</ele>
        <time>2013-08-18T09:45:21Z</time>
      </trkpt>
      <trkpt lat="48.65431" lon="1.88459">
        <ele>163</ele>
        <time>2013-08-18T09:45:23Z</time>
      </trkpt>
      <trkpt lat="48.65429" lon="1.88456">
        <ele>163</ele>
        <time>2013-08-18T09:45:25Z</time>
      </trkpt>
      <trkpt lat="48.65428" lon="1.88453">
        <ele>163</ele>
        <time>2013-08-18T09:45:27Z</time>
      </trkpt>
      <trkpt lat="48.65428" lon="1.8845">
        <ele>163</ele>
        <time>2013-08-18T09:45:29Z</time>
      </trkpt>
      <trkpt lat="48.65427" lon="1.88446">
        <ele>163</ele>
        <time>2013-08-18T09:45:31Z</time>
      </trkpt>
      <trkpt lat="48.65425" lon="1.88442">
        <ele>163</ele>
        <time>2013-08-18T09:45:33Z</time>
      </trkpt>
      <trkpt lat="48.65425" lon="1.88437">
        <ele>163</ele>
        <time>2013-08-18T09:45:35Z</time>
      </trkpt>
      <trkpt lat="48.65424" lon="1.88432">
        <ele>163</ele>
        <time>2013-08-18T09:45:37Z</time>
      </trkpt>
      <trkpt lat="48.65424" lon="1.88425">
        <ele>163</ele>
        <time>2013-08-18T09:45:39Z</time>
      </trkpt>
      <trkpt lat="48.65424" lon="1.88418">
        <ele>163</ele>
        <time>2013-08-18T09:45:41Z</time>
      </trkpt>
      <trkpt lat="48.65424" lon="1.88412">
        <ele>163</ele>
        <time>2013-08-18T09:45:43Z</time>
      </trkpt>
      <trkpt lat="48.65424" lon="1.88407">
        <ele>163</ele>
        <time>2013-08-18T09:45:45Z</time>
      </trkpt>
      <trkpt lat="48.65424" lon="1.88402">
        <ele>163</ele>
        <time>2013-08-18T09:45:47Z</time>
      </trkpt>
      <trkpt lat="48.65424" lon="1.88397">
        <ele>163</ele>
        <time>2013-08-18T09:45:49Z</time>
      </trkpt>
      <trkpt lat="48.65424" lon="1.88391">
        <ele>163</ele>
        <time>2013-08-18T09:45:51Z</time>
      </trkpt>
      <trkpt lat="48.65424" lon="1.88385">
        <ele>163</ele>
        <time>2013-08-18T09:45:53Z</time>
      </trkpt>
      <trkpt lat="48.65424" lon="1.88381">
        <ele>163</ele>
        <time>2013-08-18T09:45:55Z</time>
      </trkpt>
      <trkpt lat="48.65425" lon="1.88376">
        <ele>163</ele>
        <time>2013-08-18T09:45:57Z</time>
      </trkpt>
      <trkpt lat="48.65425" lon="1.88371">
        <ele>163</ele>
        <time>2013-08-18T09:45:59Z</time>
      </trkpt>
      <trkpt lat="48.65425" lon="1.88366">
        <ele>163</ele>
        <time>2013-08-18T09:46:01Z</time>
      </trkpt>
      <trkpt lat="48.65425" lon="1.88362">
        <ele>163</ele>
        <time>2013-08-18T09:46:03Z</time>
      </trkpt>
      <trkpt lat="48.65425" lon="1.88357">
        <ele>163</ele>
        <time>2013-08-18T09:46:05Z</time>
      </trkpt>
      <trkpt lat="48.65425" lon="1.88353">
        <ele>163</ele>
        <time>2013-08-18T09:46:07Z</time>
      </trkpt>
      <trkpt lat="48.65425" lon="1.88348">
        <ele>163</ele>
        <time>2013-08-18T09:46:09Z</time>
      </trkpt>
      <trkpt lat="48.65425" lon="1.88342">
        <ele>163</ele>
        <time>2013-08-18T09:46:11Z</time>
      </trkpt>
      <trkpt lat="48.65425" lon="1.88337">
        <ele>163</ele>
        <time>2013-08-18T09:46:13Z</time>
      </trkpt>
      <trkpt lat="48.65425" lon="1.88333">
        <ele>163</ele>
        <time>2013-08-18T09:46:15Z</time>
      </trkpt>
      <trkpt lat="48.65425" lon="1.88328">
        <ele>163</ele>
        <time>2013-08-18T09:46:17Z</time>
      </trkpt>
      <trkpt lat="48.65425" lon="1.88323">
        <ele>163</ele>
        <time>2013-08-18T09:46:19Z</time>
      </trkpt>
      <trkpt lat="48.65425" lon="1.88319">
        <ele>163</ele>
        <time>2013-08-18T09:46:21Z</time>
      </trkpt>
      <trkpt lat="48.65424" lon="1.88315">
        <ele>163</ele>
        <time>2013-08-18T09:46:23Z</time>
      </trkpt>
      <trkpt lat="48.65424" lon="1.8831">
        <ele>163</ele>
        <time>2013-08-18T09:46:25Z</time>
      </trkpt>
      <trkpt lat="48.65424" lon="1.88305">
        <ele>163</ele>
        <time>2013-08-18T09:46:27Z</time>
      </trkpt>
      <trkpt lat="48.65424" lon="1.88301">
        <ele>163</ele>
        <time>2013-08-18T09:46:29Z</time>
      </trkpt>
      <trkpt lat="48.65424" lon="1.88296">
        <ele>163</ele>
        <time>2013-08-18T09:46:31Z</time>
      </trkpt>
      <trkpt lat="48.65424" lon="1.88291">
        <ele>163</ele>
        <time>2013-08-18T09:46:33Z</time>
      </trkpt>
      <trkpt lat="48.65424" lon="1.88287">
        <ele>163</ele>
        <time>2013-08-18T09:46:35Z</time>
      </trkpt>
      <trkpt lat="48.65424" lon="1.88282">
        <ele>163</ele>
        <time>2013-08-18T09:46:37Z</time>
      </trkpt>
      <trkpt lat="48.65424" lon="1.88277">
        <ele>163</ele>
        <time>2013-08-18T09:46:39Z</time>
      </trkpt>
      <trkpt lat="48.65425" lon="1.88273">
        <ele>163</ele>
        <time>2013-08-18T09:46:41Z</time>
      </trkpt>
      <trkpt lat="48.65425" lon="1.88268">
        <ele>163</ele>
        <time>2013-08-18T09:46:43Z</time>
      </trkpt>
      <trkpt lat="48.65425" lon="1.88263">
        <ele>163</ele>
        <time>2013-08-18T09:46:45Z</time>
      </trkpt>
      <trkpt lat="48.65426" lon="1.88258">
        <ele>163</ele>
        <time>2013-08-18T09:46:47Z</time>
      </trkpt>
      <trkpt lat="48.65426" lon="1.88253">
        <ele>163</ele>
        <time>2013-08-18T09:46:49Z</time>
      </trkpt>
      <trkpt lat="48.65426" lon="1.88248">
        <ele>163</ele>
        <time>2013-08-18T09:46:51Z</time>
      </trkpt>
      <trkpt lat="48.65426" lon="1.88244">
        <ele>162</ele>
        <time>2013-08-18T09:46:53Z</time>
      </trkpt>
      <trkpt lat="48.65427" lon="1.88239">
        <ele>162</ele>
        <time>2013-08-18T09:46:55Z</time>
      </trkpt>
      <trkpt lat="48.65427" lon="1.88234">
        <ele>161</ele>
        <time>2013-08-18T09:46:57Z</time>
      </trkpt>
      <trkpt lat="48.65427" lon="1.88229">
        <ele>161</ele>
        <time>2013-08-18T09:46:59Z</time>
      </trkpt>
      <trkpt lat="48.65427" lon="1.88224">
        <ele>160</ele>
        <time>2013-08-18T09:47:01Z</time>
      </trkpt>
      <trkpt lat="48.65427" lon="1.8822">
        <ele>160</ele>
        <time>2013-08-18T09:47:03Z</time>
      </trkpt>
      <trkpt lat="48.65427" lon="1.88215">
        <ele>160</ele>
        <time>2013-08-18T09:47:05Z</time>
      </trkpt>
      <trkpt lat="48.65426" lon="1.8821">
        <ele>160</ele>
        <time>2013-08-18T09:47:07Z</time>
      </trkpt>
      <trkpt lat="48.65426" lon="1.88206">
        <ele>160</ele>
        <time>2013-08-18T09:47:09Z</time>
      </trkpt>
      <trkpt lat="48.65426" lon="1.88203">
        <ele>160</ele>
        <time>2013-08-18T09:47:11Z</time>
      </trkpt>
      <trkpt lat="48.65427" lon="1.88198">
        <ele>160</ele>
        <time>2013-08-18T09:47:13Z</time>
      </trkpt>
      <trkpt lat="48.65428" lon="1.88194">
        <ele>160</ele>
        <time>2013-08-18T09:47:15Z</time>
      </trkpt>
      <trkpt lat="48.65427" lon="1.88189">
        <ele>160</ele>
        <time>2013-08-18T09:47:17Z</time>
      </trkpt>
      <trkpt lat="48.65427" lon="1.88183">
        <ele>160</ele>
        <time>2013-08-18T09:47:19Z</time>
      </trkpt>
      <trkpt lat="48.65428" lon="1.88178">
        <ele>160</ele>
        <time>2013-08-18T09:47:21Z</time>
      </trkpt>
      <trkpt lat="48.65428" lon="1.88172">
        <ele>160</ele>
        <time>2013-08-18T09:47:23Z</time>
      </trkpt>
      <trkpt lat="48.65429" lon="1.88166">
        <ele>160</ele>
        <time>2013-08-18T09:47:25Z</time>
      </trkpt>
      <trkpt lat="48.65429" lon="1.88161">
        <ele>159</ele>
        <time>2013-08-18T09:47:27Z</time>
      </trkpt>
      <trkpt lat="48.65429" lon="1.88156">
        <ele>157</ele>
        <time>2013-08-18T09:47:29Z</time>
      </trkpt>
      <trkpt lat="48.65429" lon="1.88151">
        <ele>157</ele>
        <time>2013-08-18T09:47:31Z</time>
      </trkpt>
      <trkpt lat="48.65428" lon="1.88146">
        <ele>157</ele>
        <time>2013-08-18T09:47:33Z</time>
      </trkpt>
      <trkpt lat="48.65427" lon="1.88143">
        <ele>157</ele>
        <time>2013-08-18T09:47:35Z</time>
      </trkpt>
      <trkpt lat="48.65427" lon="1.88138">
        <ele>157</ele>
        <time>2013-08-18T09:47:37Z</time>
      </trkpt>
      <trkpt lat="48.65425" lon="1.88134">
        <ele>157</ele>
        <time>2013-08-18T09:47:39Z</time>
      </trkpt>
      <trkpt lat="48.65424" lon="1.88129">
        <ele>157</ele>
        <time>2013-08-18T09:47:41Z</time>
      </trkpt>
      <trkpt lat="48.65423" lon="1.88124">
        <ele>157</ele>
        <time>2013-08-18T09:47:43Z</time>
      </trkpt>
      <trkpt lat="48.65422" lon="1.8812">
        <ele>157</ele>
        <time>2013-08-18T09:47:45Z</time>
      </trkpt>
      <trkpt lat="48.6542" lon="1.88116">
        <ele>157</ele>
        <time>2013-08-18T09:47:47Z</time>
      </trkpt>
      <trkpt lat="48.65418" lon="1.88112">
        <ele>157</ele>
        <time>2013-08-18T09:47:49Z</time>
      </trkpt>
      <trkpt lat="48.65416" lon="1.88109">
        <ele>157</ele>
        <time>2013-08-18T09:47:51Z</time>
      </trkpt>
      <trkpt lat="48.65416" lon="1.88104">
        <ele>157</ele>
        <time>2013-08-18T09:47:53Z</time>
      </trkpt>
      <trkpt lat="48.65414" lon="1.88101">
        <ele>157</ele>
        <time>2013-08-18T09:47:55Z</time>
      </trkpt>
      <trkpt lat="48.65411" lon="1.88097">
        <ele>157</ele>
        <time>2013-08-18T09:47:57Z</time>
      </trkpt>
      <trkpt lat="48.65408" lon="1.88093">
        <ele>157</ele>
        <time>2013-08-18T09:47:59Z</time>
      </trkpt>
      <trkpt lat="48.65406" lon="1.8809">
        <ele>157</ele>
        <time>2013-08-18T09:48:01Z</time>
      </trkpt>
      <trkpt lat="48.65404" lon="1.88086">
        <ele>157</ele>
        <time>2013-08-18T09:48:03Z</time>
      </trkpt>
      <trkpt lat="48.654" lon="1.88079">
        <ele>157</ele>
        <time>2013-08-18T09:48:06Z</time>
      </trkpt>
      <trkpt lat="48.65397" lon="1.88076">
        <ele>157</ele>
        <time>2013-08-18T09:48:08Z</time>
      </trkpt>
      <trkpt lat="48.65394" lon="1.88072">
        <ele>157</ele>
        <time>2013-08-18T09:48:10Z</time>
      </trkpt>
      <trkpt lat="48.65392" lon="1.88068">
        <ele>157</ele>
        <time>2013-08-18T09:48:12Z</time>
      </trkpt>
      <trkpt lat="48.65389" lon="1.88066">
        <ele>157</ele>
        <time>2013-08-18T09:48:14Z</time>
      </trkpt>
      <trkpt lat="48.65386" lon="1.88064">
        <ele>157</ele>
        <time>2013-08-18T09:48:16Z</time>
      </trkpt>
      <trkpt lat="48.65383" lon="1.88061">
        <ele>157</ele>
        <time>2013-08-18T09:48:18Z</time>
      </trkpt>
      <trkpt lat="48.6538" lon="1.88058">
        <ele>157</ele>
        <time>2013-08-18T09:48:20Z</time>
      </trkpt>
      <trkpt lat="48.65377" lon="1.88055">
        <ele>157</ele>
        <time>2013-08-18T09:48:22Z</time>
      </trkpt>
      <trkpt lat="48.65374" lon="1.88051">
        <ele>157</ele>
        <time>2013-08-18T09:48:25Z</time>
      </trkpt>
      <trkpt lat="48.65372" lon="1.88048">
        <ele>157</ele>
        <time>2013-08-18T09:48:27Z</time>
      </trkpt>
      <trkpt lat="48.6537" lon="1.88044">
        <ele>157</ele>
        <time>2013-08-18T09:48:30Z</time>
      </trkpt>
      <trkpt lat="48.65367" lon="1.88041">
        <ele>157</ele>
        <time>2013-08-18T09:48:32Z</time>
      </trkpt>
      <trkpt lat="48.65364" lon="1.88039">
        <ele>157</ele>
        <time>2013-08-18T09:48:34Z</time>
      </trkpt>
      <trkpt lat="48.65361" lon="1.88036">
        <ele>157</ele>
        <time>2013-08-18T09:48:36Z</time>
      </trkpt>
      <trkpt lat="48.65358" lon="1.88032">
        <ele>157</ele>
        <time>2013-08-18T09:48:39Z</time>
      </trkpt>
      <trkpt lat="48.65356" lon="1.8803">
        <ele>157</ele>
        <time>2013-08-18T09:48:41Z</time>
      </trkpt>
      <trkpt lat="48.65354" lon="1.88026">
        <ele>157</ele>
        <time>2013-08-18T09:48:43Z</time>
      </trkpt>
      <trkpt lat="48.65351" lon="1.88025">
        <ele>157</ele>
        <time>2013-08-18T09:48:45Z</time>
      </trkpt>
      <trkpt lat="48.65348" lon="1.88021">
        <ele>157</ele>
        <time>2013-08-18T09:48:48Z</time>
      </trkpt>
      <trkpt lat="48.65346" lon="1.88019">
        <ele>157</ele>
        <time>2013-08-18T09:48:50Z</time>
      </trkpt>
      <trkpt lat="48.65345" lon="1.88017">
        <ele>157</ele>
        <time>2013-08-18T09:48:52Z</time>
      </trkpt>
      <trkpt lat="48.65344" lon="1.88016">
        <ele>157</ele>
        <time>2013-08-18T09:48:54Z</time>
      </trkpt>
      <trkpt lat="48.65343" lon="1.88014">
        <ele>157</ele>
        <time>2013-08-18T09:48:56Z</time>
      </trkpt>
      <trkpt lat="48.65342" lon="1.88011">
        <ele>155</ele>
        <time>2013-08-18T09:48:58Z</time>
      </trkpt>
      <trkpt lat="48.65342" lon="1.88008">
        <ele>155</ele>
        <time>2013-08-18T09:49:00Z</time>
      </trkpt>
      <trkpt lat="48.6534" lon="1.88005">
        <ele>155</ele>
        <time>2013-08-18T09:49:02Z</time>
      </trkpt>
      <trkpt lat="48.65339" lon="1.88003">
        <ele>155</ele>
        <time>2013-08-18T09:49:04Z</time>
      </trkpt>
      <trkpt lat="48.65337" lon="1.88">
        <ele>155</ele>
        <time>2013-08-18T09:49:06Z</time>
      </trkpt>
      <trkpt lat="48.65334" lon="1.87998">
        <ele>155</ele>
        <time>2013-08-18T09:49:08Z</time>
      </trkpt>
      <trkpt lat="48.65332" lon="1.87999">
        <ele>155</ele>
        <time>2013-08-18T09:49:10Z</time>
      </trkpt>
      <trkpt lat="48.6533" lon="1.88003">
        <ele>155</ele>
        <time>2013-08-18T09:49:12Z</time>
      </trkpt>
      <trkpt lat="48.65328" lon="1.88004">
        <ele>155</ele>
        <time>2013-08-18T09:49:14Z</time>
      </trkpt>
      <trkpt lat="48.65325" lon="1.88002">
        <ele>156</ele>
        <time>2013-08-18T09:49:16Z</time>
      </trkpt>
      <trkpt lat="48.65324" lon="1.87998">
        <ele>156</ele>
        <time>2013-08-18T09:49:18Z</time>
      </trkpt>
      <trkpt lat="48.65321" lon="1.87995">
        <ele>156</ele>
        <time>2013-08-18T09:49:20Z</time>
      </trkpt>
      <trkpt lat="48.65319" lon="1.87991">
        <ele>156</ele>
        <time>2013-08-18T09:49:22Z</time>
      </trkpt>
      <trkpt lat="48.65317" lon="1.87988">
        <ele>156</ele>
        <time>2013-08-18T09:49:24Z</time>
      </trkpt>
      <trkpt lat="48.65314" lon="1.87984">
        <ele>156</ele>
        <time>2013-08-18T09:49:26Z</time>
      </trkpt>
      <trkpt lat="48.65311" lon="1.8798">
        <ele>156</ele>
        <time>2013-08-18T09:49:29Z</time>
      </trkpt>
      <trkpt lat="48.65309" lon="1.87978">
        <ele>156</ele>
        <time>2013-08-18T09:49:31Z</time>
      </trkpt>
      <trkpt lat="48.65307" lon="1.87975">
        <ele>155</ele>
        <time>2013-08-18T09:49:33Z</time>
      </trkpt>
      <trkpt lat="48.65305" lon="1.87972">
        <ele>154</ele>
        <time>2013-08-18T09:49:35Z</time>
      </trkpt>
      <trkpt lat="48.65303" lon="1.87969">
        <ele>153</ele>
        <time>2013-08-18T09:49:37Z</time>
      </trkpt>
      <trkpt lat="48.653" lon="1.87967">
        <ele>152</ele>
        <time>2013-08-18T09:49:39Z</time>
      </trkpt>
      <trkpt lat="48.65297" lon="1.87966">
        <ele>152</ele>
        <time>2013-08-18T09:49:41Z</time>
      </trkpt>
      <trkpt lat="48.65294" lon="1.87961">
        <ele>152</ele>
        <time>2013-08-18T09:49:43Z</time>
      </trkpt>
      <trkpt lat="48.65291" lon="1.87959">
        <ele>152</ele>
        <time>2013-08-18T09:49:45Z</time>
      </trkpt>
      <trkpt lat="48.65288" lon="1.87956">
        <ele>152</ele>
        <time>2013-08-18T09:49:47Z</time>
      </trkpt>
      <trkpt lat="48.65284" lon="1.87952">
        <ele>152</ele>
        <time>2013-08-18T09:49:50Z</time>
      </trkpt>
      <trkpt lat="48.65279" lon="1.87951">
        <ele>152</ele>
        <time>2013-08-18T09:49:52Z</time>
      </trkpt>
      <trkpt lat="48.65277" lon="1.87946">
        <ele>152</ele>
        <time>2013-08-18T09:49:54Z</time>
      </trkpt>
      <trkpt lat="48.65274" lon="1.87944">
        <ele>152</ele>
        <time>2013-08-18T09:49:56Z</time>
      </trkpt>
      <trkpt lat="48.65271" lon="1.87943">
        <ele>153</ele>
        <time>2013-08-18T09:49:58Z</time>
      </trkpt>
      <trkpt lat="48.65269" lon="1.87941">
        <ele>154</ele>
        <time>2013-08-18T09:50:00Z</time>
      </trkpt>
      <trkpt lat="48.65266" lon="1.87937">
        <ele>155</ele>
        <time>2013-08-18T09:50:03Z</time>
      </trkpt>
      <trkpt lat="48.65265" lon="1.87934">
        <ele>155</ele>
        <time>2013-08-18T09:50:05Z</time>
      </trkpt>
      <trkpt lat="48.65261" lon="1.87931">
        <ele>155</ele>
        <time>2013-08-18T09:50:08Z</time>
      </trkpt>
      <trkpt lat="48.65259" lon="1.87931">
        <ele>155</ele>
        <time>2013-08-18T09:50:10Z</time>
      </trkpt>
      <trkpt lat="48.65257" lon="1.8793">
        <ele>155</ele>
        <time>2013-08-18T09:50:12Z</time>
      </trkpt>
      <trkpt lat="48.65255" lon="1.87929">
        <ele>155</ele>
        <time>2013-08-18T09:50:14Z</time>
      </trkpt>
      <trkpt lat="48.65252" lon="1.87927">
        <ele>155</ele>
        <time>2013-08-18T09:50:16Z</time>
      </trkpt>
      <trkpt lat="48.65249" lon="1.87925">
        <ele>154</ele>
        <time>2013-08-18T09:50:19Z</time>
      </trkpt>
      <trkpt lat="48.65247" lon="1.87924">
        <ele>152</ele>
        <time>2013-08-18T09:50:21Z</time>
      </trkpt>
      <trkpt lat="48.65244" lon="1.87923">
        <ele>151</ele>
        <time>2013-08-18T09:50:23Z</time>
      </trkpt>
      <trkpt lat="48.65241" lon="1.87922">
        <ele>149</ele>
        <time>2013-08-18T09:50:25Z</time>
      </trkpt>
      <trkpt lat="48.65239" lon="1.8792">
        <ele>148</ele>
        <time>2013-08-18T09:50:27Z</time>
      </trkpt>
      <trkpt lat="48.65236" lon="1.87919">
        <ele>148</ele>
        <time>2013-08-18T09:50:29Z</time>
      </trkpt>
      <trkpt lat="48.65233" lon="1.87917">
        <ele>147</ele>
        <time>2013-08-18T09:50:31Z</time>
      </trkpt>
      <trkpt lat="48.6523" lon="1.87917">
        <ele>146</ele>
        <time>2013-08-18T09:50:33Z</time>
      </trkpt>
      <trkpt lat="48.65226" lon="1.87917">
        <ele>146</ele>
        <time>2013-08-18T09:50:35Z</time>
      </trkpt>
      <trkpt lat="48.65223" lon="1.87916">
        <ele>146</ele>
        <time>2013-08-18T09:50:37Z</time>
      </trkpt>
      <trkpt lat="48.6522" lon="1.87915">
        <ele>146</ele>
        <time>2013-08-18T09:50:39Z</time>
      </trkpt>
      <trkpt lat="48.65217" lon="1.87915">
        <ele>146</ele>
        <time>2013-08-18T09:50:42Z</time>
      </trkpt>
      <trkpt lat="48.65215" lon="1.87913">
        <ele>146</ele>
        <time>2013-08-18T09:50:44Z</time>
      </trkpt>
      <trkpt lat="48.65211" lon="1.87912">
        <ele>145</ele>
        <time>2013-08-18T09:50:46Z</time>
      </trkpt>
      <trkpt lat="48.65208" lon="1.8791">
        <ele>145</ele>
        <time>2013-08-18T09:50:48Z</time>
      </trkpt>
      <trkpt lat="48.65206" lon="1.87908">
        <ele>145</ele>
        <time>2013-08-18T09:50:50Z</time>
      </trkpt>
      <trkpt lat="48.65203" lon="1.87908">
        <ele>144</ele>
        <time>2013-08-18T09:50:52Z</time>
      </trkpt>
      <trkpt lat="48.652" lon="1.87907">
        <ele>143</ele>
        <time>2013-08-18T09:50:54Z</time>
      </trkpt>
      <trkpt lat="48.65197" lon="1.87906">
        <ele>142</ele>
        <time>2013-08-18T09:50:56Z</time>
      </trkpt>
      <trkpt lat="48.65193" lon="1.87904">
        <ele>140</ele>
        <time>2013-08-18T09:50:58Z</time>
      </trkpt>
      <trkpt lat="48.65188" lon="1.87905">
        <ele>140</ele>
        <time>2013-08-18T09:51:00Z</time>
      </trkpt>
      <trkpt lat="48.65185" lon="1.87905">
        <ele>140</ele>
        <time>2013-08-18T09:51:02Z</time>
      </trkpt>
      <trkpt lat="48.65182" lon="1.87903">
        <ele>140</ele>
        <time>2013-08-18T09:51:04Z</time>
      </trkpt>
      <trkpt lat="48.65178" lon="1.87902">
        <ele>140</ele>
        <time>2013-08-18T09:51:06Z</time>
      </trkpt>
      <trkpt lat="48.65174" lon="1.879">
        <ele>140</ele>
        <time>2013-08-18T09:51:08Z</time>
      </trkpt>
      <trkpt lat="48.65171" lon="1.87898">
        <ele>140</ele>
        <time>2013-08-18T09:51:10Z</time>
      </trkpt>
      <trkpt lat="48.65167" lon="1.87897">
        <ele>140</ele>
        <time>2013-08-18T09:51:12Z</time>
      </trkpt>
      <trkpt lat="48.65163" lon="1.87895">
        <ele>140</ele>
        <time>2013-08-18T09:51:14Z</time>
      </trkpt>
      <trkpt lat="48.65158" lon="1.87895">
        <ele>142</ele>
        <time>2013-08-18T09:51:16Z</time>
      </trkpt>
      <trkpt lat="48.65155" lon="1.87895">
        <ele>144</ele>
        <time>2013-08-18T09:51:18Z</time>
      </trkpt>
      <trkpt lat="48.65151" lon="1.87896">
        <ele>146</ele>
        <time>2013-08-18T09:51:20Z</time>
      </trkpt>
      <trkpt lat="48.65148" lon="1.87896">
        <ele>148</ele>
        <time>2013-08-18T09:51:22Z</time>
      </trkpt>
      <trkpt lat="48.65145" lon="1.87895">
        <ele>148</ele>
        <time>2013-08-18T09:51:24Z</time>
      </trkpt>
      <trkpt lat="48.65142" lon="1.87896">
        <ele>149</ele>
        <time>2013-08-18T09:51:26Z</time>
      </trkpt>
      <trkpt lat="48.65139" lon="1.87895">
        <ele>150</ele>
        <time>2013-08-18T09:51:28Z</time>
      </trkpt>
      <trkpt lat="48.65135" lon="1.87895">
        <ele>152</ele>
        <time>2013-08-18T09:51:30Z</time>
      </trkpt>
      <trkpt lat="48.65132" lon="1.87893">
        <ele>152</ele>
        <time>2013-08-18T09:51:32Z</time>
      </trkpt>
      <trkpt lat="48.65129" lon="1.87892">
        <ele>152</ele>
        <time>2013-08-18T09:51:34Z</time>
      </trkpt>
      <trkpt lat="48.65126" lon="1.8789">
        <ele>152</ele>
        <time>2013-08-18T09:51:36Z</time>
      </trkpt>
      <trkpt lat="48.65123" lon="1.87889">
        <ele>152</ele>
        <time>2013-08-18T09:51:38Z</time>
      </trkpt>
      <trkpt lat="48.65119" lon="1.87887">
        <ele>152</ele>
        <time>2013-08-18T09:51:40Z</time>
      </trkpt>
      <trkpt lat="48.65117" lon="1.87887">
        <ele>152</ele>
        <time>2013-08-18T09:51:42Z</time>
      </trkpt>
      <trkpt lat="48.65114" lon="1.87887">
        <ele>152</ele>
        <time>2013-08-18T09:51:44Z</time>
      </trkpt>
      <trkpt lat="48.65112" lon="1.87885">
        <ele>152</ele>
        <time>2013-08-18T09:51:46Z</time>
      </trkpt>
      <trkpt lat="48.6511" lon="1.87883">
        <ele>152</ele>
        <time>2013-08-18T09:51:48Z</time>
      </trkpt>
      <trkpt lat="48.65108" lon="1.87882">
        <ele>152</ele>
        <time>2013-08-18T09:51:50Z</time>
      </trkpt>
      <trkpt lat="48.65106" lon="1.87881">
        <ele>151</ele>
        <time>2013-08-18T09:51:52Z</time>
      </trkpt>
      <trkpt lat="48.65102" lon="1.87878">
        <ele>151</ele>
        <time>2013-08-18T09:51:54Z</time>
      </trkpt>
      <trkpt lat="48.65099" lon="1.87876">
        <ele>151</ele>
        <time>2013-08-18T09:51:56Z</time>
      </trkpt>
      <trkpt lat="48.65096" lon="1.87876">
        <ele>151</ele>
        <time>2013-08-18T09:51:58Z</time>
      </trkpt>
      <trkpt lat="48.65093" lon="1.87875">
        <ele>151</ele>
        <time>2013-08-18T09:52:00Z</time>
      </trkpt>
      <trkpt lat="48.65091" lon="1.87875">
        <ele>151</ele>
        <time>2013-08-18T09:52:02Z</time>
      </trkpt>
      <trkpt lat="48.65088" lon="1.87874">
        <ele>150</ele>
        <time>2013-08-18T09:52:04Z</time>
      </trkpt>
      <trkpt lat="48.65085" lon="1.87873">
        <ele>149</ele>
        <time>2013-08-18T09:52:06Z</time>
      </trkpt>
      <trkpt lat="48.65082" lon="1.87872">
        <ele>148</ele>
        <time>2013-08-18T09:52:08Z</time>
      </trkpt>
      <trkpt lat="48.65079" lon="1.87871">
        <ele>148</ele>
        <time>2013-08-18T09:52:11Z</time>
      </trkpt>
      <trkpt lat="48.65075" lon="1.87867">
        <ele>148</ele>
        <time>2013-08-18T09:52:14Z</time>
      </trkpt>
      <trkpt lat="48.65071" lon="1.87864">
        <ele>148</ele>
        <time>2013-08-18T09:52:17Z</time>
      </trkpt>
      <trkpt lat="48.65068" lon="1.87862">
        <ele>148</ele>
        <time>2013-08-18T09:52:19Z</time>
      </trkpt>
      <trkpt lat="48.65065" lon="1.87859">
        <ele>148</ele>
        <time>2013-08-18T09:52:21Z</time>
      </trkpt>
      <trkpt lat="48.65062" lon="1.87857">
        <ele>148</ele>
        <time>2013-08-18T09:52:23Z</time>
      </trkpt>
      <trkpt lat="48.65058" lon="1.87854">
        <ele>148</ele>
        <time>2013-08-18T09:52:25Z</time>
      </trkpt>
      <trkpt lat="48.65055" lon="1.87851">
        <ele>148</ele>
        <time>2013-08-18T09:52:27Z</time>
      </trkpt>
      <trkpt lat="48.65052" lon="1.87849">
        <ele>148</ele>
        <time>2013-08-18T09:52:29Z</time>
      </trkpt>
      <trkpt lat="48.65048" lon="1.87847">
        <ele>148</ele>
        <time>2013-08-18T09:52:31Z</time>
      </trkpt>
      <trkpt lat="48.65044" lon="1.87846">
        <ele>148</ele>
        <time>2013-08-18T09:52:33Z</time>
      </trkpt>
      <trkpt lat="48.65041" lon="1.87845">
        <ele>149</ele>
        <time>2013-08-18T09:52:35Z</time>
      </trkpt>
      <trkpt lat="48.65038" lon="1.87844">
        <ele>149</ele>
        <time>2013-08-18T09:52:37Z</time>
      </trkpt>
      <trkpt lat="48.65035" lon="1.8784">
        <ele>150</ele>
        <time>2013-08-18T09:52:39Z</time>
      </trkpt>
      <trkpt lat="48.65031" lon="1.87838">
        <ele>150</ele>
        <time>2013-08-18T09:52:41Z</time>
      </trkpt>
      <trkpt lat="48.65029" lon="1.87838">
        <ele>150</ele>
        <time>2013-08-18T09:52:43Z</time>
      </trkpt>
      <trkpt lat="48.65026" lon="1.87835">
        <ele>150</ele>
        <time>2013-08-18T09:52:45Z</time>
      </trkpt>
      <trkpt lat="48.65024" lon="1.87833">
        <ele>150</ele>
        <time>2013-08-18T09:52:47Z</time>
      </trkpt>
      <trkpt lat="48.6502" lon="1.87832">
        <ele>150</ele>
        <time>2013-08-18T09:52:49Z</time>
      </trkpt>
      <trkpt lat="48.65016" lon="1.87831">
        <ele>150</ele>
        <time>2013-08-18T09:52:51Z</time>
      </trkpt>
      <trkpt lat="48.65013" lon="1.87828">
        <ele>152</ele>
        <time>2013-08-18T09:52:53Z</time>
      </trkpt>
      <trkpt lat="48.65011" lon="1.87824">
        <ele>153</ele>
        <time>2013-08-18T09:52:55Z</time>
      </trkpt>
      <trkpt lat="48.65007" lon="1.87821">
        <ele>153</ele>
        <time>2013-08-18T09:52:57Z</time>
      </trkpt>
      <trkpt lat="48.65004" lon="1.87818">
        <ele>154</ele>
        <time>2013-08-18T09:52:59Z</time>
      </trkpt>
      <trkpt lat="48.65001" lon="1.87815">
        <ele>154</ele>
        <time>2013-08-18T09:53:01Z</time>
      </trkpt>
      <trkpt lat="48.64997" lon="1.87814">
        <ele>154</ele>
        <time>2013-08-18T09:53:03Z</time>
      </trkpt>
      <trkpt lat="48.64994" lon="1.87813">
        <ele>154</ele>
        <time>2013-08-18T09:53:05Z</time>
      </trkpt>
      <trkpt lat="48.64992" lon="1.87811">
        <ele>154</ele>
        <time>2013-08-18T09:53:07Z</time>
      </trkpt>
      <trkpt lat="48.6499" lon="1.87809">
        <ele>155</ele>
        <time>2013-08-18T09:53:09Z</time>
      </trkpt>
      <trkpt lat="48.64988" lon="1.87807">
        <ele>155</ele>
        <time>2013-08-18T09:53:11Z</time>
      </trkpt>
      <trkpt lat="48.64985" lon="1.87804">
        <ele>155</ele>
        <time>2013-08-18T09:53:13Z</time>
      </trkpt>
      <trkpt lat="48.64981" lon="1.87803">
        <ele>155</ele>
        <time>2013-08-18T09:53:15Z</time>
      </trkpt>
      <trkpt lat="48.64978" lon="1.87801">
        <ele>155</ele>
        <time>2013-08-18T09:53:17Z</time>
      </trkpt>
      <trkpt lat="48.64974" lon="1.87799">
        <ele>156</ele>
        <time>2013-08-18T09:53:19Z</time>
      </trkpt>
      <trkpt lat="48.64971" lon="1.87797">
        <ele>156</ele>
        <time>2013-08-18T09:53:21Z</time>
      </trkpt>
      <trkpt lat="48.64968" lon="1.87795">
        <ele>156</ele>
        <time>2013-08-18T09:53:23Z</time>
      </trkpt>
      <trkpt lat="48.64965" lon="1.87792">
        <ele>156</ele>
        <time>2013-08-18T09:53:25Z</time>
      </trkpt>
      <trkpt lat="48.64963" lon="1.87789">
        <ele>156</ele>
        <time>2013-08-18T09:53:27Z</time>
      </trkpt>
      <trkpt lat="48.64961" lon="1.87786">
        <ele>156</ele>
        <time>2013-08-18T09:53:29Z</time>
      </trkpt>
      <trkpt lat="48.64958" lon="1.87783">
        <ele>156</ele>
        <time>2013-08-18T09:53:31Z</time>
      </trkpt>
      <trkpt lat="48.64955" lon="1.87781">
        <ele>156</ele>
        <time>2013-08-18T09:53:33Z</time>
      </trkpt>
      <trkpt lat="48.64952" lon="1.8778">
        <ele>156</ele>
        <time>2013-08-18T09:53:35Z</time>
      </trkpt>
      <trkpt lat="48.6495" lon="1.87778">
        <ele>156</ele>
        <time>2013-08-18T09:53:37Z</time>
      </trkpt>
      <trkpt lat="48.64946" lon="1.87776">
        <ele>156</ele>
        <time>2013-08-18T09:53:39Z</time>
      </trkpt>
      <trkpt lat="48.64943" lon="1.87773">
        <ele>156</ele>
        <time>2013-08-18T09:53:41Z</time>
      </trkpt>
      <trkpt lat="48.64939" lon="1.87769">
        <ele>156</ele>
        <time>2013-08-18T09:53:43Z</time>
      </trkpt>
      <trkpt lat="48.64938" lon="1.87765">
        <ele>156</ele>
        <time>2013-08-18T09:53:45Z</time>
      </trkpt>
      <trkpt lat="48.64937" lon="1.87759">
        <ele>156</ele>
        <time>2013-08-18T09:53:47Z</time>
      </trkpt>
      <trkpt lat="48.64937" lon="1.87754">
        <ele>156</ele>
        <time>2013-08-18T09:53:49Z</time>
      </trkpt>
      <trkpt lat="48.64937" lon="1.87749">
        <ele>156</ele>
        <time>2013-08-18T09:53:51Z</time>
      </trkpt>
      <trkpt lat="48.64937" lon="1.87744">
        <ele>156</ele>
        <time>2013-08-18T09:53:53Z</time>
      </trkpt>
      <trkpt lat="48.64938" lon="1.87739">
        <ele>156</ele>
        <time>2013-08-18T09:53:55Z</time>
      </trkpt>
      <trkpt lat="48.64939" lon="1.87735">
        <ele>156</ele>
        <time>2013-08-18T09:53:57Z</time>
      </trkpt>
      <trkpt lat="48.64936" lon="1.8773">
        <ele>156</ele>
        <time>2013-08-18T09:53:59Z</time>
      </trkpt>
      <trkpt lat="48.64935" lon="1.87725">
        <ele>156</ele>
        <time>2013-08-18T09:54:01Z</time>
      </trkpt>
      <trkpt lat="48.64935" lon="1.8772">
        <ele>156</ele>
        <time>2013-08-18T09:54:03Z</time>
      </trkpt>
      <trkpt lat="48.64936" lon="1.87715">
        <ele>158</ele>
        <time>2013-08-18T09:54:05Z</time>
      </trkpt>
      <trkpt lat="48.64937" lon="1.8771">
        <ele>158</ele>
        <time>2013-08-18T09:54:07Z</time>
      </trkpt>
      <trkpt lat="48.64937" lon="1.87705">
        <ele>158</ele>
        <time>2013-08-18T09:54:09Z</time>
      </trkpt>
      <trkpt lat="48.64935" lon="1.87701">
        <ele>158</ele>
        <time>2013-08-18T09:54:11Z</time>
      </trkpt>
      <trkpt lat="48.64936" lon="1.87696">
        <ele>158</ele>
        <time>2013-08-18T09:54:13Z</time>
      </trkpt>
      <trkpt lat="48.64938" lon="1.87691">
        <ele>158</ele>
        <time>2013-08-18T09:54:15Z</time>
      </trkpt>
      <trkpt lat="48.64938" lon="1.87687">
        <ele>158</ele>
        <time>2013-08-18T09:54:17Z</time>
      </trkpt>
      <trkpt lat="48.64939" lon="1.87682">
        <ele>158</ele>
        <time>2013-08-18T09:54:19Z</time>
      </trkpt>
      <trkpt lat="48.64941" lon="1.87677">
        <ele>158</ele>
        <time>2013-08-18T09:54:21Z</time>
      </trkpt>
      <trkpt lat="48.64943" lon="1.87672">
        <ele>158</ele>
        <time>2013-08-18T09:54:23Z</time>
      </trkpt>
      <trkpt lat="48.64944" lon="1.87668">
        <ele>158</ele>
        <time>2013-08-18T09:54:25Z</time>
      </trkpt>
      <trkpt lat="48.64946" lon="1.87663">
        <ele>158</ele>
        <time>2013-08-18T09:54:27Z</time>
      </trkpt>
      <trkpt lat="48.64946" lon="1.87658">
        <ele>158</ele>
        <time>2013-08-18T09:54:29Z</time>
      </trkpt>
      <trkpt lat="48.64947" lon="1.87653">
        <ele>158</ele>
        <time>2013-08-18T09:54:31Z</time>
      </trkpt>
      <trkpt lat="48.64948" lon="1.87647">
        <ele>158</ele>
        <time>2013-08-18T09:54:33Z</time>
      </trkpt>
      <trkpt lat="48.64949" lon="1.87643">
        <ele>158</ele>
        <time>2013-08-18T09:54:35Z</time>
      </trkpt>
      <trkpt lat="48.6495" lon="1.87637">
        <ele>158</ele>
        <time>2013-08-18T09:54:37Z</time>
      </trkpt>
      <trkpt lat="48.64951" lon="1.87632">
        <ele>158</ele>
        <time>2013-08-18T09:54:39Z</time>
      </trkpt>
      <trkpt lat="48.64952" lon="1.87628">
        <ele>158</ele>
        <time>2013-08-18T09:54:41Z</time>
      </trkpt>
      <trkpt lat="48.64953" lon="1.87623">
        <ele>158</ele>
        <time>2013-08-18T09:54:43Z</time>
      </trkpt>
      <trkpt lat="48.64955" lon="1.87618">
        <ele>158</ele>
        <time>2013-08-18T09:54:45Z</time>
      </trkpt>
      <trkpt lat="48.64956" lon="1.87613">
        <ele>158</ele>
        <time>2013-08-18T09:54:47Z</time>
      </trkpt>
      <trkpt lat="48.64956" lon="1.87608">
        <ele>158</ele>
        <time>2013-08-18T09:54:49Z</time>
      </trkpt>
      <trkpt lat="48.64956" lon="1.87603">
        <ele>158</ele>
        <time>2013-08-18T09:54:51Z</time>
      </trkpt>
      <trkpt lat="48.64956" lon="1.87599">
        <ele>158</ele>
        <time>2013-08-18T09:54:53Z</time>
      </trkpt>
      <trkpt lat="48.64955" lon="1.87594">
        <ele>158</ele>
        <time>2013-08-18T09:54:55Z</time>
      </trkpt>
      <trkpt lat="48.64954" lon="1.8759">
        <ele>158</ele>
        <time>2013-08-18T09:54:57Z</time>
      </trkpt>
      <trkpt lat="48.64952" lon="1.87586">
        <ele>158</ele>
        <time>2013-08-18T09:54:59Z</time>
      </trkpt>
      <trkpt lat="48.6495" lon="1.87582">
        <ele>158</ele>
        <time>2013-08-18T09:55:01Z</time>
      </trkpt>
      <trkpt lat="48.64947" lon="1.87579">
        <ele>158</ele>
        <time>2013-08-18T09:55:03Z</time>
      </trkpt>
      <trkpt lat="48.64944" lon="1.87576">
        <ele>158</ele>
        <time>2013-08-18T09:55:05Z</time>
      </trkpt>
      <trkpt lat="48.64942" lon="1.87572">
        <ele>158</ele>
        <time>2013-08-18T09:55:07Z</time>
      </trkpt>
      <trkpt lat="48.6494" lon="1.87569">
        <ele>158</ele>
        <time>2013-08-18T09:55:09Z</time>
      </trkpt>
      <trkpt lat="48.64938" lon="1.87566">
        <ele>158</ele>
        <time>2013-08-18T09:55:11Z</time>
      </trkpt>
      <trkpt lat="48.64935" lon="1.87563">
        <ele>158</ele>
        <time>2013-08-18T09:55:13Z</time>
      </trkpt>
      <trkpt lat="48.64933" lon="1.8756">
        <ele>158</ele>
        <time>2013-08-18T09:55:15Z</time>
      </trkpt>
      <trkpt lat="48.64931" lon="1.87557">
        <ele>158</ele>
        <time>2013-08-18T09:55:17Z</time>
      </trkpt>
      <trkpt lat="48.64928" lon="1.87554">
        <ele>158</ele>
        <time>2013-08-18T09:55:19Z</time>
      </trkpt>
      <trkpt lat="48.64925" lon="1.87552">
        <ele>158</ele>
        <time>2013-08-18T09:55:21Z</time>
      </trkpt>
      <trkpt lat="48.64924" lon="1.87549">
        <ele>158</ele>
        <time>2013-08-18T09:55:23Z</time>
      </trkpt>
      <trkpt lat="48.64921" lon="1.87545">
        <ele>158</ele>
        <time>2013-08-18T09:55:25Z</time>
      </trkpt>
      <trkpt lat="48.64918" lon="1.87542">
        <ele>157</ele>
        <time>2013-08-18T09:55:27Z</time>
      </trkpt>
      <trkpt lat="48.64915" lon="1.87539">
        <ele>157</ele>
        <time>2013-08-18T09:55:29Z</time>
      </trkpt>
      <trkpt lat="48.64913" lon="1.87536">
        <ele>157</ele>
        <time>2013-08-18T09:55:31Z</time>
      </trkpt>
      <trkpt lat="48.64911" lon="1.87533">
        <ele>157</ele>
        <time>2013-08-18T09:55:33Z</time>
      </trkpt>
      <trkpt lat="48.64907" lon="1.8753">
        <ele>156</ele>
        <time>2013-08-18T09:55:35Z</time>
      </trkpt>
      <trkpt lat="48.64904" lon="1.87527">
        <ele>156</ele>
        <time>2013-08-18T09:55:37Z</time>
      </trkpt>
      <trkpt lat="48.64901" lon="1.87522">
        <ele>156</ele>
        <time>2013-08-18T09:55:39Z</time>
      </trkpt>
      <trkpt lat="48.64899" lon="1.87519">
        <ele>156</ele>
        <time>2013-08-18T09:55:41Z</time>
      </trkpt>
      <trkpt lat="48.64896" lon="1.87516">
        <ele>156</ele>
        <time>2013-08-18T09:55:43Z</time>
      </trkpt>
      <trkpt lat="48.64893" lon="1.87513">
        <ele>156</ele>
        <time>2013-08-18T09:55:46Z</time>
      </trkpt>
      <trkpt lat="48.64891" lon="1.8751">
        <ele>156</ele>
        <time>2013-08-18T09:55:48Z</time>
      </trkpt>
      <trkpt lat="48.64887" lon="1.87506">
        <ele>156</ele>
        <time>2013-08-18T09:55:50Z</time>
      </trkpt>
      <trkpt lat="48.64885" lon="1.87504">
        <ele>156</ele>
        <time>2013-08-18T09:55:52Z</time>
      </trkpt>
      <trkpt lat="48.64883" lon="1.87501">
        <ele>156</ele>
        <time>2013-08-18T09:55:54Z</time>
      </trkpt>
      <trkpt lat="48.64879" lon="1.87498">
        <ele>156</ele>
        <time>2013-08-18T09:55:56Z</time>
      </trkpt>
      <trkpt lat="48.64876" lon="1.87497">
        <ele>156</ele>
        <time>2013-08-18T09:55:58Z</time>
      </trkpt>
      <trkpt lat="48.64873" lon="1.87494">
        <ele>156</ele>
        <time>2013-08-18T09:56:00Z</time>
      </trkpt>
      <trkpt lat="48.64871" lon="1.87491">
        <ele>156</ele>
        <time>2013-08-18T09:56:02Z</time>
      </trkpt>
      <trkpt lat="48.64869" lon="1.87487">
        <ele>156</ele>
        <time>2013-08-18T09:56:04Z</time>
      </trkpt>
      <trkpt lat="48.64866" lon="1.87484">
        <ele>156</ele>
        <time>2013-08-18T09:56:06Z</time>
      </trkpt>
      <trkpt lat="48.64864" lon="1.87481">
        <ele>156</ele>
        <time>2013-08-18T09:56:08Z</time>
      </trkpt>
      <trkpt lat="48.64861" lon="1.87478">
        <ele>156</ele>
        <time>2013-08-18T09:56:10Z</time>
      </trkpt>
      <trkpt lat="48.64858" lon="1.87474">
        <ele>156</ele>
        <time>2013-08-18T09:56:12Z</time>
      </trkpt>
      <trkpt lat="48.64855" lon="1.8747">
        <ele>156</ele>
        <time>2013-08-18T09:56:14Z</time>
      </trkpt>
      <trkpt lat="48.64852" lon="1.87467">
        <ele>156</ele>
        <time>2013-08-18T09:56:16Z</time>
      </trkpt>
      <trkpt lat="48.64849" lon="1.87464">
        <ele>157</ele>
        <time>2013-08-18T09:56:18Z</time>
      </trkpt>
      <trkpt lat="48.64846" lon="1.87461">
        <ele>158</ele>
        <time>2013-08-18T09:56:20Z</time>
      </trkpt>
      <trkpt lat="48.64843" lon="1.87459">
        <ele>158</ele>
        <time>2013-08-18T09:56:22Z</time>
      </trkpt>
      <trkpt lat="48.6484" lon="1.87454">
        <ele>158</ele>
        <time>2013-08-18T09:56:25Z</time>
      </trkpt>
      <trkpt lat="48.64838" lon="1.87451">
        <ele>158</ele>
        <time>2013-08-18T09:56:27Z</time>
      </trkpt>
      <trkpt lat="48.64835" lon="1.87447">
        <ele>158</ele>
        <time>2013-08-18T09:56:29Z</time>
      </trkpt>
      <trkpt lat="48.64833" lon="1.87443">
        <ele>158</ele>
        <time>2013-08-18T09:56:31Z</time>
      </trkpt>
      <trkpt lat="48.6483" lon="1.8744">
        <ele>158</ele>
        <time>2013-08-18T09:56:33Z</time>
      </trkpt>
      <trkpt lat="48.64827" lon="1.87437">
        <ele>158</ele>
        <time>2013-08-18T09:56:35Z</time>
      </trkpt>
      <trkpt lat="48.64824" lon="1.87433">
        <ele>158</ele>
        <time>2013-08-18T09:56:37Z</time>
      </trkpt>
      <trkpt lat="48.6482" lon="1.87429">
        <ele>158</ele>
        <time>2013-08-18T09:56:40Z</time>
      </trkpt>
      <trkpt lat="48.64817" lon="1.87426">
        <ele>158</ele>
        <time>2013-08-18T09:56:42Z</time>
      </trkpt>
      <trkpt lat="48.64814" lon="1.87423">
        <ele>158</ele>
        <time>2013-08-18T09:56:44Z</time>
      </trkpt>
      <trkpt lat="48.64811" lon="1.8742">
        <ele>158</ele>
        <time>2013-08-18T09:56:46Z</time>
      </trkpt>
      <trkpt lat="48.64809" lon="1.87417">
        <ele>158</ele>
        <time>2013-08-18T09:56:48Z</time>
      </trkpt>
      <trkpt lat="48.64806" lon="1.87414">
        <ele>158</ele>
        <time>2013-08-18T09:56:50Z</time>
      </trkpt>
      <trkpt lat="48.64804" lon="1.8741">
        <ele>158</ele>
        <time>2013-08-18T09:56:52Z</time>
      </trkpt>
      <trkpt lat="48.64801" lon="1.87408">
        <ele>158</ele>
        <time>2013-08-18T09:56:54Z</time>
      </trkpt>
      <trkpt lat="48.64799" lon="1.87405">
        <ele>158</ele>
        <time>2013-08-18T09:56:56Z</time>
      </trkpt>
      <trkpt lat="48.64796" lon="1.87402">
        <ele>158</ele>
        <time>2013-08-18T09:56:58Z</time>
      </trkpt>
      <trkpt lat="48.64793" lon="1.87399">
        <ele>158</ele>
        <time>2013-08-18T09:57:00Z</time>
      </trkpt>
      <trkpt lat="48.6479" lon="1.87396">
        <ele>158</ele>
        <time>2013-08-18T09:57:02Z</time>
      </trkpt>
      <trkpt lat="48.64788" lon="1.87393">
        <ele>158</ele>
        <time>2013-08-18T09:57:04Z</time>
      </trkpt>
      <trkpt lat="48.64785" lon="1.87389">
        <ele>158</ele>
        <time>2013-08-18T09:57:06Z</time>
      </trkpt>
      <trkpt lat="48.6478" lon="1.87383">
        <ele>158</ele>
        <time>2013-08-18T09:57:08Z</time>
      </trkpt>
      <trkpt lat="48.64774" lon="1.87377">
        <ele>158</ele>
        <time>2013-08-18T09:57:10Z</time>
      </trkpt>
      <trkpt lat="48.64771" lon="1.87373">
        <ele>158</ele>
        <time>2013-08-18T09:57:12Z</time>
      </trkpt>
      <trkpt lat="48.64768" lon="1.87369">
        <ele>158</ele>
        <time>2013-08-18T09:57:14Z</time>
      </trkpt>
      <trkpt lat="48.64765" lon="1.87365">
        <ele>158</ele>
        <time>2013-08-18T09:57:16Z</time>
      </trkpt>
      <trkpt lat="48.64762" lon="1.87362">
        <ele>158</ele>
        <time>2013-08-18T09:57:18Z</time>
      </trkpt>
      <trkpt lat="48.6476" lon="1.87359">
        <ele>158</ele>
        <time>2013-08-18T09:57:20Z</time>
      </trkpt>
      <trkpt lat="48.64757" lon="1.87356">
        <ele>158</ele>
        <time>2013-08-18T09:57:22Z</time>
      </trkpt>
      <trkpt lat="48.64754" lon="1.87352">
        <ele>158</ele>
        <time>2013-08-18T09:57:24Z</time>
      </trkpt>
      <trkpt lat="48.64751" lon="1.87349">
        <ele>158</ele>
        <time>2013-08-18T09:57:26Z</time>
      </trkpt>
      <trkpt lat="48.64748" lon="1.87346">
        <ele>158</ele>
        <time>2013-08-18T09:57:28Z</time>
      </trkpt>
      <trkpt lat="48.64746" lon="1.87342">
        <ele>157</ele>
        <time>2013-08-18T09:57:30Z</time>
      </trkpt>
      <trkpt lat="48.64743" lon="1.8734">
        <ele>157</ele>
        <time>2013-08-18T09:57:32Z</time>
      </trkpt>
      <trkpt lat="48.6474" lon="1.87337">
        <ele>157</ele>
        <time>2013-08-18T09:57:34Z</time>
      </trkpt>
      <trkpt lat="48.64737" lon="1.87334">
        <ele>157</ele>
        <time>2013-08-18T09:57:36Z</time>
      </trkpt>
      <trkpt lat="48.64735" lon="1.87331">
        <ele>157</ele>
        <time>2013-08-18T09:57:38Z</time>
      </trkpt>
      <trkpt lat="48.64732" lon="1.87328">
        <ele>157</ele>
        <time>2013-08-18T09:57:40Z</time>
      </trkpt>
      <trkpt lat="48.64729" lon="1.87324">
        <ele>157</ele>
        <time>2013-08-18T09:57:42Z</time>
      </trkpt>
      <trkpt lat="48.64725" lon="1.87321">
        <ele>157</ele>
        <time>2013-08-18T09:57:44Z</time>
      </trkpt>
      <trkpt lat="48.64722" lon="1.87318">
        <ele>157</ele>
        <time>2013-08-18T09:57:46Z</time>
      </trkpt>
      <trkpt lat="48.64719" lon="1.87315">
        <ele>157</ele>
        <time>2013-08-18T09:57:48Z</time>
      </trkpt>
      <trkpt lat="48.64716" lon="1.87311">
        <ele>157</ele>
        <time>2013-08-18T09:57:51Z</time>
      </trkpt>
      <trkpt lat="48.64713" lon="1.87308">
        <ele>157</ele>
        <time>2013-08-18T09:57:53Z</time>
      </trkpt>
      <trkpt lat="48.6471" lon="1.87305">
        <ele>157</ele>
        <time>2013-08-18T09:57:55Z</time>
      </trkpt>
      <trkpt lat="48.64708" lon="1.87302">
        <ele>157</ele>
        <time>2013-08-18T09:57:57Z</time>
      </trkpt>
      <trkpt lat="48.64705" lon="1.873">
        <ele>157</ele>
        <time>2013-08-18T09:57:59Z</time>
      </trkpt>
      <trkpt lat="48.64702" lon="1.87297">
        <ele>157</ele>
        <time>2013-08-18T09:58:01Z</time>
      </trkpt>
      <trkpt lat="48.64699" lon="1.87295">
        <ele>157</ele>
        <time>2013-08-18T09:58:03Z</time>
      </trkpt>
      <trkpt lat="48.64696" lon="1.87291">
        <ele>158</ele>
        <time>2013-08-18T09:58:05Z</time>
      </trkpt>
      <trkpt lat="48.64693" lon="1.87288">
        <ele>158</ele>
        <time>2013-08-18T09:58:07Z</time>
      </trkpt>
      <trkpt lat="48.6469" lon="1.87285">
        <ele>158</ele>
        <time>2013-08-18T09:58:09Z</time>
      </trkpt>
      <trkpt lat="48.64688" lon="1.87281">
        <ele>158</ele>
        <time>2013-08-18T09:58:11Z</time>
      </trkpt>
      <trkpt lat="48.64684" lon="1.87278">
        <ele>158</ele>
        <time>2013-08-18T09:58:13Z</time>
      </trkpt>
      <trkpt lat="48.64681" lon="1.87274">
        <ele>158</ele>
        <time>2013-08-18T09:58:15Z</time>
      </trkpt>
      <trkpt lat="48.64678" lon="1.8727">
        <ele>158</ele>
        <time>2013-08-18T09:58:17Z</time>
      </trkpt>
      <trkpt lat="48.64675" lon="1.87267">
        <ele>158</ele>
        <time>2013-08-18T09:58:19Z</time>
      </trkpt>
      <trkpt lat="48.64672" lon="1.87264">
        <ele>158</ele>
        <time>2013-08-18T09:58:21Z</time>
      </trkpt>
      <trkpt lat="48.64669" lon="1.8726">
        <ele>158</ele>
        <time>2013-08-18T09:58:24Z</time>
      </trkpt>
      <trkpt lat="48.64667" lon="1.87258">
        <ele>158</ele>
        <time>2013-08-18T09:58:26Z</time>
      </trkpt>
      <trkpt lat="48.64666" lon="1.87255">
        <ele>159</ele>
        <time>2013-08-18T09:58:28Z</time>
      </trkpt>
      <trkpt lat="48.64665" lon="1.87255">
        <ele>161</ele>
        <time>2013-08-18T09:58:38Z</time>
      </trkpt>
      <trkpt lat="48.64663" lon="1.87254">
        <ele>162</ele>
        <time>2013-08-18T09:58:57Z</time>
      </trkpt>
      <trkpt lat="48.64662" lon="1.87255">
        <ele>162</ele>
        <time>2013-08-18T09:59:04Z</time>
      </trkpt>
      <trkpt lat="48.64661" lon="1.87257">
        <ele>162</ele>
        <time>2013-08-18T09:59:12Z</time>
      </trkpt>
      <trkpt lat="48.6466" lon="1.87258">
        <ele>162</ele>
        <time>2013-08-18T09:59:15Z</time>
      </trkpt>
      <trkpt lat="48.64658" lon="1.87257">
        <ele>162</ele>
        <time>2013-08-18T09:59:22Z</time>
      </trkpt>
      <trkpt lat="48.64658" lon="1.87255">
        <ele>162</ele>
        <time>2013-08-18T09:59:27Z</time>
      </trkpt>
      <trkpt lat="48.6466" lon="1.87254">
        <ele>164</ele>
        <time>2013-08-18T09:59:40Z</time>
      </trkpt>
      <trkpt lat="48.6466" lon="1.87256">
        <ele>164</ele>
        <time>2013-08-18T09:59:48Z</time>
      </trkpt>
      <trkpt lat="48.64661" lon="1.87254">
        <ele>164</ele>
        <time>2013-08-18T09:59:53Z</time>
      </trkpt>
      <trkpt lat="48.64663" lon="1.87253">
        <ele>164</ele>
        <time>2013-08-18T09:59:56Z</time>
      </trkpt>
      <trkpt lat="48.64662" lon="1.87255">
        <ele>164</ele>
        <time>2013-08-18T10:00:09Z</time>
      </trkpt>
      <trkpt lat="48.64661" lon="1.87256">
        <ele>164</ele>
        <time>2013-08-18T10:00:13Z</time>
      </trkpt>
      <trkpt lat="48.6466" lon="1.87257">
        <ele>164</ele>
        <time>2013-08-18T10:00:18Z</time>
      </trkpt>
      <trkpt lat="48.64659" lon="1.87257">
        <ele>164</ele>
        <time>2013-08-18T10:00:28Z</time>
      </trkpt>
      <trkpt lat="48.64658" lon="1.87256">
        <ele>164</ele>
        <time>2013-08-18T10:00:36Z</time>
      </trkpt>
      <trkpt lat="48.64659" lon="1.87257">
        <ele>164</ele>
        <time>2013-08-18T10:00:57Z</time>
      </trkpt>
      <trkpt lat="48.64659" lon="1.87259">
        <ele>165</ele>
        <time>2013-08-18T10:01:00Z</time>
      </trkpt>
      <trkpt lat="48.6466" lon="1.87261">
        <ele>165</ele>
        <time>2013-08-18T10:01:02Z</time>
      </trkpt>
      <trkpt lat="48.6466" lon="1.87263">
        <ele>167</ele>
        <time>2013-08-18T10:01:14Z</time>
      </trkpt>
      <trkpt lat="48.64659" lon="1.87262">
        <ele>169</ele>
        <time>2013-08-18T10:01:28Z</time>
      </trkpt>
      <trkpt lat="48.64658" lon="1.87262">
        <ele>169</ele>
        <time>2013-08-18T10:01:48Z</time>
      </trkpt>
      <trkpt lat="48.64658" lon="1.87264">
        <ele>169</ele>
        <time>2013-08-18T10:02:06Z</time>
      </trkpt>
      <trkpt lat="48.64657" lon="1.87266">
        <ele>169</ele>
        <time>2013-08-18T10:02:16Z</time>
      </trkpt>
      <trkpt lat="48.64657" lon="1.87267">
        <ele>169</ele>
        <time>2013-08-18T10:02:26Z</time>
      </trkpt>
      <trkpt lat="48.64657" lon="1.87269">
        <ele>169</ele>
        <time>2013-08-18T10:02:42Z</time>
      </trkpt>
      <trkpt lat="48.64658" lon="1.87267">
        <ele>169</ele>
        <time>2013-08-18T10:02:45Z</time>
      </trkpt>
      <trkpt lat="48.64658" lon="1.87265">
        <ele>169</ele>
        <time>2013-08-18T10:02:50Z</time>
      </trkpt>
      <trkpt lat="48.64656" lon="1.87263">
        <ele>169</ele>
        <time>2013-08-18T10:03:07Z</time>
      </trkpt>
      <trkpt lat="48.64656" lon="1.87261">
        <ele>169</ele>
        <time>2013-08-18T10:03:25Z</time>
      </trkpt>
      <trkpt lat="48.64658" lon="1.8726">
        <ele>169</ele>
        <time>2013-08-18T10:03:33Z</time>
      </trkpt>
      <trkpt lat="48.64658" lon="1.87258">
        <ele>169</ele>
        <time>2013-08-18T10:03:36Z</time>
      </trkpt>
      <trkpt lat="48.64659" lon="1.87256">
        <ele>169</ele>
        <time>2013-08-18T10:03:39Z</time>
      </trkpt>
      <trkpt lat="48.6466" lon="1.87255">
        <ele>169</ele>
        <time>2013-08-18T10:03:44Z</time>
      </trkpt>
      <trkpt lat="48.6466" lon="1.87253">
        <ele>169</ele>
        <time>2013-08-18T10:03:46Z</time>
      </trkpt>
      <trkpt lat="48.64662" lon="1.8725">
        <ele>169</ele>
        <time>2013-08-18T10:03:48Z</time>
      </trkpt>
      <trkpt lat="48.64663" lon="1.87246">
        <ele>169</ele>
        <time>2013-08-18T10:03:50Z</time>
      </trkpt>
      <trkpt lat="48.64665" lon="1.87242">
        <ele>169</ele>
        <time>2013-08-18T10:03:52Z</time>
      </trkpt>
      <trkpt lat="48.64667" lon="1.87238">
        <ele>169</ele>
        <time>2013-08-18T10:03:54Z</time>
      </trkpt>
      <trkpt lat="48.64669" lon="1.87234">
        <ele>169</ele>
        <time>2013-08-18T10:03:56Z</time>
      </trkpt>
      <trkpt lat="48.6467" lon="1.8723">
        <ele>169</ele>
        <time>2013-08-18T10:03:58Z</time>
      </trkpt>
      <trkpt lat="48.64671" lon="1.87225">
        <ele>169</ele>
        <time>2013-08-18T10:04:00Z</time>
      </trkpt>
      <trkpt lat="48.64673" lon="1.87222">
        <ele>169</ele>
        <time>2013-08-18T10:04:02Z</time>
      </trkpt>
      <trkpt lat="48.64674" lon="1.87219">
        <ele>169</ele>
        <time>2013-08-18T10:04:04Z</time>
      </trkpt>
      <trkpt lat="48.64676" lon="1.87215">
        <ele>169</ele>
        <time>2013-08-18T10:04:06Z</time>
      </trkpt>
      <trkpt lat="48.64678" lon="1.87211">
        <ele>169</ele>
        <time>2013-08-18T10:04:08Z</time>
      </trkpt>
      <trkpt lat="48.6468" lon="1.87207">
        <ele>169</ele>
        <time>2013-08-18T10:04:10Z</time>
      </trkpt>
      <trkpt lat="48.64682" lon="1.87204">
        <ele>169</ele>
        <time>2013-08-18T10:04:12Z</time>
      </trkpt>
      <trkpt lat="48.64684" lon="1.872">
        <ele>169</ele>
        <time>2013-08-18T10:04:14Z</time>
      </trkpt>
      <trkpt lat="48.64685" lon="1.87197">
        <ele>169</ele>
        <time>2013-08-18T10:04:16Z</time>
      </trkpt>
      <trkpt lat="48.64687" lon="1.87193">
        <ele>169</ele>
        <time>2013-08-18T10:04:18Z</time>
      </trkpt>
      <trkpt lat="48.64689" lon="1.8719">
        <ele>169</ele>
        <time>2013-08-18T10:04:20Z</time>
      </trkpt>
      <trkpt lat="48.6469" lon="1.87186">
        <ele>169</ele>
        <time>2013-08-18T10:04:22Z</time>
      </trkpt>
      <trkpt lat="48.64692" lon="1.87182">
        <ele>169</ele>
        <time>2013-08-18T10:04:24Z</time>
      </trkpt>
      <trkpt lat="48.64693" lon="1.87178">
        <ele>169</ele>
        <time>2013-08-18T10:04:26Z</time>
      </trkpt>
      <trkpt lat="48.64695" lon="1.87174">
        <ele>169</ele>
        <time>2013-08-18T10:04:28Z</time>
      </trkpt>
      <trkpt lat="48.64697" lon="1.87171">
        <ele>169</ele>
        <time>2013-08-18T10:04:30Z</time>
      </trkpt>
      <trkpt lat="48.64698" lon="1.87167">
        <ele>169</ele>
        <time>2013-08-18T10:04:32Z</time>
      </trkpt>
      <trkpt lat="48.647" lon="1.87163">
        <ele>169</ele>
        <time>2013-08-18T10:04:34Z</time>
      </trkpt>
      <trkpt lat="48.64702" lon="1.8716">
        <ele>169</ele>
        <time>2013-08-18T10:04:36Z</time>
      </trkpt>
      <trkpt lat="48.64704" lon="1.87157">
        <ele>169</ele>
        <time>2013-08-18T10:04:38Z</time>
      </trkpt>
      <trkpt lat="48.64706" lon="1.87152">
        <ele>169</ele>
        <time>2013-08-18T10:04:40Z</time>
      </trkpt>
      <trkpt lat="48.64708" lon="1.87148">
        <ele>169</ele>
        <time>2013-08-18T10:04:42Z</time>
      </trkpt>
      <trkpt lat="48.64709" lon="1.87144">
        <ele>169</ele>
        <time>2013-08-18T10:04:44Z</time>
      </trkpt>
      <trkpt lat="48.64711" lon="1.87141">
        <ele>169</ele>
        <time>2013-08-18T10:04:46Z</time>
      </trkpt>
      <trkpt lat="48.64713" lon="1.87137">
        <ele>169</ele>
        <time>2013-08-18T10:04:48Z</time>
      </trkpt>
      <trkpt lat="48.64714" lon="1.87134">
        <ele>169</ele>
        <time>2013-08-18T10:04:50Z</time>
      </trkpt>
      <trkpt lat="48.64716" lon="1.87129">
        <ele>169</ele>
        <time>2013-08-18T10:04:52Z</time>
      </trkpt>
      <trkpt lat="48.64718" lon="1.87126">
        <ele>169</ele>
        <time>2013-08-18T10:04:54Z</time>
      </trkpt>
      <trkpt lat="48.6472" lon="1.87122">
        <ele>169</ele>
        <time>2013-08-18T10:04:56Z</time>
      </trkpt>
      <trkpt lat="48.64722" lon="1.87118">
        <ele>169</ele>
        <time>2013-08-18T10:04:58Z</time>
      </trkpt>
      <trkpt lat="48.64724" lon="1.87113">
        <ele>169</ele>
        <time>2013-08-18T10:05:00Z</time>
      </trkpt>
      <trkpt lat="48.64725" lon="1.87109">
        <ele>168</ele>
        <time>2013-08-18T10:05:02Z</time>
      </trkpt>
      <trkpt lat="48.64727" lon="1.87105">
        <ele>167</ele>
        <time>2013-08-18T10:05:04Z</time>
      </trkpt>
      <trkpt lat="48.64729" lon="1.87102">
        <ele>167</ele>
        <time>2013-08-18T10:05:06Z</time>
      </trkpt>
      <trkpt lat="48.6473" lon="1.87098">
        <ele>167</ele>
        <time>2013-08-18T10:05:08Z</time>
      </trkpt>
      <trkpt lat="48.64731" lon="1.87093">
        <ele>167</ele>
        <time>2013-08-18T10:05:10Z</time>
      </trkpt>
      <trkpt lat="48.64732" lon="1.8709">
        <ele>167</ele>
        <time>2013-08-18T10:05:12Z</time>
      </trkpt>
      <trkpt lat="48.64734" lon="1.87085">
        <ele>167</ele>
        <time>2013-08-18T10:05:14Z</time>
      </trkpt>
      <trkpt lat="48.64735" lon="1.87082">
        <ele>167</ele>
        <time>2013-08-18T10:05:16Z</time>
      </trkpt>
      <trkpt lat="48.64737" lon="1.87077">
        <ele>167</ele>
        <time>2013-08-18T10:05:18Z</time>
      </trkpt>
      <trkpt lat="48.64739" lon="1.87074">
        <ele>167</ele>
        <time>2013-08-18T10:05:20Z</time>
      </trkpt>
      <trkpt lat="48.6474" lon="1.8707">
        <ele>167</ele>
        <time>2013-08-18T10:05:22Z</time>
      </trkpt>
      <trkpt lat="48.64742" lon="1.87066">
        <ele>167</ele>
        <time>2013-08-18T10:05:24Z</time>
      </trkpt>
      <trkpt lat="48.64744" lon="1.87062">
        <ele>167</ele>
        <time>2013-08-18T10:05:26Z</time>
      </trkpt>
      <trkpt lat="48.64745" lon="1.87057">
        <ele>167</ele>
        <time>2013-08-18T10:05:28Z</time>
      </trkpt>
      <trkpt lat="48.64747" lon="1.87054">
        <ele>167</ele>
        <time>2013-08-18T10:05:30Z</time>
      </trkpt>
      <trkpt lat="48.64748" lon="1.8705">
        <ele>167</ele>
        <time>2013-08-18T10:05:32Z</time>
      </trkpt>
      <trkpt lat="48.6475" lon="1.87046">
        <ele>167</ele>
        <time>2013-08-18T10:05:34Z</time>
      </trkpt>
      <trkpt lat="48.64751" lon="1.87042">
        <ele>167</ele>
        <time>2013-08-18T10:05:36Z</time>
      </trkpt>
      <trkpt lat="48.64753" lon="1.87039">
        <ele>167</ele>
        <time>2013-08-18T10:05:38Z</time>
      </trkpt>
      <trkpt lat="48.64754" lon="1.87035">
        <ele>167</ele>
        <time>2013-08-18T10:05:40Z</time>
      </trkpt>
      <trkpt lat="48.64756" lon="1.87031">
        <ele>167</ele>
        <time>2013-08-18T10:05:42Z</time>
      </trkpt>
      <trkpt lat="48.64757" lon="1.87028">
        <ele>167</ele>
        <time>2013-08-18T10:05:44Z</time>
      </trkpt>
      <trkpt lat="48.64759" lon="1.87024">
        <ele>167</ele>
        <time>2013-08-18T10:05:46Z</time>
      </trkpt>
      <trkpt lat="48.6476" lon="1.87021">
        <ele>167</ele>
        <time>2013-08-18T10:05:48Z</time>
      </trkpt>
      <trkpt lat="48.64761" lon="1.87017">
        <ele>167</ele>
        <time>2013-08-18T10:05:50Z</time>
      </trkpt>
      <trkpt lat="48.64763" lon="1.87013">
        <ele>167</ele>
        <time>2013-08-18T10:05:52Z</time>
      </trkpt>
      <trkpt lat="48.64764" lon="1.8701">
        <ele>167</ele>
        <time>2013-08-18T10:05:54Z</time>
      </trkpt>
      <trkpt lat="48.64766" lon="1.87005">
        <ele>167</ele>
        <time>2013-08-18T10:05:57Z</time>
      </trkpt>
      <trkpt lat="48.64768" lon="1.87001">
        <ele>167</ele>
        <time>2013-08-18T10:05:59Z</time>
      </trkpt>
      <trkpt lat="48.64769" lon="1.86997">
        <ele>167</ele>
        <time>2013-08-18T10:06:01Z</time>
      </trkpt>
      <trkpt lat="48.64771" lon="1.86994">
        <ele>167</ele>
        <time>2013-08-18T10:06:03Z</time>
      </trkpt>
      <trkpt lat="48.64772" lon="1.86991">
        <ele>167</ele>
        <time>2013-08-18T10:06:05Z</time>
      </trkpt>
      <trkpt lat="48.64773" lon="1.86987">
        <ele>167</ele>
        <time>2013-08-18T10:06:07Z</time>
      </trkpt>
      <trkpt lat="48.64775" lon="1.86984">
        <ele>167</ele>
        <time>2013-08-18T10:06:09Z</time>
      </trkpt>
      <trkpt lat="48.64776" lon="1.8698">
        <ele>167</ele>
        <time>2013-08-18T10:06:11Z</time>
      </trkpt>
      <trkpt lat="48.64779" lon="1.86975">
        <ele>167</ele>
        <time>2013-08-18T10:06:14Z</time>
      </trkpt>
      <trkpt lat="48.6478" lon="1.86972">
        <ele>167</ele>
        <time>2013-08-18T10:06:16Z</time>
      </trkpt>
      <trkpt lat="48.64781" lon="1.86969">
        <ele>167</ele>
        <time>2013-08-18T10:06:18Z</time>
      </trkpt>
      <trkpt lat="48.64783" lon="1.86965">
        <ele>167</ele>
        <time>2013-08-18T10:06:20Z</time>
      </trkpt>
      <trkpt lat="48.64784" lon="1.86962">
        <ele>166</ele>
        <time>2013-08-18T10:06:22Z</time>
      </trkpt>
      <trkpt lat="48.64786" lon="1.86958">
        <ele>165</ele>
        <time>2013-08-18T10:06:25Z</time>
      </trkpt>
      <trkpt lat="48.64787" lon="1.86954">
        <ele>165</ele>
        <time>2013-08-18T10:06:27Z</time>
      </trkpt>
      <trkpt lat="48.64788" lon="1.8695">
        <ele>164</ele>
        <time>2013-08-18T10:06:29Z</time>
      </trkpt>
      <trkpt lat="48.64789" lon="1.86947">
        <ele>164</ele>
        <time>2013-08-18T10:06:31Z</time>
      </trkpt>
      <trkpt lat="48.6479" lon="1.86943">
        <ele>164</ele>
        <time>2013-08-18T10:06:33Z</time>
      </trkpt>
      <trkpt lat="48.6479" lon="1.8694">
        <ele>163</ele>
        <time>2013-08-18T10:06:35Z</time>
      </trkpt>
      <trkpt lat="48.6479" lon="1.86936">
        <ele>163</ele>
        <time>2013-08-18T10:06:37Z</time>
      </trkpt>
      <trkpt lat="48.6479" lon="1.86932">
        <ele>163</ele>
        <time>2013-08-18T10:06:39Z</time>
      </trkpt>
      <trkpt lat="48.6479" lon="1.86927">
        <ele>162</ele>
        <time>2013-08-18T10:06:41Z</time>
      </trkpt>
      <trkpt lat="48.6479" lon="1.86923">
        <ele>162</ele>
        <time>2013-08-18T10:06:43Z</time>
      </trkpt>
      <trkpt lat="48.6479" lon="1.86919">
        <ele>161</ele>
        <time>2013-08-18T10:06:45Z</time>
      </trkpt>
      <trkpt lat="48.6479" lon="1.86915">
        <ele>161</ele>
        <time>2013-08-18T10:06:47Z</time>
      </trkpt>
      <trkpt lat="48.64789" lon="1.8691">
        <ele>160</ele>
        <time>2013-08-18T10:06:49Z</time>
      </trkpt>
      <trkpt lat="48.64789" lon="1.86906">
        <ele>160</ele>
        <time>2013-08-18T10:06:51Z</time>
      </trkpt>
      <trkpt lat="48.64789" lon="1.86901">
        <ele>159</ele>
        <time>2013-08-18T10:06:53Z</time>
      </trkpt>
      <trkpt lat="48.64789" lon="1.86897">
        <ele>158</ele>
        <time>2013-08-18T10:06:55Z</time>
      </trkpt>
      <trkpt lat="48.6479" lon="1.86892">
        <ele>157</ele>
        <time>2013-08-18T10:06:57Z</time>
      </trkpt>
      <trkpt lat="48.64789" lon="1.86887">
        <ele>155</ele>
        <time>2013-08-18T10:06:59Z</time>
      </trkpt>
      <trkpt lat="48.64788" lon="1.86883">
        <ele>155</ele>
        <time>2013-08-18T10:07:01Z</time>
      </trkpt>
      <trkpt lat="48.64788" lon="1.8688">
        <ele>154</ele>
        <time>2013-08-18T10:07:03Z</time>
      </trkpt>
      <trkpt lat="48.64788" lon="1.86876">
        <ele>154</ele>
        <time>2013-08-18T10:07:05Z</time>
      </trkpt>
      <trkpt lat="48.64788" lon="1.86873">
        <ele>153</ele>
        <time>2013-08-18T10:07:07Z</time>
      </trkpt>
      <trkpt lat="48.64788" lon="1.86869">
        <ele>153</ele>
        <time>2013-08-18T10:07:09Z</time>
      </trkpt>
      <trkpt lat="48.64785" lon="1.86866">
        <ele>153</ele>
        <time>2013-08-18T10:07:11Z</time>
      </trkpt>
      <trkpt lat="48.64783" lon="1.86864">
        <ele>153</ele>
        <time>2013-08-18T10:07:13Z</time>
      </trkpt>
      <trkpt lat="48.6478" lon="1.86863">
        <ele>153</ele>
        <time>2013-08-18T10:07:15Z</time>
      </trkpt>
      <trkpt lat="48.64778" lon="1.86861">
        <ele>153</ele>
        <time>2013-08-18T10:07:17Z</time>
      </trkpt>
      <trkpt lat="48.64776" lon="1.86859">
        <ele>153</ele>
        <time>2013-08-18T10:07:19Z</time>
      </trkpt>
      <trkpt lat="48.64774" lon="1.86857">
        <ele>153</ele>
        <time>2013-08-18T10:07:21Z</time>
      </trkpt>
      <trkpt lat="48.64771" lon="1.86854">
        <ele>153</ele>
        <time>2013-08-18T10:07:24Z</time>
      </trkpt>
      <trkpt lat="48.64768" lon="1.86852">
        <ele>152</ele>
        <time>2013-08-18T10:07:26Z</time>
      </trkpt>
      <trkpt lat="48.64766" lon="1.8685">
        <ele>151</ele>
        <time>2013-08-18T10:07:28Z</time>
      </trkpt>
      <trkpt lat="48.64763" lon="1.86847">
        <ele>150</ele>
        <time>2013-08-18T10:07:31Z</time>
      </trkpt>
      <trkpt lat="48.6476" lon="1.86844">
        <ele>150</ele>
        <time>2013-08-18T10:07:33Z</time>
      </trkpt>
      <trkpt lat="48.64758" lon="1.8684">
        <ele>150</ele>
        <time>2013-08-18T10:07:35Z</time>
      </trkpt>
      <trkpt lat="48.64755" lon="1.86839">
        <ele>150</ele>
        <time>2013-08-18T10:07:37Z</time>
      </trkpt>
      <trkpt lat="48.6475" lon="1.86838">
        <ele>150</ele>
        <time>2013-08-18T10:07:39Z</time>
      </trkpt>
      <trkpt lat="48.64747" lon="1.86835">
        <ele>151</ele>
        <time>2013-08-18T10:07:41Z</time>
      </trkpt>
      <trkpt lat="48.64745" lon="1.86831">
        <ele>153</ele>
        <time>2013-08-18T10:07:43Z</time>
      </trkpt>
      <trkpt lat="48.64743" lon="1.86828">
        <ele>153</ele>
        <time>2013-08-18T10:07:45Z</time>
      </trkpt>
      <trkpt lat="48.6474" lon="1.86825">
        <ele>153</ele>
        <time>2013-08-18T10:07:47Z</time>
      </trkpt>
      <trkpt lat="48.64737" lon="1.86821">
        <ele>153</ele>
        <time>2013-08-18T10:07:49Z</time>
      </trkpt>
      <trkpt lat="48.64735" lon="1.86818">
        <ele>153</ele>
        <time>2013-08-18T10:07:51Z</time>
      </trkpt>
      <trkpt lat="48.64732" lon="1.86816">
        <ele>153</ele>
        <time>2013-08-18T10:07:53Z</time>
      </trkpt>
      <trkpt lat="48.64729" lon="1.86816">
        <ele>153</ele>
        <time>2013-08-18T10:07:55Z</time>
      </trkpt>
      <trkpt lat="48.64726" lon="1.86815">
        <ele>154</ele>
        <time>2013-08-18T10:07:57Z</time>
      </trkpt>
      <trkpt lat="48.64723" lon="1.86812">
        <ele>156</ele>
        <time>2013-08-18T10:07:59Z</time>
      </trkpt>
      <trkpt lat="48.64721" lon="1.8681">
        <ele>158</ele>
        <time>2013-08-18T10:08:01Z</time>
      </trkpt>
      <trkpt lat="48.64718" lon="1.86805">
        <ele>158</ele>
        <time>2013-08-18T10:08:03Z</time>
      </trkpt>
      <trkpt lat="48.64713" lon="1.86799">
        <ele>158</ele>
        <time>2013-08-18T10:08:05Z</time>
      </trkpt>
      <trkpt lat="48.64705" lon="1.86795">
        <ele>158</ele>
        <time>2013-08-18T10:08:07Z</time>
      </trkpt>
      <trkpt lat="48.64698" lon="1.86789">
        <ele>158</ele>
        <time>2013-08-18T10:08:09Z</time>
      </trkpt>
      <trkpt lat="48.6469" lon="1.86784">
        <ele>158</ele>
        <time>2013-08-18T10:08:11Z</time>
      </trkpt>
      <trkpt lat="48.64685" lon="1.86775">
        <ele>158</ele>
        <time>2013-08-18T10:08:13Z</time>
      </trkpt>
      <trkpt lat="48.6468" lon="1.86766">
        <ele>158</ele>
        <time>2013-08-18T10:08:15Z</time>
      </trkpt>
      <trkpt lat="48.64675" lon="1.86756">
        <ele>158</ele>
        <time>2013-08-18T10:08:17Z</time>
      </trkpt>
      <trkpt lat="48.6467" lon="1.86749">
        <ele>158</ele>
        <time>2013-08-18T10:08:19Z</time>
      </trkpt>
      <trkpt lat="48.64664" lon="1.86743">
        <ele>156</ele>
        <time>2013-08-18T10:08:21Z</time>
      </trkpt>
      <trkpt lat="48.64659" lon="1.86737">
        <ele>154</ele>
        <time>2013-08-18T10:08:23Z</time>
      </trkpt>
      <trkpt lat="48.64654" lon="1.86731">
        <ele>152</ele>
        <time>2013-08-18T10:08:25Z</time>
      </trkpt>
      <trkpt lat="48.6465" lon="1.86725">
        <ele>150</ele>
        <time>2013-08-18T10:08:27Z</time>
      </trkpt>
      <trkpt lat="48.64643" lon="1.86717">
        <ele>148</ele>
        <time>2013-08-18T10:08:29Z</time>
      </trkpt>
      <trkpt lat="48.64638" lon="1.86709">
        <ele>146</ele>
        <time>2013-08-18T10:08:31Z</time>
      </trkpt>
      <trkpt lat="48.64631" lon="1.86702">
        <ele>144</ele>
        <time>2013-08-18T10:08:33Z</time>
      </trkpt>
      <trkpt lat="48.64627" lon="1.86693">
        <ele>142</ele>
        <time>2013-08-18T10:08:35Z</time>
      </trkpt>
      <trkpt lat="48.64621" lon="1.86685">
        <ele>142</ele>
        <time>2013-08-18T10:08:37Z</time>
      </trkpt>
      <trkpt lat="48.64616" lon="1.86673">
        <ele>142</ele>
        <time>2013-08-18T10:08:39Z</time>
      </trkpt>
      <trkpt lat="48.6461" lon="1.86662">
        <ele>142</ele>
        <time>2013-08-18T10:08:41Z</time>
      </trkpt>
      <trkpt lat="48.64605" lon="1.86649">
        <ele>142</ele>
        <time>2013-08-18T10:08:43Z</time>
      </trkpt>
      <trkpt lat="48.64601" lon="1.86637">
        <ele>142</ele>
        <time>2013-08-18T10:08:45Z</time>
      </trkpt>
      <trkpt lat="48.64595" lon="1.86626">
        <ele>143</ele>
        <time>2013-08-18T10:08:47Z</time>
      </trkpt>
      <trkpt lat="48.64587" lon="1.86613">
        <ele>144</ele>
        <time>2013-08-18T10:08:49Z</time>
      </trkpt>
      <trkpt lat="48.64582" lon="1.86602">
        <ele>144</ele>
        <time>2013-08-18T10:08:51Z</time>
      </trkpt>
      <trkpt lat="48.64574" lon="1.86592">
        <ele>144</ele>
        <time>2013-08-18T10:08:53Z</time>
      </trkpt>
      <trkpt lat="48.64568" lon="1.8658">
        <ele>144</ele>
        <time>2013-08-18T10:08:55Z</time>
      </trkpt>
      <trkpt lat="48.64558" lon="1.8657">
        <ele>146</ele>
        <time>2013-08-18T10:08:57Z</time>
      </trkpt>
      <trkpt lat="48.6455" lon="1.86564">
        <ele>147</ele>
        <time>2013-08-18T10:08:59Z</time>
      </trkpt>
      <trkpt lat="48.64542" lon="1.86561">
        <ele>149</ele>
        <time>2013-08-18T10:09:01Z</time>
      </trkpt>
      <trkpt lat="48.64534" lon="1.86557">
        <ele>149</ele>
        <time>2013-08-18T10:09:03Z</time>
      </trkpt>
      <trkpt lat="48.6452" lon="1.86556">
        <ele>151</ele>
        <time>2013-08-18T10:09:05Z</time>
      </trkpt>
      <trkpt lat="48.64509" lon="1.86557">
        <ele>153</ele>
        <time>2013-08-18T10:09:07Z</time>
      </trkpt>
      <trkpt lat="48.645" lon="1.86554">
        <ele>154</ele>
        <time>2013-08-18T10:09:09Z</time>
      </trkpt>
      <trkpt lat="48.6449" lon="1.86552">
        <ele>154</ele>
        <time>2013-08-18T10:09:11Z</time>
      </trkpt>
      <trkpt lat="48.64478" lon="1.86553">
        <ele>154</ele>
        <time>2013-08-18T10:09:13Z</time>
      </trkpt>
      <trkpt lat="48.64466" lon="1.86557">
        <ele>155</ele>
        <time>2013-08-18T10:09:15Z</time>
      </trkpt>
      <trkpt lat="48.64456" lon="1.86556">
        <ele>157</ele>
        <time>2013-08-18T10:09:17Z</time>
      </trkpt>
      <trkpt lat="48.64449" lon="1.86556">
        <ele>159</ele>
        <time>2013-08-18T10:09:19Z</time>
      </trkpt>
      <trkpt lat="48.64444" lon="1.86556">
        <ele>161</ele>
        <time>2013-08-18T10:09:21Z</time>
      </trkpt>
      <trkpt lat="48.64444" lon="1.86553">
        <ele>161</ele>
        <time>2013-08-18T10:09:23Z</time>
      </trkpt>
      <trkpt lat="48.64446" lon="1.86552">
        <ele>161</ele>
        <time>2013-08-18T10:09:26Z</time>
      </trkpt>
      <trkpt lat="48.64449" lon="1.86552">
        <ele>160</ele>
        <time>2013-08-18T10:09:28Z</time>
      </trkpt>
      <trkpt lat="48.6445" lon="1.86557">
        <ele>160</ele>
        <time>2013-08-18T10:09:30Z</time>
      </trkpt>
      <trkpt lat="48.6445" lon="1.86564">
        <ele>160</ele>
        <time>2013-08-18T10:09:32Z</time>
      </trkpt>
      <trkpt lat="48.64449" lon="1.86569">
        <ele>160</ele>
        <time>2013-08-18T10:09:34Z</time>
      </trkpt>
      <trkpt lat="48.6445" lon="1.86577">
        <ele>160</ele>
        <time>2013-08-18T10:09:36Z</time>
      </trkpt>
      <trkpt lat="48.6445" lon="1.86582">
        <ele>160</ele>
        <time>2013-08-18T10:09:38Z</time>
      </trkpt>
      <trkpt lat="48.64449" lon="1.86587">
        <ele>160</ele>
        <time>2013-08-18T10:09:40Z</time>
      </trkpt>
      <trkpt lat="48.64446" lon="1.86595">
        <ele>160</ele>
        <time>2013-08-18T10:09:42Z</time>
      </trkpt>
      <trkpt lat="48.64442" lon="1.86604">
        <ele>160</ele>
        <time>2013-08-18T10:09:44Z</time>
      </trkpt>
      <trkpt lat="48.64439" lon="1.86614">
        <ele>160</ele>
        <time>2013-08-18T10:09:46Z</time>
      </trkpt>
      <trkpt lat="48.64434" lon="1.86626">
        <ele>160</ele>
        <time>2013-08-18T10:09:48Z</time>
      </trkpt>
      <trkpt lat="48.6443" lon="1.86641">
        <ele>161</ele>
        <time>2013-08-18T10:09:50Z</time>
      </trkpt>
      <trkpt lat="48.64425" lon="1.86656">
        <ele>163</ele>
        <time>2013-08-18T10:09:52Z</time>
      </trkpt>
      <trkpt lat="48.64419" lon="1.86669">
        <ele>165</ele>
        <time>2013-08-18T10:09:54Z</time>
      </trkpt>
      <trkpt lat="48.64414" lon="1.86682">
        <ele>166</ele>
        <time>2013-08-18T10:09:56Z</time>
      </trkpt>
      <trkpt lat="48.64407" lon="1.86693">
        <ele>167</ele>
        <time>2013-08-18T10:09:58Z</time>
      </trkpt>
      <trkpt lat="48.64403" lon="1.86704">
        <ele>168</ele>
        <time>2013-08-18T10:10:00Z</time>
      </trkpt>
      <trkpt lat="48.644" lon="1.86714">
        <ele>168</ele>
        <time>2013-08-18T10:10:02Z</time>
      </trkpt>
      <trkpt lat="48.64397" lon="1.86721">
        <ele>168</ele>
        <time>2013-08-18T10:10:04Z</time>
      </trkpt>
      <trkpt lat="48.64395" lon="1.86725">
        <ele>169</ele>
        <time>2013-08-18T10:10:06Z</time>
      </trkpt>
      <trkpt lat="48.64392" lon="1.8673">
        <ele>169</ele>
        <time>2013-08-18T10:10:09Z</time>
      </trkpt>
      <trkpt lat="48.64391" lon="1.86734">
        <ele>169</ele>
        <time>2013-08-18T10:10:11Z</time>
      </trkpt>
      <trkpt lat="48.64389" lon="1.8674">
        <ele>169</ele>
        <time>2013-08-18T10:10:14Z</time>
      </trkpt>
      <trkpt lat="48.64387" lon="1.86744">
        <ele>169</ele>
        <time>2013-08-18T10:10:16Z</time>
      </trkpt>
      <trkpt lat="48.64386" lon="1.86747">
        <ele>169</ele>
        <time>2013-08-18T10:10:18Z</time>
      </trkpt>
      <trkpt lat="48.64385" lon="1.86752">
        <ele>169</ele>
        <time>2013-08-18T10:10:20Z</time>
      </trkpt>
      <trkpt lat="48.64383" lon="1.86756">
        <ele>169</ele>
        <time>2013-08-18T10:10:22Z</time>
      </trkpt>
      <trkpt lat="48.64381" lon="1.86759">
        <ele>169</ele>
        <time>2013-08-18T10:10:24Z</time>
      </trkpt>
      <trkpt lat="48.64379" lon="1.86763">
        <ele>169</ele>
        <time>2013-08-18T10:10:26Z</time>
      </trkpt>
      <trkpt lat="48.64376" lon="1.86768">
        <ele>169</ele>
        <time>2013-08-18T10:10:29Z</time>
      </trkpt>
      <trkpt lat="48.64375" lon="1.86772">
        <ele>169</ele>
        <time>2013-08-18T10:10:31Z</time>
      </trkpt>
      <trkpt lat="48.64374" lon="1.86776">
        <ele>169</ele>
        <time>2013-08-18T10:10:33Z</time>
      </trkpt>
      <trkpt lat="48.64373" lon="1.86778">
        <ele>169</ele>
        <time>2013-08-18T10:10:35Z</time>
      </trkpt>
      <trkpt lat="48.64371" lon="1.86779">
        <ele>169</ele>
        <time>2013-08-18T10:10:37Z</time>
      </trkpt>
      <trkpt lat="48.64369" lon="1.86783">
        <ele>169</ele>
        <time>2013-08-18T10:10:39Z</time>
      </trkpt>
      <trkpt lat="48.64368" lon="1.86786">
        <ele>169</ele>
        <time>2013-08-18T10:10:41Z</time>
      </trkpt>
      <trkpt lat="48.64365" lon="1.8679">
        <ele>169</ele>
        <time>2013-08-18T10:10:43Z</time>
      </trkpt>
      <trkpt lat="48.64363" lon="1.86794">
        <ele>169</ele>
        <time>2013-08-18T10:10:45Z</time>
      </trkpt>
      <trkpt lat="48.64361" lon="1.86797">
        <ele>169</ele>
        <time>2013-08-18T10:10:47Z</time>
      </trkpt>
      <trkpt lat="48.6436" lon="1.86802">
        <ele>169</ele>
        <time>2013-08-18T10:10:49Z</time>
      </trkpt>
      <trkpt lat="48.64359" lon="1.86806">
        <ele>169</ele>
        <time>2013-08-18T10:10:51Z</time>
      </trkpt>
      <trkpt lat="48.64357" lon="1.8681">
        <ele>169</ele>
        <time>2013-08-18T10:10:53Z</time>
      </trkpt>
      <trkpt lat="48.64355" lon="1.86814">
        <ele>169</ele>
        <time>2013-08-18T10:10:55Z</time>
      </trkpt>
      <trkpt lat="48.64353" lon="1.86818">
        <ele>169</ele>
        <time>2013-08-18T10:10:57Z</time>
      </trkpt>
      <trkpt lat="48.64352" lon="1.86822">
        <ele>169</ele>
        <time>2013-08-18T10:10:59Z</time>
      </trkpt>
      <trkpt lat="48.6435" lon="1.86826">
        <ele>169</ele>
        <time>2013-08-18T10:11:01Z</time>
      </trkpt>
      <trkpt lat="48.64348" lon="1.8683">
        <ele>169</ele>
        <time>2013-08-18T10:11:03Z</time>
      </trkpt>
      <trkpt lat="48.64346" lon="1.86834">
        <ele>169</ele>
        <time>2013-08-18T10:11:05Z</time>
      </trkpt>
      <trkpt lat="48.64344" lon="1.86837">
        <ele>169</ele>
        <time>2013-08-18T10:11:07Z</time>
      </trkpt>
      <trkpt lat="48.64342" lon="1.86841">
        <ele>169</ele>
        <time>2013-08-18T10:11:09Z</time>
      </trkpt>
      <trkpt lat="48.64341" lon="1.86844">
        <ele>169</ele>
        <time>2013-08-18T10:11:11Z</time>
      </trkpt>
      <trkpt lat="48.64339" lon="1.86848">
        <ele>169</ele>
        <time>2013-08-18T10:11:13Z</time>
      </trkpt>
      <trkpt lat="48.64338" lon="1.86852">
        <ele>169</ele>
        <time>2013-08-18T10:11:15Z</time>
      </trkpt>
      <trkpt lat="48.64336" lon="1.86855">
        <ele>169</ele>
        <time>2013-08-18T10:11:17Z</time>
      </trkpt>
      <trkpt lat="48.64334" lon="1.86859">
        <ele>169</ele>
        <time>2013-08-18T10:11:19Z</time>
      </trkpt>
      <trkpt lat="48.64331" lon="1.86863">
        <ele>169</ele>
        <time>2013-08-18T10:11:22Z</time>
      </trkpt>
      <trkpt lat="48.64329" lon="1.86868">
        <ele>169</ele>
        <time>2013-08-18T10:11:25Z</time>
      </trkpt>
      <trkpt lat="48.64328" lon="1.86871">
        <ele>169</ele>
        <time>2013-08-18T10:11:27Z</time>
      </trkpt>
      <trkpt lat="48.64327" lon="1.86874">
        <ele>169</ele>
        <time>2013-08-18T10:11:29Z</time>
      </trkpt>
      <trkpt lat="48.64327" lon="1.86877">
        <ele>169</ele>
        <time>2013-08-18T10:11:31Z</time>
      </trkpt>
      <trkpt lat="48.64326" lon="1.8688">
        <ele>169</ele>
        <time>2013-08-18T10:11:33Z</time>
      </trkpt>
      <trkpt lat="48.64326" lon="1.86883">
        <ele>169</ele>
        <time>2013-08-18T10:11:35Z</time>
      </trkpt>
      <trkpt lat="48.64326" lon="1.86886">
        <ele>169</ele>
        <time>2013-08-18T10:11:38Z</time>
      </trkpt>
      <trkpt lat="48.64326" lon="1.86888">
        <ele>169</ele>
        <time>2013-08-18T10:11:40Z</time>
      </trkpt>
      <trkpt lat="48.64326" lon="1.8689">
        <ele>169</ele>
        <time>2013-08-18T10:11:42Z</time>
      </trkpt>
      <trkpt lat="48.64326" lon="1.86892">
        <ele>169</ele>
        <time>2013-08-18T10:11:44Z</time>
      </trkpt>
      <trkpt lat="48.64325" lon="1.86894">
        <ele>169</ele>
        <time>2013-08-18T10:11:56Z</time>
      </trkpt>
      <trkpt lat="48.64326" lon="1.86896">
        <ele>169</ele>
        <time>2013-08-18T10:11:59Z</time>
      </trkpt>
      <trkpt lat="48.64325" lon="1.86897">
        <ele>169</ele>
        <time>2013-08-18T10:12:04Z</time>
      </trkpt>
      <trkpt lat="48.64325" lon="1.86899">
        <ele>169</ele>
        <time>2013-08-18T10:12:12Z</time>
      </trkpt>
      <trkpt lat="48.64326" lon="1.86899">
        <ele>169</ele>
        <time>2013-08-18T10:12:24Z</time>
      </trkpt>
      <trkpt lat="48.64328" lon="1.869">
        <ele>168</ele>
        <time>2013-08-18T10:12:42Z</time>
      </trkpt>
      <trkpt lat="48.64329" lon="1.869">
        <ele>167</ele>
        <time>2013-08-18T10:12:50Z</time>
      </trkpt>
      <trkpt lat="48.64328" lon="1.86898">
        <ele>166</ele>
        <time>2013-08-18T10:12:57Z</time>
      </trkpt>
      <trkpt lat="48.64329" lon="1.86896">
        <ele>166</ele>
        <time>2013-08-18T10:12:59Z</time>
      </trkpt>
      <trkpt lat="48.64331" lon="1.86895">
        <ele>165</ele>
        <time>2013-08-18T10:13:01Z</time>
      </trkpt>
      <trkpt lat="48.64332" lon="1.86894">
        <ele>165</ele>
        <time>2013-08-18T10:13:03Z</time>
      </trkpt>
      <trkpt lat="48.64333" lon="1.86894">
        <ele>165</ele>
        <time>2013-08-18T10:13:05Z</time>
      </trkpt>
      <trkpt lat="48.64334" lon="1.86892">
        <ele>163</ele>
        <time>2013-08-18T10:13:09Z</time>
      </trkpt>
      <trkpt lat="48.64333" lon="1.86894">
        <ele>162</ele>
        <time>2013-08-18T10:13:13Z</time>
      </trkpt>
      <trkpt lat="48.64333" lon="1.86896">
        <ele>162</ele>
        <time>2013-08-18T10:13:15Z</time>
      </trkpt>
      <trkpt lat="48.64332" lon="1.86899">
        <ele>162</ele>
        <time>2013-08-18T10:13:17Z</time>
      </trkpt>
      <trkpt lat="48.64331" lon="1.86901">
        <ele>162</ele>
        <time>2013-08-18T10:13:19Z</time>
      </trkpt>
      <trkpt lat="48.64331" lon="1.86904">
        <ele>162</ele>
        <time>2013-08-18T10:13:21Z</time>
      </trkpt>
      <trkpt lat="48.6433" lon="1.86906">
        <ele>162</ele>
        <time>2013-08-18T10:13:23Z</time>
      </trkpt>
      <trkpt lat="48.64328" lon="1.86907">
        <ele>162</ele>
        <time>2013-08-18T10:13:25Z</time>
      </trkpt>
      <trkpt lat="48.64326" lon="1.86908">
        <ele>162</ele>
        <time>2013-08-18T10:13:27Z</time>
      </trkpt>
      <trkpt lat="48.64325" lon="1.86909">
        <ele>162</ele>
        <time>2013-08-18T10:13:29Z</time>
      </trkpt>
      <trkpt lat="48.64324" lon="1.86911">
        <ele>162</ele>
        <time>2013-08-18T10:13:31Z</time>
      </trkpt>
      <trkpt lat="48.64323" lon="1.86913">
        <ele>162</ele>
        <time>2013-08-18T10:13:35Z</time>
      </trkpt>
      <trkpt lat="48.64324" lon="1.86915">
        <ele>162</ele>
        <time>2013-08-18T10:13:37Z</time>
      </trkpt>
      <trkpt lat="48.64325" lon="1.86916">
        <ele>162</ele>
        <time>2013-08-18T10:13:43Z</time>
      </trkpt>
      <trkpt lat="48.64325" lon="1.86918">
        <ele>162</ele>
        <time>2013-08-18T10:13:50Z</time>
      </trkpt>
      <trkpt lat="48.64324" lon="1.8692">
        <ele>162</ele>
        <time>2013-08-18T10:13:52Z</time>
      </trkpt>
      <trkpt lat="48.64323" lon="1.86922">
        <ele>163</ele>
        <time>2013-08-18T10:13:55Z</time>
      </trkpt>
      <trkpt lat="48.64324" lon="1.86921">
        <ele>165</ele>
        <time>2013-08-18T10:14:00Z</time>
      </trkpt>
      <trkpt lat="48.64325" lon="1.86921">
        <ele>166</ele>
        <time>2013-08-18T10:14:09Z</time>
      </trkpt>
      <trkpt lat="48.64325" lon="1.86923">
        <ele>166</ele>
        <time>2013-08-18T10:14:11Z</time>
      </trkpt>
      <trkpt lat="48.64324" lon="1.86923">
        <ele>167</ele>
        <time>2013-08-18T10:14:15Z</time>
      </trkpt>
      <trkpt lat="48.64322" lon="1.86919">
        <ele>168</ele>
        <time>2013-08-18T10:14:24Z</time>
      </trkpt>
      <trkpt lat="48.64322" lon="1.8692">
        <ele>168</ele>
        <time>2013-08-18T10:14:26Z</time>
      </trkpt>
      <trkpt lat="48.64322" lon="1.86923">
        <ele>168</ele>
        <time>2013-08-18T10:14:31Z</time>
      </trkpt>
      <trkpt lat="48.64323" lon="1.86925">
        <ele>168</ele>
        <time>2013-08-18T10:14:33Z</time>
      </trkpt>
      <trkpt lat="48.64324" lon="1.86926">
        <ele>168</ele>
        <time>2013-08-18T10:14:35Z</time>
      </trkpt>
      <trkpt lat="48.64325" lon="1.86924">
        <ele>168</ele>
        <time>2013-08-18T10:14:38Z</time>
      </trkpt>
      <trkpt lat="48.64326" lon="1.86923">
        <ele>168</ele>
        <time>2013-08-18T10:14:40Z</time>
      </trkpt>
      <trkpt lat="48.64326" lon="1.8692">
        <ele>168</ele>
        <time>2013-08-18T10:14:42Z</time>
      </trkpt>
      <trkpt lat="48.64327" lon="1.86919">
        <ele>168</ele>
        <time>2013-08-18T10:14:45Z</time>
      </trkpt>
      <trkpt lat="48.64328" lon="1.86918">
        <ele>168</ele>
        <time>2013-08-18T10:14:49Z</time>
      </trkpt>
      <trkpt lat="48.64329" lon="1.86917">
        <ele>169</ele>
        <time>2013-08-18T10:15:00Z</time>
      </trkpt>
      <trkpt lat="48.64328" lon="1.86917">
        <ele>169</ele>
        <time>2013-08-18T10:15:03Z</time>
      </trkpt>
      <trkpt lat="48.64327" lon="1.86916">
        <ele>169</ele>
        <time>2013-08-18T10:15:17Z</time>
      </trkpt>
      <trkpt lat="48.64328" lon="1.86915">
        <ele>167</ele>
        <time>2013-08-18T10:15:24Z</time>
      </trkpt>
      <trkpt lat="48.6433" lon="1.86916">
        <ele>164</ele>
        <time>2013-08-18T10:15:49Z</time>
      </trkpt>
      <trkpt lat="48.64329" lon="1.86914">
        <ele>164</ele>
        <time>2013-08-18T10:15:57Z</time>
      </trkpt>
      <trkpt lat="48.6433" lon="1.86912">
        <ele>164</ele>
        <time>2013-08-18T10:16:03Z</time>
      </trkpt>
      <trkpt lat="48.6433" lon="1.8691">
        <ele>164</ele>
        <time>2013-08-18T10:16:05Z</time>
      </trkpt>
      <trkpt lat="48.6433" lon="1.86908">
        <ele>164</ele>
        <time>2013-08-18T10:16:07Z</time>
      </trkpt>
      <trkpt lat="48.6433" lon="1.86906">
        <ele>164</ele>
        <time>2013-08-18T10:16:09Z</time>
      </trkpt>
      <trkpt lat="48.6433" lon="1.86904">
        <ele>164</ele>
        <time>2013-08-18T10:16:11Z</time>
      </trkpt>
      <trkpt lat="48.64332" lon="1.869">
        <ele>164</ele>
        <time>2013-08-18T10:16:14Z</time>
      </trkpt>
      <trkpt lat="48.64333" lon="1.86898">
        <ele>164</ele>
        <time>2013-08-18T10:16:16Z</time>
      </trkpt>
      <trkpt lat="48.64334" lon="1.86896">
        <ele>164</ele>
        <time>2013-08-18T10:16:18Z</time>
      </trkpt>
      <trkpt lat="48.64333" lon="1.86898">
        <ele>165</ele>
        <time>2013-08-18T10:16:30Z</time>
      </trkpt>
      <trkpt lat="48.64332" lon="1.86901">
        <ele>166</ele>
        <time>2013-08-18T10:16:54Z</time>
      </trkpt>
      <trkpt lat="48.64332" lon="1.86903">
        <ele>166</ele>
        <time>2013-08-18T10:16:56Z</time>
      </trkpt>
      <trkpt lat="48.64331" lon="1.86904">
        <ele>165</ele>
        <time>2013-08-18T10:17:02Z</time>
      </trkpt>
      <trkpt lat="48.6433" lon="1.86906">
        <ele>165</ele>
        <time>2013-08-18T10:17:08Z</time>
      </trkpt>
      <trkpt lat="48.64329" lon="1.86907">
        <ele>165</ele>
        <time>2013-08-18T10:17:13Z</time>
      </trkpt>
      <trkpt lat="48.64328" lon="1.86907">
        <ele>165</ele>
        <time>2013-08-18T10:17:15Z</time>
      </trkpt>
      <trkpt lat="48.64327" lon="1.86909">
        <ele>165</ele>
        <time>2013-08-18T10:17:18Z</time>
      </trkpt>
      <trkpt lat="48.64327" lon="1.86912">
        <ele>165</ele>
        <time>2013-08-18T10:17:20Z</time>
      </trkpt>
      <trkpt lat="48.64328" lon="1.86914">
        <ele>165</ele>
        <time>2013-08-18T10:17:22Z</time>
      </trkpt>
      <trkpt lat="48.64326" lon="1.86915">
        <ele>165</ele>
        <time>2013-08-18T10:17:25Z</time>
      </trkpt>
      <trkpt lat="48.59928" lon="1.96505">
        <ele>141</ele>
        <time>2013-08-18T10:17:33Z</time>
      </trkpt>
      <trkpt lat="48.59925" lon="1.96509">
        <ele>141</ele>
        <time>2013-08-18T10:17:35Z</time>
      </trkpt>
      <trkpt lat="48.59923" lon="1.96515">
        <ele>141</ele>
        <time>2013-08-18T10:17:37Z</time>
      </trkpt>
      <trkpt lat="48.5992" lon="1.96519">
        <ele>140</ele>
        <time>2013-08-18T10:17:39Z</time>
      </trkpt>
      <trkpt lat="48.59917" lon="1.96523">
        <ele>140</ele>
        <time>2013-08-18T10:17:41Z</time>
      </trkpt>
      <trkpt lat="48.59916" lon="1.96527">
        <ele>140</ele>
        <time>2013-08-18T10:17:43Z</time>
      </trkpt>
      <trkpt lat="48.59914" lon="1.9653">
        <ele>140</ele>
        <time>2013-08-18T10:17:45Z</time>
      </trkpt>
      <trkpt lat="48.59912" lon="1.96535">
        <ele>140</ele>
        <time>2013-08-18T10:17:48Z</time>
      </trkpt>
      <trkpt lat="48.5991" lon="1.96538">
        <ele>140</ele>
        <time>2013-08-18T10:17:50Z</time>
      </trkpt>
      <trkpt lat="48.59909" lon="1.96542">
        <ele>140</ele>
        <time>2013-08-18T10:17:52Z</time>
      </trkpt>
      <trkpt lat="48.59907" lon="1.96546">
        <ele>140</ele>
        <time>2013-08-18T10:17:54Z</time>
      </trkpt>
      <trkpt lat="48.59906" lon="1.96549">
        <ele>140</ele>
        <time>2013-08-18T10:17:56Z</time>
      </trkpt>
      <trkpt lat="48.59904" lon="1.96553">
        <ele>140</ele>
        <time>2013-08-18T10:17:58Z</time>
      </trkpt>
      <trkpt lat="48.59903" lon="1.96556">
        <ele>140</ele>
        <time>2013-08-18T10:18:00Z</time>
      </trkpt>
      <trkpt lat="48.59901" lon="1.9656">
        <ele>140</ele>
        <time>2013-08-18T10:18:02Z</time>
      </trkpt>
      <trkpt lat="48.59899" lon="1.96565">
        <ele>140</ele>
        <time>2013-08-18T10:18:05Z</time>
      </trkpt>
      <trkpt lat="48.59897" lon="1.96571">
        <ele>140</ele>
        <time>2013-08-18T10:18:07Z</time>
      </trkpt>
      <trkpt lat="48.59894" lon="1.96577">
        <ele>140</ele>
        <time>2013-08-18T10:18:10Z</time>
      </trkpt>
      <trkpt lat="48.59893" lon="1.9658">
        <ele>140</ele>
        <time>2013-08-18T10:18:12Z</time>
      </trkpt>
      <trkpt lat="48.59891" lon="1.96584">
        <ele>140</ele>
        <time>2013-08-18T10:18:14Z</time>
      </trkpt>
      <trkpt lat="48.59889" lon="1.9659">
        <ele>140</ele>
        <time>2013-08-18T10:18:16Z</time>
      </trkpt>
      <trkpt lat="48.59888" lon="1.96594">
        <ele>140</ele>
        <time>2013-08-18T10:18:18Z</time>
      </trkpt>
      <trkpt lat="48.59887" lon="1.96596">
        <ele>140</ele>
        <time>2013-08-18T10:18:20Z</time>
      </trkpt>
      <trkpt lat="48.59885" lon="1.96602">
        <ele>140</ele>
        <time>2013-08-18T10:18:23Z</time>
      </trkpt>
      <trkpt lat="48.59883" lon="1.96605">
        <ele>140</ele>
        <time>2013-08-18T10:18:25Z</time>
      </trkpt>
      <trkpt lat="48.59882" lon="1.96609">
        <ele>140</ele>
        <time>2013-08-18T10:18:27Z</time>
      </trkpt>
      <trkpt lat="48.5988" lon="1.96614">
        <ele>140</ele>
        <time>2013-08-18T10:18:29Z</time>
      </trkpt>
      <trkpt lat="48.59878" lon="1.96617">
        <ele>140</ele>
        <time>2013-08-18T10:18:31Z</time>
      </trkpt>
      <trkpt lat="48.59875" lon="1.9662">
        <ele>140</ele>
        <time>2013-08-18T10:18:33Z</time>
      </trkpt>
      <trkpt lat="48.59874" lon="1.96624">
        <ele>140</ele>
        <time>2013-08-18T10:18:35Z</time>
      </trkpt>
      <trkpt lat="48.59872" lon="1.96627">
        <ele>140</ele>
        <time>2013-08-18T10:18:37Z</time>
      </trkpt>
      <trkpt lat="48.59871" lon="1.96631">
        <ele>140</ele>
        <time>2013-08-18T10:18:39Z</time>
      </trkpt>
      <trkpt lat="48.59869" lon="1.96635">
        <ele>140</ele>
        <time>2013-08-18T10:18:41Z</time>
      </trkpt>
      <trkpt lat="48.59867" lon="1.96639">
        <ele>140</ele>
        <time>2013-08-18T10:18:43Z</time>
      </trkpt>
      <trkpt lat="48.59865" lon="1.96644">
        <ele>140</ele>
        <time>2013-08-18T10:18:45Z</time>
      </trkpt>
      <trkpt lat="48.59862" lon="1.96648">
        <ele>140</ele>
        <time>2013-08-18T10:18:47Z</time>
      </trkpt>
      <trkpt lat="48.5986" lon="1.96654">
        <ele>140</ele>
        <time>2013-08-18T10:18:49Z</time>
      </trkpt>
      <trkpt lat="48.59857" lon="1.96658">
        <ele>140</ele>
        <time>2013-08-18T10:18:51Z</time>
      </trkpt>
      <trkpt lat="48.59855" lon="1.96661">
        <ele>140</ele>
        <time>2013-08-18T10:18:53Z</time>
      </trkpt>
      <trkpt lat="48.59853" lon="1.96665">
        <ele>140</ele>
        <time>2013-08-18T10:18:55Z</time>
      </trkpt>
      <trkpt lat="48.59852" lon="1.96668">
        <ele>140</ele>
        <time>2013-08-18T10:18:57Z</time>
      </trkpt>
      <trkpt lat="48.5985" lon="1.96672">
        <ele>140</ele>
        <time>2013-08-18T10:18:59Z</time>
      </trkpt>
      <trkpt lat="48.59849" lon="1.96675">
        <ele>140</ele>
        <time>2013-08-18T10:19:01Z</time>
      </trkpt>
      <trkpt lat="48.59846" lon="1.9668">
        <ele>140</ele>
        <time>2013-08-18T10:19:04Z</time>
      </trkpt>
      <trkpt lat="48.59844" lon="1.96684">
        <ele>140</ele>
        <time>2013-08-18T10:19:06Z</time>
      </trkpt>
      <trkpt lat="48.59842" lon="1.96687">
        <ele>140</ele>
        <time>2013-08-18T10:19:08Z</time>
      </trkpt>
      <trkpt lat="48.5984" lon="1.96692">
        <ele>140</ele>
        <time>2013-08-18T10:19:10Z</time>
      </trkpt>
      <trkpt lat="48.59837" lon="1.96697">
        <ele>140</ele>
        <time>2013-08-18T10:19:12Z</time>
      </trkpt>
      <trkpt lat="48.59836" lon="1.96701">
        <ele>140</ele>
        <time>2013-08-18T10:19:14Z</time>
      </trkpt>
      <trkpt lat="48.59834" lon="1.96705">
        <ele>140</ele>
        <time>2013-08-18T10:19:16Z</time>
      </trkpt>
      <trkpt lat="48.59832" lon="1.96708">
        <ele>140</ele>
        <time>2013-08-18T10:19:18Z</time>
      </trkpt>
      <trkpt lat="48.5983" lon="1.96711">
        <ele>140</ele>
        <time>2013-08-18T10:19:20Z</time>
      </trkpt>
      <trkpt lat="48.59828" lon="1.96715">
        <ele>140</ele>
        <time>2013-08-18T10:19:22Z</time>
      </trkpt>
      <trkpt lat="48.59826" lon="1.96719">
        <ele>140</ele>
        <time>2013-08-18T10:19:24Z</time>
      </trkpt>
      <trkpt lat="48.59825" lon="1.96723">
        <ele>140</ele>
        <time>2013-08-18T10:19:26Z</time>
      </trkpt>
      <trkpt lat="48.59823" lon="1.96727">
        <ele>140</ele>
        <time>2013-08-18T10:19:28Z</time>
      </trkpt>
      <trkpt lat="48.59822" lon="1.96731">
        <ele>140</ele>
        <time>2013-08-18T10:19:30Z</time>
      </trkpt>
      <trkpt lat="48.5982" lon="1.96735">
        <ele>140</ele>
        <time>2013-08-18T10:19:32Z</time>
      </trkpt>
      <trkpt lat="48.59818" lon="1.96741">
        <ele>140</ele>
        <time>2013-08-18T10:19:34Z</time>
      </trkpt>
      <trkpt lat="48.59816" lon="1.96745">
        <ele>140</ele>
        <time>2013-08-18T10:19:36Z</time>
      </trkpt>
      <trkpt lat="48.59813" lon="1.96748">
        <ele>140</ele>
        <time>2013-08-18T10:19:38Z</time>
      </trkpt>
      <trkpt lat="48.59811" lon="1.96752">
        <ele>140</ele>
        <time>2013-08-18T10:19:40Z</time>
      </trkpt>
      <trkpt lat="48.59809" lon="1.96756">
        <ele>141</ele>
        <time>2013-08-18T10:19:42Z</time>
      </trkpt>
      <trkpt lat="48.59807" lon="1.9676">
        <ele>141</ele>
        <time>2013-08-18T10:19:44Z</time>
      </trkpt>
      <trkpt lat="48.59805" lon="1.96764">
        <ele>141</ele>
        <time>2013-08-18T10:19:46Z</time>
      </trkpt>
      <trkpt lat="48.59802" lon="1.96768">
        <ele>141</ele>
        <time>2013-08-18T10:19:48Z</time>
      </trkpt>
      <trkpt lat="48.598" lon="1.96772">
        <ele>141</ele>
        <time>2013-08-18T10:19:50Z</time>
      </trkpt>
      <trkpt lat="48.59798" lon="1.96777">
        <ele>142</ele>
        <time>2013-08-18T10:19:52Z</time>
      </trkpt>
      <trkpt lat="48.59796" lon="1.9678">
        <ele>142</ele>
        <time>2013-08-18T10:19:54Z</time>
      </trkpt>
      <trkpt lat="48.59794" lon="1.96784">
        <ele>143</ele>
        <time>2013-08-18T10:19:56Z</time>
      </trkpt>
      <trkpt lat="48.59792" lon="1.96788">
        <ele>143</ele>
        <time>2013-08-18T10:19:58Z</time>
      </trkpt>
      <trkpt lat="48.59791" lon="1.96792">
        <ele>143</ele>
        <time>2013-08-18T10:20:00Z</time>
      </trkpt>
      <trkpt lat="48.59789" lon="1.96796">
        <ele>143</ele>
        <time>2013-08-18T10:20:02Z</time>
      </trkpt>
      <trkpt lat="48.59787" lon="1.96799">
        <ele>143</ele>
        <time>2013-08-18T10:20:04Z</time>
      </trkpt>
      <trkpt lat="48.59784" lon="1.96802">
        <ele>143</ele>
        <time>2013-08-18T10:20:06Z</time>
      </trkpt>
      <trkpt lat="48.59782" lon="1.96806">
        <ele>143</ele>
        <time>2013-08-18T10:20:08Z</time>
      </trkpt>
      <trkpt lat="48.5978" lon="1.96809">
        <ele>144</ele>
        <time>2013-08-18T10:20:10Z</time>
      </trkpt>
      <trkpt lat="48.59777" lon="1.96814">
        <ele>144</ele>
        <time>2013-08-18T10:20:13Z</time>
      </trkpt>
      <trkpt lat="48.59775" lon="1.96817">
        <ele>144</ele>
        <time>2013-08-18T10:20:15Z</time>
      </trkpt>
      <trkpt lat="48.59772" lon="1.9682">
        <ele>144</ele>
        <time>2013-08-18T10:20:18Z</time>
      </trkpt>
      <trkpt lat="48.59769" lon="1.96824">
        <ele>144</ele>
        <time>2013-08-18T10:20:20Z</time>
      </trkpt>
      <trkpt lat="48.59767" lon="1.9683">
        <ele>144</ele>
        <time>2013-08-18T10:20:23Z</time>
      </trkpt>
      <trkpt lat="48.59765" lon="1.96834">
        <ele>144</ele>
        <time>2013-08-18T10:20:25Z</time>
      </trkpt>
      <trkpt lat="48.59764" lon="1.96837">
        <ele>144</ele>
        <time>2013-08-18T10:20:27Z</time>
      </trkpt>
      <trkpt lat="48.59762" lon="1.96842">
        <ele>144</ele>
        <time>2013-08-18T10:20:29Z</time>
      </trkpt>
      <trkpt lat="48.5976" lon="1.96846">
        <ele>144</ele>
        <time>2013-08-18T10:20:31Z</time>
      </trkpt>
      <trkpt lat="48.59758" lon="1.96853">
        <ele>144</ele>
        <time>2013-08-18T10:20:33Z</time>
      </trkpt>
      <trkpt lat="48.59755" lon="1.9686">
        <ele>144</ele>
        <time>2013-08-18T10:20:36Z</time>
      </trkpt>
      <trkpt lat="48.59751" lon="1.96867">
        <ele>144</ele>
        <time>2013-08-18T10:20:39Z</time>
      </trkpt>
      <trkpt lat="48.59748" lon="1.96872">
        <ele>144</ele>
        <time>2013-08-18T10:20:41Z</time>
      </trkpt>
      <trkpt lat="48.59746" lon="1.96878">
        <ele>144</ele>
        <time>2013-08-18T10:20:44Z</time>
      </trkpt>
      <trkpt lat="48.59743" lon="1.96884">
        <ele>144</ele>
        <time>2013-08-18T10:20:46Z</time>
      </trkpt>
      <trkpt lat="48.59739" lon="1.96891">
        <ele>144</ele>
        <time>2013-08-18T10:20:49Z</time>
      </trkpt>
      <trkpt lat="48.59738" lon="1.96895">
        <ele>144</ele>
        <time>2013-08-18T10:20:51Z</time>
      </trkpt>
      <trkpt lat="48.59734" lon="1.96902">
        <ele>145</ele>
        <time>2013-08-18T10:20:54Z</time>
      </trkpt>
      <trkpt lat="48.59731" lon="1.96907">
        <ele>145</ele>
        <time>2013-08-18T10:20:56Z</time>
      </trkpt>
      <trkpt lat="48.59727" lon="1.96915">
        <ele>146</ele>
        <time>2013-08-18T10:20:59Z</time>
      </trkpt>
      <trkpt lat="48.59727" lon="1.9692">
        <ele>147</ele>
        <time>2013-08-18T10:21:02Z</time>
      </trkpt>
      <trkpt lat="48.59723" lon="1.96926">
        <ele>147</ele>
        <time>2013-08-18T10:21:06Z</time>
      </trkpt>
      <trkpt lat="48.5972" lon="1.96927">
        <ele>147</ele>
        <time>2013-08-18T10:21:08Z</time>
      </trkpt>
      <trkpt lat="48.59717" lon="1.9693">
        <ele>147</ele>
        <time>2013-08-18T10:21:11Z</time>
      </trkpt>
      <trkpt lat="48.59713" lon="1.96935">
        <ele>147</ele>
        <time>2013-08-18T10:21:14Z</time>
      </trkpt>
      <trkpt lat="48.59708" lon="1.96944">
        <ele>147</ele>
        <time>2013-08-18T10:21:17Z</time>
      </trkpt>
      <trkpt lat="48.59707" lon="1.96949">
        <ele>147</ele>
        <time>2013-08-18T10:21:19Z</time>
      </trkpt>
      <trkpt lat="48.59703" lon="1.96957">
        <ele>147</ele>
        <time>2013-08-18T10:21:22Z</time>
      </trkpt>
      <trkpt lat="48.59699" lon="1.96963">
        <ele>147</ele>
        <time>2013-08-18T10:21:24Z</time>
      </trkpt>
      <trkpt lat="48.59697" lon="1.96968">
        <ele>147</ele>
        <time>2013-08-18T10:21:26Z</time>
      </trkpt>
      <trkpt lat="48.59695" lon="1.96973">
        <ele>147</ele>
        <time>2013-08-18T10:21:28Z</time>
      </trkpt>
      <trkpt lat="48.59694" lon="1.96977">
        <ele>147</ele>
        <time>2013-08-18T10:21:30Z</time>
      </trkpt>
      <trkpt lat="48.59691" lon="1.96985">
        <ele>147</ele>
        <time>2013-08-18T10:21:33Z</time>
      </trkpt>
      <trkpt lat="48.59689" lon="1.96989">
        <ele>147</ele>
        <time>2013-08-18T10:21:35Z</time>
      </trkpt>
      <trkpt lat="48.59687" lon="1.96995">
        <ele>147</ele>
        <time>2013-08-18T10:21:38Z</time>
      </trkpt>
      <trkpt lat="48.59684" lon="1.97">
        <ele>147</ele>
        <time>2013-08-18T10:21:40Z</time>
      </trkpt>
      <trkpt lat="48.59682" lon="1.97006">
        <ele>147</ele>
        <time>2013-08-18T10:21:43Z</time>
      </trkpt>
      <trkpt lat="48.59681" lon="1.9701">
        <ele>147</ele>
        <time>2013-08-18T10:21:45Z</time>
      </trkpt>
      <trkpt lat="48.59678" lon="1.97015">
        <ele>147</ele>
        <time>2013-08-18T10:21:48Z</time>
      </trkpt>
      <trkpt lat="48.59676" lon="1.97019">
        <ele>147</ele>
        <time>2013-08-18T10:21:50Z</time>
      </trkpt>
      <trkpt lat="48.59674" lon="1.97026">
        <ele>147</ele>
        <time>2013-08-18T10:21:53Z</time>
      </trkpt>
      <trkpt lat="48.59672" lon="1.9703">
        <ele>147</ele>
        <time>2013-08-18T10:21:55Z</time>
      </trkpt>
      <trkpt lat="48.59667" lon="1.97038">
        <ele>147</ele>
        <time>2013-08-18T10:21:59Z</time>
      </trkpt>
      <trkpt lat="48.59665" lon="1.97043">
        <ele>147</ele>
        <time>2013-08-18T10:22:01Z</time>
      </trkpt>
      <trkpt lat="48.59663" lon="1.97048">
        <ele>147</ele>
        <time>2013-08-18T10:22:03Z</time>
      </trkpt>
      <trkpt lat="48.59662" lon="1.97052">
        <ele>147</ele>
        <time>2013-08-18T10:22:05Z</time>
      </trkpt>
      <trkpt lat="48.59658" lon="1.97059">
        <ele>147</ele>
        <time>2013-08-18T10:22:08Z</time>
      </trkpt>
      <trkpt lat="48.59656" lon="1.97064">
        <ele>147</ele>
        <time>2013-08-18T10:22:10Z</time>
      </trkpt>
      <trkpt lat="48.5965" lon="1.97073">
        <ele>146</ele>
        <time>2013-08-18T10:22:14Z</time>
      </trkpt>
      <trkpt lat="48.59648" lon="1.97078">
        <ele>145</ele>
        <time>2013-08-18T10:22:16Z</time>
      </trkpt>
      <trkpt lat="48.59647" lon="1.97082">
        <ele>145</ele>
        <time>2013-08-18T10:22:18Z</time>
      </trkpt>
      <trkpt lat="48.59647" lon="1.97088">
        <ele>143</ele>
        <time>2013-08-18T10:22:20Z</time>
      </trkpt>
      <trkpt lat="48.59644" lon="1.97095">
        <ele>143</ele>
        <time>2013-08-18T10:22:23Z</time>
      </trkpt>
      <trkpt lat="48.59643" lon="1.97097">
        <ele>142</ele>
        <time>2013-08-18T10:22:25Z</time>
      </trkpt>
      <trkpt lat="48.59641" lon="1.97101">
        <ele>142</ele>
        <time>2013-08-18T10:22:27Z</time>
      </trkpt>
      <trkpt lat="48.59639" lon="1.97106">
        <ele>142</ele>
        <time>2013-08-18T10:22:29Z</time>
      </trkpt>
      <trkpt lat="48.59636" lon="1.9711">
        <ele>141</ele>
        <time>2013-08-18T10:22:32Z</time>
      </trkpt>
      <trkpt lat="48.59632" lon="1.97115">
        <ele>141</ele>
        <time>2013-08-18T10:22:35Z</time>
      </trkpt>
      <trkpt lat="48.5963" lon="1.97118">
        <ele>140</ele>
        <time>2013-08-18T10:22:37Z</time>
      </trkpt>
      <trkpt lat="48.59629" lon="1.97123">
        <ele>140</ele>
        <time>2013-08-18T10:22:39Z</time>
      </trkpt>
      <trkpt lat="48.59628" lon="1.97129">
        <ele>140</ele>
        <time>2013-08-18T10:22:41Z</time>
      </trkpt>
      <trkpt lat="48.59626" lon="1.97134">
        <ele>139</ele>
        <time>2013-08-18T10:22:43Z</time>
      </trkpt>
      <trkpt lat="48.59622" lon="1.97141">
        <ele>139</ele>
        <time>2013-08-18T10:22:46Z</time>
      </trkpt>
      <trkpt lat="48.5962" lon="1.97144">
        <ele>139</ele>
        <time>2013-08-18T10:22:49Z</time>
      </trkpt>
      <trkpt lat="48.59616" lon="1.9715">
        <ele>139</ele>
        <time>2013-08-18T10:22:52Z</time>
      </trkpt>
      <trkpt lat="48.59615" lon="1.97153">
        <ele>139</ele>
        <time>2013-08-18T10:22:54Z</time>
      </trkpt>
      <trkpt lat="48.59612" lon="1.9716">
        <ele>139</ele>
        <time>2013-08-18T10:22:57Z</time>
      </trkpt>
      <trkpt lat="48.59609" lon="1.97164">
        <ele>139</ele>
        <time>2013-08-18T10:22:59Z</time>
      </trkpt>
      <trkpt lat="48.59606" lon="1.9717">
        <ele>139</ele>
        <time>2013-08-18T10:23:02Z</time>
      </trkpt>
      <trkpt lat="48.59603" lon="1.97175">
        <ele>139</ele>
        <time>2013-08-18T10:23:04Z</time>
      </trkpt>
      <trkpt lat="48.596" lon="1.97181">
        <ele>139</ele>
        <time>2013-08-18T10:23:07Z</time>
      </trkpt>
      <trkpt lat="48.59597" lon="1.97186">
        <ele>139</ele>
        <time>2013-08-18T10:23:09Z</time>
      </trkpt>
      <trkpt lat="48.59594" lon="1.97192">
        <ele>139</ele>
        <time>2013-08-18T10:23:12Z</time>
      </trkpt>
      <trkpt lat="48.59592" lon="1.97195">
        <ele>139</ele>
        <time>2013-08-18T10:23:14Z</time>
      </trkpt>
      <trkpt lat="48.59589" lon="1.97201">
        <ele>139</ele>
        <time>2013-08-18T10:23:17Z</time>
      </trkpt>
      <trkpt lat="48.59587" lon="1.97205">
        <ele>139</ele>
        <time>2013-08-18T10:23:19Z</time>
      </trkpt>
      <trkpt lat="48.59584" lon="1.9721">
        <ele>139</ele>
        <time>2013-08-18T10:23:22Z</time>
      </trkpt>
      <trkpt lat="48.59583" lon="1.97214">
        <ele>139</ele>
        <time>2013-08-18T10:23:24Z</time>
      </trkpt>
      <trkpt lat="48.59581" lon="1.97223">
        <ele>139</ele>
        <time>2013-08-18T10:23:27Z</time>
      </trkpt>
      <trkpt lat="48.59578" lon="1.97229">
        <ele>139</ele>
        <time>2013-08-18T10:23:29Z</time>
      </trkpt>
      <trkpt lat="48.59574" lon="1.97235">
        <ele>139</ele>
        <time>2013-08-18T10:23:32Z</time>
      </trkpt>
      <trkpt lat="48.59573" lon="1.97239">
        <ele>139</ele>
        <time>2013-08-18T10:23:34Z</time>
      </trkpt>
      <trkpt lat="48.5957" lon="1.97245">
        <ele>139</ele>
        <time>2013-08-18T10:23:37Z</time>
      </trkpt>
      <trkpt lat="48.59568" lon="1.97249">
        <ele>139</ele>
        <time>2013-08-18T10:23:39Z</time>
      </trkpt>
      <trkpt lat="48.59564" lon="1.97255">
        <ele>139</ele>
        <time>2013-08-18T10:23:42Z</time>
      </trkpt>
      <trkpt lat="48.59562" lon="1.97259">
        <ele>139</ele>
        <time>2013-08-18T10:23:44Z</time>
      </trkpt>
      <trkpt lat="48.59559" lon="1.97267">
        <ele>140</ele>
        <time>2013-08-18T10:23:47Z</time>
      </trkpt>
      <trkpt lat="48.59557" lon="1.97272">
        <ele>140</ele>
        <time>2013-08-18T10:23:49Z</time>
      </trkpt>
      <trkpt lat="48.59554" lon="1.97277">
        <ele>140</ele>
        <time>2013-08-18T10:23:52Z</time>
      </trkpt>
      <trkpt lat="48.59552" lon="1.9728">
        <ele>140</ele>
        <time>2013-08-18T10:23:54Z</time>
      </trkpt>
      <trkpt lat="48.59549" lon="1.97286">
        <ele>140</ele>
        <time>2013-08-18T10:23:57Z</time>
      </trkpt>
      <trkpt lat="48.59548" lon="1.9729">
        <ele>140</ele>
        <time>2013-08-18T10:23:59Z</time>
      </trkpt>
      <trkpt lat="48.59544" lon="1.97295">
        <ele>140</ele>
        <time>2013-08-18T10:24:02Z</time>
      </trkpt>
      <trkpt lat="48.59542" lon="1.97299">
        <ele>140</ele>
        <time>2013-08-18T10:24:04Z</time>
      </trkpt>
      <trkpt lat="48.59539" lon="1.97305">
        <ele>140</ele>
        <time>2013-08-18T10:24:07Z</time>
      </trkpt>
      <trkpt lat="48.59537" lon="1.9731">
        <ele>140</ele>
        <time>2013-08-18T10:24:09Z</time>
      </trkpt>
      <trkpt lat="48.59534" lon="1.97315">
        <ele>140</ele>
        <time>2013-08-18T10:24:12Z</time>
      </trkpt>
      <trkpt lat="48.59532" lon="1.97319">
        <ele>140</ele>
        <time>2013-08-18T10:24:14Z</time>
      </trkpt>
      <trkpt lat="48.59529" lon="1.97326">
        <ele>140</ele>
        <time>2013-08-18T10:24:17Z</time>
      </trkpt>
      <trkpt lat="48.59527" lon="1.9733">
        <ele>140</ele>
        <time>2013-08-18T10:24:19Z</time>
      </trkpt>
      <trkpt lat="48.59523" lon="1.97336">
        <ele>140</ele>
        <time>2013-08-18T10:24:22Z</time>
      </trkpt>
      <trkpt lat="48.59521" lon="1.9734">
        <ele>140</ele>
        <time>2013-08-18T10:24:24Z</time>
      </trkpt>
      <trkpt lat="48.59518" lon="1.97347">
        <ele>140</ele>
        <time>2013-08-18T10:24:27Z</time>
      </trkpt>
      <trkpt lat="48.59516" lon="1.97351">
        <ele>140</ele>
        <time>2013-08-18T10:24:29Z</time>
      </trkpt>
      <trkpt lat="48.59512" lon="1.97357">
        <ele>140</ele>
        <time>2013-08-18T10:24:32Z</time>
      </trkpt>
      <trkpt lat="48.5951" lon="1.97362">
        <ele>140</ele>
        <time>2013-08-18T10:24:34Z</time>
      </trkpt>
      <trkpt lat="48.59509" lon="1.97366">
        <ele>140</ele>
        <time>2013-08-18T10:24:36Z</time>
      </trkpt>
      <trkpt lat="48.59506" lon="1.9737">
        <ele>140</ele>
        <time>2013-08-18T10:24:38Z</time>
      </trkpt>
      <trkpt lat="48.59504" lon="1.97376">
        <ele>140</ele>
        <time>2013-08-18T10:24:40Z</time>
      </trkpt>
      <trkpt lat="48.59503" lon="1.9738">
        <ele>140</ele>
        <time>2013-08-18T10:24:42Z</time>
      </trkpt>
      <trkpt lat="48.59502" lon="1.97383">
        <ele>140</ele>
        <time>2013-08-18T10:24:44Z</time>
      </trkpt>
      <trkpt lat="48.59501" lon="1.97388">
        <ele>140</ele>
        <time>2013-08-18T10:24:47Z</time>
      </trkpt>
      <trkpt lat="48.59499" lon="1.97391">
        <ele>140</ele>
        <time>2013-08-18T10:24:49Z</time>
      </trkpt>
      <trkpt lat="48.59497" lon="1.97395">
        <ele>138</ele>
        <time>2013-08-18T10:24:51Z</time>
      </trkpt>
      <trkpt lat="48.59493" lon="1.974">
        <ele>138</ele>
        <time>2013-08-18T10:24:54Z</time>
      </trkpt>
      <trkpt lat="48.59491" lon="1.97404">
        <ele>138</ele>
        <time>2013-08-18T10:24:56Z</time>
      </trkpt>
      <trkpt lat="48.59488" lon="1.9741">
        <ele>138</ele>
        <time>2013-08-18T10:24:59Z</time>
      </trkpt>
      <trkpt lat="48.59486" lon="1.97414">
        <ele>138</ele>
        <time>2013-08-18T10:25:01Z</time>
      </trkpt>
      <trkpt lat="48.59484" lon="1.97421">
        <ele>138</ele>
        <time>2013-08-18T10:25:04Z</time>
      </trkpt>
      <trkpt lat="48.59485" lon="1.97426">
        <ele>138</ele>
        <time>2013-08-18T10:25:07Z</time>
      </trkpt>
      <trkpt lat="48.59488" lon="1.97434">
        <ele>138</ele>
        <time>2013-08-18T10:25:11Z</time>
      </trkpt>
      <trkpt lat="48.59491" lon="1.97436">
        <ele>138</ele>
        <time>2013-08-18T10:25:14Z</time>
      </trkpt>
      <trkpt lat="48.59494" lon="1.97438">
        <ele>140</ele>
        <time>2013-08-18T10:25:16Z</time>
      </trkpt>
      <trkpt lat="48.59498" lon="1.97437">
        <ele>141</ele>
        <time>2013-08-18T10:25:18Z</time>
      </trkpt>
      <trkpt lat="48.59501" lon="1.97437">
        <ele>142</ele>
        <time>2013-08-18T10:25:20Z</time>
      </trkpt>
      <trkpt lat="48.59504" lon="1.97437">
        <ele>142</ele>
        <time>2013-08-18T10:25:22Z</time>
      </trkpt>
      <trkpt lat="48.59507" lon="1.97438">
        <ele>142</ele>
        <time>2013-08-18T10:25:24Z</time>
      </trkpt>
      <trkpt lat="48.5951" lon="1.97441">
        <ele>143</ele>
        <time>2013-08-18T10:25:26Z</time>
      </trkpt>
      <trkpt lat="48.59513" lon="1.97443">
        <ele>146</ele>
        <time>2013-08-18T10:25:29Z</time>
      </trkpt>
      <trkpt lat="48.59515" lon="1.97445">
        <ele>147</ele>
        <time>2013-08-18T10:25:31Z</time>
      </trkpt>
      <trkpt lat="48.59518" lon="1.97447">
        <ele>148</ele>
        <time>2013-08-18T10:25:33Z</time>
      </trkpt>
      <trkpt lat="48.59522" lon="1.97448">
        <ele>148</ele>
        <time>2013-08-18T10:25:35Z</time>
      </trkpt>
      <trkpt lat="48.59525" lon="1.9745">
        <ele>148</ele>
        <time>2013-08-18T10:25:37Z</time>
      </trkpt>
      <trkpt lat="48.59532" lon="1.97451">
        <ele>148</ele>
        <time>2013-08-18T10:25:40Z</time>
      </trkpt>
      <trkpt lat="48.59537" lon="1.97453">
        <ele>148</ele>
        <time>2013-08-18T10:25:42Z</time>
      </trkpt>
      <trkpt lat="48.59542" lon="1.97457">
        <ele>148</ele>
        <time>2013-08-18T10:25:45Z</time>
      </trkpt>
      <trkpt lat="48.59544" lon="1.97461">
        <ele>148</ele>
        <time>2013-08-18T10:25:47Z</time>
      </trkpt>
      <trkpt lat="48.59547" lon="1.97468">
        <ele>148</ele>
        <time>2013-08-18T10:25:50Z</time>
      </trkpt>
      <trkpt lat="48.5955" lon="1.97471">
        <ele>148</ele>
        <time>2013-08-18T10:25:52Z</time>
      </trkpt>
      <trkpt lat="48.59554" lon="1.97477">
        <ele>148</ele>
        <time>2013-08-18T10:25:55Z</time>
      </trkpt>
      <trkpt lat="48.59557" lon="1.97479">
        <ele>148</ele>
        <time>2013-08-18T10:25:57Z</time>
      </trkpt>
      <trkpt lat="48.59563" lon="1.97481">
        <ele>148</ele>
        <time>2013-08-18T10:25:59Z</time>
      </trkpt>
      <trkpt lat="48.59567" lon="1.97487">
        <ele>148</ele>
        <time>2013-08-18T10:26:01Z</time>
      </trkpt>
      <trkpt lat="48.59576" lon="1.97492">
        <ele>148</ele>
        <time>2013-08-18T10:26:03Z</time>
      </trkpt>
      <trkpt lat="48.59587" lon="1.97499">
        <ele>147</ele>
        <time>2013-08-18T10:26:05Z</time>
      </trkpt>
      <trkpt lat="48.59599" lon="1.97507">
        <ele>145</ele>
        <time>2013-08-18T10:26:07Z</time>
      </trkpt>
      <trkpt lat="48.59618" lon="1.9752">
        <ele>142</ele>
        <time>2013-08-18T10:26:10Z</time>
      </trkpt>
      <trkpt lat="48.59631" lon="1.97529">
        <ele>140</ele>
        <time>2013-08-18T10:26:12Z</time>
      </trkpt>
      <trkpt lat="48.5965" lon="1.97538">
        <ele>139</ele>
        <time>2013-08-18T10:26:15Z</time>
      </trkpt>
      <trkpt lat="48.59661" lon="1.97544">
        <ele>138</ele>
        <time>2013-08-18T10:26:17Z</time>
      </trkpt>
      <trkpt lat="48.59677" lon="1.97551">
        <ele>135</ele>
        <time>2013-08-18T10:26:20Z</time>
      </trkpt>
      <trkpt lat="48.59684" lon="1.97556">
        <ele>133</ele>
        <time>2013-08-18T10:26:22Z</time>
      </trkpt>
      <trkpt lat="48.59693" lon="1.9756">
        <ele>131</ele>
        <time>2013-08-18T10:26:24Z</time>
      </trkpt>
      <trkpt lat="48.59704" lon="1.97567">
        <ele>131</ele>
        <time>2013-08-18T10:26:26Z</time>
      </trkpt>
      <trkpt lat="48.59716" lon="1.97579">
        <ele>131</ele>
        <time>2013-08-18T10:26:28Z</time>
      </trkpt>
      <trkpt lat="48.59727" lon="1.97594">
        <ele>131</ele>
        <time>2013-08-18T10:26:30Z</time>
      </trkpt>
      <trkpt lat="48.5974" lon="1.97605">
        <ele>131</ele>
        <time>2013-08-18T10:26:32Z</time>
      </trkpt>
      <trkpt lat="48.59763" lon="1.97622">
        <ele>132</ele>
        <time>2013-08-18T10:26:35Z</time>
      </trkpt>
      <trkpt lat="48.59778" lon="1.97631">
        <ele>132</ele>
        <time>2013-08-18T10:26:37Z</time>
      </trkpt>
      <trkpt lat="48.59793" lon="1.97639">
        <ele>132</ele>
        <time>2013-08-18T10:26:39Z</time>
      </trkpt>
      <trkpt lat="48.59806" lon="1.97648">
        <ele>132</ele>
        <time>2013-08-18T10:26:41Z</time>
      </trkpt>
      <trkpt lat="48.5982" lon="1.97661">
        <ele>131</ele>
        <time>2013-08-18T10:26:43Z</time>
      </trkpt>
      <trkpt lat="48.59836" lon="1.97669">
        <ele>129</ele>
        <time>2013-08-18T10:26:45Z</time>
      </trkpt>
      <trkpt lat="48.59849" lon="1.9768">
        <ele>128</ele>
        <time>2013-08-18T10:26:47Z</time>
      </trkpt>
      <trkpt lat="48.59861" lon="1.97695">
        <ele>128</ele>
        <time>2013-08-18T10:26:49Z</time>
      </trkpt>
      <trkpt lat="48.59878" lon="1.97696">
        <ele>128</ele>
        <time>2013-08-18T10:26:51Z</time>
      </trkpt>
      <trkpt lat="48.59895" lon="1.97693">
        <ele>128</ele>
        <time>2013-08-18T10:26:53Z</time>
      </trkpt>
      <trkpt lat="48.59914" lon="1.9769">
        <ele>128</ele>
        <time>2013-08-18T10:26:55Z</time>
      </trkpt>
      <trkpt lat="48.5993" lon="1.97692">
        <ele>128</ele>
        <time>2013-08-18T10:26:57Z</time>
      </trkpt>
      <trkpt lat="48.59948" lon="1.97695">
        <ele>128</ele>
        <time>2013-08-18T10:26:59Z</time>
      </trkpt>
      <trkpt lat="48.59962" lon="1.97704">
        <ele>128</ele>
        <time>2013-08-18T10:27:01Z</time>
      </trkpt>
      <trkpt lat="48.59976" lon="1.97713">
        <ele>128</ele>
        <time>2013-08-18T10:27:03Z</time>
      </trkpt>
      <trkpt lat="48.59985" lon="1.9773">
        <ele>128</ele>
        <time>2013-08-18T10:27:05Z</time>
      </trkpt>
      <trkpt lat="48.5999" lon="1.97748">
        <ele>128</ele>
        <time>2013-08-18T10:27:07Z</time>
      </trkpt>
      <trkpt lat="48.60001" lon="1.97764">
        <ele>127</ele>
        <time>2013-08-18T10:27:10Z</time>
      </trkpt>
      <trkpt lat="48.60005" lon="1.97777">
        <ele>126</ele>
        <time>2013-08-18T10:27:12Z</time>
      </trkpt>
      <trkpt lat="48.6001" lon="1.97785">
        <ele>126</ele>
        <time>2013-08-18T10:27:14Z</time>
      </trkpt>
      <trkpt lat="48.60014" lon="1.97797">
        <ele>126</ele>
        <time>2013-08-18T10:27:16Z</time>
      </trkpt>
      <trkpt lat="48.60026" lon="1.97815">
        <ele>126</ele>
        <time>2013-08-18T10:27:18Z</time>
      </trkpt>
      <trkpt lat="48.60038" lon="1.9783">
        <ele>126</ele>
        <time>2013-08-18T10:27:20Z</time>
      </trkpt>
      <trkpt lat="48.60051" lon="1.97848">
        <ele>126</ele>
        <time>2013-08-18T10:27:22Z</time>
      </trkpt>
      <trkpt lat="48.60066" lon="1.97865">
        <ele>126</ele>
        <time>2013-08-18T10:27:24Z</time>
      </trkpt>
      <trkpt lat="48.60083" lon="1.97884">
        <ele>126</ele>
        <time>2013-08-18T10:27:26Z</time>
      </trkpt>
      <trkpt lat="48.60101" lon="1.979">
        <ele>126</ele>
        <time>2013-08-18T10:27:28Z</time>
      </trkpt>
      <trkpt lat="48.60115" lon="1.97915">
        <ele>124</ele>
        <time>2013-08-18T10:27:30Z</time>
      </trkpt>
      <trkpt lat="48.60129" lon="1.97931">
        <ele>123</ele>
        <time>2013-08-18T10:27:32Z</time>
      </trkpt>
      <trkpt lat="48.60141" lon="1.9795">
        <ele>121</ele>
        <time>2013-08-18T10:27:34Z</time>
      </trkpt>
      <trkpt lat="48.60153" lon="1.97967">
        <ele>119</ele>
        <time>2013-08-18T10:27:36Z</time>
      </trkpt>
      <trkpt lat="48.6017" lon="1.97979">
        <ele>117</ele>
        <time>2013-08-18T10:27:38Z</time>
      </trkpt>
      <trkpt lat="48.60185" lon="1.97991">
        <ele>116</ele>
        <time>2013-08-18T10:27:40Z</time>
      </trkpt>
      <trkpt lat="48.60198" lon="1.98003">
        <ele>114</ele>
        <time>2013-08-18T10:27:42Z</time>
      </trkpt>
      <trkpt lat="48.60211" lon="1.98015">
        <ele>113</ele>
        <time>2013-08-18T10:27:44Z</time>
      </trkpt>
      <trkpt lat="48.60225" lon="1.98027">
        <ele>112</ele>
        <time>2013-08-18T10:27:46Z</time>
      </trkpt>
      <trkpt lat="48.60236" lon="1.98039">
        <ele>111</ele>
        <time>2013-08-18T10:27:48Z</time>
      </trkpt>
      <trkpt lat="48.60247" lon="1.98053">
        <ele>110</ele>
        <time>2013-08-18T10:27:50Z</time>
      </trkpt>
      <trkpt lat="48.6026" lon="1.98064">
        <ele>108</ele>
        <time>2013-08-18T10:27:52Z</time>
      </trkpt>
      <trkpt lat="48.60274" lon="1.98079">
        <ele>106</ele>
        <time>2013-08-18T10:27:54Z</time>
      </trkpt>
      <trkpt lat="48.60287" lon="1.98093">
        <ele>105</ele>
        <time>2013-08-18T10:27:56Z</time>
      </trkpt>
      <trkpt lat="48.60299" lon="1.98107">
        <ele>105</ele>
        <time>2013-08-18T10:27:58Z</time>
      </trkpt>
      <trkpt lat="48.60312" lon="1.98121">
        <ele>104</ele>
        <time>2013-08-18T10:28:00Z</time>
      </trkpt>
      <trkpt lat="48.60324" lon="1.98133">
        <ele>104</ele>
        <time>2013-08-18T10:28:02Z</time>
      </trkpt>
      <trkpt lat="48.60336" lon="1.98145">
        <ele>104</ele>
        <time>2013-08-18T10:28:04Z</time>
      </trkpt>
      <trkpt lat="48.60348" lon="1.98158">
        <ele>104</ele>
        <time>2013-08-18T10:28:06Z</time>
      </trkpt>
      <trkpt lat="48.60361" lon="1.98171">
        <ele>104</ele>
        <time>2013-08-18T10:28:08Z</time>
      </trkpt>
      <trkpt lat="48.60373" lon="1.98183">
        <ele>103</ele>
        <time>2013-08-18T10:28:10Z</time>
      </trkpt>
      <trkpt lat="48.60385" lon="1.98197">
        <ele>103</ele>
        <time>2013-08-18T10:28:12Z</time>
      </trkpt>
      <trkpt lat="48.60395" lon="1.9821">
        <ele>103</ele>
        <time>2013-08-18T10:28:14Z</time>
      </trkpt>
      <trkpt lat="48.60408" lon="1.98223">
        <ele>103</ele>
        <time>2013-08-18T10:28:16Z</time>
      </trkpt>
      <trkpt lat="48.60419" lon="1.98235">
        <ele>103</ele>
        <time>2013-08-18T10:28:18Z</time>
      </trkpt>
      <trkpt lat="48.60429" lon="1.9825">
        <ele>103</ele>
        <time>2013-08-18T10:28:20Z</time>
      </trkpt>
      <trkpt lat="48.60439" lon="1.98259">
        <ele>103</ele>
        <time>2013-08-18T10:28:22Z</time>
      </trkpt>
      <trkpt lat="48.60452" lon="1.98268">
        <ele>103</ele>
        <time>2013-08-18T10:28:24Z</time>
      </trkpt>
      <trkpt lat="48.6046" lon="1.98277">
        <ele>103</ele>
        <time>2013-08-18T10:28:26Z</time>
      </trkpt>
      <trkpt lat="48.60468" lon="1.98282">
        <ele>104</ele>
        <time>2013-08-18T10:28:28Z</time>
      </trkpt>
      <trkpt lat="48.60472" lon="1.98291">
        <ele>106</ele>
        <time>2013-08-18T10:28:30Z</time>
      </trkpt>
      <trkpt lat="48.60478" lon="1.98294">
        <ele>108</ele>
        <time>2013-08-18T10:28:32Z</time>
      </trkpt>
      <trkpt lat="48.60485" lon="1.983">
        <ele>110</ele>
        <time>2013-08-18T10:28:34Z</time>
      </trkpt>
      <trkpt lat="48.60491" lon="1.98303">
        <ele>112</ele>
        <time>2013-08-18T10:28:36Z</time>
      </trkpt>
      <trkpt lat="48.60496" lon="1.9831">
        <ele>114</ele>
        <time>2013-08-18T10:28:38Z</time>
      </trkpt>
      <trkpt lat="48.60499" lon="1.98322">
        <ele>116</ele>
        <time>2013-08-18T10:28:40Z</time>
      </trkpt>
      <trkpt lat="48.60505" lon="1.98333">
        <ele>118</ele>
        <time>2013-08-18T10:28:42Z</time>
      </trkpt>
      <trkpt lat="48.60511" lon="1.98337">
        <ele>120</ele>
        <time>2013-08-18T10:28:44Z</time>
      </trkpt>
      <trkpt lat="48.60514" lon="1.98336">
        <ele>120</ele>
        <time>2013-08-18T10:28:46Z</time>
      </trkpt>
      <trkpt lat="48.60515" lon="1.98336">
        <ele>120</ele>
        <time>2013-08-18T10:28:48Z</time>
      </trkpt>
      <trkpt lat="48.60518" lon="1.98337">
        <ele>120</ele>
        <time>2013-08-18T10:28:50Z</time>
      </trkpt>
      <trkpt lat="48.60521" lon="1.98336">
        <ele>120</ele>
        <time>2013-08-18T10:28:52Z</time>
      </trkpt>
      <trkpt lat="48.60525" lon="1.98338">
        <ele>120</ele>
        <time>2013-08-18T10:28:55Z</time>
      </trkpt>
      <trkpt lat="48.60528" lon="1.98341">
        <ele>120</ele>
        <time>2013-08-18T10:28:58Z</time>
      </trkpt>
      <trkpt lat="48.60527" lon="1.98346">
        <ele>120</ele>
        <time>2013-08-18T10:29:00Z</time>
      </trkpt>
      <trkpt lat="48.60527" lon="1.98351">
        <ele>120</ele>
        <time>2013-08-18T10:29:02Z</time>
      </trkpt>
      <trkpt lat="48.60526" lon="1.98356">
        <ele>120</ele>
        <time>2013-08-18T10:29:04Z</time>
      </trkpt>
      <trkpt lat="48.60523" lon="1.9836">
        <ele>119</ele>
        <time>2013-08-18T10:29:06Z</time>
      </trkpt>
      <trkpt lat="48.60521" lon="1.98362">
        <ele>119</ele>
        <time>2013-08-18T10:29:09Z</time>
      </trkpt>
      <trkpt lat="48.60518" lon="1.98362">
        <ele>118</ele>
        <time>2013-08-18T10:29:11Z</time>
      </trkpt>
      <trkpt lat="48.60515" lon="1.98363">
        <ele>116</ele>
        <time>2013-08-18T10:29:13Z</time>
      </trkpt>
      <trkpt lat="48.60511" lon="1.98364">
        <ele>115</ele>
        <time>2013-08-18T10:29:15Z</time>
      </trkpt>
      <trkpt lat="48.60506" lon="1.98366">
        <ele>115</ele>
        <time>2013-08-18T10:29:17Z</time>
      </trkpt>
      <trkpt lat="48.60504" lon="1.98365">
        <ele>115</ele>
        <time>2013-08-18T10:29:19Z</time>
      </trkpt>
      <trkpt lat="48.60501" lon="1.98365">
        <ele>114</ele>
        <time>2013-08-18T10:29:21Z</time>
      </trkpt>
      <trkpt lat="48.60498" lon="1.98366">
        <ele>113</ele>
        <time>2013-08-18T10:29:23Z</time>
      </trkpt>
      <trkpt lat="48.60495" lon="1.98366">
        <ele>111</ele>
        <time>2013-08-18T10:29:25Z</time>
      </trkpt>
      <trkpt lat="48.60492" lon="1.98365">
        <ele>110</ele>
        <time>2013-08-18T10:29:27Z</time>
      </trkpt>
      <trkpt lat="48.60489" lon="1.98365">
        <ele>108</ele>
        <time>2013-08-18T10:29:29Z</time>
      </trkpt>
      <trkpt lat="48.60486" lon="1.98365">
        <ele>106</ele>
        <time>2013-08-18T10:29:31Z</time>
      </trkpt>
      <trkpt lat="48.60482" lon="1.98366">
        <ele>105</ele>
        <time>2013-08-18T10:29:33Z</time>
      </trkpt>
      <trkpt lat="48.60479" lon="1.98366">
        <ele>103</ele>
        <time>2013-08-18T10:29:36Z</time>
      </trkpt>
      <trkpt lat="48.60476" lon="1.98367">
        <ele>102</ele>
        <time>2013-08-18T10:29:38Z</time>
      </trkpt>
      <trkpt lat="48.60473" lon="1.98369">
        <ele>101</ele>
        <time>2013-08-18T10:29:40Z</time>
      </trkpt>
      <trkpt lat="48.6047" lon="1.98369">
        <ele>101</ele>
        <time>2013-08-18T10:29:42Z</time>
      </trkpt>
      <trkpt lat="48.60467" lon="1.98368">
        <ele>101</ele>
        <time>2013-08-18T10:29:44Z</time>
      </trkpt>
      <trkpt lat="48.60464" lon="1.98369">
        <ele>100</ele>
        <time>2013-08-18T10:29:46Z</time>
      </trkpt>
      <trkpt lat="48.60461" lon="1.98371">
        <ele>99</ele>
        <time>2013-08-18T10:29:48Z</time>
      </trkpt>
      <trkpt lat="48.60458" lon="1.98373">
        <ele>99</ele>
        <time>2013-08-18T10:29:50Z</time>
      </trkpt>
      <trkpt lat="48.60454" lon="1.98375">
        <ele>99</ele>
        <time>2013-08-18T10:29:52Z</time>
      </trkpt>
      <trkpt lat="48.6045" lon="1.98377">
        <ele>99</ele>
        <time>2013-08-18T10:29:54Z</time>
      </trkpt>
      <trkpt lat="48.60448" lon="1.98376">
        <ele>99</ele>
        <time>2013-08-18T10:29:56Z</time>
      </trkpt>
      <trkpt lat="48.60444" lon="1.98377">
        <ele>99</ele>
        <time>2013-08-18T10:29:58Z</time>
      </trkpt>
      <trkpt lat="48.60442" lon="1.98378">
        <ele>99</ele>
        <time>2013-08-18T10:30:00Z</time>
      </trkpt>
      <trkpt lat="48.60438" lon="1.9838">
        <ele>99</ele>
        <time>2013-08-18T10:30:02Z</time>
      </trkpt>
      <trkpt lat="48.60434" lon="1.9838">
        <ele>99</ele>
        <time>2013-08-18T10:30:04Z</time>
      </trkpt>
      <trkpt lat="48.60433" lon="1.98378">
        <ele>99</ele>
        <time>2013-08-18T10:30:06Z</time>
      </trkpt>
      <trkpt lat="48.6043" lon="1.98379">
        <ele>99</ele>
        <time>2013-08-18T10:30:08Z</time>
      </trkpt>
      <trkpt lat="48.60427" lon="1.9838">
        <ele>99</ele>
        <time>2013-08-18T10:30:10Z</time>
      </trkpt>
      <trkpt lat="48.60424" lon="1.9838">
        <ele>99</ele>
        <time>2013-08-18T10:30:12Z</time>
      </trkpt>
      <trkpt lat="48.60421" lon="1.98381">
        <ele>99</ele>
        <time>2013-08-18T10:30:14Z</time>
      </trkpt>
      <trkpt lat="48.60418" lon="1.98383">
        <ele>99</ele>
        <time>2013-08-18T10:30:16Z</time>
      </trkpt>
      <trkpt lat="48.60415" lon="1.98385">
        <ele>99</ele>
        <time>2013-08-18T10:30:18Z</time>
      </trkpt>
      <trkpt lat="48.60411" lon="1.98386">
        <ele>99</ele>
        <time>2013-08-18T10:30:20Z</time>
      </trkpt>
      <trkpt lat="48.60408" lon="1.98389">
        <ele>99</ele>
        <time>2013-08-18T10:30:22Z</time>
      </trkpt>
      <trkpt lat="48.60405" lon="1.98391">
        <ele>99</ele>
        <time>2013-08-18T10:30:24Z</time>
      </trkpt>
      <trkpt lat="48.60403" lon="1.98392">
        <ele>99</ele>
        <time>2013-08-18T10:30:26Z</time>
      </trkpt>
      <trkpt lat="48.604" lon="1.98394">
        <ele>99</ele>
        <time>2013-08-18T10:30:28Z</time>
      </trkpt>
      <trkpt lat="48.60396" lon="1.98395">
        <ele>99</ele>
        <time>2013-08-18T10:30:30Z</time>
      </trkpt>
      <trkpt lat="48.60393" lon="1.98397">
        <ele>99</ele>
        <time>2013-08-18T10:30:32Z</time>
      </trkpt>
      <trkpt lat="48.6039" lon="1.98399">
        <ele>99</ele>
        <time>2013-08-18T10:30:34Z</time>
      </trkpt>
      <trkpt lat="48.60387" lon="1.98399">
        <ele>101</ele>
        <time>2013-08-18T10:30:36Z</time>
      </trkpt>
      <trkpt lat="48.60383" lon="1.984">
        <ele>102</ele>
        <time>2013-08-18T10:30:38Z</time>
      </trkpt>
      <trkpt lat="48.60381" lon="1.98401">
        <ele>102</ele>
        <time>2013-08-18T10:30:40Z</time>
      </trkpt>
      <trkpt lat="48.60377" lon="1.98404">
        <ele>102</ele>
        <time>2013-08-18T10:30:42Z</time>
      </trkpt>
      <trkpt lat="48.60374" lon="1.98406">
        <ele>102</ele>
        <time>2013-08-18T10:30:44Z</time>
      </trkpt>
      <trkpt lat="48.60371" lon="1.98407">
        <ele>102</ele>
        <time>2013-08-18T10:30:46Z</time>
      </trkpt>
      <trkpt lat="48.60368" lon="1.9841">
        <ele>102</ele>
        <time>2013-08-18T10:30:48Z</time>
      </trkpt>
      <trkpt lat="48.60366" lon="1.98413">
        <ele>102</ele>
        <time>2013-08-18T10:30:50Z</time>
      </trkpt>
      <trkpt lat="48.60363" lon="1.98416">
        <ele>102</ele>
        <time>2013-08-18T10:30:52Z</time>
      </trkpt>
      <trkpt lat="48.60361" lon="1.9842">
        <ele>102</ele>
        <time>2013-08-18T10:30:54Z</time>
      </trkpt>
      <trkpt lat="48.60359" lon="1.98424">
        <ele>103</ele>
        <time>2013-08-18T10:30:56Z</time>
      </trkpt>
      <trkpt lat="48.60356" lon="1.98424">
        <ele>104</ele>
        <time>2013-08-18T10:30:58Z</time>
      </trkpt>
      <trkpt lat="48.60353" lon="1.98425">
        <ele>104</ele>
        <time>2013-08-18T10:31:00Z</time>
      </trkpt>
      <trkpt lat="48.6035" lon="1.98427">
        <ele>104</ele>
        <time>2013-08-18T10:31:02Z</time>
      </trkpt>
      <trkpt lat="48.60348" lon="1.98431">
        <ele>104</ele>
        <time>2013-08-18T10:31:04Z</time>
      </trkpt>
      <trkpt lat="48.60345" lon="1.98436">
        <ele>104</ele>
        <time>2013-08-18T10:31:06Z</time>
      </trkpt>
      <trkpt lat="48.60342" lon="1.9844">
        <ele>104</ele>
        <time>2013-08-18T10:31:08Z</time>
      </trkpt>
      <trkpt lat="48.60339" lon="1.98443">
        <ele>104</ele>
        <time>2013-08-18T10:31:10Z</time>
      </trkpt>
      <trkpt lat="48.60336" lon="1.98445">
        <ele>104</ele>
        <time>2013-08-18T10:31:12Z</time>
      </trkpt>
      <trkpt lat="48.60333" lon="1.98447">
        <ele>104</ele>
        <time>2013-08-18T10:31:14Z</time>
      </trkpt>
      <trkpt lat="48.6033" lon="1.98449">
        <ele>104</ele>
        <time>2013-08-18T10:31:16Z</time>
      </trkpt>
      <trkpt lat="48.60327" lon="1.98453">
        <ele>104</ele>
        <time>2013-08-18T10:31:18Z</time>
      </trkpt>
      <trkpt lat="48.60325" lon="1.98455">
        <ele>104</ele>
        <time>2013-08-18T10:31:20Z</time>
      </trkpt>
      <trkpt lat="48.60322" lon="1.98456">
        <ele>104</ele>
        <time>2013-08-18T10:31:22Z</time>
      </trkpt>
      <trkpt lat="48.60319" lon="1.98459">
        <ele>104</ele>
        <time>2013-08-18T10:31:24Z</time>
      </trkpt>
      <trkpt lat="48.60316" lon="1.98461">
        <ele>104</ele>
        <time>2013-08-18T10:31:26Z</time>
      </trkpt>
      <trkpt lat="48.60313" lon="1.98463">
        <ele>103</ele>
        <time>2013-08-18T10:31:28Z</time>
      </trkpt>
      <trkpt lat="48.6031" lon="1.98465">
        <ele>103</ele>
        <time>2013-08-18T10:31:30Z</time>
      </trkpt>
      <trkpt lat="48.60307" lon="1.98468">
        <ele>102</ele>
        <time>2013-08-18T10:31:32Z</time>
      </trkpt>
      <trkpt lat="48.60305" lon="1.98471">
        <ele>102</ele>
        <time>2013-08-18T10:31:34Z</time>
      </trkpt>
      <trkpt lat="48.60302" lon="1.98475">
        <ele>102</ele>
        <time>2013-08-18T10:31:36Z</time>
      </trkpt>
      <trkpt lat="48.603" lon="1.98479">
        <ele>102</ele>
        <time>2013-08-18T10:31:38Z</time>
      </trkpt>
      <trkpt lat="48.60299" lon="1.98482">
        <ele>102</ele>
        <time>2013-08-18T10:31:40Z</time>
      </trkpt>
      <trkpt lat="48.60297" lon="1.98486">
        <ele>102</ele>
        <time>2013-08-18T10:31:42Z</time>
      </trkpt>
      <trkpt lat="48.60295" lon="1.98491">
        <ele>102</ele>
        <time>2013-08-18T10:31:44Z</time>
      </trkpt>
      <trkpt lat="48.60294" lon="1.98495">
        <ele>102</ele>
        <time>2013-08-18T10:31:46Z</time>
      </trkpt>
      <trkpt lat="48.60291" lon="1.98499">
        <ele>102</ele>
        <time>2013-08-18T10:31:48Z</time>
      </trkpt>
      <trkpt lat="48.60289" lon="1.98505">
        <ele>102</ele>
        <time>2013-08-18T10:31:50Z</time>
      </trkpt>
      <trkpt lat="48.60286" lon="1.98509">
        <ele>102</ele>
        <time>2013-08-18T10:31:52Z</time>
      </trkpt>
      <trkpt lat="48.60284" lon="1.98513">
        <ele>102</ele>
        <time>2013-08-18T10:31:54Z</time>
      </trkpt>
      <trkpt lat="48.6028" lon="1.98519">
        <ele>102</ele>
        <time>2013-08-18T10:31:56Z</time>
      </trkpt>
      <trkpt lat="48.60277" lon="1.98524">
        <ele>103</ele>
        <time>2013-08-18T10:31:58Z</time>
      </trkpt>
      <trkpt lat="48.60276" lon="1.98529">
        <ele>104</ele>
        <time>2013-08-18T10:32:00Z</time>
      </trkpt>
      <trkpt lat="48.60273" lon="1.98535">
        <ele>104</ele>
        <time>2013-08-18T10:32:02Z</time>
      </trkpt>
      <trkpt lat="48.60271" lon="1.98539">
        <ele>104</ele>
        <time>2013-08-18T10:32:04Z</time>
      </trkpt>
      <trkpt lat="48.60269" lon="1.98542">
        <ele>104</ele>
        <time>2013-08-18T10:32:06Z</time>
      </trkpt>
      <trkpt lat="48.60266" lon="1.98546">
        <ele>104</ele>
        <time>2013-08-18T10:32:09Z</time>
      </trkpt>
      <trkpt lat="48.60264" lon="1.98547">
        <ele>104</ele>
        <time>2013-08-18T10:32:11Z</time>
      </trkpt>
      <trkpt lat="48.60262" lon="1.9855">
        <ele>104</ele>
        <time>2013-08-18T10:32:13Z</time>
      </trkpt>
      <trkpt lat="48.60259" lon="1.98554">
        <ele>104</ele>
        <time>2013-08-18T10:32:15Z</time>
      </trkpt>
      <trkpt lat="48.60257" lon="1.98557">
        <ele>104</ele>
        <time>2013-08-18T10:32:17Z</time>
      </trkpt>
      <trkpt lat="48.60254" lon="1.98562">
        <ele>104</ele>
        <time>2013-08-18T10:32:19Z</time>
      </trkpt>
      <trkpt lat="48.60251" lon="1.98564">
        <ele>104</ele>
        <time>2013-08-18T10:32:21Z</time>
      </trkpt>
      <trkpt lat="48.60249" lon="1.98565">
        <ele>104</ele>
        <time>2013-08-18T10:32:23Z</time>
      </trkpt>
      <trkpt lat="48.60246" lon="1.98567">
        <ele>104</ele>
        <time>2013-08-18T10:32:25Z</time>
      </trkpt>
      <trkpt lat="48.60242" lon="1.98571">
        <ele>104</ele>
        <time>2013-08-18T10:32:28Z</time>
      </trkpt>
      <trkpt lat="48.60241" lon="1.98573">
        <ele>104</ele>
        <time>2013-08-18T10:32:30Z</time>
      </trkpt>
      <trkpt lat="48.60238" lon="1.98574">
        <ele>104</ele>
        <time>2013-08-18T10:32:32Z</time>
      </trkpt>
      <trkpt lat="48.60237" lon="1.98575">
        <ele>104</ele>
        <time>2013-08-18T10:32:34Z</time>
      </trkpt>
      <trkpt lat="48.60234" lon="1.98578">
        <ele>104</ele>
        <time>2013-08-18T10:32:36Z</time>
      </trkpt>
      <trkpt lat="48.6023" lon="1.98582">
        <ele>104</ele>
        <time>2013-08-18T10:32:38Z</time>
      </trkpt>
      <trkpt lat="48.60227" lon="1.98586">
        <ele>104</ele>
        <time>2013-08-18T10:32:40Z</time>
      </trkpt>
      <trkpt lat="48.60223" lon="1.9859">
        <ele>104</ele>
        <time>2013-08-18T10:32:42Z</time>
      </trkpt>
      <trkpt lat="48.6022" lon="1.98594">
        <ele>104</ele>
        <time>2013-08-18T10:32:44Z</time>
      </trkpt>
      <trkpt lat="48.60216" lon="1.98597">
        <ele>104</ele>
        <time>2013-08-18T10:32:46Z</time>
      </trkpt>
      <trkpt lat="48.60214" lon="1.98599">
        <ele>104</ele>
        <time>2013-08-18T10:32:48Z</time>
      </trkpt>
      <trkpt lat="48.6021" lon="1.98602">
        <ele>104</ele>
        <time>2013-08-18T10:32:51Z</time>
      </trkpt>
      <trkpt lat="48.60207" lon="1.98605">
        <ele>104</ele>
        <time>2013-08-18T10:32:53Z</time>
      </trkpt>
      <trkpt lat="48.60202" lon="1.98609">
        <ele>104</ele>
        <time>2013-08-18T10:32:55Z</time>
      </trkpt>
      <trkpt lat="48.60197" lon="1.98613">
        <ele>104</ele>
        <time>2013-08-18T10:32:57Z</time>
      </trkpt>
      <trkpt lat="48.60191" lon="1.98618">
        <ele>104</ele>
        <time>2013-08-18T10:32:59Z</time>
      </trkpt>
      <trkpt lat="48.60185" lon="1.98624">
        <ele>104</ele>
        <time>2013-08-18T10:33:01Z</time>
      </trkpt>
      <trkpt lat="48.60178" lon="1.9863">
        <ele>104</ele>
        <time>2013-08-18T10:33:03Z</time>
      </trkpt>
      <trkpt lat="48.60172" lon="1.98635">
        <ele>104</ele>
        <time>2013-08-18T10:33:05Z</time>
      </trkpt>
      <trkpt lat="48.60166" lon="1.98642">
        <ele>104</ele>
        <time>2013-08-18T10:33:07Z</time>
      </trkpt>
      <trkpt lat="48.6016" lon="1.98647">
        <ele>104</ele>
        <time>2013-08-18T10:33:09Z</time>
      </trkpt>
      <trkpt lat="48.60153" lon="1.98653">
        <ele>104</ele>
        <time>2013-08-18T10:33:11Z</time>
      </trkpt>
      <trkpt lat="48.60146" lon="1.98661">
        <ele>104</ele>
        <time>2013-08-18T10:33:13Z</time>
      </trkpt>
      <trkpt lat="48.60141" lon="1.98667">
        <ele>104</ele>
        <time>2013-08-18T10:33:15Z</time>
      </trkpt>
      <trkpt lat="48.60135" lon="1.98674">
        <ele>104</ele>
        <time>2013-08-18T10:33:17Z</time>
      </trkpt>
      <trkpt lat="48.60129" lon="1.9868">
        <ele>104</ele>
        <time>2013-08-18T10:33:19Z</time>
      </trkpt>
      <trkpt lat="48.60125" lon="1.98687">
        <ele>105</ele>
        <time>2013-08-18T10:33:21Z</time>
      </trkpt>
      <trkpt lat="48.6012" lon="1.98695">
        <ele>105</ele>
        <time>2013-08-18T10:33:23Z</time>
      </trkpt>
      <trkpt lat="48.60115" lon="1.98702">
        <ele>105</ele>
        <time>2013-08-18T10:33:25Z</time>
      </trkpt>
      <trkpt lat="48.60111" lon="1.98713">
        <ele>105</ele>
        <time>2013-08-18T10:33:27Z</time>
      </trkpt>
      <trkpt lat="48.60106" lon="1.98723">
        <ele>105</ele>
        <time>2013-08-18T10:33:29Z</time>
      </trkpt>
      <trkpt lat="48.60102" lon="1.98731">
        <ele>105</ele>
        <time>2013-08-18T10:33:31Z</time>
      </trkpt>
      <trkpt lat="48.60098" lon="1.98738">
        <ele>107</ele>
        <time>2013-08-18T10:33:33Z</time>
      </trkpt>
      <trkpt lat="48.60095" lon="1.9874">
        <ele>109</ele>
        <time>2013-08-18T10:33:36Z</time>
      </trkpt>
      <trkpt lat="48.60094" lon="1.98742">
        <ele>112</ele>
        <time>2013-08-18T10:33:41Z</time>
      </trkpt>
      <trkpt lat="48.60095" lon="1.98743">
        <ele>113</ele>
        <time>2013-08-18T10:33:45Z</time>
      </trkpt>
      <trkpt lat="48.60095" lon="1.98742">
        <ele>116</ele>
        <time>2013-08-18T10:33:49Z</time>
      </trkpt>
      <trkpt lat="48.60094" lon="1.98744">
        <ele>117</ele>
        <time>2013-08-18T10:33:52Z</time>
      </trkpt>
      <trkpt lat="48.60094" lon="1.98746">
        <ele>120</ele>
        <time>2013-08-18T10:33:58Z</time>
      </trkpt>
      <trkpt lat="48.60093" lon="1.98749">
        <ele>121</ele>
        <time>2013-08-18T10:34:00Z</time>
      </trkpt>
      <trkpt lat="48.60091" lon="1.98754">
        <ele>123</ele>
        <time>2013-08-18T10:34:02Z</time>
      </trkpt>
      <trkpt lat="48.60089" lon="1.98757">
        <ele>123</ele>
        <time>2013-08-18T10:34:04Z</time>
      </trkpt>
      <trkpt lat="48.60087" lon="1.98761">
        <ele>124</ele>
        <time>2013-08-18T10:34:06Z</time>
      </trkpt>
      <trkpt lat="48.60084" lon="1.98766">
        <ele>125</ele>
        <time>2013-08-18T10:34:09Z</time>
      </trkpt>
      <trkpt lat="48.60081" lon="1.9877">
        <ele>125</ele>
        <time>2013-08-18T10:34:11Z</time>
      </trkpt>
      <trkpt lat="48.6008" lon="1.98776">
        <ele>125</ele>
        <time>2013-08-18T10:34:13Z</time>
      </trkpt>
      <trkpt lat="48.60075" lon="1.98783">
        <ele>125</ele>
        <time>2013-08-18T10:34:15Z</time>
      </trkpt>
      <trkpt lat="48.60072" lon="1.98791">
        <ele>125</ele>
        <time>2013-08-18T10:34:17Z</time>
      </trkpt>
      <trkpt lat="48.60068" lon="1.98799">
        <ele>125</ele>
        <time>2013-08-18T10:34:19Z</time>
      </trkpt>
      <trkpt lat="48.60063" lon="1.98807">
        <ele>125</ele>
        <time>2013-08-18T10:34:21Z</time>
      </trkpt>
      <trkpt lat="48.60058" lon="1.98816">
        <ele>124</ele>
        <time>2013-08-18T10:34:23Z</time>
      </trkpt>
      <trkpt lat="48.60053" lon="1.98823">
        <ele>122</ele>
        <time>2013-08-18T10:34:25Z</time>
      </trkpt>
      <trkpt lat="48.6005" lon="1.98828">
        <ele>120</ele>
        <time>2013-08-18T10:34:27Z</time>
      </trkpt>
      <trkpt lat="48.60046" lon="1.98836">
        <ele>118</ele>
        <time>2013-08-18T10:34:29Z</time>
      </trkpt>
      <trkpt lat="48.60041" lon="1.98844">
        <ele>116</ele>
        <time>2013-08-18T10:34:31Z</time>
      </trkpt>
      <trkpt lat="48.60037" lon="1.98851">
        <ele>114</ele>
        <time>2013-08-18T10:34:33Z</time>
      </trkpt>
      <trkpt lat="48.60033" lon="1.9886">
        <ele>112</ele>
        <time>2013-08-18T10:34:35Z</time>
      </trkpt>
      <trkpt lat="48.60029" lon="1.98867">
        <ele>111</ele>
        <time>2013-08-18T10:34:37Z</time>
      </trkpt>
      <trkpt lat="48.60025" lon="1.98875">
        <ele>110</ele>
        <time>2013-08-18T10:34:39Z</time>
      </trkpt>
      <trkpt lat="48.6002" lon="1.98882">
        <ele>110</ele>
        <time>2013-08-18T10:34:41Z</time>
      </trkpt>
      <trkpt lat="48.60016" lon="1.9889">
        <ele>110</ele>
        <time>2013-08-18T10:34:43Z</time>
      </trkpt>
      <trkpt lat="48.60011" lon="1.98899">
        <ele>110</ele>
        <time>2013-08-18T10:34:45Z</time>
      </trkpt>
      <trkpt lat="48.60006" lon="1.98907">
        <ele>110</ele>
        <time>2013-08-18T10:34:47Z</time>
      </trkpt>
      <trkpt lat="48.60003" lon="1.98914">
        <ele>110</ele>
        <time>2013-08-18T10:34:49Z</time>
      </trkpt>
      <trkpt lat="48.59999" lon="1.98919">
        <ele>110</ele>
        <time>2013-08-18T10:34:51Z</time>
      </trkpt>
      <trkpt lat="48.59995" lon="1.98926">
        <ele>110</ele>
        <time>2013-08-18T10:34:53Z</time>
      </trkpt>
      <trkpt lat="48.59991" lon="1.98934">
        <ele>110</ele>
        <time>2013-08-18T10:34:55Z</time>
      </trkpt>
      <trkpt lat="48.59987" lon="1.98941">
        <ele>110</ele>
        <time>2013-08-18T10:34:57Z</time>
      </trkpt>
      <trkpt lat="48.59983" lon="1.98947">
        <ele>109</ele>
        <time>2013-08-18T10:34:59Z</time>
      </trkpt>
      <trkpt lat="48.5998" lon="1.98954">
        <ele>109</ele>
        <time>2013-08-18T10:35:01Z</time>
      </trkpt>
      <trkpt lat="48.59976" lon="1.98962">
        <ele>109</ele>
        <time>2013-08-18T10:35:03Z</time>
      </trkpt>
      <trkpt lat="48.59973" lon="1.98971">
        <ele>109</ele>
        <time>2013-08-18T10:35:05Z</time>
      </trkpt>
      <trkpt lat="48.59969" lon="1.98979">
        <ele>109</ele>
        <time>2013-08-18T10:35:07Z</time>
      </trkpt>
      <trkpt lat="48.59964" lon="1.98988">
        <ele>109</ele>
        <time>2013-08-18T10:35:09Z</time>
      </trkpt>
      <trkpt lat="48.5996" lon="1.98994">
        <ele>109</ele>
        <time>2013-08-18T10:35:11Z</time>
      </trkpt>
      <trkpt lat="48.59956" lon="1.99003">
        <ele>109</ele>
        <time>2013-08-18T10:35:13Z</time>
      </trkpt>
      <trkpt lat="48.59951" lon="1.99011">
        <ele>109</ele>
        <time>2013-08-18T10:35:15Z</time>
      </trkpt>
      <trkpt lat="48.59946" lon="1.9902">
        <ele>109</ele>
        <time>2013-08-18T10:35:17Z</time>
      </trkpt>
      <trkpt lat="48.59941" lon="1.99029">
        <ele>109</ele>
        <time>2013-08-18T10:35:19Z</time>
      </trkpt>
      <trkpt lat="48.59937" lon="1.99038">
        <ele>109</ele>
        <time>2013-08-18T10:35:21Z</time>
      </trkpt>
      <trkpt lat="48.59932" lon="1.99048">
        <ele>110</ele>
        <time>2013-08-18T10:35:23Z</time>
      </trkpt>
      <trkpt lat="48.59927" lon="1.99056">
        <ele>111</ele>
        <time>2013-08-18T10:35:25Z</time>
      </trkpt>
      <trkpt lat="48.59923" lon="1.99065">
        <ele>112</ele>
        <time>2013-08-18T10:35:27Z</time>
      </trkpt>
      <trkpt lat="48.59919" lon="1.99074">
        <ele>112</ele>
        <time>2013-08-18T10:35:29Z</time>
      </trkpt>
      <trkpt lat="48.59916" lon="1.99078">
        <ele>113</ele>
        <time>2013-08-18T10:35:31Z</time>
      </trkpt>
      <trkpt lat="48.59912" lon="1.99084">
        <ele>113</ele>
        <time>2013-08-18T10:35:33Z</time>
      </trkpt>
      <trkpt lat="48.59909" lon="1.99092">
        <ele>113</ele>
        <time>2013-08-18T10:35:35Z</time>
      </trkpt>
      <trkpt lat="48.59905" lon="1.99098">
        <ele>113</ele>
        <time>2013-08-18T10:35:37Z</time>
      </trkpt>
      <trkpt lat="48.59901" lon="1.99107">
        <ele>114</ele>
        <time>2013-08-18T10:35:39Z</time>
      </trkpt>
      <trkpt lat="48.59897" lon="1.99116">
        <ele>115</ele>
        <time>2013-08-18T10:35:41Z</time>
      </trkpt>
      <trkpt lat="48.59893" lon="1.99122">
        <ele>116</ele>
        <time>2013-08-18T10:35:43Z</time>
      </trkpt>
      <trkpt lat="48.5989" lon="1.99129">
        <ele>116</ele>
        <time>2013-08-18T10:35:45Z</time>
      </trkpt>
      <trkpt lat="48.59887" lon="1.99134">
        <ele>116</ele>
        <time>2013-08-18T10:35:47Z</time>
      </trkpt>
      <trkpt lat="48.59882" lon="1.99143">
        <ele>116</ele>
        <time>2013-08-18T10:35:49Z</time>
      </trkpt>
      <trkpt lat="48.59879" lon="1.99151">
        <ele>116</ele>
        <time>2013-08-18T10:35:51Z</time>
      </trkpt>
      <trkpt lat="48.59874" lon="1.99162">
        <ele>116</ele>
        <time>2013-08-18T10:35:53Z</time>
      </trkpt>
      <trkpt lat="48.59871" lon="1.99173">
        <ele>116</ele>
        <time>2013-08-18T10:35:55Z</time>
      </trkpt>
      <trkpt lat="48.59866" lon="1.99185">
        <ele>116</ele>
        <time>2013-08-18T10:35:57Z</time>
      </trkpt>
      <trkpt lat="48.59863" lon="1.99196">
        <ele>116</ele>
        <time>2013-08-18T10:35:59Z</time>
      </trkpt>
      <trkpt lat="48.59859" lon="1.99204">
        <ele>116</ele>
        <time>2013-08-18T10:36:01Z</time>
      </trkpt>
      <trkpt lat="48.59856" lon="1.99214">
        <ele>116</ele>
        <time>2013-08-18T10:36:03Z</time>
      </trkpt>
      <trkpt lat="48.59853" lon="1.9922">
        <ele>116</ele>
        <time>2013-08-18T10:36:05Z</time>
      </trkpt>
      <trkpt lat="48.5985" lon="1.99228">
        <ele>116</ele>
        <time>2013-08-18T10:36:07Z</time>
      </trkpt>
      <trkpt lat="48.59847" lon="1.99236">
        <ele>116</ele>
        <time>2013-08-18T10:36:09Z</time>
      </trkpt>
      <trkpt lat="48.59844" lon="1.99245">
        <ele>116</ele>
        <time>2013-08-18T10:36:11Z</time>
      </trkpt>
      <trkpt lat="48.59841" lon="1.99253">
        <ele>116</ele>
        <time>2013-08-18T10:36:13Z</time>
      </trkpt>
      <trkpt lat="48.59838" lon="1.99261">
        <ele>116</ele>
        <time>2013-08-18T10:36:15Z</time>
      </trkpt>
      <trkpt lat="48.59835" lon="1.99266">
        <ele>116</ele>
        <time>2013-08-18T10:36:18Z</time>
      </trkpt>
      <trkpt lat="48.59834" lon="1.99269">
        <ele>116</ele>
        <time>2013-08-18T10:36:20Z</time>
      </trkpt>
      <trkpt lat="48.59833" lon="1.99273">
        <ele>116</ele>
        <time>2013-08-18T10:36:22Z</time>
      </trkpt>
      <trkpt lat="48.59832" lon="1.99278">
        <ele>117</ele>
        <time>2013-08-18T10:36:24Z</time>
      </trkpt>
      <trkpt lat="48.5983" lon="1.99283">
        <ele>117</ele>
        <time>2013-08-18T10:36:26Z</time>
      </trkpt>
      <trkpt lat="48.59828" lon="1.99286">
        <ele>118</ele>
        <time>2013-08-18T10:36:28Z</time>
      </trkpt>
      <trkpt lat="48.59827" lon="1.99293">
        <ele>119</ele>
        <time>2013-08-18T10:36:30Z</time>
      </trkpt>
      <trkpt lat="48.59825" lon="1.99297">
        <ele>119</ele>
        <time>2013-08-18T10:36:32Z</time>
      </trkpt>
      <trkpt lat="48.59823" lon="1.99302">
        <ele>121</ele>
        <time>2013-08-18T10:36:34Z</time>
      </trkpt>
      <trkpt lat="48.59821" lon="1.99307">
        <ele>122</ele>
        <time>2013-08-18T10:36:36Z</time>
      </trkpt>
      <trkpt lat="48.59819" lon="1.99313">
        <ele>123</ele>
        <time>2013-08-18T10:36:38Z</time>
      </trkpt>
      <trkpt lat="48.59817" lon="1.99319">
        <ele>125</ele>
        <time>2013-08-18T10:36:41Z</time>
      </trkpt>
      <trkpt lat="48.59815" lon="1.99323">
        <ele>126</ele>
        <time>2013-08-18T10:36:43Z</time>
      </trkpt>
      <trkpt lat="48.59814" lon="1.99325">
        <ele>126</ele>
        <time>2013-08-18T10:36:45Z</time>
      </trkpt>
      <trkpt lat="48.59813" lon="1.99326">
        <ele>126</ele>
        <time>2013-08-18T10:36:47Z</time>
      </trkpt>
      <trkpt lat="48.59812" lon="1.99328">
        <ele>126</ele>
        <time>2013-08-18T10:36:49Z</time>
      </trkpt>
      <trkpt lat="48.59812" lon="1.9933">
        <ele>126</ele>
        <time>2013-08-18T10:36:51Z</time>
      </trkpt>
      <trkpt lat="48.59812" lon="1.99332">
        <ele>126</ele>
        <time>2013-08-18T10:36:53Z</time>
      </trkpt>
      <trkpt lat="48.59811" lon="1.99335">
        <ele>126</ele>
        <time>2013-08-18T10:36:55Z</time>
      </trkpt>
      <trkpt lat="48.59809" lon="1.99336">
        <ele>125</ele>
        <time>2013-08-18T10:36:57Z</time>
      </trkpt>
      <trkpt lat="48.59806" lon="1.99337">
        <ele>125</ele>
        <time>2013-08-18T10:37:00Z</time>
      </trkpt>
      <trkpt lat="48.59802" lon="1.99341">
        <ele>125</ele>
        <time>2013-08-18T10:37:02Z</time>
      </trkpt>
      <trkpt lat="48.59798" lon="1.99342">
        <ele>125</ele>
        <time>2013-08-18T10:37:04Z</time>
      </trkpt>
      <trkpt lat="48.59795" lon="1.99342">
        <ele>124</ele>
        <time>2013-08-18T10:37:06Z</time>
      </trkpt>
      <trkpt lat="48.59792" lon="1.99341">
        <ele>124</ele>
        <time>2013-08-18T10:37:08Z</time>
      </trkpt>
      <trkpt lat="48.59789" lon="1.9934">
        <ele>124</ele>
        <time>2013-08-18T10:37:10Z</time>
      </trkpt>
      <trkpt lat="48.59787" lon="1.99339">
        <ele>123</ele>
        <time>2013-08-18T10:37:12Z</time>
      </trkpt>
      <trkpt lat="48.59784" lon="1.99338">
        <ele>122</ele>
        <time>2013-08-18T10:37:14Z</time>
      </trkpt>
      <trkpt lat="48.59781" lon="1.99337">
        <ele>120</ele>
        <time>2013-08-18T10:37:16Z</time>
      </trkpt>
      <trkpt lat="48.59778" lon="1.99336">
        <ele>118</ele>
        <time>2013-08-18T10:37:18Z</time>
      </trkpt>
      <trkpt lat="48.59776" lon="1.99334">
        <ele>116</ele>
        <time>2013-08-18T10:37:20Z</time>
      </trkpt>
      <trkpt lat="48.59773" lon="1.99332">
        <ele>114</ele>
        <time>2013-08-18T10:37:22Z</time>
      </trkpt>
      <trkpt lat="48.59769" lon="1.9933">
        <ele>112</ele>
        <time>2013-08-18T10:37:24Z</time>
      </trkpt>
      <trkpt lat="48.59765" lon="1.9933">
        <ele>110</ele>
        <time>2013-08-18T10:37:26Z</time>
      </trkpt>
      <trkpt lat="48.59761" lon="1.99328">
        <ele>108</ele>
        <time>2013-08-18T10:37:29Z</time>
      </trkpt>
      <trkpt lat="48.59758" lon="1.99329">
        <ele>106</ele>
        <time>2013-08-18T10:37:31Z</time>
      </trkpt>
      <trkpt lat="48.59755" lon="1.99328">
        <ele>105</ele>
        <time>2013-08-18T10:37:33Z</time>
      </trkpt>
      <trkpt lat="48.59753" lon="1.99327">
        <ele>105</ele>
        <time>2013-08-18T10:37:35Z</time>
      </trkpt>
      <trkpt lat="48.59749" lon="1.99327">
        <ele>105</ele>
        <time>2013-08-18T10:37:37Z</time>
      </trkpt>
      <trkpt lat="48.59745" lon="1.99327">
        <ele>105</ele>
        <time>2013-08-18T10:37:39Z</time>
      </trkpt>
      <trkpt lat="48.59742" lon="1.99328">
        <ele>105</ele>
        <time>2013-08-18T10:37:41Z</time>
      </trkpt>
      <trkpt lat="48.59739" lon="1.99328">
        <ele>107</ele>
        <time>2013-08-18T10:37:43Z</time>
      </trkpt>
      <trkpt lat="48.59735" lon="1.99327">
        <ele>108</ele>
        <time>2013-08-18T10:37:45Z</time>
      </trkpt>
      <trkpt lat="48.59732" lon="1.99327">
        <ele>108</ele>
        <time>2013-08-18T10:37:47Z</time>
      </trkpt>
      <trkpt lat="48.59729" lon="1.99328">
        <ele>109</ele>
        <time>2013-08-18T10:37:49Z</time>
      </trkpt>
      <trkpt lat="48.59725" lon="1.99328">
        <ele>110</ele>
        <time>2013-08-18T10:37:51Z</time>
      </trkpt>
      <trkpt lat="48.59722" lon="1.99328">
        <ele>112</ele>
        <time>2013-08-18T10:37:53Z</time>
      </trkpt>
      <trkpt lat="48.59719" lon="1.99328">
        <ele>113</ele>
        <time>2013-08-18T10:37:55Z</time>
      </trkpt>
      <trkpt lat="48.59716" lon="1.99328">
        <ele>113</ele>
        <time>2013-08-18T10:37:57Z</time>
      </trkpt>
      <trkpt lat="48.59713" lon="1.99328">
        <ele>114</ele>
        <time>2013-08-18T10:37:59Z</time>
      </trkpt>
      <trkpt lat="48.5971" lon="1.9933">
        <ele>115</ele>
        <time>2013-08-18T10:38:01Z</time>
      </trkpt>
      <trkpt lat="48.59707" lon="1.99331">
        <ele>116</ele>
        <time>2013-08-18T10:38:03Z</time>
      </trkpt>
      <trkpt lat="48.59703" lon="1.99332">
        <ele>118</ele>
        <time>2013-08-18T10:38:05Z</time>
      </trkpt>
      <trkpt lat="48.597" lon="1.99332">
        <ele>120</ele>
        <time>2013-08-18T10:38:07Z</time>
      </trkpt>
      <trkpt lat="48.59697" lon="1.99333">
        <ele>121</ele>
        <time>2013-08-18T10:38:09Z</time>
      </trkpt>
      <trkpt lat="48.59693" lon="1.99334">
        <ele>122</ele>
        <time>2013-08-18T10:38:11Z</time>
      </trkpt>
      <trkpt lat="48.5969" lon="1.99336">
        <ele>122</ele>
        <time>2013-08-18T10:38:13Z</time>
      </trkpt>
      <trkpt lat="48.59687" lon="1.99337">
        <ele>123</ele>
        <time>2013-08-18T10:38:15Z</time>
      </trkpt>
      <trkpt lat="48.59684" lon="1.99338">
        <ele>123</ele>
        <time>2013-08-18T10:38:17Z</time>
      </trkpt>
      <trkpt lat="48.59681" lon="1.99339">
        <ele>123</ele>
        <time>2013-08-18T10:38:19Z</time>
      </trkpt>
      <trkpt lat="48.59678" lon="1.99341">
        <ele>123</ele>
        <time>2013-08-18T10:38:22Z</time>
      </trkpt>
      <trkpt lat="48.59676" lon="1.99341">
        <ele>123</ele>
        <time>2013-08-18T10:38:24Z</time>
      </trkpt>
      <trkpt lat="48.59674" lon="1.99341">
        <ele>123</ele>
        <time>2013-08-18T10:38:26Z</time>
      </trkpt>
      <trkpt lat="48.59671" lon="1.99344">
        <ele>123</ele>
        <time>2013-08-18T10:38:28Z</time>
      </trkpt>
      <trkpt lat="48.59668" lon="1.99345">
        <ele>123</ele>
        <time>2013-08-18T10:38:30Z</time>
      </trkpt>
      <trkpt lat="48.59666" lon="1.99345">
        <ele>123</ele>
        <time>2013-08-18T10:38:32Z</time>
      </trkpt>
      <trkpt lat="48.59663" lon="1.99348">
        <ele>123</ele>
        <time>2013-08-18T10:38:34Z</time>
      </trkpt>
      <trkpt lat="48.59661" lon="1.9935">
        <ele>123</ele>
        <time>2013-08-18T10:38:36Z</time>
      </trkpt>
      <trkpt lat="48.59658" lon="1.9935">
        <ele>123</ele>
        <time>2013-08-18T10:38:38Z</time>
      </trkpt>
      <trkpt lat="48.59655" lon="1.99349">
        <ele>123</ele>
        <time>2013-08-18T10:38:40Z</time>
      </trkpt>
      <trkpt lat="48.59651" lon="1.9935">
        <ele>123</ele>
        <time>2013-08-18T10:38:42Z</time>
      </trkpt>
      <trkpt lat="48.59649" lon="1.99352">
        <ele>123</ele>
        <time>2013-08-18T10:38:44Z</time>
      </trkpt>
      <trkpt lat="48.59646" lon="1.99357">
        <ele>122</ele>
        <time>2013-08-18T10:38:47Z</time>
      </trkpt>
      <trkpt lat="48.59644" lon="1.99358">
        <ele>122</ele>
        <time>2013-08-18T10:38:49Z</time>
      </trkpt>
      <trkpt lat="48.59643" lon="1.99357">
        <ele>121</ele>
        <time>2013-08-18T10:39:15Z</time>
      </trkpt>
      <trkpt lat="48.59644" lon="1.99357">
        <ele>121</ele>
        <time>2013-08-18T10:39:29Z</time>
      </trkpt>
      <trkpt lat="48.59643" lon="1.99357">
        <ele>119</ele>
        <time>2013-08-18T10:39:41Z</time>
      </trkpt>
      <trkpt lat="48.59641" lon="1.99357">
        <ele>119</ele>
        <time>2013-08-18T10:39:44Z</time>
      </trkpt>
      <trkpt lat="48.59639" lon="1.99358">
        <ele>119</ele>
        <time>2013-08-18T10:39:46Z</time>
      </trkpt>
      <trkpt lat="48.59636" lon="1.99359">
        <ele>119</ele>
        <time>2013-08-18T10:39:49Z</time>
      </trkpt>
      <trkpt lat="48.59632" lon="1.9936">
        <ele>119</ele>
        <time>2013-08-18T10:39:51Z</time>
      </trkpt>
      <trkpt lat="48.59629" lon="1.99361">
        <ele>119</ele>
        <time>2013-08-18T10:39:53Z</time>
      </trkpt>
      <trkpt lat="48.59626" lon="1.99363">
        <ele>119</ele>
        <time>2013-08-18T10:39:55Z</time>
      </trkpt>
      <trkpt lat="48.59623" lon="1.99365">
        <ele>119</ele>
        <time>2013-08-18T10:39:57Z</time>
      </trkpt>
      <trkpt lat="48.5962" lon="1.99366">
        <ele>119</ele>
        <time>2013-08-18T10:40:00Z</time>
      </trkpt>
      <trkpt lat="48.59618" lon="1.99368">
        <ele>119</ele>
        <time>2013-08-18T10:40:02Z</time>
      </trkpt>
      <trkpt lat="48.59615" lon="1.99371">
        <ele>119</ele>
        <time>2013-08-18T10:40:05Z</time>
      </trkpt>
      <trkpt lat="48.59613" lon="1.99373">
        <ele>119</ele>
        <time>2013-08-18T10:40:07Z</time>
      </trkpt>
      <trkpt lat="48.59612" lon="1.99377">
        <ele>118</ele>
        <time>2013-08-18T10:40:09Z</time>
      </trkpt>
      <trkpt lat="48.59611" lon="1.9938">
        <ele>118</ele>
        <time>2013-08-18T10:40:11Z</time>
      </trkpt>
      <trkpt lat="48.5961" lon="1.99383">
        <ele>117</ele>
        <time>2013-08-18T10:40:13Z</time>
      </trkpt>
      <trkpt lat="48.5961" lon="1.99388">
        <ele>116</ele>
        <time>2013-08-18T10:40:15Z</time>
      </trkpt>
      <trkpt lat="48.5961" lon="1.99392">
        <ele>116</ele>
        <time>2013-08-18T10:40:17Z</time>
      </trkpt>
      <trkpt lat="48.5961" lon="1.99396">
        <ele>116</ele>
        <time>2013-08-18T10:40:19Z</time>
      </trkpt>
      <trkpt lat="48.59612" lon="1.994">
        <ele>116</ele>
        <time>2013-08-18T10:40:21Z</time>
      </trkpt>
      <trkpt lat="48.59613" lon="1.99404">
        <ele>116</ele>
        <time>2013-08-18T10:40:23Z</time>
      </trkpt>
      <trkpt lat="48.59613" lon="1.99408">
        <ele>116</ele>
        <time>2013-08-18T10:40:25Z</time>
      </trkpt>
      <trkpt lat="48.59614" lon="1.99413">
        <ele>116</ele>
        <time>2013-08-18T10:40:27Z</time>
      </trkpt>
      <trkpt lat="48.59615" lon="1.99417">
        <ele>116</ele>
        <time>2013-08-18T10:40:29Z</time>
      </trkpt>
      <trkpt lat="48.59615" lon="1.99422">
        <ele>116</ele>
        <time>2013-08-18T10:40:31Z</time>
      </trkpt>
      <trkpt lat="48.59616" lon="1.99427">
        <ele>115</ele>
        <time>2013-08-18T10:40:33Z</time>
      </trkpt>
      <trkpt lat="48.59616" lon="1.99431">
        <ele>115</ele>
        <time>2013-08-18T10:40:35Z</time>
      </trkpt>
      <trkpt lat="48.59617" lon="1.99435">
        <ele>115</ele>
        <time>2013-08-18T10:40:37Z</time>
      </trkpt>
      <trkpt lat="48.59618" lon="1.9944">
        <ele>115</ele>
        <time>2013-08-18T10:40:39Z</time>
      </trkpt>
      <trkpt lat="48.59619" lon="1.99445">
        <ele>114</ele>
        <time>2013-08-18T10:40:41Z</time>
      </trkpt>
      <trkpt lat="48.5962" lon="1.9945">
        <ele>114</ele>
        <time>2013-08-18T10:40:43Z</time>
      </trkpt>
      <trkpt lat="48.59621" lon="1.99454">
        <ele>114</ele>
        <time>2013-08-18T10:40:45Z</time>
      </trkpt>
      <trkpt lat="48.59622" lon="1.99456">
        <ele>114</ele>
        <time>2013-08-18T10:40:47Z</time>
      </trkpt>
      <trkpt lat="48.59623" lon="1.99458">
        <ele>114</ele>
        <time>2013-08-18T10:40:52Z</time>
      </trkpt>
      <trkpt lat="48.59624" lon="1.99462">
        <ele>114</ele>
        <time>2013-08-18T10:40:54Z</time>
      </trkpt>
      <trkpt lat="48.59625" lon="1.99467">
        <ele>114</ele>
        <time>2013-08-18T10:40:56Z</time>
      </trkpt>
      <trkpt lat="48.59626" lon="1.99471">
        <ele>114</ele>
        <time>2013-08-18T10:40:58Z</time>
      </trkpt>
      <trkpt lat="48.59627" lon="1.99476">
        <ele>114</ele>
        <time>2013-08-18T10:41:00Z</time>
      </trkpt>
      <trkpt lat="48.59628" lon="1.99479">
        <ele>114</ele>
        <time>2013-08-18T10:41:02Z</time>
      </trkpt>
      <trkpt lat="48.59628" lon="1.99484">
        <ele>114</ele>
        <time>2013-08-18T10:41:04Z</time>
      </trkpt>
      <trkpt lat="48.59629" lon="1.9949">
        <ele>114</ele>
        <time>2013-08-18T10:41:06Z</time>
      </trkpt>
      <trkpt lat="48.59629" lon="1.99495">
        <ele>113</ele>
        <time>2013-08-18T10:41:08Z</time>
      </trkpt>
      <trkpt lat="48.59629" lon="1.99501">
        <ele>113</ele>
        <time>2013-08-18T10:41:10Z</time>
      </trkpt>
      <trkpt lat="48.5963" lon="1.99506">
        <ele>113</ele>
        <time>2013-08-18T10:41:12Z</time>
      </trkpt>
      <trkpt lat="48.59632" lon="1.99511">
        <ele>113</ele>
        <time>2013-08-18T10:41:14Z</time>
      </trkpt>
      <trkpt lat="48.59632" lon="1.99515">
        <ele>113</ele>
        <time>2013-08-18T10:41:16Z</time>
      </trkpt>
      <trkpt lat="48.59632" lon="1.99519">
        <ele>113</ele>
        <time>2013-08-18T10:41:18Z</time>
      </trkpt>
      <trkpt lat="48.59632" lon="1.99523">
        <ele>113</ele>
        <time>2013-08-18T10:41:20Z</time>
      </trkpt>
      <trkpt lat="48.59634" lon="1.99529">
        <ele>113</ele>
        <time>2013-08-18T10:41:22Z</time>
      </trkpt>
      <trkpt lat="48.59635" lon="1.99533">
        <ele>113</ele>
        <time>2013-08-18T10:41:24Z</time>
      </trkpt>
      <trkpt lat="48.59635" lon="1.99539">
        <ele>113</ele>
        <time>2013-08-18T10:41:26Z</time>
      </trkpt>
      <trkpt lat="48.59635" lon="1.99545">
        <ele>113</ele>
        <time>2013-08-18T10:41:28Z</time>
      </trkpt>
      <trkpt lat="48.59636" lon="1.9955">
        <ele>113</ele>
        <time>2013-08-18T10:41:30Z</time>
      </trkpt>
      <trkpt lat="48.59637" lon="1.99555">
        <ele>113</ele>
        <time>2013-08-18T10:41:32Z</time>
      </trkpt>
      <trkpt lat="48.5964" lon="1.99559">
        <ele>113</ele>
        <time>2013-08-18T10:41:34Z</time>
      </trkpt>
      <trkpt lat="48.59642" lon="1.99565">
        <ele>112</ele>
        <time>2013-08-18T10:41:36Z</time>
      </trkpt>
      <trkpt lat="48.59644" lon="1.99569">
        <ele>112</ele>
        <time>2013-08-18T10:41:38Z</time>
      </trkpt>
      <trkpt lat="48.59645" lon="1.99574">
        <ele>112</ele>
        <time>2013-08-18T10:41:40Z</time>
      </trkpt>
      <trkpt lat="48.59646" lon="1.99579">
        <ele>112</ele>
        <time>2013-08-18T10:41:42Z</time>
      </trkpt>
      <trkpt lat="48.59647" lon="1.99584">
        <ele>112</ele>
        <time>2013-08-18T10:41:44Z</time>
      </trkpt>
      <trkpt lat="48.59646" lon="1.9959">
        <ele>112</ele>
        <time>2013-08-18T10:41:46Z</time>
      </trkpt>
      <trkpt lat="48.59647" lon="1.99594">
        <ele>112</ele>
        <time>2013-08-18T10:41:48Z</time>
      </trkpt>
      <trkpt lat="48.59648" lon="1.996">
        <ele>112</ele>
        <time>2013-08-18T10:41:50Z</time>
      </trkpt>
      <trkpt lat="48.59648" lon="1.99603">
        <ele>112</ele>
        <time>2013-08-18T10:41:52Z</time>
      </trkpt>
      <trkpt lat="48.59649" lon="1.99608">
        <ele>112</ele>
        <time>2013-08-18T10:41:54Z</time>
      </trkpt>
      <trkpt lat="48.5965" lon="1.99613">
        <ele>112</ele>
        <time>2013-08-18T10:41:56Z</time>
      </trkpt>
      <trkpt lat="48.59651" lon="1.99618">
        <ele>112</ele>
        <time>2013-08-18T10:41:58Z</time>
      </trkpt>
      <trkpt lat="48.5965" lon="1.99625">
        <ele>112</ele>
        <time>2013-08-18T10:42:00Z</time>
      </trkpt>
      <trkpt lat="48.59651" lon="1.99632">
        <ele>112</ele>
        <time>2013-08-18T10:42:02Z</time>
      </trkpt>
      <trkpt lat="48.59652" lon="1.99638">
        <ele>112</ele>
        <time>2013-08-18T10:42:04Z</time>
      </trkpt>
      <trkpt lat="48.59652" lon="1.99647">
        <ele>112</ele>
        <time>2013-08-18T10:42:07Z</time>
      </trkpt>
      <trkpt lat="48.59653" lon="1.99653">
        <ele>112</ele>
        <time>2013-08-18T10:42:10Z</time>
      </trkpt>
      <trkpt lat="48.59653" lon="1.99659">
        <ele>112</ele>
        <time>2013-08-18T10:42:12Z</time>
      </trkpt>
      <trkpt lat="48.59654" lon="1.99666">
        <ele>112</ele>
        <time>2013-08-18T10:42:14Z</time>
      </trkpt>
      <trkpt lat="48.59653" lon="1.99673">
        <ele>112</ele>
        <time>2013-08-18T10:42:16Z</time>
      </trkpt>
      <trkpt lat="48.59653" lon="1.99677">
        <ele>112</ele>
        <time>2013-08-18T10:42:18Z</time>
      </trkpt>
      <trkpt lat="48.59653" lon="1.99682">
        <ele>112</ele>
        <time>2013-08-18T10:42:20Z</time>
      </trkpt>
      <trkpt lat="48.59655" lon="1.99686">
        <ele>112</ele>
        <time>2013-08-18T10:42:23Z</time>
      </trkpt>
      <trkpt lat="48.59656" lon="1.9969">
        <ele>112</ele>
        <time>2013-08-18T10:42:25Z</time>
      </trkpt>
      <trkpt lat="48.59657" lon="1.99695">
        <ele>111</ele>
        <time>2013-08-18T10:42:27Z</time>
      </trkpt>
      <trkpt lat="48.59658" lon="1.997">
        <ele>110</ele>
        <time>2013-08-18T10:42:29Z</time>
      </trkpt>
      <trkpt lat="48.59658" lon="1.99705">
        <ele>109</ele>
        <time>2013-08-18T10:42:31Z</time>
      </trkpt>
      <trkpt lat="48.59658" lon="1.99709">
        <ele>109</ele>
        <time>2013-08-18T10:42:33Z</time>
      </trkpt>
      <trkpt lat="48.59659" lon="1.99715">
        <ele>108</ele>
        <time>2013-08-18T10:42:35Z</time>
      </trkpt>
      <trkpt lat="48.5966" lon="1.99719">
        <ele>108</ele>
        <time>2013-08-18T10:42:37Z</time>
      </trkpt>
      <trkpt lat="48.5966" lon="1.99723">
        <ele>107</ele>
        <time>2013-08-18T10:42:39Z</time>
      </trkpt>
      <trkpt lat="48.59661" lon="1.99729">
        <ele>107</ele>
        <time>2013-08-18T10:42:41Z</time>
      </trkpt>
      <trkpt lat="48.59662" lon="1.99734">
        <ele>107</ele>
        <time>2013-08-18T10:42:43Z</time>
      </trkpt>
      <trkpt lat="48.59663" lon="1.9974">
        <ele>107</ele>
        <time>2013-08-18T10:42:45Z</time>
      </trkpt>
      <trkpt lat="48.59664" lon="1.99746">
        <ele>107</ele>
        <time>2013-08-18T10:42:47Z</time>
      </trkpt>
      <trkpt lat="48.59665" lon="1.9975">
        <ele>107</ele>
        <time>2013-08-18T10:42:49Z</time>
      </trkpt>
      <trkpt lat="48.59666" lon="1.99754">
        <ele>107</ele>
        <time>2013-08-18T10:42:51Z</time>
      </trkpt>
      <trkpt lat="48.59667" lon="1.99759">
        <ele>107</ele>
        <time>2013-08-18T10:42:53Z</time>
      </trkpt>
      <trkpt lat="48.59667" lon="1.99764">
        <ele>107</ele>
        <time>2013-08-18T10:42:55Z</time>
      </trkpt>
      <trkpt lat="48.59668" lon="1.99771">
        <ele>107</ele>
        <time>2013-08-18T10:42:57Z</time>
      </trkpt>
      <trkpt lat="48.59668" lon="1.99776">
        <ele>107</ele>
        <time>2013-08-18T10:42:59Z</time>
      </trkpt>
      <trkpt lat="48.59668" lon="1.99782">
        <ele>107</ele>
        <time>2013-08-18T10:43:01Z</time>
      </trkpt>
      <trkpt lat="48.59669" lon="1.99786">
        <ele>107</ele>
        <time>2013-08-18T10:43:03Z</time>
      </trkpt>
      <trkpt lat="48.5967" lon="1.99792">
        <ele>107</ele>
        <time>2013-08-18T10:43:05Z</time>
      </trkpt>
      <trkpt lat="48.59671" lon="1.99797">
        <ele>107</ele>
        <time>2013-08-18T10:43:07Z</time>
      </trkpt>
      <trkpt lat="48.59671" lon="1.99801">
        <ele>107</ele>
        <time>2013-08-18T10:43:09Z</time>
      </trkpt>
      <trkpt lat="48.59673" lon="1.99805">
        <ele>107</ele>
        <time>2013-08-18T10:43:11Z</time>
      </trkpt>
      <trkpt lat="48.59673" lon="1.99809">
        <ele>107</ele>
        <time>2013-08-18T10:43:13Z</time>
      </trkpt>
      <trkpt lat="48.59675" lon="1.99814">
        <ele>107</ele>
        <time>2013-08-18T10:43:16Z</time>
      </trkpt>
      <trkpt lat="48.59676" lon="1.99819">
        <ele>107</ele>
        <time>2013-08-18T10:43:18Z</time>
      </trkpt>
      <trkpt lat="48.59678" lon="1.99822">
        <ele>107</ele>
        <time>2013-08-18T10:43:20Z</time>
      </trkpt>
      <trkpt lat="48.59678" lon="1.99827">
        <ele>107</ele>
        <time>2013-08-18T10:43:22Z</time>
      </trkpt>
      <trkpt lat="48.59676" lon="1.99832">
        <ele>106</ele>
        <time>2013-08-18T10:43:24Z</time>
      </trkpt>
      <trkpt lat="48.59673" lon="1.99836">
        <ele>106</ele>
        <time>2013-08-18T10:43:26Z</time>
      </trkpt>
      <trkpt lat="48.59669" lon="1.99837">
        <ele>106</ele>
        <time>2013-08-18T10:43:28Z</time>
      </trkpt>
      <trkpt lat="48.59666" lon="1.99838">
        <ele>105</ele>
        <time>2013-08-18T10:43:30Z</time>
      </trkpt>
      <trkpt lat="48.59663" lon="1.99839">
        <ele>105</ele>
        <time>2013-08-18T10:43:32Z</time>
      </trkpt>
      <trkpt lat="48.5966" lon="1.99841">
        <ele>105</ele>
        <time>2013-08-18T10:43:34Z</time>
      </trkpt>
      <trkpt lat="48.59656" lon="1.99842">
        <ele>105</ele>
        <time>2013-08-18T10:43:36Z</time>
      </trkpt>
      <trkpt lat="48.59652" lon="1.9984">
        <ele>104</ele>
        <time>2013-08-18T10:43:38Z</time>
      </trkpt>
      <trkpt lat="48.5965" lon="1.99837">
        <ele>103</ele>
        <time>2013-08-18T10:43:40Z</time>
      </trkpt>
      <trkpt lat="48.59647" lon="1.99835">
        <ele>102</ele>
        <time>2013-08-18T10:43:42Z</time>
      </trkpt>
      <trkpt lat="48.59644" lon="1.99832">
        <ele>102</ele>
        <time>2013-08-18T10:43:44Z</time>
      </trkpt>
      <trkpt lat="48.59641" lon="1.99828">
        <ele>101</ele>
        <time>2013-08-18T10:43:46Z</time>
      </trkpt>
      <trkpt lat="48.59638" lon="1.99825">
        <ele>101</ele>
        <time>2013-08-18T10:43:48Z</time>
      </trkpt>
      <trkpt lat="48.59636" lon="1.99821">
        <ele>100</ele>
        <time>2013-08-18T10:43:50Z</time>
      </trkpt>
      <trkpt lat="48.59633" lon="1.99818">
        <ele>99</ele>
        <time>2013-08-18T10:43:52Z</time>
      </trkpt>
      <trkpt lat="48.59631" lon="1.99815">
        <ele>98</ele>
        <time>2013-08-18T10:43:54Z</time>
      </trkpt>
      <trkpt lat="48.59627" lon="1.99813">
        <ele>98</ele>
        <time>2013-08-18T10:43:56Z</time>
      </trkpt>
      <trkpt lat="48.59625" lon="1.99811">
        <ele>98</ele>
        <time>2013-08-18T10:43:58Z</time>
      </trkpt>
      <trkpt lat="48.59622" lon="1.99807">
        <ele>98</ele>
        <time>2013-08-18T10:44:00Z</time>
      </trkpt>
      <trkpt lat="48.5962" lon="1.99804">
        <ele>98</ele>
        <time>2013-08-18T10:44:02Z</time>
      </trkpt>
      <trkpt lat="48.59618" lon="1.99799">
        <ele>98</ele>
        <time>2013-08-18T10:44:04Z</time>
      </trkpt>
      <trkpt lat="48.59615" lon="1.99796">
        <ele>98</ele>
        <time>2013-08-18T10:44:06Z</time>
      </trkpt>
      <trkpt lat="48.59612" lon="1.99792">
        <ele>98</ele>
        <time>2013-08-18T10:44:08Z</time>
      </trkpt>
      <trkpt lat="48.59608" lon="1.99788">
        <ele>98</ele>
        <time>2013-08-18T10:44:10Z</time>
      </trkpt>
      <trkpt lat="48.59605" lon="1.99785">
        <ele>98</ele>
        <time>2013-08-18T10:44:12Z</time>
      </trkpt>
      <trkpt lat="48.59602" lon="1.99782">
        <ele>98</ele>
        <time>2013-08-18T10:44:14Z</time>
      </trkpt>
      <trkpt lat="48.59599" lon="1.99777">
        <ele>98</ele>
        <time>2013-08-18T10:44:17Z</time>
      </trkpt>
      <trkpt lat="48.59596" lon="1.99774">
        <ele>98</ele>
        <time>2013-08-18T10:44:19Z</time>
      </trkpt>
      <trkpt lat="48.59594" lon="1.9977">
        <ele>97</ele>
        <time>2013-08-18T10:44:21Z</time>
      </trkpt>
      <trkpt lat="48.59591" lon="1.99767">
        <ele>95</ele>
        <time>2013-08-18T10:44:23Z</time>
      </trkpt>
      <trkpt lat="48.59589" lon="1.99763">
        <ele>95</ele>
        <time>2013-08-18T10:44:25Z</time>
      </trkpt>
      <trkpt lat="48.59586" lon="1.99761">
        <ele>94</ele>
        <time>2013-08-18T10:44:27Z</time>
      </trkpt>
      <trkpt lat="48.59582" lon="1.99758">
        <ele>94</ele>
        <time>2013-08-18T10:44:29Z</time>
      </trkpt>
      <trkpt lat="48.59579" lon="1.99757">
        <ele>94</ele>
        <time>2013-08-18T10:44:31Z</time>
      </trkpt>
      <trkpt lat="48.59576" lon="1.9976">
        <ele>94</ele>
        <time>2013-08-18T10:44:33Z</time>
      </trkpt>
      <trkpt lat="48.59572" lon="1.99762">
        <ele>94</ele>
        <time>2013-08-18T10:44:35Z</time>
      </trkpt>
      <trkpt lat="48.59568" lon="1.99764">
        <ele>94</ele>
        <time>2013-08-18T10:44:37Z</time>
      </trkpt>
      <trkpt lat="48.59565" lon="1.99765">
        <ele>94</ele>
        <time>2013-08-18T10:44:39Z</time>
      </trkpt>
      <trkpt lat="48.59562" lon="1.99767">
        <ele>94</ele>
        <time>2013-08-18T10:44:41Z</time>
      </trkpt>
      <trkpt lat="48.59559" lon="1.99771">
        <ele>94</ele>
        <time>2013-08-18T10:44:44Z</time>
      </trkpt>
      <trkpt lat="48.59555" lon="1.99776">
        <ele>94</ele>
        <time>2013-08-18T10:44:46Z</time>
      </trkpt>
      <trkpt lat="48.59552" lon="1.99781">
        <ele>95</ele>
        <time>2013-08-18T10:44:48Z</time>
      </trkpt>
      <trkpt lat="48.5955" lon="1.99786">
        <ele>96</ele>
        <time>2013-08-18T10:44:50Z</time>
      </trkpt>
      <trkpt lat="48.59548" lon="1.99791">
        <ele>96</ele>
        <time>2013-08-18T10:44:52Z</time>
      </trkpt>
      <trkpt lat="48.59546" lon="1.99796">
        <ele>96</ele>
        <time>2013-08-18T10:44:54Z</time>
      </trkpt>
      <trkpt lat="48.59542" lon="1.99803">
        <ele>97</ele>
        <time>2013-08-18T10:44:56Z</time>
      </trkpt>
      <trkpt lat="48.59541" lon="1.99812">
        <ele>99</ele>
        <time>2013-08-18T10:44:58Z</time>
      </trkpt>
      <trkpt lat="48.59539" lon="1.99818">
        <ele>101</ele>
        <time>2013-08-18T10:45:00Z</time>
      </trkpt>
      <trkpt lat="48.59537" lon="1.99818">
        <ele>102</ele>
        <time>2013-08-18T10:45:02Z</time>
      </trkpt>
      <trkpt lat="48.59536" lon="1.9982">
        <ele>102</ele>
        <time>2013-08-18T10:45:04Z</time>
      </trkpt>
      <trkpt lat="48.59532" lon="1.99827">
        <ele>102</ele>
        <time>2013-08-18T10:45:07Z</time>
      </trkpt>
      <trkpt lat="48.59529" lon="1.99834">
        <ele>102</ele>
        <time>2013-08-18T10:45:09Z</time>
      </trkpt>
      <trkpt lat="48.59527" lon="1.99838">
        <ele>102</ele>
        <time>2013-08-18T10:45:11Z</time>
      </trkpt>
      <trkpt lat="48.59524" lon="1.9984">
        <ele>102</ele>
        <time>2013-08-18T10:45:13Z</time>
      </trkpt>
      <trkpt lat="48.59521" lon="1.99843">
        <ele>102</ele>
        <time>2013-08-18T10:45:15Z</time>
      </trkpt>
      <trkpt lat="48.59519" lon="1.99847">
        <ele>102</ele>
        <time>2013-08-18T10:45:18Z</time>
      </trkpt>
      <trkpt lat="48.59518" lon="1.99849">
        <ele>102</ele>
        <time>2013-08-18T10:45:20Z</time>
      </trkpt>
      <trkpt lat="48.59515" lon="1.99852">
        <ele>102</ele>
        <time>2013-08-18T10:45:22Z</time>
      </trkpt>
      <trkpt lat="48.59514" lon="1.99853">
        <ele>102</ele>
        <time>2013-08-18T10:45:24Z</time>
      </trkpt>
      <trkpt lat="48.59512" lon="1.99855">
        <ele>102</ele>
        <time>2013-08-18T10:45:26Z</time>
      </trkpt>
      <trkpt lat="48.59509" lon="1.99861">
        <ele>102</ele>
        <time>2013-08-18T10:45:28Z</time>
      </trkpt>
      <trkpt lat="48.59507" lon="1.99865">
        <ele>102</ele>
        <time>2013-08-18T10:45:30Z</time>
      </trkpt>
      <trkpt lat="48.59505" lon="1.99869">
        <ele>102</ele>
        <time>2013-08-18T10:45:32Z</time>
      </trkpt>
      <trkpt lat="48.59504" lon="1.99871">
        <ele>102</ele>
        <time>2013-08-18T10:45:34Z</time>
      </trkpt>
      <trkpt lat="48.59501" lon="1.99876">
        <ele>102</ele>
        <time>2013-08-18T10:45:37Z</time>
      </trkpt>
      <trkpt lat="48.595" lon="1.9988">
        <ele>102</ele>
        <time>2013-08-18T10:45:39Z</time>
      </trkpt>
      <trkpt lat="48.595" lon="1.99882">
        <ele>102</ele>
        <time>2013-08-18T10:45:41Z</time>
      </trkpt>
      <trkpt lat="48.59499" lon="1.99887">
        <ele>101</ele>
        <time>2013-08-18T10:45:43Z</time>
      </trkpt>
      <trkpt lat="48.59498" lon="1.99892">
        <ele>101</ele>
        <time>2013-08-18T10:45:45Z</time>
      </trkpt>
      <trkpt lat="48.59496" lon="1.99896">
        <ele>101</ele>
        <time>2013-08-18T10:45:47Z</time>
      </trkpt>
      <trkpt lat="48.59494" lon="1.999">
        <ele>101</ele>
        <time>2013-08-18T10:45:49Z</time>
      </trkpt>
      <trkpt lat="48.59493" lon="1.99906">
        <ele>101</ele>
        <time>2013-08-18T10:45:51Z</time>
      </trkpt>
      <trkpt lat="48.59491" lon="1.99912">
        <ele>101</ele>
        <time>2013-08-18T10:45:53Z</time>
      </trkpt>
      <trkpt lat="48.59488" lon="1.99917">
        <ele>101</ele>
        <time>2013-08-18T10:45:55Z</time>
      </trkpt>
      <trkpt lat="48.59487" lon="1.99921">
        <ele>101</ele>
        <time>2013-08-18T10:45:57Z</time>
      </trkpt>
      <trkpt lat="48.59486" lon="1.99925">
        <ele>101</ele>
        <time>2013-08-18T10:45:59Z</time>
      </trkpt>
      <trkpt lat="48.59484" lon="1.99928">
        <ele>101</ele>
        <time>2013-08-18T10:46:01Z</time>
      </trkpt>
      <trkpt lat="48.59482" lon="1.99931">
        <ele>101</ele>
        <time>2013-08-18T10:46:03Z</time>
      </trkpt>
      <trkpt lat="48.5948" lon="1.99939">
        <ele>101</ele>
        <time>2013-08-18T10:46:05Z</time>
      </trkpt>
      <trkpt lat="48.5948" lon="1.99944">
        <ele>101</ele>
        <time>2013-08-18T10:46:07Z</time>
      </trkpt>
      <trkpt lat="48.59481" lon="1.9995">
        <ele>101</ele>
        <time>2013-08-18T10:46:09Z</time>
      </trkpt>
      <trkpt lat="48.59482" lon="1.99956">
        <ele>101</ele>
        <time>2013-08-18T10:46:11Z</time>
      </trkpt>
      <trkpt lat="48.59484" lon="1.9996">
        <ele>101</ele>
        <time>2013-08-18T10:46:13Z</time>
      </trkpt>
      <trkpt lat="48.59486" lon="1.99962">
        <ele>102</ele>
        <time>2013-08-18T10:46:15Z</time>
      </trkpt>
      <trkpt lat="48.5949" lon="1.99961">
        <ele>103</ele>
        <time>2013-08-18T10:46:17Z</time>
      </trkpt>
      <trkpt lat="48.59491" lon="1.99965">
        <ele>105</ele>
        <time>2013-08-18T10:46:19Z</time>
      </trkpt>
      <trkpt lat="48.59491" lon="1.99972">
        <ele>107</ele>
        <time>2013-08-18T10:46:21Z</time>
      </trkpt>
      <trkpt lat="48.59491" lon="1.99978">
        <ele>108</ele>
        <time>2013-08-18T10:46:23Z</time>
      </trkpt>
      <trkpt lat="48.59489" lon="1.99988">
        <ele>108</ele>
        <time>2013-08-18T10:46:25Z</time>
      </trkpt>
      <trkpt lat="48.59487" lon="1.99993">
        <ele>108</ele>
        <time>2013-08-18T10:46:27Z</time>
      </trkpt>
      <trkpt lat="48.59485" lon="2.00001">
        <ele>108</ele>
        <time>2013-08-18T10:46:29Z</time>
      </trkpt>
      <trkpt lat="48.59483" lon="2.00008">
        <ele>109</ele>
        <time>2013-08-18T10:46:31Z</time>
      </trkpt>
      <trkpt lat="48.59481" lon="2.00012">
        <ele>111</ele>
        <time>2013-08-18T10:46:33Z</time>
      </trkpt>
      <trkpt lat="48.59478" lon="2.00017">
        <ele>112</ele>
        <time>2013-08-18T10:46:35Z</time>
      </trkpt>
      <trkpt lat="48.59476" lon="2.00024">
        <ele>113</ele>
        <time>2013-08-18T10:46:38Z</time>
      </trkpt>
      <trkpt lat="48.59474" lon="2.0003">
        <ele>113</ele>
        <time>2013-08-18T10:46:40Z</time>
      </trkpt>
      <trkpt lat="48.59472" lon="2.00036">
        <ele>113</ele>
        <time>2013-08-18T10:46:42Z</time>
      </trkpt>
      <trkpt lat="48.5947" lon="2.00041">
        <ele>113</ele>
        <time>2013-08-18T10:46:44Z</time>
      </trkpt>
      <trkpt lat="48.59469" lon="2.00046">
        <ele>113</ele>
        <time>2013-08-18T10:46:47Z</time>
      </trkpt>
      <trkpt lat="48.59467" lon="2.0005">
        <ele>113</ele>
        <time>2013-08-18T10:46:49Z</time>
      </trkpt>
      <trkpt lat="48.59466" lon="2.00052">
        <ele>113</ele>
        <time>2013-08-18T10:46:51Z</time>
      </trkpt>
      <trkpt lat="48.59463" lon="2.00059">
        <ele>113</ele>
        <time>2013-08-18T10:46:54Z</time>
      </trkpt>
      <trkpt lat="48.59461" lon="2.00062">
        <ele>113</ele>
        <time>2013-08-18T10:46:56Z</time>
      </trkpt>
      <trkpt lat="48.5946" lon="2.00065">
        <ele>113</ele>
        <time>2013-08-18T10:46:58Z</time>
      </trkpt>
      <trkpt lat="48.59457" lon="2.0007">
        <ele>113</ele>
        <time>2013-08-18T10:47:00Z</time>
      </trkpt>
      <trkpt lat="48.59454" lon="2.00077">
        <ele>113</ele>
        <time>2013-08-18T10:47:02Z</time>
      </trkpt>
      <trkpt lat="48.59452" lon="2.00084">
        <ele>113</ele>
        <time>2013-08-18T10:47:04Z</time>
      </trkpt>
      <trkpt lat="48.5945" lon="2.0009">
        <ele>113</ele>
        <time>2013-08-18T10:47:06Z</time>
      </trkpt>
      <trkpt lat="48.59447" lon="2.00095">
        <ele>113</ele>
        <time>2013-08-18T10:47:08Z</time>
      </trkpt>
      <trkpt lat="48.59446" lon="2.00102">
        <ele>113</ele>
        <time>2013-08-18T10:47:11Z</time>
      </trkpt>
      <trkpt lat="48.59445" lon="2.00105">
        <ele>113</ele>
        <time>2013-08-18T10:47:13Z</time>
      </trkpt>
      <trkpt lat="48.59443" lon="2.0011">
        <ele>113</ele>
        <time>2013-08-18T10:47:15Z</time>
      </trkpt>
      <trkpt lat="48.59441" lon="2.00113">
        <ele>113</ele>
        <time>2013-08-18T10:47:17Z</time>
      </trkpt>
      <trkpt lat="48.59439" lon="2.00117">
        <ele>113</ele>
        <time>2013-08-18T10:47:19Z</time>
      </trkpt>
      <trkpt lat="48.59437" lon="2.00123">
        <ele>113</ele>
        <time>2013-08-18T10:47:21Z</time>
      </trkpt>
      <trkpt lat="48.59434" lon="2.0013">
        <ele>113</ele>
        <time>2013-08-18T10:47:23Z</time>
      </trkpt>
      <trkpt lat="48.59432" lon="2.00134">
        <ele>113</ele>
        <time>2013-08-18T10:47:25Z</time>
      </trkpt>
      <trkpt lat="48.5943" lon="2.0014">
        <ele>113</ele>
        <time>2013-08-18T10:47:27Z</time>
      </trkpt>
      <trkpt lat="48.59427" lon="2.00146">
        <ele>113</ele>
        <time>2013-08-18T10:47:29Z</time>
      </trkpt>
      <trkpt lat="48.59424" lon="2.00155">
        <ele>113</ele>
        <time>2013-08-18T10:47:31Z</time>
      </trkpt>
      <trkpt lat="48.59421" lon="2.00162">
        <ele>113</ele>
        <time>2013-08-18T10:47:33Z</time>
      </trkpt>
      <trkpt lat="48.5942" lon="2.00164">
        <ele>113</ele>
        <time>2013-08-18T10:47:35Z</time>
      </trkpt>
      <trkpt lat="48.59418" lon="2.00169">
        <ele>113</ele>
        <time>2013-08-18T10:47:38Z</time>
      </trkpt>
      <trkpt lat="48.59417" lon="2.00171">
        <ele>113</ele>
        <time>2013-08-18T10:47:40Z</time>
      </trkpt>
      <trkpt lat="48.59416" lon="2.00175">
        <ele>113</ele>
        <time>2013-08-18T10:47:42Z</time>
      </trkpt>
      <trkpt lat="48.59414" lon="2.0018">
        <ele>113</ele>
        <time>2013-08-18T10:47:44Z</time>
      </trkpt>
      <trkpt lat="48.59412" lon="2.00184">
        <ele>113</ele>
        <time>2013-08-18T10:47:46Z</time>
      </trkpt>
      <trkpt lat="48.59409" lon="2.0019">
        <ele>113</ele>
        <time>2013-08-18T10:47:49Z</time>
      </trkpt>
      <trkpt lat="48.59406" lon="2.00195">
        <ele>113</ele>
        <time>2013-08-18T10:47:51Z</time>
      </trkpt>
      <trkpt lat="48.59404" lon="2.00202">
        <ele>113</ele>
        <time>2013-08-18T10:47:53Z</time>
      </trkpt>
      <trkpt lat="48.59401" lon="2.00208">
        <ele>113</ele>
        <time>2013-08-18T10:47:55Z</time>
      </trkpt>
      <trkpt lat="48.59399" lon="2.0021">
        <ele>112</ele>
        <time>2013-08-18T10:47:57Z</time>
      </trkpt>
      <trkpt lat="48.59397" lon="2.00212">
        <ele>112</ele>
        <time>2013-08-18T10:47:59Z</time>
      </trkpt>
      <trkpt lat="48.59395" lon="2.00215">
        <ele>111</ele>
        <time>2013-08-18T10:48:01Z</time>
      </trkpt>
      <trkpt lat="48.59392" lon="2.00219">
        <ele>110</ele>
        <time>2013-08-18T10:48:03Z</time>
      </trkpt>
      <trkpt lat="48.59391" lon="2.00223">
        <ele>110</ele>
        <time>2013-08-18T10:48:05Z</time>
      </trkpt>
      <trkpt lat="48.59388" lon="2.00227">
        <ele>110</ele>
        <time>2013-08-18T10:48:07Z</time>
      </trkpt>
      <trkpt lat="48.59386" lon="2.0023">
        <ele>109</ele>
        <time>2013-08-18T10:48:09Z</time>
      </trkpt>
      <trkpt lat="48.59384" lon="2.00234">
        <ele>109</ele>
        <time>2013-08-18T10:48:11Z</time>
      </trkpt>
      <trkpt lat="48.59382" lon="2.00238">
        <ele>108</ele>
        <time>2013-08-18T10:48:13Z</time>
      </trkpt>
      <trkpt lat="48.5938" lon="2.0024">
        <ele>108</ele>
        <time>2013-08-18T10:48:15Z</time>
      </trkpt>
      <trkpt lat="48.59377" lon="2.00244">
        <ele>108</ele>
        <time>2013-08-18T10:48:17Z</time>
      </trkpt>
      <trkpt lat="48.59375" lon="2.00249">
        <ele>108</ele>
        <time>2013-08-18T10:48:19Z</time>
      </trkpt>
      <trkpt lat="48.59373" lon="2.00254">
        <ele>107</ele>
        <time>2013-08-18T10:48:21Z</time>
      </trkpt>
      <trkpt lat="48.59371" lon="2.00258">
        <ele>107</ele>
        <time>2013-08-18T10:48:23Z</time>
      </trkpt>
      <trkpt lat="48.59368" lon="2.00259">
        <ele>107</ele>
        <time>2013-08-18T10:48:26Z</time>
      </trkpt>
      <trkpt lat="48.59366" lon="2.00264">
        <ele>106</ele>
        <time>2013-08-18T10:48:28Z</time>
      </trkpt>
      <trkpt lat="48.59365" lon="2.00268">
        <ele>106</ele>
        <time>2013-08-18T10:48:30Z</time>
      </trkpt>
      <trkpt lat="48.59362" lon="2.00273">
        <ele>106</ele>
        <time>2013-08-18T10:48:32Z</time>
      </trkpt>
      <trkpt lat="48.5936" lon="2.00277">
        <ele>106</ele>
        <time>2013-08-18T10:48:34Z</time>
      </trkpt>
      <trkpt lat="48.59357" lon="2.00284">
        <ele>106</ele>
        <time>2013-08-18T10:48:37Z</time>
      </trkpt>
      <trkpt lat="48.59354" lon="2.00289">
        <ele>106</ele>
        <time>2013-08-18T10:48:39Z</time>
      </trkpt>
      <trkpt lat="48.59351" lon="2.00294">
        <ele>106</ele>
        <time>2013-08-18T10:48:41Z</time>
      </trkpt>
      <trkpt lat="48.59348" lon="2.00299">
        <ele>105</ele>
        <time>2013-08-18T10:48:43Z</time>
      </trkpt>
      <trkpt lat="48.59345" lon="2.00302">
        <ele>105</ele>
        <time>2013-08-18T10:48:45Z</time>
      </trkpt>
      <trkpt lat="48.59343" lon="2.00304">
        <ele>104</ele>
        <time>2013-08-18T10:48:47Z</time>
      </trkpt>
      <trkpt lat="48.59341" lon="2.00307">
        <ele>104</ele>
        <time>2013-08-18T10:48:49Z</time>
      </trkpt>
      <trkpt lat="48.59338" lon="2.00313">
        <ele>104</ele>
        <time>2013-08-18T10:48:51Z</time>
      </trkpt>
      <trkpt lat="48.59336" lon="2.0032">
        <ele>104</ele>
        <time>2013-08-18T10:48:53Z</time>
      </trkpt>
      <trkpt lat="48.59337" lon="2.00321">
        <ele>104</ele>
        <time>2013-08-18T10:48:55Z</time>
      </trkpt>
      <trkpt lat="48.59333" lon="2.00331">
        <ele>104</ele>
        <time>2013-08-18T10:48:57Z</time>
      </trkpt>
      <trkpt lat="48.5933" lon="2.00341">
        <ele>104</ele>
        <time>2013-08-18T10:48:59Z</time>
      </trkpt>
      <trkpt lat="48.59326" lon="2.00349">
        <ele>104</ele>
        <time>2013-08-18T10:49:01Z</time>
      </trkpt>
      <trkpt lat="48.59324" lon="2.00362">
        <ele>104</ele>
        <time>2013-08-18T10:49:03Z</time>
      </trkpt>
      <trkpt lat="48.59326" lon="2.0037">
        <ele>105</ele>
        <time>2013-08-18T10:49:05Z</time>
      </trkpt>
      <trkpt lat="48.59326" lon="2.0038">
        <ele>105</ele>
        <time>2013-08-18T10:49:07Z</time>
      </trkpt>
      <trkpt lat="48.59329" lon="2.00391">
        <ele>106</ele>
        <time>2013-08-18T10:49:09Z</time>
      </trkpt>
      <trkpt lat="48.59331" lon="2.00403">
        <ele>108</ele>
        <time>2013-08-18T10:49:11Z</time>
      </trkpt>
      <trkpt lat="48.59332" lon="2.00416">
        <ele>110</ele>
        <time>2013-08-18T10:49:13Z</time>
      </trkpt>
      <trkpt lat="48.59334" lon="2.00425">
        <ele>111</ele>
        <time>2013-08-18T10:49:15Z</time>
      </trkpt>
      <trkpt lat="48.59337" lon="2.00434">
        <ele>111</ele>
        <time>2013-08-18T10:49:17Z</time>
      </trkpt>
      <trkpt lat="48.5934" lon="2.00441">
        <ele>111</ele>
        <time>2013-08-18T10:49:19Z</time>
      </trkpt>
      <trkpt lat="48.59342" lon="2.0045">
        <ele>111</ele>
        <time>2013-08-18T10:49:21Z</time>
      </trkpt>
      <trkpt lat="48.59344" lon="2.00459">
        <ele>111</ele>
        <time>2013-08-18T10:49:23Z</time>
      </trkpt>
      <trkpt lat="48.59346" lon="2.00466">
        <ele>111</ele>
        <time>2013-08-18T10:49:25Z</time>
      </trkpt>
      <trkpt lat="48.59348" lon="2.00481">
        <ele>111</ele>
        <time>2013-08-18T10:49:27Z</time>
      </trkpt>
      <trkpt lat="48.5935" lon="2.00488">
        <ele>111</ele>
        <time>2013-08-18T10:49:29Z</time>
      </trkpt>
      <trkpt lat="48.59353" lon="2.00503">
        <ele>110</ele>
        <time>2013-08-18T10:49:31Z</time>
      </trkpt>
      <trkpt lat="48.59355" lon="2.00519">
        <ele>110</ele>
        <time>2013-08-18T10:49:33Z</time>
      </trkpt>
      <trkpt lat="48.59356" lon="2.00528">
        <ele>110</ele>
        <time>2013-08-18T10:49:35Z</time>
      </trkpt>
      <trkpt lat="48.59358" lon="2.00536">
        <ele>110</ele>
        <time>2013-08-18T10:49:37Z</time>
      </trkpt>
      <trkpt lat="48.59361" lon="2.00542">
        <ele>110</ele>
        <time>2013-08-18T10:49:39Z</time>
      </trkpt>
      <trkpt lat="48.59363" lon="2.00548">
        <ele>110</ele>
        <time>2013-08-18T10:49:41Z</time>
      </trkpt>
      <trkpt lat="48.59366" lon="2.00555">
        <ele>110</ele>
        <time>2013-08-18T10:49:43Z</time>
      </trkpt>
      <trkpt lat="48.5937" lon="2.00559">
        <ele>109</ele>
        <time>2013-08-18T10:49:46Z</time>
      </trkpt>
      <trkpt lat="48.59373" lon="2.00562">
        <ele>108</ele>
        <time>2013-08-18T10:49:48Z</time>
      </trkpt>
      <trkpt lat="48.59376" lon="2.00569">
        <ele>106</ele>
        <time>2013-08-18T10:49:50Z</time>
      </trkpt>
      <trkpt lat="48.59379" lon="2.00574">
        <ele>106</ele>
        <time>2013-08-18T10:49:52Z</time>
      </trkpt>
      <trkpt lat="48.59382" lon="2.00578">
        <ele>104</ele>
        <time>2013-08-18T10:49:54Z</time>
      </trkpt>
      <trkpt lat="48.59386" lon="2.00582">
        <ele>103</ele>
        <time>2013-08-18T10:49:56Z</time>
      </trkpt>
      <trkpt lat="48.5939" lon="2.00585">
        <ele>101</ele>
        <time>2013-08-18T10:49:58Z</time>
      </trkpt>
      <trkpt lat="48.59395" lon="2.00587">
        <ele>99</ele>
        <time>2013-08-18T10:50:00Z</time>
      </trkpt>
      <trkpt lat="48.59396" lon="2.00596">
        <ele>98</ele>
        <time>2013-08-18T10:50:02Z</time>
      </trkpt>
      <trkpt lat="48.59399" lon="2.00608">
        <ele>96</ele>
        <time>2013-08-18T10:50:04Z</time>
      </trkpt>
      <trkpt lat="48.59402" lon="2.00621">
        <ele>94</ele>
        <time>2013-08-18T10:50:06Z</time>
      </trkpt>
      <trkpt lat="48.59405" lon="2.00633">
        <ele>93</ele>
        <time>2013-08-18T10:50:08Z</time>
      </trkpt>
      <trkpt lat="48.59407" lon="2.00646">
        <ele>93</ele>
        <time>2013-08-18T10:50:10Z</time>
      </trkpt>
      <trkpt lat="48.59407" lon="2.00669">
        <ele>93</ele>
        <time>2013-08-18T10:50:12Z</time>
      </trkpt>
      <trkpt lat="48.59404" lon="2.00692">
        <ele>93</ele>
        <time>2013-08-18T10:50:14Z</time>
      </trkpt>
      <trkpt lat="48.59401" lon="2.00711">
        <ele>93</ele>
        <time>2013-08-18T10:50:16Z</time>
      </trkpt>
      <trkpt lat="48.59397" lon="2.00724">
        <ele>93</ele>
        <time>2013-08-18T10:50:18Z</time>
      </trkpt>
      <trkpt lat="48.59391" lon="2.00735">
        <ele>93</ele>
        <time>2013-08-18T10:50:20Z</time>
      </trkpt>
      <trkpt lat="48.59386" lon="2.00747">
        <ele>93</ele>
        <time>2013-08-18T10:50:22Z</time>
      </trkpt>
      <trkpt lat="48.59382" lon="2.00754">
        <ele>93</ele>
        <time>2013-08-18T10:50:24Z</time>
      </trkpt>
      <trkpt lat="48.59378" lon="2.00765">
        <ele>93</ele>
        <time>2013-08-18T10:50:26Z</time>
      </trkpt>
      <trkpt lat="48.59374" lon="2.00773">
        <ele>93</ele>
        <time>2013-08-18T10:50:28Z</time>
      </trkpt>
      <trkpt lat="48.59369" lon="2.00782">
        <ele>93</ele>
        <time>2013-08-18T10:50:30Z</time>
      </trkpt>
      <trkpt lat="48.59364" lon="2.00791">
        <ele>93</ele>
        <time>2013-08-18T10:50:32Z</time>
      </trkpt>
      <trkpt lat="48.59361" lon="2.00798">
        <ele>93</ele>
        <time>2013-08-18T10:50:34Z</time>
      </trkpt>
      <trkpt lat="48.59358" lon="2.00805">
        <ele>93</ele>
        <time>2013-08-18T10:50:36Z</time>
      </trkpt>
      <trkpt lat="48.59354" lon="2.0081">
        <ele>93</ele>
        <time>2013-08-18T10:50:38Z</time>
      </trkpt>
      <trkpt lat="48.59351" lon="2.00816">
        <ele>93</ele>
        <time>2013-08-18T10:50:40Z</time>
      </trkpt>
      <trkpt lat="48.59348" lon="2.00824">
        <ele>93</ele>
        <time>2013-08-18T10:50:42Z</time>
      </trkpt>
      <trkpt lat="48.59343" lon="2.00836">
        <ele>93</ele>
        <time>2013-08-18T10:50:44Z</time>
      </trkpt>
      <trkpt lat="48.59339" lon="2.00843">
        <ele>93</ele>
        <time>2013-08-18T10:50:46Z</time>
      </trkpt>
      <trkpt lat="48.59335" lon="2.00851">
        <ele>93</ele>
        <time>2013-08-18T10:50:48Z</time>
      </trkpt>
      <trkpt lat="48.59332" lon="2.00856">
        <ele>94</ele>
        <time>2013-08-18T10:50:50Z</time>
      </trkpt>
      <trkpt lat="48.59327" lon="2.00866">
        <ele>95</ele>
        <time>2013-08-18T10:50:52Z</time>
      </trkpt>
      <trkpt lat="48.59322" lon="2.00876">
        <ele>96</ele>
        <time>2013-08-18T10:50:54Z</time>
      </trkpt>
      <trkpt lat="48.59318" lon="2.00885">
        <ele>97</ele>
        <time>2013-08-18T10:50:56Z</time>
      </trkpt>
      <trkpt lat="48.59314" lon="2.00894">
        <ele>97</ele>
        <time>2013-08-18T10:50:59Z</time>
      </trkpt>
      <trkpt lat="48.59311" lon="2.00898">
        <ele>97</ele>
        <time>2013-08-18T10:51:01Z</time>
      </trkpt>
      <trkpt lat="48.59307" lon="2.00903">
        <ele>97</ele>
        <time>2013-08-18T10:51:03Z</time>
      </trkpt>
      <trkpt lat="48.59303" lon="2.00908">
        <ele>97</ele>
        <time>2013-08-18T10:51:05Z</time>
      </trkpt>
      <trkpt lat="48.59298" lon="2.00913">
        <ele>97</ele>
        <time>2013-08-18T10:51:07Z</time>
      </trkpt>
      <trkpt lat="48.59293" lon="2.00918">
        <ele>97</ele>
        <time>2013-08-18T10:51:09Z</time>
      </trkpt>
      <trkpt lat="48.59288" lon="2.00922">
        <ele>97</ele>
        <time>2013-08-18T10:51:11Z</time>
      </trkpt>
      <trkpt lat="48.59285" lon="2.00926">
        <ele>96</ele>
        <time>2013-08-18T10:51:13Z</time>
      </trkpt>
      <trkpt lat="48.59281" lon="2.00929">
        <ele>95</ele>
        <time>2013-08-18T10:51:15Z</time>
      </trkpt>
      <trkpt lat="48.59279" lon="2.00932">
        <ele>95</ele>
        <time>2013-08-18T10:51:17Z</time>
      </trkpt>
      <trkpt lat="48.59275" lon="2.00935">
        <ele>95</ele>
        <time>2013-08-18T10:51:19Z</time>
      </trkpt>
      <trkpt lat="48.59271" lon="2.00939">
        <ele>94</ele>
        <time>2013-08-18T10:51:21Z</time>
      </trkpt>
      <trkpt lat="48.59265" lon="2.00945">
        <ele>94</ele>
        <time>2013-08-18T10:51:23Z</time>
      </trkpt>
      <trkpt lat="48.59261" lon="2.0095">
        <ele>93</ele>
        <time>2013-08-18T10:51:25Z</time>
      </trkpt>
      <trkpt lat="48.59257" lon="2.00956">
        <ele>93</ele>
        <time>2013-08-18T10:51:27Z</time>
      </trkpt>
      <trkpt lat="48.59252" lon="2.0096">
        <ele>93</ele>
        <time>2013-08-18T10:51:29Z</time>
      </trkpt>
      <trkpt lat="48.59247" lon="2.00964">
        <ele>93</ele>
        <time>2013-08-18T10:51:31Z</time>
      </trkpt>
      <trkpt lat="48.59241" lon="2.00969">
        <ele>93</ele>
        <time>2013-08-18T10:51:33Z</time>
      </trkpt>
      <trkpt lat="48.59236" lon="2.00972">
        <ele>93</ele>
        <time>2013-08-18T10:51:35Z</time>
      </trkpt>
      <trkpt lat="48.5923" lon="2.00975">
        <ele>93</ele>
        <time>2013-08-18T10:51:37Z</time>
      </trkpt>
      <trkpt lat="48.59225" lon="2.00978">
        <ele>93</ele>
        <time>2013-08-18T10:51:39Z</time>
      </trkpt>
      <trkpt lat="48.5922" lon="2.0098">
        <ele>93</ele>
        <time>2013-08-18T10:51:41Z</time>
      </trkpt>
      <trkpt lat="48.59214" lon="2.00982">
        <ele>93</ele>
        <time>2013-08-18T10:51:43Z</time>
      </trkpt>
      <trkpt lat="48.59208" lon="2.00983">
        <ele>93</ele>
        <time>2013-08-18T10:51:45Z</time>
      </trkpt>
      <trkpt lat="48.59201" lon="2.00984">
        <ele>93</ele>
        <time>2013-08-18T10:51:47Z</time>
      </trkpt>
      <trkpt lat="48.59195" lon="2.00985">
        <ele>93</ele>
        <time>2013-08-18T10:51:49Z</time>
      </trkpt>
      <trkpt lat="48.59188" lon="2.00986">
        <ele>93</ele>
        <time>2013-08-18T10:51:51Z</time>
      </trkpt>
      <trkpt lat="48.59182" lon="2.00985">
        <ele>93</ele>
        <time>2013-08-18T10:51:53Z</time>
      </trkpt>
      <trkpt lat="48.59176" lon="2.00985">
        <ele>93</ele>
        <time>2013-08-18T10:51:55Z</time>
      </trkpt>
      <trkpt lat="48.5917" lon="2.00985">
        <ele>93</ele>
        <time>2013-08-18T10:51:57Z</time>
      </trkpt>
      <trkpt lat="48.59163" lon="2.00985">
        <ele>93</ele>
        <time>2013-08-18T10:51:59Z</time>
      </trkpt>
      <trkpt lat="48.59156" lon="2.00983">
        <ele>93</ele>
        <time>2013-08-18T10:52:01Z</time>
      </trkpt>
      <trkpt lat="48.59149" lon="2.00983">
        <ele>94</ele>
        <time>2013-08-18T10:52:03Z</time>
      </trkpt>
      <trkpt lat="48.59142" lon="2.00983">
        <ele>96</ele>
        <time>2013-08-18T10:52:05Z</time>
      </trkpt>
      <trkpt lat="48.59135" lon="2.00983">
        <ele>97</ele>
        <time>2013-08-18T10:52:07Z</time>
      </trkpt>
      <trkpt lat="48.59129" lon="2.00983">
        <ele>97</ele>
        <time>2013-08-18T10:52:09Z</time>
      </trkpt>
      <trkpt lat="48.59124" lon="2.00983">
        <ele>97</ele>
        <time>2013-08-18T10:52:11Z</time>
      </trkpt>
      <trkpt lat="48.59116" lon="2.00985">
        <ele>97</ele>
        <time>2013-08-18T10:52:13Z</time>
      </trkpt>
      <trkpt lat="48.59109" lon="2.00988">
        <ele>97</ele>
        <time>2013-08-18T10:52:15Z</time>
      </trkpt>
      <trkpt lat="48.59103" lon="2.00992">
        <ele>97</ele>
        <time>2013-08-18T10:52:17Z</time>
      </trkpt>
      <trkpt lat="48.59098" lon="2.00994">
        <ele>97</ele>
        <time>2013-08-18T10:52:19Z</time>
      </trkpt>
      <trkpt lat="48.59095" lon="2.00996">
        <ele>97</ele>
        <time>2013-08-18T10:52:21Z</time>
      </trkpt>
      <trkpt lat="48.59091" lon="2.00998">
        <ele>97</ele>
        <time>2013-08-18T10:52:23Z</time>
      </trkpt>
      <trkpt lat="48.59086" lon="2.01002">
        <ele>97</ele>
        <time>2013-08-18T10:52:25Z</time>
      </trkpt>
      <trkpt lat="48.59079" lon="2.01007">
        <ele>97</ele>
        <time>2013-08-18T10:52:27Z</time>
      </trkpt>
      <trkpt lat="48.59072" lon="2.01011">
        <ele>96</ele>
        <time>2013-08-18T10:52:29Z</time>
      </trkpt>
      <trkpt lat="48.59064" lon="2.01016">
        <ele>95</ele>
        <time>2013-08-18T10:52:31Z</time>
      </trkpt>
      <trkpt lat="48.59056" lon="2.01019">
        <ele>94</ele>
        <time>2013-08-18T10:52:33Z</time>
      </trkpt>
      <trkpt lat="48.5905" lon="2.01021">
        <ele>94</ele>
        <time>2013-08-18T10:52:35Z</time>
      </trkpt>
      <trkpt lat="48.59042" lon="2.01024">
        <ele>93</ele>
        <time>2013-08-18T10:52:37Z</time>
      </trkpt>
      <trkpt lat="48.59034" lon="2.01026">
        <ele>93</ele>
        <time>2013-08-18T10:52:39Z</time>
      </trkpt>
      <trkpt lat="48.59027" lon="2.0103">
        <ele>93</ele>
        <time>2013-08-18T10:52:41Z</time>
      </trkpt>
      <trkpt lat="48.5902" lon="2.01033">
        <ele>93</ele>
        <time>2013-08-18T10:52:43Z</time>
      </trkpt>
      <trkpt lat="48.59013" lon="2.01035">
        <ele>93</ele>
        <time>2013-08-18T10:52:45Z</time>
      </trkpt>
      <trkpt lat="48.59007" lon="2.01036">
        <ele>93</ele>
        <time>2013-08-18T10:52:47Z</time>
      </trkpt>
      <trkpt lat="48.59002" lon="2.01037">
        <ele>93</ele>
        <time>2013-08-18T10:52:49Z</time>
      </trkpt>
      <trkpt lat="48.58996" lon="2.01039">
        <ele>93</ele>
        <time>2013-08-18T10:52:51Z</time>
      </trkpt>
      <trkpt lat="48.58989" lon="2.0104">
        <ele>93</ele>
        <time>2013-08-18T10:52:53Z</time>
      </trkpt>
      <trkpt lat="48.58984" lon="2.01039">
        <ele>93</ele>
        <time>2013-08-18T10:52:55Z</time>
      </trkpt>
      <trkpt lat="48.58979" lon="2.01037">
        <ele>93</ele>
        <time>2013-08-18T10:52:57Z</time>
      </trkpt>
      <trkpt lat="48.58976" lon="2.01035">
        <ele>93</ele>
        <time>2013-08-18T10:52:59Z</time>
      </trkpt>
      <trkpt lat="48.58973" lon="2.01034">
        <ele>93</ele>
        <time>2013-08-18T10:53:01Z</time>
      </trkpt>
      <trkpt lat="48.5897" lon="2.01032">
        <ele>92</ele>
        <time>2013-08-18T10:53:03Z</time>
      </trkpt>
      <trkpt lat="48.58967" lon="2.0103">
        <ele>91</ele>
        <time>2013-08-18T10:53:05Z</time>
      </trkpt>
      <trkpt lat="48.58965" lon="2.01028">
        <ele>90</ele>
        <time>2013-08-18T10:53:07Z</time>
      </trkpt>
      <trkpt lat="48.58962" lon="2.01027">
        <ele>90</ele>
        <time>2013-08-18T10:53:09Z</time>
      </trkpt>
      <trkpt lat="48.58959" lon="2.01026">
        <ele>90</ele>
        <time>2013-08-18T10:53:11Z</time>
      </trkpt>
      <trkpt lat="48.58956" lon="2.01025">
        <ele>90</ele>
        <time>2013-08-18T10:53:13Z</time>
      </trkpt>
      <trkpt lat="48.58954" lon="2.01023">
        <ele>90</ele>
        <time>2013-08-18T10:53:15Z</time>
      </trkpt>
      <trkpt lat="48.58951" lon="2.01022">
        <ele>90</ele>
        <time>2013-08-18T10:53:17Z</time>
      </trkpt>
      <trkpt lat="48.58948" lon="2.01022">
        <ele>90</ele>
        <time>2013-08-18T10:53:19Z</time>
      </trkpt>
      <trkpt lat="48.58944" lon="2.0102">
        <ele>90</ele>
        <time>2013-08-18T10:53:22Z</time>
      </trkpt>
      <trkpt lat="48.58942" lon="2.01021">
        <ele>90</ele>
        <time>2013-08-18T10:53:24Z</time>
      </trkpt>
      <trkpt lat="48.5894" lon="2.01027">
        <ele>90</ele>
        <time>2013-08-18T10:53:26Z</time>
      </trkpt>
      <trkpt lat="48.58939" lon="2.01033">
        <ele>90</ele>
        <time>2013-08-18T10:53:28Z</time>
      </trkpt>
      <trkpt lat="48.5894" lon="2.01038">
        <ele>90</ele>
        <time>2013-08-18T10:53:30Z</time>
      </trkpt>
      <trkpt lat="48.5894" lon="2.01044">
        <ele>90</ele>
        <time>2013-08-18T10:53:32Z</time>
      </trkpt>
      <trkpt lat="48.58941" lon="2.01049">
        <ele>90</ele>
        <time>2013-08-18T10:53:34Z</time>
      </trkpt>
      <trkpt lat="48.58942" lon="2.01053">
        <ele>90</ele>
        <time>2013-08-18T10:53:36Z</time>
      </trkpt>
      <trkpt lat="48.58943" lon="2.01058">
        <ele>90</ele>
        <time>2013-08-18T10:53:38Z</time>
      </trkpt>
      <trkpt lat="48.58944" lon="2.01064">
        <ele>90</ele>
        <time>2013-08-18T10:53:40Z</time>
      </trkpt>
      <trkpt lat="48.58945" lon="2.01069">
        <ele>90</ele>
        <time>2013-08-18T10:53:42Z</time>
      </trkpt>
      <trkpt lat="48.58946" lon="2.01075">
        <ele>90</ele>
        <time>2013-08-18T10:53:44Z</time>
      </trkpt>
      <trkpt lat="48.58947" lon="2.0108">
        <ele>90</ele>
        <time>2013-08-18T10:53:46Z</time>
      </trkpt>
      <trkpt lat="48.58947" lon="2.01087">
        <ele>90</ele>
        <time>2013-08-18T10:53:48Z</time>
      </trkpt>
      <trkpt lat="48.58948" lon="2.01093">
        <ele>90</ele>
        <time>2013-08-18T10:53:50Z</time>
      </trkpt>
      <trkpt lat="48.58949" lon="2.01098">
        <ele>90</ele>
        <time>2013-08-18T10:53:52Z</time>
      </trkpt>
      <trkpt lat="48.58949" lon="2.01104">
        <ele>90</ele>
        <time>2013-08-18T10:53:54Z</time>
      </trkpt>
      <trkpt lat="48.5895" lon="2.01108">
        <ele>90</ele>
        <time>2013-08-18T10:53:56Z</time>
      </trkpt>
      <trkpt lat="48.58952" lon="2.01113">
        <ele>90</ele>
        <time>2013-08-18T10:53:58Z</time>
      </trkpt>
      <trkpt lat="48.58953" lon="2.01118">
        <ele>90</ele>
        <time>2013-08-18T10:54:00Z</time>
      </trkpt>
      <trkpt lat="48.58954" lon="2.01122">
        <ele>90</ele>
        <time>2013-08-18T10:54:02Z</time>
      </trkpt>
      <trkpt lat="48.58955" lon="2.01127">
        <ele>90</ele>
        <time>2013-08-18T10:54:04Z</time>
      </trkpt>
      <trkpt lat="48.58956" lon="2.01133">
        <ele>90</ele>
        <time>2013-08-18T10:54:06Z</time>
      </trkpt>
      <trkpt lat="48.58957" lon="2.01138">
        <ele>90</ele>
        <time>2013-08-18T10:54:08Z</time>
      </trkpt>
      <trkpt lat="48.58958" lon="2.01143">
        <ele>90</ele>
        <time>2013-08-18T10:54:10Z</time>
      </trkpt>
      <trkpt lat="48.58959" lon="2.01147">
        <ele>90</ele>
        <time>2013-08-18T10:54:12Z</time>
      </trkpt>
      <trkpt lat="48.5896" lon="2.01153">
        <ele>90</ele>
        <time>2013-08-18T10:54:14Z</time>
      </trkpt>
      <trkpt lat="48.58961" lon="2.01158">
        <ele>90</ele>
        <time>2013-08-18T10:54:16Z</time>
      </trkpt>
      <trkpt lat="48.58962" lon="2.01163">
        <ele>90</ele>
        <time>2013-08-18T10:54:18Z</time>
      </trkpt>
      <trkpt lat="48.58962" lon="2.01168">
        <ele>90</ele>
        <time>2013-08-18T10:54:20Z</time>
      </trkpt>
      <trkpt lat="48.58963" lon="2.01173">
        <ele>90</ele>
        <time>2013-08-18T10:54:22Z</time>
      </trkpt>
      <trkpt lat="48.58964" lon="2.0118">
        <ele>90</ele>
        <time>2013-08-18T10:54:24Z</time>
      </trkpt>
      <trkpt lat="48.58965" lon="2.01185">
        <ele>90</ele>
        <time>2013-08-18T10:54:26Z</time>
      </trkpt>
      <trkpt lat="48.58966" lon="2.01189">
        <ele>90</ele>
        <time>2013-08-18T10:54:28Z</time>
      </trkpt>
      <trkpt lat="48.58967" lon="2.01194">
        <ele>89</ele>
        <time>2013-08-18T10:54:30Z</time>
      </trkpt>
      <trkpt lat="48.58968" lon="2.01198">
        <ele>88</ele>
        <time>2013-08-18T10:54:32Z</time>
      </trkpt>
      <trkpt lat="48.58969" lon="2.01203">
        <ele>88</ele>
        <time>2013-08-18T10:54:34Z</time>
      </trkpt>
      <trkpt lat="48.5897" lon="2.01207">
        <ele>87</ele>
        <time>2013-08-18T10:54:36Z</time>
      </trkpt>
      <trkpt lat="48.58971" lon="2.01212">
        <ele>87</ele>
        <time>2013-08-18T10:54:38Z</time>
      </trkpt>
      <trkpt lat="48.58971" lon="2.01217">
        <ele>86</ele>
        <time>2013-08-18T10:54:40Z</time>
      </trkpt>
      <trkpt lat="48.58972" lon="2.01221">
        <ele>86</ele>
        <time>2013-08-18T10:54:42Z</time>
      </trkpt>
      <trkpt lat="48.58973" lon="2.01227">
        <ele>85</ele>
        <time>2013-08-18T10:54:44Z</time>
      </trkpt>
      <trkpt lat="48.58974" lon="2.01232">
        <ele>85</ele>
        <time>2013-08-18T10:54:46Z</time>
      </trkpt>
      <trkpt lat="48.58975" lon="2.01237">
        <ele>85</ele>
        <time>2013-08-18T10:54:48Z</time>
      </trkpt>
      <trkpt lat="48.58976" lon="2.01241">
        <ele>84</ele>
        <time>2013-08-18T10:54:50Z</time>
      </trkpt>
      <trkpt lat="48.58977" lon="2.01246">
        <ele>84</ele>
        <time>2013-08-18T10:54:52Z</time>
      </trkpt>
      <trkpt lat="48.58978" lon="2.01251">
        <ele>83</ele>
        <time>2013-08-18T10:54:54Z</time>
      </trkpt>
      <trkpt lat="48.58979" lon="2.01256">
        <ele>83</ele>
        <time>2013-08-18T10:54:56Z</time>
      </trkpt>
      <trkpt lat="48.5898" lon="2.0126">
        <ele>83</ele>
        <time>2013-08-18T10:54:58Z</time>
      </trkpt>
      <trkpt lat="48.58981" lon="2.01265">
        <ele>83</ele>
        <time>2013-08-18T10:55:00Z</time>
      </trkpt>
      <trkpt lat="48.58982" lon="2.0127">
        <ele>83</ele>
        <time>2013-08-18T10:55:02Z</time>
      </trkpt>
      <trkpt lat="48.58982" lon="2.01275">
        <ele>83</ele>
        <time>2013-08-18T10:55:04Z</time>
      </trkpt>
      <trkpt lat="48.58984" lon="2.0128">
        <ele>83</ele>
        <time>2013-08-18T10:55:06Z</time>
      </trkpt>
      <trkpt lat="48.58984" lon="2.01285">
        <ele>83</ele>
        <time>2013-08-18T10:55:08Z</time>
      </trkpt>
      <trkpt lat="48.58985" lon="2.01291">
        <ele>83</ele>
        <time>2013-08-18T10:55:10Z</time>
      </trkpt>
      <trkpt lat="48.58986" lon="2.01295">
        <ele>83</ele>
        <time>2013-08-18T10:55:12Z</time>
      </trkpt>
      <trkpt lat="48.58987" lon="2.01301">
        <ele>83</ele>
        <time>2013-08-18T10:55:14Z</time>
      </trkpt>
      <trkpt lat="48.58988" lon="2.01306">
        <ele>83</ele>
        <time>2013-08-18T10:55:16Z</time>
      </trkpt>
      <trkpt lat="48.58989" lon="2.0131">
        <ele>83</ele>
        <time>2013-08-18T10:55:18Z</time>
      </trkpt>
      <trkpt lat="48.58989" lon="2.01315">
        <ele>83</ele>
        <time>2013-08-18T10:55:20Z</time>
      </trkpt>
      <trkpt lat="48.5899" lon="2.01321">
        <ele>83</ele>
        <time>2013-08-18T10:55:22Z</time>
      </trkpt>
      <trkpt lat="48.58991" lon="2.01326">
        <ele>83</ele>
        <time>2013-08-18T10:55:24Z</time>
      </trkpt>
      <trkpt lat="48.58992" lon="2.01331">
        <ele>83</ele>
        <time>2013-08-18T10:55:26Z</time>
      </trkpt>
      <trkpt lat="48.58992" lon="2.01336">
        <ele>83</ele>
        <time>2013-08-18T10:55:28Z</time>
      </trkpt>
      <trkpt lat="48.58993" lon="2.01341">
        <ele>83</ele>
        <time>2013-08-18T10:55:30Z</time>
      </trkpt>
      <trkpt lat="48.58994" lon="2.01345">
        <ele>83</ele>
        <time>2013-08-18T10:55:32Z</time>
      </trkpt>
      <trkpt lat="48.58995" lon="2.0135">
        <ele>83</ele>
        <time>2013-08-18T10:55:34Z</time>
      </trkpt>
      <trkpt lat="48.58995" lon="2.01355">
        <ele>83</ele>
        <time>2013-08-18T10:55:36Z</time>
      </trkpt>
      <trkpt lat="48.58996" lon="2.0136">
        <ele>83</ele>
        <time>2013-08-18T10:55:38Z</time>
      </trkpt>
      <trkpt lat="48.58997" lon="2.01365">
        <ele>83</ele>
        <time>2013-08-18T10:55:40Z</time>
      </trkpt>
      <trkpt lat="48.58997" lon="2.01369">
        <ele>83</ele>
        <time>2013-08-18T10:55:42Z</time>
      </trkpt>
      <trkpt lat="48.58998" lon="2.01374">
        <ele>83</ele>
        <time>2013-08-18T10:55:44Z</time>
      </trkpt>
      <trkpt lat="48.59" lon="2.01379">
        <ele>83</ele>
        <time>2013-08-18T10:55:46Z</time>
      </trkpt>
      <trkpt lat="48.59002" lon="2.01384">
        <ele>83</ele>
        <time>2013-08-18T10:55:48Z</time>
      </trkpt>
      <trkpt lat="48.59003" lon="2.01388">
        <ele>83</ele>
        <time>2013-08-18T10:55:50Z</time>
      </trkpt>
      <trkpt lat="48.59004" lon="2.01393">
        <ele>83</ele>
        <time>2013-08-18T10:55:52Z</time>
      </trkpt>
      <trkpt lat="48.59005" lon="2.01398">
        <ele>83</ele>
        <time>2013-08-18T10:55:54Z</time>
      </trkpt>
      <trkpt lat="48.59006" lon="2.01402">
        <ele>83</ele>
        <time>2013-08-18T10:55:56Z</time>
      </trkpt>
      <trkpt lat="48.59007" lon="2.01407">
        <ele>83</ele>
        <time>2013-08-18T10:55:58Z</time>
      </trkpt>
      <trkpt lat="48.59008" lon="2.01412">
        <ele>83</ele>
        <time>2013-08-18T10:56:00Z</time>
      </trkpt>
      <trkpt lat="48.59008" lon="2.01416">
        <ele>83</ele>
        <time>2013-08-18T10:56:02Z</time>
      </trkpt>
      <trkpt lat="48.59008" lon="2.01421">
        <ele>83</ele>
        <time>2013-08-18T10:56:04Z</time>
      </trkpt>
      <trkpt lat="48.5901" lon="2.01425">
        <ele>83</ele>
        <time>2013-08-18T10:56:06Z</time>
      </trkpt>
      <trkpt lat="48.59011" lon="2.0143">
        <ele>83</ele>
        <time>2013-08-18T10:56:08Z</time>
      </trkpt>
      <trkpt lat="48.59011" lon="2.01436">
        <ele>83</ele>
        <time>2013-08-18T10:56:10Z</time>
      </trkpt>
      <trkpt lat="48.59012" lon="2.01441">
        <ele>83</ele>
        <time>2013-08-18T10:56:12Z</time>
      </trkpt>
      <trkpt lat="48.59013" lon="2.01445">
        <ele>83</ele>
        <time>2013-08-18T10:56:14Z</time>
      </trkpt>
      <trkpt lat="48.59014" lon="2.0145">
        <ele>83</ele>
        <time>2013-08-18T10:56:16Z</time>
      </trkpt>
      <trkpt lat="48.59015" lon="2.01455">
        <ele>83</ele>
        <time>2013-08-18T10:56:18Z</time>
      </trkpt>
      <trkpt lat="48.59016" lon="2.0146">
        <ele>83</ele>
        <time>2013-08-18T10:56:20Z</time>
      </trkpt>
      <trkpt lat="48.59016" lon="2.01464">
        <ele>83</ele>
        <time>2013-08-18T10:56:22Z</time>
      </trkpt>
      <trkpt lat="48.59016" lon="2.01468">
        <ele>83</ele>
        <time>2013-08-18T10:56:24Z</time>
      </trkpt>
      <trkpt lat="48.59017" lon="2.01474">
        <ele>83</ele>
        <time>2013-08-18T10:56:26Z</time>
      </trkpt>
      <trkpt lat="48.59018" lon="2.01479">
        <ele>83</ele>
        <time>2013-08-18T10:56:28Z</time>
      </trkpt>
      <trkpt lat="48.59019" lon="2.01484">
        <ele>83</ele>
        <time>2013-08-18T10:56:30Z</time>
      </trkpt>
      <trkpt lat="48.59021" lon="2.01489">
        <ele>83</ele>
        <time>2013-08-18T10:56:32Z</time>
      </trkpt>
      <trkpt lat="48.59021" lon="2.01494">
        <ele>83</ele>
        <time>2013-08-18T10:56:34Z</time>
      </trkpt>
      <trkpt lat="48.59022" lon="2.01498">
        <ele>83</ele>
        <time>2013-08-18T10:56:36Z</time>
      </trkpt>
      <trkpt lat="48.59023" lon="2.01503">
        <ele>83</ele>
        <time>2013-08-18T10:56:38Z</time>
      </trkpt>
      <trkpt lat="48.59024" lon="2.01507">
        <ele>84</ele>
        <time>2013-08-18T10:56:40Z</time>
      </trkpt>
      <trkpt lat="48.59026" lon="2.01512">
        <ele>84</ele>
        <time>2013-08-18T10:56:42Z</time>
      </trkpt>
      <trkpt lat="48.59027" lon="2.01515">
        <ele>84</ele>
        <time>2013-08-18T10:56:44Z</time>
      </trkpt>
      <trkpt lat="48.5903" lon="2.0152">
        <ele>85</ele>
        <time>2013-08-18T10:56:47Z</time>
      </trkpt>
      <trkpt lat="48.59031" lon="2.01525">
        <ele>85</ele>
        <time>2013-08-18T10:56:49Z</time>
      </trkpt>
      <trkpt lat="48.59033" lon="2.01529">
        <ele>86</ele>
        <time>2013-08-18T10:56:51Z</time>
      </trkpt>
      <trkpt lat="48.59035" lon="2.01533">
        <ele>86</ele>
        <time>2013-08-18T10:56:53Z</time>
      </trkpt>
      <trkpt lat="48.59037" lon="2.01536">
        <ele>86</ele>
        <time>2013-08-18T10:56:55Z</time>
      </trkpt>
      <trkpt lat="48.59039" lon="2.0154">
        <ele>86</ele>
        <time>2013-08-18T10:56:57Z</time>
      </trkpt>
      <trkpt lat="48.59041" lon="2.01544">
        <ele>86</ele>
        <time>2013-08-18T10:56:59Z</time>
      </trkpt>
      <trkpt lat="48.59042" lon="2.01549">
        <ele>86</ele>
        <time>2013-08-18T10:57:01Z</time>
      </trkpt>
      <trkpt lat="48.59043" lon="2.01554">
        <ele>86</ele>
        <time>2013-08-18T10:57:03Z</time>
      </trkpt>
      <trkpt lat="48.59045" lon="2.01558">
        <ele>86</ele>
        <time>2013-08-18T10:57:05Z</time>
      </trkpt>
      <trkpt lat="48.59047" lon="2.01561">
        <ele>86</ele>
        <time>2013-08-18T10:57:07Z</time>
      </trkpt>
      <trkpt lat="48.59049" lon="2.01565">
        <ele>86</ele>
        <time>2013-08-18T10:57:09Z</time>
      </trkpt>
      <trkpt lat="48.5905" lon="2.01569">
        <ele>87</ele>
        <time>2013-08-18T10:57:11Z</time>
      </trkpt>
      <trkpt lat="48.59053" lon="2.01573">
        <ele>87</ele>
        <time>2013-08-18T10:57:13Z</time>
      </trkpt>
      <trkpt lat="48.59054" lon="2.01577">
        <ele>87</ele>
        <time>2013-08-18T10:57:15Z</time>
      </trkpt>
      <trkpt lat="48.59056" lon="2.0158">
        <ele>87</ele>
        <time>2013-08-18T10:57:17Z</time>
      </trkpt>
      <trkpt lat="48.59058" lon="2.01584">
        <ele>87</ele>
        <time>2013-08-18T10:57:19Z</time>
      </trkpt>
      <trkpt lat="48.59061" lon="2.01587">
        <ele>87</ele>
        <time>2013-08-18T10:57:21Z</time>
      </trkpt>
      <trkpt lat="48.59063" lon="2.01591">
        <ele>87</ele>
        <time>2013-08-18T10:57:23Z</time>
      </trkpt>
      <trkpt lat="48.59066" lon="2.01596">
        <ele>87</ele>
        <time>2013-08-18T10:57:26Z</time>
      </trkpt>
      <trkpt lat="48.59068" lon="2.01599">
        <ele>87</ele>
        <time>2013-08-18T10:57:28Z</time>
      </trkpt>
      <trkpt lat="48.5907" lon="2.01603">
        <ele>88</ele>
        <time>2013-08-18T10:57:30Z</time>
      </trkpt>
      <trkpt lat="48.59071" lon="2.01606">
        <ele>90</ele>
        <time>2013-08-18T10:57:32Z</time>
      </trkpt>
      <trkpt lat="48.59073" lon="2.0161">
        <ele>91</ele>
        <time>2013-08-18T10:57:34Z</time>
      </trkpt>
      <trkpt lat="48.59074" lon="2.01614">
        <ele>91</ele>
        <time>2013-08-18T10:57:36Z</time>
      </trkpt>
      <trkpt lat="48.59076" lon="2.01619">
        <ele>92</ele>
        <time>2013-08-18T10:57:38Z</time>
      </trkpt>
      <trkpt lat="48.59077" lon="2.01623">
        <ele>92</ele>
        <time>2013-08-18T10:57:40Z</time>
      </trkpt>
      <trkpt lat="48.59079" lon="2.01626">
        <ele>92</ele>
        <time>2013-08-18T10:57:42Z</time>
      </trkpt>
      <trkpt lat="48.59081" lon="2.01631">
        <ele>92</ele>
        <time>2013-08-18T10:57:44Z</time>
      </trkpt>
      <trkpt lat="48.59081" lon="2.01637">
        <ele>92</ele>
        <time>2013-08-18T10:57:46Z</time>
      </trkpt>
      <trkpt lat="48.5908" lon="2.01643">
        <ele>92</ele>
        <time>2013-08-18T10:57:48Z</time>
      </trkpt>
      <trkpt lat="48.59078" lon="2.01649">
        <ele>92</ele>
        <time>2013-08-18T10:57:50Z</time>
      </trkpt>
      <trkpt lat="48.59077" lon="2.01655">
        <ele>92</ele>
        <time>2013-08-18T10:57:52Z</time>
      </trkpt>
      <trkpt lat="48.59077" lon="2.0166">
        <ele>92</ele>
        <time>2013-08-18T10:57:54Z</time>
      </trkpt>
      <trkpt lat="48.59077" lon="2.01665">
        <ele>92</ele>
        <time>2013-08-18T10:57:56Z</time>
      </trkpt>
      <trkpt lat="48.59076" lon="2.01671">
        <ele>92</ele>
        <time>2013-08-18T10:57:58Z</time>
      </trkpt>
      <trkpt lat="48.59076" lon="2.01677">
        <ele>92</ele>
        <time>2013-08-18T10:58:00Z</time>
      </trkpt>
      <trkpt lat="48.59075" lon="2.01682">
        <ele>92</ele>
        <time>2013-08-18T10:58:02Z</time>
      </trkpt>
      <trkpt lat="48.59075" lon="2.01687">
        <ele>92</ele>
        <time>2013-08-18T10:58:04Z</time>
      </trkpt>
      <trkpt lat="48.59075" lon="2.01692">
        <ele>92</ele>
        <time>2013-08-18T10:58:06Z</time>
      </trkpt>
      <trkpt lat="48.59075" lon="2.01697">
        <ele>92</ele>
        <time>2013-08-18T10:58:08Z</time>
      </trkpt>
      <trkpt lat="48.59075" lon="2.01702">
        <ele>92</ele>
        <time>2013-08-18T10:58:10Z</time>
      </trkpt>
      <trkpt lat="48.59074" lon="2.01707">
        <ele>92</ele>
        <time>2013-08-18T10:58:12Z</time>
      </trkpt>
      <trkpt lat="48.59074" lon="2.01711">
        <ele>92</ele>
        <time>2013-08-18T10:58:14Z</time>
      </trkpt>
      <trkpt lat="48.59075" lon="2.01716">
        <ele>92</ele>
        <time>2013-08-18T10:58:16Z</time>
      </trkpt>
      <trkpt lat="48.59074" lon="2.01721">
        <ele>92</ele>
        <time>2013-08-18T10:58:18Z</time>
      </trkpt>
      <trkpt lat="48.59074" lon="2.01726">
        <ele>92</ele>
        <time>2013-08-18T10:58:20Z</time>
      </trkpt>
      <trkpt lat="48.59074" lon="2.01731">
        <ele>93</ele>
        <time>2013-08-18T10:58:22Z</time>
      </trkpt>
      <trkpt lat="48.59074" lon="2.01737">
        <ele>93</ele>
        <time>2013-08-18T10:58:24Z</time>
      </trkpt>
      <trkpt lat="48.59075" lon="2.01742">
        <ele>93</ele>
        <time>2013-08-18T10:58:26Z</time>
      </trkpt>
      <trkpt lat="48.59075" lon="2.01747">
        <ele>93</ele>
        <time>2013-08-18T10:58:28Z</time>
      </trkpt>
      <trkpt lat="48.59076" lon="2.01752">
        <ele>93</ele>
        <time>2013-08-18T10:58:30Z</time>
      </trkpt>
      <trkpt lat="48.59076" lon="2.01757">
        <ele>93</ele>
        <time>2013-08-18T10:58:32Z</time>
      </trkpt>
      <trkpt lat="48.59075" lon="2.01763">
        <ele>93</ele>
        <time>2013-08-18T10:58:34Z</time>
      </trkpt>
      <trkpt lat="48.59075" lon="2.01767">
        <ele>93</ele>
        <time>2013-08-18T10:58:36Z</time>
      </trkpt>
      <trkpt lat="48.59075" lon="2.01772">
        <ele>94</ele>
        <time>2013-08-18T10:58:38Z</time>
      </trkpt>
      <trkpt lat="48.59075" lon="2.01777">
        <ele>94</ele>
        <time>2013-08-18T10:58:40Z</time>
      </trkpt>
      <trkpt lat="48.59076" lon="2.01781">
        <ele>94</ele>
        <time>2013-08-18T10:58:42Z</time>
      </trkpt>
      <trkpt lat="48.59077" lon="2.01785">
        <ele>95</ele>
        <time>2013-08-18T10:58:44Z</time>
      </trkpt>
      <trkpt lat="48.59078" lon="2.01788">
        <ele>96</ele>
        <time>2013-08-18T10:58:46Z</time>
      </trkpt>
      <trkpt lat="48.59079" lon="2.01793">
        <ele>97</ele>
        <time>2013-08-18T10:58:48Z</time>
      </trkpt>
      <trkpt lat="48.5908" lon="2.01797">
        <ele>98</ele>
        <time>2013-08-18T10:58:50Z</time>
      </trkpt>
      <trkpt lat="48.59081" lon="2.01802">
        <ele>99</ele>
        <time>2013-08-18T10:58:52Z</time>
      </trkpt>
      <trkpt lat="48.59082" lon="2.01807">
        <ele>100</ele>
        <time>2013-08-18T10:58:54Z</time>
      </trkpt>
      <trkpt lat="48.59084" lon="2.01811">
        <ele>100</ele>
        <time>2013-08-18T10:58:56Z</time>
      </trkpt>
      <trkpt lat="48.59084" lon="2.01816">
        <ele>101</ele>
        <time>2013-08-18T10:58:58Z</time>
      </trkpt>
      <trkpt lat="48.59086" lon="2.01821">
        <ele>101</ele>
        <time>2013-08-18T10:59:00Z</time>
      </trkpt>
      <trkpt lat="48.59087" lon="2.01827">
        <ele>101</ele>
        <time>2013-08-18T10:59:02Z</time>
      </trkpt>
      <trkpt lat="48.59089" lon="2.01831">
        <ele>101</ele>
        <time>2013-08-18T10:59:04Z</time>
      </trkpt>
      <trkpt lat="48.5909" lon="2.01836">
        <ele>101</ele>
        <time>2013-08-18T10:59:06Z</time>
      </trkpt>
      <trkpt lat="48.59091" lon="2.0184">
        <ele>101</ele>
        <time>2013-08-18T10:59:08Z</time>
      </trkpt>
      <trkpt lat="48.59092" lon="2.01844">
        <ele>101</ele>
        <time>2013-08-18T10:59:10Z</time>
      </trkpt>
      <trkpt lat="48.59094" lon="2.01848">
        <ele>101</ele>
        <time>2013-08-18T10:59:12Z</time>
      </trkpt>
      <trkpt lat="48.59097" lon="2.01852">
        <ele>101</ele>
        <time>2013-08-18T10:59:14Z</time>
      </trkpt>
      <trkpt lat="48.59099" lon="2.01856">
        <ele>101</ele>
        <time>2013-08-18T10:59:16Z</time>
      </trkpt>
      <trkpt lat="48.591" lon="2.0186">
        <ele>101</ele>
        <time>2013-08-18T10:59:18Z</time>
      </trkpt>
      <trkpt lat="48.59103" lon="2.01865">
        <ele>101</ele>
        <time>2013-08-18T10:59:20Z</time>
      </trkpt>
      <trkpt lat="48.59106" lon="2.01867">
        <ele>101</ele>
        <time>2013-08-18T10:59:22Z</time>
      </trkpt>
      <trkpt lat="48.59108" lon="2.01872">
        <ele>101</ele>
        <time>2013-08-18T10:59:24Z</time>
      </trkpt>
      <trkpt lat="48.59111" lon="2.01878">
        <ele>101</ele>
        <time>2013-08-18T10:59:27Z</time>
      </trkpt>
      <trkpt lat="48.59112" lon="2.01883">
        <ele>101</ele>
        <time>2013-08-18T10:59:29Z</time>
      </trkpt>
      <trkpt lat="48.59113" lon="2.01888">
        <ele>102</ele>
        <time>2013-08-18T10:59:31Z</time>
      </trkpt>
      <trkpt lat="48.59115" lon="2.01893">
        <ele>102</ele>
        <time>2013-08-18T10:59:33Z</time>
      </trkpt>
      <trkpt lat="48.59116" lon="2.01898">
        <ele>102</ele>
        <time>2013-08-18T10:59:35Z</time>
      </trkpt>
      <trkpt lat="48.59119" lon="2.01903">
        <ele>102</ele>
        <time>2013-08-18T10:59:38Z</time>
      </trkpt>
      <trkpt lat="48.59121" lon="2.01907">
        <ele>102</ele>
        <time>2013-08-18T10:59:40Z</time>
      </trkpt>
      <trkpt lat="48.59124" lon="2.01911">
        <ele>102</ele>
        <time>2013-08-18T10:59:42Z</time>
      </trkpt>
      <trkpt lat="48.59126" lon="2.01915">
        <ele>102</ele>
        <time>2013-08-18T10:59:44Z</time>
      </trkpt>
      <trkpt lat="48.59128" lon="2.01919">
        <ele>102</ele>
        <time>2013-08-18T10:59:46Z</time>
      </trkpt>
      <trkpt lat="48.5913" lon="2.01923">
        <ele>102</ele>
        <time>2013-08-18T10:59:48Z</time>
      </trkpt>
      <trkpt lat="48.59131" lon="2.01927">
        <ele>102</ele>
        <time>2013-08-18T10:59:50Z</time>
      </trkpt>
      <trkpt lat="48.59134" lon="2.01931">
        <ele>103</ele>
        <time>2013-08-18T10:59:52Z</time>
      </trkpt>
      <trkpt lat="48.59135" lon="2.01935">
        <ele>103</ele>
        <time>2013-08-18T10:59:54Z</time>
      </trkpt>
      <trkpt lat="48.59136" lon="2.0194">
        <ele>103</ele>
        <time>2013-08-18T10:59:56Z</time>
      </trkpt>
      <trkpt lat="48.59137" lon="2.01944">
        <ele>103</ele>
        <time>2013-08-18T10:59:58Z</time>
      </trkpt>
      <trkpt lat="48.59138" lon="2.01949">
        <ele>103</ele>
        <time>2013-08-18T11:00:00Z</time>
      </trkpt>
      <trkpt lat="48.59138" lon="2.01954">
        <ele>103</ele>
        <time>2013-08-18T11:00:02Z</time>
      </trkpt>
      <trkpt lat="48.59139" lon="2.01959">
        <ele>103</ele>
        <time>2013-08-18T11:00:04Z</time>
      </trkpt>
      <trkpt lat="48.5914" lon="2.01964">
        <ele>103</ele>
        <time>2013-08-18T11:00:06Z</time>
      </trkpt>
      <trkpt lat="48.59141" lon="2.0197">
        <ele>103</ele>
        <time>2013-08-18T11:00:08Z</time>
      </trkpt>
      <trkpt lat="48.59142" lon="2.01976">
        <ele>103</ele>
        <time>2013-08-18T11:00:10Z</time>
      </trkpt>
      <trkpt lat="48.59143" lon="2.01981">
        <ele>103</ele>
        <time>2013-08-18T11:00:12Z</time>
      </trkpt>
      <trkpt lat="48.59143" lon="2.01991">
        <ele>103</ele>
        <time>2013-08-18T11:00:14Z</time>
      </trkpt>
      <trkpt lat="48.59145" lon="2.02003">
        <ele>103</ele>
        <time>2013-08-18T11:00:16Z</time>
      </trkpt>
      <trkpt lat="48.59146" lon="2.02014">
        <ele>103</ele>
        <time>2013-08-18T11:00:18Z</time>
      </trkpt>
      <trkpt lat="48.59148" lon="2.02023">
        <ele>103</ele>
        <time>2013-08-18T11:00:20Z</time>
      </trkpt>
      <trkpt lat="48.5915" lon="2.02031">
        <ele>103</ele>
        <time>2013-08-18T11:00:22Z</time>
      </trkpt>
      <trkpt lat="48.59152" lon="2.02039">
        <ele>103</ele>
        <time>2013-08-18T11:00:24Z</time>
      </trkpt>
      <trkpt lat="48.59154" lon="2.02047">
        <ele>103</ele>
        <time>2013-08-18T11:00:26Z</time>
      </trkpt>
      <trkpt lat="48.59156" lon="2.02056">
        <ele>103</ele>
        <time>2013-08-18T11:00:28Z</time>
      </trkpt>
      <trkpt lat="48.59157" lon="2.02067">
        <ele>104</ele>
        <time>2013-08-18T11:00:30Z</time>
      </trkpt>
      <trkpt lat="48.59159" lon="2.0208">
        <ele>104</ele>
        <time>2013-08-18T11:00:32Z</time>
      </trkpt>
      <trkpt lat="48.59161" lon="2.02093">
        <ele>105</ele>
        <time>2013-08-18T11:00:34Z</time>
      </trkpt>
      <trkpt lat="48.59163" lon="2.02107">
        <ele>105</ele>
        <time>2013-08-18T11:00:36Z</time>
      </trkpt>
      <trkpt lat="48.59165" lon="2.02125">
        <ele>106</ele>
        <time>2013-08-18T11:00:38Z</time>
      </trkpt>
      <trkpt lat="48.59168" lon="2.02148">
        <ele>106</ele>
        <time>2013-08-18T11:00:40Z</time>
      </trkpt>
      <trkpt lat="48.5917" lon="2.02176">
        <ele>107</ele>
        <time>2013-08-18T11:00:42Z</time>
      </trkpt>
      <trkpt lat="48.59169" lon="2.0221">
        <ele>109</ele>
        <time>2013-08-18T11:00:44Z</time>
      </trkpt>
      <trkpt lat="48.5917" lon="2.02268">
        <ele>112</ele>
        <time>2013-08-18T11:00:47Z</time>
      </trkpt>
      <trkpt lat="48.59171" lon="2.02307">
        <ele>115</ele>
        <time>2013-08-18T11:00:49Z</time>
      </trkpt>
      <trkpt lat="48.59172" lon="2.02345">
        <ele>119</ele>
        <time>2013-08-18T11:00:51Z</time>
      </trkpt>
      <trkpt lat="48.59175" lon="2.02384">
        <ele>123</ele>
        <time>2013-08-18T11:00:53Z</time>
      </trkpt>
      <trkpt lat="48.59177" lon="2.02421">
        <ele>127</ele>
        <time>2013-08-18T11:00:55Z</time>
      </trkpt>
      <trkpt lat="48.59175" lon="2.02457">
        <ele>129</ele>
        <time>2013-08-18T11:00:57Z</time>
      </trkpt>
      <trkpt lat="48.59171" lon="2.02491">
        <ele>131</ele>
        <time>2013-08-18T11:00:59Z</time>
      </trkpt>
      <trkpt lat="48.59169" lon="2.02526">
        <ele>132</ele>
        <time>2013-08-18T11:01:01Z</time>
      </trkpt>
      <trkpt lat="48.59166" lon="2.02558">
        <ele>132</ele>
        <time>2013-08-18T11:01:03Z</time>
      </trkpt>
      <trkpt lat="48.59166" lon="2.0259">
        <ele>132</ele>
        <time>2013-08-18T11:01:05Z</time>
      </trkpt>
      <trkpt lat="48.59166" lon="2.02619">
        <ele>132</ele>
        <time>2013-08-18T11:01:07Z</time>
      </trkpt>
      <trkpt lat="48.59162" lon="2.02643">
        <ele>133</ele>
        <time>2013-08-18T11:01:09Z</time>
      </trkpt>
      <trkpt lat="48.59158" lon="2.02664">
        <ele>133</ele>
        <time>2013-08-18T11:01:11Z</time>
      </trkpt>
      <trkpt lat="48.59158" lon="2.02689">
        <ele>133</ele>
        <time>2013-08-18T11:01:13Z</time>
      </trkpt>
      <trkpt lat="48.59154" lon="2.0272">
        <ele>133</ele>
        <time>2013-08-18T11:01:15Z</time>
      </trkpt>
      <trkpt lat="48.59151" lon="2.02747">
        <ele>133</ele>
        <time>2013-08-18T11:01:17Z</time>
      </trkpt>
      <trkpt lat="48.59149" lon="2.02773">
        <ele>133</ele>
        <time>2013-08-18T11:01:19Z</time>
      </trkpt>
      <trkpt lat="48.59148" lon="2.02796">
        <ele>133</ele>
        <time>2013-08-18T11:01:21Z</time>
      </trkpt>
      <trkpt lat="48.59146" lon="2.02817">
        <ele>133</ele>
        <time>2013-08-18T11:01:23Z</time>
      </trkpt>
      <trkpt lat="48.59146" lon="2.02839">
        <ele>133</ele>
        <time>2013-08-18T11:01:25Z</time>
      </trkpt>
      <trkpt lat="48.59146" lon="2.0286">
        <ele>133</ele>
        <time>2013-08-18T11:01:27Z</time>
      </trkpt>
      <trkpt lat="48.59146" lon="2.0288">
        <ele>133</ele>
        <time>2013-08-18T11:01:29Z</time>
      </trkpt>
      <trkpt lat="48.59147" lon="2.02901">
        <ele>133</ele>
        <time>2013-08-18T11:01:31Z</time>
      </trkpt>
      <trkpt lat="48.59147" lon="2.0292">
        <ele>132</ele>
        <time>2013-08-18T11:01:33Z</time>
      </trkpt>
      <trkpt lat="48.59147" lon="2.02937">
        <ele>131</ele>
        <time>2013-08-18T11:01:35Z</time>
      </trkpt>
      <trkpt lat="48.59148" lon="2.02951">
        <ele>130</ele>
        <time>2013-08-18T11:01:37Z</time>
      </trkpt>
      <trkpt lat="48.59148" lon="2.02965">
        <ele>129</ele>
        <time>2013-08-18T11:01:39Z</time>
      </trkpt>
      <trkpt lat="48.59149" lon="2.02977">
        <ele>128</ele>
        <time>2013-08-18T11:01:41Z</time>
      </trkpt>
      <trkpt lat="48.5915" lon="2.0299">
        <ele>127</ele>
        <time>2013-08-18T11:01:43Z</time>
      </trkpt>
      <trkpt lat="48.5915" lon="2.03001">
        <ele>127</ele>
        <time>2013-08-18T11:01:45Z</time>
      </trkpt>
      <trkpt lat="48.59151" lon="2.03011">
        <ele>126</ele>
        <time>2013-08-18T11:01:47Z</time>
      </trkpt>
      <trkpt lat="48.59152" lon="2.03022">
        <ele>125</ele>
        <time>2013-08-18T11:01:49Z</time>
      </trkpt>
      <trkpt lat="48.59152" lon="2.03032">
        <ele>125</ele>
        <time>2013-08-18T11:01:51Z</time>
      </trkpt>
      <trkpt lat="48.59153" lon="2.03042">
        <ele>125</ele>
        <time>2013-08-18T11:01:53Z</time>
      </trkpt>
      <trkpt lat="48.59154" lon="2.03052">
        <ele>124</ele>
        <time>2013-08-18T11:01:55Z</time>
      </trkpt>
      <trkpt lat="48.59155" lon="2.03061">
        <ele>124</ele>
        <time>2013-08-18T11:01:57Z</time>
      </trkpt>
      <trkpt lat="48.59156" lon="2.03068">
        <ele>123</ele>
        <time>2013-08-18T11:01:59Z</time>
      </trkpt>
      <trkpt lat="48.59157" lon="2.03076">
        <ele>123</ele>
        <time>2013-08-18T11:02:01Z</time>
      </trkpt>
      <trkpt lat="48.59158" lon="2.03084">
        <ele>123</ele>
        <time>2013-08-18T11:02:03Z</time>
      </trkpt>
      <trkpt lat="48.59158" lon="2.03091">
        <ele>123</ele>
        <time>2013-08-18T11:02:05Z</time>
      </trkpt>
      <trkpt lat="48.59159" lon="2.03099">
        <ele>123</ele>
        <time>2013-08-18T11:02:07Z</time>
      </trkpt>
      <trkpt lat="48.5916" lon="2.03106">
        <ele>123</ele>
        <time>2013-08-18T11:02:09Z</time>
      </trkpt>
      <trkpt lat="48.59161" lon="2.03114">
        <ele>123</ele>
        <time>2013-08-18T11:02:11Z</time>
      </trkpt>
      <trkpt lat="48.59161" lon="2.0312">
        <ele>122</ele>
        <time>2013-08-18T11:02:13Z</time>
      </trkpt>
      <trkpt lat="48.5916" lon="2.03126">
        <ele>122</ele>
        <time>2013-08-18T11:02:15Z</time>
      </trkpt>
      <trkpt lat="48.59161" lon="2.03132">
        <ele>122</ele>
        <time>2013-08-18T11:02:17Z</time>
      </trkpt>
      <trkpt lat="48.59161" lon="2.03137">
        <ele>122</ele>
        <time>2013-08-18T11:02:19Z</time>
      </trkpt>
      <trkpt lat="48.59161" lon="2.03141">
        <ele>122</ele>
        <time>2013-08-18T11:02:21Z</time>
      </trkpt>
      <trkpt lat="48.59161" lon="2.03146">
        <ele>122</ele>
        <time>2013-08-18T11:02:23Z</time>
      </trkpt>
      <trkpt lat="48.59161" lon="2.03151">
        <ele>122</ele>
        <time>2013-08-18T11:02:25Z</time>
      </trkpt>
      <trkpt lat="48.59161" lon="2.03155">
        <ele>122</ele>
        <time>2013-08-18T11:02:27Z</time>
      </trkpt>
      <trkpt lat="48.59161" lon="2.0316">
        <ele>122</ele>
        <time>2013-08-18T11:02:29Z</time>
      </trkpt>
      <trkpt lat="48.5916" lon="2.03167">
        <ele>122</ele>
        <time>2013-08-18T11:02:31Z</time>
      </trkpt>
      <trkpt lat="48.5916" lon="2.03175">
        <ele>122</ele>
        <time>2013-08-18T11:02:33Z</time>
      </trkpt>
      <trkpt lat="48.59161" lon="2.03184">
        <ele>122</ele>
        <time>2013-08-18T11:02:35Z</time>
      </trkpt>
      <trkpt lat="48.59161" lon="2.03192">
        <ele>122</ele>
        <time>2013-08-18T11:02:37Z</time>
      </trkpt>
      <trkpt lat="48.5916" lon="2.032">
        <ele>122</ele>
        <time>2013-08-18T11:02:39Z</time>
      </trkpt>
      <trkpt lat="48.59161" lon="2.03207">
        <ele>122</ele>
        <time>2013-08-18T11:02:41Z</time>
      </trkpt>
      <trkpt lat="48.59162" lon="2.03214">
        <ele>122</ele>
        <time>2013-08-18T11:02:43Z</time>
      </trkpt>
      <trkpt lat="48.59162" lon="2.03222">
        <ele>122</ele>
        <time>2013-08-18T11:02:45Z</time>
      </trkpt>
      <trkpt lat="48.59161" lon="2.03231">
        <ele>123</ele>
        <time>2013-08-18T11:02:47Z</time>
      </trkpt>
      <trkpt lat="48.59161" lon="2.03239">
        <ele>123</ele>
        <time>2013-08-18T11:02:49Z</time>
      </trkpt>
      <trkpt lat="48.59161" lon="2.03247">
        <ele>123</ele>
        <time>2013-08-18T11:02:51Z</time>
      </trkpt>
      <trkpt lat="48.59162" lon="2.03256">
        <ele>123</ele>
        <time>2013-08-18T11:02:53Z</time>
      </trkpt>
      <trkpt lat="48.59164" lon="2.03265">
        <ele>124</ele>
        <time>2013-08-18T11:02:55Z</time>
      </trkpt>
      <trkpt lat="48.59164" lon="2.03274">
        <ele>124</ele>
        <time>2013-08-18T11:02:57Z</time>
      </trkpt>
      <trkpt lat="48.59165" lon="2.03284">
        <ele>125</ele>
        <time>2013-08-18T11:02:59Z</time>
      </trkpt>
      <trkpt lat="48.59164" lon="2.03294">
        <ele>125</ele>
        <time>2013-08-18T11:03:01Z</time>
      </trkpt>
      <trkpt lat="48.59165" lon="2.03304">
        <ele>125</ele>
        <time>2013-08-18T11:03:03Z</time>
      </trkpt>
      <trkpt lat="48.59164" lon="2.03314">
        <ele>125</ele>
        <time>2013-08-18T11:03:05Z</time>
      </trkpt>
      <trkpt lat="48.59164" lon="2.03324">
        <ele>125</ele>
        <time>2013-08-18T11:03:07Z</time>
      </trkpt>
      <trkpt lat="48.59165" lon="2.03331">
        <ele>125</ele>
        <time>2013-08-18T11:03:09Z</time>
      </trkpt>
      <trkpt lat="48.59165" lon="2.03339">
        <ele>125</ele>
        <time>2013-08-18T11:03:11Z</time>
      </trkpt>
      <trkpt lat="48.59165" lon="2.03346">
        <ele>125</ele>
        <time>2013-08-18T11:03:13Z</time>
      </trkpt>
      <trkpt lat="48.59165" lon="2.03355">
        <ele>125</ele>
        <time>2013-08-18T11:03:15Z</time>
      </trkpt>
      <trkpt lat="48.59164" lon="2.03362">
        <ele>125</ele>
        <time>2013-08-18T11:03:17Z</time>
      </trkpt>
      <trkpt lat="48.59164" lon="2.03371">
        <ele>125</ele>
        <time>2013-08-18T11:03:19Z</time>
      </trkpt>
      <trkpt lat="48.59165" lon="2.03378">
        <ele>125</ele>
        <time>2013-08-18T11:03:21Z</time>
      </trkpt>
      <trkpt lat="48.59166" lon="2.03385">
        <ele>125</ele>
        <time>2013-08-18T11:03:23Z</time>
      </trkpt>
      <trkpt lat="48.59167" lon="2.03393">
        <ele>124</ele>
        <time>2013-08-18T11:03:25Z</time>
      </trkpt>
      <trkpt lat="48.59169" lon="2.034">
        <ele>124</ele>
        <time>2013-08-18T11:03:27Z</time>
      </trkpt>
      <trkpt lat="48.5917" lon="2.03407">
        <ele>124</ele>
        <time>2013-08-18T11:03:29Z</time>
      </trkpt>
      <trkpt lat="48.5917" lon="2.03414">
        <ele>124</ele>
        <time>2013-08-18T11:03:31Z</time>
      </trkpt>
      <trkpt lat="48.59171" lon="2.03422">
        <ele>123</ele>
        <time>2013-08-18T11:03:33Z</time>
      </trkpt>
      <trkpt lat="48.59172" lon="2.0343">
        <ele>122</ele>
        <time>2013-08-18T11:03:35Z</time>
      </trkpt>
      <trkpt lat="48.59173" lon="2.03437">
        <ele>122</ele>
        <time>2013-08-18T11:03:37Z</time>
      </trkpt>
      <trkpt lat="48.59174" lon="2.03445">
        <ele>122</ele>
        <time>2013-08-18T11:03:39Z</time>
      </trkpt>
      <trkpt lat="48.59174" lon="2.03451">
        <ele>122</ele>
        <time>2013-08-18T11:03:41Z</time>
      </trkpt>
      <trkpt lat="48.59174" lon="2.03456">
        <ele>122</ele>
        <time>2013-08-18T11:03:43Z</time>
      </trkpt>
      <trkpt lat="48.59174" lon="2.03461">
        <ele>122</ele>
        <time>2013-08-18T11:03:45Z</time>
      </trkpt>
      <trkpt lat="48.59175" lon="2.03466">
        <ele>122</ele>
        <time>2013-08-18T11:03:47Z</time>
      </trkpt>
      <trkpt lat="48.59175" lon="2.03471">
        <ele>122</ele>
        <time>2013-08-18T11:03:49Z</time>
      </trkpt>
      <trkpt lat="48.59176" lon="2.03476">
        <ele>122</ele>
        <time>2013-08-18T11:03:51Z</time>
      </trkpt>
      <trkpt lat="48.59177" lon="2.03481">
        <ele>122</ele>
        <time>2013-08-18T11:03:53Z</time>
      </trkpt>
      <trkpt lat="48.59178" lon="2.03485">
        <ele>122</ele>
        <time>2013-08-18T11:03:55Z</time>
      </trkpt>
      <trkpt lat="48.59179" lon="2.0349">
        <ele>123</ele>
        <time>2013-08-18T11:03:57Z</time>
      </trkpt>
      <trkpt lat="48.5918" lon="2.03494">
        <ele>125</ele>
        <time>2013-08-18T11:03:59Z</time>
      </trkpt>
      <trkpt lat="48.59179" lon="2.03498">
        <ele>127</ele>
        <time>2013-08-18T11:04:01Z</time>
      </trkpt>
      <trkpt lat="48.59179" lon="2.03501">
        <ele>129</ele>
        <time>2013-08-18T11:04:03Z</time>
      </trkpt>
      <trkpt lat="48.59178" lon="2.03505">
        <ele>131</ele>
        <time>2013-08-18T11:04:05Z</time>
      </trkpt>
      <trkpt lat="48.59178" lon="2.03509">
        <ele>131</ele>
        <time>2013-08-18T11:04:07Z</time>
      </trkpt>
      <trkpt lat="48.59179" lon="2.03514">
        <ele>131</ele>
        <time>2013-08-18T11:04:09Z</time>
      </trkpt>
      <trkpt lat="48.59179" lon="2.0352">
        <ele>131</ele>
        <time>2013-08-18T11:04:11Z</time>
      </trkpt>
      <trkpt lat="48.59179" lon="2.03524">
        <ele>132</ele>
        <time>2013-08-18T11:04:13Z</time>
      </trkpt>
      <trkpt lat="48.59179" lon="2.03527">
        <ele>132</ele>
        <time>2013-08-18T11:04:15Z</time>
      </trkpt>
      <trkpt lat="48.59179" lon="2.03531">
        <ele>132</ele>
        <time>2013-08-18T11:04:17Z</time>
      </trkpt>
      <trkpt lat="48.59179" lon="2.03536">
        <ele>132</ele>
        <time>2013-08-18T11:04:19Z</time>
      </trkpt>
      <trkpt lat="48.59179" lon="2.0354">
        <ele>132</ele>
        <time>2013-08-18T11:04:21Z</time>
      </trkpt>
      <trkpt lat="48.59178" lon="2.03545">
        <ele>132</ele>
        <time>2013-08-18T11:04:23Z</time>
      </trkpt>
      <trkpt lat="48.59178" lon="2.0355">
        <ele>132</ele>
        <time>2013-08-18T11:04:25Z</time>
      </trkpt>
      <trkpt lat="48.59178" lon="2.03554">
        <ele>132</ele>
        <time>2013-08-18T11:04:27Z</time>
      </trkpt>
      <trkpt lat="48.59178" lon="2.0356">
        <ele>132</ele>
        <time>2013-08-18T11:04:29Z</time>
      </trkpt>
      <trkpt lat="48.59179" lon="2.03565">
        <ele>132</ele>
        <time>2013-08-18T11:04:31Z</time>
      </trkpt>
      <trkpt lat="48.59179" lon="2.03569">
        <ele>132</ele>
        <time>2013-08-18T11:04:33Z</time>
      </trkpt>
      <trkpt lat="48.59179" lon="2.03574">
        <ele>132</ele>
        <time>2013-08-18T11:04:35Z</time>
      </trkpt>
      <trkpt lat="48.59179" lon="2.03579">
        <ele>132</ele>
        <time>2013-08-18T11:04:38Z</time>
      </trkpt>
      <trkpt lat="48.59179" lon="2.03584">
        <ele>132</ele>
        <time>2013-08-18T11:04:40Z</time>
      </trkpt>
      <trkpt lat="48.59179" lon="2.03588">
        <ele>132</ele>
        <time>2013-08-18T11:04:42Z</time>
      </trkpt>
      <trkpt lat="48.59178" lon="2.03592">
        <ele>132</ele>
        <time>2013-08-18T11:04:44Z</time>
      </trkpt>
      <trkpt lat="48.59177" lon="2.03595">
        <ele>132</ele>
        <time>2013-08-18T11:04:46Z</time>
      </trkpt>
      <trkpt lat="48.59179" lon="2.03599">
        <ele>134</ele>
        <time>2013-08-18T11:04:49Z</time>
      </trkpt>
      <trkpt lat="48.5918" lon="2.03595">
        <ele>135</ele>
        <time>2013-08-18T11:04:52Z</time>
      </trkpt>
      <trkpt lat="48.59178" lon="2.03593">
        <ele>135</ele>
        <time>2013-08-18T11:04:54Z</time>
      </trkpt>
      <trkpt lat="48.59177" lon="2.03593">
        <ele>135</ele>
        <time>2013-08-18T11:04:58Z</time>
      </trkpt>
      <trkpt lat="48.59175" lon="2.03593">
        <ele>134</ele>
        <time>2013-08-18T11:05:04Z</time>
      </trkpt>
      <trkpt lat="48.59175" lon="2.03594">
        <ele>132</ele>
        <time>2013-08-18T11:05:10Z</time>
      </trkpt>
      <trkpt lat="48.59174" lon="2.03593">
        <ele>130</ele>
        <time>2013-08-18T11:05:13Z</time>
      </trkpt>
      <trkpt lat="48.59172" lon="2.03595">
        <ele>129</ele>
        <time>2013-08-18T11:05:21Z</time>
      </trkpt>
      <trkpt lat="48.59173" lon="2.03599">
        <ele>129</ele>
        <time>2013-08-18T11:05:23Z</time>
      </trkpt>
      <trkpt lat="48.59174" lon="2.03601">
        <ele>129</ele>
        <time>2013-08-18T11:05:25Z</time>
      </trkpt>
      <trkpt lat="48.59175" lon="2.03603">
        <ele>129</ele>
        <time>2013-08-18T11:05:29Z</time>
      </trkpt>
      <trkpt lat="48.59177" lon="2.03603">
        <ele>129</ele>
        <time>2013-08-18T11:05:32Z</time>
      </trkpt>
      <trkpt lat="48.59178" lon="2.03601">
        <ele>124</ele>
        <time>2013-08-18T11:05:46Z</time>
      </trkpt>
      <trkpt lat="48.59177" lon="2.03603">
        <ele>124</ele>
        <time>2013-08-18T11:05:49Z</time>
      </trkpt>
      <trkpt lat="48.59174" lon="2.03604">
        <ele>124</ele>
        <time>2013-08-18T11:05:52Z</time>
      </trkpt>
      <trkpt lat="48.59173" lon="2.03602">
        <ele>122</ele>
        <time>2013-08-18T11:06:00Z</time>
      </trkpt>
      <trkpt lat="48.59173" lon="2.036">
        <ele>113</ele>
        <time>2013-08-18T11:06:17Z</time>
      </trkpt>
      <trkpt lat="48.59172" lon="2.03598">
        <ele>113</ele>
        <time>2013-08-18T11:06:25Z</time>
      </trkpt>
      <trkpt lat="48.59173" lon="2.036">
        <ele>113</ele>
        <time>2013-08-18T11:06:28Z</time>
      </trkpt>
      <trkpt lat="48.59173" lon="2.03601">
        <ele>113</ele>
        <time>2013-08-18T11:06:30Z</time>
      </trkpt>
      <trkpt lat="48.59175" lon="2.03603">
        <ele>113</ele>
        <time>2013-08-18T11:06:32Z</time>
      </trkpt>
      <trkpt lat="48.59176" lon="2.03604">
        <ele>114</ele>
        <time>2013-08-18T11:06:37Z</time>
      </trkpt>
      <trkpt lat="48.59177" lon="2.03604">
        <ele>114</ele>
        <time>2013-08-18T11:06:40Z</time>
      </trkpt>
      <trkpt lat="48.59178" lon="2.03603">
        <ele>114</ele>
        <time>2013-08-18T11:06:46Z</time>
      </trkpt>
      <trkpt lat="48.59177" lon="2.03603">
        <ele>114</ele>
        <time>2013-08-18T11:06:52Z</time>
      </trkpt>
      <trkpt lat="48.59175" lon="2.03603">
        <ele>114</ele>
        <time>2013-08-18T11:06:56Z</time>
      </trkpt>
      <trkpt lat="48.59174" lon="2.03601">
        <ele>114</ele>
        <time>2013-08-18T11:07:07Z</time>
      </trkpt>
      <trkpt lat="48.59175" lon="2.03601">
        <ele>114</ele>
        <time>2013-08-18T11:07:12Z</time>
      </trkpt>
      <trkpt lat="48.59178" lon="2.03598">
        <ele>114</ele>
        <time>2013-08-18T11:07:16Z</time>
      </trkpt>
      <trkpt lat="48.59177" lon="2.03596">
        <ele>114</ele>
        <time>2013-08-18T11:07:18Z</time>
      </trkpt>
      <trkpt lat="48.59177" lon="2.03594">
        <ele>114</ele>
        <time>2013-08-18T11:07:27Z</time>
      </trkpt>
      <trkpt lat="48.59176" lon="2.03592">
        <ele>114</ele>
        <time>2013-08-18T11:07:36Z</time>
      </trkpt>
      <trkpt lat="48.59177" lon="2.03594">
        <ele>114</ele>
        <time>2013-08-18T11:07:50Z</time>
      </trkpt>
      <trkpt lat="48.59175" lon="2.03595">
        <ele>115</ele>
        <time>2013-08-18T11:07:54Z</time>
      </trkpt>
      <trkpt lat="48.59174" lon="2.03595">
        <ele>115</ele>
        <time>2013-08-18T11:07:56Z</time>
      </trkpt>
      <trkpt lat="48.59173" lon="2.03598">
        <ele>115</ele>
        <time>2013-08-18T11:07:59Z</time>
      </trkpt>
      <trkpt lat="48.59174" lon="2.03601">
        <ele>116</ele>
        <time>2013-08-18T11:08:01Z</time>
      </trkpt>
      <trkpt lat="48.59176" lon="2.03602">
        <ele>118</ele>
        <time>2013-08-18T11:08:04Z</time>
      </trkpt>
      <trkpt lat="48.59177" lon="2.03604">
        <ele>118</ele>
        <time>2013-08-18T11:08:08Z</time>
      </trkpt>
      <trkpt lat="48.59177" lon="2.036">
        <ele>118</ele>
        <time>2013-08-18T11:08:18Z</time>
      </trkpt>
      <trkpt lat="48.59176" lon="2.03598">
        <ele>120</ele>
        <time>2013-08-18T11:08:20Z</time>
      </trkpt>
      <trkpt lat="48.59175" lon="2.03596">
        <ele>122</ele>
        <time>2013-08-18T11:08:22Z</time>
      </trkpt>
      <trkpt lat="48.59174" lon="2.03594">
        <ele>123</ele>
        <time>2013-08-18T11:08:30Z</time>
      </trkpt>
      <trkpt lat="48.59173" lon="2.03595">
        <ele>120</ele>
        <time>2013-08-18T11:08:38Z</time>
      </trkpt>
      <trkpt lat="48.59172" lon="2.03591">
        <ele>118</ele>
        <time>2013-08-18T11:08:43Z</time>
      </trkpt>
      <trkpt lat="48.59173" lon="2.03594">
        <ele>118</ele>
        <time>2013-08-18T11:08:51Z</time>
      </trkpt>
      <trkpt lat="48.59173" lon="2.03596">
        <ele>118</ele>
        <time>2013-08-18T11:08:53Z</time>
      </trkpt>
      <trkpt lat="48.59174" lon="2.03597">
        <ele>118</ele>
        <time>2013-08-18T11:08:57Z</time>
      </trkpt>
      <trkpt lat="48.59175" lon="2.03596">
        <ele>118</ele>
        <time>2013-08-18T11:09:02Z</time>
      </trkpt>
      <trkpt lat="48.59174" lon="2.03595">
        <ele>124</ele>
        <time>2013-08-18T11:09:17Z</time>
      </trkpt>
      <trkpt lat="48.59173" lon="2.03593">
        <ele>127</ele>
        <time>2013-08-18T11:09:20Z</time>
      </trkpt>
      <trkpt lat="48.59171" lon="2.03591">
        <ele>129</ele>
        <time>2013-08-18T11:09:22Z</time>
      </trkpt>
      <trkpt lat="48.5917" lon="2.03589">
        <ele>129</ele>
        <time>2013-08-18T11:09:24Z</time>
      </trkpt>
      <trkpt lat="48.5917" lon="2.03587">
        <ele>129</ele>
        <time>2013-08-18T11:09:27Z</time>
      </trkpt>
      <trkpt lat="48.59171" lon="2.03589">
        <ele>130</ele>
        <time>2013-08-18T11:09:41Z</time>
      </trkpt>
      <trkpt lat="48.59172" lon="2.03591">
        <ele>130</ele>
        <time>2013-08-18T11:09:44Z</time>
      </trkpt>
      <trkpt lat="48.59174" lon="2.03592">
        <ele>130</ele>
        <time>2013-08-18T11:09:47Z</time>
      </trkpt>
      <trkpt lat="48.59176" lon="2.03593">
        <ele>129</ele>
        <time>2013-08-18T11:09:49Z</time>
      </trkpt>
      <trkpt lat="48.59175" lon="2.03595">
        <ele>126</ele>
        <time>2013-08-18T11:09:54Z</time>
      </trkpt>
      <trkpt lat="48.59174" lon="2.03594">
        <ele>123</ele>
        <time>2013-08-18T11:09:59Z</time>
      </trkpt>
      <trkpt lat="48.59173" lon="2.03593">
        <ele>123</ele>
        <time>2013-08-18T11:10:02Z</time>
      </trkpt>
      <trkpt lat="48.59174" lon="2.03594">
        <ele>123</ele>
        <time>2013-08-18T11:10:14Z</time>
      </trkpt>
      <trkpt lat="48.59173" lon="2.03594">
        <ele>123</ele>
        <time>2013-08-18T11:10:29Z</time>
      </trkpt>
      <trkpt lat="48.59173" lon="2.03592">
        <ele>123</ele>
        <time>2013-08-18T11:10:46Z</time>
      </trkpt>
      <trkpt lat="48.59173" lon="2.03594">
        <ele>123</ele>
        <time>2013-08-18T11:10:50Z</time>
      </trkpt>
      <trkpt lat="48.59173" lon="2.03596">
        <ele>123</ele>
        <time>2013-08-18T11:10:52Z</time>
      </trkpt>
      <trkpt lat="48.59172" lon="2.036">
        <ele>123</ele>
        <time>2013-08-18T11:10:54Z</time>
      </trkpt>
      <trkpt lat="48.59173" lon="2.03604">
        <ele>123</ele>
        <time>2013-08-18T11:10:56Z</time>
      </trkpt>
      <trkpt lat="48.59175" lon="2.03609">
        <ele>123</ele>
        <time>2013-08-18T11:10:58Z</time>
      </trkpt>
      <trkpt lat="48.59176" lon="2.03614">
        <ele>123</ele>
        <time>2013-08-18T11:11:00Z</time>
      </trkpt>
      <trkpt lat="48.59176" lon="2.03619">
        <ele>123</ele>
        <time>2013-08-18T11:11:02Z</time>
      </trkpt>
      <trkpt lat="48.59177" lon="2.03624">
        <ele>123</ele>
        <time>2013-08-18T11:11:04Z</time>
      </trkpt>
      <trkpt lat="48.59177" lon="2.0363">
        <ele>123</ele>
        <time>2013-08-18T11:11:06Z</time>
      </trkpt>
      <trkpt lat="48.59176" lon="2.03637">
        <ele>122</ele>
        <time>2013-08-18T11:11:08Z</time>
      </trkpt>
      <trkpt lat="48.59177" lon="2.03642">
        <ele>121</ele>
        <time>2013-08-18T11:11:10Z</time>
      </trkpt>
      <trkpt lat="48.59177" lon="2.03647">
        <ele>121</ele>
        <time>2013-08-18T11:11:12Z</time>
      </trkpt>
      <trkpt lat="48.59177" lon="2.03653">
        <ele>121</ele>
        <time>2013-08-18T11:11:14Z</time>
      </trkpt>
      <trkpt lat="48.59177" lon="2.03658">
        <ele>121</ele>
        <time>2013-08-18T11:11:16Z</time>
      </trkpt>
      <trkpt lat="48.59177" lon="2.03663">
        <ele>121</ele>
        <time>2013-08-18T11:11:18Z</time>
      </trkpt>
      <trkpt lat="48.59176" lon="2.03669">
        <ele>121</ele>
        <time>2013-08-18T11:11:20Z</time>
      </trkpt>
      <trkpt lat="48.59174" lon="2.03673">
        <ele>121</ele>
        <time>2013-08-18T11:11:22Z</time>
      </trkpt>
      <trkpt lat="48.59173" lon="2.03677">
        <ele>121</ele>
        <time>2013-08-18T11:11:24Z</time>
      </trkpt>
      <trkpt lat="48.59173" lon="2.03682">
        <ele>120</ele>
        <time>2013-08-18T11:11:26Z</time>
      </trkpt>
      <trkpt lat="48.59173" lon="2.03687">
        <ele>119</ele>
        <time>2013-08-18T11:11:28Z</time>
      </trkpt>
      <trkpt lat="48.59175" lon="2.03692">
        <ele>119</ele>
        <time>2013-08-18T11:11:30Z</time>
      </trkpt>
      <trkpt lat="48.59175" lon="2.03697">
        <ele>119</ele>
        <time>2013-08-18T11:11:32Z</time>
      </trkpt>
      <trkpt lat="48.59175" lon="2.03702">
        <ele>119</ele>
        <time>2013-08-18T11:11:34Z</time>
      </trkpt>
      <trkpt lat="48.59176" lon="2.03708">
        <ele>119</ele>
        <time>2013-08-18T11:11:36Z</time>
      </trkpt>
      <trkpt lat="48.59175" lon="2.03713">
        <ele>119</ele>
        <time>2013-08-18T11:11:38Z</time>
      </trkpt>
      <trkpt lat="48.59175" lon="2.03718">
        <ele>119</ele>
        <time>2013-08-18T11:11:40Z</time>
      </trkpt>
      <trkpt lat="48.59175" lon="2.03722">
        <ele>119</ele>
        <time>2013-08-18T11:11:42Z</time>
      </trkpt>
      <trkpt lat="48.59175" lon="2.03728">
        <ele>119</ele>
        <time>2013-08-18T11:11:44Z</time>
      </trkpt>
      <trkpt lat="48.59174" lon="2.03733">
        <ele>119</ele>
        <time>2013-08-18T11:11:46Z</time>
      </trkpt>
      <trkpt lat="48.59175" lon="2.03738">
        <ele>119</ele>
        <time>2013-08-18T11:11:48Z</time>
      </trkpt>
      <trkpt lat="48.59176" lon="2.03742">
        <ele>118</ele>
        <time>2013-08-18T11:11:50Z</time>
      </trkpt>
      <trkpt lat="48.59176" lon="2.03747">
        <ele>118</ele>
        <time>2013-08-18T11:11:52Z</time>
      </trkpt>
      <trkpt lat="48.59176" lon="2.03752">
        <ele>118</ele>
        <time>2013-08-18T11:11:54Z</time>
      </trkpt>
      <trkpt lat="48.59175" lon="2.03758">
        <ele>118</ele>
        <time>2013-08-18T11:11:56Z</time>
      </trkpt>
      <trkpt lat="48.59176" lon="2.03764">
        <ele>118</ele>
        <time>2013-08-18T11:11:58Z</time>
      </trkpt>
      <trkpt lat="48.59176" lon="2.03769">
        <ele>118</ele>
        <time>2013-08-18T11:12:00Z</time>
      </trkpt>
      <trkpt lat="48.59176" lon="2.03775">
        <ele>118</ele>
        <time>2013-08-18T11:12:02Z</time>
      </trkpt>
      <trkpt lat="48.59177" lon="2.0378">
        <ele>118</ele>
        <time>2013-08-18T11:12:04Z</time>
      </trkpt>
      <trkpt lat="48.59177" lon="2.03784">
        <ele>118</ele>
        <time>2013-08-18T11:12:06Z</time>
      </trkpt>
      <trkpt lat="48.59177" lon="2.03788">
        <ele>118</ele>
        <time>2013-08-18T11:12:08Z</time>
      </trkpt>
      <trkpt lat="48.59176" lon="2.03793">
        <ele>118</ele>
        <time>2013-08-18T11:12:10Z</time>
      </trkpt>
      <trkpt lat="48.59176" lon="2.03799">
        <ele>119</ele>
        <time>2013-08-18T11:12:12Z</time>
      </trkpt>
      <trkpt lat="48.59176" lon="2.03804">
        <ele>120</ele>
        <time>2013-08-18T11:12:14Z</time>
      </trkpt>
      <trkpt lat="48.59176" lon="2.03809">
        <ele>122</ele>
        <time>2013-08-18T11:12:16Z</time>
      </trkpt>
      <trkpt lat="48.59177" lon="2.03814">
        <ele>122</ele>
        <time>2013-08-18T11:12:18Z</time>
      </trkpt>
      <trkpt lat="48.59179" lon="2.03819">
        <ele>122</ele>
        <time>2013-08-18T11:12:20Z</time>
      </trkpt>
      <trkpt lat="48.59179" lon="2.03823">
        <ele>122</ele>
        <time>2013-08-18T11:12:22Z</time>
      </trkpt>
      <trkpt lat="48.59179" lon="2.03827">
        <ele>122</ele>
        <time>2013-08-18T11:12:24Z</time>
      </trkpt>
      <trkpt lat="48.59179" lon="2.03832">
        <ele>122</ele>
        <time>2013-08-18T11:12:26Z</time>
      </trkpt>
      <trkpt lat="48.59179" lon="2.03837">
        <ele>122</ele>
        <time>2013-08-18T11:12:28Z</time>
      </trkpt>
      <trkpt lat="48.59178" lon="2.03842">
        <ele>122</ele>
        <time>2013-08-18T11:12:30Z</time>
      </trkpt>
      <trkpt lat="48.59178" lon="2.03848">
        <ele>124</ele>
        <time>2013-08-18T11:12:32Z</time>
      </trkpt>
      <trkpt lat="48.59177" lon="2.03854">
        <ele>124</ele>
        <time>2013-08-18T11:12:34Z</time>
      </trkpt>
      <trkpt lat="48.59178" lon="2.03858">
        <ele>124</ele>
        <time>2013-08-18T11:12:36Z</time>
      </trkpt>
      <trkpt lat="48.59178" lon="2.03863">
        <ele>124</ele>
        <time>2013-08-18T11:12:38Z</time>
      </trkpt>
      <trkpt lat="48.59178" lon="2.0387">
        <ele>124</ele>
        <time>2013-08-18T11:12:41Z</time>
      </trkpt>
      <trkpt lat="48.59179" lon="2.03875">
        <ele>124</ele>
        <time>2013-08-18T11:12:43Z</time>
      </trkpt>
      <trkpt lat="48.5918" lon="2.0388">
        <ele>124</ele>
        <time>2013-08-18T11:12:45Z</time>
      </trkpt>
      <trkpt lat="48.59181" lon="2.03885">
        <ele>124</ele>
        <time>2013-08-18T11:12:47Z</time>
      </trkpt>
      <trkpt lat="48.59182" lon="2.0389">
        <ele>124</ele>
        <time>2013-08-18T11:12:49Z</time>
      </trkpt>
      <trkpt lat="48.59181" lon="2.03894">
        <ele>124</ele>
        <time>2013-08-18T11:12:51Z</time>
      </trkpt>
      <trkpt lat="48.5918" lon="2.039">
        <ele>124</ele>
        <time>2013-08-18T11:12:53Z</time>
      </trkpt>
      <trkpt lat="48.5918" lon="2.03906">
        <ele>124</ele>
        <time>2013-08-18T11:12:55Z</time>
      </trkpt>
      <trkpt lat="48.59181" lon="2.03911">
        <ele>124</ele>
        <time>2013-08-18T11:12:57Z</time>
      </trkpt>
      <trkpt lat="48.59182" lon="2.03918">
        <ele>124</ele>
        <time>2013-08-18T11:12:59Z</time>
      </trkpt>
      <trkpt lat="48.59184" lon="2.03924">
        <ele>124</ele>
        <time>2013-08-18T11:13:01Z</time>
      </trkpt>
      <trkpt lat="48.59184" lon="2.0393">
        <ele>124</ele>
        <time>2013-08-18T11:13:03Z</time>
      </trkpt>
      <trkpt lat="48.59186" lon="2.03935">
        <ele>126</ele>
        <time>2013-08-18T11:13:05Z</time>
      </trkpt>
      <trkpt lat="48.59186" lon="2.03939">
        <ele>128</ele>
        <time>2013-08-18T11:13:07Z</time>
      </trkpt>
      <trkpt lat="48.59186" lon="2.03944">
        <ele>130</ele>
        <time>2013-08-18T11:13:09Z</time>
      </trkpt>
      <trkpt lat="48.59186" lon="2.03949">
        <ele>132</ele>
        <time>2013-08-18T11:13:11Z</time>
      </trkpt>
      <trkpt lat="48.59185" lon="2.03953">
        <ele>133</ele>
        <time>2013-08-18T11:13:13Z</time>
      </trkpt>
      <trkpt lat="48.59187" lon="2.03958">
        <ele>133</ele>
        <time>2013-08-18T11:13:15Z</time>
      </trkpt>
      <trkpt lat="48.59187" lon="2.03963">
        <ele>134</ele>
        <time>2013-08-18T11:13:17Z</time>
      </trkpt>
      <trkpt lat="48.59185" lon="2.0397">
        <ele>134</ele>
        <time>2013-08-18T11:13:20Z</time>
      </trkpt>
      <trkpt lat="48.59186" lon="2.03975">
        <ele>135</ele>
        <time>2013-08-18T11:13:22Z</time>
      </trkpt>
      <trkpt lat="48.59187" lon="2.03981">
        <ele>135</ele>
        <time>2013-08-18T11:13:24Z</time>
      </trkpt>
      <trkpt lat="48.59185" lon="2.03985">
        <ele>135</ele>
        <time>2013-08-18T11:13:26Z</time>
      </trkpt>
      <trkpt lat="48.59185" lon="2.0399">
        <ele>135</ele>
        <time>2013-08-18T11:13:28Z</time>
      </trkpt>
      <trkpt lat="48.59184" lon="2.03993">
        <ele>135</ele>
        <time>2013-08-18T11:13:30Z</time>
      </trkpt>
      <trkpt lat="48.59184" lon="2.03997">
        <ele>135</ele>
        <time>2013-08-18T11:13:32Z</time>
      </trkpt>
      <trkpt lat="48.59184" lon="2.04002">
        <ele>135</ele>
        <time>2013-08-18T11:13:34Z</time>
      </trkpt>
      <trkpt lat="48.59185" lon="2.04008">
        <ele>135</ele>
        <time>2013-08-18T11:13:36Z</time>
      </trkpt>
      <trkpt lat="48.59186" lon="2.04012">
        <ele>135</ele>
        <time>2013-08-18T11:13:38Z</time>
      </trkpt>
      <trkpt lat="48.59186" lon="2.04017">
        <ele>135</ele>
        <time>2013-08-18T11:13:40Z</time>
      </trkpt>
      <trkpt lat="48.59187" lon="2.04022">
        <ele>135</ele>
        <time>2013-08-18T11:13:42Z</time>
      </trkpt>
      <trkpt lat="48.59186" lon="2.04027">
        <ele>134</ele>
        <time>2013-08-18T11:13:44Z</time>
      </trkpt>
      <trkpt lat="48.59187" lon="2.04031">
        <ele>133</ele>
        <time>2013-08-18T11:13:46Z</time>
      </trkpt>
      <trkpt lat="48.59188" lon="2.04038">
        <ele>132</ele>
        <time>2013-08-18T11:13:48Z</time>
      </trkpt>
      <trkpt lat="48.59188" lon="2.04043">
        <ele>132</ele>
        <time>2013-08-18T11:13:50Z</time>
      </trkpt>
      <trkpt lat="48.5919" lon="2.04047">
        <ele>132</ele>
        <time>2013-08-18T11:13:52Z</time>
      </trkpt>
      <trkpt lat="48.59191" lon="2.04052">
        <ele>132</ele>
        <time>2013-08-18T11:13:54Z</time>
      </trkpt>
      <trkpt lat="48.59192" lon="2.04056">
        <ele>132</ele>
        <time>2013-08-18T11:13:56Z</time>
      </trkpt>
      <trkpt lat="48.59193" lon="2.04059">
        <ele>132</ele>
        <time>2013-08-18T11:13:58Z</time>
      </trkpt>
      <trkpt lat="48.59195" lon="2.04063">
        <ele>131</ele>
        <time>2013-08-18T11:14:00Z</time>
      </trkpt>
      <trkpt lat="48.59198" lon="2.04068">
        <ele>131</ele>
        <time>2013-08-18T11:14:03Z</time>
      </trkpt>
      <trkpt lat="48.592" lon="2.04071">
        <ele>131</ele>
        <time>2013-08-18T11:14:05Z</time>
      </trkpt>
      <trkpt lat="48.59204" lon="2.04074">
        <ele>131</ele>
        <time>2013-08-18T11:14:07Z</time>
      </trkpt>
      <trkpt lat="48.59207" lon="2.04078">
        <ele>131</ele>
        <time>2013-08-18T11:14:09Z</time>
      </trkpt>
      <trkpt lat="48.59209" lon="2.04081">
        <ele>131</ele>
        <time>2013-08-18T11:14:11Z</time>
      </trkpt>
      <trkpt lat="48.59212" lon="2.04084">
        <ele>131</ele>
        <time>2013-08-18T11:14:13Z</time>
      </trkpt>
      <trkpt lat="48.59218" lon="2.04091">
        <ele>131</ele>
        <time>2013-08-18T11:14:17Z</time>
      </trkpt>
      <trkpt lat="48.5922" lon="2.04094">
        <ele>130</ele>
        <time>2013-08-18T11:14:19Z</time>
      </trkpt>
      <trkpt lat="48.59224" lon="2.04097">
        <ele>130</ele>
        <time>2013-08-18T11:14:21Z</time>
      </trkpt>
      <trkpt lat="48.59227" lon="2.041">
        <ele>129</ele>
        <time>2013-08-18T11:14:23Z</time>
      </trkpt>
      <trkpt lat="48.5923" lon="2.04101">
        <ele>129</ele>
        <time>2013-08-18T11:14:25Z</time>
      </trkpt>
      <trkpt lat="48.59234" lon="2.04104">
        <ele>129</ele>
        <time>2013-08-18T11:14:28Z</time>
      </trkpt>
      <trkpt lat="48.59238" lon="2.04105">
        <ele>129</ele>
        <time>2013-08-18T11:14:30Z</time>
      </trkpt>
      <trkpt lat="48.59241" lon="2.04109">
        <ele>129</ele>
        <time>2013-08-18T11:14:33Z</time>
      </trkpt>
      <trkpt lat="48.59246" lon="2.04114">
        <ele>129</ele>
        <time>2013-08-18T11:14:36Z</time>
      </trkpt>
      <trkpt lat="48.59247" lon="2.04118">
        <ele>129</ele>
        <time>2013-08-18T11:14:38Z</time>
      </trkpt>
      <trkpt lat="48.59248" lon="2.04121">
        <ele>129</ele>
        <time>2013-08-18T11:14:40Z</time>
      </trkpt>
      <trkpt lat="48.59251" lon="2.04126">
        <ele>129</ele>
        <time>2013-08-18T11:14:42Z</time>
      </trkpt>
      <trkpt lat="48.59255" lon="2.04131">
        <ele>129</ele>
        <time>2013-08-18T11:14:45Z</time>
      </trkpt>
      <trkpt lat="48.59261" lon="2.04136">
        <ele>129</ele>
        <time>2013-08-18T11:14:48Z</time>
      </trkpt>
      <trkpt lat="48.59263" lon="2.04139">
        <ele>131</ele>
        <time>2013-08-18T11:14:50Z</time>
      </trkpt>
      <trkpt lat="48.59266" lon="2.04142">
        <ele>132</ele>
        <time>2013-08-18T11:14:52Z</time>
      </trkpt>
      <trkpt lat="48.59271" lon="2.04146">
        <ele>134</ele>
        <time>2013-08-18T11:14:55Z</time>
      </trkpt>
      <trkpt lat="48.59275" lon="2.04149">
        <ele>136</ele>
        <time>2013-08-18T11:14:58Z</time>
      </trkpt>
      <trkpt lat="48.59278" lon="2.04153">
        <ele>137</ele>
        <time>2013-08-18T11:15:00Z</time>
      </trkpt>
      <trkpt lat="48.5928" lon="2.04157">
        <ele>139</ele>
        <time>2013-08-18T11:15:03Z</time>
      </trkpt>
      <trkpt lat="48.59283" lon="2.04162">
        <ele>140</ele>
        <time>2013-08-18T11:15:05Z</time>
      </trkpt>
      <trkpt lat="48.59286" lon="2.04167">
        <ele>141</ele>
        <time>2013-08-18T11:15:08Z</time>
      </trkpt>
      <trkpt lat="48.59286" lon="2.04171">
        <ele>141</ele>
        <time>2013-08-18T11:15:10Z</time>
      </trkpt>
      <trkpt lat="48.59289" lon="2.04173">
        <ele>141</ele>
        <time>2013-08-18T11:15:12Z</time>
      </trkpt>
      <trkpt lat="48.5929" lon="2.04174">
        <ele>141</ele>
        <time>2013-08-18T11:15:14Z</time>
      </trkpt>
      <trkpt lat="48.59293" lon="2.04178">
        <ele>141</ele>
        <time>2013-08-18T11:15:17Z</time>
      </trkpt>
      <trkpt lat="48.59296" lon="2.04183">
        <ele>141</ele>
        <time>2013-08-18T11:15:20Z</time>
      </trkpt>
      <trkpt lat="48.59299" lon="2.04187">
        <ele>141</ele>
        <time>2013-08-18T11:15:22Z</time>
      </trkpt>
      <trkpt lat="48.59301" lon="2.04191">
        <ele>141</ele>
        <time>2013-08-18T11:15:24Z</time>
      </trkpt>
      <trkpt lat="48.59304" lon="2.04194">
        <ele>141</ele>
        <time>2013-08-18T11:15:26Z</time>
      </trkpt>
      <trkpt lat="48.59307" lon="2.04196">
        <ele>141</ele>
        <time>2013-08-18T11:15:28Z</time>
      </trkpt>
      <trkpt lat="48.5931" lon="2.04198">
        <ele>141</ele>
        <time>2013-08-18T11:15:31Z</time>
      </trkpt>
      <trkpt lat="48.59312" lon="2.042">
        <ele>141</ele>
        <time>2013-08-18T11:15:34Z</time>
      </trkpt>
      <trkpt lat="48.59315" lon="2.04197">
        <ele>139</ele>
        <time>2013-08-18T11:15:38Z</time>
      </trkpt>
      <trkpt lat="48.59316" lon="2.04199">
        <ele>137</ele>
        <time>2013-08-18T11:15:41Z</time>
      </trkpt>
      <trkpt lat="48.59319" lon="2.04203">
        <ele>137</ele>
        <time>2013-08-18T11:15:44Z</time>
      </trkpt>
      <trkpt lat="48.59322" lon="2.04205">
        <ele>136</ele>
        <time>2013-08-18T11:15:47Z</time>
      </trkpt>
      <trkpt lat="48.59325" lon="2.04207">
        <ele>136</ele>
        <time>2013-08-18T11:15:49Z</time>
      </trkpt>
      <trkpt lat="48.59326" lon="2.0421">
        <ele>136</ele>
        <time>2013-08-18T11:15:51Z</time>
      </trkpt>
      <trkpt lat="48.59328" lon="2.04216">
        <ele>136</ele>
        <time>2013-08-18T11:15:54Z</time>
      </trkpt>
      <trkpt lat="48.5933" lon="2.0422">
        <ele>136</ele>
        <time>2013-08-18T11:15:56Z</time>
      </trkpt>
      <trkpt lat="48.59333" lon="2.04224">
        <ele>136</ele>
        <time>2013-08-18T11:15:58Z</time>
      </trkpt>
      <trkpt lat="48.59336" lon="2.0423">
        <ele>136</ele>
        <time>2013-08-18T11:16:01Z</time>
      </trkpt>
      <trkpt lat="48.59341" lon="2.04234">
        <ele>136</ele>
        <time>2013-08-18T11:16:04Z</time>
      </trkpt>
      <trkpt lat="48.59344" lon="2.04235">
        <ele>136</ele>
        <time>2013-08-18T11:16:06Z</time>
      </trkpt>
      <trkpt lat="48.59346" lon="2.04237">
        <ele>136</ele>
        <time>2013-08-18T11:16:08Z</time>
      </trkpt>
      <trkpt lat="48.59349" lon="2.04239">
        <ele>136</ele>
        <time>2013-08-18T11:16:10Z</time>
      </trkpt>
      <trkpt lat="48.59352" lon="2.04242">
        <ele>136</ele>
        <time>2013-08-18T11:16:13Z</time>
      </trkpt>
      <trkpt lat="48.59356" lon="2.04245">
        <ele>136</ele>
        <time>2013-08-18T11:16:15Z</time>
      </trkpt>
      <trkpt lat="48.59359" lon="2.04247">
        <ele>136</ele>
        <time>2013-08-18T11:16:17Z</time>
      </trkpt>
      <trkpt lat="48.59362" lon="2.04249">
        <ele>136</ele>
        <time>2013-08-18T11:16:19Z</time>
      </trkpt>
      <trkpt lat="48.59365" lon="2.04251">
        <ele>135</ele>
        <time>2013-08-18T11:16:21Z</time>
      </trkpt>
      <trkpt lat="48.59368" lon="2.04252">
        <ele>134</ele>
        <time>2013-08-18T11:16:23Z</time>
      </trkpt>
      <trkpt lat="48.59371" lon="2.04253">
        <ele>134</ele>
        <time>2013-08-18T11:16:25Z</time>
      </trkpt>
      <trkpt lat="48.59373" lon="2.04252">
        <ele>134</ele>
        <time>2013-08-18T11:16:27Z</time>
      </trkpt>
      <trkpt lat="48.59378" lon="2.04253">
        <ele>134</ele>
        <time>2013-08-18T11:16:30Z</time>
      </trkpt>
      <trkpt lat="48.59382" lon="2.04253">
        <ele>134</ele>
        <time>2013-08-18T11:16:33Z</time>
      </trkpt>
      <trkpt lat="48.59385" lon="2.04251">
        <ele>134</ele>
        <time>2013-08-18T11:16:36Z</time>
      </trkpt>
      <trkpt lat="48.59389" lon="2.04251">
        <ele>134</ele>
        <time>2013-08-18T11:16:39Z</time>
      </trkpt>
      <trkpt lat="48.59391" lon="2.04252">
        <ele>134</ele>
        <time>2013-08-18T11:16:41Z</time>
      </trkpt>
      <trkpt lat="48.59395" lon="2.04254">
        <ele>136</ele>
        <time>2013-08-18T11:16:44Z</time>
      </trkpt>
      <trkpt lat="48.59398" lon="2.04253">
        <ele>137</ele>
        <time>2013-08-18T11:16:46Z</time>
      </trkpt>
      <trkpt lat="48.59404" lon="2.04252">
        <ele>139</ele>
        <time>2013-08-18T11:16:49Z</time>
      </trkpt>
      <trkpt lat="48.59408" lon="2.04252">
        <ele>141</ele>
        <time>2013-08-18T11:16:51Z</time>
      </trkpt>
      <trkpt lat="48.59413" lon="2.04257">
        <ele>144</ele>
        <time>2013-08-18T11:16:54Z</time>
      </trkpt>
      <trkpt lat="48.59417" lon="2.04259">
        <ele>146</ele>
        <time>2013-08-18T11:16:56Z</time>
      </trkpt>
      <trkpt lat="48.59423" lon="2.04262">
        <ele>146</ele>
        <time>2013-08-18T11:16:59Z</time>
      </trkpt>
      <trkpt lat="48.59426" lon="2.04264">
        <ele>146</ele>
        <time>2013-08-18T11:17:01Z</time>
      </trkpt>
      <trkpt lat="48.59431" lon="2.04267">
        <ele>148</ele>
        <time>2013-08-18T11:17:04Z</time>
      </trkpt>
      <trkpt lat="48.59434" lon="2.0427">
        <ele>148</ele>
        <time>2013-08-18T11:17:06Z</time>
      </trkpt>
      <trkpt lat="48.59439" lon="2.04275">
        <ele>148</ele>
        <time>2013-08-18T11:17:09Z</time>
      </trkpt>
      <trkpt lat="48.59441" lon="2.04278">
        <ele>148</ele>
        <time>2013-08-18T11:17:11Z</time>
      </trkpt>
      <trkpt lat="48.59444" lon="2.0428">
        <ele>148</ele>
        <time>2013-08-18T11:17:13Z</time>
      </trkpt>
      <trkpt lat="48.59448" lon="2.04283">
        <ele>148</ele>
        <time>2013-08-18T11:17:16Z</time>
      </trkpt>
      <trkpt lat="48.59452" lon="2.04288">
        <ele>148</ele>
        <time>2013-08-18T11:17:19Z</time>
      </trkpt>
      <trkpt lat="48.59454" lon="2.04292">
        <ele>148</ele>
        <time>2013-08-18T11:17:21Z</time>
      </trkpt>
      <trkpt lat="48.59457" lon="2.04298">
        <ele>148</ele>
        <time>2013-08-18T11:17:24Z</time>
      </trkpt>
      <trkpt lat="48.5946" lon="2.04302">
        <ele>148</ele>
        <time>2013-08-18T11:17:26Z</time>
      </trkpt>
      <trkpt lat="48.59463" lon="2.04305">
        <ele>148</ele>
        <time>2013-08-18T11:17:28Z</time>
      </trkpt>
      <trkpt lat="48.59465" lon="2.04308">
        <ele>148</ele>
        <time>2013-08-18T11:17:30Z</time>
      </trkpt>
      <trkpt lat="48.59469" lon="2.04311">
        <ele>148</ele>
        <time>2013-08-18T11:17:33Z</time>
      </trkpt>
      <trkpt lat="48.59473" lon="2.04313">
        <ele>148</ele>
        <time>2013-08-18T11:17:35Z</time>
      </trkpt>
      <trkpt lat="48.59475" lon="2.04314">
        <ele>148</ele>
        <time>2013-08-18T11:17:37Z</time>
      </trkpt>
      <trkpt lat="48.59481" lon="2.04317">
        <ele>148</ele>
        <time>2013-08-18T11:17:40Z</time>
      </trkpt>
      <trkpt lat="48.59486" lon="2.0432">
        <ele>148</ele>
        <time>2013-08-18T11:17:43Z</time>
      </trkpt>
      <trkpt lat="48.59488" lon="2.04322">
        <ele>148</ele>
        <time>2013-08-18T11:17:45Z</time>
      </trkpt>
      <trkpt lat="48.5949" lon="2.04324">
        <ele>147</ele>
        <time>2013-08-18T11:17:47Z</time>
      </trkpt>
      <trkpt lat="48.59492" lon="2.04327">
        <ele>147</ele>
        <time>2013-08-18T11:17:49Z</time>
      </trkpt>
      <trkpt lat="48.59496" lon="2.04332">
        <ele>147</ele>
        <time>2013-08-18T11:17:52Z</time>
      </trkpt>
      <trkpt lat="48.59498" lon="2.04335">
        <ele>147</ele>
        <time>2013-08-18T11:17:54Z</time>
      </trkpt>
      <trkpt lat="48.59501" lon="2.0434">
        <ele>147</ele>
        <time>2013-08-18T11:17:57Z</time>
      </trkpt>
      <trkpt lat="48.59503" lon="2.04344">
        <ele>147</ele>
        <time>2013-08-18T11:17:59Z</time>
      </trkpt>
      <trkpt lat="48.59506" lon="2.04348">
        <ele>147</ele>
        <time>2013-08-18T11:18:02Z</time>
      </trkpt>
      <trkpt lat="48.5951" lon="2.04353">
        <ele>149</ele>
        <time>2013-08-18T11:18:05Z</time>
      </trkpt>
      <trkpt lat="48.59514" lon="2.04358">
        <ele>149</ele>
        <time>2013-08-18T11:18:08Z</time>
      </trkpt>
      <trkpt lat="48.59518" lon="2.04361">
        <ele>149</ele>
        <time>2013-08-18T11:18:10Z</time>
      </trkpt>
      <trkpt lat="48.5952" lon="2.04365">
        <ele>151</ele>
        <time>2013-08-18T11:18:12Z</time>
      </trkpt>
      <trkpt lat="48.59522" lon="2.04368">
        <ele>153</ele>
        <time>2013-08-18T11:18:14Z</time>
      </trkpt>
      <trkpt lat="48.59523" lon="2.04372">
        <ele>154</ele>
        <time>2013-08-18T11:18:16Z</time>
      </trkpt>
      <trkpt lat="48.59526" lon="2.04376">
        <ele>156</ele>
        <time>2013-08-18T11:18:18Z</time>
      </trkpt>
      <trkpt lat="48.59529" lon="2.0438">
        <ele>158</ele>
        <time>2013-08-18T11:18:20Z</time>
      </trkpt>
      <trkpt lat="48.5953" lon="2.04385">
        <ele>160</ele>
        <time>2013-08-18T11:18:22Z</time>
      </trkpt>
      <trkpt lat="48.59529" lon="2.0439">
        <ele>162</ele>
        <time>2013-08-18T11:18:24Z</time>
      </trkpt>
      <trkpt lat="48.59528" lon="2.04394">
        <ele>164</ele>
        <time>2013-08-18T11:18:26Z</time>
      </trkpt>
      <trkpt lat="48.59525" lon="2.04399">
        <ele>167</ele>
        <time>2013-08-18T11:18:29Z</time>
      </trkpt>
      <trkpt lat="48.59521" lon="2.04405">
        <ele>170</ele>
        <time>2013-08-18T11:18:32Z</time>
      </trkpt>
      <trkpt lat="48.59517" lon="2.04409">
        <ele>170</ele>
        <time>2013-08-18T11:18:34Z</time>
      </trkpt>
      <trkpt lat="48.59513" lon="2.04415">
        <ele>170</ele>
        <time>2013-08-18T11:18:37Z</time>
      </trkpt>
      <trkpt lat="48.59511" lon="2.0442">
        <ele>170</ele>
        <time>2013-08-18T11:18:39Z</time>
      </trkpt>
      <trkpt lat="48.59509" lon="2.04424">
        <ele>170</ele>
        <time>2013-08-18T11:18:41Z</time>
      </trkpt>
      <trkpt lat="48.59507" lon="2.0443">
        <ele>170</ele>
        <time>2013-08-18T11:18:44Z</time>
      </trkpt>
      <trkpt lat="48.59504" lon="2.04436">
        <ele>170</ele>
        <time>2013-08-18T11:18:47Z</time>
      </trkpt>
      <trkpt lat="48.59501" lon="2.04439">
        <ele>169</ele>
        <time>2013-08-18T11:18:49Z</time>
      </trkpt>
      <trkpt lat="48.59497" lon="2.04444">
        <ele>167</ele>
        <time>2013-08-18T11:18:52Z</time>
      </trkpt>
      <trkpt lat="48.59494" lon="2.04447">
        <ele>166</ele>
        <time>2013-08-18T11:18:54Z</time>
      </trkpt>
      <trkpt lat="48.59491" lon="2.04452">
        <ele>163</ele>
        <time>2013-08-18T11:18:57Z</time>
      </trkpt>
      <trkpt lat="48.59489" lon="2.04455">
        <ele>162</ele>
        <time>2013-08-18T11:18:59Z</time>
      </trkpt>
      <trkpt lat="48.59485" lon="2.04461">
        <ele>161</ele>
        <time>2013-08-18T11:19:02Z</time>
      </trkpt>
      <trkpt lat="48.59483" lon="2.04464">
        <ele>161</ele>
        <time>2013-08-18T11:19:04Z</time>
      </trkpt>
      <trkpt lat="48.59481" lon="2.04467">
        <ele>161</ele>
        <time>2013-08-18T11:19:06Z</time>
      </trkpt>
      <trkpt lat="48.59479" lon="2.04471">
        <ele>161</ele>
        <time>2013-08-18T11:19:08Z</time>
      </trkpt>
      <trkpt lat="48.59478" lon="2.04473">
        <ele>161</ele>
        <time>2013-08-18T11:19:10Z</time>
      </trkpt>
      <trkpt lat="48.59475" lon="2.04477">
        <ele>161</ele>
        <time>2013-08-18T11:19:12Z</time>
      </trkpt>
      <trkpt lat="48.59472" lon="2.04479">
        <ele>162</ele>
        <time>2013-08-18T11:19:14Z</time>
      </trkpt>
      <trkpt lat="48.5947" lon="2.04482">
        <ele>162</ele>
        <time>2013-08-18T11:19:16Z</time>
      </trkpt>
      <trkpt lat="48.59466" lon="2.04486">
        <ele>162</ele>
        <time>2013-08-18T11:19:19Z</time>
      </trkpt>
      <trkpt lat="48.59463" lon="2.04489">
        <ele>162</ele>
        <time>2013-08-18T11:19:21Z</time>
      </trkpt>
      <trkpt lat="48.5946" lon="2.04492">
        <ele>162</ele>
        <time>2013-08-18T11:19:23Z</time>
      </trkpt>
      <trkpt lat="48.59457" lon="2.04497">
        <ele>162</ele>
        <time>2013-08-18T11:19:26Z</time>
      </trkpt>
      <trkpt lat="48.59456" lon="2.04502">
        <ele>162</ele>
        <time>2013-08-18T11:19:28Z</time>
      </trkpt>
      <trkpt lat="48.59455" lon="2.04506">
        <ele>162</ele>
        <time>2013-08-18T11:19:30Z</time>
      </trkpt>
      <trkpt lat="48.59455" lon="2.04511">
        <ele>162</ele>
        <time>2013-08-18T11:19:32Z</time>
      </trkpt>
      <trkpt lat="48.59456" lon="2.04517">
        <ele>162</ele>
        <time>2013-08-18T11:19:34Z</time>
      </trkpt>
      <trkpt lat="48.59457" lon="2.04521">
        <ele>162</ele>
        <time>2013-08-18T11:19:36Z</time>
      </trkpt>
      <trkpt lat="48.5946" lon="2.04526">
        <ele>162</ele>
        <time>2013-08-18T11:19:38Z</time>
      </trkpt>
      <trkpt lat="48.59461" lon="2.04529">
        <ele>164</ele>
        <time>2013-08-18T11:19:40Z</time>
      </trkpt>
      <trkpt lat="48.59464" lon="2.04533">
        <ele>164</ele>
        <time>2013-08-18T11:19:43Z</time>
      </trkpt>
      <trkpt lat="48.59466" lon="2.04538">
        <ele>165</ele>
        <time>2013-08-18T11:19:45Z</time>
      </trkpt>
      <trkpt lat="48.59467" lon="2.04542">
        <ele>166</ele>
        <time>2013-08-18T11:19:47Z</time>
      </trkpt>
      <trkpt lat="48.59468" lon="2.04546">
        <ele>167</ele>
        <time>2013-08-18T11:19:49Z</time>
      </trkpt>
      <trkpt lat="48.59471" lon="2.04551">
        <ele>167</ele>
        <time>2013-08-18T11:19:51Z</time>
      </trkpt>
      <trkpt lat="48.59473" lon="2.04556">
        <ele>168</ele>
        <time>2013-08-18T11:19:53Z</time>
      </trkpt>
      <trkpt lat="48.59475" lon="2.0456">
        <ele>169</ele>
        <time>2013-08-18T11:19:55Z</time>
      </trkpt>
      <trkpt lat="48.59479" lon="2.04563">
        <ele>170</ele>
        <time>2013-08-18T11:19:57Z</time>
      </trkpt>
      <trkpt lat="48.59481" lon="2.04569">
        <ele>171</ele>
        <time>2013-08-18T11:20:00Z</time>
      </trkpt>
      <trkpt lat="48.59483" lon="2.04572">
        <ele>171</ele>
        <time>2013-08-18T11:20:02Z</time>
      </trkpt>
      <trkpt lat="48.59485" lon="2.04576">
        <ele>171</ele>
        <time>2013-08-18T11:20:04Z</time>
      </trkpt>
      <trkpt lat="48.59487" lon="2.04579">
        <ele>171</ele>
        <time>2013-08-18T11:20:06Z</time>
      </trkpt>
      <trkpt lat="48.59489" lon="2.04583">
        <ele>171</ele>
        <time>2013-08-18T11:20:08Z</time>
      </trkpt>
      <trkpt lat="48.59491" lon="2.04588">
        <ele>171</ele>
        <time>2013-08-18T11:20:10Z</time>
      </trkpt>
      <trkpt lat="48.59494" lon="2.04592">
        <ele>171</ele>
        <time>2013-08-18T11:20:12Z</time>
      </trkpt>
      <trkpt lat="48.59496" lon="2.04595">
        <ele>171</ele>
        <time>2013-08-18T11:20:14Z</time>
      </trkpt>
      <trkpt lat="48.59497" lon="2.04599">
        <ele>171</ele>
        <time>2013-08-18T11:20:16Z</time>
      </trkpt>
      <trkpt lat="48.595" lon="2.04603">
        <ele>171</ele>
        <time>2013-08-18T11:20:18Z</time>
      </trkpt>
      <trkpt lat="48.59503" lon="2.04608">
        <ele>171</ele>
        <time>2013-08-18T11:20:20Z</time>
      </trkpt>
      <trkpt lat="48.59503" lon="2.04611">
        <ele>171</ele>
        <time>2013-08-18T11:20:22Z</time>
      </trkpt>
      <trkpt lat="48.59505" lon="2.04615">
        <ele>170</ele>
        <time>2013-08-18T11:20:24Z</time>
      </trkpt>
      <trkpt lat="48.59507" lon="2.04619">
        <ele>168</ele>
        <time>2013-08-18T11:20:28Z</time>
      </trkpt>
      <trkpt lat="48.59508" lon="2.04622">
        <ele>168</ele>
        <time>2013-08-18T11:20:31Z</time>
      </trkpt>
      <trkpt lat="48.59511" lon="2.04626">
        <ele>168</ele>
        <time>2013-08-18T11:20:33Z</time>
      </trkpt>
      <trkpt lat="48.59513" lon="2.04631">
        <ele>168</ele>
        <time>2013-08-18T11:20:35Z</time>
      </trkpt>
      <trkpt lat="48.59515" lon="2.04636">
        <ele>168</ele>
        <time>2013-08-18T11:20:37Z</time>
      </trkpt>
      <trkpt lat="48.59518" lon="2.0464">
        <ele>168</ele>
        <time>2013-08-18T11:20:39Z</time>
      </trkpt>
      <trkpt lat="48.5952" lon="2.04644">
        <ele>168</ele>
        <time>2013-08-18T11:20:41Z</time>
      </trkpt>
      <trkpt lat="48.59522" lon="2.04648">
        <ele>167</ele>
        <time>2013-08-18T11:20:43Z</time>
      </trkpt>
      <trkpt lat="48.59526" lon="2.04652">
        <ele>167</ele>
        <time>2013-08-18T11:20:45Z</time>
      </trkpt>
      <trkpt lat="48.59529" lon="2.04657">
        <ele>166</ele>
        <time>2013-08-18T11:20:47Z</time>
      </trkpt>
      <trkpt lat="48.59531" lon="2.0466">
        <ele>166</ele>
        <time>2013-08-18T11:20:49Z</time>
      </trkpt>
      <trkpt lat="48.59533" lon="2.04664">
        <ele>166</ele>
        <time>2013-08-18T11:20:51Z</time>
      </trkpt>
      <trkpt lat="48.59535" lon="2.04669">
        <ele>166</ele>
        <time>2013-08-18T11:20:53Z</time>
      </trkpt>
      <trkpt lat="48.59537" lon="2.04673">
        <ele>166</ele>
        <time>2013-08-18T11:20:55Z</time>
      </trkpt>
      <trkpt lat="48.59539" lon="2.04677">
        <ele>166</ele>
        <time>2013-08-18T11:20:57Z</time>
      </trkpt>
      <trkpt lat="48.59541" lon="2.0468">
        <ele>166</ele>
        <time>2013-08-18T11:20:59Z</time>
      </trkpt>
      <trkpt lat="48.59542" lon="2.04684">
        <ele>166</ele>
        <time>2013-08-18T11:21:01Z</time>
      </trkpt>
      <trkpt lat="48.59544" lon="2.04689">
        <ele>166</ele>
        <time>2013-08-18T11:21:03Z</time>
      </trkpt>
      <trkpt lat="48.59545" lon="2.04693">
        <ele>166</ele>
        <time>2013-08-18T11:21:05Z</time>
      </trkpt>
      <trkpt lat="48.59546" lon="2.04697">
        <ele>166</ele>
        <time>2013-08-18T11:21:07Z</time>
      </trkpt>
      <trkpt lat="48.59548" lon="2.04701">
        <ele>166</ele>
        <time>2013-08-18T11:21:09Z</time>
      </trkpt>
      <trkpt lat="48.5955" lon="2.04704">
        <ele>166</ele>
        <time>2013-08-18T11:21:11Z</time>
      </trkpt>
      <trkpt lat="48.59552" lon="2.04708">
        <ele>166</ele>
        <time>2013-08-18T11:21:13Z</time>
      </trkpt>
      <trkpt lat="48.59556" lon="2.04712">
        <ele>166</ele>
        <time>2013-08-18T11:21:16Z</time>
      </trkpt>
      <trkpt lat="48.59559" lon="2.04714">
        <ele>166</ele>
        <time>2013-08-18T11:21:18Z</time>
      </trkpt>
      <trkpt lat="48.5956" lon="2.04718">
        <ele>166</ele>
        <time>2013-08-18T11:21:20Z</time>
      </trkpt>
      <trkpt lat="48.59564" lon="2.04723">
        <ele>166</ele>
        <time>2013-08-18T11:21:23Z</time>
      </trkpt>
      <trkpt lat="48.59567" lon="2.04725">
        <ele>166</ele>
        <time>2013-08-18T11:21:25Z</time>
      </trkpt>
      <trkpt lat="48.59571" lon="2.04729">
        <ele>166</ele>
        <time>2013-08-18T11:21:28Z</time>
      </trkpt>
      <trkpt lat="48.59576" lon="2.04732">
        <ele>166</ele>
        <time>2013-08-18T11:21:31Z</time>
      </trkpt>
      <trkpt lat="48.59579" lon="2.04735">
        <ele>165</ele>
        <time>2013-08-18T11:21:33Z</time>
      </trkpt>
      <trkpt lat="48.59583" lon="2.04738">
        <ele>165</ele>
        <time>2013-08-18T11:21:35Z</time>
      </trkpt>
      <trkpt lat="48.59586" lon="2.0474">
        <ele>165</ele>
        <time>2013-08-18T11:21:37Z</time>
      </trkpt>
      <trkpt lat="48.5959" lon="2.04743">
        <ele>164</ele>
        <time>2013-08-18T11:21:40Z</time>
      </trkpt>
      <trkpt lat="48.59594" lon="2.04747">
        <ele>163</ele>
        <time>2013-08-18T11:21:43Z</time>
      </trkpt>
      <trkpt lat="48.59597" lon="2.04749">
        <ele>162</ele>
        <time>2013-08-18T11:21:45Z</time>
      </trkpt>
      <trkpt lat="48.59601" lon="2.04752">
        <ele>161</ele>
        <time>2013-08-18T11:21:48Z</time>
      </trkpt>
      <trkpt lat="48.59605" lon="2.04755">
        <ele>161</ele>
        <time>2013-08-18T11:21:51Z</time>
      </trkpt>
      <trkpt lat="48.59608" lon="2.04757">
        <ele>161</ele>
        <time>2013-08-18T11:21:53Z</time>
      </trkpt>
      <trkpt lat="48.59612" lon="2.04758">
        <ele>161</ele>
        <time>2013-08-18T11:21:55Z</time>
      </trkpt>
      <trkpt lat="48.59617" lon="2.04761">
        <ele>160</ele>
        <time>2013-08-18T11:21:58Z</time>
      </trkpt>
      <trkpt lat="48.5962" lon="2.04764">
        <ele>160</ele>
        <time>2013-08-18T11:22:00Z</time>
      </trkpt>
      <trkpt lat="48.59623" lon="2.04768">
        <ele>160</ele>
        <time>2013-08-18T11:22:03Z</time>
      </trkpt>
      <trkpt lat="48.59627" lon="2.0477">
        <ele>160</ele>
        <time>2013-08-18T11:22:05Z</time>
      </trkpt>
      <trkpt lat="48.59633" lon="2.04773">
        <ele>160</ele>
        <time>2013-08-18T11:22:08Z</time>
      </trkpt>
      <trkpt lat="48.59637" lon="2.04776">
        <ele>160</ele>
        <time>2013-08-18T11:22:11Z</time>
      </trkpt>
      <trkpt lat="48.5964" lon="2.04778">
        <ele>159</ele>
        <time>2013-08-18T11:22:13Z</time>
      </trkpt>
      <trkpt lat="48.59643" lon="2.0478">
        <ele>158</ele>
        <time>2013-08-18T11:22:15Z</time>
      </trkpt>
      <trkpt lat="48.59648" lon="2.04782">
        <ele>158</ele>
        <time>2013-08-18T11:22:19Z</time>
      </trkpt>
      <trkpt lat="48.59652" lon="2.04785">
        <ele>158</ele>
        <time>2013-08-18T11:22:22Z</time>
      </trkpt>
      <trkpt lat="48.59656" lon="2.04788">
        <ele>158</ele>
        <time>2013-08-18T11:22:25Z</time>
      </trkpt>
      <trkpt lat="48.5966" lon="2.0479">
        <ele>156</ele>
        <time>2013-08-18T11:22:28Z</time>
      </trkpt>
      <trkpt lat="48.59663" lon="2.04792">
        <ele>155</ele>
        <time>2013-08-18T11:22:30Z</time>
      </trkpt>
      <trkpt lat="48.59665" lon="2.04793">
        <ele>155</ele>
        <time>2013-08-18T11:22:32Z</time>
      </trkpt>
      <trkpt lat="48.59669" lon="2.04797">
        <ele>154</ele>
        <time>2013-08-18T11:22:35Z</time>
      </trkpt>
      <trkpt lat="48.59672" lon="2.04799">
        <ele>154</ele>
        <time>2013-08-18T11:22:37Z</time>
      </trkpt>
      <trkpt lat="48.59675" lon="2.04799">
        <ele>154</ele>
        <time>2013-08-18T11:22:39Z</time>
      </trkpt>
      <trkpt lat="48.5968" lon="2.048">
        <ele>154</ele>
        <time>2013-08-18T11:22:42Z</time>
      </trkpt>
      <trkpt lat="48.59681" lon="2.04802">
        <ele>154</ele>
        <time>2013-08-18T11:22:44Z</time>
      </trkpt>
      <trkpt lat="48.59684" lon="2.04804">
        <ele>154</ele>
        <time>2013-08-18T11:22:47Z</time>
      </trkpt>
      <trkpt lat="48.59687" lon="2.04807">
        <ele>154</ele>
        <time>2013-08-18T11:22:49Z</time>
      </trkpt>
      <trkpt lat="48.5969" lon="2.04811">
        <ele>154</ele>
        <time>2013-08-18T11:22:52Z</time>
      </trkpt>
      <trkpt lat="48.59693" lon="2.04814">
        <ele>154</ele>
        <time>2013-08-18T11:22:54Z</time>
      </trkpt>
      <trkpt lat="48.59697" lon="2.04816">
        <ele>154</ele>
        <time>2013-08-18T11:22:56Z</time>
      </trkpt>
      <trkpt lat="48.597" lon="2.04817">
        <ele>152</ele>
        <time>2013-08-18T11:22:58Z</time>
      </trkpt>
      <trkpt lat="48.59702" lon="2.0482">
        <ele>152</ele>
        <time>2013-08-18T11:23:00Z</time>
      </trkpt>
      <trkpt lat="48.59708" lon="2.04823">
        <ele>151</ele>
        <time>2013-08-18T11:23:04Z</time>
      </trkpt>
      <trkpt lat="48.59712" lon="2.04826">
        <ele>151</ele>
        <time>2013-08-18T11:23:06Z</time>
      </trkpt>
      <trkpt lat="48.59715" lon="2.04827">
        <ele>151</ele>
        <time>2013-08-18T11:23:08Z</time>
      </trkpt>
      <trkpt lat="48.59718" lon="2.0483">
        <ele>151</ele>
        <time>2013-08-18T11:23:10Z</time>
      </trkpt>
      <trkpt lat="48.5972" lon="2.04832">
        <ele>149</ele>
        <time>2013-08-18T11:23:12Z</time>
      </trkpt>
      <trkpt lat="48.59725" lon="2.04836">
        <ele>146</ele>
        <time>2013-08-18T11:23:15Z</time>
      </trkpt>
      <trkpt lat="48.5973" lon="2.04838">
        <ele>143</ele>
        <time>2013-08-18T11:23:18Z</time>
      </trkpt>
      <trkpt lat="48.59733" lon="2.04841">
        <ele>141</ele>
        <time>2013-08-18T11:23:20Z</time>
      </trkpt>
      <trkpt lat="48.59738" lon="2.04844">
        <ele>140</ele>
        <time>2013-08-18T11:23:23Z</time>
      </trkpt>
      <trkpt lat="48.59741" lon="2.04846">
        <ele>140</ele>
        <time>2013-08-18T11:23:25Z</time>
      </trkpt>
      <trkpt lat="48.59743" lon="2.04849">
        <ele>139</ele>
        <time>2013-08-18T11:23:27Z</time>
      </trkpt>
      <trkpt lat="48.59747" lon="2.04851">
        <ele>138</ele>
        <time>2013-08-18T11:23:29Z</time>
      </trkpt>
      <trkpt lat="48.5975" lon="2.04854">
        <ele>137</ele>
        <time>2013-08-18T11:23:31Z</time>
      </trkpt>
      <trkpt lat="48.59756" lon="2.04857">
        <ele>136</ele>
        <time>2013-08-18T11:23:34Z</time>
      </trkpt>
      <trkpt lat="48.59759" lon="2.04859">
        <ele>136</ele>
        <time>2013-08-18T11:23:37Z</time>
      </trkpt>
      <trkpt lat="48.59763" lon="2.04862">
        <ele>136</ele>
        <time>2013-08-18T11:23:40Z</time>
      </trkpt>
      <trkpt lat="48.59766" lon="2.04865">
        <ele>136</ele>
        <time>2013-08-18T11:23:42Z</time>
      </trkpt>
      <trkpt lat="48.59771" lon="2.04868">
        <ele>136</ele>
        <time>2013-08-18T11:23:45Z</time>
      </trkpt>
      <trkpt lat="48.59774" lon="2.04869">
        <ele>136</ele>
        <time>2013-08-18T11:23:47Z</time>
      </trkpt>
      <trkpt lat="48.59778" lon="2.04871">
        <ele>136</ele>
        <time>2013-08-18T11:23:49Z</time>
      </trkpt>
      <trkpt lat="48.59781" lon="2.04874">
        <ele>136</ele>
        <time>2013-08-18T11:23:51Z</time>
      </trkpt>
      <trkpt lat="48.59784" lon="2.04875">
        <ele>136</ele>
        <time>2013-08-18T11:23:53Z</time>
      </trkpt>
      <trkpt lat="48.59789" lon="2.04877">
        <ele>136</ele>
        <time>2013-08-18T11:23:55Z</time>
      </trkpt>
      <trkpt lat="48.59793" lon="2.04879">
        <ele>136</ele>
        <time>2013-08-18T11:23:57Z</time>
      </trkpt>
      <trkpt lat="48.598" lon="2.04883">
        <ele>136</ele>
        <time>2013-08-18T11:24:00Z</time>
      </trkpt>
      <trkpt lat="48.59803" lon="2.04886">
        <ele>136</ele>
        <time>2013-08-18T11:24:02Z</time>
      </trkpt>
      <trkpt lat="48.59808" lon="2.04889">
        <ele>136</ele>
        <time>2013-08-18T11:24:05Z</time>
      </trkpt>
      <trkpt lat="48.59811" lon="2.0489">
        <ele>136</ele>
        <time>2013-08-18T11:24:07Z</time>
      </trkpt>
      <trkpt lat="48.59816" lon="2.04891">
        <ele>136</ele>
        <time>2013-08-18T11:24:11Z</time>
      </trkpt>
      <trkpt lat="48.59819" lon="2.04895">
        <ele>136</ele>
        <time>2013-08-18T11:24:13Z</time>
      </trkpt>
      <trkpt lat="48.59822" lon="2.04897">
        <ele>136</ele>
        <time>2013-08-18T11:24:15Z</time>
      </trkpt>
      <trkpt lat="48.59826" lon="2.04899">
        <ele>136</ele>
        <time>2013-08-18T11:24:17Z</time>
      </trkpt>
      <trkpt lat="48.5983" lon="2.04902">
        <ele>136</ele>
        <time>2013-08-18T11:24:20Z</time>
      </trkpt>
      <trkpt lat="48.59834" lon="2.04905">
        <ele>136</ele>
        <time>2013-08-18T11:24:22Z</time>
      </trkpt>
      <trkpt lat="48.59838" lon="2.04909">
        <ele>136</ele>
        <time>2013-08-18T11:24:25Z</time>
      </trkpt>
      <trkpt lat="48.59841" lon="2.04911">
        <ele>136</ele>
        <time>2013-08-18T11:24:27Z</time>
      </trkpt>
      <trkpt lat="48.59847" lon="2.04913">
        <ele>136</ele>
        <time>2013-08-18T11:24:30Z</time>
      </trkpt>
      <trkpt lat="48.59851" lon="2.04917">
        <ele>137</ele>
        <time>2013-08-18T11:24:32Z</time>
      </trkpt>
      <trkpt lat="48.59856" lon="2.04921">
        <ele>137</ele>
        <time>2013-08-18T11:24:36Z</time>
      </trkpt>
      <trkpt lat="48.59859" lon="2.04924">
        <ele>137</ele>
        <time>2013-08-18T11:24:38Z</time>
      </trkpt>
      <trkpt lat="48.59862" lon="2.04926">
        <ele>137</ele>
        <time>2013-08-18T11:24:40Z</time>
      </trkpt>
      <trkpt lat="48.59866" lon="2.04929">
        <ele>137</ele>
        <time>2013-08-18T11:24:42Z</time>
      </trkpt>
      <trkpt lat="48.59871" lon="2.04933">
        <ele>137</ele>
        <time>2013-08-18T11:24:45Z</time>
      </trkpt>
      <trkpt lat="48.59874" lon="2.04936">
        <ele>135</ele>
        <time>2013-08-18T11:24:47Z</time>
      </trkpt>
      <trkpt lat="48.59877" lon="2.0494">
        <ele>132</ele>
        <time>2013-08-18T11:24:50Z</time>
      </trkpt>
      <trkpt lat="48.5988" lon="2.04942">
        <ele>131</ele>
        <time>2013-08-18T11:24:52Z</time>
      </trkpt>
      <trkpt lat="48.59885" lon="2.04944">
        <ele>131</ele>
        <time>2013-08-18T11:24:55Z</time>
      </trkpt>
      <trkpt lat="48.59888" lon="2.04946">
        <ele>131</ele>
        <time>2013-08-18T11:24:57Z</time>
      </trkpt>
      <trkpt lat="48.59893" lon="2.04947">
        <ele>131</ele>
        <time>2013-08-18T11:25:00Z</time>
      </trkpt>
      <trkpt lat="48.59896" lon="2.04948">
        <ele>131</ele>
        <time>2013-08-18T11:25:02Z</time>
      </trkpt>
      <trkpt lat="48.59901" lon="2.04952">
        <ele>131</ele>
        <time>2013-08-18T11:25:05Z</time>
      </trkpt>
      <trkpt lat="48.59904" lon="2.04955">
        <ele>131</ele>
        <time>2013-08-18T11:25:07Z</time>
      </trkpt>
      <trkpt lat="48.59909" lon="2.04959">
        <ele>131</ele>
        <time>2013-08-18T11:25:10Z</time>
      </trkpt>
      <trkpt lat="48.59912" lon="2.04962">
        <ele>131</ele>
        <time>2013-08-18T11:25:12Z</time>
      </trkpt>
      <trkpt lat="48.59917" lon="2.04965">
        <ele>131</ele>
        <time>2013-08-18T11:25:15Z</time>
      </trkpt>
      <trkpt lat="48.5992" lon="2.04968">
        <ele>131</ele>
        <time>2013-08-18T11:25:17Z</time>
      </trkpt>
      <trkpt lat="48.59924" lon="2.04972">
        <ele>131</ele>
        <time>2013-08-18T11:25:20Z</time>
      </trkpt>
      <trkpt lat="48.59928" lon="2.04974">
        <ele>131</ele>
        <time>2013-08-18T11:25:22Z</time>
      </trkpt>
      <trkpt lat="48.59934" lon="2.04977">
        <ele>131</ele>
        <time>2013-08-18T11:25:25Z</time>
      </trkpt>
      <trkpt lat="48.59937" lon="2.0498">
        <ele>131</ele>
        <time>2013-08-18T11:25:27Z</time>
      </trkpt>
      <trkpt lat="48.59942" lon="2.04984">
        <ele>131</ele>
        <time>2013-08-18T11:25:30Z</time>
      </trkpt>
      <trkpt lat="48.59945" lon="2.04987">
        <ele>131</ele>
        <time>2013-08-18T11:25:32Z</time>
      </trkpt>
      <trkpt lat="48.59951" lon="2.0499">
        <ele>131</ele>
        <time>2013-08-18T11:25:35Z</time>
      </trkpt>
      <trkpt lat="48.59954" lon="2.04993">
        <ele>131</ele>
        <time>2013-08-18T11:25:37Z</time>
      </trkpt>
      <trkpt lat="48.59959" lon="2.04997">
        <ele>131</ele>
        <time>2013-08-18T11:25:40Z</time>
      </trkpt>
      <trkpt lat="48.59962" lon="2.04999">
        <ele>131</ele>
        <time>2013-08-18T11:25:42Z</time>
      </trkpt>
      <trkpt lat="48.59967" lon="2.05004">
        <ele>131</ele>
        <time>2013-08-18T11:25:45Z</time>
      </trkpt>
      <trkpt lat="48.59971" lon="2.05006">
        <ele>131</ele>
        <time>2013-08-18T11:25:47Z</time>
      </trkpt>
      <trkpt lat="48.59976" lon="2.0501">
        <ele>131</ele>
        <time>2013-08-18T11:25:50Z</time>
      </trkpt>
      <trkpt lat="48.59979" lon="2.05013">
        <ele>131</ele>
        <time>2013-08-18T11:25:52Z</time>
      </trkpt>
      <trkpt lat="48.59984" lon="2.05016">
        <ele>131</ele>
        <time>2013-08-18T11:25:55Z</time>
      </trkpt>
      <trkpt lat="48.59987" lon="2.05018">
        <ele>131</ele>
        <time>2013-08-18T11:25:57Z</time>
      </trkpt>
      <trkpt lat="48.59992" lon="2.05022">
        <ele>131</ele>
        <time>2013-08-18T11:26:00Z</time>
      </trkpt>
      <trkpt lat="48.59995" lon="2.05024">
        <ele>131</ele>
        <time>2013-08-18T11:26:02Z</time>
      </trkpt>
      <trkpt lat="48.6" lon="2.05027">
        <ele>131</ele>
        <time>2013-08-18T11:26:05Z</time>
      </trkpt>
      <trkpt lat="48.60004" lon="2.05029">
        <ele>131</ele>
        <time>2013-08-18T11:26:07Z</time>
      </trkpt>
      <trkpt lat="48.60008" lon="2.05032">
        <ele>131</ele>
        <time>2013-08-18T11:26:10Z</time>
      </trkpt>
      <trkpt lat="48.60011" lon="2.05034">
        <ele>131</ele>
        <time>2013-08-18T11:26:12Z</time>
      </trkpt>
      <trkpt lat="48.60016" lon="2.05038">
        <ele>131</ele>
        <time>2013-08-18T11:26:15Z</time>
      </trkpt>
      <trkpt lat="48.60019" lon="2.0504">
        <ele>131</ele>
        <time>2013-08-18T11:26:17Z</time>
      </trkpt>
      <trkpt lat="48.60023" lon="2.05043">
        <ele>130</ele>
        <time>2013-08-18T11:26:20Z</time>
      </trkpt>
      <trkpt lat="48.60026" lon="2.05045">
        <ele>130</ele>
        <time>2013-08-18T11:26:22Z</time>
      </trkpt>
      <trkpt lat="48.6003" lon="2.05049">
        <ele>128</ele>
        <time>2013-08-18T11:26:25Z</time>
      </trkpt>
      <trkpt lat="48.60034" lon="2.05051">
        <ele>128</ele>
        <time>2013-08-18T11:26:27Z</time>
      </trkpt>
      <trkpt lat="48.60039" lon="2.05055">
        <ele>127</ele>
        <time>2013-08-18T11:26:30Z</time>
      </trkpt>
      <trkpt lat="48.60042" lon="2.05057">
        <ele>127</ele>
        <time>2013-08-18T11:26:32Z</time>
      </trkpt>
      <trkpt lat="48.60046" lon="2.05061">
        <ele>127</ele>
        <time>2013-08-18T11:26:35Z</time>
      </trkpt>
      <trkpt lat="48.60049" lon="2.05063">
        <ele>127</ele>
        <time>2013-08-18T11:26:37Z</time>
      </trkpt>
      <trkpt lat="48.60051" lon="2.05068">
        <ele>127</ele>
        <time>2013-08-18T11:26:40Z</time>
      </trkpt>
      <trkpt lat="48.60052" lon="2.05073">
        <ele>127</ele>
        <time>2013-08-18T11:26:42Z</time>
      </trkpt>
      <trkpt lat="48.60054" lon="2.05081">
        <ele>127</ele>
        <time>2013-08-18T11:26:45Z</time>
      </trkpt>
      <trkpt lat="48.60055" lon="2.05086">
        <ele>127</ele>
        <time>2013-08-18T11:26:47Z</time>
      </trkpt>
      <trkpt lat="48.60057" lon="2.05094">
        <ele>127</ele>
        <time>2013-08-18T11:26:50Z</time>
      </trkpt>
      <trkpt lat="48.60058" lon="2.05098">
        <ele>127</ele>
        <time>2013-08-18T11:26:52Z</time>
      </trkpt>
      <trkpt lat="48.6006" lon="2.05104">
        <ele>127</ele>
        <time>2013-08-18T11:26:55Z</time>
      </trkpt>
      <trkpt lat="48.60061" lon="2.05109">
        <ele>127</ele>
        <time>2013-08-18T11:26:57Z</time>
      </trkpt>
      <trkpt lat="48.60064" lon="2.05115">
        <ele>127</ele>
        <time>2013-08-18T11:27:00Z</time>
      </trkpt>
      <trkpt lat="48.60064" lon="2.05119">
        <ele>127</ele>
        <time>2013-08-18T11:27:02Z</time>
      </trkpt>
      <trkpt lat="48.60067" lon="2.05127">
        <ele>127</ele>
        <time>2013-08-18T11:27:05Z</time>
      </trkpt>
      <trkpt lat="48.60068" lon="2.05132">
        <ele>127</ele>
        <time>2013-08-18T11:27:07Z</time>
      </trkpt>
      <trkpt lat="48.6007" lon="2.05138">
        <ele>127</ele>
        <time>2013-08-18T11:27:10Z</time>
      </trkpt>
      <trkpt lat="48.60072" lon="2.05142">
        <ele>127</ele>
        <time>2013-08-18T11:27:12Z</time>
      </trkpt>
      <trkpt lat="48.60072" lon="2.0515">
        <ele>127</ele>
        <time>2013-08-18T11:27:15Z</time>
      </trkpt>
      <trkpt lat="48.60073" lon="2.05155">
        <ele>127</ele>
        <time>2013-08-18T11:27:17Z</time>
      </trkpt>
      <trkpt lat="48.60076" lon="2.05162">
        <ele>126</ele>
        <time>2013-08-18T11:27:20Z</time>
      </trkpt>
      <trkpt lat="48.60078" lon="2.05167">
        <ele>126</ele>
        <time>2013-08-18T11:27:22Z</time>
      </trkpt>
      <trkpt lat="48.6008" lon="2.05174">
        <ele>126</ele>
        <time>2013-08-18T11:27:25Z</time>
      </trkpt>
      <trkpt lat="48.60081" lon="2.05179">
        <ele>126</ele>
        <time>2013-08-18T11:27:27Z</time>
      </trkpt>
      <trkpt lat="48.60082" lon="2.05187">
        <ele>126</ele>
        <time>2013-08-18T11:27:30Z</time>
      </trkpt>
      <trkpt lat="48.60083" lon="2.05191">
        <ele>126</ele>
        <time>2013-08-18T11:27:32Z</time>
      </trkpt>
      <trkpt lat="48.60086" lon="2.05197">
        <ele>126</ele>
        <time>2013-08-18T11:27:35Z</time>
      </trkpt>
      <trkpt lat="48.60087" lon="2.05202">
        <ele>126</ele>
        <time>2013-08-18T11:27:37Z</time>
      </trkpt>
      <trkpt lat="48.60087" lon="2.0521">
        <ele>126</ele>
        <time>2013-08-18T11:27:40Z</time>
      </trkpt>
      <trkpt lat="48.60088" lon="2.05216">
        <ele>125</ele>
        <time>2013-08-18T11:27:42Z</time>
      </trkpt>
      <trkpt lat="48.6009" lon="2.05224">
        <ele>125</ele>
        <time>2013-08-18T11:27:45Z</time>
      </trkpt>
      <trkpt lat="48.60091" lon="2.05229">
        <ele>125</ele>
        <time>2013-08-18T11:27:47Z</time>
      </trkpt>
      <trkpt lat="48.60093" lon="2.05238">
        <ele>125</ele>
        <time>2013-08-18T11:27:50Z</time>
      </trkpt>
      <trkpt lat="48.60094" lon="2.05243">
        <ele>125</ele>
        <time>2013-08-18T11:27:52Z</time>
      </trkpt>
      <trkpt lat="48.60095" lon="2.05251">
        <ele>125</ele>
        <time>2013-08-18T11:27:55Z</time>
      </trkpt>
      <trkpt lat="48.60096" lon="2.05256">
        <ele>125</ele>
        <time>2013-08-18T11:27:57Z</time>
      </trkpt>
      <trkpt lat="48.60098" lon="2.05264">
        <ele>125</ele>
        <time>2013-08-18T11:28:00Z</time>
      </trkpt>
      <trkpt lat="48.60098" lon="2.05269">
        <ele>125</ele>
        <time>2013-08-18T11:28:02Z</time>
      </trkpt>
      <trkpt lat="48.60099" lon="2.05276">
        <ele>125</ele>
        <time>2013-08-18T11:28:05Z</time>
      </trkpt>
      <trkpt lat="48.60101" lon="2.05281">
        <ele>125</ele>
        <time>2013-08-18T11:28:07Z</time>
      </trkpt>
      <trkpt lat="48.60101" lon="2.05286">
        <ele>125</ele>
        <time>2013-08-18T11:28:09Z</time>
      </trkpt>
      <trkpt lat="48.60101" lon="2.05291">
        <ele>125</ele>
        <time>2013-08-18T11:28:11Z</time>
      </trkpt>
      <trkpt lat="48.60102" lon="2.05296">
        <ele>125</ele>
        <time>2013-08-18T11:28:13Z</time>
      </trkpt>
      <trkpt lat="48.60103" lon="2.05301">
        <ele>125</ele>
        <time>2013-08-18T11:28:15Z</time>
      </trkpt>
      <trkpt lat="48.60104" lon="2.05307">
        <ele>125</ele>
        <time>2013-08-18T11:28:17Z</time>
      </trkpt>
      <trkpt lat="48.60105" lon="2.05314">
        <ele>123</ele>
        <time>2013-08-18T11:28:20Z</time>
      </trkpt>
      <trkpt lat="48.60106" lon="2.05318">
        <ele>123</ele>
        <time>2013-08-18T11:28:22Z</time>
      </trkpt>
      <trkpt lat="48.60108" lon="2.05326">
        <ele>122</ele>
        <time>2013-08-18T11:28:25Z</time>
      </trkpt>
      <trkpt lat="48.60109" lon="2.05331">
        <ele>122</ele>
        <time>2013-08-18T11:28:27Z</time>
      </trkpt>
      <trkpt lat="48.6011" lon="2.05337">
        <ele>121</ele>
        <time>2013-08-18T11:28:29Z</time>
      </trkpt>
      <trkpt lat="48.60111" lon="2.05342">
        <ele>121</ele>
        <time>2013-08-18T11:28:31Z</time>
      </trkpt>
      <trkpt lat="48.60114" lon="2.05347">
        <ele>121</ele>
        <time>2013-08-18T11:28:33Z</time>
      </trkpt>
      <trkpt lat="48.60114" lon="2.05354">
        <ele>121</ele>
        <time>2013-08-18T11:28:35Z</time>
      </trkpt>
      <trkpt lat="48.60115" lon="2.05362">
        <ele>121</ele>
        <time>2013-08-18T11:28:37Z</time>
      </trkpt>
      <trkpt lat="48.60117" lon="2.0537">
        <ele>121</ele>
        <time>2013-08-18T11:28:40Z</time>
      </trkpt>
      <trkpt lat="48.60117" lon="2.05375">
        <ele>121</ele>
        <time>2013-08-18T11:28:42Z</time>
      </trkpt>
      <trkpt lat="48.60121" lon="2.05383">
        <ele>121</ele>
        <time>2013-08-18T11:28:45Z</time>
      </trkpt>
      <trkpt lat="48.60122" lon="2.05387">
        <ele>121</ele>
        <time>2013-08-18T11:28:47Z</time>
      </trkpt>
      <trkpt lat="48.60123" lon="2.05392">
        <ele>121</ele>
        <time>2013-08-18T11:28:49Z</time>
      </trkpt>
      <trkpt lat="48.60124" lon="2.05397">
        <ele>121</ele>
        <time>2013-08-18T11:28:51Z</time>
      </trkpt>
      <trkpt lat="48.60124" lon="2.05402">
        <ele>121</ele>
        <time>2013-08-18T11:28:53Z</time>
      </trkpt>
      <trkpt lat="48.60125" lon="2.05407">
        <ele>121</ele>
        <time>2013-08-18T11:28:55Z</time>
      </trkpt>
      <trkpt lat="48.60126" lon="2.05413">
        <ele>121</ele>
        <time>2013-08-18T11:28:57Z</time>
      </trkpt>
      <trkpt lat="48.60128" lon="2.05418">
        <ele>121</ele>
        <time>2013-08-18T11:28:59Z</time>
      </trkpt>
      <trkpt lat="48.60129" lon="2.05423">
        <ele>121</ele>
        <time>2013-08-18T11:29:01Z</time>
      </trkpt>
      <trkpt lat="48.6013" lon="2.05429">
        <ele>121</ele>
        <time>2013-08-18T11:29:03Z</time>
      </trkpt>
      <trkpt lat="48.60132" lon="2.05434">
        <ele>121</ele>
        <time>2013-08-18T11:29:05Z</time>
      </trkpt>
      <trkpt lat="48.60133" lon="2.05438">
        <ele>121</ele>
        <time>2013-08-18T11:29:07Z</time>
      </trkpt>
      <trkpt lat="48.60134" lon="2.05443">
        <ele>121</ele>
        <time>2013-08-18T11:29:09Z</time>
      </trkpt>
      <trkpt lat="48.60136" lon="2.05448">
        <ele>121</ele>
        <time>2013-08-18T11:29:11Z</time>
      </trkpt>
      <trkpt lat="48.60137" lon="2.05453">
        <ele>121</ele>
        <time>2013-08-18T11:29:13Z</time>
      </trkpt>
      <trkpt lat="48.60138" lon="2.05457">
        <ele>121</ele>
        <time>2013-08-18T11:29:15Z</time>
      </trkpt>
      <trkpt lat="48.60138" lon="2.0546">
        <ele>121</ele>
        <time>2013-08-18T11:29:17Z</time>
      </trkpt>
      <trkpt lat="48.60139" lon="2.05464">
        <ele>121</ele>
        <time>2013-08-18T11:29:19Z</time>
      </trkpt>
      <trkpt lat="48.60139" lon="2.0547">
        <ele>121</ele>
        <time>2013-08-18T11:29:21Z</time>
      </trkpt>
      <trkpt lat="48.60141" lon="2.05475">
        <ele>121</ele>
        <time>2013-08-18T11:29:23Z</time>
      </trkpt>
      <trkpt lat="48.60142" lon="2.0548">
        <ele>121</ele>
        <time>2013-08-18T11:29:25Z</time>
      </trkpt>
      <trkpt lat="48.60143" lon="2.05485">
        <ele>121</ele>
        <time>2013-08-18T11:29:27Z</time>
      </trkpt>
      <trkpt lat="48.60144" lon="2.05491">
        <ele>121</ele>
        <time>2013-08-18T11:29:29Z</time>
      </trkpt>
      <trkpt lat="48.60145" lon="2.05496">
        <ele>121</ele>
        <time>2013-08-18T11:29:31Z</time>
      </trkpt>
      <trkpt lat="48.60146" lon="2.055">
        <ele>121</ele>
        <time>2013-08-18T11:29:33Z</time>
      </trkpt>
      <trkpt lat="48.60148" lon="2.05504">
        <ele>121</ele>
        <time>2013-08-18T11:29:35Z</time>
      </trkpt>
      <trkpt lat="48.60148" lon="2.0551">
        <ele>121</ele>
        <time>2013-08-18T11:29:37Z</time>
      </trkpt>
      <trkpt lat="48.60149" lon="2.05515">
        <ele>121</ele>
        <time>2013-08-18T11:29:39Z</time>
      </trkpt>
      <trkpt lat="48.6015" lon="2.0552">
        <ele>121</ele>
        <time>2013-08-18T11:29:41Z</time>
      </trkpt>
      <trkpt lat="48.60154" lon="2.05524">
        <ele>121</ele>
        <time>2013-08-18T11:29:43Z</time>
      </trkpt>
      <trkpt lat="48.60154" lon="2.05528">
        <ele>121</ele>
        <time>2013-08-18T11:29:45Z</time>
      </trkpt>
      <trkpt lat="48.60155" lon="2.05533">
        <ele>121</ele>
        <time>2013-08-18T11:29:47Z</time>
      </trkpt>
      <trkpt lat="48.60156" lon="2.05537">
        <ele>121</ele>
        <time>2013-08-18T11:29:49Z</time>
      </trkpt>
      <trkpt lat="48.60157" lon="2.05542">
        <ele>121</ele>
        <time>2013-08-18T11:29:51Z</time>
      </trkpt>
      <trkpt lat="48.60158" lon="2.05546">
        <ele>121</ele>
        <time>2013-08-18T11:29:53Z</time>
      </trkpt>
      <trkpt lat="48.60159" lon="2.05551">
        <ele>121</ele>
        <time>2013-08-18T11:29:55Z</time>
      </trkpt>
      <trkpt lat="48.6016" lon="2.05556">
        <ele>121</ele>
        <time>2013-08-18T11:29:57Z</time>
      </trkpt>
      <trkpt lat="48.60163" lon="2.0556">
        <ele>121</ele>
        <time>2013-08-18T11:29:59Z</time>
      </trkpt>
      <trkpt lat="48.60164" lon="2.05564">
        <ele>121</ele>
        <time>2013-08-18T11:30:01Z</time>
      </trkpt>
      <trkpt lat="48.60162" lon="2.05568">
        <ele>121</ele>
        <time>2013-08-18T11:30:03Z</time>
      </trkpt>
      <trkpt lat="48.60161" lon="2.05573">
        <ele>121</ele>
        <time>2013-08-18T11:30:05Z</time>
      </trkpt>
      <trkpt lat="48.60163" lon="2.05577">
        <ele>121</ele>
        <time>2013-08-18T11:30:07Z</time>
      </trkpt>
      <trkpt lat="48.60165" lon="2.05581">
        <ele>121</ele>
        <time>2013-08-18T11:30:09Z</time>
      </trkpt>
      <trkpt lat="48.60167" lon="2.05585">
        <ele>122</ele>
        <time>2013-08-18T11:30:11Z</time>
      </trkpt>
      <trkpt lat="48.60167" lon="2.0559">
        <ele>123</ele>
        <time>2013-08-18T11:30:13Z</time>
      </trkpt>
      <trkpt lat="48.60167" lon="2.05595">
        <ele>123</ele>
        <time>2013-08-18T11:30:15Z</time>
      </trkpt>
      <trkpt lat="48.60168" lon="2.05599">
        <ele>123</ele>
        <time>2013-08-18T11:30:17Z</time>
      </trkpt>
      <trkpt lat="48.60169" lon="2.05604">
        <ele>123</ele>
        <time>2013-08-18T11:30:19Z</time>
      </trkpt>
      <trkpt lat="48.6017" lon="2.05609">
        <ele>123</ele>
        <time>2013-08-18T11:30:21Z</time>
      </trkpt>
      <trkpt lat="48.6017" lon="2.05613">
        <ele>123</ele>
        <time>2013-08-18T11:30:23Z</time>
      </trkpt>
      <trkpt lat="48.60171" lon="2.05618">
        <ele>123</ele>
        <time>2013-08-18T11:30:25Z</time>
      </trkpt>
      <trkpt lat="48.60172" lon="2.05622">
        <ele>123</ele>
        <time>2013-08-18T11:30:27Z</time>
      </trkpt>
      <trkpt lat="48.60173" lon="2.05627">
        <ele>123</ele>
        <time>2013-08-18T11:30:29Z</time>
      </trkpt>
      <trkpt lat="48.60174" lon="2.05632">
        <ele>123</ele>
        <time>2013-08-18T11:30:31Z</time>
      </trkpt>
      <trkpt lat="48.60175" lon="2.05637">
        <ele>123</ele>
        <time>2013-08-18T11:30:33Z</time>
      </trkpt>
      <trkpt lat="48.60176" lon="2.05642">
        <ele>123</ele>
        <time>2013-08-18T11:30:35Z</time>
      </trkpt>
      <trkpt lat="48.60177" lon="2.05646">
        <ele>123</ele>
        <time>2013-08-18T11:30:37Z</time>
      </trkpt>
      <trkpt lat="48.60178" lon="2.05651">
        <ele>123</ele>
        <time>2013-08-18T11:30:39Z</time>
      </trkpt>
      <trkpt lat="48.60178" lon="2.05657">
        <ele>122</ele>
        <time>2013-08-18T11:30:41Z</time>
      </trkpt>
      <trkpt lat="48.6018" lon="2.05661">
        <ele>122</ele>
        <time>2013-08-18T11:30:43Z</time>
      </trkpt>
      <trkpt lat="48.60183" lon="2.05667">
        <ele>122</ele>
        <time>2013-08-18T11:30:45Z</time>
      </trkpt>
      <trkpt lat="48.60183" lon="2.05673">
        <ele>122</ele>
        <time>2013-08-18T11:30:47Z</time>
      </trkpt>
      <trkpt lat="48.60183" lon="2.05678">
        <ele>122</ele>
        <time>2013-08-18T11:30:49Z</time>
      </trkpt>
      <trkpt lat="48.60184" lon="2.05683">
        <ele>122</ele>
        <time>2013-08-18T11:30:51Z</time>
      </trkpt>
      <trkpt lat="48.60184" lon="2.05688">
        <ele>122</ele>
        <time>2013-08-18T11:30:53Z</time>
      </trkpt>
      <trkpt lat="48.60184" lon="2.05694">
        <ele>122</ele>
        <time>2013-08-18T11:30:55Z</time>
      </trkpt>
      <trkpt lat="48.60185" lon="2.05698">
        <ele>122</ele>
        <time>2013-08-18T11:30:57Z</time>
      </trkpt>
      <trkpt lat="48.60185" lon="2.05704">
        <ele>122</ele>
        <time>2013-08-18T11:30:59Z</time>
      </trkpt>
      <trkpt lat="48.60186" lon="2.05709">
        <ele>122</ele>
        <time>2013-08-18T11:31:01Z</time>
      </trkpt>
      <trkpt lat="48.60187" lon="2.05713">
        <ele>122</ele>
        <time>2013-08-18T11:31:03Z</time>
      </trkpt>
      <trkpt lat="48.60188" lon="2.05718">
        <ele>122</ele>
        <time>2013-08-18T11:31:05Z</time>
      </trkpt>
      <trkpt lat="48.6019" lon="2.05724">
        <ele>122</ele>
        <time>2013-08-18T11:31:07Z</time>
      </trkpt>
      <trkpt lat="48.60191" lon="2.05728">
        <ele>122</ele>
        <time>2013-08-18T11:31:09Z</time>
      </trkpt>
      <trkpt lat="48.60192" lon="2.05733">
        <ele>122</ele>
        <time>2013-08-18T11:31:11Z</time>
      </trkpt>
      <trkpt lat="48.60193" lon="2.05737">
        <ele>122</ele>
        <time>2013-08-18T11:31:13Z</time>
      </trkpt>
      <trkpt lat="48.60195" lon="2.05742">
        <ele>122</ele>
        <time>2013-08-18T11:31:15Z</time>
      </trkpt>
      <trkpt lat="48.60196" lon="2.05747">
        <ele>122</ele>
        <time>2013-08-18T11:31:17Z</time>
      </trkpt>
      <trkpt lat="48.60197" lon="2.05752">
        <ele>122</ele>
        <time>2013-08-18T11:31:19Z</time>
      </trkpt>
      <trkpt lat="48.60197" lon="2.05757">
        <ele>122</ele>
        <time>2013-08-18T11:31:21Z</time>
      </trkpt>
      <trkpt lat="48.602" lon="2.05763">
        <ele>122</ele>
        <time>2013-08-18T11:31:23Z</time>
      </trkpt>
      <trkpt lat="48.60201" lon="2.05767">
        <ele>122</ele>
        <time>2013-08-18T11:31:25Z</time>
      </trkpt>
      <trkpt lat="48.60201" lon="2.05772">
        <ele>122</ele>
        <time>2013-08-18T11:31:27Z</time>
      </trkpt>
      <trkpt lat="48.60202" lon="2.05777">
        <ele>122</ele>
        <time>2013-08-18T11:31:29Z</time>
      </trkpt>
      <trkpt lat="48.60204" lon="2.05781">
        <ele>122</ele>
        <time>2013-08-18T11:31:31Z</time>
      </trkpt>
      <trkpt lat="48.60205" lon="2.05787">
        <ele>122</ele>
        <time>2013-08-18T11:31:33Z</time>
      </trkpt>
      <trkpt lat="48.60209" lon="2.05792">
        <ele>122</ele>
        <time>2013-08-18T11:31:35Z</time>
      </trkpt>
      <trkpt lat="48.6021" lon="2.05797">
        <ele>124</ele>
        <time>2013-08-18T11:31:37Z</time>
      </trkpt>
      <trkpt lat="48.6021" lon="2.05801">
        <ele>124</ele>
        <time>2013-08-18T11:31:39Z</time>
      </trkpt>
      <trkpt lat="48.60212" lon="2.05805">
        <ele>124</ele>
        <time>2013-08-18T11:31:41Z</time>
      </trkpt>
      <trkpt lat="48.60216" lon="2.0581">
        <ele>125</ele>
        <time>2013-08-18T11:31:43Z</time>
      </trkpt>
      <trkpt lat="48.60217" lon="2.05814">
        <ele>126</ele>
        <time>2013-08-18T11:31:45Z</time>
      </trkpt>
      <trkpt lat="48.60216" lon="2.05818">
        <ele>126</ele>
        <time>2013-08-18T11:31:47Z</time>
      </trkpt>
      <trkpt lat="48.60216" lon="2.05823">
        <ele>126</ele>
        <time>2013-08-18T11:31:49Z</time>
      </trkpt>
      <trkpt lat="48.60213" lon="2.05827">
        <ele>126</ele>
        <time>2013-08-18T11:31:51Z</time>
      </trkpt>
      <trkpt lat="48.60209" lon="2.05829">
        <ele>126</ele>
        <time>2013-08-18T11:31:53Z</time>
      </trkpt>
      <trkpt lat="48.60206" lon="2.05831">
        <ele>126</ele>
        <time>2013-08-18T11:31:55Z</time>
      </trkpt>
      <trkpt lat="48.60203" lon="2.05833">
        <ele>126</ele>
        <time>2013-08-18T11:31:57Z</time>
      </trkpt>
      <trkpt lat="48.602" lon="2.05836">
        <ele>126</ele>
        <time>2013-08-18T11:31:59Z</time>
      </trkpt>
      <trkpt lat="48.60197" lon="2.05837">
        <ele>126</ele>
        <time>2013-08-18T11:32:01Z</time>
      </trkpt>
      <trkpt lat="48.60193" lon="2.05839">
        <ele>126</ele>
        <time>2013-08-18T11:32:03Z</time>
      </trkpt>
      <trkpt lat="48.6019" lon="2.05842">
        <ele>126</ele>
        <time>2013-08-18T11:32:05Z</time>
      </trkpt>
      <trkpt lat="48.60187" lon="2.05844">
        <ele>125</ele>
        <time>2013-08-18T11:32:07Z</time>
      </trkpt>
      <trkpt lat="48.60183" lon="2.05846">
        <ele>124</ele>
        <time>2013-08-18T11:32:09Z</time>
      </trkpt>
      <trkpt lat="48.60179" lon="2.05849">
        <ele>123</ele>
        <time>2013-08-18T11:32:11Z</time>
      </trkpt>
      <trkpt lat="48.60176" lon="2.05851">
        <ele>123</ele>
        <time>2013-08-18T11:32:13Z</time>
      </trkpt>
      <trkpt lat="48.60173" lon="2.05852">
        <ele>122</ele>
        <time>2013-08-18T11:32:15Z</time>
      </trkpt>
      <trkpt lat="48.60169" lon="2.05855">
        <ele>122</ele>
        <time>2013-08-18T11:32:17Z</time>
      </trkpt>
      <trkpt lat="48.60166" lon="2.05856">
        <ele>122</ele>
        <time>2013-08-18T11:32:19Z</time>
      </trkpt>
      <trkpt lat="48.60163" lon="2.05856">
        <ele>122</ele>
        <time>2013-08-18T11:32:21Z</time>
      </trkpt>
      <trkpt lat="48.60159" lon="2.05858">
        <ele>121</ele>
        <time>2013-08-18T11:32:23Z</time>
      </trkpt>
      <trkpt lat="48.60154" lon="2.0586">
        <ele>120</ele>
        <time>2013-08-18T11:32:25Z</time>
      </trkpt>
      <trkpt lat="48.60152" lon="2.05861">
        <ele>119</ele>
        <time>2013-08-18T11:32:27Z</time>
      </trkpt>
      <trkpt lat="48.60148" lon="2.05864">
        <ele>119</ele>
        <time>2013-08-18T11:32:29Z</time>
      </trkpt>
      <trkpt lat="48.60144" lon="2.05866">
        <ele>119</ele>
        <time>2013-08-18T11:32:31Z</time>
      </trkpt>
      <trkpt lat="48.6014" lon="2.05869">
        <ele>119</ele>
        <time>2013-08-18T11:32:34Z</time>
      </trkpt>
      <trkpt lat="48.60138" lon="2.0587">
        <ele>119</ele>
        <time>2013-08-18T11:32:36Z</time>
      </trkpt>
      <trkpt lat="48.60134" lon="2.05872">
        <ele>119</ele>
        <time>2013-08-18T11:32:38Z</time>
      </trkpt>
      <trkpt lat="48.60131" lon="2.05873">
        <ele>119</ele>
        <time>2013-08-18T11:32:40Z</time>
      </trkpt>
      <trkpt lat="48.60128" lon="2.05875">
        <ele>119</ele>
        <time>2013-08-18T11:32:42Z</time>
      </trkpt>
      <trkpt lat="48.60125" lon="2.05877">
        <ele>119</ele>
        <time>2013-08-18T11:32:44Z</time>
      </trkpt>
      <trkpt lat="48.60122" lon="2.05877">
        <ele>118</ele>
        <time>2013-08-18T11:32:46Z</time>
      </trkpt>
      <trkpt lat="48.60118" lon="2.0588">
        <ele>118</ele>
        <time>2013-08-18T11:32:48Z</time>
      </trkpt>
      <trkpt lat="48.60115" lon="2.05882">
        <ele>118</ele>
        <time>2013-08-18T11:32:50Z</time>
      </trkpt>
      <trkpt lat="48.60112" lon="2.05884">
        <ele>118</ele>
        <time>2013-08-18T11:32:52Z</time>
      </trkpt>
      <trkpt lat="48.60109" lon="2.05886">
        <ele>118</ele>
        <time>2013-08-18T11:32:54Z</time>
      </trkpt>
      <trkpt lat="48.60106" lon="2.05889">
        <ele>118</ele>
        <time>2013-08-18T11:32:56Z</time>
      </trkpt>
      <trkpt lat="48.60103" lon="2.05893">
        <ele>118</ele>
        <time>2013-08-18T11:32:58Z</time>
      </trkpt>
      <trkpt lat="48.60099" lon="2.05896">
        <ele>118</ele>
        <time>2013-08-18T11:33:00Z</time>
      </trkpt>
      <trkpt lat="48.60096" lon="2.05898">
        <ele>118</ele>
        <time>2013-08-18T11:33:02Z</time>
      </trkpt>
      <trkpt lat="48.60092" lon="2.05898">
        <ele>118</ele>
        <time>2013-08-18T11:33:04Z</time>
      </trkpt>
      <trkpt lat="48.60088" lon="2.059">
        <ele>118</ele>
        <time>2013-08-18T11:33:06Z</time>
      </trkpt>
      <trkpt lat="48.60085" lon="2.05901">
        <ele>118</ele>
        <time>2013-08-18T11:33:08Z</time>
      </trkpt>
      <trkpt lat="48.60081" lon="2.05902">
        <ele>118</ele>
        <time>2013-08-18T11:33:10Z</time>
      </trkpt>
      <trkpt lat="48.60079" lon="2.05902">
        <ele>118</ele>
        <time>2013-08-18T11:33:12Z</time>
      </trkpt>
      <trkpt lat="48.60075" lon="2.05904">
        <ele>118</ele>
        <time>2013-08-18T11:33:14Z</time>
      </trkpt>
      <trkpt lat="48.60072" lon="2.05905">
        <ele>118</ele>
        <time>2013-08-18T11:33:16Z</time>
      </trkpt>
      <trkpt lat="48.60069" lon="2.05907">
        <ele>118</ele>
        <time>2013-08-18T11:33:18Z</time>
      </trkpt>
      <trkpt lat="48.60064" lon="2.05911">
        <ele>118</ele>
        <time>2013-08-18T11:33:22Z</time>
      </trkpt>
      <trkpt lat="48.6006" lon="2.05912">
        <ele>118</ele>
        <time>2013-08-18T11:33:24Z</time>
      </trkpt>
      <trkpt lat="48.60056" lon="2.05914">
        <ele>116</ele>
        <time>2013-08-18T11:33:26Z</time>
      </trkpt>
      <trkpt lat="48.60051" lon="2.05915">
        <ele>116</ele>
        <time>2013-08-18T11:33:28Z</time>
      </trkpt>
      <trkpt lat="48.60048" lon="2.05918">
        <ele>116</ele>
        <time>2013-08-18T11:33:31Z</time>
      </trkpt>
      <trkpt lat="48.60044" lon="2.05922">
        <ele>116</ele>
        <time>2013-08-18T11:33:34Z</time>
      </trkpt>
      <trkpt lat="48.60041" lon="2.05924">
        <ele>116</ele>
        <time>2013-08-18T11:33:36Z</time>
      </trkpt>
      <trkpt lat="48.60037" lon="2.05926">
        <ele>118</ele>
        <time>2013-08-18T11:33:39Z</time>
      </trkpt>
      <trkpt lat="48.60033" lon="2.05925">
        <ele>120</ele>
        <time>2013-08-18T11:33:41Z</time>
      </trkpt>
      <trkpt lat="48.60029" lon="2.05926">
        <ele>120</ele>
        <time>2013-08-18T11:33:43Z</time>
      </trkpt>
      <trkpt lat="48.60026" lon="2.05927">
        <ele>120</ele>
        <time>2013-08-18T11:33:46Z</time>
      </trkpt>
      <trkpt lat="48.60023" lon="2.05929">
        <ele>120</ele>
        <time>2013-08-18T11:33:48Z</time>
      </trkpt>
      <trkpt lat="48.6002" lon="2.05927">
        <ele>121</ele>
        <time>2013-08-18T11:33:50Z</time>
      </trkpt>
      <trkpt lat="48.60017" lon="2.05929">
        <ele>121</ele>
        <time>2013-08-18T11:33:52Z</time>
      </trkpt>
      <trkpt lat="48.60012" lon="2.05931">
        <ele>121</ele>
        <time>2013-08-18T11:33:54Z</time>
      </trkpt>
      <trkpt lat="48.60009" lon="2.05934">
        <ele>121</ele>
        <time>2013-08-18T11:33:56Z</time>
      </trkpt>
      <trkpt lat="48.60005" lon="2.05935">
        <ele>121</ele>
        <time>2013-08-18T11:33:58Z</time>
      </trkpt>
      <trkpt lat="48.60003" lon="2.05936">
        <ele>121</ele>
        <time>2013-08-18T11:34:00Z</time>
      </trkpt>
      <trkpt lat="48.59999" lon="2.05938">
        <ele>121</ele>
        <time>2013-08-18T11:34:02Z</time>
      </trkpt>
      <trkpt lat="48.59998" lon="2.05942">
        <ele>121</ele>
        <time>2013-08-18T11:34:04Z</time>
      </trkpt>
      <trkpt lat="48.59997" lon="2.05946">
        <ele>121</ele>
        <time>2013-08-18T11:34:06Z</time>
      </trkpt>
      <trkpt lat="48.59999" lon="2.05952">
        <ele>121</ele>
        <time>2013-08-18T11:34:08Z</time>
      </trkpt>
      <trkpt lat="48.60001" lon="2.05957">
        <ele>121</ele>
        <time>2013-08-18T11:34:10Z</time>
      </trkpt>
      <trkpt lat="48.60003" lon="2.05962">
        <ele>121</ele>
        <time>2013-08-18T11:34:12Z</time>
      </trkpt>
      <trkpt lat="48.60005" lon="2.05967">
        <ele>121</ele>
        <time>2013-08-18T11:34:14Z</time>
      </trkpt>
      <trkpt lat="48.60007" lon="2.05971">
        <ele>121</ele>
        <time>2013-08-18T11:34:16Z</time>
      </trkpt>
      <trkpt lat="48.60009" lon="2.05976">
        <ele>121</ele>
        <time>2013-08-18T11:34:18Z</time>
      </trkpt>
      <trkpt lat="48.60011" lon="2.0598">
        <ele>121</ele>
        <time>2013-08-18T11:34:20Z</time>
      </trkpt>
      <trkpt lat="48.60012" lon="2.05984">
        <ele>121</ele>
        <time>2013-08-18T11:34:22Z</time>
      </trkpt>
      <trkpt lat="48.60013" lon="2.05988">
        <ele>121</ele>
        <time>2013-08-18T11:34:24Z</time>
      </trkpt>
      <trkpt lat="48.60015" lon="2.05992">
        <ele>121</ele>
        <time>2013-08-18T11:34:26Z</time>
      </trkpt>
      <trkpt lat="48.60017" lon="2.05997">
        <ele>121</ele>
        <time>2013-08-18T11:34:28Z</time>
      </trkpt>
      <trkpt lat="48.60018" lon="2.06002">
        <ele>121</ele>
        <time>2013-08-18T11:34:30Z</time>
      </trkpt>
      <trkpt lat="48.6002" lon="2.06008">
        <ele>122</ele>
        <time>2013-08-18T11:34:32Z</time>
      </trkpt>
      <trkpt lat="48.60022" lon="2.06012">
        <ele>123</ele>
        <time>2013-08-18T11:34:34Z</time>
      </trkpt>
      <trkpt lat="48.60023" lon="2.06016">
        <ele>123</ele>
        <time>2013-08-18T11:34:36Z</time>
      </trkpt>
      <trkpt lat="48.60025" lon="2.0602">
        <ele>123</ele>
        <time>2013-08-18T11:34:38Z</time>
      </trkpt>
      <trkpt lat="48.60025" lon="2.06025">
        <ele>123</ele>
        <time>2013-08-18T11:34:40Z</time>
      </trkpt>
      <trkpt lat="48.60027" lon="2.0603">
        <ele>124</ele>
        <time>2013-08-18T11:34:42Z</time>
      </trkpt>
      <trkpt lat="48.60028" lon="2.06035">
        <ele>124</ele>
        <time>2013-08-18T11:34:44Z</time>
      </trkpt>
      <trkpt lat="48.60031" lon="2.06041">
        <ele>124</ele>
        <time>2013-08-18T11:34:47Z</time>
      </trkpt>
      <trkpt lat="48.60032" lon="2.06046">
        <ele>124</ele>
        <time>2013-08-18T11:34:49Z</time>
      </trkpt>
      <trkpt lat="48.60033" lon="2.06051">
        <ele>124</ele>
        <time>2013-08-18T11:34:51Z</time>
      </trkpt>
      <trkpt lat="48.60036" lon="2.06056">
        <ele>124</ele>
        <time>2013-08-18T11:34:53Z</time>
      </trkpt>
      <trkpt lat="48.60038" lon="2.0606">
        <ele>124</ele>
        <time>2013-08-18T11:34:55Z</time>
      </trkpt>
      <trkpt lat="48.6004" lon="2.06065">
        <ele>124</ele>
        <time>2013-08-18T11:34:57Z</time>
      </trkpt>
      <trkpt lat="48.60042" lon="2.06071">
        <ele>124</ele>
        <time>2013-08-18T11:34:59Z</time>
      </trkpt>
      <trkpt lat="48.60045" lon="2.06079">
        <ele>124</ele>
        <time>2013-08-18T11:35:01Z</time>
      </trkpt>
      <trkpt lat="48.60047" lon="2.06086">
        <ele>124</ele>
        <time>2013-08-18T11:35:03Z</time>
      </trkpt>
      <trkpt lat="48.60049" lon="2.06091">
        <ele>124</ele>
        <time>2013-08-18T11:35:05Z</time>
      </trkpt>
      <trkpt lat="48.6005" lon="2.06095">
        <ele>124</ele>
        <time>2013-08-18T11:35:07Z</time>
      </trkpt>
      <trkpt lat="48.6005" lon="2.06099">
        <ele>124</ele>
        <time>2013-08-18T11:35:09Z</time>
      </trkpt>
      <trkpt lat="48.60051" lon="2.06104">
        <ele>124</ele>
        <time>2013-08-18T11:35:11Z</time>
      </trkpt>
      <trkpt lat="48.60052" lon="2.06109">
        <ele>124</ele>
        <time>2013-08-18T11:35:13Z</time>
      </trkpt>
      <trkpt lat="48.60054" lon="2.06113">
        <ele>124</ele>
        <time>2013-08-18T11:35:15Z</time>
      </trkpt>
      <trkpt lat="48.60055" lon="2.06118">
        <ele>124</ele>
        <time>2013-08-18T11:35:17Z</time>
      </trkpt>
      <trkpt lat="48.60056" lon="2.06122">
        <ele>124</ele>
        <time>2013-08-18T11:35:19Z</time>
      </trkpt>
      <trkpt lat="48.60058" lon="2.06126">
        <ele>124</ele>
        <time>2013-08-18T11:35:21Z</time>
      </trkpt>
      <trkpt lat="48.60059" lon="2.0613">
        <ele>123</ele>
        <time>2013-08-18T11:35:23Z</time>
      </trkpt>
      <trkpt lat="48.6006" lon="2.06135">
        <ele>123</ele>
        <time>2013-08-18T11:35:25Z</time>
      </trkpt>
      <trkpt lat="48.60062" lon="2.06139">
        <ele>122</ele>
        <time>2013-08-18T11:35:27Z</time>
      </trkpt>
      <trkpt lat="48.60064" lon="2.06143">
        <ele>121</ele>
        <time>2013-08-18T11:35:29Z</time>
      </trkpt>
      <trkpt lat="48.60065" lon="2.06148">
        <ele>120</ele>
        <time>2013-08-18T11:35:31Z</time>
      </trkpt>
      <trkpt lat="48.60066" lon="2.06152">
        <ele>119</ele>
        <time>2013-08-18T11:35:33Z</time>
      </trkpt>
      <trkpt lat="48.60068" lon="2.06157">
        <ele>118</ele>
        <time>2013-08-18T11:35:35Z</time>
      </trkpt>
      <trkpt lat="48.6007" lon="2.06161">
        <ele>117</ele>
        <time>2013-08-18T11:35:37Z</time>
      </trkpt>
      <trkpt lat="48.60072" lon="2.06166">
        <ele>116</ele>
        <time>2013-08-18T11:35:39Z</time>
      </trkpt>
      <trkpt lat="48.60073" lon="2.0617">
        <ele>116</ele>
        <time>2013-08-18T11:35:42Z</time>
      </trkpt>
      <trkpt lat="48.60074" lon="2.06172">
        <ele>116</ele>
        <time>2013-08-18T11:35:44Z</time>
      </trkpt>
      <trkpt lat="48.60075" lon="2.06176">
        <ele>116</ele>
        <time>2013-08-18T11:35:46Z</time>
      </trkpt>
      <trkpt lat="48.60076" lon="2.06182">
        <ele>116</ele>
        <time>2013-08-18T11:35:48Z</time>
      </trkpt>
      <trkpt lat="48.60077" lon="2.06189">
        <ele>116</ele>
        <time>2013-08-18T11:35:50Z</time>
      </trkpt>
      <trkpt lat="48.60079" lon="2.06197">
        <ele>116</ele>
        <time>2013-08-18T11:35:52Z</time>
      </trkpt>
      <trkpt lat="48.60082" lon="2.06207">
        <ele>116</ele>
        <time>2013-08-18T11:35:54Z</time>
      </trkpt>
      <trkpt lat="48.60085" lon="2.06217">
        <ele>116</ele>
        <time>2013-08-18T11:35:56Z</time>
      </trkpt>
      <trkpt lat="48.60088" lon="2.06228">
        <ele>116</ele>
        <time>2013-08-18T11:35:58Z</time>
      </trkpt>
      <trkpt lat="48.60093" lon="2.0624">
        <ele>116</ele>
        <time>2013-08-18T11:36:00Z</time>
      </trkpt>
      <trkpt lat="48.60096" lon="2.06253">
        <ele>116</ele>
        <time>2013-08-18T11:36:02Z</time>
      </trkpt>
      <trkpt lat="48.60099" lon="2.06266">
        <ele>116</ele>
        <time>2013-08-18T11:36:04Z</time>
      </trkpt>
      <trkpt lat="48.60101" lon="2.06277">
        <ele>116</ele>
        <time>2013-08-18T11:36:06Z</time>
      </trkpt>
      <trkpt lat="48.60105" lon="2.06289">
        <ele>116</ele>
        <time>2013-08-18T11:36:08Z</time>
      </trkpt>
      <trkpt lat="48.60108" lon="2.06301">
        <ele>116</ele>
        <time>2013-08-18T11:36:10Z</time>
      </trkpt>
      <trkpt lat="48.60112" lon="2.06317">
        <ele>116</ele>
        <time>2013-08-18T11:36:12Z</time>
      </trkpt>
      <trkpt lat="48.60118" lon="2.06335">
        <ele>116</ele>
        <time>2013-08-18T11:36:14Z</time>
      </trkpt>
      <trkpt lat="48.60127" lon="2.06352">
        <ele>117</ele>
        <time>2013-08-18T11:36:16Z</time>
      </trkpt>
      <trkpt lat="48.60132" lon="2.06368">
        <ele>117</ele>
        <time>2013-08-18T11:36:18Z</time>
      </trkpt>
      <trkpt lat="48.60136" lon="2.06382">
        <ele>117</ele>
        <time>2013-08-18T11:36:20Z</time>
      </trkpt>
      <trkpt lat="48.6014" lon="2.06396">
        <ele>118</ele>
        <time>2013-08-18T11:36:22Z</time>
      </trkpt>
      <trkpt lat="48.60143" lon="2.06411">
        <ele>118</ele>
        <time>2013-08-18T11:36:24Z</time>
      </trkpt>
      <trkpt lat="48.60144" lon="2.06427">
        <ele>118</ele>
        <time>2013-08-18T11:36:26Z</time>
      </trkpt>
      <trkpt lat="48.60148" lon="2.06442">
        <ele>118</ele>
        <time>2013-08-18T11:36:28Z</time>
      </trkpt>
      <trkpt lat="48.60152" lon="2.06456">
        <ele>118</ele>
        <time>2013-08-18T11:36:30Z</time>
      </trkpt>
      <trkpt lat="48.60157" lon="2.06468">
        <ele>118</ele>
        <time>2013-08-18T11:36:32Z</time>
      </trkpt>
      <trkpt lat="48.60162" lon="2.06483">
        <ele>118</ele>
        <time>2013-08-18T11:36:34Z</time>
      </trkpt>
      <trkpt lat="48.60168" lon="2.06497">
        <ele>118</ele>
        <time>2013-08-18T11:36:36Z</time>
      </trkpt>
      <trkpt lat="48.60173" lon="2.06512">
        <ele>118</ele>
        <time>2013-08-18T11:36:38Z</time>
      </trkpt>
      <trkpt lat="48.60178" lon="2.06526">
        <ele>118</ele>
        <time>2013-08-18T11:36:40Z</time>
      </trkpt>
      <trkpt lat="48.6018" lon="2.0654">
        <ele>118</ele>
        <time>2013-08-18T11:36:42Z</time>
      </trkpt>
      <trkpt lat="48.60181" lon="2.06557">
        <ele>118</ele>
        <time>2013-08-18T11:36:44Z</time>
      </trkpt>
      <trkpt lat="48.6018" lon="2.06574">
        <ele>118</ele>
        <time>2013-08-18T11:36:46Z</time>
      </trkpt>
      <trkpt lat="48.60179" lon="2.06588">
        <ele>118</ele>
        <time>2013-08-18T11:36:48Z</time>
      </trkpt>
      <trkpt lat="48.60181" lon="2.066">
        <ele>118</ele>
        <time>2013-08-18T11:36:50Z</time>
      </trkpt>
      <trkpt lat="48.60183" lon="2.0661">
        <ele>117</ele>
        <time>2013-08-18T11:36:52Z</time>
      </trkpt>
      <trkpt lat="48.60193" lon="2.06618">
        <ele>115</ele>
        <time>2013-08-18T11:36:54Z</time>
      </trkpt>
      <trkpt lat="48.60203" lon="2.06628">
        <ele>113</ele>
        <time>2013-08-18T11:36:56Z</time>
      </trkpt>
      <trkpt lat="48.60216" lon="2.06636">
        <ele>111</ele>
        <time>2013-08-18T11:36:58Z</time>
      </trkpt>
      <trkpt lat="48.60227" lon="2.06643">
        <ele>109</ele>
        <time>2013-08-18T11:37:00Z</time>
      </trkpt>
      <trkpt lat="48.60236" lon="2.0665">
        <ele>108</ele>
        <time>2013-08-18T11:37:02Z</time>
      </trkpt>
      <trkpt lat="48.60246" lon="2.06656">
        <ele>107</ele>
        <time>2013-08-18T11:37:04Z</time>
      </trkpt>
      <trkpt lat="48.60257" lon="2.06662">
        <ele>106</ele>
        <time>2013-08-18T11:37:06Z</time>
      </trkpt>
      <trkpt lat="48.6027" lon="2.06668">
        <ele>104</ele>
        <time>2013-08-18T11:37:08Z</time>
      </trkpt>
      <trkpt lat="48.60278" lon="2.06675">
        <ele>102</ele>
        <time>2013-08-18T11:37:10Z</time>
      </trkpt>
      <trkpt lat="48.60284" lon="2.06681">
        <ele>101</ele>
        <time>2013-08-18T11:37:12Z</time>
      </trkpt>
      <trkpt lat="48.60292" lon="2.06688">
        <ele>101</ele>
        <time>2013-08-18T11:37:14Z</time>
      </trkpt>
      <trkpt lat="48.60298" lon="2.06694">
        <ele>101</ele>
        <time>2013-08-18T11:37:16Z</time>
      </trkpt>
      <trkpt lat="48.60304" lon="2.06699">
        <ele>101</ele>
        <time>2013-08-18T11:37:18Z</time>
      </trkpt>
      <trkpt lat="48.60313" lon="2.06705">
        <ele>101</ele>
        <time>2013-08-18T11:37:20Z</time>
      </trkpt>
      <trkpt lat="48.6032" lon="2.06708">
        <ele>101</ele>
        <time>2013-08-18T11:37:22Z</time>
      </trkpt>
      <trkpt lat="48.60329" lon="2.06711">
        <ele>101</ele>
        <time>2013-08-18T11:37:24Z</time>
      </trkpt>
      <trkpt lat="48.60336" lon="2.06713">
        <ele>101</ele>
        <time>2013-08-18T11:37:26Z</time>
      </trkpt>
      <trkpt lat="48.6034" lon="2.06714">
        <ele>101</ele>
        <time>2013-08-18T11:37:28Z</time>
      </trkpt>
      <trkpt lat="48.60345" lon="2.06717">
        <ele>101</ele>
        <time>2013-08-18T11:37:30Z</time>
      </trkpt>
      <trkpt lat="48.60352" lon="2.0672">
        <ele>101</ele>
        <time>2013-08-18T11:37:32Z</time>
      </trkpt>
      <trkpt lat="48.6036" lon="2.06723">
        <ele>101</ele>
        <time>2013-08-18T11:37:34Z</time>
      </trkpt>
      <trkpt lat="48.60369" lon="2.06727">
        <ele>101</ele>
        <time>2013-08-18T11:37:36Z</time>
      </trkpt>
      <trkpt lat="48.60378" lon="2.06729">
        <ele>101</ele>
        <time>2013-08-18T11:37:38Z</time>
      </trkpt>
      <trkpt lat="48.60387" lon="2.06731">
        <ele>101</ele>
        <time>2013-08-18T11:37:40Z</time>
      </trkpt>
      <trkpt lat="48.60398" lon="2.06732">
        <ele>101</ele>
        <time>2013-08-18T11:37:42Z</time>
      </trkpt>
      <trkpt lat="48.60408" lon="2.06732">
        <ele>101</ele>
        <time>2013-08-18T11:37:44Z</time>
      </trkpt>
      <trkpt lat="48.60415" lon="2.06734">
        <ele>101</ele>
        <time>2013-08-18T11:37:46Z</time>
      </trkpt>
      <trkpt lat="48.60423" lon="2.06734">
        <ele>101</ele>
        <time>2013-08-18T11:37:48Z</time>
      </trkpt>
      <trkpt lat="48.60429" lon="2.06734">
        <ele>101</ele>
        <time>2013-08-18T11:37:50Z</time>
      </trkpt>
      <trkpt lat="48.60433" lon="2.06734">
        <ele>102</ele>
        <time>2013-08-18T11:37:52Z</time>
      </trkpt>
      <trkpt lat="48.60438" lon="2.06736">
        <ele>102</ele>
        <time>2013-08-18T11:37:54Z</time>
      </trkpt>
      <trkpt lat="48.60441" lon="2.06737">
        <ele>102</ele>
        <time>2013-08-18T11:37:56Z</time>
      </trkpt>
      <trkpt lat="48.60445" lon="2.06739">
        <ele>102</ele>
        <time>2013-08-18T11:37:58Z</time>
      </trkpt>
      <trkpt lat="48.60449" lon="2.0674">
        <ele>102</ele>
        <time>2013-08-18T11:38:00Z</time>
      </trkpt>
      <trkpt lat="48.60453" lon="2.06741">
        <ele>102</ele>
        <time>2013-08-18T11:38:02Z</time>
      </trkpt>
      <trkpt lat="48.60456" lon="2.06743">
        <ele>102</ele>
        <time>2013-08-18T11:38:04Z</time>
      </trkpt>
      <trkpt lat="48.6046" lon="2.06745">
        <ele>102</ele>
        <time>2013-08-18T11:38:06Z</time>
      </trkpt>
      <trkpt lat="48.60463" lon="2.06747">
        <ele>102</ele>
        <time>2013-08-18T11:38:09Z</time>
      </trkpt>
      <trkpt lat="48.60465" lon="2.06749">
        <ele>102</ele>
        <time>2013-08-18T11:38:11Z</time>
      </trkpt>
      <trkpt lat="48.60469" lon="2.06751">
        <ele>102</ele>
        <time>2013-08-18T11:38:13Z</time>
      </trkpt>
      <trkpt lat="48.60472" lon="2.06752">
        <ele>102</ele>
        <time>2013-08-18T11:38:15Z</time>
      </trkpt>
      <trkpt lat="48.60474" lon="2.06753">
        <ele>102</ele>
        <time>2013-08-18T11:38:17Z</time>
      </trkpt>
      <trkpt lat="48.60477" lon="2.06755">
        <ele>102</ele>
        <time>2013-08-18T11:38:19Z</time>
      </trkpt>
      <trkpt lat="48.60482" lon="2.06756">
        <ele>102</ele>
        <time>2013-08-18T11:38:21Z</time>
      </trkpt>
      <trkpt lat="48.60485" lon="2.06758">
        <ele>102</ele>
        <time>2013-08-18T11:38:23Z</time>
      </trkpt>
      <trkpt lat="48.60489" lon="2.06761">
        <ele>102</ele>
        <time>2013-08-18T11:38:25Z</time>
      </trkpt>
      <trkpt lat="48.60491" lon="2.06765">
        <ele>102</ele>
        <time>2013-08-18T11:38:27Z</time>
      </trkpt>
      <trkpt lat="48.60493" lon="2.0677">
        <ele>102</ele>
        <time>2013-08-18T11:38:29Z</time>
      </trkpt>
      <trkpt lat="48.60492" lon="2.06775">
        <ele>102</ele>
        <time>2013-08-18T11:38:31Z</time>
      </trkpt>
      <trkpt lat="48.60492" lon="2.0678">
        <ele>102</ele>
        <time>2013-08-18T11:38:33Z</time>
      </trkpt>
      <trkpt lat="48.60492" lon="2.06786">
        <ele>102</ele>
        <time>2013-08-18T11:38:35Z</time>
      </trkpt>
      <trkpt lat="48.60491" lon="2.06791">
        <ele>102</ele>
        <time>2013-08-18T11:38:37Z</time>
      </trkpt>
      <trkpt lat="48.6049" lon="2.06796">
        <ele>102</ele>
        <time>2013-08-18T11:38:39Z</time>
      </trkpt>
      <trkpt lat="48.60489" lon="2.06802">
        <ele>102</ele>
        <time>2013-08-18T11:38:41Z</time>
      </trkpt>
      <trkpt lat="48.60489" lon="2.06807">
        <ele>102</ele>
        <time>2013-08-18T11:38:43Z</time>
      </trkpt>
      <trkpt lat="48.60488" lon="2.06812">
        <ele>102</ele>
        <time>2013-08-18T11:38:45Z</time>
      </trkpt>
      <trkpt lat="48.60487" lon="2.06817">
        <ele>102</ele>
        <time>2013-08-18T11:38:47Z</time>
      </trkpt>
      <trkpt lat="48.60487" lon="2.06821">
        <ele>102</ele>
        <time>2013-08-18T11:38:49Z</time>
      </trkpt>
      <trkpt lat="48.60487" lon="2.06825">
        <ele>102</ele>
        <time>2013-08-18T11:38:51Z</time>
      </trkpt>
      <trkpt lat="48.60489" lon="2.0683">
        <ele>102</ele>
        <time>2013-08-18T11:38:54Z</time>
      </trkpt>
      <trkpt lat="48.60492" lon="2.06831">
        <ele>102</ele>
        <time>2013-08-18T11:38:56Z</time>
      </trkpt>
      <trkpt lat="48.60495" lon="2.06832">
        <ele>102</ele>
        <time>2013-08-18T11:38:58Z</time>
      </trkpt>
      <trkpt lat="48.60498" lon="2.06834">
        <ele>102</ele>
        <time>2013-08-18T11:39:00Z</time>
      </trkpt>
      <trkpt lat="48.60502" lon="2.06835">
        <ele>102</ele>
        <time>2013-08-18T11:39:02Z</time>
      </trkpt>
      <trkpt lat="48.60505" lon="2.06836">
        <ele>102</ele>
        <time>2013-08-18T11:39:04Z</time>
      </trkpt>
      <trkpt lat="48.60509" lon="2.06837">
        <ele>102</ele>
        <time>2013-08-18T11:39:06Z</time>
      </trkpt>
      <trkpt lat="48.60512" lon="2.06838">
        <ele>102</ele>
        <time>2013-08-18T11:39:08Z</time>
      </trkpt>
      <trkpt lat="48.60516" lon="2.0684">
        <ele>102</ele>
        <time>2013-08-18T11:39:10Z</time>
      </trkpt>
      <trkpt lat="48.60519" lon="2.06842">
        <ele>102</ele>
        <time>2013-08-18T11:39:12Z</time>
      </trkpt>
      <trkpt lat="48.60521" lon="2.06846">
        <ele>102</ele>
        <time>2013-08-18T11:39:14Z</time>
      </trkpt>
      <trkpt lat="48.60522" lon="2.0685">
        <ele>102</ele>
        <time>2013-08-18T11:39:16Z</time>
      </trkpt>
      <trkpt lat="48.60522" lon="2.06854">
        <ele>103</ele>
        <time>2013-08-18T11:39:18Z</time>
      </trkpt>
      <trkpt lat="48.60522" lon="2.06858">
        <ele>104</ele>
        <time>2013-08-18T11:39:20Z</time>
      </trkpt>
      <trkpt lat="48.60522" lon="2.06862">
        <ele>104</ele>
        <time>2013-08-18T11:39:22Z</time>
      </trkpt>
      <trkpt lat="48.60522" lon="2.06866">
        <ele>104</ele>
        <time>2013-08-18T11:39:24Z</time>
      </trkpt>
      <trkpt lat="48.60521" lon="2.06871">
        <ele>104</ele>
        <time>2013-08-18T11:39:26Z</time>
      </trkpt>
      <trkpt lat="48.6052" lon="2.06876">
        <ele>104</ele>
        <time>2013-08-18T11:39:28Z</time>
      </trkpt>
      <trkpt lat="48.60519" lon="2.06881">
        <ele>104</ele>
        <time>2013-08-18T11:39:30Z</time>
      </trkpt>
      <trkpt lat="48.60519" lon="2.06886">
        <ele>104</ele>
        <time>2013-08-18T11:39:32Z</time>
      </trkpt>
      <trkpt lat="48.60517" lon="2.06892">
        <ele>104</ele>
        <time>2013-08-18T11:39:34Z</time>
      </trkpt>
      <trkpt lat="48.60516" lon="2.06896">
        <ele>104</ele>
        <time>2013-08-18T11:39:36Z</time>
      </trkpt>
      <trkpt lat="48.60515" lon="2.06901">
        <ele>104</ele>
        <time>2013-08-18T11:39:38Z</time>
      </trkpt>
      <trkpt lat="48.60514" lon="2.06907">
        <ele>104</ele>
        <time>2013-08-18T11:39:40Z</time>
      </trkpt>
      <trkpt lat="48.60513" lon="2.06911">
        <ele>104</ele>
        <time>2013-08-18T11:39:42Z</time>
      </trkpt>
      <trkpt lat="48.60511" lon="2.06916">
        <ele>104</ele>
        <time>2013-08-18T11:39:44Z</time>
      </trkpt>
      <trkpt lat="48.60511" lon="2.0692">
        <ele>104</ele>
        <time>2013-08-18T11:39:46Z</time>
      </trkpt>
      <trkpt lat="48.60509" lon="2.06925">
        <ele>104</ele>
        <time>2013-08-18T11:39:48Z</time>
      </trkpt>
      <trkpt lat="48.60508" lon="2.0693">
        <ele>104</ele>
        <time>2013-08-18T11:39:50Z</time>
      </trkpt>
      <trkpt lat="48.60507" lon="2.06934">
        <ele>104</ele>
        <time>2013-08-18T11:39:52Z</time>
      </trkpt>
      <trkpt lat="48.60506" lon="2.06939">
        <ele>104</ele>
        <time>2013-08-18T11:39:54Z</time>
      </trkpt>
      <trkpt lat="48.60504" lon="2.06944">
        <ele>104</ele>
        <time>2013-08-18T11:39:56Z</time>
      </trkpt>
      <trkpt lat="48.60503" lon="2.06949">
        <ele>104</ele>
        <time>2013-08-18T11:39:58Z</time>
      </trkpt>
      <trkpt lat="48.60502" lon="2.06955">
        <ele>104</ele>
        <time>2013-08-18T11:40:00Z</time>
      </trkpt>
      <trkpt lat="48.60501" lon="2.0696">
        <ele>104</ele>
        <time>2013-08-18T11:40:02Z</time>
      </trkpt>
      <trkpt lat="48.605" lon="2.06965">
        <ele>104</ele>
        <time>2013-08-18T11:40:04Z</time>
      </trkpt>
      <trkpt lat="48.60499" lon="2.06969">
        <ele>104</ele>
        <time>2013-08-18T11:40:06Z</time>
      </trkpt>
      <trkpt lat="48.60497" lon="2.06973">
        <ele>104</ele>
        <time>2013-08-18T11:40:08Z</time>
      </trkpt>
      <trkpt lat="48.60496" lon="2.06977">
        <ele>104</ele>
        <time>2013-08-18T11:40:10Z</time>
      </trkpt>
      <trkpt lat="48.60495" lon="2.06979">
        <ele>104</ele>
        <time>2013-08-18T11:40:12Z</time>
      </trkpt>
      <trkpt lat="48.60495" lon="2.06981">
        <ele>104</ele>
        <time>2013-08-18T11:40:16Z</time>
      </trkpt>
      <trkpt lat="48.60493" lon="2.06984">
        <ele>104</ele>
        <time>2013-08-18T11:40:18Z</time>
      </trkpt>
      <trkpt lat="48.60492" lon="2.06989">
        <ele>104</ele>
        <time>2013-08-18T11:40:20Z</time>
      </trkpt>
      <trkpt lat="48.6049" lon="2.06993">
        <ele>104</ele>
        <time>2013-08-18T11:40:22Z</time>
      </trkpt>
      <trkpt lat="48.60489" lon="2.06997">
        <ele>104</ele>
        <time>2013-08-18T11:40:24Z</time>
      </trkpt>
      <trkpt lat="48.60487" lon="2.07002">
        <ele>104</ele>
        <time>2013-08-18T11:40:26Z</time>
      </trkpt>
      <trkpt lat="48.60485" lon="2.07006">
        <ele>104</ele>
        <time>2013-08-18T11:40:28Z</time>
      </trkpt>
      <trkpt lat="48.60483" lon="2.0701">
        <ele>104</ele>
        <time>2013-08-18T11:40:30Z</time>
      </trkpt>
      <trkpt lat="48.60481" lon="2.07014">
        <ele>104</ele>
        <time>2013-08-18T11:40:32Z</time>
      </trkpt>
      <trkpt lat="48.60479" lon="2.07018">
        <ele>104</ele>
        <time>2013-08-18T11:40:34Z</time>
      </trkpt>
      <trkpt lat="48.60477" lon="2.07023">
        <ele>104</ele>
        <time>2013-08-18T11:40:36Z</time>
      </trkpt>
      <trkpt lat="48.60475" lon="2.07027">
        <ele>104</ele>
        <time>2013-08-18T11:40:38Z</time>
      </trkpt>
      <trkpt lat="48.60473" lon="2.07031">
        <ele>104</ele>
        <time>2013-08-18T11:40:40Z</time>
      </trkpt>
      <trkpt lat="48.60471" lon="2.07035">
        <ele>104</ele>
        <time>2013-08-18T11:40:42Z</time>
      </trkpt>
      <trkpt lat="48.60469" lon="2.0704">
        <ele>104</ele>
        <time>2013-08-18T11:40:44Z</time>
      </trkpt>
      <trkpt lat="48.60467" lon="2.07045">
        <ele>104</ele>
        <time>2013-08-18T11:40:46Z</time>
      </trkpt>
      <trkpt lat="48.60466" lon="2.0705">
        <ele>104</ele>
        <time>2013-08-18T11:40:48Z</time>
      </trkpt>
      <trkpt lat="48.60466" lon="2.07054">
        <ele>104</ele>
        <time>2013-08-18T11:40:50Z</time>
      </trkpt>
      <trkpt lat="48.60465" lon="2.07059">
        <ele>104</ele>
        <time>2013-08-18T11:40:52Z</time>
      </trkpt>
      <trkpt lat="48.60465" lon="2.07064">
        <ele>104</ele>
        <time>2013-08-18T11:40:54Z</time>
      </trkpt>
      <trkpt lat="48.60465" lon="2.07069">
        <ele>104</ele>
        <time>2013-08-18T11:40:56Z</time>
      </trkpt>
      <trkpt lat="48.60465" lon="2.07074">
        <ele>104</ele>
        <time>2013-08-18T11:40:58Z</time>
      </trkpt>
      <trkpt lat="48.60465" lon="2.07079">
        <ele>104</ele>
        <time>2013-08-18T11:41:00Z</time>
      </trkpt>
      <trkpt lat="48.60466" lon="2.07084">
        <ele>104</ele>
        <time>2013-08-18T11:41:02Z</time>
      </trkpt>
      <trkpt lat="48.60466" lon="2.07089">
        <ele>104</ele>
        <time>2013-08-18T11:41:04Z</time>
      </trkpt>
      <trkpt lat="48.60466" lon="2.07094">
        <ele>104</ele>
        <time>2013-08-18T11:41:06Z</time>
      </trkpt>
      <trkpt lat="48.60467" lon="2.071">
        <ele>104</ele>
        <time>2013-08-18T11:41:08Z</time>
      </trkpt>
      <trkpt lat="48.60467" lon="2.07105">
        <ele>104</ele>
        <time>2013-08-18T11:41:10Z</time>
      </trkpt>
      <trkpt lat="48.60467" lon="2.0711">
        <ele>104</ele>
        <time>2013-08-18T11:41:12Z</time>
      </trkpt>
      <trkpt lat="48.60467" lon="2.07116">
        <ele>104</ele>
        <time>2013-08-18T11:41:14Z</time>
      </trkpt>
      <trkpt lat="48.60467" lon="2.0712">
        <ele>104</ele>
        <time>2013-08-18T11:41:16Z</time>
      </trkpt>
      <trkpt lat="48.60467" lon="2.07126">
        <ele>104</ele>
        <time>2013-08-18T11:41:18Z</time>
      </trkpt>
      <trkpt lat="48.60468" lon="2.07131">
        <ele>104</ele>
        <time>2013-08-18T11:41:20Z</time>
      </trkpt>
      <trkpt lat="48.60468" lon="2.07136">
        <ele>104</ele>
        <time>2013-08-18T11:41:22Z</time>
      </trkpt>
      <trkpt lat="48.60468" lon="2.07141">
        <ele>104</ele>
        <time>2013-08-18T11:41:24Z</time>
      </trkpt>
      <trkpt lat="48.60468" lon="2.07147">
        <ele>104</ele>
        <time>2013-08-18T11:41:26Z</time>
      </trkpt>
      <trkpt lat="48.60468" lon="2.07152">
        <ele>104</ele>
        <time>2013-08-18T11:41:28Z</time>
      </trkpt>
      <trkpt lat="48.60468" lon="2.07157">
        <ele>104</ele>
        <time>2013-08-18T11:41:30Z</time>
      </trkpt>
      <trkpt lat="48.60468" lon="2.07162">
        <ele>104</ele>
        <time>2013-08-18T11:41:32Z</time>
      </trkpt>
      <trkpt lat="48.60468" lon="2.07168">
        <ele>104</ele>
        <time>2013-08-18T11:41:34Z</time>
      </trkpt>
      <trkpt lat="48.60468" lon="2.07173">
        <ele>104</ele>
        <time>2013-08-18T11:41:36Z</time>
      </trkpt>
      <trkpt lat="48.60468" lon="2.07178">
        <ele>104</ele>
        <time>2013-08-18T11:41:38Z</time>
      </trkpt>
      <trkpt lat="48.60468" lon="2.07184">
        <ele>104</ele>
        <time>2013-08-18T11:41:40Z</time>
      </trkpt>
      <trkpt lat="48.60468" lon="2.07189">
        <ele>104</ele>
        <time>2013-08-18T11:41:42Z</time>
      </trkpt>
      <trkpt lat="48.60469" lon="2.07194">
        <ele>104</ele>
        <time>2013-08-18T11:41:44Z</time>
      </trkpt>
      <trkpt lat="48.60469" lon="2.07199">
        <ele>104</ele>
        <time>2013-08-18T11:41:46Z</time>
      </trkpt>
      <trkpt lat="48.60469" lon="2.07204">
        <ele>104</ele>
        <time>2013-08-18T11:41:48Z</time>
      </trkpt>
      <trkpt lat="48.6047" lon="2.07209">
        <ele>104</ele>
        <time>2013-08-18T11:41:50Z</time>
      </trkpt>
      <trkpt lat="48.6047" lon="2.07213">
        <ele>104</ele>
        <time>2013-08-18T11:41:52Z</time>
      </trkpt>
      <trkpt lat="48.6047" lon="2.07218">
        <ele>104</ele>
        <time>2013-08-18T11:41:54Z</time>
      </trkpt>
      <trkpt lat="48.6047" lon="2.07223">
        <ele>104</ele>
        <time>2013-08-18T11:41:56Z</time>
      </trkpt>
      <trkpt lat="48.60471" lon="2.07228">
        <ele>104</ele>
        <time>2013-08-18T11:41:58Z</time>
      </trkpt>
      <trkpt lat="48.60471" lon="2.07233">
        <ele>104</ele>
        <time>2013-08-18T11:42:00Z</time>
      </trkpt>
      <trkpt lat="48.60472" lon="2.07238">
        <ele>104</ele>
        <time>2013-08-18T11:42:02Z</time>
      </trkpt>
      <trkpt lat="48.60472" lon="2.07243">
        <ele>104</ele>
        <time>2013-08-18T11:42:04Z</time>
      </trkpt>
      <trkpt lat="48.60472" lon="2.07249">
        <ele>104</ele>
        <time>2013-08-18T11:42:06Z</time>
      </trkpt>
      <trkpt lat="48.60473" lon="2.07254">
        <ele>104</ele>
        <time>2013-08-18T11:42:08Z</time>
      </trkpt>
      <trkpt lat="48.60473" lon="2.07259">
        <ele>104</ele>
        <time>2013-08-18T11:42:10Z</time>
      </trkpt>
      <trkpt lat="48.60472" lon="2.07264">
        <ele>104</ele>
        <time>2013-08-18T11:42:12Z</time>
      </trkpt>
      <trkpt lat="48.60472" lon="2.07268">
        <ele>104</ele>
        <time>2013-08-18T11:42:14Z</time>
      </trkpt>
      <trkpt lat="48.60472" lon="2.07273">
        <ele>104</ele>
        <time>2013-08-18T11:42:16Z</time>
      </trkpt>
      <trkpt lat="48.60472" lon="2.07277">
        <ele>104</ele>
        <time>2013-08-18T11:42:18Z</time>
      </trkpt>
      <trkpt lat="48.60473" lon="2.07282">
        <ele>104</ele>
        <time>2013-08-18T11:42:20Z</time>
      </trkpt>
      <trkpt lat="48.60472" lon="2.07288">
        <ele>104</ele>
        <time>2013-08-18T11:42:22Z</time>
      </trkpt>
      <trkpt lat="48.60472" lon="2.07292">
        <ele>104</ele>
        <time>2013-08-18T11:42:24Z</time>
      </trkpt>
      <trkpt lat="48.60473" lon="2.07297">
        <ele>104</ele>
        <time>2013-08-18T11:42:26Z</time>
      </trkpt>
      <trkpt lat="48.60473" lon="2.07302">
        <ele>104</ele>
        <time>2013-08-18T11:42:28Z</time>
      </trkpt>
      <trkpt lat="48.60473" lon="2.07308">
        <ele>104</ele>
        <time>2013-08-18T11:42:30Z</time>
      </trkpt>
      <trkpt lat="48.60473" lon="2.07314">
        <ele>104</ele>
        <time>2013-08-18T11:42:32Z</time>
      </trkpt>
      <trkpt lat="48.60474" lon="2.07319">
        <ele>104</ele>
        <time>2013-08-18T11:42:34Z</time>
      </trkpt>
      <trkpt lat="48.60474" lon="2.07324">
        <ele>104</ele>
        <time>2013-08-18T11:42:36Z</time>
      </trkpt>
      <trkpt lat="48.60474" lon="2.07329">
        <ele>104</ele>
        <time>2013-08-18T11:42:38Z</time>
      </trkpt>
      <trkpt lat="48.60474" lon="2.07333">
        <ele>104</ele>
        <time>2013-08-18T11:42:40Z</time>
      </trkpt>
      <trkpt lat="48.60475" lon="2.07339">
        <ele>104</ele>
        <time>2013-08-18T11:42:42Z</time>
      </trkpt>
      <trkpt lat="48.60474" lon="2.07344">
        <ele>104</ele>
        <time>2013-08-18T11:42:44Z</time>
      </trkpt>
      <trkpt lat="48.60476" lon="2.07348">
        <ele>104</ele>
        <time>2013-08-18T11:42:46Z</time>
      </trkpt>
      <trkpt lat="48.60476" lon="2.07353">
        <ele>104</ele>
        <time>2013-08-18T11:42:48Z</time>
      </trkpt>
      <trkpt lat="48.60476" lon="2.07358">
        <ele>104</ele>
        <time>2013-08-18T11:42:50Z</time>
      </trkpt>
      <trkpt lat="48.60477" lon="2.07363">
        <ele>105</ele>
        <time>2013-08-18T11:42:52Z</time>
      </trkpt>
      <trkpt lat="48.60477" lon="2.07368">
        <ele>105</ele>
        <time>2013-08-18T11:42:54Z</time>
      </trkpt>
      <trkpt lat="48.60477" lon="2.07373">
        <ele>105</ele>
        <time>2013-08-18T11:42:56Z</time>
      </trkpt>
      <trkpt lat="48.60477" lon="2.07377">
        <ele>105</ele>
        <time>2013-08-18T11:42:58Z</time>
      </trkpt>
      <trkpt lat="48.60477" lon="2.07381">
        <ele>105</ele>
        <time>2013-08-18T11:43:00Z</time>
      </trkpt>
      <trkpt lat="48.60477" lon="2.07386">
        <ele>105</ele>
        <time>2013-08-18T11:43:02Z</time>
      </trkpt>
      <trkpt lat="48.60477" lon="2.07392">
        <ele>105</ele>
        <time>2013-08-18T11:43:04Z</time>
      </trkpt>
      <trkpt lat="48.60477" lon="2.074">
        <ele>105</ele>
        <time>2013-08-18T11:43:06Z</time>
      </trkpt>
      <trkpt lat="48.60478" lon="2.07409">
        <ele>105</ele>
        <time>2013-08-18T11:43:08Z</time>
      </trkpt>
      <trkpt lat="48.60479" lon="2.07416">
        <ele>105</ele>
        <time>2013-08-18T11:43:10Z</time>
      </trkpt>
      <trkpt lat="48.60479" lon="2.07421">
        <ele>106</ele>
        <time>2013-08-18T11:43:12Z</time>
      </trkpt>
      <trkpt lat="48.60479" lon="2.07426">
        <ele>106</ele>
        <time>2013-08-18T11:43:14Z</time>
      </trkpt>
      <trkpt lat="48.60479" lon="2.07431">
        <ele>107</ele>
        <time>2013-08-18T11:43:16Z</time>
      </trkpt>
      <trkpt lat="48.60481" lon="2.07435">
        <ele>107</ele>
        <time>2013-08-18T11:43:18Z</time>
      </trkpt>
      <trkpt lat="48.60484" lon="2.07438">
        <ele>108</ele>
        <time>2013-08-18T11:43:21Z</time>
      </trkpt>
      <trkpt lat="48.60484" lon="2.07441">
        <ele>108</ele>
        <time>2013-08-18T11:43:23Z</time>
      </trkpt>
      <trkpt lat="48.60487" lon="2.0744">
        <ele>108</ele>
        <time>2013-08-18T11:43:29Z</time>
      </trkpt>
      <trkpt lat="48.6049" lon="2.07442">
        <ele>108</ele>
        <time>2013-08-18T11:43:31Z</time>
      </trkpt>
      <trkpt lat="48.60492" lon="2.07444">
        <ele>108</ele>
        <time>2013-08-18T11:43:33Z</time>
      </trkpt>
      <trkpt lat="48.60495" lon="2.07447">
        <ele>109</ele>
        <time>2013-08-18T11:43:35Z</time>
      </trkpt>
      <trkpt lat="48.60498" lon="2.07448">
        <ele>110</ele>
        <time>2013-08-18T11:43:37Z</time>
      </trkpt>
      <trkpt lat="48.60502" lon="2.0745">
        <ele>111</ele>
        <time>2013-08-18T11:43:39Z</time>
      </trkpt>
      <trkpt lat="48.60505" lon="2.07451">
        <ele>111</ele>
        <time>2013-08-18T11:43:41Z</time>
      </trkpt>
      <trkpt lat="48.60508" lon="2.07452">
        <ele>112</ele>
        <time>2013-08-18T11:43:43Z</time>
      </trkpt>
      <trkpt lat="48.60511" lon="2.07452">
        <ele>112</ele>
        <time>2013-08-18T11:43:45Z</time>
      </trkpt>
      <trkpt lat="48.60515" lon="2.07453">
        <ele>112</ele>
        <time>2013-08-18T11:43:47Z</time>
      </trkpt>
      <trkpt lat="48.60518" lon="2.07454">
        <ele>112</ele>
        <time>2013-08-18T11:43:49Z</time>
      </trkpt>
      <trkpt lat="48.60521" lon="2.07455">
        <ele>112</ele>
        <time>2013-08-18T11:43:51Z</time>
      </trkpt>
      <trkpt lat="48.60525" lon="2.07456">
        <ele>112</ele>
        <time>2013-08-18T11:43:53Z</time>
      </trkpt>
      <trkpt lat="48.60528" lon="2.07457">
        <ele>112</ele>
        <time>2013-08-18T11:43:55Z</time>
      </trkpt>
      <trkpt lat="48.60532" lon="2.07459">
        <ele>112</ele>
        <time>2013-08-18T11:43:57Z</time>
      </trkpt>
      <trkpt lat="48.60535" lon="2.0746">
        <ele>112</ele>
        <time>2013-08-18T11:43:59Z</time>
      </trkpt>
      <trkpt lat="48.60538" lon="2.07462">
        <ele>112</ele>
        <time>2013-08-18T11:44:01Z</time>
      </trkpt>
      <trkpt lat="48.60542" lon="2.07463">
        <ele>112</ele>
        <time>2013-08-18T11:44:03Z</time>
      </trkpt>
      <trkpt lat="48.60545" lon="2.07464">
        <ele>112</ele>
        <time>2013-08-18T11:44:05Z</time>
      </trkpt>
      <trkpt lat="48.60548" lon="2.07465">
        <ele>112</ele>
        <time>2013-08-18T11:44:07Z</time>
      </trkpt>
      <trkpt lat="48.60551" lon="2.07467">
        <ele>112</ele>
        <time>2013-08-18T11:44:09Z</time>
      </trkpt>
      <trkpt lat="48.60555" lon="2.07467">
        <ele>112</ele>
        <time>2013-08-18T11:44:11Z</time>
      </trkpt>
      <trkpt lat="48.60558" lon="2.07469">
        <ele>112</ele>
        <time>2013-08-18T11:44:13Z</time>
      </trkpt>
      <trkpt lat="48.60561" lon="2.07469">
        <ele>112</ele>
        <time>2013-08-18T11:44:15Z</time>
      </trkpt>
      <trkpt lat="48.60564" lon="2.0747">
        <ele>112</ele>
        <time>2013-08-18T11:44:17Z</time>
      </trkpt>
      <trkpt lat="48.60567" lon="2.07472">
        <ele>112</ele>
        <time>2013-08-18T11:44:19Z</time>
      </trkpt>
      <trkpt lat="48.6057" lon="2.07473">
        <ele>112</ele>
        <time>2013-08-18T11:44:21Z</time>
      </trkpt>
      <trkpt lat="48.60574" lon="2.07474">
        <ele>112</ele>
        <time>2013-08-18T11:44:23Z</time>
      </trkpt>
      <trkpt lat="48.60577" lon="2.07475">
        <ele>112</ele>
        <time>2013-08-18T11:44:25Z</time>
      </trkpt>
      <trkpt lat="48.6058" lon="2.07476">
        <ele>112</ele>
        <time>2013-08-18T11:44:27Z</time>
      </trkpt>
      <trkpt lat="48.60583" lon="2.07477">
        <ele>112</ele>
        <time>2013-08-18T11:44:29Z</time>
      </trkpt>
      <trkpt lat="48.60587" lon="2.07479">
        <ele>112</ele>
        <time>2013-08-18T11:44:31Z</time>
      </trkpt>
      <trkpt lat="48.6059" lon="2.0748">
        <ele>112</ele>
        <time>2013-08-18T11:44:33Z</time>
      </trkpt>
      <trkpt lat="48.60593" lon="2.07481">
        <ele>112</ele>
        <time>2013-08-18T11:44:35Z</time>
      </trkpt>
      <trkpt lat="48.60596" lon="2.07483">
        <ele>112</ele>
        <time>2013-08-18T11:44:37Z</time>
      </trkpt>
      <trkpt lat="48.606" lon="2.07484">
        <ele>112</ele>
        <time>2013-08-18T11:44:39Z</time>
      </trkpt>
      <trkpt lat="48.60603" lon="2.07485">
        <ele>112</ele>
        <time>2013-08-18T11:44:41Z</time>
      </trkpt>
      <trkpt lat="48.60606" lon="2.07486">
        <ele>112</ele>
        <time>2013-08-18T11:44:43Z</time>
      </trkpt>
      <trkpt lat="48.60609" lon="2.07487">
        <ele>112</ele>
        <time>2013-08-18T11:44:45Z</time>
      </trkpt>
      <trkpt lat="48.60613" lon="2.07488">
        <ele>112</ele>
        <time>2013-08-18T11:44:47Z</time>
      </trkpt>
      <trkpt lat="48.60616" lon="2.07489">
        <ele>112</ele>
        <time>2013-08-18T11:44:49Z</time>
      </trkpt>
      <trkpt lat="48.60619" lon="2.0749">
        <ele>112</ele>
        <time>2013-08-18T11:44:51Z</time>
      </trkpt>
      <trkpt lat="48.60623" lon="2.07491">
        <ele>112</ele>
        <time>2013-08-18T11:44:53Z</time>
      </trkpt>
      <trkpt lat="48.6063" lon="2.07492">
        <ele>112</ele>
        <time>2013-08-18T11:44:55Z</time>
      </trkpt>
      <trkpt lat="48.60637" lon="2.07495">
        <ele>112</ele>
        <time>2013-08-18T11:44:57Z</time>
      </trkpt>
      <trkpt lat="48.60645" lon="2.07497">
        <ele>112</ele>
        <time>2013-08-18T11:44:59Z</time>
      </trkpt>
      <trkpt lat="48.60654" lon="2.075">
        <ele>112</ele>
        <time>2013-08-18T11:45:01Z</time>
      </trkpt>
      <trkpt lat="48.60662" lon="2.07504">
        <ele>112</ele>
        <time>2013-08-18T11:45:03Z</time>
      </trkpt>
      <trkpt lat="48.60672" lon="2.07507">
        <ele>112</ele>
        <time>2013-08-18T11:45:05Z</time>
      </trkpt>
      <trkpt lat="48.60682" lon="2.07511">
        <ele>112</ele>
        <time>2013-08-18T11:45:07Z</time>
      </trkpt>
      <trkpt lat="48.60691" lon="2.07515">
        <ele>112</ele>
        <time>2013-08-18T11:45:09Z</time>
      </trkpt>
      <trkpt lat="48.60702" lon="2.07519">
        <ele>112</ele>
        <time>2013-08-18T11:45:11Z</time>
      </trkpt>
      <trkpt lat="48.60712" lon="2.07523">
        <ele>112</ele>
        <time>2013-08-18T11:45:13Z</time>
      </trkpt>
      <trkpt lat="48.60722" lon="2.07526">
        <ele>112</ele>
        <time>2013-08-18T11:45:15Z</time>
      </trkpt>
      <trkpt lat="48.60732" lon="2.0753">
        <ele>112</ele>
        <time>2013-08-18T11:45:17Z</time>
      </trkpt>
      <trkpt lat="48.60742" lon="2.07534">
        <ele>112</ele>
        <time>2013-08-18T11:45:19Z</time>
      </trkpt>
      <trkpt lat="48.60752" lon="2.07538">
        <ele>112</ele>
        <time>2013-08-18T11:45:21Z</time>
      </trkpt>
      <trkpt lat="48.60762" lon="2.07542">
        <ele>112</ele>
        <time>2013-08-18T11:45:23Z</time>
      </trkpt>
      <trkpt lat="48.60772" lon="2.07545">
        <ele>112</ele>
        <time>2013-08-18T11:45:25Z</time>
      </trkpt>
      <trkpt lat="48.60781" lon="2.07549">
        <ele>112</ele>
        <time>2013-08-18T11:45:27Z</time>
      </trkpt>
      <trkpt lat="48.6079" lon="2.07553">
        <ele>112</ele>
        <time>2013-08-18T11:45:29Z</time>
      </trkpt>
      <trkpt lat="48.60799" lon="2.07557">
        <ele>112</ele>
        <time>2013-08-18T11:45:31Z</time>
      </trkpt>
      <trkpt lat="48.60807" lon="2.0756">
        <ele>112</ele>
        <time>2013-08-18T11:45:33Z</time>
      </trkpt>
      <trkpt lat="48.60815" lon="2.07564">
        <ele>112</ele>
        <time>2013-08-18T11:45:35Z</time>
      </trkpt>
      <trkpt lat="48.60822" lon="2.07567">
        <ele>112</ele>
        <time>2013-08-18T11:45:37Z</time>
      </trkpt>
      <trkpt lat="48.60829" lon="2.0757">
        <ele>112</ele>
        <time>2013-08-18T11:45:39Z</time>
      </trkpt>
      <trkpt lat="48.60836" lon="2.07573">
        <ele>112</ele>
        <time>2013-08-18T11:45:41Z</time>
      </trkpt>
      <trkpt lat="48.60843" lon="2.07576">
        <ele>112</ele>
        <time>2013-08-18T11:45:43Z</time>
      </trkpt>
      <trkpt lat="48.60851" lon="2.07578">
        <ele>112</ele>
        <time>2013-08-18T11:45:45Z</time>
      </trkpt>
      <trkpt lat="48.60859" lon="2.07581">
        <ele>112</ele>
        <time>2013-08-18T11:45:47Z</time>
      </trkpt>
      <trkpt lat="48.60867" lon="2.07584">
        <ele>112</ele>
        <time>2013-08-18T11:45:49Z</time>
      </trkpt>
      <trkpt lat="48.60875" lon="2.07587">
        <ele>112</ele>
        <time>2013-08-18T11:45:51Z</time>
      </trkpt>
      <trkpt lat="48.60882" lon="2.0759">
        <ele>112</ele>
        <time>2013-08-18T11:45:53Z</time>
      </trkpt>
      <trkpt lat="48.60889" lon="2.07593">
        <ele>112</ele>
        <time>2013-08-18T11:45:55Z</time>
      </trkpt>
      <trkpt lat="48.60896" lon="2.07595">
        <ele>112</ele>
        <time>2013-08-18T11:45:57Z</time>
      </trkpt>
      <trkpt lat="48.60902" lon="2.07598">
        <ele>112</ele>
        <time>2013-08-18T11:45:59Z</time>
      </trkpt>
      <trkpt lat="48.6091" lon="2.07601">
        <ele>112</ele>
        <time>2013-08-18T11:46:01Z</time>
      </trkpt>
      <trkpt lat="48.60917" lon="2.07604">
        <ele>112</ele>
        <time>2013-08-18T11:46:03Z</time>
      </trkpt>
      <trkpt lat="48.60923" lon="2.07606">
        <ele>112</ele>
        <time>2013-08-18T11:46:05Z</time>
      </trkpt>
      <trkpt lat="48.6093" lon="2.07609">
        <ele>112</ele>
        <time>2013-08-18T11:46:07Z</time>
      </trkpt>
      <trkpt lat="48.60937" lon="2.07613">
        <ele>112</ele>
        <time>2013-08-18T11:46:09Z</time>
      </trkpt>
      <trkpt lat="48.60943" lon="2.07617">
        <ele>112</ele>
        <time>2013-08-18T11:46:11Z</time>
      </trkpt>
      <trkpt lat="48.60949" lon="2.07624">
        <ele>112</ele>
        <time>2013-08-18T11:46:13Z</time>
      </trkpt>
      <trkpt lat="48.60955" lon="2.07631">
        <ele>112</ele>
        <time>2013-08-18T11:46:15Z</time>
      </trkpt>
      <trkpt lat="48.60962" lon="2.0764">
        <ele>112</ele>
        <time>2013-08-18T11:46:17Z</time>
      </trkpt>
      <trkpt lat="48.60968" lon="2.07648">
        <ele>112</ele>
        <time>2013-08-18T11:46:19Z</time>
      </trkpt>
      <trkpt lat="48.60974" lon="2.07655">
        <ele>112</ele>
        <time>2013-08-18T11:46:21Z</time>
      </trkpt>
      <trkpt lat="48.60979" lon="2.07663">
        <ele>112</ele>
        <time>2013-08-18T11:46:23Z</time>
      </trkpt>
      <trkpt lat="48.60985" lon="2.0767">
        <ele>112</ele>
        <time>2013-08-18T11:46:25Z</time>
      </trkpt>
      <trkpt lat="48.60991" lon="2.07678">
        <ele>112</ele>
        <time>2013-08-18T11:46:27Z</time>
      </trkpt>
      <trkpt lat="48.60997" lon="2.07685">
        <ele>112</ele>
        <time>2013-08-18T11:46:29Z</time>
      </trkpt>
      <trkpt lat="48.61002" lon="2.07693">
        <ele>112</ele>
        <time>2013-08-18T11:46:31Z</time>
      </trkpt>
      <trkpt lat="48.61007" lon="2.07699">
        <ele>112</ele>
        <time>2013-08-18T11:46:33Z</time>
      </trkpt>
      <trkpt lat="48.61009" lon="2.07703">
        <ele>112</ele>
        <time>2013-08-18T11:46:35Z</time>
      </trkpt>
      <trkpt lat="48.61011" lon="2.07707">
        <ele>112</ele>
        <time>2013-08-18T11:46:37Z</time>
      </trkpt>
      <trkpt lat="48.61013" lon="2.07711">
        <ele>112</ele>
        <time>2013-08-18T11:46:39Z</time>
      </trkpt>
      <trkpt lat="48.61016" lon="2.07714">
        <ele>112</ele>
        <time>2013-08-18T11:46:41Z</time>
      </trkpt>
      <trkpt lat="48.61018" lon="2.07717">
        <ele>112</ele>
        <time>2013-08-18T11:46:43Z</time>
      </trkpt>
      <trkpt lat="48.61021" lon="2.0772">
        <ele>112</ele>
        <time>2013-08-18T11:46:45Z</time>
      </trkpt>
      <trkpt lat="48.61023" lon="2.07723">
        <ele>112</ele>
        <time>2013-08-18T11:46:47Z</time>
      </trkpt>
      <trkpt lat="48.61026" lon="2.07726">
        <ele>112</ele>
        <time>2013-08-18T11:46:49Z</time>
      </trkpt>
      <trkpt lat="48.61029" lon="2.07729">
        <ele>112</ele>
        <time>2013-08-18T11:46:51Z</time>
      </trkpt>
      <trkpt lat="48.61031" lon="2.07732">
        <ele>112</ele>
        <time>2013-08-18T11:46:53Z</time>
      </trkpt>
      <trkpt lat="48.61034" lon="2.07735">
        <ele>112</ele>
        <time>2013-08-18T11:46:55Z</time>
      </trkpt>
      <trkpt lat="48.61037" lon="2.07738">
        <ele>112</ele>
        <time>2013-08-18T11:46:57Z</time>
      </trkpt>
      <trkpt lat="48.6104" lon="2.07742">
        <ele>112</ele>
        <time>2013-08-18T11:46:59Z</time>
      </trkpt>
      <trkpt lat="48.61042" lon="2.07745">
        <ele>112</ele>
        <time>2013-08-18T11:47:01Z</time>
      </trkpt>
      <trkpt lat="48.61044" lon="2.07748">
        <ele>112</ele>
        <time>2013-08-18T11:47:03Z</time>
      </trkpt>
      <trkpt lat="48.61047" lon="2.0775">
        <ele>113</ele>
        <time>2013-08-18T11:47:05Z</time>
      </trkpt>
      <trkpt lat="48.6105" lon="2.07753">
        <ele>113</ele>
        <time>2013-08-18T11:47:07Z</time>
      </trkpt>
      <trkpt lat="48.61052" lon="2.07755">
        <ele>113</ele>
        <time>2013-08-18T11:47:09Z</time>
      </trkpt>
      <trkpt lat="48.61055" lon="2.07758">
        <ele>113</ele>
        <time>2013-08-18T11:47:11Z</time>
      </trkpt>
      <trkpt lat="48.61059" lon="2.07762">
        <ele>113</ele>
        <time>2013-08-18T11:47:14Z</time>
      </trkpt>
      <trkpt lat="48.61062" lon="2.07765">
        <ele>114</ele>
        <time>2013-08-18T11:47:16Z</time>
      </trkpt>
      <trkpt lat="48.61065" lon="2.07767">
        <ele>114</ele>
        <time>2013-08-18T11:47:18Z</time>
      </trkpt>
      <trkpt lat="48.61068" lon="2.07769">
        <ele>115</ele>
        <time>2013-08-18T11:47:20Z</time>
      </trkpt>
      <trkpt lat="48.61071" lon="2.07771">
        <ele>115</ele>
        <time>2013-08-18T11:47:22Z</time>
      </trkpt>
      <trkpt lat="48.61073" lon="2.07773">
        <ele>116</ele>
        <time>2013-08-18T11:47:24Z</time>
      </trkpt>
      <trkpt lat="48.61076" lon="2.07776">
        <ele>116</ele>
        <time>2013-08-18T11:47:26Z</time>
      </trkpt>
      <trkpt lat="48.61079" lon="2.07778">
        <ele>116</ele>
        <time>2013-08-18T11:47:28Z</time>
      </trkpt>
      <trkpt lat="48.61081" lon="2.07781">
        <ele>116</ele>
        <time>2013-08-18T11:47:30Z</time>
      </trkpt>
      <trkpt lat="48.61084" lon="2.07783">
        <ele>117</ele>
        <time>2013-08-18T11:47:32Z</time>
      </trkpt>
      <trkpt lat="48.61086" lon="2.07785">
        <ele>117</ele>
        <time>2013-08-18T11:47:34Z</time>
      </trkpt>
      <trkpt lat="48.61089" lon="2.07787">
        <ele>117</ele>
        <time>2013-08-18T11:47:36Z</time>
      </trkpt>
      <trkpt lat="48.61092" lon="2.07791">
        <ele>118</ele>
        <time>2013-08-18T11:47:38Z</time>
      </trkpt>
      <trkpt lat="48.61094" lon="2.07795">
        <ele>118</ele>
        <time>2013-08-18T11:47:40Z</time>
      </trkpt>
      <trkpt lat="48.61097" lon="2.07798">
        <ele>118</ele>
        <time>2013-08-18T11:47:42Z</time>
      </trkpt>
      <trkpt lat="48.611" lon="2.07802">
        <ele>118</ele>
        <time>2013-08-18T11:47:44Z</time>
      </trkpt>
      <trkpt lat="48.61103" lon="2.07805">
        <ele>119</ele>
        <time>2013-08-18T11:47:46Z</time>
      </trkpt>
      <trkpt lat="48.61106" lon="2.07807">
        <ele>119</ele>
        <time>2013-08-18T11:47:48Z</time>
      </trkpt>
      <trkpt lat="48.61109" lon="2.0781">
        <ele>119</ele>
        <time>2013-08-18T11:47:50Z</time>
      </trkpt>
      <trkpt lat="48.61112" lon="2.07812">
        <ele>119</ele>
        <time>2013-08-18T11:47:52Z</time>
      </trkpt>
      <trkpt lat="48.61116" lon="2.07814">
        <ele>119</ele>
        <time>2013-08-18T11:47:54Z</time>
      </trkpt>
      <trkpt lat="48.61119" lon="2.07817">
        <ele>119</ele>
        <time>2013-08-18T11:47:56Z</time>
      </trkpt>
      <trkpt lat="48.61124" lon="2.0782">
        <ele>119</ele>
        <time>2013-08-18T11:47:58Z</time>
      </trkpt>
      <trkpt lat="48.61128" lon="2.07823">
        <ele>119</ele>
        <time>2013-08-18T11:48:00Z</time>
      </trkpt>
      <trkpt lat="48.6113" lon="2.07825">
        <ele>119</ele>
        <time>2013-08-18T11:48:02Z</time>
      </trkpt>
      <trkpt lat="48.61133" lon="2.07829">
        <ele>119</ele>
        <time>2013-08-18T11:48:04Z</time>
      </trkpt>
      <trkpt lat="48.61136" lon="2.07833">
        <ele>120</ele>
        <time>2013-08-18T11:48:06Z</time>
      </trkpt>
      <trkpt lat="48.61138" lon="2.07837">
        <ele>120</ele>
        <time>2013-08-18T11:48:08Z</time>
      </trkpt>
      <trkpt lat="48.6114" lon="2.07841">
        <ele>121</ele>
        <time>2013-08-18T11:48:10Z</time>
      </trkpt>
      <trkpt lat="48.61143" lon="2.07847">
        <ele>123</ele>
        <time>2013-08-18T11:48:12Z</time>
      </trkpt>
      <trkpt lat="48.61146" lon="2.07855">
        <ele>123</ele>
        <time>2013-08-18T11:48:14Z</time>
      </trkpt>
      <trkpt lat="48.61148" lon="2.07862">
        <ele>123</ele>
        <time>2013-08-18T11:48:16Z</time>
      </trkpt>
      <trkpt lat="48.6115" lon="2.07869">
        <ele>123</ele>
        <time>2013-08-18T11:48:18Z</time>
      </trkpt>
      <trkpt lat="48.61154" lon="2.07876">
        <ele>123</ele>
        <time>2013-08-18T11:48:20Z</time>
      </trkpt>
      <trkpt lat="48.61155" lon="2.07882">
        <ele>123</ele>
        <time>2013-08-18T11:48:22Z</time>
      </trkpt>
      <trkpt lat="48.61156" lon="2.07887">
        <ele>123</ele>
        <time>2013-08-18T11:48:24Z</time>
      </trkpt>
      <trkpt lat="48.61158" lon="2.07892">
        <ele>123</ele>
        <time>2013-08-18T11:48:26Z</time>
      </trkpt>
      <trkpt lat="48.61162" lon="2.07895">
        <ele>123</ele>
        <time>2013-08-18T11:48:28Z</time>
      </trkpt>
      <trkpt lat="48.61163" lon="2.07899">
        <ele>123</ele>
        <time>2013-08-18T11:48:30Z</time>
      </trkpt>
      <trkpt lat="48.61165" lon="2.07903">
        <ele>123</ele>
        <time>2013-08-18T11:48:32Z</time>
      </trkpt>
      <trkpt lat="48.61167" lon="2.07907">
        <ele>123</ele>
        <time>2013-08-18T11:48:34Z</time>
      </trkpt>
      <trkpt lat="48.61169" lon="2.07911">
        <ele>123</ele>
        <time>2013-08-18T11:48:36Z</time>
      </trkpt>
      <trkpt lat="48.61171" lon="2.07915">
        <ele>122</ele>
        <time>2013-08-18T11:48:38Z</time>
      </trkpt>
      <trkpt lat="48.61174" lon="2.07919">
        <ele>122</ele>
        <time>2013-08-18T11:48:40Z</time>
      </trkpt>
      <trkpt lat="48.61177" lon="2.07924">
        <ele>122</ele>
        <time>2013-08-18T11:48:42Z</time>
      </trkpt>
      <trkpt lat="48.61178" lon="2.07928">
        <ele>122</ele>
        <time>2013-08-18T11:48:44Z</time>
      </trkpt>
      <trkpt lat="48.61177" lon="2.0793">
        <ele>122</ele>
        <time>2013-08-18T11:48:46Z</time>
      </trkpt>
      <trkpt lat="48.61179" lon="2.07934">
        <ele>122</ele>
        <time>2013-08-18T11:48:48Z</time>
      </trkpt>
      <trkpt lat="48.6118" lon="2.07938">
        <ele>122</ele>
        <time>2013-08-18T11:48:50Z</time>
      </trkpt>
      <trkpt lat="48.61182" lon="2.07943">
        <ele>122</ele>
        <time>2013-08-18T11:48:53Z</time>
      </trkpt>
      <trkpt lat="48.61183" lon="2.07948">
        <ele>122</ele>
        <time>2013-08-18T11:48:55Z</time>
      </trkpt>
      <trkpt lat="48.61184" lon="2.07951">
        <ele>122</ele>
        <time>2013-08-18T11:48:57Z</time>
      </trkpt>
      <trkpt lat="48.61185" lon="2.07955">
        <ele>122</ele>
        <time>2013-08-18T11:48:59Z</time>
      </trkpt>
      <trkpt lat="48.61187" lon="2.07958">
        <ele>122</ele>
        <time>2013-08-18T11:49:01Z</time>
      </trkpt>
      <trkpt lat="48.6119" lon="2.07962">
        <ele>122</ele>
        <time>2013-08-18T11:49:03Z</time>
      </trkpt>
      <trkpt lat="48.61192" lon="2.07967">
        <ele>122</ele>
        <time>2013-08-18T11:49:05Z</time>
      </trkpt>
      <trkpt lat="48.61193" lon="2.07971">
        <ele>122</ele>
        <time>2013-08-18T11:49:07Z</time>
      </trkpt>
      <trkpt lat="48.61195" lon="2.07975">
        <ele>122</ele>
        <time>2013-08-18T11:49:09Z</time>
      </trkpt>
      <trkpt lat="48.61196" lon="2.07978">
        <ele>122</ele>
        <time>2013-08-18T11:49:11Z</time>
      </trkpt>
      <trkpt lat="48.61198" lon="2.07982">
        <ele>122</ele>
        <time>2013-08-18T11:49:13Z</time>
      </trkpt>
      <trkpt lat="48.612" lon="2.07987">
        <ele>123</ele>
        <time>2013-08-18T11:49:15Z</time>
      </trkpt>
      <trkpt lat="48.612" lon="2.07991">
        <ele>124</ele>
        <time>2013-08-18T11:49:17Z</time>
      </trkpt>
      <trkpt lat="48.61201" lon="2.07995">
        <ele>124</ele>
        <time>2013-08-18T11:49:19Z</time>
      </trkpt>
      <trkpt lat="48.61202" lon="2.07999">
        <ele>125</ele>
        <time>2013-08-18T11:49:21Z</time>
      </trkpt>
      <trkpt lat="48.61203" lon="2.08005">
        <ele>125</ele>
        <time>2013-08-18T11:49:24Z</time>
      </trkpt>
      <trkpt lat="48.61204" lon="2.08009">
        <ele>126</ele>
        <time>2013-08-18T11:49:26Z</time>
      </trkpt>
      <trkpt lat="48.61205" lon="2.08014">
        <ele>126</ele>
        <time>2013-08-18T11:49:28Z</time>
      </trkpt>
      <trkpt lat="48.61205" lon="2.08018">
        <ele>126</ele>
        <time>2013-08-18T11:49:30Z</time>
      </trkpt>
      <trkpt lat="48.61206" lon="2.08022">
        <ele>126</ele>
        <time>2013-08-18T11:49:32Z</time>
      </trkpt>
      <trkpt lat="48.61207" lon="2.08027">
        <ele>126</ele>
        <time>2013-08-18T11:49:34Z</time>
      </trkpt>
      <trkpt lat="48.61206" lon="2.08032">
        <ele>126</ele>
        <time>2013-08-18T11:49:36Z</time>
      </trkpt>
      <trkpt lat="48.61206" lon="2.08038">
        <ele>126</ele>
        <time>2013-08-18T11:49:38Z</time>
      </trkpt>
      <trkpt lat="48.61206" lon="2.08042">
        <ele>126</ele>
        <time>2013-08-18T11:49:40Z</time>
      </trkpt>
      <trkpt lat="48.61206" lon="2.08046">
        <ele>126</ele>
        <time>2013-08-18T11:49:42Z</time>
      </trkpt>
      <trkpt lat="48.61208" lon="2.0805">
        <ele>126</ele>
        <time>2013-08-18T11:49:44Z</time>
      </trkpt>
      <trkpt lat="48.61209" lon="2.08055">
        <ele>126</ele>
        <time>2013-08-18T11:49:46Z</time>
      </trkpt>
      <trkpt lat="48.61208" lon="2.08062">
        <ele>126</ele>
        <time>2013-08-18T11:49:48Z</time>
      </trkpt>
      <trkpt lat="48.61208" lon="2.08068">
        <ele>126</ele>
        <time>2013-08-18T11:49:50Z</time>
      </trkpt>
      <trkpt lat="48.61208" lon="2.08075">
        <ele>126</ele>
        <time>2013-08-18T11:49:52Z</time>
      </trkpt>
      <trkpt lat="48.61209" lon="2.08079">
        <ele>126</ele>
        <time>2013-08-18T11:49:54Z</time>
      </trkpt>
      <trkpt lat="48.61209" lon="2.08085">
        <ele>126</ele>
        <time>2013-08-18T11:49:56Z</time>
      </trkpt>
      <trkpt lat="48.61208" lon="2.0809">
        <ele>126</ele>
        <time>2013-08-18T11:49:58Z</time>
      </trkpt>
      <trkpt lat="48.61208" lon="2.08098">
        <ele>126</ele>
        <time>2013-08-18T11:50:00Z</time>
      </trkpt>
      <trkpt lat="48.61209" lon="2.08104">
        <ele>126</ele>
        <time>2013-08-18T11:50:02Z</time>
      </trkpt>
      <trkpt lat="48.61209" lon="2.08111">
        <ele>126</ele>
        <time>2013-08-18T11:50:04Z</time>
      </trkpt>
      <trkpt lat="48.61211" lon="2.08118">
        <ele>126</ele>
        <time>2013-08-18T11:50:06Z</time>
      </trkpt>
      <trkpt lat="48.61213" lon="2.08125">
        <ele>126</ele>
        <time>2013-08-18T11:50:08Z</time>
      </trkpt>
      <trkpt lat="48.61216" lon="2.08133">
        <ele>126</ele>
        <time>2013-08-18T11:50:10Z</time>
      </trkpt>
      <trkpt lat="48.6122" lon="2.08141">
        <ele>127</ele>
        <time>2013-08-18T11:50:12Z</time>
      </trkpt>
      <trkpt lat="48.6122" lon="2.08147">
        <ele>127</ele>
        <time>2013-08-18T11:50:14Z</time>
      </trkpt>
      <trkpt lat="48.61221" lon="2.08152">
        <ele>127</ele>
        <time>2013-08-18T11:50:16Z</time>
      </trkpt>
      <trkpt lat="48.61222" lon="2.08157">
        <ele>127</ele>
        <time>2013-08-18T11:50:18Z</time>
      </trkpt>
      <trkpt lat="48.61223" lon="2.08162">
        <ele>127</ele>
        <time>2013-08-18T11:50:20Z</time>
      </trkpt>
      <trkpt lat="48.61225" lon="2.08167">
        <ele>127</ele>
        <time>2013-08-18T11:50:22Z</time>
      </trkpt>
      <trkpt lat="48.61226" lon="2.08171">
        <ele>127</ele>
        <time>2013-08-18T11:50:24Z</time>
      </trkpt>
      <trkpt lat="48.61228" lon="2.08174">
        <ele>127</ele>
        <time>2013-08-18T11:50:26Z</time>
      </trkpt>
      <trkpt lat="48.61229" lon="2.08179">
        <ele>127</ele>
        <time>2013-08-18T11:50:28Z</time>
      </trkpt>
      <trkpt lat="48.61231" lon="2.08185">
        <ele>127</ele>
        <time>2013-08-18T11:50:30Z</time>
      </trkpt>
      <trkpt lat="48.61233" lon="2.0819">
        <ele>127</ele>
        <time>2013-08-18T11:50:32Z</time>
      </trkpt>
      <trkpt lat="48.61234" lon="2.08194">
        <ele>127</ele>
        <time>2013-08-18T11:50:34Z</time>
      </trkpt>
      <trkpt lat="48.61235" lon="2.08199">
        <ele>127</ele>
        <time>2013-08-18T11:50:36Z</time>
      </trkpt>
      <trkpt lat="48.61237" lon="2.08206">
        <ele>127</ele>
        <time>2013-08-18T11:50:38Z</time>
      </trkpt>
      <trkpt lat="48.61237" lon="2.08211">
        <ele>127</ele>
        <time>2013-08-18T11:50:40Z</time>
      </trkpt>
      <trkpt lat="48.61237" lon="2.08215">
        <ele>127</ele>
        <time>2013-08-18T11:50:42Z</time>
      </trkpt>
      <trkpt lat="48.61235" lon="2.08222">
        <ele>127</ele>
        <time>2013-08-18T11:50:44Z</time>
      </trkpt>
      <trkpt lat="48.61235" lon="2.0823">
        <ele>127</ele>
        <time>2013-08-18T11:50:46Z</time>
      </trkpt>
      <trkpt lat="48.61234" lon="2.08238">
        <ele>127</ele>
        <time>2013-08-18T11:50:48Z</time>
      </trkpt>
      <trkpt lat="48.61232" lon="2.08243">
        <ele>127</ele>
        <time>2013-08-18T11:50:50Z</time>
      </trkpt>
      <trkpt lat="48.6123" lon="2.08249">
        <ele>127</ele>
        <time>2013-08-18T11:50:52Z</time>
      </trkpt>
      <trkpt lat="48.61227" lon="2.08258">
        <ele>127</ele>
        <time>2013-08-18T11:50:54Z</time>
      </trkpt>
      <trkpt lat="48.61223" lon="2.08264">
        <ele>127</ele>
        <time>2013-08-18T11:50:56Z</time>
      </trkpt>
      <trkpt lat="48.6122" lon="2.08268">
        <ele>127</ele>
        <time>2013-08-18T11:50:58Z</time>
      </trkpt>
      <trkpt lat="48.61219" lon="2.08273">
        <ele>127</ele>
        <time>2013-08-18T11:51:00Z</time>
      </trkpt>
      <trkpt lat="48.61218" lon="2.08278">
        <ele>127</ele>
        <time>2013-08-18T11:51:02Z</time>
      </trkpt>
      <trkpt lat="48.61217" lon="2.08282">
        <ele>127</ele>
        <time>2013-08-18T11:51:04Z</time>
      </trkpt>
      <trkpt lat="48.61214" lon="2.08287">
        <ele>127</ele>
        <time>2013-08-18T11:51:06Z</time>
      </trkpt>
      <trkpt lat="48.61211" lon="2.08293">
        <ele>127</ele>
        <time>2013-08-18T11:51:08Z</time>
      </trkpt>
      <trkpt lat="48.61211" lon="2.08296">
        <ele>127</ele>
        <time>2013-08-18T11:51:10Z</time>
      </trkpt>
      <trkpt lat="48.61209" lon="2.08299">
        <ele>127</ele>
        <time>2013-08-18T11:51:12Z</time>
      </trkpt>
      <trkpt lat="48.61207" lon="2.08306">
        <ele>127</ele>
        <time>2013-08-18T11:51:14Z</time>
      </trkpt>
      <trkpt lat="48.61204" lon="2.08313">
        <ele>127</ele>
        <time>2013-08-18T11:51:16Z</time>
      </trkpt>
      <trkpt lat="48.61202" lon="2.08316">
        <ele>127</ele>
        <time>2013-08-18T11:51:18Z</time>
      </trkpt>
      <trkpt lat="48.61199" lon="2.0832">
        <ele>127</ele>
        <time>2013-08-18T11:51:21Z</time>
      </trkpt>
      <trkpt lat="48.61197" lon="2.08323">
        <ele>127</ele>
        <time>2013-08-18T11:51:23Z</time>
      </trkpt>
      <trkpt lat="48.61195" lon="2.08326">
        <ele>127</ele>
        <time>2013-08-18T11:51:25Z</time>
      </trkpt>
      <trkpt lat="48.61193" lon="2.08332">
        <ele>128</ele>
        <time>2013-08-18T11:51:27Z</time>
      </trkpt>
      <trkpt lat="48.61192" lon="2.08337">
        <ele>130</ele>
        <time>2013-08-18T11:51:29Z</time>
      </trkpt>
      <trkpt lat="48.6119" lon="2.08343">
        <ele>132</ele>
        <time>2013-08-18T11:51:31Z</time>
      </trkpt>
      <trkpt lat="48.61189" lon="2.08347">
        <ele>133</ele>
        <time>2013-08-18T11:51:33Z</time>
      </trkpt>
      <trkpt lat="48.61188" lon="2.08352">
        <ele>135</ele>
        <time>2013-08-18T11:51:35Z</time>
      </trkpt>
      <trkpt lat="48.61187" lon="2.08357">
        <ele>135</ele>
        <time>2013-08-18T11:51:37Z</time>
      </trkpt>
      <trkpt lat="48.61186" lon="2.08361">
        <ele>136</ele>
        <time>2013-08-18T11:51:39Z</time>
      </trkpt>
      <trkpt lat="48.61186" lon="2.08367">
        <ele>136</ele>
        <time>2013-08-18T11:51:41Z</time>
      </trkpt>
      <trkpt lat="48.61186" lon="2.08372">
        <ele>137</ele>
        <time>2013-08-18T11:51:43Z</time>
      </trkpt>
      <trkpt lat="48.61187" lon="2.08377">
        <ele>138</ele>
        <time>2013-08-18T11:51:45Z</time>
      </trkpt>
      <trkpt lat="48.61187" lon="2.08382">
        <ele>138</ele>
        <time>2013-08-18T11:51:47Z</time>
      </trkpt>
      <trkpt lat="48.61188" lon="2.08387">
        <ele>139</ele>
        <time>2013-08-18T11:51:49Z</time>
      </trkpt>
      <trkpt lat="48.61187" lon="2.08392">
        <ele>139</ele>
        <time>2013-08-18T11:51:51Z</time>
      </trkpt>
      <trkpt lat="48.61185" lon="2.08395">
        <ele>140</ele>
        <time>2013-08-18T11:51:53Z</time>
      </trkpt>
      <trkpt lat="48.61185" lon="2.084">
        <ele>140</ele>
        <time>2013-08-18T11:51:55Z</time>
      </trkpt>
      <trkpt lat="48.61186" lon="2.08404">
        <ele>141</ele>
        <time>2013-08-18T11:51:57Z</time>
      </trkpt>
      <trkpt lat="48.61187" lon="2.08409">
        <ele>142</ele>
        <time>2013-08-18T11:51:59Z</time>
      </trkpt>
      <trkpt lat="48.61188" lon="2.08414">
        <ele>142</ele>
        <time>2013-08-18T11:52:01Z</time>
      </trkpt>
      <trkpt lat="48.61189" lon="2.08419">
        <ele>142</ele>
        <time>2013-08-18T11:52:03Z</time>
      </trkpt>
      <trkpt lat="48.61189" lon="2.08424">
        <ele>142</ele>
        <time>2013-08-18T11:52:05Z</time>
      </trkpt>
      <trkpt lat="48.6119" lon="2.08429">
        <ele>142</ele>
        <time>2013-08-18T11:52:07Z</time>
      </trkpt>
      <trkpt lat="48.6119" lon="2.08433">
        <ele>142</ele>
        <time>2013-08-18T11:52:09Z</time>
      </trkpt>
      <trkpt lat="48.6119" lon="2.08437">
        <ele>142</ele>
        <time>2013-08-18T11:52:11Z</time>
      </trkpt>
      <trkpt lat="48.6119" lon="2.0844">
        <ele>142</ele>
        <time>2013-08-18T11:52:13Z</time>
      </trkpt>
      <trkpt lat="48.6119" lon="2.08445">
        <ele>142</ele>
        <time>2013-08-18T11:52:15Z</time>
      </trkpt>
      <trkpt lat="48.6119" lon="2.0845">
        <ele>142</ele>
        <time>2013-08-18T11:52:17Z</time>
      </trkpt>
      <trkpt lat="48.6119" lon="2.08454">
        <ele>142</ele>
        <time>2013-08-18T11:52:19Z</time>
      </trkpt>
      <trkpt lat="48.61189" lon="2.08458">
        <ele>142</ele>
        <time>2013-08-18T11:52:21Z</time>
      </trkpt>
      <trkpt lat="48.61192" lon="2.08464">
        <ele>142</ele>
        <time>2013-08-18T11:52:23Z</time>
      </trkpt>
      <trkpt lat="48.61192" lon="2.08469">
        <ele>142</ele>
        <time>2013-08-18T11:52:25Z</time>
      </trkpt>
      <trkpt lat="48.61192" lon="2.08473">
        <ele>142</ele>
        <time>2013-08-18T11:52:27Z</time>
      </trkpt>
      <trkpt lat="48.61193" lon="2.08479">
        <ele>142</ele>
        <time>2013-08-18T11:52:29Z</time>
      </trkpt>
      <trkpt lat="48.61194" lon="2.08483">
        <ele>142</ele>
        <time>2013-08-18T11:52:31Z</time>
      </trkpt>
      <trkpt lat="48.61196" lon="2.08487">
        <ele>142</ele>
        <time>2013-08-18T11:52:33Z</time>
      </trkpt>
      <trkpt lat="48.61197" lon="2.08489">
        <ele>142</ele>
        <time>2013-08-18T11:52:35Z</time>
      </trkpt>
      <trkpt lat="48.61198" lon="2.08493">
        <ele>142</ele>
        <time>2013-08-18T11:52:37Z</time>
      </trkpt>
      <trkpt lat="48.61201" lon="2.08498">
        <ele>142</ele>
        <time>2013-08-18T11:52:40Z</time>
      </trkpt>
      <trkpt lat="48.61203" lon="2.08501">
        <ele>142</ele>
        <time>2013-08-18T11:52:42Z</time>
      </trkpt>
      <trkpt lat="48.61206" lon="2.08504">
        <ele>142</ele>
        <time>2013-08-18T11:52:44Z</time>
      </trkpt>
      <trkpt lat="48.61209" lon="2.08508">
        <ele>142</ele>
        <time>2013-08-18T11:52:46Z</time>
      </trkpt>
      <trkpt lat="48.61212" lon="2.08512">
        <ele>142</ele>
        <time>2013-08-18T11:52:48Z</time>
      </trkpt>
      <trkpt lat="48.61214" lon="2.08515">
        <ele>142</ele>
        <time>2013-08-18T11:52:50Z</time>
      </trkpt>
      <trkpt lat="48.61216" lon="2.08519">
        <ele>142</ele>
        <time>2013-08-18T11:52:52Z</time>
      </trkpt>
      <trkpt lat="48.61218" lon="2.08523">
        <ele>142</ele>
        <time>2013-08-18T11:52:54Z</time>
      </trkpt>
      <trkpt lat="48.61221" lon="2.08526">
        <ele>142</ele>
        <time>2013-08-18T11:52:56Z</time>
      </trkpt>
      <trkpt lat="48.61224" lon="2.0853">
        <ele>142</ele>
        <time>2013-08-18T11:52:58Z</time>
      </trkpt>
      <trkpt lat="48.61227" lon="2.08536">
        <ele>142</ele>
        <time>2013-08-18T11:53:01Z</time>
      </trkpt>
      <trkpt lat="48.6123" lon="2.08539">
        <ele>142</ele>
        <time>2013-08-18T11:53:03Z</time>
      </trkpt>
      <trkpt lat="48.61233" lon="2.08542">
        <ele>142</ele>
        <time>2013-08-18T11:53:05Z</time>
      </trkpt>
      <trkpt lat="48.61238" lon="2.08546">
        <ele>142</ele>
        <time>2013-08-18T11:53:08Z</time>
      </trkpt>
      <trkpt lat="48.61241" lon="2.08551">
        <ele>142</ele>
        <time>2013-08-18T11:53:11Z</time>
      </trkpt>
      <trkpt lat="48.61243" lon="2.08554">
        <ele>142</ele>
        <time>2013-08-18T11:53:13Z</time>
      </trkpt>
      <trkpt lat="48.61245" lon="2.08556">
        <ele>142</ele>
        <time>2013-08-18T11:53:15Z</time>
      </trkpt>
      <trkpt lat="48.61246" lon="2.08556">
        <ele>142</ele>
        <time>2013-08-18T11:53:17Z</time>
      </trkpt>
      <trkpt lat="48.61248" lon="2.08558">
        <ele>142</ele>
        <time>2013-08-18T11:53:19Z</time>
      </trkpt>
      <trkpt lat="48.61253" lon="2.08561">
        <ele>142</ele>
        <time>2013-08-18T11:53:21Z</time>
      </trkpt>
      <trkpt lat="48.61257" lon="2.08563">
        <ele>142</ele>
        <time>2013-08-18T11:53:23Z</time>
      </trkpt>
      <trkpt lat="48.61261" lon="2.08565">
        <ele>142</ele>
        <time>2013-08-18T11:53:25Z</time>
      </trkpt>
      <trkpt lat="48.61265" lon="2.08567">
        <ele>142</ele>
        <time>2013-08-18T11:53:27Z</time>
      </trkpt>
      <trkpt lat="48.61269" lon="2.0857">
        <ele>142</ele>
        <time>2013-08-18T11:53:30Z</time>
      </trkpt>
      <trkpt lat="48.6127" lon="2.08572">
        <ele>142</ele>
        <time>2013-08-18T11:53:33Z</time>
      </trkpt>
      <trkpt lat="48.61274" lon="2.08573">
        <ele>142</ele>
        <time>2013-08-18T11:53:36Z</time>
      </trkpt>
      <trkpt lat="48.61277" lon="2.08575">
        <ele>142</ele>
        <time>2013-08-18T11:53:38Z</time>
      </trkpt>
      <trkpt lat="48.61279" lon="2.08577">
        <ele>142</ele>
        <time>2013-08-18T11:53:40Z</time>
      </trkpt>
      <trkpt lat="48.61282" lon="2.08579">
        <ele>143</ele>
        <time>2013-08-18T11:53:42Z</time>
      </trkpt>
      <trkpt lat="48.61286" lon="2.0858">
        <ele>143</ele>
        <time>2013-08-18T11:53:44Z</time>
      </trkpt>
      <trkpt lat="48.6129" lon="2.08581">
        <ele>144</ele>
        <time>2013-08-18T11:53:46Z</time>
      </trkpt>
      <trkpt lat="48.61293" lon="2.08584">
        <ele>145</ele>
        <time>2013-08-18T11:53:49Z</time>
      </trkpt>
      <trkpt lat="48.61296" lon="2.08587">
        <ele>145</ele>
        <time>2013-08-18T11:53:51Z</time>
      </trkpt>
      <trkpt lat="48.61299" lon="2.08589">
        <ele>145</ele>
        <time>2013-08-18T11:53:53Z</time>
      </trkpt>
      <trkpt lat="48.61302" lon="2.08591">
        <ele>145</ele>
        <time>2013-08-18T11:53:55Z</time>
      </trkpt>
      <trkpt lat="48.61307" lon="2.08594">
        <ele>145</ele>
        <time>2013-08-18T11:53:57Z</time>
      </trkpt>
      <trkpt lat="48.61311" lon="2.08597">
        <ele>145</ele>
        <time>2013-08-18T11:53:59Z</time>
      </trkpt>
      <trkpt lat="48.61314" lon="2.086">
        <ele>145</ele>
        <time>2013-08-18T11:54:02Z</time>
      </trkpt>
      <trkpt lat="48.61316" lon="2.08602">
        <ele>145</ele>
        <time>2013-08-18T11:54:04Z</time>
      </trkpt>
      <trkpt lat="48.61318" lon="2.08604">
        <ele>145</ele>
        <time>2013-08-18T11:54:06Z</time>
      </trkpt>
      <trkpt lat="48.61321" lon="2.08606">
        <ele>145</ele>
        <time>2013-08-18T11:54:08Z</time>
      </trkpt>
      <trkpt lat="48.61324" lon="2.08609">
        <ele>145</ele>
        <time>2013-08-18T11:54:11Z</time>
      </trkpt>
      <trkpt lat="48.61327" lon="2.0861">
        <ele>145</ele>
        <time>2013-08-18T11:54:13Z</time>
      </trkpt>
      <trkpt lat="48.6133" lon="2.08611">
        <ele>145</ele>
        <time>2013-08-18T11:54:15Z</time>
      </trkpt>
      <trkpt lat="48.61332" lon="2.08612">
        <ele>144</ele>
        <time>2013-08-18T11:54:17Z</time>
      </trkpt>
      <trkpt lat="48.61336" lon="2.08613">
        <ele>144</ele>
        <time>2013-08-18T11:54:19Z</time>
      </trkpt>
      <trkpt lat="48.6134" lon="2.08615">
        <ele>144</ele>
        <time>2013-08-18T11:54:21Z</time>
      </trkpt>
      <trkpt lat="48.61344" lon="2.08617">
        <ele>144</ele>
        <time>2013-08-18T11:54:23Z</time>
      </trkpt>
      <trkpt lat="48.61347" lon="2.08617">
        <ele>144</ele>
        <time>2013-08-18T11:54:25Z</time>
      </trkpt>
      <trkpt lat="48.6135" lon="2.08618">
        <ele>144</ele>
        <time>2013-08-18T11:54:27Z</time>
      </trkpt>
      <trkpt lat="48.61353" lon="2.0862">
        <ele>144</ele>
        <time>2013-08-18T11:54:29Z</time>
      </trkpt>
      <trkpt lat="48.61355" lon="2.08621">
        <ele>144</ele>
        <time>2013-08-18T11:54:31Z</time>
      </trkpt>
      <trkpt lat="48.61357" lon="2.08623">
        <ele>144</ele>
        <time>2013-08-18T11:54:33Z</time>
      </trkpt>
      <trkpt lat="48.6136" lon="2.08624">
        <ele>144</ele>
        <time>2013-08-18T11:54:35Z</time>
      </trkpt>
      <trkpt lat="48.61363" lon="2.08625">
        <ele>144</ele>
        <time>2013-08-18T11:54:37Z</time>
      </trkpt>
      <trkpt lat="48.61365" lon="2.08627">
        <ele>144</ele>
        <time>2013-08-18T11:54:39Z</time>
      </trkpt>
      <trkpt lat="48.61368" lon="2.08628">
        <ele>144</ele>
        <time>2013-08-18T11:54:41Z</time>
      </trkpt>
      <trkpt lat="48.6137" lon="2.08629">
        <ele>143</ele>
        <time>2013-08-18T11:54:43Z</time>
      </trkpt>
      <trkpt lat="48.61373" lon="2.0863">
        <ele>142</ele>
        <time>2013-08-18T11:54:45Z</time>
      </trkpt>
      <trkpt lat="48.61375" lon="2.0863">
        <ele>142</ele>
        <time>2013-08-18T11:54:47Z</time>
      </trkpt>
      <trkpt lat="48.61378" lon="2.08631">
        <ele>141</ele>
        <time>2013-08-18T11:54:49Z</time>
      </trkpt>
      <trkpt lat="48.61381" lon="2.08632">
        <ele>141</ele>
        <time>2013-08-18T11:54:51Z</time>
      </trkpt>
      <trkpt lat="48.61385" lon="2.08631">
        <ele>140</ele>
        <time>2013-08-18T11:54:53Z</time>
      </trkpt>
      <trkpt lat="48.61388" lon="2.08631">
        <ele>140</ele>
        <time>2013-08-18T11:54:55Z</time>
      </trkpt>
      <trkpt lat="48.61391" lon="2.08632">
        <ele>140</ele>
        <time>2013-08-18T11:54:57Z</time>
      </trkpt>
      <trkpt lat="48.61395" lon="2.08634">
        <ele>140</ele>
        <time>2013-08-18T11:54:59Z</time>
      </trkpt>
      <trkpt lat="48.61398" lon="2.08639">
        <ele>139</ele>
        <time>2013-08-18T11:55:02Z</time>
      </trkpt>
      <trkpt lat="48.61399" lon="2.08641">
        <ele>138</ele>
        <time>2013-08-18T11:55:04Z</time>
      </trkpt>
      <trkpt lat="48.61399" lon="2.08642">
        <ele>138</ele>
        <time>2013-08-18T11:55:07Z</time>
      </trkpt>
      <trkpt lat="48.61399" lon="2.08644">
        <ele>138</ele>
        <time>2013-08-18T11:55:09Z</time>
      </trkpt>
      <trkpt lat="48.61401" lon="2.08648">
        <ele>138</ele>
        <time>2013-08-18T11:55:12Z</time>
      </trkpt>
      <trkpt lat="48.61401" lon="2.08651">
        <ele>138</ele>
        <time>2013-08-18T11:55:14Z</time>
      </trkpt>
      <trkpt lat="48.61401" lon="2.08653">
        <ele>138</ele>
        <time>2013-08-18T11:55:16Z</time>
      </trkpt>
      <trkpt lat="48.614" lon="2.08655">
        <ele>138</ele>
        <time>2013-08-18T11:55:18Z</time>
      </trkpt>
      <trkpt lat="48.614" lon="2.08657">
        <ele>138</ele>
        <time>2013-08-18T11:55:20Z</time>
      </trkpt>
      <trkpt lat="48.61401" lon="2.08659">
        <ele>138</ele>
        <time>2013-08-18T11:55:23Z</time>
      </trkpt>
      <trkpt lat="48.614" lon="2.08661">
        <ele>138</ele>
        <time>2013-08-18T11:55:25Z</time>
      </trkpt>
      <trkpt lat="48.61398" lon="2.08662">
        <ele>138</ele>
        <time>2013-08-18T11:55:27Z</time>
      </trkpt>
      <trkpt lat="48.61396" lon="2.08665">
        <ele>138</ele>
        <time>2013-08-18T11:55:29Z</time>
      </trkpt>
      <trkpt lat="48.61395" lon="2.08669">
        <ele>138</ele>
        <time>2013-08-18T11:55:31Z</time>
      </trkpt>
      <trkpt lat="48.61394" lon="2.08674">
        <ele>138</ele>
        <time>2013-08-18T11:55:34Z</time>
      </trkpt>
      <trkpt lat="48.61394" lon="2.08676">
        <ele>138</ele>
        <time>2013-08-18T11:55:36Z</time>
      </trkpt>
      <trkpt lat="48.61395" lon="2.08678">
        <ele>138</ele>
        <time>2013-08-18T11:55:38Z</time>
      </trkpt>
      <trkpt lat="48.61394" lon="2.08681">
        <ele>138</ele>
        <time>2013-08-18T11:55:41Z</time>
      </trkpt>
      <trkpt lat="48.61391" lon="2.08682">
        <ele>138</ele>
        <time>2013-08-18T11:55:43Z</time>
      </trkpt>
      <trkpt lat="48.61389" lon="2.08684">
        <ele>138</ele>
        <time>2013-08-18T11:55:45Z</time>
      </trkpt>
      <trkpt lat="48.61388" lon="2.08687">
        <ele>138</ele>
        <time>2013-08-18T11:55:47Z</time>
      </trkpt>
      <trkpt lat="48.61387" lon="2.0869">
        <ele>138</ele>
        <time>2013-08-18T11:55:49Z</time>
      </trkpt>
      <trkpt lat="48.61385" lon="2.08694">
        <ele>138</ele>
        <time>2013-08-18T11:55:51Z</time>
      </trkpt>
      <trkpt lat="48.61384" lon="2.08699">
        <ele>138</ele>
        <time>2013-08-18T11:55:53Z</time>
      </trkpt>
      <trkpt lat="48.61381" lon="2.08703">
        <ele>138</ele>
        <time>2013-08-18T11:55:56Z</time>
      </trkpt>
      <trkpt lat="48.6138" lon="2.08707">
        <ele>138</ele>
        <time>2013-08-18T11:55:58Z</time>
      </trkpt>
      <trkpt lat="48.61379" lon="2.08712">
        <ele>138</ele>
        <time>2013-08-18T11:56:00Z</time>
      </trkpt>
      <trkpt lat="48.61377" lon="2.08715">
        <ele>138</ele>
        <time>2013-08-18T11:56:02Z</time>
      </trkpt>
      <trkpt lat="48.61376" lon="2.08719">
        <ele>139</ele>
        <time>2013-08-18T11:56:04Z</time>
      </trkpt>
      <trkpt lat="48.61375" lon="2.08723">
        <ele>139</ele>
        <time>2013-08-18T11:56:06Z</time>
      </trkpt>
      <trkpt lat="48.61374" lon="2.08728">
        <ele>139</ele>
        <time>2013-08-18T11:56:08Z</time>
      </trkpt>
      <trkpt lat="48.61373" lon="2.08732">
        <ele>139</ele>
        <time>2013-08-18T11:56:10Z</time>
      </trkpt>
      <trkpt lat="48.61372" lon="2.08735">
        <ele>139</ele>
        <time>2013-08-18T11:56:12Z</time>
      </trkpt>
      <trkpt lat="48.6137" lon="2.08739">
        <ele>139</ele>
        <time>2013-08-18T11:56:14Z</time>
      </trkpt>
      <trkpt lat="48.61369" lon="2.08743">
        <ele>139</ele>
        <time>2013-08-18T11:56:16Z</time>
      </trkpt>
      <trkpt lat="48.61368" lon="2.08748">
        <ele>139</ele>
        <time>2013-08-18T11:56:18Z</time>
      </trkpt>
      <trkpt lat="48.61367" lon="2.08752">
        <ele>139</ele>
        <time>2013-08-18T11:56:20Z</time>
      </trkpt>
      <trkpt lat="48.61366" lon="2.08757">
        <ele>139</ele>
        <time>2013-08-18T11:56:22Z</time>
      </trkpt>
      <trkpt lat="48.61364" lon="2.08761">
        <ele>139</ele>
        <time>2013-08-18T11:56:24Z</time>
      </trkpt>
      <trkpt lat="48.61364" lon="2.08766">
        <ele>139</ele>
        <time>2013-08-18T11:56:26Z</time>
      </trkpt>
      <trkpt lat="48.61362" lon="2.08771">
        <ele>139</ele>
        <time>2013-08-18T11:56:28Z</time>
      </trkpt>
      <trkpt lat="48.61361" lon="2.08775">
        <ele>139</ele>
        <time>2013-08-18T11:56:30Z</time>
      </trkpt>
      <trkpt lat="48.6136" lon="2.0878">
        <ele>139</ele>
        <time>2013-08-18T11:56:32Z</time>
      </trkpt>
      <trkpt lat="48.61359" lon="2.08785">
        <ele>139</ele>
        <time>2013-08-18T11:56:34Z</time>
      </trkpt>
      <trkpt lat="48.61358" lon="2.0879">
        <ele>139</ele>
        <time>2013-08-18T11:56:36Z</time>
      </trkpt>
      <trkpt lat="48.61357" lon="2.08795">
        <ele>139</ele>
        <time>2013-08-18T11:56:38Z</time>
      </trkpt>
      <trkpt lat="48.61357" lon="2.088">
        <ele>139</ele>
        <time>2013-08-18T11:56:40Z</time>
      </trkpt>
      <trkpt lat="48.61358" lon="2.08805">
        <ele>139</ele>
        <time>2013-08-18T11:56:42Z</time>
      </trkpt>
      <trkpt lat="48.61358" lon="2.0881">
        <ele>139</ele>
        <time>2013-08-18T11:56:44Z</time>
      </trkpt>
      <trkpt lat="48.61358" lon="2.08816">
        <ele>139</ele>
        <time>2013-08-18T11:56:46Z</time>
      </trkpt>
      <trkpt lat="48.61359" lon="2.08821">
        <ele>139</ele>
        <time>2013-08-18T11:56:48Z</time>
      </trkpt>
      <trkpt lat="48.61359" lon="2.08826">
        <ele>139</ele>
        <time>2013-08-18T11:56:50Z</time>
      </trkpt>
      <trkpt lat="48.6136" lon="2.08831">
        <ele>139</ele>
        <time>2013-08-18T11:56:52Z</time>
      </trkpt>
      <trkpt lat="48.61361" lon="2.08836">
        <ele>139</ele>
        <time>2013-08-18T11:56:54Z</time>
      </trkpt>
      <trkpt lat="48.61361" lon="2.08841">
        <ele>138</ele>
        <time>2013-08-18T11:56:56Z</time>
      </trkpt>
      <trkpt lat="48.61362" lon="2.08846">
        <ele>138</ele>
        <time>2013-08-18T11:56:58Z</time>
      </trkpt>
      <trkpt lat="48.61363" lon="2.08852">
        <ele>138</ele>
        <time>2013-08-18T11:57:00Z</time>
      </trkpt>
      <trkpt lat="48.61364" lon="2.08857">
        <ele>138</ele>
        <time>2013-08-18T11:57:02Z</time>
      </trkpt>
      <trkpt lat="48.61364" lon="2.08862">
        <ele>138</ele>
        <time>2013-08-18T11:57:04Z</time>
      </trkpt>
      <trkpt lat="48.61365" lon="2.08867">
        <ele>137</ele>
        <time>2013-08-18T11:57:06Z</time>
      </trkpt>
      <trkpt lat="48.61366" lon="2.08873">
        <ele>137</ele>
        <time>2013-08-18T11:57:08Z</time>
      </trkpt>
      <trkpt lat="48.61367" lon="2.08878">
        <ele>137</ele>
        <time>2013-08-18T11:57:10Z</time>
      </trkpt>
      <trkpt lat="48.61368" lon="2.08884">
        <ele>137</ele>
        <time>2013-08-18T11:57:12Z</time>
      </trkpt>
      <trkpt lat="48.61368" lon="2.08889">
        <ele>137</ele>
        <time>2013-08-18T11:57:14Z</time>
      </trkpt>
      <trkpt lat="48.61369" lon="2.08894">
        <ele>137</ele>
        <time>2013-08-18T11:57:16Z</time>
      </trkpt>
      <trkpt lat="48.6137" lon="2.08899">
        <ele>137</ele>
        <time>2013-08-18T11:57:18Z</time>
      </trkpt>
      <trkpt lat="48.61372" lon="2.08904">
        <ele>137</ele>
        <time>2013-08-18T11:57:20Z</time>
      </trkpt>
      <trkpt lat="48.61372" lon="2.08909">
        <ele>136</ele>
        <time>2013-08-18T11:57:22Z</time>
      </trkpt>
      <trkpt lat="48.61373" lon="2.08914">
        <ele>136</ele>
        <time>2013-08-18T11:57:24Z</time>
      </trkpt>
      <trkpt lat="48.61374" lon="2.08919">
        <ele>136</ele>
        <time>2013-08-18T11:57:26Z</time>
      </trkpt>
      <trkpt lat="48.61374" lon="2.08925">
        <ele>136</ele>
        <time>2013-08-18T11:57:28Z</time>
      </trkpt>
      <trkpt lat="48.61375" lon="2.0893">
        <ele>136</ele>
        <time>2013-08-18T11:57:30Z</time>
      </trkpt>
      <trkpt lat="48.61375" lon="2.08935">
        <ele>135</ele>
        <time>2013-08-18T11:57:32Z</time>
      </trkpt>
      <trkpt lat="48.61374" lon="2.0894">
        <ele>135</ele>
        <time>2013-08-18T11:57:34Z</time>
      </trkpt>
      <trkpt lat="48.61374" lon="2.08945">
        <ele>135</ele>
        <time>2013-08-18T11:57:36Z</time>
      </trkpt>
      <trkpt lat="48.61373" lon="2.08949">
        <ele>135</ele>
        <time>2013-08-18T11:57:38Z</time>
      </trkpt>
      <trkpt lat="48.61371" lon="2.08954">
        <ele>135</ele>
        <time>2013-08-18T11:57:40Z</time>
      </trkpt>
      <trkpt lat="48.61369" lon="2.08959">
        <ele>135</ele>
        <time>2013-08-18T11:57:42Z</time>
      </trkpt>
      <trkpt lat="48.61367" lon="2.08962">
        <ele>135</ele>
        <time>2013-08-18T11:57:44Z</time>
      </trkpt>
      <trkpt lat="48.61365" lon="2.08966">
        <ele>135</ele>
        <time>2013-08-18T11:57:46Z</time>
      </trkpt>
      <trkpt lat="48.61363" lon="2.0897">
        <ele>135</ele>
        <time>2013-08-18T11:57:48Z</time>
      </trkpt>
      <trkpt lat="48.61361" lon="2.08974">
        <ele>135</ele>
        <time>2013-08-18T11:57:50Z</time>
      </trkpt>
      <trkpt lat="48.61358" lon="2.08978">
        <ele>135</ele>
        <time>2013-08-18T11:57:52Z</time>
      </trkpt>
      <trkpt lat="48.61356" lon="2.08982">
        <ele>134</ele>
        <time>2013-08-18T11:57:54Z</time>
      </trkpt>
      <trkpt lat="48.61355" lon="2.08987">
        <ele>134</ele>
        <time>2013-08-18T11:57:56Z</time>
      </trkpt>
      <trkpt lat="48.61354" lon="2.08993">
        <ele>134</ele>
        <time>2013-08-18T11:57:58Z</time>
      </trkpt>
      <trkpt lat="48.61352" lon="2.09003">
        <ele>134</ele>
        <time>2013-08-18T11:58:00Z</time>
      </trkpt>
      <trkpt lat="48.61351" lon="2.09014">
        <ele>134</ele>
        <time>2013-08-18T11:58:02Z</time>
      </trkpt>
      <trkpt lat="48.61351" lon="2.09026">
        <ele>134</ele>
        <time>2013-08-18T11:58:04Z</time>
      </trkpt>
      <trkpt lat="48.61352" lon="2.09038">
        <ele>134</ele>
        <time>2013-08-18T11:58:06Z</time>
      </trkpt>
      <trkpt lat="48.61353" lon="2.0905">
        <ele>134</ele>
        <time>2013-08-18T11:58:08Z</time>
      </trkpt>
      <trkpt lat="48.61354" lon="2.09063">
        <ele>134</ele>
        <time>2013-08-18T11:58:10Z</time>
      </trkpt>
      <trkpt lat="48.61356" lon="2.09076">
        <ele>133</ele>
        <time>2013-08-18T11:58:12Z</time>
      </trkpt>
      <trkpt lat="48.61357" lon="2.09088">
        <ele>132</ele>
        <time>2013-08-18T11:58:14Z</time>
      </trkpt>
      <trkpt lat="48.61359" lon="2.091">
        <ele>132</ele>
        <time>2013-08-18T11:58:16Z</time>
      </trkpt>
      <trkpt lat="48.61361" lon="2.09111">
        <ele>132</ele>
        <time>2013-08-18T11:58:18Z</time>
      </trkpt>
      <trkpt lat="48.61361" lon="2.0912">
        <ele>132</ele>
        <time>2013-08-18T11:58:20Z</time>
      </trkpt>
      <trkpt lat="48.61362" lon="2.09126">
        <ele>132</ele>
        <time>2013-08-18T11:58:22Z</time>
      </trkpt>
      <trkpt lat="48.61363" lon="2.09131">
        <ele>132</ele>
        <time>2013-08-18T11:58:24Z</time>
      </trkpt>
      <trkpt lat="48.61363" lon="2.09136">
        <ele>132</ele>
        <time>2013-08-18T11:58:26Z</time>
      </trkpt>
      <trkpt lat="48.61363" lon="2.09141">
        <ele>132</ele>
        <time>2013-08-18T11:58:28Z</time>
      </trkpt>
      <trkpt lat="48.61364" lon="2.09146">
        <ele>132</ele>
        <time>2013-08-18T11:58:30Z</time>
      </trkpt>
      <trkpt lat="48.61365" lon="2.09151">
        <ele>131</ele>
        <time>2013-08-18T11:58:32Z</time>
      </trkpt>
      <trkpt lat="48.61365" lon="2.09157">
        <ele>131</ele>
        <time>2013-08-18T11:58:34Z</time>
      </trkpt>
      <trkpt lat="48.61365" lon="2.09162">
        <ele>131</ele>
        <time>2013-08-18T11:58:36Z</time>
      </trkpt>
      <trkpt lat="48.61366" lon="2.09167">
        <ele>131</ele>
        <time>2013-08-18T11:58:38Z</time>
      </trkpt>
      <trkpt lat="48.61366" lon="2.09172">
        <ele>131</ele>
        <time>2013-08-18T11:58:40Z</time>
      </trkpt>
      <trkpt lat="48.61367" lon="2.09176">
        <ele>131</ele>
        <time>2013-08-18T11:58:42Z</time>
      </trkpt>
      <trkpt lat="48.61368" lon="2.09181">
        <ele>131</ele>
        <time>2013-08-18T11:58:44Z</time>
      </trkpt>
      <trkpt lat="48.61369" lon="2.09186">
        <ele>130</ele>
        <time>2013-08-18T11:58:46Z</time>
      </trkpt>
      <trkpt lat="48.61369" lon="2.09191">
        <ele>130</ele>
        <time>2013-08-18T11:58:48Z</time>
      </trkpt>
      <trkpt lat="48.6137" lon="2.09195">
        <ele>130</ele>
        <time>2013-08-18T11:58:50Z</time>
      </trkpt>
      <trkpt lat="48.61372" lon="2.09199">
        <ele>130</ele>
        <time>2013-08-18T11:58:52Z</time>
      </trkpt>
      <trkpt lat="48.61375" lon="2.09203">
        <ele>130</ele>
        <time>2013-08-18T11:58:54Z</time>
      </trkpt>
      <trkpt lat="48.61377" lon="2.09207">
        <ele>130</ele>
        <time>2013-08-18T11:58:56Z</time>
      </trkpt>
      <trkpt lat="48.6138" lon="2.09209">
        <ele>130</ele>
        <time>2013-08-18T11:58:58Z</time>
      </trkpt>
      <trkpt lat="48.61383" lon="2.0921">
        <ele>130</ele>
        <time>2013-08-18T11:59:00Z</time>
      </trkpt>
      <trkpt lat="48.61386" lon="2.09208">
        <ele>130</ele>
        <time>2013-08-18T11:59:02Z</time>
      </trkpt>
      <trkpt lat="48.6139" lon="2.09206">
        <ele>130</ele>
        <time>2013-08-18T11:59:04Z</time>
      </trkpt>
      <trkpt lat="48.61393" lon="2.09204">
        <ele>130</ele>
        <time>2013-08-18T11:59:06Z</time>
      </trkpt>
      <trkpt lat="48.61396" lon="2.09202">
        <ele>130</ele>
        <time>2013-08-18T11:59:08Z</time>
      </trkpt>
      <trkpt lat="48.614" lon="2.092">
        <ele>130</ele>
        <time>2013-08-18T11:59:10Z</time>
      </trkpt>
      <trkpt lat="48.61403" lon="2.09198">
        <ele>130</ele>
        <time>2013-08-18T11:59:12Z</time>
      </trkpt>
      <trkpt lat="48.61406" lon="2.09197">
        <ele>130</ele>
        <time>2013-08-18T11:59:14Z</time>
      </trkpt>
      <trkpt lat="48.6141" lon="2.09195">
        <ele>130</ele>
        <time>2013-08-18T11:59:16Z</time>
      </trkpt>
      <trkpt lat="48.61413" lon="2.09194">
        <ele>130</ele>
        <time>2013-08-18T11:59:18Z</time>
      </trkpt>
      <trkpt lat="48.61416" lon="2.09194">
        <ele>130</ele>
        <time>2013-08-18T11:59:20Z</time>
      </trkpt>
      <trkpt lat="48.61419" lon="2.09193">
        <ele>130</ele>
        <time>2013-08-18T11:59:22Z</time>
      </trkpt>
      <trkpt lat="48.61423" lon="2.09192">
        <ele>130</ele>
        <time>2013-08-18T11:59:24Z</time>
      </trkpt>
      <trkpt lat="48.61426" lon="2.09192">
        <ele>130</ele>
        <time>2013-08-18T11:59:26Z</time>
      </trkpt>
      <trkpt lat="48.6143" lon="2.09191">
        <ele>130</ele>
        <time>2013-08-18T11:59:28Z</time>
      </trkpt>
      <trkpt lat="48.61433" lon="2.09191">
        <ele>130</ele>
        <time>2013-08-18T11:59:30Z</time>
      </trkpt>
      <trkpt lat="48.61436" lon="2.09191">
        <ele>130</ele>
        <time>2013-08-18T11:59:32Z</time>
      </trkpt>
      <trkpt lat="48.6144" lon="2.09192">
        <ele>130</ele>
        <time>2013-08-18T11:59:34Z</time>
      </trkpt>
      <trkpt lat="48.61443" lon="2.09192">
        <ele>130</ele>
        <time>2013-08-18T11:59:36Z</time>
      </trkpt>
      <trkpt lat="48.61446" lon="2.09193">
        <ele>130</ele>
        <time>2013-08-18T11:59:38Z</time>
      </trkpt>
      <trkpt lat="48.6145" lon="2.09193">
        <ele>130</ele>
        <time>2013-08-18T11:59:40Z</time>
      </trkpt>
      <trkpt lat="48.61453" lon="2.09193">
        <ele>130</ele>
        <time>2013-08-18T11:59:42Z</time>
      </trkpt>
      <trkpt lat="48.61456" lon="2.09194">
        <ele>130</ele>
        <time>2013-08-18T11:59:44Z</time>
      </trkpt>
      <trkpt lat="48.61459" lon="2.09197">
        <ele>130</ele>
        <time>2013-08-18T11:59:46Z</time>
      </trkpt>
      <trkpt lat="48.61462" lon="2.09201">
        <ele>130</ele>
        <time>2013-08-18T11:59:48Z</time>
      </trkpt>
      <trkpt lat="48.61463" lon="2.09206">
        <ele>130</ele>
        <time>2013-08-18T11:59:50Z</time>
      </trkpt>
      <trkpt lat="48.61464" lon="2.09211">
        <ele>130</ele>
        <time>2013-08-18T11:59:52Z</time>
      </trkpt>
      <trkpt lat="48.61465" lon="2.09216">
        <ele>130</ele>
        <time>2013-08-18T11:59:54Z</time>
      </trkpt>
      <trkpt lat="48.61466" lon="2.09221">
        <ele>130</ele>
        <time>2013-08-18T11:59:56Z</time>
      </trkpt>
      <trkpt lat="48.61467" lon="2.09226">
        <ele>130</ele>
        <time>2013-08-18T11:59:58Z</time>
      </trkpt>
      <trkpt lat="48.61467" lon="2.09231">
        <ele>130</ele>
        <time>2013-08-18T12:00:00Z</time>
      </trkpt>
      <trkpt lat="48.61469" lon="2.09236">
        <ele>130</ele>
        <time>2013-08-18T12:00:02Z</time>
      </trkpt>
      <trkpt lat="48.6147" lon="2.09242">
        <ele>130</ele>
        <time>2013-08-18T12:00:04Z</time>
      </trkpt>
      <trkpt lat="48.6147" lon="2.09247">
        <ele>130</ele>
        <time>2013-08-18T12:00:06Z</time>
      </trkpt>
      <trkpt lat="48.61472" lon="2.09252">
        <ele>130</ele>
        <time>2013-08-18T12:00:08Z</time>
      </trkpt>
      <trkpt lat="48.61473" lon="2.09257">
        <ele>130</ele>
        <time>2013-08-18T12:00:10Z</time>
      </trkpt>
      <trkpt lat="48.61474" lon="2.09262">
        <ele>130</ele>
        <time>2013-08-18T12:00:12Z</time>
      </trkpt>
      <trkpt lat="48.61475" lon="2.09268">
        <ele>130</ele>
        <time>2013-08-18T12:00:14Z</time>
      </trkpt>
      <trkpt lat="48.61476" lon="2.09273">
        <ele>130</ele>
        <time>2013-08-18T12:00:16Z</time>
      </trkpt>
      <trkpt lat="48.61477" lon="2.09278">
        <ele>130</ele>
        <time>2013-08-18T12:00:18Z</time>
      </trkpt>
      <trkpt lat="48.61478" lon="2.09283">
        <ele>130</ele>
        <time>2013-08-18T12:00:20Z</time>
      </trkpt>
      <trkpt lat="48.61479" lon="2.09289">
        <ele>130</ele>
        <time>2013-08-18T12:00:22Z</time>
      </trkpt>
      <trkpt lat="48.6148" lon="2.09294">
        <ele>130</ele>
        <time>2013-08-18T12:00:24Z</time>
      </trkpt>
      <trkpt lat="48.61481" lon="2.09298">
        <ele>130</ele>
        <time>2013-08-18T12:00:26Z</time>
      </trkpt>
      <trkpt lat="48.61482" lon="2.09303">
        <ele>130</ele>
        <time>2013-08-18T12:00:28Z</time>
      </trkpt>
      <trkpt lat="48.61483" lon="2.09309">
        <ele>130</ele>
        <time>2013-08-18T12:00:30Z</time>
      </trkpt>
      <trkpt lat="48.61484" lon="2.09314">
        <ele>130</ele>
        <time>2013-08-18T12:00:32Z</time>
      </trkpt>
      <trkpt lat="48.61486" lon="2.09319">
        <ele>130</ele>
        <time>2013-08-18T12:00:34Z</time>
      </trkpt>
      <trkpt lat="48.61487" lon="2.09325">
        <ele>130</ele>
        <time>2013-08-18T12:00:36Z</time>
      </trkpt>
      <trkpt lat="48.61488" lon="2.09329">
        <ele>130</ele>
        <time>2013-08-18T12:00:38Z</time>
      </trkpt>
      <trkpt lat="48.61489" lon="2.09334">
        <ele>130</ele>
        <time>2013-08-18T12:00:40Z</time>
      </trkpt>
      <trkpt lat="48.6149" lon="2.0934">
        <ele>130</ele>
        <time>2013-08-18T12:00:42Z</time>
      </trkpt>
      <trkpt lat="48.61491" lon="2.09345">
        <ele>130</ele>
        <time>2013-08-18T12:00:44Z</time>
      </trkpt>
      <trkpt lat="48.61493" lon="2.09349">
        <ele>130</ele>
        <time>2013-08-18T12:00:46Z</time>
      </trkpt>
      <trkpt lat="48.61494" lon="2.09354">
        <ele>130</ele>
        <time>2013-08-18T12:00:48Z</time>
      </trkpt>
      <trkpt lat="48.61495" lon="2.09359">
        <ele>130</ele>
        <time>2013-08-18T12:00:50Z</time>
      </trkpt>
      <trkpt lat="48.61496" lon="2.09364">
        <ele>130</ele>
        <time>2013-08-18T12:00:52Z</time>
      </trkpt>
      <trkpt lat="48.61498" lon="2.09369">
        <ele>130</ele>
        <time>2013-08-18T12:00:54Z</time>
      </trkpt>
      <trkpt lat="48.61499" lon="2.09374">
        <ele>130</ele>
        <time>2013-08-18T12:00:56Z</time>
      </trkpt>
      <trkpt lat="48.615" lon="2.09379">
        <ele>130</ele>
        <time>2013-08-18T12:00:58Z</time>
      </trkpt>
      <trkpt lat="48.61501" lon="2.09384">
        <ele>130</ele>
        <time>2013-08-18T12:01:00Z</time>
      </trkpt>
      <trkpt lat="48.61502" lon="2.09389">
        <ele>130</ele>
        <time>2013-08-18T12:01:02Z</time>
      </trkpt>
      <trkpt lat="48.61503" lon="2.09394">
        <ele>129</ele>
        <time>2013-08-18T12:01:04Z</time>
      </trkpt>
      <trkpt lat="48.61504" lon="2.09399">
        <ele>129</ele>
        <time>2013-08-18T12:01:06Z</time>
      </trkpt>
      <trkpt lat="48.61504" lon="2.09404">
        <ele>129</ele>
        <time>2013-08-18T12:01:08Z</time>
      </trkpt>
      <trkpt lat="48.61506" lon="2.09409">
        <ele>129</ele>
        <time>2013-08-18T12:01:10Z</time>
      </trkpt>
      <trkpt lat="48.61507" lon="2.09414">
        <ele>128</ele>
        <time>2013-08-18T12:01:12Z</time>
      </trkpt>
      <trkpt lat="48.61508" lon="2.09419">
        <ele>128</ele>
        <time>2013-08-18T12:01:14Z</time>
      </trkpt>
      <trkpt lat="48.61509" lon="2.09424">
        <ele>128</ele>
        <time>2013-08-18T12:01:16Z</time>
      </trkpt>
      <trkpt lat="48.61509" lon="2.0943">
        <ele>128</ele>
        <time>2013-08-18T12:01:18Z</time>
      </trkpt>
      <trkpt lat="48.6151" lon="2.09435">
        <ele>128</ele>
        <time>2013-08-18T12:01:20Z</time>
      </trkpt>
      <trkpt lat="48.61512" lon="2.0944">
        <ele>128</ele>
        <time>2013-08-18T12:01:22Z</time>
      </trkpt>
      <trkpt lat="48.61513" lon="2.09445">
        <ele>127</ele>
        <time>2013-08-18T12:01:24Z</time>
      </trkpt>
      <trkpt lat="48.61514" lon="2.0945">
        <ele>127</ele>
        <time>2013-08-18T12:01:26Z</time>
      </trkpt>
      <trkpt lat="48.61515" lon="2.09455">
        <ele>127</ele>
        <time>2013-08-18T12:01:28Z</time>
      </trkpt>
      <trkpt lat="48.61516" lon="2.0946">
        <ele>126</ele>
        <time>2013-08-18T12:01:30Z</time>
      </trkpt>
      <trkpt lat="48.61517" lon="2.09465">
        <ele>126</ele>
        <time>2013-08-18T12:01:32Z</time>
      </trkpt>
      <trkpt lat="48.61518" lon="2.0947">
        <ele>126</ele>
        <time>2013-08-18T12:01:34Z</time>
      </trkpt>
      <trkpt lat="48.61519" lon="2.09475">
        <ele>126</ele>
        <time>2013-08-18T12:01:36Z</time>
      </trkpt>
      <trkpt lat="48.6152" lon="2.0948">
        <ele>126</ele>
        <time>2013-08-18T12:01:38Z</time>
      </trkpt>
      <trkpt lat="48.61521" lon="2.09485">
        <ele>126</ele>
        <time>2013-08-18T12:01:40Z</time>
      </trkpt>
      <trkpt lat="48.61522" lon="2.0949">
        <ele>126</ele>
        <time>2013-08-18T12:01:42Z</time>
      </trkpt>
      <trkpt lat="48.61523" lon="2.09495">
        <ele>126</ele>
        <time>2013-08-18T12:01:44Z</time>
      </trkpt>
      <trkpt lat="48.61525" lon="2.095">
        <ele>126</ele>
        <time>2013-08-18T12:01:46Z</time>
      </trkpt>
      <trkpt lat="48.61526" lon="2.09506">
        <ele>126</ele>
        <time>2013-08-18T12:01:48Z</time>
      </trkpt>
      <trkpt lat="48.61527" lon="2.0951">
        <ele>125</ele>
        <time>2013-08-18T12:01:50Z</time>
      </trkpt>
      <trkpt lat="48.61528" lon="2.09515">
        <ele>125</ele>
        <time>2013-08-18T12:01:52Z</time>
      </trkpt>
      <trkpt lat="48.6153" lon="2.09521">
        <ele>125</ele>
        <time>2013-08-18T12:01:54Z</time>
      </trkpt>
      <trkpt lat="48.61531" lon="2.09526">
        <ele>125</ele>
        <time>2013-08-18T12:01:56Z</time>
      </trkpt>
      <trkpt lat="48.61532" lon="2.0953">
        <ele>125</ele>
        <time>2013-08-18T12:01:58Z</time>
      </trkpt>
      <trkpt lat="48.61533" lon="2.09535">
        <ele>124</ele>
        <time>2013-08-18T12:02:00Z</time>
      </trkpt>
      <trkpt lat="48.61534" lon="2.09541">
        <ele>124</ele>
        <time>2013-08-18T12:02:02Z</time>
      </trkpt>
      <trkpt lat="48.61535" lon="2.09545">
        <ele>124</ele>
        <time>2013-08-18T12:02:04Z</time>
      </trkpt>
      <trkpt lat="48.61536" lon="2.09551">
        <ele>124</ele>
        <time>2013-08-18T12:02:06Z</time>
      </trkpt>
      <trkpt lat="48.61536" lon="2.09556">
        <ele>124</ele>
        <time>2013-08-18T12:02:08Z</time>
      </trkpt>
      <trkpt lat="48.61537" lon="2.09561">
        <ele>124</ele>
        <time>2013-08-18T12:02:10Z</time>
      </trkpt>
      <trkpt lat="48.61539" lon="2.09566">
        <ele>124</ele>
        <time>2013-08-18T12:02:12Z</time>
      </trkpt>
      <trkpt lat="48.6154" lon="2.09572">
        <ele>124</ele>
        <time>2013-08-18T12:02:14Z</time>
      </trkpt>
      <trkpt lat="48.61541" lon="2.09577">
        <ele>124</ele>
        <time>2013-08-18T12:02:16Z</time>
      </trkpt>
      <trkpt lat="48.61543" lon="2.09582">
        <ele>124</ele>
        <time>2013-08-18T12:02:18Z</time>
      </trkpt>
      <trkpt lat="48.61544" lon="2.09587">
        <ele>124</ele>
        <time>2013-08-18T12:02:20Z</time>
      </trkpt>
      <trkpt lat="48.61545" lon="2.09592">
        <ele>124</ele>
        <time>2013-08-18T12:02:22Z</time>
      </trkpt>
      <trkpt lat="48.61546" lon="2.09597">
        <ele>124</ele>
        <time>2013-08-18T12:02:24Z</time>
      </trkpt>
      <trkpt lat="48.61548" lon="2.09603">
        <ele>124</ele>
        <time>2013-08-18T12:02:26Z</time>
      </trkpt>
      <trkpt lat="48.61549" lon="2.09608">
        <ele>124</ele>
        <time>2013-08-18T12:02:28Z</time>
      </trkpt>
      <trkpt lat="48.6155" lon="2.09613">
        <ele>124</ele>
        <time>2013-08-18T12:02:30Z</time>
      </trkpt>
      <trkpt lat="48.61552" lon="2.09618">
        <ele>123</ele>
        <time>2013-08-18T12:02:32Z</time>
      </trkpt>
      <trkpt lat="48.61553" lon="2.09623">
        <ele>123</ele>
        <time>2013-08-18T12:02:34Z</time>
      </trkpt>
      <trkpt lat="48.61554" lon="2.09629">
        <ele>123</ele>
        <time>2013-08-18T12:02:36Z</time>
      </trkpt>
      <trkpt lat="48.61555" lon="2.09634">
        <ele>123</ele>
        <time>2013-08-18T12:02:38Z</time>
      </trkpt>
      <trkpt lat="48.61556" lon="2.09639">
        <ele>123</ele>
        <time>2013-08-18T12:02:40Z</time>
      </trkpt>
      <trkpt lat="48.61557" lon="2.09644">
        <ele>123</ele>
        <time>2013-08-18T12:02:42Z</time>
      </trkpt>
      <trkpt lat="48.61559" lon="2.09649">
        <ele>123</ele>
        <time>2013-08-18T12:02:44Z</time>
      </trkpt>
      <trkpt lat="48.6156" lon="2.09654">
        <ele>123</ele>
        <time>2013-08-18T12:02:46Z</time>
      </trkpt>
      <trkpt lat="48.61561" lon="2.0966">
        <ele>122</ele>
        <time>2013-08-18T12:02:48Z</time>
      </trkpt>
      <trkpt lat="48.61562" lon="2.09665">
        <ele>122</ele>
        <time>2013-08-18T12:02:50Z</time>
      </trkpt>
      <trkpt lat="48.61563" lon="2.0967">
        <ele>122</ele>
        <time>2013-08-18T12:02:52Z</time>
      </trkpt>
      <trkpt lat="48.61564" lon="2.09675">
        <ele>122</ele>
        <time>2013-08-18T12:02:54Z</time>
      </trkpt>
      <trkpt lat="48.61565" lon="2.09681">
        <ele>122</ele>
        <time>2013-08-18T12:02:56Z</time>
      </trkpt>
      <trkpt lat="48.61566" lon="2.09686">
        <ele>122</ele>
        <time>2013-08-18T12:02:58Z</time>
      </trkpt>
      <trkpt lat="48.61567" lon="2.09691">
        <ele>122</ele>
        <time>2013-08-18T12:03:00Z</time>
      </trkpt>
      <trkpt lat="48.61568" lon="2.09696">
        <ele>122</ele>
        <time>2013-08-18T12:03:02Z</time>
      </trkpt>
      <trkpt lat="48.61569" lon="2.09702">
        <ele>122</ele>
        <time>2013-08-18T12:03:04Z</time>
      </trkpt>
      <trkpt lat="48.6157" lon="2.09707">
        <ele>122</ele>
        <time>2013-08-18T12:03:06Z</time>
      </trkpt>
      <trkpt lat="48.6157" lon="2.09712">
        <ele>122</ele>
        <time>2013-08-18T12:03:08Z</time>
      </trkpt>
      <trkpt lat="48.61571" lon="2.09717">
        <ele>122</ele>
        <time>2013-08-18T12:03:10Z</time>
      </trkpt>
      <trkpt lat="48.61573" lon="2.09723">
        <ele>121</ele>
        <time>2013-08-18T12:03:12Z</time>
      </trkpt>
      <trkpt lat="48.61573" lon="2.09727">
        <ele>121</ele>
        <time>2013-08-18T12:03:14Z</time>
      </trkpt>
      <trkpt lat="48.61574" lon="2.09733">
        <ele>121</ele>
        <time>2013-08-18T12:03:16Z</time>
      </trkpt>
      <trkpt lat="48.61575" lon="2.09738">
        <ele>121</ele>
        <time>2013-08-18T12:03:18Z</time>
      </trkpt>
      <trkpt lat="48.61575" lon="2.09743">
        <ele>121</ele>
        <time>2013-08-18T12:03:20Z</time>
      </trkpt>
      <trkpt lat="48.61576" lon="2.09749">
        <ele>121</ele>
        <time>2013-08-18T12:03:22Z</time>
      </trkpt>
      <trkpt lat="48.61577" lon="2.09754">
        <ele>121</ele>
        <time>2013-08-18T12:03:24Z</time>
      </trkpt>
      <trkpt lat="48.61578" lon="2.09759">
        <ele>120</ele>
        <time>2013-08-18T12:03:26Z</time>
      </trkpt>
      <trkpt lat="48.61578" lon="2.09765">
        <ele>120</ele>
        <time>2013-08-18T12:03:28Z</time>
      </trkpt>
      <trkpt lat="48.61579" lon="2.0977">
        <ele>120</ele>
        <time>2013-08-18T12:03:30Z</time>
      </trkpt>
      <trkpt lat="48.61579" lon="2.09776">
        <ele>120</ele>
        <time>2013-08-18T12:03:32Z</time>
      </trkpt>
      <trkpt lat="48.6158" lon="2.09781">
        <ele>120</ele>
        <time>2013-08-18T12:03:34Z</time>
      </trkpt>
      <trkpt lat="48.6158" lon="2.09787">
        <ele>120</ele>
        <time>2013-08-18T12:03:36Z</time>
      </trkpt>
      <trkpt lat="48.61581" lon="2.09792">
        <ele>119</ele>
        <time>2013-08-18T12:03:38Z</time>
      </trkpt>
      <trkpt lat="48.61581" lon="2.09797">
        <ele>119</ele>
        <time>2013-08-18T12:03:40Z</time>
      </trkpt>
      <trkpt lat="48.61581" lon="2.09803">
        <ele>119</ele>
        <time>2013-08-18T12:03:42Z</time>
      </trkpt>
      <trkpt lat="48.61581" lon="2.09808">
        <ele>119</ele>
        <time>2013-08-18T12:03:44Z</time>
      </trkpt>
      <trkpt lat="48.61582" lon="2.09813">
        <ele>119</ele>
        <time>2013-08-18T12:03:46Z</time>
      </trkpt>
      <trkpt lat="48.61582" lon="2.09819">
        <ele>119</ele>
        <time>2013-08-18T12:03:48Z</time>
      </trkpt>
      <trkpt lat="48.61582" lon="2.09824">
        <ele>119</ele>
        <time>2013-08-18T12:03:50Z</time>
      </trkpt>
      <trkpt lat="48.61582" lon="2.09829">
        <ele>118</ele>
        <time>2013-08-18T12:03:52Z</time>
      </trkpt>
      <trkpt lat="48.61582" lon="2.09834">
        <ele>118</ele>
        <time>2013-08-18T12:03:54Z</time>
      </trkpt>
      <trkpt lat="48.61583" lon="2.0984">
        <ele>118</ele>
        <time>2013-08-18T12:03:56Z</time>
      </trkpt>
      <trkpt lat="48.61583" lon="2.09845">
        <ele>118</ele>
        <time>2013-08-18T12:03:58Z</time>
      </trkpt>
      <trkpt lat="48.61583" lon="2.0985">
        <ele>118</ele>
        <time>2013-08-18T12:04:00Z</time>
      </trkpt>
      <trkpt lat="48.61583" lon="2.09856">
        <ele>118</ele>
        <time>2013-08-18T12:04:02Z</time>
      </trkpt>
      <trkpt lat="48.61583" lon="2.09861">
        <ele>117</ele>
        <time>2013-08-18T12:04:04Z</time>
      </trkpt>
      <trkpt lat="48.61583" lon="2.09866">
        <ele>117</ele>
        <time>2013-08-18T12:04:06Z</time>
      </trkpt>
      <trkpt lat="48.61583" lon="2.09872">
        <ele>117</ele>
        <time>2013-08-18T12:04:08Z</time>
      </trkpt>
      <trkpt lat="48.61583" lon="2.09877">
        <ele>117</ele>
        <time>2013-08-18T12:04:10Z</time>
      </trkpt>
      <trkpt lat="48.61583" lon="2.09882">
        <ele>117</ele>
        <time>2013-08-18T12:04:12Z</time>
      </trkpt>
      <trkpt lat="48.61583" lon="2.09888">
        <ele>117</ele>
        <time>2013-08-18T12:04:14Z</time>
      </trkpt>
      <trkpt lat="48.61584" lon="2.09893">
        <ele>117</ele>
        <time>2013-08-18T12:04:16Z</time>
      </trkpt>
      <trkpt lat="48.61584" lon="2.09898">
        <ele>117</ele>
        <time>2013-08-18T12:04:18Z</time>
      </trkpt>
      <trkpt lat="48.61583" lon="2.09903">
        <ele>117</ele>
        <time>2013-08-18T12:04:20Z</time>
      </trkpt>
      <trkpt lat="48.61584" lon="2.09909">
        <ele>117</ele>
        <time>2013-08-18T12:04:22Z</time>
      </trkpt>
      <trkpt lat="48.61584" lon="2.09914">
        <ele>117</ele>
        <time>2013-08-18T12:04:24Z</time>
      </trkpt>
      <trkpt lat="48.61584" lon="2.09919">
        <ele>116</ele>
        <time>2013-08-18T12:04:26Z</time>
      </trkpt>
      <trkpt lat="48.61584" lon="2.09924">
        <ele>116</ele>
        <time>2013-08-18T12:04:28Z</time>
      </trkpt>
      <trkpt lat="48.61583" lon="2.09929">
        <ele>116</ele>
        <time>2013-08-18T12:04:30Z</time>
      </trkpt>
      <trkpt lat="48.61583" lon="2.09935">
        <ele>115</ele>
        <time>2013-08-18T12:04:32Z</time>
      </trkpt>
      <trkpt lat="48.61583" lon="2.0994">
        <ele>115</ele>
        <time>2013-08-18T12:04:34Z</time>
      </trkpt>
      <trkpt lat="48.61583" lon="2.09946">
        <ele>115</ele>
        <time>2013-08-18T12:04:36Z</time>
      </trkpt>
      <trkpt lat="48.61583" lon="2.09951">
        <ele>115</ele>
        <time>2013-08-18T12:04:38Z</time>
      </trkpt>
      <trkpt lat="48.61583" lon="2.09957">
        <ele>115</ele>
        <time>2013-08-18T12:04:40Z</time>
      </trkpt>
      <trkpt lat="48.61583" lon="2.09962">
        <ele>114</ele>
        <time>2013-08-18T12:04:42Z</time>
      </trkpt>
      <trkpt lat="48.61583" lon="2.09967">
        <ele>114</ele>
        <time>2013-08-18T12:04:44Z</time>
      </trkpt>
      <trkpt lat="48.61582" lon="2.09973">
        <ele>114</ele>
        <time>2013-08-18T12:04:46Z</time>
      </trkpt>
      <trkpt lat="48.61582" lon="2.09978">
        <ele>114</ele>
        <time>2013-08-18T12:04:48Z</time>
      </trkpt>
      <trkpt lat="48.61582" lon="2.09984">
        <ele>113</ele>
        <time>2013-08-18T12:04:50Z</time>
      </trkpt>
      <trkpt lat="48.61582" lon="2.09989">
        <ele>113</ele>
        <time>2013-08-18T12:04:52Z</time>
      </trkpt>
      <trkpt lat="48.61581" lon="2.09994">
        <ele>113</ele>
        <time>2013-08-18T12:04:54Z</time>
      </trkpt>
      <trkpt lat="48.61581" lon="2.1">
        <ele>113</ele>
        <time>2013-08-18T12:04:56Z</time>
      </trkpt>
      <trkpt lat="48.61581" lon="2.10005">
        <ele>113</ele>
        <time>2013-08-18T12:04:58Z</time>
      </trkpt>
      <trkpt lat="48.61581" lon="2.10011">
        <ele>113</ele>
        <time>2013-08-18T12:05:00Z</time>
      </trkpt>
      <trkpt lat="48.61581" lon="2.10016">
        <ele>113</ele>
        <time>2013-08-18T12:05:02Z</time>
      </trkpt>
      <trkpt lat="48.6158" lon="2.10022">
        <ele>113</ele>
        <time>2013-08-18T12:05:04Z</time>
      </trkpt>
      <trkpt lat="48.61579" lon="2.10027">
        <ele>113</ele>
        <time>2013-08-18T12:05:06Z</time>
      </trkpt>
      <trkpt lat="48.61579" lon="2.10032">
        <ele>113</ele>
        <time>2013-08-18T12:05:08Z</time>
      </trkpt>
      <trkpt lat="48.61578" lon="2.10037">
        <ele>113</ele>
        <time>2013-08-18T12:05:10Z</time>
      </trkpt>
      <trkpt lat="48.61578" lon="2.10043">
        <ele>113</ele>
        <time>2013-08-18T12:05:12Z</time>
      </trkpt>
      <trkpt lat="48.61577" lon="2.10048">
        <ele>113</ele>
        <time>2013-08-18T12:05:14Z</time>
      </trkpt>
      <trkpt lat="48.61577" lon="2.10053">
        <ele>113</ele>
        <time>2013-08-18T12:05:16Z</time>
      </trkpt>
      <trkpt lat="48.61576" lon="2.10058">
        <ele>113</ele>
        <time>2013-08-18T12:05:18Z</time>
      </trkpt>
      <trkpt lat="48.61576" lon="2.10064">
        <ele>113</ele>
        <time>2013-08-18T12:05:20Z</time>
      </trkpt>
      <trkpt lat="48.61575" lon="2.10069">
        <ele>113</ele>
        <time>2013-08-18T12:05:22Z</time>
      </trkpt>
      <trkpt lat="48.61575" lon="2.10074">
        <ele>113</ele>
        <time>2013-08-18T12:05:24Z</time>
      </trkpt>
      <trkpt lat="48.61574" lon="2.1008">
        <ele>113</ele>
        <time>2013-08-18T12:05:26Z</time>
      </trkpt>
      <trkpt lat="48.61573" lon="2.10085">
        <ele>113</ele>
        <time>2013-08-18T12:05:28Z</time>
      </trkpt>
      <trkpt lat="48.61573" lon="2.1009">
        <ele>113</ele>
        <time>2013-08-18T12:05:30Z</time>
      </trkpt>
      <trkpt lat="48.61572" lon="2.10095">
        <ele>113</ele>
        <time>2013-08-18T12:05:32Z</time>
      </trkpt>
      <trkpt lat="48.61571" lon="2.101">
        <ele>112</ele>
        <time>2013-08-18T12:05:34Z</time>
      </trkpt>
      <trkpt lat="48.6157" lon="2.10105">
        <ele>112</ele>
        <time>2013-08-18T12:05:36Z</time>
      </trkpt>
      <trkpt lat="48.6157" lon="2.10111">
        <ele>112</ele>
        <time>2013-08-18T12:05:38Z</time>
      </trkpt>
      <trkpt lat="48.61569" lon="2.10116">
        <ele>112</ele>
        <time>2013-08-18T12:05:40Z</time>
      </trkpt>
      <trkpt lat="48.61568" lon="2.10122">
        <ele>112</ele>
        <time>2013-08-18T12:05:42Z</time>
      </trkpt>
      <trkpt lat="48.61567" lon="2.10127">
        <ele>112</ele>
        <time>2013-08-18T12:05:44Z</time>
      </trkpt>
      <trkpt lat="48.61566" lon="2.10132">
        <ele>112</ele>
        <time>2013-08-18T12:05:46Z</time>
      </trkpt>
      <trkpt lat="48.61565" lon="2.10138">
        <ele>112</ele>
        <time>2013-08-18T12:05:48Z</time>
      </trkpt>
      <trkpt lat="48.61565" lon="2.10143">
        <ele>112</ele>
        <time>2013-08-18T12:05:50Z</time>
      </trkpt>
      <trkpt lat="48.61564" lon="2.10148">
        <ele>112</ele>
        <time>2013-08-18T12:05:52Z</time>
      </trkpt>
      <trkpt lat="48.61563" lon="2.10154">
        <ele>112</ele>
        <time>2013-08-18T12:05:54Z</time>
      </trkpt>
      <trkpt lat="48.61562" lon="2.10159">
        <ele>112</ele>
        <time>2013-08-18T12:05:56Z</time>
      </trkpt>
      <trkpt lat="48.61562" lon="2.10165">
        <ele>112</ele>
        <time>2013-08-18T12:05:58Z</time>
      </trkpt>
      <trkpt lat="48.61561" lon="2.1017">
        <ele>112</ele>
        <time>2013-08-18T12:06:00Z</time>
      </trkpt>
      <trkpt lat="48.6156" lon="2.10175">
        <ele>112</ele>
        <time>2013-08-18T12:06:02Z</time>
      </trkpt>
      <trkpt lat="48.6156" lon="2.10181">
        <ele>112</ele>
        <time>2013-08-18T12:06:04Z</time>
      </trkpt>
      <trkpt lat="48.6156" lon="2.10186">
        <ele>112</ele>
        <time>2013-08-18T12:06:06Z</time>
      </trkpt>
      <trkpt lat="48.61558" lon="2.10191">
        <ele>112</ele>
        <time>2013-08-18T12:06:08Z</time>
      </trkpt>
      <trkpt lat="48.61557" lon="2.10196">
        <ele>112</ele>
        <time>2013-08-18T12:06:10Z</time>
      </trkpt>
      <trkpt lat="48.61555" lon="2.102">
        <ele>112</ele>
        <time>2013-08-18T12:06:12Z</time>
      </trkpt>
      <trkpt lat="48.61552" lon="2.10203">
        <ele>112</ele>
        <time>2013-08-18T12:06:14Z</time>
      </trkpt>
      <trkpt lat="48.6155" lon="2.10206">
        <ele>112</ele>
        <time>2013-08-18T12:06:16Z</time>
      </trkpt>
      <trkpt lat="48.61549" lon="2.1021">
        <ele>112</ele>
        <time>2013-08-18T12:06:18Z</time>
      </trkpt>
      <trkpt lat="48.61546" lon="2.10214">
        <ele>112</ele>
        <time>2013-08-18T12:06:20Z</time>
      </trkpt>
      <trkpt lat="48.61543" lon="2.10216">
        <ele>112</ele>
        <time>2013-08-18T12:06:23Z</time>
      </trkpt>
      <trkpt lat="48.61542" lon="2.10218">
        <ele>112</ele>
        <time>2013-08-18T12:06:56Z</time>
      </trkpt>
      <trkpt lat="48.61543" lon="2.1022">
        <ele>112</ele>
        <time>2013-08-18T12:07:12Z</time>
      </trkpt>
      <trkpt lat="48.61544" lon="2.10221">
        <ele>112</ele>
        <time>2013-08-18T12:07:19Z</time>
      </trkpt>
      <trkpt lat="48.61543" lon="2.10223">
        <ele>112</ele>
        <time>2013-08-18T12:07:24Z</time>
      </trkpt>
      <trkpt lat="48.61541" lon="2.10223">
        <ele>112</ele>
        <time>2013-08-18T12:07:33Z</time>
      </trkpt>
      <trkpt lat="48.61541" lon="2.10226">
        <ele>112</ele>
        <time>2013-08-18T12:07:35Z</time>
      </trkpt>
      <trkpt lat="48.6154" lon="2.10228">
        <ele>112</ele>
        <time>2013-08-18T12:07:37Z</time>
      </trkpt>
      <trkpt lat="48.6154" lon="2.10232">
        <ele>112</ele>
        <time>2013-08-18T12:07:39Z</time>
      </trkpt>
      <trkpt lat="48.6154" lon="2.10236">
        <ele>112</ele>
        <time>2013-08-18T12:07:41Z</time>
      </trkpt>
      <trkpt lat="48.61539" lon="2.10239">
        <ele>112</ele>
        <time>2013-08-18T12:07:43Z</time>
      </trkpt>
      <trkpt lat="48.61538" lon="2.10243">
        <ele>112</ele>
        <time>2013-08-18T12:07:45Z</time>
      </trkpt>
      <trkpt lat="48.61538" lon="2.10248">
        <ele>112</ele>
        <time>2013-08-18T12:07:48Z</time>
      </trkpt>
      <trkpt lat="48.61537" lon="2.10254">
        <ele>112</ele>
        <time>2013-08-18T12:07:51Z</time>
      </trkpt>
      <trkpt lat="48.61536" lon="2.10258">
        <ele>112</ele>
        <time>2013-08-18T12:07:53Z</time>
      </trkpt>
      <trkpt lat="48.61535" lon="2.10262">
        <ele>112</ele>
        <time>2013-08-18T12:07:55Z</time>
      </trkpt>
      <trkpt lat="48.61534" lon="2.10265">
        <ele>112</ele>
        <time>2013-08-18T12:07:57Z</time>
      </trkpt>
      <trkpt lat="48.61533" lon="2.10268">
        <ele>112</ele>
        <time>2013-08-18T12:07:59Z</time>
      </trkpt>
      <trkpt lat="48.61531" lon="2.10272">
        <ele>112</ele>
        <time>2013-08-18T12:08:01Z</time>
      </trkpt>
      <trkpt lat="48.6153" lon="2.10275">
        <ele>112</ele>
        <time>2013-08-18T12:08:03Z</time>
      </trkpt>
      <trkpt lat="48.6153" lon="2.10279">
        <ele>112</ele>
        <time>2013-08-18T12:08:05Z</time>
      </trkpt>
      <trkpt lat="48.61528" lon="2.10283">
        <ele>112</ele>
        <time>2013-08-18T12:08:08Z</time>
      </trkpt>
      <trkpt lat="48.61526" lon="2.10285">
        <ele>112</ele>
        <time>2013-08-18T12:08:10Z</time>
      </trkpt>
      <trkpt lat="48.61526" lon="2.10289">
        <ele>112</ele>
        <time>2013-08-18T12:08:12Z</time>
      </trkpt>
      <trkpt lat="48.61526" lon="2.10292">
        <ele>112</ele>
        <time>2013-08-18T12:08:14Z</time>
      </trkpt>
      <trkpt lat="48.61526" lon="2.10296">
        <ele>112</ele>
        <time>2013-08-18T12:08:16Z</time>
      </trkpt>
      <trkpt lat="48.61525" lon="2.103">
        <ele>112</ele>
        <time>2013-08-18T12:08:18Z</time>
      </trkpt>
      <trkpt lat="48.61524" lon="2.10303">
        <ele>112</ele>
        <time>2013-08-18T12:08:20Z</time>
      </trkpt>
      <trkpt lat="48.61523" lon="2.10307">
        <ele>111</ele>
        <time>2013-08-18T12:08:22Z</time>
      </trkpt>
      <trkpt lat="48.61523" lon="2.1031">
        <ele>111</ele>
        <time>2013-08-18T12:08:24Z</time>
      </trkpt>
      <trkpt lat="48.61522" lon="2.10314">
        <ele>110</ele>
        <time>2013-08-18T12:08:26Z</time>
      </trkpt>
      <trkpt lat="48.6152" lon="2.10318">
        <ele>110</ele>
        <time>2013-08-18T12:08:28Z</time>
      </trkpt>
      <trkpt lat="48.61519" lon="2.10322">
        <ele>110</ele>
        <time>2013-08-18T12:08:30Z</time>
      </trkpt>
      <trkpt lat="48.61517" lon="2.10326">
        <ele>110</ele>
        <time>2013-08-18T12:08:32Z</time>
      </trkpt>
      <trkpt lat="48.61515" lon="2.10331">
        <ele>110</ele>
        <time>2013-08-18T12:08:34Z</time>
      </trkpt>
      <trkpt lat="48.61514" lon="2.10335">
        <ele>110</ele>
        <time>2013-08-18T12:08:36Z</time>
      </trkpt>
      <trkpt lat="48.61513" lon="2.10339">
        <ele>110</ele>
        <time>2013-08-18T12:08:38Z</time>
      </trkpt>
      <trkpt lat="48.61511" lon="2.10343">
        <ele>110</ele>
        <time>2013-08-18T12:08:40Z</time>
      </trkpt>
      <trkpt lat="48.61509" lon="2.10347">
        <ele>110</ele>
        <time>2013-08-18T12:08:42Z</time>
      </trkpt>
      <trkpt lat="48.61508" lon="2.10351">
        <ele>110</ele>
        <time>2013-08-18T12:08:44Z</time>
      </trkpt>
      <trkpt lat="48.61506" lon="2.10354">
        <ele>110</ele>
        <time>2013-08-18T12:08:46Z</time>
      </trkpt>
      <trkpt lat="48.61503" lon="2.10358">
        <ele>110</ele>
        <time>2013-08-18T12:08:48Z</time>
      </trkpt>
      <trkpt lat="48.61502" lon="2.10362">
        <ele>110</ele>
        <time>2013-08-18T12:08:50Z</time>
      </trkpt>
      <trkpt lat="48.615" lon="2.10366">
        <ele>110</ele>
        <time>2013-08-18T12:08:53Z</time>
      </trkpt>
      <trkpt lat="48.61498" lon="2.10371">
        <ele>109</ele>
        <time>2013-08-18T12:08:56Z</time>
      </trkpt>
      <trkpt lat="48.61495" lon="2.10375">
        <ele>109</ele>
        <time>2013-08-18T12:08:58Z</time>
      </trkpt>
      <trkpt lat="48.61494" lon="2.10378">
        <ele>109</ele>
        <time>2013-08-18T12:09:00Z</time>
      </trkpt>
      <trkpt lat="48.61491" lon="2.10382">
        <ele>108</ele>
        <time>2013-08-18T12:09:02Z</time>
      </trkpt>
      <trkpt lat="48.6149" lon="2.10384">
        <ele>108</ele>
        <time>2013-08-18T12:09:04Z</time>
      </trkpt>
      <trkpt lat="48.61488" lon="2.10388">
        <ele>108</ele>
        <time>2013-08-18T12:09:06Z</time>
      </trkpt>
      <trkpt lat="48.61486" lon="2.10391">
        <ele>108</ele>
        <time>2013-08-18T12:09:08Z</time>
      </trkpt>
      <trkpt lat="48.61484" lon="2.10395">
        <ele>108</ele>
        <time>2013-08-18T12:09:10Z</time>
      </trkpt>
      <trkpt lat="48.61482" lon="2.10398">
        <ele>108</ele>
        <time>2013-08-18T12:09:12Z</time>
      </trkpt>
      <trkpt lat="48.61479" lon="2.10403">
        <ele>108</ele>
        <time>2013-08-18T12:09:15Z</time>
      </trkpt>
      <trkpt lat="48.61477" lon="2.10406">
        <ele>108</ele>
        <time>2013-08-18T12:09:17Z</time>
      </trkpt>
      <trkpt lat="48.61474" lon="2.10409">
        <ele>108</ele>
        <time>2013-08-18T12:09:19Z</time>
      </trkpt>
      <trkpt lat="48.61472" lon="2.10414">
        <ele>108</ele>
        <time>2013-08-18T12:09:21Z</time>
      </trkpt>
      <trkpt lat="48.61468" lon="2.10419">
        <ele>108</ele>
        <time>2013-08-18T12:09:24Z</time>
      </trkpt>
      <trkpt lat="48.61465" lon="2.10423">
        <ele>108</ele>
        <time>2013-08-18T12:09:27Z</time>
      </trkpt>
      <trkpt lat="48.61463" lon="2.10426">
        <ele>107</ele>
        <time>2013-08-18T12:09:29Z</time>
      </trkpt>
      <trkpt lat="48.6146" lon="2.10432">
        <ele>107</ele>
        <time>2013-08-18T12:09:33Z</time>
      </trkpt>
      <trkpt lat="48.61458" lon="2.10437">
        <ele>107</ele>
        <time>2013-08-18T12:09:36Z</time>
      </trkpt>
      <trkpt lat="48.61456" lon="2.1044">
        <ele>107</ele>
        <time>2013-08-18T12:09:38Z</time>
      </trkpt>
      <trkpt lat="48.61454" lon="2.10443">
        <ele>107</ele>
        <time>2013-08-18T12:09:40Z</time>
      </trkpt>
      <trkpt lat="48.61452" lon="2.10446">
        <ele>107</ele>
        <time>2013-08-18T12:09:42Z</time>
      </trkpt>
      <trkpt lat="48.6145" lon="2.1045">
        <ele>107</ele>
        <time>2013-08-18T12:09:44Z</time>
      </trkpt>
      <trkpt lat="48.61448" lon="2.10455">
        <ele>107</ele>
        <time>2013-08-18T12:09:47Z</time>
      </trkpt>
      <trkpt lat="48.61446" lon="2.10458">
        <ele>107</ele>
        <time>2013-08-18T12:09:49Z</time>
      </trkpt>
      <trkpt lat="48.61444" lon="2.10463">
        <ele>107</ele>
        <time>2013-08-18T12:09:52Z</time>
      </trkpt>
      <trkpt lat="48.61441" lon="2.10469">
        <ele>107</ele>
        <time>2013-08-18T12:09:56Z</time>
      </trkpt>
      <trkpt lat="48.61438" lon="2.10474">
        <ele>107</ele>
        <time>2013-08-18T12:10:00Z</time>
      </trkpt>
      <trkpt lat="48.61437" lon="2.10478">
        <ele>107</ele>
        <time>2013-08-18T12:10:02Z</time>
      </trkpt>
      <trkpt lat="48.61434" lon="2.10483">
        <ele>107</ele>
        <time>2013-08-18T12:10:05Z</time>
      </trkpt>
      <trkpt lat="48.61433" lon="2.10487">
        <ele>106</ele>
        <time>2013-08-18T12:10:08Z</time>
      </trkpt>
      <trkpt lat="48.61432" lon="2.10492">
        <ele>105</ele>
        <time>2013-08-18T12:10:11Z</time>
      </trkpt>
      <trkpt lat="48.61432" lon="2.10495">
        <ele>104</ele>
        <time>2013-08-18T12:10:13Z</time>
      </trkpt>
      <trkpt lat="48.61431" lon="2.105">
        <ele>104</ele>
        <time>2013-08-18T12:10:16Z</time>
      </trkpt>
      <trkpt lat="48.6143" lon="2.10504">
        <ele>103</ele>
        <time>2013-08-18T12:10:18Z</time>
      </trkpt>
      <trkpt lat="48.61429" lon="2.10507">
        <ele>103</ele>
        <time>2013-08-18T12:10:20Z</time>
      </trkpt>
      <trkpt lat="48.61428" lon="2.10511">
        <ele>103</ele>
        <time>2013-08-18T12:10:22Z</time>
      </trkpt>
      <trkpt lat="48.61427" lon="2.10514">
        <ele>103</ele>
        <time>2013-08-18T12:10:24Z</time>
      </trkpt>
      <trkpt lat="48.61425" lon="2.1052">
        <ele>102</ele>
        <time>2013-08-18T12:10:27Z</time>
      </trkpt>
      <trkpt lat="48.61425" lon="2.10524">
        <ele>102</ele>
        <time>2013-08-18T12:10:29Z</time>
      </trkpt>
      <trkpt lat="48.61423" lon="2.1053">
        <ele>101</ele>
        <time>2013-08-18T12:10:32Z</time>
      </trkpt>
      <trkpt lat="48.61422" lon="2.10536">
        <ele>101</ele>
        <time>2013-08-18T12:10:35Z</time>
      </trkpt>
      <trkpt lat="48.61422" lon="2.1054">
        <ele>101</ele>
        <time>2013-08-18T12:10:37Z</time>
      </trkpt>
      <trkpt lat="48.61421" lon="2.10548">
        <ele>101</ele>
        <time>2013-08-18T12:10:40Z</time>
      </trkpt>
      <trkpt lat="48.6142" lon="2.10554">
        <ele>101</ele>
        <time>2013-08-18T12:10:43Z</time>
      </trkpt>
      <trkpt lat="48.6142" lon="2.10558">
        <ele>101</ele>
        <time>2013-08-18T12:10:45Z</time>
      </trkpt>
      <trkpt lat="48.6142" lon="2.10562">
        <ele>101</ele>
        <time>2013-08-18T12:10:47Z</time>
      </trkpt>
      <trkpt lat="48.61419" lon="2.10565">
        <ele>101</ele>
        <time>2013-08-18T12:10:49Z</time>
      </trkpt>
      <trkpt lat="48.61418" lon="2.10569">
        <ele>101</ele>
        <time>2013-08-18T12:10:51Z</time>
      </trkpt>
      <trkpt lat="48.61418" lon="2.10573">
        <ele>101</ele>
        <time>2013-08-18T12:10:53Z</time>
      </trkpt>
      <trkpt lat="48.61417" lon="2.10575">
        <ele>101</ele>
        <time>2013-08-18T12:10:55Z</time>
      </trkpt>
      <trkpt lat="48.61415" lon="2.1058">
        <ele>101</ele>
        <time>2013-08-18T12:10:59Z</time>
      </trkpt>
      <trkpt lat="48.61414" lon="2.10583">
        <ele>101</ele>
        <time>2013-08-18T12:11:01Z</time>
      </trkpt>
      <trkpt lat="48.61415" lon="2.10589">
        <ele>101</ele>
        <time>2013-08-18T12:11:04Z</time>
      </trkpt>
      <trkpt lat="48.61417" lon="2.10593">
        <ele>101</ele>
        <time>2013-08-18T12:11:07Z</time>
      </trkpt>
      <trkpt lat="48.61418" lon="2.10596">
        <ele>101</ele>
        <time>2013-08-18T12:11:09Z</time>
      </trkpt>
      <trkpt lat="48.6142" lon="2.10601">
        <ele>101</ele>
        <time>2013-08-18T12:11:12Z</time>
      </trkpt>
      <trkpt lat="48.61422" lon="2.10606">
        <ele>101</ele>
        <time>2013-08-18T12:11:15Z</time>
      </trkpt>
      <trkpt lat="48.61424" lon="2.10608">
        <ele>101</ele>
        <time>2013-08-18T12:11:17Z</time>
      </trkpt>
      <trkpt lat="48.61427" lon="2.10613">
        <ele>101</ele>
        <time>2013-08-18T12:11:21Z</time>
      </trkpt>
      <trkpt lat="48.61428" lon="2.10616">
        <ele>101</ele>
        <time>2013-08-18T12:11:23Z</time>
      </trkpt>
      <trkpt lat="48.61431" lon="2.10621">
        <ele>101</ele>
        <time>2013-08-18T12:11:27Z</time>
      </trkpt>
      <trkpt lat="48.61432" lon="2.10624">
        <ele>101</ele>
        <time>2013-08-18T12:11:29Z</time>
      </trkpt>
      <trkpt lat="48.61438" lon="2.1063">
        <ele>101</ele>
        <time>2013-08-18T12:11:33Z</time>
      </trkpt>
      <trkpt lat="48.61441" lon="2.10633">
        <ele>101</ele>
        <time>2013-08-18T12:11:36Z</time>
      </trkpt>
      <trkpt lat="48.61443" lon="2.10636">
        <ele>101</ele>
        <time>2013-08-18T12:11:38Z</time>
      </trkpt>
      <trkpt lat="48.61445" lon="2.10639">
        <ele>101</ele>
        <time>2013-08-18T12:11:40Z</time>
      </trkpt>
      <trkpt lat="48.61445" lon="2.10643">
        <ele>101</ele>
        <time>2013-08-18T12:11:43Z</time>
      </trkpt>
      <trkpt lat="48.61445" lon="2.10646">
        <ele>101</ele>
        <time>2013-08-18T12:11:45Z</time>
      </trkpt>
      <trkpt lat="48.61447" lon="2.10648">
        <ele>101</ele>
        <time>2013-08-18T12:11:47Z</time>
      </trkpt>
      <trkpt lat="48.61449" lon="2.10653">
        <ele>101</ele>
        <time>2013-08-18T12:11:50Z</time>
      </trkpt>
      <trkpt lat="48.61451" lon="2.10655">
        <ele>101</ele>
        <time>2013-08-18T12:11:52Z</time>
      </trkpt>
      <trkpt lat="48.61455" lon="2.10661">
        <ele>101</ele>
        <time>2013-08-18T12:11:56Z</time>
      </trkpt>
      <trkpt lat="48.61458" lon="2.10665">
        <ele>101</ele>
        <time>2013-08-18T12:12:00Z</time>
      </trkpt>
      <trkpt lat="48.6146" lon="2.10668">
        <ele>101</ele>
        <time>2013-08-18T12:12:02Z</time>
      </trkpt>
      <trkpt lat="48.61462" lon="2.10672">
        <ele>101</ele>
        <time>2013-08-18T12:12:05Z</time>
      </trkpt>
      <trkpt lat="48.61465" lon="2.10676">
        <ele>101</ele>
        <time>2013-08-18T12:12:07Z</time>
      </trkpt>
      <trkpt lat="48.61467" lon="2.10678">
        <ele>101</ele>
        <time>2013-08-18T12:12:09Z</time>
      </trkpt>
      <trkpt lat="48.61469" lon="2.10681">
        <ele>101</ele>
        <time>2013-08-18T12:12:12Z</time>
      </trkpt>
      <trkpt lat="48.61471" lon="2.10683">
        <ele>101</ele>
        <time>2013-08-18T12:12:14Z</time>
      </trkpt>
      <trkpt lat="48.61472" lon="2.10686">
        <ele>101</ele>
        <time>2013-08-18T12:12:16Z</time>
      </trkpt>
      <trkpt lat="48.61476" lon="2.1069">
        <ele>101</ele>
        <time>2013-08-18T12:12:19Z</time>
      </trkpt>
      <trkpt lat="48.61479" lon="2.10692">
        <ele>101</ele>
        <time>2013-08-18T12:12:21Z</time>
      </trkpt>
      <trkpt lat="48.61481" lon="2.10694">
        <ele>101</ele>
        <time>2013-08-18T12:12:23Z</time>
      </trkpt>
      <trkpt lat="48.61484" lon="2.10696">
        <ele>101</ele>
        <time>2013-08-18T12:12:25Z</time>
      </trkpt>
      <trkpt lat="48.61487" lon="2.10698">
        <ele>101</ele>
        <time>2013-08-18T12:12:27Z</time>
      </trkpt>
      <trkpt lat="48.61489" lon="2.10699">
        <ele>101</ele>
        <time>2013-08-18T12:12:29Z</time>
      </trkpt>
      <trkpt lat="48.61493" lon="2.10701">
        <ele>101</ele>
        <time>2013-08-18T12:12:32Z</time>
      </trkpt>
      <trkpt lat="48.61496" lon="2.10702">
        <ele>101</ele>
        <time>2013-08-18T12:12:34Z</time>
      </trkpt>
      <trkpt lat="48.61499" lon="2.10704">
        <ele>101</ele>
        <time>2013-08-18T12:12:36Z</time>
      </trkpt>
      <trkpt lat="48.61502" lon="2.10705">
        <ele>101</ele>
        <time>2013-08-18T12:12:38Z</time>
      </trkpt>
      <trkpt lat="48.61505" lon="2.10706">
        <ele>101</ele>
        <time>2013-08-18T12:12:40Z</time>
      </trkpt>
      <trkpt lat="48.61507" lon="2.1071">
        <ele>101</ele>
        <time>2013-08-18T12:12:43Z</time>
      </trkpt>
      <trkpt lat="48.61509" lon="2.10716">
        <ele>101</ele>
        <time>2013-08-18T12:12:45Z</time>
      </trkpt>
      <trkpt lat="48.61508" lon="2.10721">
        <ele>101</ele>
        <time>2013-08-18T12:12:47Z</time>
      </trkpt>
      <trkpt lat="48.61507" lon="2.10725">
        <ele>102</ele>
        <time>2013-08-18T12:12:49Z</time>
      </trkpt>
      <trkpt lat="48.61507" lon="2.1073">
        <ele>102</ele>
        <time>2013-08-18T12:12:51Z</time>
      </trkpt>
      <trkpt lat="48.61508" lon="2.10734">
        <ele>102</ele>
        <time>2013-08-18T12:12:53Z</time>
      </trkpt>
      <trkpt lat="48.61509" lon="2.10739">
        <ele>102</ele>
        <time>2013-08-18T12:12:55Z</time>
      </trkpt>
      <trkpt lat="48.61507" lon="2.10742">
        <ele>102</ele>
        <time>2013-08-18T12:12:57Z</time>
      </trkpt>
      <trkpt lat="48.61505" lon="2.10748">
        <ele>102</ele>
        <time>2013-08-18T12:13:00Z</time>
      </trkpt>
      <trkpt lat="48.61504" lon="2.10754">
        <ele>102</ele>
        <time>2013-08-18T12:13:03Z</time>
      </trkpt>
      <trkpt lat="48.61503" lon="2.10758">
        <ele>102</ele>
        <time>2013-08-18T12:13:05Z</time>
      </trkpt>
      <trkpt lat="48.61503" lon="2.10762">
        <ele>102</ele>
        <time>2013-08-18T12:13:07Z</time>
      </trkpt>
      <trkpt lat="48.61502" lon="2.10766">
        <ele>102</ele>
        <time>2013-08-18T12:13:09Z</time>
      </trkpt>
      <trkpt lat="48.615" lon="2.1077">
        <ele>102</ele>
        <time>2013-08-18T12:13:11Z</time>
      </trkpt>
      <trkpt lat="48.61499" lon="2.10773">
        <ele>102</ele>
        <time>2013-08-18T12:13:13Z</time>
      </trkpt>
      <trkpt lat="48.61498" lon="2.10777">
        <ele>102</ele>
        <time>2013-08-18T12:13:15Z</time>
      </trkpt>
      <trkpt lat="48.61497" lon="2.1078">
        <ele>102</ele>
        <time>2013-08-18T12:13:17Z</time>
      </trkpt>
      <trkpt lat="48.61495" lon="2.10785">
        <ele>102</ele>
        <time>2013-08-18T12:13:20Z</time>
      </trkpt>
      <trkpt lat="48.61493" lon="2.1079">
        <ele>102</ele>
        <time>2013-08-18T12:13:23Z</time>
      </trkpt>
      <trkpt lat="48.61492" lon="2.10793">
        <ele>102</ele>
        <time>2013-08-18T12:13:25Z</time>
      </trkpt>
      <trkpt lat="48.61492" lon="2.10797">
        <ele>102</ele>
        <time>2013-08-18T12:13:27Z</time>
      </trkpt>
      <trkpt lat="48.61492" lon="2.10801">
        <ele>102</ele>
        <time>2013-08-18T12:13:30Z</time>
      </trkpt>
      <trkpt lat="48.61492" lon="2.10803">
        <ele>102</ele>
        <time>2013-08-18T12:13:32Z</time>
      </trkpt>
      <trkpt lat="48.61493" lon="2.10804">
        <ele>102</ele>
        <time>2013-08-18T12:13:35Z</time>
      </trkpt>
      <trkpt lat="48.61495" lon="2.10805">
        <ele>102</ele>
        <time>2013-08-18T12:13:37Z</time>
      </trkpt>
      <trkpt lat="48.61497" lon="2.10806">
        <ele>102</ele>
        <time>2013-08-18T12:13:40Z</time>
      </trkpt>
      <trkpt lat="48.61498" lon="2.10808">
        <ele>102</ele>
        <time>2013-08-18T12:13:42Z</time>
      </trkpt>
      <trkpt lat="48.61497" lon="2.1081">
        <ele>102</ele>
        <time>2013-08-18T12:13:44Z</time>
      </trkpt>
      <trkpt lat="48.61495" lon="2.10812">
        <ele>104</ele>
        <time>2013-08-18T12:13:47Z</time>
      </trkpt>
      <trkpt lat="48.61494" lon="2.10814">
        <ele>105</ele>
        <time>2013-08-18T12:13:49Z</time>
      </trkpt>
      <trkpt lat="48.61494" lon="2.10816">
        <ele>106</ele>
        <time>2013-08-18T12:13:52Z</time>
      </trkpt>
      <trkpt lat="48.61493" lon="2.10818">
        <ele>107</ele>
        <time>2013-08-18T12:13:55Z</time>
      </trkpt>
      <trkpt lat="48.61494" lon="2.1082">
        <ele>108</ele>
        <time>2013-08-18T12:13:58Z</time>
      </trkpt>
      <trkpt lat="48.61494" lon="2.10822">
        <ele>109</ele>
        <time>2013-08-18T12:14:01Z</time>
      </trkpt>
      <trkpt lat="48.61492" lon="2.10824">
        <ele>110</ele>
        <time>2013-08-18T12:14:03Z</time>
      </trkpt>
      <trkpt lat="48.61491" lon="2.10826">
        <ele>112</ele>
        <time>2013-08-18T12:14:05Z</time>
      </trkpt>
      <trkpt lat="48.61491" lon="2.10824">
        <ele>113</ele>
        <time>2013-08-18T12:14:15Z</time>
      </trkpt>
      <trkpt lat="48.61492" lon="2.10822">
        <ele>113</ele>
        <time>2013-08-18T12:14:18Z</time>
      </trkpt>
      <trkpt lat="48.61493" lon="2.10821">
        <ele>113</ele>
        <time>2013-08-18T12:14:20Z</time>
      </trkpt>
      <trkpt lat="48.61496" lon="2.10818">
        <ele>112</ele>
        <time>2013-08-18T12:14:26Z</time>
      </trkpt>
      <trkpt lat="48.61498" lon="2.10815">
        <ele>112</ele>
        <time>2013-08-18T12:14:29Z</time>
      </trkpt>
      <trkpt lat="48.61498" lon="2.10814">
        <ele>110</ele>
        <time>2013-08-18T12:14:34Z</time>
      </trkpt>
      <trkpt lat="48.61498" lon="2.10816">
        <ele>110</ele>
        <time>2013-08-18T12:14:37Z</time>
      </trkpt>
      <trkpt lat="48.61496" lon="2.10817">
        <ele>110</ele>
        <time>2013-08-18T12:14:39Z</time>
      </trkpt>
      <trkpt lat="48.61495" lon="2.10819">
        <ele>110</ele>
        <time>2013-08-18T12:14:45Z</time>
      </trkpt>
      <trkpt lat="48.61494" lon="2.10819">
        <ele>110</ele>
        <time>2013-08-18T12:14:46Z</time>
      </trkpt>
    </trkseg>
  </trk>
</gpx>